<?xml version="1.0" encoding="UTF-8" standalone="no" ?>
<gpx xmlns="http://www.topografix.com/GPX/1/1" xmlns:xsi="http://www.w3.org/2001/XMLSchema-instance" xsi:schemaLocation="http://www.topografix.com/GPX/1/1 http://www.topografix.com/GPX/1/1/gpx.xsd" version="1.1" creator="VisuGPX - https://www.visugpx.com">
  <metadata>
    <name>FLesselles</name>
    <desc><![CDATA[Cœur et santé
17 pax
Stop avant ]]></desc>
  </metadata>
  <trk>
    <name><![CDATA[FLesselles_1]]></name>
    <trkseg>
      <trkpt lat="49.98959" lon="2.25996">
        <ele>93.7</ele>
        <time>2024-07-17T06:59:13Z</time>
      </trkpt>
      <trkpt lat="49.98958" lon="2.25992">
        <ele>93.7</ele>
        <time>2024-07-17T06:59:14Z</time>
      </trkpt>
      <trkpt lat="49.98958" lon="2.25994">
        <ele>93.7</ele>
        <time>2024-07-17T06:59:16Z</time>
      </trkpt>
      <trkpt lat="49.98958" lon="2.25998">
        <ele>93.7</ele>
        <time>2024-07-17T06:59:17Z</time>
      </trkpt>
      <trkpt lat="49.98957" lon="2.25999">
        <ele>93.7</ele>
        <time>2024-07-17T06:59:18Z</time>
      </trkpt>
      <trkpt lat="49.98957" lon="2.25999">
        <ele>93.7</ele>
        <time>2024-07-17T06:59:19Z</time>
      </trkpt>
      <trkpt lat="49.98957" lon="2.25999">
        <ele>93.7</ele>
        <time>2024-07-17T06:59:20Z</time>
      </trkpt>
      <trkpt lat="49.98957" lon="2.25999">
        <ele>93.7</ele>
        <time>2024-07-17T06:59:21Z</time>
      </trkpt>
      <trkpt lat="49.98957" lon="2.25999">
        <ele>93.7</ele>
        <time>2024-07-17T06:59:22Z</time>
      </trkpt>
      <trkpt lat="49.98957" lon="2.25999">
        <ele>93.7</ele>
        <time>2024-07-17T06:59:23Z</time>
      </trkpt>
      <trkpt lat="49.98957" lon="2.25999">
        <ele>93.7</ele>
        <time>2024-07-17T06:59:24Z</time>
      </trkpt>
      <trkpt lat="49.98957" lon="2.25999">
        <ele>93.7</ele>
        <time>2024-07-17T06:59:25Z</time>
      </trkpt>
      <trkpt lat="49.98957" lon="2.25999">
        <ele>93.7</ele>
        <time>2024-07-17T06:59:26Z</time>
      </trkpt>
      <trkpt lat="49.98957" lon="2.25999">
        <ele>93.7</ele>
        <time>2024-07-17T06:59:27Z</time>
      </trkpt>
      <trkpt lat="49.98957" lon="2.25999">
        <ele>93.7</ele>
        <time>2024-07-17T06:59:28Z</time>
      </trkpt>
      <trkpt lat="49.98957" lon="2.25999">
        <ele>93.7</ele>
        <time>2024-07-17T06:59:29Z</time>
      </trkpt>
      <trkpt lat="49.98957" lon="2.25999">
        <ele>93.7</ele>
        <time>2024-07-17T06:59:30Z</time>
      </trkpt>
      <trkpt lat="49.98957" lon="2.25999">
        <ele>93.7</ele>
        <time>2024-07-17T06:59:31Z</time>
      </trkpt>
      <trkpt lat="49.98957" lon="2.25999">
        <ele>93.7</ele>
        <time>2024-07-17T06:59:32Z</time>
      </trkpt>
      <trkpt lat="49.98957" lon="2.25999">
        <ele>93.7</ele>
        <time>2024-07-17T06:59:33Z</time>
      </trkpt>
      <trkpt lat="49.98957" lon="2.25999">
        <ele>93.7</ele>
        <time>2024-07-17T06:59:34Z</time>
      </trkpt>
      <trkpt lat="49.98957" lon="2.25999">
        <ele>93.7</ele>
        <time>2024-07-17T06:59:35Z</time>
      </trkpt>
      <trkpt lat="49.98957" lon="2.25999">
        <ele>93.7</ele>
        <time>2024-07-17T06:59:36Z</time>
      </trkpt>
      <trkpt lat="49.98957" lon="2.25999">
        <ele>93.7</ele>
        <time>2024-07-17T06:59:37Z</time>
      </trkpt>
      <trkpt lat="49.98957" lon="2.25999">
        <ele>93.7</ele>
        <time>2024-07-17T06:59:38Z</time>
      </trkpt>
      <trkpt lat="49.98957" lon="2.25999">
        <ele>93.7</ele>
        <time>2024-07-17T06:59:39Z</time>
      </trkpt>
      <trkpt lat="49.98957" lon="2.25999">
        <ele>93.7</ele>
        <time>2024-07-17T06:59:40Z</time>
      </trkpt>
      <trkpt lat="49.98957" lon="2.25999">
        <ele>93.7</ele>
        <time>2024-07-17T06:59:41Z</time>
      </trkpt>
      <trkpt lat="49.98957" lon="2.25999">
        <ele>93.7</ele>
        <time>2024-07-17T06:59:42Z</time>
      </trkpt>
      <trkpt lat="49.98957" lon="2.25999">
        <ele>93.7</ele>
        <time>2024-07-17T06:59:43Z</time>
      </trkpt>
      <trkpt lat="49.98957" lon="2.25999">
        <ele>93.7</ele>
        <time>2024-07-17T06:59:44Z</time>
      </trkpt>
      <trkpt lat="49.98957" lon="2.25999">
        <ele>93.7</ele>
        <time>2024-07-17T06:59:45Z</time>
      </trkpt>
      <trkpt lat="49.98957" lon="2.25999">
        <ele>93.7</ele>
        <time>2024-07-17T06:59:46Z</time>
      </trkpt>
      <trkpt lat="49.98957" lon="2.25999">
        <ele>93.7</ele>
        <time>2024-07-17T06:59:47Z</time>
      </trkpt>
      <trkpt lat="49.98957" lon="2.25999">
        <ele>93.7</ele>
        <time>2024-07-17T06:59:48Z</time>
      </trkpt>
      <trkpt lat="49.98957" lon="2.25999">
        <ele>93.7</ele>
        <time>2024-07-17T06:59:49Z</time>
      </trkpt>
      <trkpt lat="49.98957" lon="2.25999">
        <ele>93.7</ele>
        <time>2024-07-17T06:59:50Z</time>
      </trkpt>
      <trkpt lat="49.98957" lon="2.25999">
        <ele>93.7</ele>
        <time>2024-07-17T06:59:51Z</time>
      </trkpt>
      <trkpt lat="49.98957" lon="2.25999">
        <ele>93.7</ele>
        <time>2024-07-17T06:59:52Z</time>
      </trkpt>
      <trkpt lat="49.98957" lon="2.25999">
        <ele>93.7</ele>
        <time>2024-07-17T06:59:53Z</time>
      </trkpt>
      <trkpt lat="49.98957" lon="2.25999">
        <ele>93.7</ele>
        <time>2024-07-17T06:59:54Z</time>
      </trkpt>
      <trkpt lat="49.98957" lon="2.25999">
        <ele>93.7</ele>
        <time>2024-07-17T06:59:55Z</time>
      </trkpt>
      <trkpt lat="49.98957" lon="2.25999">
        <ele>93.7</ele>
        <time>2024-07-17T06:59:56Z</time>
      </trkpt>
      <trkpt lat="49.98957" lon="2.25999">
        <ele>93.7</ele>
        <time>2024-07-17T06:59:57Z</time>
      </trkpt>
      <trkpt lat="49.98957" lon="2.25999">
        <ele>93.7</ele>
        <time>2024-07-17T06:59:58Z</time>
      </trkpt>
      <trkpt lat="49.98957" lon="2.25999">
        <ele>93.7</ele>
        <time>2024-07-17T06:59:59Z</time>
      </trkpt>
      <trkpt lat="49.98957" lon="2.25999">
        <ele>93.7</ele>
        <time>2024-07-17T07:00:00Z</time>
      </trkpt>
      <trkpt lat="49.98957" lon="2.25999">
        <ele>93.7</ele>
        <time>2024-07-17T07:00:01Z</time>
      </trkpt>
      <trkpt lat="49.98957" lon="2.26">
        <ele>93.7</ele>
        <time>2024-07-17T07:00:02Z</time>
      </trkpt>
      <trkpt lat="49.98957" lon="2.26">
        <ele>93.7</ele>
        <time>2024-07-17T07:00:04Z</time>
      </trkpt>
      <trkpt lat="49.98957" lon="2.26">
        <ele>93.7</ele>
        <time>2024-07-17T07:00:05Z</time>
      </trkpt>
      <trkpt lat="49.98957" lon="2.26">
        <ele>93.7</ele>
        <time>2024-07-17T07:00:06Z</time>
      </trkpt>
      <trkpt lat="49.98957" lon="2.26">
        <ele>93.7</ele>
        <time>2024-07-17T07:00:07Z</time>
      </trkpt>
      <trkpt lat="49.98957" lon="2.26">
        <ele>93.7</ele>
        <time>2024-07-17T07:00:08Z</time>
      </trkpt>
      <trkpt lat="49.98957" lon="2.26">
        <ele>93.7</ele>
        <time>2024-07-17T07:00:09Z</time>
      </trkpt>
      <trkpt lat="49.98957" lon="2.26">
        <ele>93.7</ele>
        <time>2024-07-17T07:00:10Z</time>
      </trkpt>
      <trkpt lat="49.98957" lon="2.25999">
        <ele>93.7</ele>
        <time>2024-07-17T07:00:11Z</time>
      </trkpt>
      <trkpt lat="49.98957" lon="2.25999">
        <ele>93.7</ele>
        <time>2024-07-17T07:00:12Z</time>
      </trkpt>
      <trkpt lat="49.98957" lon="2.25999">
        <ele>93.7</ele>
        <time>2024-07-17T07:00:14Z</time>
      </trkpt>
      <trkpt lat="49.98957" lon="2.25999">
        <ele>93.7</ele>
        <time>2024-07-17T07:00:15Z</time>
      </trkpt>
      <trkpt lat="49.98957" lon="2.25999">
        <ele>93.7</ele>
        <time>2024-07-17T07:00:16Z</time>
      </trkpt>
      <trkpt lat="49.98957" lon="2.26">
        <ele>93.7</ele>
        <time>2024-07-17T07:00:17Z</time>
      </trkpt>
      <trkpt lat="49.98957" lon="2.26">
        <ele>93.7</ele>
        <time>2024-07-17T07:00:18Z</time>
      </trkpt>
      <trkpt lat="49.98957" lon="2.26">
        <ele>93.7</ele>
        <time>2024-07-17T07:00:19Z</time>
      </trkpt>
      <trkpt lat="49.98957" lon="2.25999">
        <ele>93.7</ele>
        <time>2024-07-17T07:00:20Z</time>
      </trkpt>
      <trkpt lat="49.98957" lon="2.25999">
        <ele>93.7</ele>
        <time>2024-07-17T07:00:21Z</time>
      </trkpt>
      <trkpt lat="49.98957" lon="2.25999">
        <ele>93.7</ele>
        <time>2024-07-17T07:00:22Z</time>
      </trkpt>
      <trkpt lat="49.98957" lon="2.25999">
        <ele>93.7</ele>
        <time>2024-07-17T07:00:23Z</time>
      </trkpt>
      <trkpt lat="49.98957" lon="2.25999">
        <ele>93.7</ele>
        <time>2024-07-17T07:00:24Z</time>
      </trkpt>
      <trkpt lat="49.98957" lon="2.25999">
        <ele>93.7</ele>
        <time>2024-07-17T07:00:25Z</time>
      </trkpt>
      <trkpt lat="49.98957" lon="2.25999">
        <ele>93.7</ele>
        <time>2024-07-17T07:00:26Z</time>
      </trkpt>
      <trkpt lat="49.98957" lon="2.25999">
        <ele>93.7</ele>
        <time>2024-07-17T07:00:27Z</time>
      </trkpt>
      <trkpt lat="49.98957" lon="2.25999">
        <ele>93.7</ele>
        <time>2024-07-17T07:00:28Z</time>
      </trkpt>
      <trkpt lat="49.98957" lon="2.25999">
        <ele>93.7</ele>
        <time>2024-07-17T07:00:29Z</time>
      </trkpt>
      <trkpt lat="49.98957" lon="2.25999">
        <ele>93.7</ele>
        <time>2024-07-17T07:00:30Z</time>
      </trkpt>
      <trkpt lat="49.98957" lon="2.25999">
        <ele>93.7</ele>
        <time>2024-07-17T07:00:31Z</time>
      </trkpt>
      <trkpt lat="49.98957" lon="2.25999">
        <ele>93.7</ele>
        <time>2024-07-17T07:00:32Z</time>
      </trkpt>
      <trkpt lat="49.98957" lon="2.25999">
        <ele>93.7</ele>
        <time>2024-07-17T07:00:33Z</time>
      </trkpt>
      <trkpt lat="49.98957" lon="2.25999">
        <ele>93.7</ele>
        <time>2024-07-17T07:00:34Z</time>
      </trkpt>
      <trkpt lat="49.98957" lon="2.25999">
        <ele>93.7</ele>
        <time>2024-07-17T07:00:35Z</time>
      </trkpt>
      <trkpt lat="49.98957" lon="2.25999">
        <ele>93.7</ele>
        <time>2024-07-17T07:00:36Z</time>
      </trkpt>
      <trkpt lat="49.98957" lon="2.25999">
        <ele>93.7</ele>
        <time>2024-07-17T07:00:37Z</time>
      </trkpt>
      <trkpt lat="49.98957" lon="2.25999">
        <ele>93.7</ele>
        <time>2024-07-17T07:00:38Z</time>
      </trkpt>
      <trkpt lat="49.98957" lon="2.25999">
        <ele>93.7</ele>
        <time>2024-07-17T07:00:39Z</time>
      </trkpt>
      <trkpt lat="49.98957" lon="2.25999">
        <ele>93.7</ele>
        <time>2024-07-17T07:00:40Z</time>
      </trkpt>
      <trkpt lat="49.98957" lon="2.25999">
        <ele>93.7</ele>
        <time>2024-07-17T07:00:41Z</time>
      </trkpt>
      <trkpt lat="49.98957" lon="2.25999">
        <ele>93.7</ele>
        <time>2024-07-17T07:00:42Z</time>
      </trkpt>
      <trkpt lat="49.98957" lon="2.25999">
        <ele>93.7</ele>
        <time>2024-07-17T07:00:43Z</time>
      </trkpt>
      <trkpt lat="49.98957" lon="2.25999">
        <ele>93.7</ele>
        <time>2024-07-17T07:00:44Z</time>
      </trkpt>
      <trkpt lat="49.98957" lon="2.25999">
        <ele>93.7</ele>
        <time>2024-07-17T07:00:45Z</time>
      </trkpt>
      <trkpt lat="49.98957" lon="2.25999">
        <ele>93.7</ele>
        <time>2024-07-17T07:00:46Z</time>
      </trkpt>
      <trkpt lat="49.98957" lon="2.25999">
        <ele>93.7</ele>
        <time>2024-07-17T07:00:47Z</time>
      </trkpt>
      <trkpt lat="49.98957" lon="2.25999">
        <ele>93.7</ele>
        <time>2024-07-17T07:00:48Z</time>
      </trkpt>
      <trkpt lat="49.98957" lon="2.25999">
        <ele>93.7</ele>
        <time>2024-07-17T07:00:49Z</time>
      </trkpt>
      <trkpt lat="49.98957" lon="2.25999">
        <ele>93.7</ele>
        <time>2024-07-17T07:00:50Z</time>
      </trkpt>
      <trkpt lat="49.98957" lon="2.25999">
        <ele>93.7</ele>
        <time>2024-07-17T07:00:51Z</time>
      </trkpt>
      <trkpt lat="49.98957" lon="2.25999">
        <ele>93.7</ele>
        <time>2024-07-17T07:00:52Z</time>
      </trkpt>
      <trkpt lat="49.98957" lon="2.25999">
        <ele>93.7</ele>
        <time>2024-07-17T07:00:53Z</time>
      </trkpt>
      <trkpt lat="49.98957" lon="2.25999">
        <ele>93.7</ele>
        <time>2024-07-17T07:00:54Z</time>
      </trkpt>
      <trkpt lat="49.98957" lon="2.25999">
        <ele>93.7</ele>
        <time>2024-07-17T07:00:55Z</time>
      </trkpt>
      <trkpt lat="49.98957" lon="2.25999">
        <ele>93.7</ele>
        <time>2024-07-17T07:00:56Z</time>
      </trkpt>
      <trkpt lat="49.98957" lon="2.25999">
        <ele>93.7</ele>
        <time>2024-07-17T07:00:57Z</time>
      </trkpt>
      <trkpt lat="49.98957" lon="2.25999">
        <ele>93.7</ele>
        <time>2024-07-17T07:00:58Z</time>
      </trkpt>
      <trkpt lat="49.98957" lon="2.25999">
        <ele>93.7</ele>
        <time>2024-07-17T07:00:59Z</time>
      </trkpt>
      <trkpt lat="49.98957" lon="2.25999">
        <ele>93.7</ele>
        <time>2024-07-17T07:01:00Z</time>
      </trkpt>
      <trkpt lat="49.98957" lon="2.25999">
        <ele>93.7</ele>
        <time>2024-07-17T07:01:01Z</time>
      </trkpt>
      <trkpt lat="49.98957" lon="2.25999">
        <ele>93.7</ele>
        <time>2024-07-17T07:01:02Z</time>
      </trkpt>
      <trkpt lat="49.98957" lon="2.25999">
        <ele>93.7</ele>
        <time>2024-07-17T07:01:03Z</time>
      </trkpt>
      <trkpt lat="49.98957" lon="2.25999">
        <ele>93.7</ele>
        <time>2024-07-17T07:01:04Z</time>
      </trkpt>
      <trkpt lat="49.98957" lon="2.25999">
        <ele>93.7</ele>
        <time>2024-07-17T07:01:05Z</time>
      </trkpt>
      <trkpt lat="49.98957" lon="2.25999">
        <ele>93.7</ele>
        <time>2024-07-17T07:01:06Z</time>
      </trkpt>
      <trkpt lat="49.98957" lon="2.25999">
        <ele>93.7</ele>
        <time>2024-07-17T07:01:07Z</time>
      </trkpt>
      <trkpt lat="49.98957" lon="2.25999">
        <ele>93.7</ele>
        <time>2024-07-17T07:01:08Z</time>
      </trkpt>
      <trkpt lat="49.98957" lon="2.25999">
        <ele>93.7</ele>
        <time>2024-07-17T07:01:09Z</time>
      </trkpt>
      <trkpt lat="49.98957" lon="2.25999">
        <ele>93.7</ele>
        <time>2024-07-17T07:01:10Z</time>
      </trkpt>
      <trkpt lat="49.98957" lon="2.25999">
        <ele>93.7</ele>
        <time>2024-07-17T07:01:11Z</time>
      </trkpt>
      <trkpt lat="49.98957" lon="2.25999">
        <ele>93.7</ele>
        <time>2024-07-17T07:01:12Z</time>
      </trkpt>
      <trkpt lat="49.98957" lon="2.25999">
        <ele>93.7</ele>
        <time>2024-07-17T07:01:13Z</time>
      </trkpt>
      <trkpt lat="49.98957" lon="2.25999">
        <ele>93.7</ele>
        <time>2024-07-17T07:01:14Z</time>
      </trkpt>
      <trkpt lat="49.98957" lon="2.25999">
        <ele>93.7</ele>
        <time>2024-07-17T07:01:15Z</time>
      </trkpt>
      <trkpt lat="49.98957" lon="2.25999">
        <ele>93.7</ele>
        <time>2024-07-17T07:01:16Z</time>
      </trkpt>
      <trkpt lat="49.98957" lon="2.25999">
        <ele>93.7</ele>
        <time>2024-07-17T07:01:17Z</time>
      </trkpt>
      <trkpt lat="49.98957" lon="2.25999">
        <ele>93.7</ele>
        <time>2024-07-17T07:01:18Z</time>
      </trkpt>
      <trkpt lat="49.98957" lon="2.25999">
        <ele>93.7</ele>
        <time>2024-07-17T07:01:19Z</time>
      </trkpt>
      <trkpt lat="49.98957" lon="2.25999">
        <ele>93.7</ele>
        <time>2024-07-17T07:01:20Z</time>
      </trkpt>
      <trkpt lat="49.98957" lon="2.25999">
        <ele>93.7</ele>
        <time>2024-07-17T07:01:21Z</time>
      </trkpt>
      <trkpt lat="49.98957" lon="2.25999">
        <ele>93.7</ele>
        <time>2024-07-17T07:01:22Z</time>
      </trkpt>
      <trkpt lat="49.98957" lon="2.25999">
        <ele>93.7</ele>
        <time>2024-07-17T07:01:23Z</time>
      </trkpt>
      <trkpt lat="49.98957" lon="2.25999">
        <ele>93.7</ele>
        <time>2024-07-17T07:01:24Z</time>
      </trkpt>
      <trkpt lat="49.98957" lon="2.25999">
        <ele>93.7</ele>
        <time>2024-07-17T07:01:25Z</time>
      </trkpt>
      <trkpt lat="49.98957" lon="2.25999">
        <ele>93.7</ele>
        <time>2024-07-17T07:01:26Z</time>
      </trkpt>
      <trkpt lat="49.98957" lon="2.25999">
        <ele>93.7</ele>
        <time>2024-07-17T07:01:27Z</time>
      </trkpt>
      <trkpt lat="49.98957" lon="2.25999">
        <ele>93.7</ele>
        <time>2024-07-17T07:01:28Z</time>
      </trkpt>
      <trkpt lat="49.98957" lon="2.25999">
        <ele>93.7</ele>
        <time>2024-07-17T07:01:29Z</time>
      </trkpt>
      <trkpt lat="49.98957" lon="2.25999">
        <ele>93.7</ele>
        <time>2024-07-17T07:01:30Z</time>
      </trkpt>
      <trkpt lat="49.98957" lon="2.25999">
        <ele>93.7</ele>
        <time>2024-07-17T07:01:31Z</time>
      </trkpt>
      <trkpt lat="49.98957" lon="2.25999">
        <ele>93.7</ele>
        <time>2024-07-17T07:01:32Z</time>
      </trkpt>
      <trkpt lat="49.98957" lon="2.25999">
        <ele>93.7</ele>
        <time>2024-07-17T07:01:33Z</time>
      </trkpt>
      <trkpt lat="49.98957" lon="2.25999">
        <ele>93.7</ele>
        <time>2024-07-17T07:01:34Z</time>
      </trkpt>
      <trkpt lat="49.98957" lon="2.25999">
        <ele>93.7</ele>
        <time>2024-07-17T07:01:35Z</time>
      </trkpt>
      <trkpt lat="49.98957" lon="2.25999">
        <ele>93.7</ele>
        <time>2024-07-17T07:01:36Z</time>
      </trkpt>
      <trkpt lat="49.98957" lon="2.25999">
        <ele>93.7</ele>
        <time>2024-07-17T07:01:37Z</time>
      </trkpt>
      <trkpt lat="49.98957" lon="2.25999">
        <ele>93.7</ele>
        <time>2024-07-17T07:01:38Z</time>
      </trkpt>
      <trkpt lat="49.98957" lon="2.25999">
        <ele>93.7</ele>
        <time>2024-07-17T07:01:39Z</time>
      </trkpt>
      <trkpt lat="49.98957" lon="2.25999">
        <ele>93.7</ele>
        <time>2024-07-17T07:01:40Z</time>
      </trkpt>
      <trkpt lat="49.98957" lon="2.25999">
        <ele>93.7</ele>
        <time>2024-07-17T07:01:41Z</time>
      </trkpt>
      <trkpt lat="49.98957" lon="2.25999">
        <ele>93.7</ele>
        <time>2024-07-17T07:01:42Z</time>
      </trkpt>
      <trkpt lat="49.98957" lon="2.25999">
        <ele>93.7</ele>
        <time>2024-07-17T07:01:43Z</time>
      </trkpt>
      <trkpt lat="49.98957" lon="2.25999">
        <ele>93.7</ele>
        <time>2024-07-17T07:01:44Z</time>
      </trkpt>
      <trkpt lat="49.98957" lon="2.25999">
        <ele>93.7</ele>
        <time>2024-07-17T07:01:45Z</time>
      </trkpt>
      <trkpt lat="49.98957" lon="2.25999">
        <ele>93.7</ele>
        <time>2024-07-17T07:01:46Z</time>
      </trkpt>
      <trkpt lat="49.98957" lon="2.25999">
        <ele>93.7</ele>
        <time>2024-07-17T07:01:47Z</time>
      </trkpt>
      <trkpt lat="49.98957" lon="2.25999">
        <ele>93.7</ele>
        <time>2024-07-17T07:01:48Z</time>
      </trkpt>
      <trkpt lat="49.98957" lon="2.25999">
        <ele>93.7</ele>
        <time>2024-07-17T07:01:49Z</time>
      </trkpt>
      <trkpt lat="49.98957" lon="2.25999">
        <ele>93.7</ele>
        <time>2024-07-17T07:01:50Z</time>
      </trkpt>
      <trkpt lat="49.98957" lon="2.25999">
        <ele>93.7</ele>
        <time>2024-07-17T07:01:51Z</time>
      </trkpt>
      <trkpt lat="49.98957" lon="2.25999">
        <ele>93.7</ele>
        <time>2024-07-17T07:01:52Z</time>
      </trkpt>
      <trkpt lat="49.98957" lon="2.25999">
        <ele>93.7</ele>
        <time>2024-07-17T07:01:53Z</time>
      </trkpt>
      <trkpt lat="49.98957" lon="2.25999">
        <ele>93.7</ele>
        <time>2024-07-17T07:01:54Z</time>
      </trkpt>
      <trkpt lat="49.98957" lon="2.25999">
        <ele>93.7</ele>
        <time>2024-07-17T07:01:55Z</time>
      </trkpt>
      <trkpt lat="49.98957" lon="2.25999">
        <ele>93.7</ele>
        <time>2024-07-17T07:01:56Z</time>
      </trkpt>
      <trkpt lat="49.98957" lon="2.25999">
        <ele>93.7</ele>
        <time>2024-07-17T07:01:57Z</time>
      </trkpt>
      <trkpt lat="49.98957" lon="2.25999">
        <ele>93.7</ele>
        <time>2024-07-17T07:01:58Z</time>
      </trkpt>
      <trkpt lat="49.98957" lon="2.25999">
        <ele>93.7</ele>
        <time>2024-07-17T07:01:59Z</time>
      </trkpt>
      <trkpt lat="49.98957" lon="2.25999">
        <ele>93.7</ele>
        <time>2024-07-17T07:02:00Z</time>
      </trkpt>
      <trkpt lat="49.98957" lon="2.25999">
        <ele>93.7</ele>
        <time>2024-07-17T07:02:01Z</time>
      </trkpt>
      <trkpt lat="49.98957" lon="2.25999">
        <ele>93.7</ele>
        <time>2024-07-17T07:02:02Z</time>
      </trkpt>
      <trkpt lat="49.98957" lon="2.25999">
        <ele>93.7</ele>
        <time>2024-07-17T07:02:03Z</time>
      </trkpt>
      <trkpt lat="49.98957" lon="2.25999">
        <ele>93.7</ele>
        <time>2024-07-17T07:02:04Z</time>
      </trkpt>
      <trkpt lat="49.98957" lon="2.25999">
        <ele>93.7</ele>
        <time>2024-07-17T07:02:05Z</time>
      </trkpt>
      <trkpt lat="49.98957" lon="2.25999">
        <ele>93.7</ele>
        <time>2024-07-17T07:02:06Z</time>
      </trkpt>
      <trkpt lat="49.98957" lon="2.25999">
        <ele>93.7</ele>
        <time>2024-07-17T07:02:07Z</time>
      </trkpt>
      <trkpt lat="49.98957" lon="2.25999">
        <ele>93.7</ele>
        <time>2024-07-17T07:02:08Z</time>
      </trkpt>
      <trkpt lat="49.98957" lon="2.25999">
        <ele>93.7</ele>
        <time>2024-07-17T07:02:09Z</time>
      </trkpt>
      <trkpt lat="49.98957" lon="2.25999">
        <ele>93.7</ele>
        <time>2024-07-17T07:02:10Z</time>
      </trkpt>
      <trkpt lat="49.98957" lon="2.25999">
        <ele>93.7</ele>
        <time>2024-07-17T07:02:11Z</time>
      </trkpt>
      <trkpt lat="49.98957" lon="2.25999">
        <ele>93.7</ele>
        <time>2024-07-17T07:02:12Z</time>
      </trkpt>
      <trkpt lat="49.98957" lon="2.25999">
        <ele>93.7</ele>
        <time>2024-07-17T07:02:13Z</time>
      </trkpt>
      <trkpt lat="49.98957" lon="2.25999">
        <ele>93.7</ele>
        <time>2024-07-17T07:02:14Z</time>
      </trkpt>
      <trkpt lat="49.98957" lon="2.25999">
        <ele>93.7</ele>
        <time>2024-07-17T07:02:15Z</time>
      </trkpt>
      <trkpt lat="49.98957" lon="2.25999">
        <ele>93.7</ele>
        <time>2024-07-17T07:02:16Z</time>
      </trkpt>
      <trkpt lat="49.98957" lon="2.25999">
        <ele>93.7</ele>
        <time>2024-07-17T07:02:17Z</time>
      </trkpt>
      <trkpt lat="49.98957" lon="2.25999">
        <ele>93.7</ele>
        <time>2024-07-17T07:02:18Z</time>
      </trkpt>
      <trkpt lat="49.98957" lon="2.25999">
        <ele>93.7</ele>
        <time>2024-07-17T07:02:19Z</time>
      </trkpt>
      <trkpt lat="49.98957" lon="2.25999">
        <ele>93.7</ele>
        <time>2024-07-17T07:02:20Z</time>
      </trkpt>
      <trkpt lat="49.98957" lon="2.25999">
        <ele>93.7</ele>
        <time>2024-07-17T07:02:21Z</time>
      </trkpt>
      <trkpt lat="49.98957" lon="2.25999">
        <ele>93.7</ele>
        <time>2024-07-17T07:02:22Z</time>
      </trkpt>
      <trkpt lat="49.98957" lon="2.25999">
        <ele>93.7</ele>
        <time>2024-07-17T07:02:23Z</time>
      </trkpt>
      <trkpt lat="49.98957" lon="2.25999">
        <ele>93.7</ele>
        <time>2024-07-17T07:02:24Z</time>
      </trkpt>
      <trkpt lat="49.98957" lon="2.25999">
        <ele>93.7</ele>
        <time>2024-07-17T07:02:25Z</time>
      </trkpt>
      <trkpt lat="49.98957" lon="2.25999">
        <ele>93.7</ele>
        <time>2024-07-17T07:02:26Z</time>
      </trkpt>
      <trkpt lat="49.98957" lon="2.25999">
        <ele>93.7</ele>
        <time>2024-07-17T07:02:27Z</time>
      </trkpt>
      <trkpt lat="49.98957" lon="2.25999">
        <ele>93.7</ele>
        <time>2024-07-17T07:02:28Z</time>
      </trkpt>
      <trkpt lat="49.98957" lon="2.25999">
        <ele>93.7</ele>
        <time>2024-07-17T07:02:29Z</time>
      </trkpt>
      <trkpt lat="49.98957" lon="2.25999">
        <ele>93.7</ele>
        <time>2024-07-17T07:02:30Z</time>
      </trkpt>
      <trkpt lat="49.98957" lon="2.25999">
        <ele>93.7</ele>
        <time>2024-07-17T07:02:31Z</time>
      </trkpt>
      <trkpt lat="49.98957" lon="2.25999">
        <ele>93.7</ele>
        <time>2024-07-17T07:02:32Z</time>
      </trkpt>
      <trkpt lat="49.98957" lon="2.25999">
        <ele>93.7</ele>
        <time>2024-07-17T07:02:33Z</time>
      </trkpt>
      <trkpt lat="49.98957" lon="2.25999">
        <ele>93.7</ele>
        <time>2024-07-17T07:02:34Z</time>
      </trkpt>
      <trkpt lat="49.98957" lon="2.25999">
        <ele>93.7</ele>
        <time>2024-07-17T07:02:35Z</time>
      </trkpt>
      <trkpt lat="49.98957" lon="2.25999">
        <ele>93.7</ele>
        <time>2024-07-17T07:02:36Z</time>
      </trkpt>
      <trkpt lat="49.98957" lon="2.25999">
        <ele>93.7</ele>
        <time>2024-07-17T07:02:37Z</time>
      </trkpt>
      <trkpt lat="49.98957" lon="2.25999">
        <ele>93.7</ele>
        <time>2024-07-17T07:02:38Z</time>
      </trkpt>
      <trkpt lat="49.98957" lon="2.25999">
        <ele>93.7</ele>
        <time>2024-07-17T07:02:39Z</time>
      </trkpt>
      <trkpt lat="49.98957" lon="2.25999">
        <ele>93.7</ele>
        <time>2024-07-17T07:02:40Z</time>
      </trkpt>
      <trkpt lat="49.98957" lon="2.25999">
        <ele>93.7</ele>
        <time>2024-07-17T07:02:41Z</time>
      </trkpt>
      <trkpt lat="49.98957" lon="2.25999">
        <ele>93.7</ele>
        <time>2024-07-17T07:02:42Z</time>
      </trkpt>
      <trkpt lat="49.98957" lon="2.25999">
        <ele>93.7</ele>
        <time>2024-07-17T07:02:43Z</time>
      </trkpt>
      <trkpt lat="49.98957" lon="2.25999">
        <ele>93.7</ele>
        <time>2024-07-17T07:02:44Z</time>
      </trkpt>
      <trkpt lat="49.98957" lon="2.25999">
        <ele>93.7</ele>
        <time>2024-07-17T07:02:45Z</time>
      </trkpt>
      <trkpt lat="49.98957" lon="2.25999">
        <ele>93.7</ele>
        <time>2024-07-17T07:02:46Z</time>
      </trkpt>
      <trkpt lat="49.98957" lon="2.25999">
        <ele>93.7</ele>
        <time>2024-07-17T07:02:47Z</time>
      </trkpt>
      <trkpt lat="49.98957" lon="2.25999">
        <ele>93.7</ele>
        <time>2024-07-17T07:02:48Z</time>
      </trkpt>
      <trkpt lat="49.98957" lon="2.25999">
        <ele>93.7</ele>
        <time>2024-07-17T07:02:49Z</time>
      </trkpt>
      <trkpt lat="49.98957" lon="2.25999">
        <ele>93.7</ele>
        <time>2024-07-17T07:02:50Z</time>
      </trkpt>
      <trkpt lat="49.98957" lon="2.25999">
        <ele>93.7</ele>
        <time>2024-07-17T07:02:51Z</time>
      </trkpt>
      <trkpt lat="49.98957" lon="2.25999">
        <ele>93.7</ele>
        <time>2024-07-17T07:02:52Z</time>
      </trkpt>
      <trkpt lat="49.98957" lon="2.26">
        <ele>93.7</ele>
        <time>2024-07-17T07:02:53Z</time>
      </trkpt>
      <trkpt lat="49.98957" lon="2.25999">
        <ele>93.7</ele>
        <time>2024-07-17T07:02:55Z</time>
      </trkpt>
      <trkpt lat="49.98957" lon="2.25999">
        <ele>93.7</ele>
        <time>2024-07-17T07:02:56Z</time>
      </trkpt>
      <trkpt lat="49.98957" lon="2.25999">
        <ele>93.7</ele>
        <time>2024-07-17T07:02:57Z</time>
      </trkpt>
      <trkpt lat="49.98957" lon="2.25999">
        <ele>93.7</ele>
        <time>2024-07-17T07:02:58Z</time>
      </trkpt>
      <trkpt lat="49.98957" lon="2.25999">
        <ele>93.7</ele>
        <time>2024-07-17T07:02:59Z</time>
      </trkpt>
      <trkpt lat="49.98957" lon="2.25999">
        <ele>93.7</ele>
        <time>2024-07-17T07:03:00Z</time>
      </trkpt>
      <trkpt lat="49.98957" lon="2.25999">
        <ele>93.7</ele>
        <time>2024-07-17T07:03:01Z</time>
      </trkpt>
      <trkpt lat="49.98957" lon="2.25999">
        <ele>93.7</ele>
        <time>2024-07-17T07:03:02Z</time>
      </trkpt>
      <trkpt lat="49.98957" lon="2.25999">
        <ele>93.7</ele>
        <time>2024-07-17T07:03:03Z</time>
      </trkpt>
      <trkpt lat="49.98957" lon="2.25999">
        <ele>93.7</ele>
        <time>2024-07-17T07:03:04Z</time>
      </trkpt>
      <trkpt lat="49.98957" lon="2.25999">
        <ele>93.7</ele>
        <time>2024-07-17T07:03:05Z</time>
      </trkpt>
      <trkpt lat="49.98957" lon="2.25999">
        <ele>93.7</ele>
        <time>2024-07-17T07:03:06Z</time>
      </trkpt>
      <trkpt lat="49.98957" lon="2.25999">
        <ele>93.7</ele>
        <time>2024-07-17T07:03:07Z</time>
      </trkpt>
      <trkpt lat="49.98957" lon="2.25999">
        <ele>93.7</ele>
        <time>2024-07-17T07:03:08Z</time>
      </trkpt>
      <trkpt lat="49.98957" lon="2.25999">
        <ele>93.7</ele>
        <time>2024-07-17T07:03:09Z</time>
      </trkpt>
      <trkpt lat="49.98957" lon="2.25999">
        <ele>93.7</ele>
        <time>2024-07-17T07:03:10Z</time>
      </trkpt>
      <trkpt lat="49.98957" lon="2.25999">
        <ele>93.7</ele>
        <time>2024-07-17T07:03:12Z</time>
      </trkpt>
      <trkpt lat="49.98957" lon="2.25999">
        <ele>93.7</ele>
        <time>2024-07-17T07:03:13Z</time>
      </trkpt>
      <trkpt lat="49.98957" lon="2.25999">
        <ele>93.7</ele>
        <time>2024-07-17T07:03:14Z</time>
      </trkpt>
      <trkpt lat="49.98957" lon="2.25999">
        <ele>93.7</ele>
        <time>2024-07-17T07:03:15Z</time>
      </trkpt>
      <trkpt lat="49.98957" lon="2.25999">
        <ele>93.7</ele>
        <time>2024-07-17T07:03:16Z</time>
      </trkpt>
      <trkpt lat="49.98957" lon="2.25999">
        <ele>93.7</ele>
        <time>2024-07-17T07:03:17Z</time>
      </trkpt>
      <trkpt lat="49.98957" lon="2.25999">
        <ele>93.7</ele>
        <time>2024-07-17T07:03:18Z</time>
      </trkpt>
      <trkpt lat="49.98957" lon="2.25999">
        <ele>93.7</ele>
        <time>2024-07-17T07:03:19Z</time>
      </trkpt>
      <trkpt lat="49.98957" lon="2.25999">
        <ele>93.7</ele>
        <time>2024-07-17T07:03:20Z</time>
      </trkpt>
      <trkpt lat="49.98957" lon="2.25999">
        <ele>93.7</ele>
        <time>2024-07-17T07:03:21Z</time>
      </trkpt>
      <trkpt lat="49.98957" lon="2.25999">
        <ele>93.7</ele>
        <time>2024-07-17T07:03:22Z</time>
      </trkpt>
      <trkpt lat="49.98957" lon="2.25999">
        <ele>93.7</ele>
        <time>2024-07-17T07:03:23Z</time>
      </trkpt>
      <trkpt lat="49.98957" lon="2.25999">
        <ele>93.7</ele>
        <time>2024-07-17T07:03:24Z</time>
      </trkpt>
      <trkpt lat="49.98957" lon="2.25999">
        <ele>93.7</ele>
        <time>2024-07-17T07:03:25Z</time>
      </trkpt>
      <trkpt lat="49.98957" lon="2.25999">
        <ele>93.7</ele>
        <time>2024-07-17T07:03:26Z</time>
      </trkpt>
      <trkpt lat="49.98957" lon="2.25999">
        <ele>93.7</ele>
        <time>2024-07-17T07:03:27Z</time>
      </trkpt>
      <trkpt lat="49.98957" lon="2.25999">
        <ele>93.7</ele>
        <time>2024-07-17T07:03:28Z</time>
      </trkpt>
      <trkpt lat="49.98957" lon="2.25999">
        <ele>93.7</ele>
        <time>2024-07-17T07:03:29Z</time>
      </trkpt>
      <trkpt lat="49.98957" lon="2.25999">
        <ele>93.7</ele>
        <time>2024-07-17T07:03:30Z</time>
      </trkpt>
      <trkpt lat="49.98957" lon="2.25999">
        <ele>93.7</ele>
        <time>2024-07-17T07:03:31Z</time>
      </trkpt>
      <trkpt lat="49.98957" lon="2.25999">
        <ele>93.7</ele>
        <time>2024-07-17T07:03:32Z</time>
      </trkpt>
      <trkpt lat="49.98957" lon="2.25999">
        <ele>93.7</ele>
        <time>2024-07-17T07:03:33Z</time>
      </trkpt>
      <trkpt lat="49.98957" lon="2.25999">
        <ele>93.7</ele>
        <time>2024-07-17T07:03:34Z</time>
      </trkpt>
      <trkpt lat="49.98957" lon="2.25999">
        <ele>93.7</ele>
        <time>2024-07-17T07:03:35Z</time>
      </trkpt>
      <trkpt lat="49.98957" lon="2.25999">
        <ele>93.7</ele>
        <time>2024-07-17T07:03:36Z</time>
      </trkpt>
      <trkpt lat="49.98957" lon="2.25999">
        <ele>93.7</ele>
        <time>2024-07-17T07:03:37Z</time>
      </trkpt>
      <trkpt lat="49.98957" lon="2.25999">
        <ele>93.7</ele>
        <time>2024-07-17T07:03:38Z</time>
      </trkpt>
      <trkpt lat="49.98957" lon="2.25999">
        <ele>93.7</ele>
        <time>2024-07-17T07:03:39Z</time>
      </trkpt>
      <trkpt lat="49.98957" lon="2.25999">
        <ele>93.7</ele>
        <time>2024-07-17T07:03:40Z</time>
      </trkpt>
      <trkpt lat="49.98957" lon="2.25999">
        <ele>93.7</ele>
        <time>2024-07-17T07:03:41Z</time>
      </trkpt>
      <trkpt lat="49.98957" lon="2.25999">
        <ele>93.7</ele>
        <time>2024-07-17T07:03:42Z</time>
      </trkpt>
      <trkpt lat="49.98957" lon="2.25999">
        <ele>93.7</ele>
        <time>2024-07-17T07:03:43Z</time>
      </trkpt>
      <trkpt lat="49.98957" lon="2.25999">
        <ele>93.7</ele>
        <time>2024-07-17T07:03:44Z</time>
      </trkpt>
      <trkpt lat="49.98957" lon="2.25999">
        <ele>93.7</ele>
        <time>2024-07-17T07:03:45Z</time>
      </trkpt>
      <trkpt lat="49.98957" lon="2.25999">
        <ele>93.7</ele>
        <time>2024-07-17T07:03:46Z</time>
      </trkpt>
      <trkpt lat="49.98957" lon="2.25999">
        <ele>93.7</ele>
        <time>2024-07-17T07:03:47Z</time>
      </trkpt>
      <trkpt lat="49.98957" lon="2.25999">
        <ele>93.7</ele>
        <time>2024-07-17T07:03:48Z</time>
      </trkpt>
      <trkpt lat="49.98957" lon="2.25999">
        <ele>93.7</ele>
        <time>2024-07-17T07:03:49Z</time>
      </trkpt>
      <trkpt lat="49.98957" lon="2.25999">
        <ele>93.7</ele>
        <time>2024-07-17T07:03:50Z</time>
      </trkpt>
      <trkpt lat="49.98957" lon="2.25999">
        <ele>93.7</ele>
        <time>2024-07-17T07:03:51Z</time>
      </trkpt>
      <trkpt lat="49.98957" lon="2.25999">
        <ele>93.7</ele>
        <time>2024-07-17T07:03:52Z</time>
      </trkpt>
      <trkpt lat="49.98957" lon="2.25999">
        <ele>93.7</ele>
        <time>2024-07-17T07:03:53Z</time>
      </trkpt>
      <trkpt lat="49.98957" lon="2.25999">
        <ele>93.7</ele>
        <time>2024-07-17T07:03:54Z</time>
      </trkpt>
      <trkpt lat="49.98957" lon="2.25999">
        <ele>93.7</ele>
        <time>2024-07-17T07:03:55Z</time>
      </trkpt>
      <trkpt lat="49.98957" lon="2.25999">
        <ele>93.7</ele>
        <time>2024-07-17T07:03:56Z</time>
      </trkpt>
      <trkpt lat="49.98957" lon="2.25999">
        <ele>93.7</ele>
        <time>2024-07-17T07:03:57Z</time>
      </trkpt>
      <trkpt lat="49.98957" lon="2.25999">
        <ele>93.7</ele>
        <time>2024-07-17T07:03:58Z</time>
      </trkpt>
      <trkpt lat="49.98957" lon="2.25999">
        <ele>93.7</ele>
        <time>2024-07-17T07:03:59Z</time>
      </trkpt>
      <trkpt lat="49.98957" lon="2.25999">
        <ele>93.7</ele>
        <time>2024-07-17T07:04:00Z</time>
      </trkpt>
      <trkpt lat="49.98957" lon="2.25999">
        <ele>93.7</ele>
        <time>2024-07-17T07:04:01Z</time>
      </trkpt>
      <trkpt lat="49.98957" lon="2.25999">
        <ele>93.7</ele>
        <time>2024-07-17T07:04:02Z</time>
      </trkpt>
      <trkpt lat="49.98957" lon="2.25999">
        <ele>93.7</ele>
        <time>2024-07-17T07:04:03Z</time>
      </trkpt>
      <trkpt lat="49.98957" lon="2.25999">
        <ele>93.7</ele>
        <time>2024-07-17T07:04:04Z</time>
      </trkpt>
      <trkpt lat="49.98957" lon="2.25999">
        <ele>93.7</ele>
        <time>2024-07-17T07:04:05Z</time>
      </trkpt>
      <trkpt lat="49.98957" lon="2.25999">
        <ele>93.7</ele>
        <time>2024-07-17T07:04:06Z</time>
      </trkpt>
      <trkpt lat="49.98957" lon="2.25999">
        <ele>93.7</ele>
        <time>2024-07-17T07:04:07Z</time>
      </trkpt>
      <trkpt lat="49.98957" lon="2.25999">
        <ele>93.7</ele>
        <time>2024-07-17T07:04:08Z</time>
      </trkpt>
      <trkpt lat="49.98957" lon="2.25999">
        <ele>93.7</ele>
        <time>2024-07-17T07:04:09Z</time>
      </trkpt>
      <trkpt lat="49.98957" lon="2.25999">
        <ele>93.7</ele>
        <time>2024-07-17T07:04:10Z</time>
      </trkpt>
      <trkpt lat="49.98957" lon="2.25999">
        <ele>93.7</ele>
        <time>2024-07-17T07:04:11Z</time>
      </trkpt>
      <trkpt lat="49.98957" lon="2.25999">
        <ele>93.7</ele>
        <time>2024-07-17T07:04:12Z</time>
      </trkpt>
      <trkpt lat="49.98957" lon="2.25999">
        <ele>93.7</ele>
        <time>2024-07-17T07:04:13Z</time>
      </trkpt>
      <trkpt lat="49.98957" lon="2.25999">
        <ele>93.7</ele>
        <time>2024-07-17T07:04:14Z</time>
      </trkpt>
      <trkpt lat="49.98957" lon="2.25999">
        <ele>93.7</ele>
        <time>2024-07-17T07:04:15Z</time>
      </trkpt>
      <trkpt lat="49.98957" lon="2.25999">
        <ele>93.7</ele>
        <time>2024-07-17T07:04:16Z</time>
      </trkpt>
      <trkpt lat="49.98957" lon="2.25999">
        <ele>93.7</ele>
        <time>2024-07-17T07:04:17Z</time>
      </trkpt>
      <trkpt lat="49.98957" lon="2.25999">
        <ele>93.7</ele>
        <time>2024-07-17T07:04:18Z</time>
      </trkpt>
      <trkpt lat="49.98957" lon="2.25999">
        <ele>93.7</ele>
        <time>2024-07-17T07:04:19Z</time>
      </trkpt>
      <trkpt lat="49.98957" lon="2.25999">
        <ele>93.7</ele>
        <time>2024-07-17T07:04:20Z</time>
      </trkpt>
      <trkpt lat="49.98957" lon="2.25999">
        <ele>93.7</ele>
        <time>2024-07-17T07:04:21Z</time>
      </trkpt>
      <trkpt lat="49.98957" lon="2.25999">
        <ele>93.7</ele>
        <time>2024-07-17T07:04:22Z</time>
      </trkpt>
      <trkpt lat="49.98957" lon="2.25999">
        <ele>93.7</ele>
        <time>2024-07-17T07:04:23Z</time>
      </trkpt>
      <trkpt lat="49.98957" lon="2.25999">
        <ele>93.7</ele>
        <time>2024-07-17T07:04:24Z</time>
      </trkpt>
      <trkpt lat="49.98957" lon="2.25999">
        <ele>93.7</ele>
        <time>2024-07-17T07:04:25Z</time>
      </trkpt>
      <trkpt lat="49.98957" lon="2.25999">
        <ele>93.7</ele>
        <time>2024-07-17T07:04:26Z</time>
      </trkpt>
      <trkpt lat="49.98957" lon="2.25999">
        <ele>93.7</ele>
        <time>2024-07-17T07:04:27Z</time>
      </trkpt>
      <trkpt lat="49.98957" lon="2.25999">
        <ele>93.7</ele>
        <time>2024-07-17T07:04:28Z</time>
      </trkpt>
      <trkpt lat="49.98957" lon="2.25999">
        <ele>93.7</ele>
        <time>2024-07-17T07:04:32Z</time>
      </trkpt>
      <trkpt lat="49.98957" lon="2.25999">
        <ele>93.7</ele>
        <time>2024-07-17T07:04:33Z</time>
      </trkpt>
      <trkpt lat="49.98957" lon="2.25999">
        <ele>93.7</ele>
        <time>2024-07-17T07:04:34Z</time>
      </trkpt>
      <trkpt lat="49.98957" lon="2.25999">
        <ele>93.7</ele>
        <time>2024-07-17T07:04:35Z</time>
      </trkpt>
      <trkpt lat="49.98957" lon="2.25999">
        <ele>93.7</ele>
        <time>2024-07-17T07:04:36Z</time>
      </trkpt>
      <trkpt lat="49.98957" lon="2.25999">
        <ele>93.7</ele>
        <time>2024-07-17T07:04:37Z</time>
      </trkpt>
      <trkpt lat="49.98957" lon="2.25999">
        <ele>93.7</ele>
        <time>2024-07-17T07:04:38Z</time>
      </trkpt>
      <trkpt lat="49.98957" lon="2.25999">
        <ele>93.7</ele>
        <time>2024-07-17T07:04:39Z</time>
      </trkpt>
      <trkpt lat="49.98957" lon="2.25999">
        <ele>93.7</ele>
        <time>2024-07-17T07:04:41Z</time>
      </trkpt>
      <trkpt lat="49.98957" lon="2.25999">
        <ele>93.7</ele>
        <time>2024-07-17T07:04:42Z</time>
      </trkpt>
      <trkpt lat="49.98957" lon="2.25999">
        <ele>93.7</ele>
        <time>2024-07-17T07:04:43Z</time>
      </trkpt>
      <trkpt lat="49.98957" lon="2.25999">
        <ele>93.7</ele>
        <time>2024-07-17T07:04:44Z</time>
      </trkpt>
      <trkpt lat="49.98957" lon="2.25999">
        <ele>93.7</ele>
        <time>2024-07-17T07:04:45Z</time>
      </trkpt>
      <trkpt lat="49.98957" lon="2.25999">
        <ele>93.7</ele>
        <time>2024-07-17T07:04:46Z</time>
      </trkpt>
      <trkpt lat="49.98957" lon="2.25999">
        <ele>93.7</ele>
        <time>2024-07-17T07:04:47Z</time>
      </trkpt>
      <trkpt lat="49.98958" lon="2.25999">
        <ele>93.7</ele>
        <time>2024-07-17T07:04:48Z</time>
      </trkpt>
      <trkpt lat="49.98957" lon="2.25999">
        <ele>93.7</ele>
        <time>2024-07-17T07:04:49Z</time>
      </trkpt>
      <trkpt lat="49.98957" lon="2.25999">
        <ele>93.7</ele>
        <time>2024-07-17T07:04:50Z</time>
      </trkpt>
      <trkpt lat="49.98957" lon="2.25999">
        <ele>93.7</ele>
        <time>2024-07-17T07:04:51Z</time>
      </trkpt>
      <trkpt lat="49.98957" lon="2.25999">
        <ele>93.7</ele>
        <time>2024-07-17T07:04:52Z</time>
      </trkpt>
      <trkpt lat="49.98957" lon="2.25999">
        <ele>93.7</ele>
        <time>2024-07-17T07:04:53Z</time>
      </trkpt>
      <trkpt lat="49.98957" lon="2.25999">
        <ele>93.7</ele>
        <time>2024-07-17T07:04:54Z</time>
      </trkpt>
      <trkpt lat="49.98957" lon="2.25999">
        <ele>93.7</ele>
        <time>2024-07-17T07:04:55Z</time>
      </trkpt>
      <trkpt lat="49.98957" lon="2.25999">
        <ele>93.7</ele>
        <time>2024-07-17T07:04:57Z</time>
      </trkpt>
      <trkpt lat="49.98957" lon="2.25999">
        <ele>93.7</ele>
        <time>2024-07-17T07:04:58Z</time>
      </trkpt>
      <trkpt lat="49.98957" lon="2.25999">
        <ele>93.7</ele>
        <time>2024-07-17T07:04:59Z</time>
      </trkpt>
      <trkpt lat="49.98957" lon="2.25999">
        <ele>93.7</ele>
        <time>2024-07-17T07:05:00Z</time>
      </trkpt>
      <trkpt lat="49.98957" lon="2.25999">
        <ele>93.7</ele>
        <time>2024-07-17T07:05:01Z</time>
      </trkpt>
      <trkpt lat="49.98957" lon="2.25999">
        <ele>93.7</ele>
        <time>2024-07-17T07:05:02Z</time>
      </trkpt>
      <trkpt lat="49.98958" lon="2.25999">
        <ele>93.7</ele>
        <time>2024-07-17T07:05:03Z</time>
      </trkpt>
      <trkpt lat="49.98958" lon="2.25999">
        <ele>93.7</ele>
        <time>2024-07-17T07:05:04Z</time>
      </trkpt>
      <trkpt lat="49.98958" lon="2.25999">
        <ele>93.7</ele>
        <time>2024-07-17T07:05:05Z</time>
      </trkpt>
      <trkpt lat="49.98959" lon="2.26">
        <ele>93.7</ele>
        <time>2024-07-17T07:05:06Z</time>
      </trkpt>
      <trkpt lat="49.9896" lon="2.26001">
        <ele>93.7</ele>
        <time>2024-07-17T07:05:07Z</time>
      </trkpt>
      <trkpt lat="49.9896" lon="2.26002">
        <ele>93.7</ele>
        <time>2024-07-17T07:05:08Z</time>
      </trkpt>
      <trkpt lat="49.98961" lon="2.26002">
        <ele>93.7</ele>
        <time>2024-07-17T07:05:09Z</time>
      </trkpt>
      <trkpt lat="49.98961" lon="2.26002">
        <ele>93.7</ele>
        <time>2024-07-17T07:05:10Z</time>
      </trkpt>
      <trkpt lat="49.98961" lon="2.26003">
        <ele>93.7</ele>
        <time>2024-07-17T07:05:11Z</time>
      </trkpt>
      <trkpt lat="49.98961" lon="2.26002">
        <ele>93.7</ele>
        <time>2024-07-17T07:05:12Z</time>
      </trkpt>
      <trkpt lat="49.98961" lon="2.26003">
        <ele>93.7</ele>
        <time>2024-07-17T07:05:13Z</time>
      </trkpt>
      <trkpt lat="49.98962" lon="2.26003">
        <ele>93.7</ele>
        <time>2024-07-17T07:05:14Z</time>
      </trkpt>
      <trkpt lat="49.98962" lon="2.26003">
        <ele>93.7</ele>
        <time>2024-07-17T07:05:15Z</time>
      </trkpt>
      <trkpt lat="49.98962" lon="2.26003">
        <ele>93.7</ele>
        <time>2024-07-17T07:05:16Z</time>
      </trkpt>
      <trkpt lat="49.98962" lon="2.26003">
        <ele>93.7</ele>
        <time>2024-07-17T07:05:17Z</time>
      </trkpt>
      <trkpt lat="49.98962" lon="2.26003">
        <ele>93.7</ele>
        <time>2024-07-17T07:05:18Z</time>
      </trkpt>
      <trkpt lat="49.98962" lon="2.26003">
        <ele>93.7</ele>
        <time>2024-07-17T07:05:19Z</time>
      </trkpt>
      <trkpt lat="49.98962" lon="2.26003">
        <ele>93.7</ele>
        <time>2024-07-17T07:05:20Z</time>
      </trkpt>
      <trkpt lat="49.98962" lon="2.26003">
        <ele>93.7</ele>
        <time>2024-07-17T07:05:21Z</time>
      </trkpt>
      <trkpt lat="49.98962" lon="2.26003">
        <ele>93.7</ele>
        <time>2024-07-17T07:05:22Z</time>
      </trkpt>
      <trkpt lat="49.98962" lon="2.26003">
        <ele>93.7</ele>
        <time>2024-07-17T07:05:23Z</time>
      </trkpt>
      <trkpt lat="49.98962" lon="2.26003">
        <ele>93.7</ele>
        <time>2024-07-17T07:05:24Z</time>
      </trkpt>
      <trkpt lat="49.98962" lon="2.26003">
        <ele>93.7</ele>
        <time>2024-07-17T07:05:25Z</time>
      </trkpt>
      <trkpt lat="49.98962" lon="2.26003">
        <ele>93.7</ele>
        <time>2024-07-17T07:05:26Z</time>
      </trkpt>
      <trkpt lat="49.98962" lon="2.26003">
        <ele>93.7</ele>
        <time>2024-07-17T07:05:27Z</time>
      </trkpt>
      <trkpt lat="49.98962" lon="2.26003">
        <ele>93.7</ele>
        <time>2024-07-17T07:05:28Z</time>
      </trkpt>
      <trkpt lat="49.98962" lon="2.26003">
        <ele>93.7</ele>
        <time>2024-07-17T07:05:29Z</time>
      </trkpt>
      <trkpt lat="49.98962" lon="2.26003">
        <ele>93.7</ele>
        <time>2024-07-17T07:05:30Z</time>
      </trkpt>
      <trkpt lat="49.98962" lon="2.26003">
        <ele>93.7</ele>
        <time>2024-07-17T07:05:31Z</time>
      </trkpt>
      <trkpt lat="49.98962" lon="2.26003">
        <ele>93.7</ele>
        <time>2024-07-17T07:05:32Z</time>
      </trkpt>
      <trkpt lat="49.98962" lon="2.26003">
        <ele>93.7</ele>
        <time>2024-07-17T07:05:33Z</time>
      </trkpt>
      <trkpt lat="49.98962" lon="2.26003">
        <ele>93.7</ele>
        <time>2024-07-17T07:05:34Z</time>
      </trkpt>
      <trkpt lat="49.98962" lon="2.26003">
        <ele>93.7</ele>
        <time>2024-07-17T07:05:35Z</time>
      </trkpt>
      <trkpt lat="49.98962" lon="2.26003">
        <ele>93.7</ele>
        <time>2024-07-17T07:05:36Z</time>
      </trkpt>
      <trkpt lat="49.98962" lon="2.26003">
        <ele>93.7</ele>
        <time>2024-07-17T07:05:37Z</time>
      </trkpt>
      <trkpt lat="49.98962" lon="2.26003">
        <ele>93.7</ele>
        <time>2024-07-17T07:05:38Z</time>
      </trkpt>
      <trkpt lat="49.98962" lon="2.26003">
        <ele>93.7</ele>
        <time>2024-07-17T07:05:39Z</time>
      </trkpt>
      <trkpt lat="49.98962" lon="2.26003">
        <ele>93.7</ele>
        <time>2024-07-17T07:05:40Z</time>
      </trkpt>
      <trkpt lat="49.98962" lon="2.26003">
        <ele>93.7</ele>
        <time>2024-07-17T07:05:41Z</time>
      </trkpt>
      <trkpt lat="49.98962" lon="2.26003">
        <ele>93.7</ele>
        <time>2024-07-17T07:05:42Z</time>
      </trkpt>
      <trkpt lat="49.98962" lon="2.26003">
        <ele>93.7</ele>
        <time>2024-07-17T07:05:43Z</time>
      </trkpt>
      <trkpt lat="49.98962" lon="2.26003">
        <ele>93.7</ele>
        <time>2024-07-17T07:05:44Z</time>
      </trkpt>
      <trkpt lat="49.98962" lon="2.26003">
        <ele>93.7</ele>
        <time>2024-07-17T07:05:45Z</time>
      </trkpt>
      <trkpt lat="49.98962" lon="2.26003">
        <ele>93.7</ele>
        <time>2024-07-17T07:05:46Z</time>
      </trkpt>
      <trkpt lat="49.98962" lon="2.26003">
        <ele>93.7</ele>
        <time>2024-07-17T07:05:47Z</time>
      </trkpt>
      <trkpt lat="49.98962" lon="2.26003">
        <ele>93.7</ele>
        <time>2024-07-17T07:05:48Z</time>
      </trkpt>
      <trkpt lat="49.98962" lon="2.26003">
        <ele>93.7</ele>
        <time>2024-07-17T07:05:49Z</time>
      </trkpt>
      <trkpt lat="49.98962" lon="2.26003">
        <ele>93.7</ele>
        <time>2024-07-17T07:05:50Z</time>
      </trkpt>
      <trkpt lat="49.98962" lon="2.26003">
        <ele>93.7</ele>
        <time>2024-07-17T07:05:51Z</time>
      </trkpt>
      <trkpt lat="49.98962" lon="2.26003">
        <ele>93.7</ele>
        <time>2024-07-17T07:05:52Z</time>
      </trkpt>
      <trkpt lat="49.98962" lon="2.26003">
        <ele>93.7</ele>
        <time>2024-07-17T07:05:53Z</time>
      </trkpt>
      <trkpt lat="49.98962" lon="2.26003">
        <ele>93.7</ele>
        <time>2024-07-17T07:05:54Z</time>
      </trkpt>
      <trkpt lat="49.98962" lon="2.26003">
        <ele>93.7</ele>
        <time>2024-07-17T07:05:55Z</time>
      </trkpt>
      <trkpt lat="49.98962" lon="2.26003">
        <ele>93.7</ele>
        <time>2024-07-17T07:05:56Z</time>
      </trkpt>
      <trkpt lat="49.98962" lon="2.26003">
        <ele>93.7</ele>
        <time>2024-07-17T07:05:57Z</time>
      </trkpt>
      <trkpt lat="49.98962" lon="2.26003">
        <ele>93.7</ele>
        <time>2024-07-17T07:05:58Z</time>
      </trkpt>
      <trkpt lat="49.98961" lon="2.26003">
        <ele>93.7</ele>
        <time>2024-07-17T07:05:59Z</time>
      </trkpt>
      <trkpt lat="49.98961" lon="2.26003">
        <ele>93.7</ele>
        <time>2024-07-17T07:06:00Z</time>
      </trkpt>
      <trkpt lat="49.98962" lon="2.26004">
        <ele>93.7</ele>
        <time>2024-07-17T07:06:01Z</time>
      </trkpt>
      <trkpt lat="49.98962" lon="2.26004">
        <ele>93.7</ele>
        <time>2024-07-17T07:06:02Z</time>
      </trkpt>
      <trkpt lat="49.98962" lon="2.26004">
        <ele>93.7</ele>
        <time>2024-07-17T07:06:03Z</time>
      </trkpt>
      <trkpt lat="49.98962" lon="2.26003">
        <ele>93.6</ele>
        <time>2024-07-17T07:06:04Z</time>
      </trkpt>
      <trkpt lat="49.98963" lon="2.26003">
        <ele>93.6</ele>
        <time>2024-07-17T07:06:05Z</time>
      </trkpt>
      <trkpt lat="49.98964" lon="2.26002">
        <ele>93.6</ele>
        <time>2024-07-17T07:06:06Z</time>
      </trkpt>
      <trkpt lat="49.98965" lon="2.26001">
        <ele>93.6</ele>
        <time>2024-07-17T07:06:07Z</time>
      </trkpt>
      <trkpt lat="49.98965" lon="2.25999">
        <ele>93.5</ele>
        <time>2024-07-17T07:06:08Z</time>
      </trkpt>
      <trkpt lat="49.98966" lon="2.25998">
        <ele>93.5</ele>
        <time>2024-07-17T07:06:09Z</time>
      </trkpt>
      <trkpt lat="49.98967" lon="2.25998">
        <ele>93.5</ele>
        <time>2024-07-17T07:06:10Z</time>
      </trkpt>
      <trkpt lat="49.98967" lon="2.25997">
        <ele>93.5</ele>
        <time>2024-07-17T07:06:11Z</time>
      </trkpt>
      <trkpt lat="49.98968" lon="2.25997">
        <ele>93.5</ele>
        <time>2024-07-17T07:06:12Z</time>
      </trkpt>
      <trkpt lat="49.98969" lon="2.25997">
        <ele>93.4</ele>
        <time>2024-07-17T07:06:13Z</time>
      </trkpt>
      <trkpt lat="49.9897" lon="2.25997">
        <ele>93.4</ele>
        <time>2024-07-17T07:06:14Z</time>
      </trkpt>
      <trkpt lat="49.98971" lon="2.25997">
        <ele>93.4</ele>
        <time>2024-07-17T07:06:15Z</time>
      </trkpt>
      <trkpt lat="49.98972" lon="2.25997">
        <ele>93.4</ele>
        <time>2024-07-17T07:06:16Z</time>
      </trkpt>
      <trkpt lat="49.98973" lon="2.25997">
        <ele>93.3</ele>
        <time>2024-07-17T07:06:17Z</time>
      </trkpt>
      <trkpt lat="49.98976" lon="2.25996">
        <ele>93.4</ele>
        <time>2024-07-17T07:06:18Z</time>
      </trkpt>
      <trkpt lat="49.98976" lon="2.25995">
        <ele>93.4</ele>
        <time>2024-07-17T07:06:20Z</time>
      </trkpt>
      <trkpt lat="49.98977" lon="2.25995">
        <ele>93.4</ele>
        <time>2024-07-17T07:06:21Z</time>
      </trkpt>
      <trkpt lat="49.98978" lon="2.25995">
        <ele>93.5</ele>
        <time>2024-07-17T07:06:22Z</time>
      </trkpt>
      <trkpt lat="49.98978" lon="2.25995">
        <ele>93.5</ele>
        <time>2024-07-17T07:06:23Z</time>
      </trkpt>
      <trkpt lat="49.98978" lon="2.25995">
        <ele>93.5</ele>
        <time>2024-07-17T07:06:24Z</time>
      </trkpt>
      <trkpt lat="49.98979" lon="2.25994">
        <ele>93.5</ele>
        <time>2024-07-17T07:06:25Z</time>
      </trkpt>
      <trkpt lat="49.98979" lon="2.25994">
        <ele>93.5</ele>
        <time>2024-07-17T07:06:26Z</time>
      </trkpt>
      <trkpt lat="49.9898" lon="2.25994">
        <ele>93.5</ele>
        <time>2024-07-17T07:06:27Z</time>
      </trkpt>
      <trkpt lat="49.98981" lon="2.25994">
        <ele>93.6</ele>
        <time>2024-07-17T07:06:28Z</time>
      </trkpt>
      <trkpt lat="49.98982" lon="2.25994">
        <ele>93.6</ele>
        <time>2024-07-17T07:06:29Z</time>
      </trkpt>
      <trkpt lat="49.98983" lon="2.25995">
        <ele>93.6</ele>
        <time>2024-07-17T07:06:30Z</time>
      </trkpt>
      <trkpt lat="49.98983" lon="2.25995">
        <ele>93.6</ele>
        <time>2024-07-17T07:06:31Z</time>
      </trkpt>
      <trkpt lat="49.98984" lon="2.25995">
        <ele>93.7</ele>
        <time>2024-07-17T07:06:32Z</time>
      </trkpt>
      <trkpt lat="49.98986" lon="2.25995">
        <ele>93.7</ele>
        <time>2024-07-17T07:06:33Z</time>
      </trkpt>
      <trkpt lat="49.98987" lon="2.25995">
        <ele>93.7</ele>
        <time>2024-07-17T07:06:34Z</time>
      </trkpt>
      <trkpt lat="49.98988" lon="2.25995">
        <ele>93.8</ele>
        <time>2024-07-17T07:06:35Z</time>
      </trkpt>
      <trkpt lat="49.9899" lon="2.25996">
        <ele>93.8</ele>
        <time>2024-07-17T07:06:36Z</time>
      </trkpt>
      <trkpt lat="49.98991" lon="2.25996">
        <ele>93.9</ele>
        <time>2024-07-17T07:06:37Z</time>
      </trkpt>
      <trkpt lat="49.98991" lon="2.25996">
        <ele>93.9</ele>
        <time>2024-07-17T07:06:38Z</time>
      </trkpt>
      <trkpt lat="49.98993" lon="2.25997">
        <ele>93.9</ele>
        <time>2024-07-17T07:06:39Z</time>
      </trkpt>
      <trkpt lat="49.98994" lon="2.25998">
        <ele>94</ele>
        <time>2024-07-17T07:06:40Z</time>
      </trkpt>
      <trkpt lat="49.98996" lon="2.25999">
        <ele>94</ele>
        <time>2024-07-17T07:06:41Z</time>
      </trkpt>
      <trkpt lat="49.98997" lon="2.25999">
        <ele>94.1</ele>
        <time>2024-07-17T07:06:42Z</time>
      </trkpt>
      <trkpt lat="49.98997" lon="2.25999">
        <ele>94.1</ele>
        <time>2024-07-17T07:06:43Z</time>
      </trkpt>
      <trkpt lat="49.98999" lon="2.25999">
        <ele>94.2</ele>
        <time>2024-07-17T07:06:44Z</time>
      </trkpt>
      <trkpt lat="49.99" lon="2.25999">
        <ele>94.2</ele>
        <time>2024-07-17T07:06:45Z</time>
      </trkpt>
      <trkpt lat="49.99001" lon="2.25998">
        <ele>94.3</ele>
        <time>2024-07-17T07:06:46Z</time>
      </trkpt>
      <trkpt lat="49.99003" lon="2.25998">
        <ele>94.4</ele>
        <time>2024-07-17T07:06:47Z</time>
      </trkpt>
      <trkpt lat="49.99004" lon="2.25998">
        <ele>94.4</ele>
        <time>2024-07-17T07:06:48Z</time>
      </trkpt>
      <trkpt lat="49.99005" lon="2.25998">
        <ele>94.4</ele>
        <time>2024-07-17T07:06:49Z</time>
      </trkpt>
      <trkpt lat="49.99006" lon="2.25997">
        <ele>94.5</ele>
        <time>2024-07-17T07:06:50Z</time>
      </trkpt>
      <trkpt lat="49.99007" lon="2.25997">
        <ele>94.6</ele>
        <time>2024-07-17T07:06:51Z</time>
      </trkpt>
      <trkpt lat="49.99008" lon="2.25997">
        <ele>94.6</ele>
        <time>2024-07-17T07:06:52Z</time>
      </trkpt>
      <trkpt lat="49.99009" lon="2.25996">
        <ele>94.7</ele>
        <time>2024-07-17T07:06:53Z</time>
      </trkpt>
      <trkpt lat="49.9901" lon="2.25996">
        <ele>94.7</ele>
        <time>2024-07-17T07:06:54Z</time>
      </trkpt>
      <trkpt lat="49.99012" lon="2.25995">
        <ele>94.6</ele>
        <time>2024-07-17T07:06:55Z</time>
      </trkpt>
      <trkpt lat="49.99013" lon="2.25995">
        <ele>94.6</ele>
        <time>2024-07-17T07:06:56Z</time>
      </trkpt>
      <trkpt lat="49.99014" lon="2.25995">
        <ele>94.6</ele>
        <time>2024-07-17T07:06:57Z</time>
      </trkpt>
      <trkpt lat="49.99015" lon="2.25996">
        <ele>94.6</ele>
        <time>2024-07-17T07:06:58Z</time>
      </trkpt>
      <trkpt lat="49.99016" lon="2.25995">
        <ele>94.6</ele>
        <time>2024-07-17T07:06:59Z</time>
      </trkpt>
      <trkpt lat="49.99017" lon="2.25995">
        <ele>94.6</ele>
        <time>2024-07-17T07:07:00Z</time>
      </trkpt>
      <trkpt lat="49.99018" lon="2.25995">
        <ele>94.6</ele>
        <time>2024-07-17T07:07:01Z</time>
      </trkpt>
      <trkpt lat="49.99019" lon="2.25994">
        <ele>94.6</ele>
        <time>2024-07-17T07:07:02Z</time>
      </trkpt>
      <trkpt lat="49.9902" lon="2.25994">
        <ele>94.6</ele>
        <time>2024-07-17T07:07:03Z</time>
      </trkpt>
      <trkpt lat="49.99021" lon="2.25993">
        <ele>94.6</ele>
        <time>2024-07-17T07:07:04Z</time>
      </trkpt>
      <trkpt lat="49.99021" lon="2.25992">
        <ele>94.6</ele>
        <time>2024-07-17T07:07:05Z</time>
      </trkpt>
      <trkpt lat="49.99022" lon="2.25992">
        <ele>94.6</ele>
        <time>2024-07-17T07:07:06Z</time>
      </trkpt>
      <trkpt lat="49.99023" lon="2.25991">
        <ele>94.6</ele>
        <time>2024-07-17T07:07:07Z</time>
      </trkpt>
      <trkpt lat="49.99024" lon="2.2599">
        <ele>94.6</ele>
        <time>2024-07-17T07:07:08Z</time>
      </trkpt>
      <trkpt lat="49.99025" lon="2.25989">
        <ele>94.6</ele>
        <time>2024-07-17T07:07:09Z</time>
      </trkpt>
      <trkpt lat="49.99026" lon="2.25988">
        <ele>94.6</ele>
        <time>2024-07-17T07:07:10Z</time>
      </trkpt>
      <trkpt lat="49.99027" lon="2.25985">
        <ele>94.6</ele>
        <time>2024-07-17T07:07:11Z</time>
      </trkpt>
      <trkpt lat="49.99027" lon="2.25984">
        <ele>94.6</ele>
        <time>2024-07-17T07:07:12Z</time>
      </trkpt>
      <trkpt lat="49.99028" lon="2.25983">
        <ele>94.6</ele>
        <time>2024-07-17T07:07:13Z</time>
      </trkpt>
      <trkpt lat="49.99028" lon="2.25982">
        <ele>94.6</ele>
        <time>2024-07-17T07:07:14Z</time>
      </trkpt>
      <trkpt lat="49.99029" lon="2.2598">
        <ele>94.6</ele>
        <time>2024-07-17T07:07:15Z</time>
      </trkpt>
      <trkpt lat="49.9903" lon="2.25979">
        <ele>94.6</ele>
        <time>2024-07-17T07:07:16Z</time>
      </trkpt>
      <trkpt lat="49.99031" lon="2.25976">
        <ele>94.6</ele>
        <time>2024-07-17T07:07:17Z</time>
      </trkpt>
      <trkpt lat="49.99031" lon="2.25975">
        <ele>94.6</ele>
        <time>2024-07-17T07:07:18Z</time>
      </trkpt>
      <trkpt lat="49.99032" lon="2.25974">
        <ele>94.6</ele>
        <time>2024-07-17T07:07:19Z</time>
      </trkpt>
      <trkpt lat="49.99034" lon="2.25972">
        <ele>94.6</ele>
        <time>2024-07-17T07:07:20Z</time>
      </trkpt>
      <trkpt lat="49.99034" lon="2.25971">
        <ele>94.6</ele>
        <time>2024-07-17T07:07:21Z</time>
      </trkpt>
      <trkpt lat="49.99035" lon="2.2597">
        <ele>94.6</ele>
        <time>2024-07-17T07:07:22Z</time>
      </trkpt>
      <trkpt lat="49.99036" lon="2.25967">
        <ele>94.6</ele>
        <time>2024-07-17T07:07:23Z</time>
      </trkpt>
      <trkpt lat="49.99036" lon="2.25966">
        <ele>94.6</ele>
        <time>2024-07-17T07:07:24Z</time>
      </trkpt>
      <trkpt lat="49.99037" lon="2.25965">
        <ele>94.6</ele>
        <time>2024-07-17T07:07:25Z</time>
      </trkpt>
      <trkpt lat="49.99038" lon="2.25962">
        <ele>94.6</ele>
        <time>2024-07-17T07:07:26Z</time>
      </trkpt>
      <trkpt lat="49.99038" lon="2.25961">
        <ele>94.6</ele>
        <time>2024-07-17T07:07:27Z</time>
      </trkpt>
      <trkpt lat="49.99039" lon="2.2596">
        <ele>94.6</ele>
        <time>2024-07-17T07:07:28Z</time>
      </trkpt>
      <trkpt lat="49.9904" lon="2.25957">
        <ele>94.6</ele>
        <time>2024-07-17T07:07:29Z</time>
      </trkpt>
      <trkpt lat="49.9904" lon="2.25956">
        <ele>94.6</ele>
        <time>2024-07-17T07:07:30Z</time>
      </trkpt>
      <trkpt lat="49.9904" lon="2.25955">
        <ele>94.6</ele>
        <time>2024-07-17T07:07:31Z</time>
      </trkpt>
      <trkpt lat="49.99041" lon="2.25954">
        <ele>94.6</ele>
        <time>2024-07-17T07:07:32Z</time>
      </trkpt>
      <trkpt lat="49.99042" lon="2.25952">
        <ele>94.6</ele>
        <time>2024-07-17T07:07:33Z</time>
      </trkpt>
      <trkpt lat="49.99042" lon="2.2595">
        <ele>94.6</ele>
        <time>2024-07-17T07:07:34Z</time>
      </trkpt>
      <trkpt lat="49.99043" lon="2.25949">
        <ele>94.6</ele>
        <time>2024-07-17T07:07:35Z</time>
      </trkpt>
      <trkpt lat="49.99043" lon="2.25947">
        <ele>94.6</ele>
        <time>2024-07-17T07:07:36Z</time>
      </trkpt>
      <trkpt lat="49.99044" lon="2.25946">
        <ele>94.6</ele>
        <time>2024-07-17T07:07:37Z</time>
      </trkpt>
      <trkpt lat="49.99044" lon="2.25944">
        <ele>94.7</ele>
        <time>2024-07-17T07:07:38Z</time>
      </trkpt>
      <trkpt lat="49.99045" lon="2.25943">
        <ele>94.7</ele>
        <time>2024-07-17T07:07:39Z</time>
      </trkpt>
      <trkpt lat="49.99046" lon="2.25941">
        <ele>94.7</ele>
        <time>2024-07-17T07:07:40Z</time>
      </trkpt>
      <trkpt lat="49.99047" lon="2.25938">
        <ele>94.7</ele>
        <time>2024-07-17T07:07:41Z</time>
      </trkpt>
      <trkpt lat="49.99047" lon="2.25937">
        <ele>94.7</ele>
        <time>2024-07-17T07:07:42Z</time>
      </trkpt>
      <trkpt lat="49.99048" lon="2.25936">
        <ele>94.7</ele>
        <time>2024-07-17T07:07:43Z</time>
      </trkpt>
      <trkpt lat="49.99049" lon="2.25934">
        <ele>94.7</ele>
        <time>2024-07-17T07:07:44Z</time>
      </trkpt>
      <trkpt lat="49.99049" lon="2.25932">
        <ele>94.7</ele>
        <time>2024-07-17T07:07:45Z</time>
      </trkpt>
      <trkpt lat="49.9905" lon="2.25931">
        <ele>94.7</ele>
        <time>2024-07-17T07:07:46Z</time>
      </trkpt>
      <trkpt lat="49.9905" lon="2.2593">
        <ele>94.7</ele>
        <time>2024-07-17T07:07:47Z</time>
      </trkpt>
      <trkpt lat="49.99051" lon="2.25928">
        <ele>94.8</ele>
        <time>2024-07-17T07:07:48Z</time>
      </trkpt>
      <trkpt lat="49.99051" lon="2.25927">
        <ele>94.8</ele>
        <time>2024-07-17T07:07:49Z</time>
      </trkpt>
      <trkpt lat="49.99052" lon="2.25926">
        <ele>94.8</ele>
        <time>2024-07-17T07:07:50Z</time>
      </trkpt>
      <trkpt lat="49.99053" lon="2.25924">
        <ele>94.8</ele>
        <time>2024-07-17T07:07:51Z</time>
      </trkpt>
      <trkpt lat="49.99053" lon="2.25923">
        <ele>94.8</ele>
        <time>2024-07-17T07:07:52Z</time>
      </trkpt>
      <trkpt lat="49.99055" lon="2.25921">
        <ele>94.8</ele>
        <time>2024-07-17T07:07:53Z</time>
      </trkpt>
      <trkpt lat="49.99055" lon="2.2592">
        <ele>94.8</ele>
        <time>2024-07-17T07:07:54Z</time>
      </trkpt>
      <trkpt lat="49.99056" lon="2.25919">
        <ele>94.8</ele>
        <time>2024-07-17T07:07:55Z</time>
      </trkpt>
      <trkpt lat="49.99057" lon="2.25916">
        <ele>94.8</ele>
        <time>2024-07-17T07:07:56Z</time>
      </trkpt>
      <trkpt lat="49.99058" lon="2.25915">
        <ele>94.8</ele>
        <time>2024-07-17T07:07:57Z</time>
      </trkpt>
      <trkpt lat="49.99058" lon="2.25914">
        <ele>94.8</ele>
        <time>2024-07-17T07:07:58Z</time>
      </trkpt>
      <trkpt lat="49.99059" lon="2.25911">
        <ele>94.8</ele>
        <time>2024-07-17T07:07:59Z</time>
      </trkpt>
      <trkpt lat="49.9906" lon="2.2591">
        <ele>94.8</ele>
        <time>2024-07-17T07:08:00Z</time>
      </trkpt>
      <trkpt lat="49.9906" lon="2.25909">
        <ele>94.8</ele>
        <time>2024-07-17T07:08:01Z</time>
      </trkpt>
      <trkpt lat="49.99061" lon="2.25906">
        <ele>94.8</ele>
        <time>2024-07-17T07:08:02Z</time>
      </trkpt>
      <trkpt lat="49.99062" lon="2.25905">
        <ele>94.8</ele>
        <time>2024-07-17T07:08:03Z</time>
      </trkpt>
      <trkpt lat="49.99062" lon="2.25904">
        <ele>94.8</ele>
        <time>2024-07-17T07:08:04Z</time>
      </trkpt>
      <trkpt lat="49.99063" lon="2.25903">
        <ele>94.8</ele>
        <time>2024-07-17T07:08:05Z</time>
      </trkpt>
      <trkpt lat="49.99063" lon="2.25901">
        <ele>94.8</ele>
        <time>2024-07-17T07:08:06Z</time>
      </trkpt>
      <trkpt lat="49.99064" lon="2.259">
        <ele>94.8</ele>
        <time>2024-07-17T07:08:07Z</time>
      </trkpt>
      <trkpt lat="49.99065" lon="2.25898">
        <ele>94.8</ele>
        <time>2024-07-17T07:08:08Z</time>
      </trkpt>
      <trkpt lat="49.99066" lon="2.25897">
        <ele>94.8</ele>
        <time>2024-07-17T07:08:09Z</time>
      </trkpt>
      <trkpt lat="49.99066" lon="2.25896">
        <ele>94.8</ele>
        <time>2024-07-17T07:08:10Z</time>
      </trkpt>
      <trkpt lat="49.99067" lon="2.25895">
        <ele>94.8</ele>
        <time>2024-07-17T07:08:11Z</time>
      </trkpt>
      <trkpt lat="49.99068" lon="2.25893">
        <ele>94.8</ele>
        <time>2024-07-17T07:08:12Z</time>
      </trkpt>
      <trkpt lat="49.99069" lon="2.25892">
        <ele>94.8</ele>
        <time>2024-07-17T07:08:13Z</time>
      </trkpt>
      <trkpt lat="49.9907" lon="2.25891">
        <ele>94.8</ele>
        <time>2024-07-17T07:08:14Z</time>
      </trkpt>
      <trkpt lat="49.99071" lon="2.25889">
        <ele>94.8</ele>
        <time>2024-07-17T07:08:15Z</time>
      </trkpt>
      <trkpt lat="49.99071" lon="2.25888">
        <ele>94.8</ele>
        <time>2024-07-17T07:08:16Z</time>
      </trkpt>
      <trkpt lat="49.99072" lon="2.25887">
        <ele>94.8</ele>
        <time>2024-07-17T07:08:17Z</time>
      </trkpt>
      <trkpt lat="49.99073" lon="2.25887">
        <ele>94.8</ele>
        <time>2024-07-17T07:08:18Z</time>
      </trkpt>
      <trkpt lat="49.99074" lon="2.25887">
        <ele>94.8</ele>
        <time>2024-07-17T07:08:19Z</time>
      </trkpt>
      <trkpt lat="49.99075" lon="2.25886">
        <ele>94.8</ele>
        <time>2024-07-17T07:08:20Z</time>
      </trkpt>
      <trkpt lat="49.99076" lon="2.25886">
        <ele>94.8</ele>
        <time>2024-07-17T07:08:21Z</time>
      </trkpt>
      <trkpt lat="49.99077" lon="2.25885">
        <ele>94.8</ele>
        <time>2024-07-17T07:08:22Z</time>
      </trkpt>
      <trkpt lat="49.99078" lon="2.25884">
        <ele>94.8</ele>
        <time>2024-07-17T07:08:23Z</time>
      </trkpt>
      <trkpt lat="49.99079" lon="2.25884">
        <ele>94.8</ele>
        <time>2024-07-17T07:08:24Z</time>
      </trkpt>
      <trkpt lat="49.9908" lon="2.25883">
        <ele>94.8</ele>
        <time>2024-07-17T07:08:25Z</time>
      </trkpt>
      <trkpt lat="49.99082" lon="2.25883">
        <ele>94.8</ele>
        <time>2024-07-17T07:08:26Z</time>
      </trkpt>
      <trkpt lat="49.99083" lon="2.25883">
        <ele>94.7</ele>
        <time>2024-07-17T07:08:27Z</time>
      </trkpt>
      <trkpt lat="49.99084" lon="2.25883">
        <ele>94.7</ele>
        <time>2024-07-17T07:08:28Z</time>
      </trkpt>
      <trkpt lat="49.99086" lon="2.25883">
        <ele>94.7</ele>
        <time>2024-07-17T07:08:29Z</time>
      </trkpt>
      <trkpt lat="49.99087" lon="2.25883">
        <ele>94.7</ele>
        <time>2024-07-17T07:08:30Z</time>
      </trkpt>
      <trkpt lat="49.99088" lon="2.25883">
        <ele>94.7</ele>
        <time>2024-07-17T07:08:31Z</time>
      </trkpt>
      <trkpt lat="49.99089" lon="2.25883">
        <ele>94.7</ele>
        <time>2024-07-17T07:08:32Z</time>
      </trkpt>
      <trkpt lat="49.99091" lon="2.25884">
        <ele>94.7</ele>
        <time>2024-07-17T07:08:33Z</time>
      </trkpt>
      <trkpt lat="49.99092" lon="2.25884">
        <ele>94.7</ele>
        <time>2024-07-17T07:08:34Z</time>
      </trkpt>
      <trkpt lat="49.99093" lon="2.25884">
        <ele>94.7</ele>
        <time>2024-07-17T07:08:35Z</time>
      </trkpt>
      <trkpt lat="49.99095" lon="2.25885">
        <ele>94.7</ele>
        <time>2024-07-17T07:08:36Z</time>
      </trkpt>
      <trkpt lat="49.99096" lon="2.25886">
        <ele>94.7</ele>
        <time>2024-07-17T07:08:37Z</time>
      </trkpt>
      <trkpt lat="49.99098" lon="2.25886">
        <ele>94.7</ele>
        <time>2024-07-17T07:08:38Z</time>
      </trkpt>
      <trkpt lat="49.99099" lon="2.25885">
        <ele>94.8</ele>
        <time>2024-07-17T07:08:39Z</time>
      </trkpt>
      <trkpt lat="49.99101" lon="2.25885">
        <ele>94.8</ele>
        <time>2024-07-17T07:08:40Z</time>
      </trkpt>
      <trkpt lat="49.99102" lon="2.25885">
        <ele>94.8</ele>
        <time>2024-07-17T07:08:41Z</time>
      </trkpt>
      <trkpt lat="49.99103" lon="2.25885">
        <ele>94.8</ele>
        <time>2024-07-17T07:08:42Z</time>
      </trkpt>
      <trkpt lat="49.99105" lon="2.25884">
        <ele>94.8</ele>
        <time>2024-07-17T07:08:43Z</time>
      </trkpt>
      <trkpt lat="49.99106" lon="2.25884">
        <ele>94.8</ele>
        <time>2024-07-17T07:08:44Z</time>
      </trkpt>
      <trkpt lat="49.99106" lon="2.25884">
        <ele>94.8</ele>
        <time>2024-07-17T07:08:45Z</time>
      </trkpt>
      <trkpt lat="49.99108" lon="2.25884">
        <ele>94.8</ele>
        <time>2024-07-17T07:08:46Z</time>
      </trkpt>
      <trkpt lat="49.99109" lon="2.25884">
        <ele>94.8</ele>
        <time>2024-07-17T07:08:47Z</time>
      </trkpt>
      <trkpt lat="49.9911" lon="2.25884">
        <ele>94.8</ele>
        <time>2024-07-17T07:08:48Z</time>
      </trkpt>
      <trkpt lat="49.99111" lon="2.25883">
        <ele>94.8</ele>
        <time>2024-07-17T07:08:49Z</time>
      </trkpt>
      <trkpt lat="49.99112" lon="2.25883">
        <ele>94.9</ele>
        <time>2024-07-17T07:08:50Z</time>
      </trkpt>
      <trkpt lat="49.99113" lon="2.25883">
        <ele>94.9</ele>
        <time>2024-07-17T07:08:51Z</time>
      </trkpt>
      <trkpt lat="49.99115" lon="2.25883">
        <ele>94.9</ele>
        <time>2024-07-17T07:08:52Z</time>
      </trkpt>
      <trkpt lat="49.99116" lon="2.25883">
        <ele>94.9</ele>
        <time>2024-07-17T07:08:53Z</time>
      </trkpt>
      <trkpt lat="49.99117" lon="2.25883">
        <ele>94.9</ele>
        <time>2024-07-17T07:08:54Z</time>
      </trkpt>
      <trkpt lat="49.99119" lon="2.25883">
        <ele>94.9</ele>
        <time>2024-07-17T07:08:55Z</time>
      </trkpt>
      <trkpt lat="49.9912" lon="2.25883">
        <ele>94.9</ele>
        <time>2024-07-17T07:08:56Z</time>
      </trkpt>
      <trkpt lat="49.99121" lon="2.25883">
        <ele>94.9</ele>
        <time>2024-07-17T07:08:57Z</time>
      </trkpt>
      <trkpt lat="49.99123" lon="2.25883">
        <ele>94.9</ele>
        <time>2024-07-17T07:08:58Z</time>
      </trkpt>
      <trkpt lat="49.99123" lon="2.25883">
        <ele>94.9</ele>
        <time>2024-07-17T07:08:59Z</time>
      </trkpt>
      <trkpt lat="49.99124" lon="2.25883">
        <ele>94.9</ele>
        <time>2024-07-17T07:09:00Z</time>
      </trkpt>
      <trkpt lat="49.99126" lon="2.25883">
        <ele>94.9</ele>
        <time>2024-07-17T07:09:01Z</time>
      </trkpt>
      <trkpt lat="49.99127" lon="2.25883">
        <ele>94.9</ele>
        <time>2024-07-17T07:09:02Z</time>
      </trkpt>
      <trkpt lat="49.99128" lon="2.25883">
        <ele>94.9</ele>
        <time>2024-07-17T07:09:03Z</time>
      </trkpt>
      <trkpt lat="49.99129" lon="2.25883">
        <ele>95</ele>
        <time>2024-07-17T07:09:04Z</time>
      </trkpt>
      <trkpt lat="49.9913" lon="2.25883">
        <ele>95</ele>
        <time>2024-07-17T07:09:05Z</time>
      </trkpt>
      <trkpt lat="49.99131" lon="2.25883">
        <ele>95</ele>
        <time>2024-07-17T07:09:06Z</time>
      </trkpt>
      <trkpt lat="49.99132" lon="2.25883">
        <ele>95</ele>
        <time>2024-07-17T07:09:07Z</time>
      </trkpt>
      <trkpt lat="49.99133" lon="2.25883">
        <ele>95</ele>
        <time>2024-07-17T07:09:08Z</time>
      </trkpt>
      <trkpt lat="49.99134" lon="2.25884">
        <ele>95</ele>
        <time>2024-07-17T07:09:09Z</time>
      </trkpt>
      <trkpt lat="49.99135" lon="2.25884">
        <ele>95</ele>
        <time>2024-07-17T07:09:10Z</time>
      </trkpt>
      <trkpt lat="49.99136" lon="2.25883">
        <ele>95</ele>
        <time>2024-07-17T07:09:11Z</time>
      </trkpt>
      <trkpt lat="49.99137" lon="2.25883">
        <ele>95</ele>
        <time>2024-07-17T07:09:12Z</time>
      </trkpt>
      <trkpt lat="49.99138" lon="2.25883">
        <ele>95</ele>
        <time>2024-07-17T07:09:13Z</time>
      </trkpt>
      <trkpt lat="49.99139" lon="2.25883">
        <ele>95</ele>
        <time>2024-07-17T07:09:14Z</time>
      </trkpt>
      <trkpt lat="49.9914" lon="2.25883">
        <ele>95</ele>
        <time>2024-07-17T07:09:15Z</time>
      </trkpt>
      <trkpt lat="49.99141" lon="2.25882">
        <ele>95</ele>
        <time>2024-07-17T07:09:16Z</time>
      </trkpt>
      <trkpt lat="49.99142" lon="2.25882">
        <ele>95</ele>
        <time>2024-07-17T07:09:17Z</time>
      </trkpt>
      <trkpt lat="49.99143" lon="2.25882">
        <ele>95</ele>
        <time>2024-07-17T07:09:18Z</time>
      </trkpt>
      <trkpt lat="49.99144" lon="2.25882">
        <ele>95</ele>
        <time>2024-07-17T07:09:19Z</time>
      </trkpt>
      <trkpt lat="49.99145" lon="2.25881">
        <ele>95.1</ele>
        <time>2024-07-17T07:09:20Z</time>
      </trkpt>
      <trkpt lat="49.99146" lon="2.25881">
        <ele>95.1</ele>
        <time>2024-07-17T07:09:21Z</time>
      </trkpt>
      <trkpt lat="49.99147" lon="2.25881">
        <ele>95.1</ele>
        <time>2024-07-17T07:09:22Z</time>
      </trkpt>
      <trkpt lat="49.99148" lon="2.2588">
        <ele>95.1</ele>
        <time>2024-07-17T07:09:23Z</time>
      </trkpt>
      <trkpt lat="49.99149" lon="2.25879">
        <ele>95.1</ele>
        <time>2024-07-17T07:09:24Z</time>
      </trkpt>
      <trkpt lat="49.9915" lon="2.25878">
        <ele>95.1</ele>
        <time>2024-07-17T07:09:25Z</time>
      </trkpt>
      <trkpt lat="49.99151" lon="2.25877">
        <ele>95.1</ele>
        <time>2024-07-17T07:09:26Z</time>
      </trkpt>
      <trkpt lat="49.99152" lon="2.25877">
        <ele>95.1</ele>
        <time>2024-07-17T07:09:27Z</time>
      </trkpt>
      <trkpt lat="49.99154" lon="2.25876">
        <ele>95.1</ele>
        <time>2024-07-17T07:09:28Z</time>
      </trkpt>
      <trkpt lat="49.99154" lon="2.25875">
        <ele>95.1</ele>
        <time>2024-07-17T07:09:29Z</time>
      </trkpt>
      <trkpt lat="49.99155" lon="2.25875">
        <ele>95.1</ele>
        <time>2024-07-17T07:09:30Z</time>
      </trkpt>
      <trkpt lat="49.99157" lon="2.25875">
        <ele>95.1</ele>
        <time>2024-07-17T07:09:31Z</time>
      </trkpt>
      <trkpt lat="49.99158" lon="2.25875">
        <ele>95.1</ele>
        <time>2024-07-17T07:09:32Z</time>
      </trkpt>
      <trkpt lat="49.99159" lon="2.25875">
        <ele>95.1</ele>
        <time>2024-07-17T07:09:33Z</time>
      </trkpt>
      <trkpt lat="49.9916" lon="2.25874">
        <ele>95.1</ele>
        <time>2024-07-17T07:09:34Z</time>
      </trkpt>
      <trkpt lat="49.99161" lon="2.25873">
        <ele>95.2</ele>
        <time>2024-07-17T07:09:35Z</time>
      </trkpt>
      <trkpt lat="49.99162" lon="2.25873">
        <ele>95.2</ele>
        <time>2024-07-17T07:09:36Z</time>
      </trkpt>
      <trkpt lat="49.99163" lon="2.25872">
        <ele>95.2</ele>
        <time>2024-07-17T07:09:37Z</time>
      </trkpt>
      <trkpt lat="49.99164" lon="2.25872">
        <ele>95.2</ele>
        <time>2024-07-17T07:09:38Z</time>
      </trkpt>
      <trkpt lat="49.99166" lon="2.25871">
        <ele>95.2</ele>
        <time>2024-07-17T07:09:39Z</time>
      </trkpt>
      <trkpt lat="49.99167" lon="2.25871">
        <ele>95.2</ele>
        <time>2024-07-17T07:09:41Z</time>
      </trkpt>
      <trkpt lat="49.99168" lon="2.25871">
        <ele>95.2</ele>
        <time>2024-07-17T07:09:42Z</time>
      </trkpt>
      <trkpt lat="49.99169" lon="2.2587">
        <ele>95.2</ele>
        <time>2024-07-17T07:09:43Z</time>
      </trkpt>
      <trkpt lat="49.99171" lon="2.2587">
        <ele>95.2</ele>
        <time>2024-07-17T07:09:44Z</time>
      </trkpt>
      <trkpt lat="49.99172" lon="2.2587">
        <ele>95.2</ele>
        <time>2024-07-17T07:09:45Z</time>
      </trkpt>
      <trkpt lat="49.99173" lon="2.25869">
        <ele>95.2</ele>
        <time>2024-07-17T07:09:46Z</time>
      </trkpt>
      <trkpt lat="49.99174" lon="2.25868">
        <ele>95.2</ele>
        <time>2024-07-17T07:09:47Z</time>
      </trkpt>
      <trkpt lat="49.99175" lon="2.25868">
        <ele>95.2</ele>
        <time>2024-07-17T07:09:48Z</time>
      </trkpt>
      <trkpt lat="49.99176" lon="2.25868">
        <ele>95.3</ele>
        <time>2024-07-17T07:09:49Z</time>
      </trkpt>
      <trkpt lat="49.99177" lon="2.25868">
        <ele>95.3</ele>
        <time>2024-07-17T07:09:50Z</time>
      </trkpt>
      <trkpt lat="49.99178" lon="2.25868">
        <ele>95.3</ele>
        <time>2024-07-17T07:09:51Z</time>
      </trkpt>
      <trkpt lat="49.99179" lon="2.25869">
        <ele>95.3</ele>
        <time>2024-07-17T07:09:52Z</time>
      </trkpt>
      <trkpt lat="49.99181" lon="2.25869">
        <ele>95.3</ele>
        <time>2024-07-17T07:09:53Z</time>
      </trkpt>
      <trkpt lat="49.99182" lon="2.25868">
        <ele>95.3</ele>
        <time>2024-07-17T07:09:54Z</time>
      </trkpt>
      <trkpt lat="49.99184" lon="2.25868">
        <ele>95.3</ele>
        <time>2024-07-17T07:09:55Z</time>
      </trkpt>
      <trkpt lat="49.99184" lon="2.25868">
        <ele>95.3</ele>
        <time>2024-07-17T07:09:56Z</time>
      </trkpt>
      <trkpt lat="49.99185" lon="2.25868">
        <ele>95.3</ele>
        <time>2024-07-17T07:09:57Z</time>
      </trkpt>
      <trkpt lat="49.99187" lon="2.25868">
        <ele>95.3</ele>
        <time>2024-07-17T07:09:58Z</time>
      </trkpt>
      <trkpt lat="49.99188" lon="2.25868">
        <ele>95.3</ele>
        <time>2024-07-17T07:09:59Z</time>
      </trkpt>
      <trkpt lat="49.99189" lon="2.25869">
        <ele>95.3</ele>
        <time>2024-07-17T07:10:00Z</time>
      </trkpt>
      <trkpt lat="49.99191" lon="2.25869">
        <ele>95.3</ele>
        <time>2024-07-17T07:10:01Z</time>
      </trkpt>
      <trkpt lat="49.99192" lon="2.2587">
        <ele>95.3</ele>
        <time>2024-07-17T07:10:02Z</time>
      </trkpt>
      <trkpt lat="49.99193" lon="2.2587">
        <ele>95.3</ele>
        <time>2024-07-17T07:10:03Z</time>
      </trkpt>
      <trkpt lat="49.99195" lon="2.2587">
        <ele>95.3</ele>
        <time>2024-07-17T07:10:04Z</time>
      </trkpt>
      <trkpt lat="49.99196" lon="2.25871">
        <ele>95.3</ele>
        <time>2024-07-17T07:10:05Z</time>
      </trkpt>
      <trkpt lat="49.99197" lon="2.25871">
        <ele>95.3</ele>
        <time>2024-07-17T07:10:06Z</time>
      </trkpt>
      <trkpt lat="49.99199" lon="2.25871">
        <ele>95.3</ele>
        <time>2024-07-17T07:10:07Z</time>
      </trkpt>
      <trkpt lat="49.992" lon="2.25871">
        <ele>95.3</ele>
        <time>2024-07-17T07:10:08Z</time>
      </trkpt>
      <trkpt lat="49.99201" lon="2.25872">
        <ele>95.3</ele>
        <time>2024-07-17T07:10:09Z</time>
      </trkpt>
      <trkpt lat="49.99202" lon="2.25872">
        <ele>95.3</ele>
        <time>2024-07-17T07:10:10Z</time>
      </trkpt>
      <trkpt lat="49.99203" lon="2.25873">
        <ele>95.3</ele>
        <time>2024-07-17T07:10:11Z</time>
      </trkpt>
      <trkpt lat="49.99204" lon="2.25873">
        <ele>95.3</ele>
        <time>2024-07-17T07:10:12Z</time>
      </trkpt>
      <trkpt lat="49.99205" lon="2.25873">
        <ele>95.3</ele>
        <time>2024-07-17T07:10:13Z</time>
      </trkpt>
      <trkpt lat="49.99206" lon="2.25874">
        <ele>95.3</ele>
        <time>2024-07-17T07:10:14Z</time>
      </trkpt>
      <trkpt lat="49.99207" lon="2.25874">
        <ele>95.3</ele>
        <time>2024-07-17T07:10:15Z</time>
      </trkpt>
      <trkpt lat="49.99209" lon="2.25874">
        <ele>95.3</ele>
        <time>2024-07-17T07:10:16Z</time>
      </trkpt>
      <trkpt lat="49.9921" lon="2.25874">
        <ele>95.3</ele>
        <time>2024-07-17T07:10:17Z</time>
      </trkpt>
      <trkpt lat="49.99211" lon="2.25874">
        <ele>95.3</ele>
        <time>2024-07-17T07:10:18Z</time>
      </trkpt>
      <trkpt lat="49.99213" lon="2.25875">
        <ele>95.3</ele>
        <time>2024-07-17T07:10:19Z</time>
      </trkpt>
      <trkpt lat="49.99214" lon="2.25875">
        <ele>95.3</ele>
        <time>2024-07-17T07:10:20Z</time>
      </trkpt>
      <trkpt lat="49.99214" lon="2.25875">
        <ele>95.3</ele>
        <time>2024-07-17T07:10:21Z</time>
      </trkpt>
      <trkpt lat="49.99217" lon="2.25875">
        <ele>95.3</ele>
        <time>2024-07-17T07:10:22Z</time>
      </trkpt>
      <trkpt lat="49.99217" lon="2.25875">
        <ele>95.3</ele>
        <time>2024-07-17T07:10:23Z</time>
      </trkpt>
      <trkpt lat="49.99218" lon="2.25875">
        <ele>95.3</ele>
        <time>2024-07-17T07:10:24Z</time>
      </trkpt>
      <trkpt lat="49.9922" lon="2.25875">
        <ele>95.3</ele>
        <time>2024-07-17T07:10:25Z</time>
      </trkpt>
      <trkpt lat="49.99221" lon="2.25875">
        <ele>95.3</ele>
        <time>2024-07-17T07:10:26Z</time>
      </trkpt>
      <trkpt lat="49.99222" lon="2.25875">
        <ele>95.3</ele>
        <time>2024-07-17T07:10:27Z</time>
      </trkpt>
      <trkpt lat="49.99223" lon="2.25875">
        <ele>95.3</ele>
        <time>2024-07-17T07:10:28Z</time>
      </trkpt>
      <trkpt lat="49.99224" lon="2.25875">
        <ele>95.2</ele>
        <time>2024-07-17T07:10:29Z</time>
      </trkpt>
      <trkpt lat="49.99226" lon="2.25874">
        <ele>95.2</ele>
        <time>2024-07-17T07:10:30Z</time>
      </trkpt>
      <trkpt lat="49.99228" lon="2.25874">
        <ele>95.2</ele>
        <time>2024-07-17T07:10:31Z</time>
      </trkpt>
      <trkpt lat="49.99229" lon="2.25874">
        <ele>95.2</ele>
        <time>2024-07-17T07:10:32Z</time>
      </trkpt>
      <trkpt lat="49.99229" lon="2.25873">
        <ele>95.2</ele>
        <time>2024-07-17T07:10:33Z</time>
      </trkpt>
      <trkpt lat="49.99231" lon="2.25873">
        <ele>95.2</ele>
        <time>2024-07-17T07:10:34Z</time>
      </trkpt>
      <trkpt lat="49.99232" lon="2.25873">
        <ele>95.2</ele>
        <time>2024-07-17T07:10:35Z</time>
      </trkpt>
      <trkpt lat="49.99233" lon="2.25873">
        <ele>95.2</ele>
        <time>2024-07-17T07:10:36Z</time>
      </trkpt>
      <trkpt lat="49.99234" lon="2.25873">
        <ele>95.2</ele>
        <time>2024-07-17T07:10:37Z</time>
      </trkpt>
      <trkpt lat="49.99236" lon="2.25872">
        <ele>95.1</ele>
        <time>2024-07-17T07:10:38Z</time>
      </trkpt>
      <trkpt lat="49.99237" lon="2.25872">
        <ele>95.1</ele>
        <time>2024-07-17T07:10:39Z</time>
      </trkpt>
      <trkpt lat="49.99239" lon="2.25871">
        <ele>95.1</ele>
        <time>2024-07-17T07:10:40Z</time>
      </trkpt>
      <trkpt lat="49.9924" lon="2.25871">
        <ele>95.1</ele>
        <time>2024-07-17T07:10:42Z</time>
      </trkpt>
      <trkpt lat="49.99241" lon="2.25871">
        <ele>95.1</ele>
        <time>2024-07-17T07:10:43Z</time>
      </trkpt>
      <trkpt lat="49.99242" lon="2.2587">
        <ele>95.1</ele>
        <time>2024-07-17T07:10:44Z</time>
      </trkpt>
      <trkpt lat="49.99244" lon="2.2587">
        <ele>95.1</ele>
        <time>2024-07-17T07:10:45Z</time>
      </trkpt>
      <trkpt lat="49.99246" lon="2.25869">
        <ele>95.1</ele>
        <time>2024-07-17T07:10:46Z</time>
      </trkpt>
      <trkpt lat="49.99247" lon="2.25869">
        <ele>95.1</ele>
        <time>2024-07-17T07:10:47Z</time>
      </trkpt>
      <trkpt lat="49.99248" lon="2.25869">
        <ele>95.1</ele>
        <time>2024-07-17T07:10:49Z</time>
      </trkpt>
      <trkpt lat="49.99249" lon="2.25868">
        <ele>95.1</ele>
        <time>2024-07-17T07:10:50Z</time>
      </trkpt>
      <trkpt lat="49.9925" lon="2.25868">
        <ele>95.1</ele>
        <time>2024-07-17T07:10:51Z</time>
      </trkpt>
      <trkpt lat="49.99251" lon="2.25868">
        <ele>95.1</ele>
        <time>2024-07-17T07:10:52Z</time>
      </trkpt>
      <trkpt lat="49.99253" lon="2.25868">
        <ele>95.1</ele>
        <time>2024-07-17T07:10:53Z</time>
      </trkpt>
      <trkpt lat="49.99254" lon="2.25867">
        <ele>95.1</ele>
        <time>2024-07-17T07:10:54Z</time>
      </trkpt>
      <trkpt lat="49.99255" lon="2.25867">
        <ele>95</ele>
        <time>2024-07-17T07:10:55Z</time>
      </trkpt>
      <trkpt lat="49.99256" lon="2.25867">
        <ele>95</ele>
        <time>2024-07-17T07:10:56Z</time>
      </trkpt>
      <trkpt lat="49.99257" lon="2.25867">
        <ele>95</ele>
        <time>2024-07-17T07:10:57Z</time>
      </trkpt>
      <trkpt lat="49.99258" lon="2.25867">
        <ele>95</ele>
        <time>2024-07-17T07:10:58Z</time>
      </trkpt>
      <trkpt lat="49.99259" lon="2.25867">
        <ele>95</ele>
        <time>2024-07-17T07:10:59Z</time>
      </trkpt>
      <trkpt lat="49.99261" lon="2.25868">
        <ele>95</ele>
        <time>2024-07-17T07:11:00Z</time>
      </trkpt>
      <trkpt lat="49.99262" lon="2.25868">
        <ele>95</ele>
        <time>2024-07-17T07:11:01Z</time>
      </trkpt>
      <trkpt lat="49.99263" lon="2.25869">
        <ele>95</ele>
        <time>2024-07-17T07:11:02Z</time>
      </trkpt>
      <trkpt lat="49.99264" lon="2.25868">
        <ele>95</ele>
        <time>2024-07-17T07:11:03Z</time>
      </trkpt>
      <trkpt lat="49.99265" lon="2.25868">
        <ele>95</ele>
        <time>2024-07-17T07:11:04Z</time>
      </trkpt>
      <trkpt lat="49.99266" lon="2.25868">
        <ele>95</ele>
        <time>2024-07-17T07:11:05Z</time>
      </trkpt>
      <trkpt lat="49.99267" lon="2.25867">
        <ele>95</ele>
        <time>2024-07-17T07:11:06Z</time>
      </trkpt>
      <trkpt lat="49.99269" lon="2.25867">
        <ele>95</ele>
        <time>2024-07-17T07:11:07Z</time>
      </trkpt>
      <trkpt lat="49.9927" lon="2.25867">
        <ele>95</ele>
        <time>2024-07-17T07:11:08Z</time>
      </trkpt>
      <trkpt lat="49.99271" lon="2.25867">
        <ele>95</ele>
        <time>2024-07-17T07:11:09Z</time>
      </trkpt>
      <trkpt lat="49.99272" lon="2.25866">
        <ele>95</ele>
        <time>2024-07-17T07:11:10Z</time>
      </trkpt>
      <trkpt lat="49.99273" lon="2.25866">
        <ele>95</ele>
        <time>2024-07-17T07:11:11Z</time>
      </trkpt>
      <trkpt lat="49.99274" lon="2.25865">
        <ele>95</ele>
        <time>2024-07-17T07:11:12Z</time>
      </trkpt>
      <trkpt lat="49.99275" lon="2.25865">
        <ele>95</ele>
        <time>2024-07-17T07:11:13Z</time>
      </trkpt>
      <trkpt lat="49.99276" lon="2.25865">
        <ele>95</ele>
        <time>2024-07-17T07:11:14Z</time>
      </trkpt>
      <trkpt lat="49.99278" lon="2.25865">
        <ele>95</ele>
        <time>2024-07-17T07:11:15Z</time>
      </trkpt>
      <trkpt lat="49.99279" lon="2.25865">
        <ele>95</ele>
        <time>2024-07-17T07:11:16Z</time>
      </trkpt>
      <trkpt lat="49.9928" lon="2.25865">
        <ele>95</ele>
        <time>2024-07-17T07:11:17Z</time>
      </trkpt>
      <trkpt lat="49.99281" lon="2.25865">
        <ele>95</ele>
        <time>2024-07-17T07:11:18Z</time>
      </trkpt>
      <trkpt lat="49.99282" lon="2.25865">
        <ele>95</ele>
        <time>2024-07-17T07:11:19Z</time>
      </trkpt>
      <trkpt lat="49.99283" lon="2.25864">
        <ele>95</ele>
        <time>2024-07-17T07:11:20Z</time>
      </trkpt>
      <trkpt lat="49.99284" lon="2.25864">
        <ele>95</ele>
        <time>2024-07-17T07:11:21Z</time>
      </trkpt>
      <trkpt lat="49.99285" lon="2.25864">
        <ele>95</ele>
        <time>2024-07-17T07:11:22Z</time>
      </trkpt>
      <trkpt lat="49.99286" lon="2.25864">
        <ele>95</ele>
        <time>2024-07-17T07:11:23Z</time>
      </trkpt>
      <trkpt lat="49.99287" lon="2.25865">
        <ele>95</ele>
        <time>2024-07-17T07:11:24Z</time>
      </trkpt>
      <trkpt lat="49.99288" lon="2.25865">
        <ele>95</ele>
        <time>2024-07-17T07:11:25Z</time>
      </trkpt>
      <trkpt lat="49.99289" lon="2.25865">
        <ele>95</ele>
        <time>2024-07-17T07:11:26Z</time>
      </trkpt>
      <trkpt lat="49.99291" lon="2.25865">
        <ele>95</ele>
        <time>2024-07-17T07:11:27Z</time>
      </trkpt>
      <trkpt lat="49.99292" lon="2.25865">
        <ele>95.1</ele>
        <time>2024-07-17T07:11:28Z</time>
      </trkpt>
      <trkpt lat="49.99293" lon="2.25865">
        <ele>95.1</ele>
        <time>2024-07-17T07:11:29Z</time>
      </trkpt>
      <trkpt lat="49.99294" lon="2.25865">
        <ele>95.1</ele>
        <time>2024-07-17T07:11:30Z</time>
      </trkpt>
      <trkpt lat="49.99295" lon="2.25865">
        <ele>95.1</ele>
        <time>2024-07-17T07:11:31Z</time>
      </trkpt>
      <trkpt lat="49.99296" lon="2.25865">
        <ele>95.1</ele>
        <time>2024-07-17T07:11:32Z</time>
      </trkpt>
      <trkpt lat="49.99297" lon="2.25865">
        <ele>95.1</ele>
        <time>2024-07-17T07:11:33Z</time>
      </trkpt>
      <trkpt lat="49.99298" lon="2.25864">
        <ele>95.1</ele>
        <time>2024-07-17T07:11:34Z</time>
      </trkpt>
      <trkpt lat="49.99299" lon="2.25864">
        <ele>95.1</ele>
        <time>2024-07-17T07:11:35Z</time>
      </trkpt>
      <trkpt lat="49.993" lon="2.25864">
        <ele>95.1</ele>
        <time>2024-07-17T07:11:36Z</time>
      </trkpt>
      <trkpt lat="49.99301" lon="2.25864">
        <ele>95.1</ele>
        <time>2024-07-17T07:11:37Z</time>
      </trkpt>
      <trkpt lat="49.99302" lon="2.25863">
        <ele>95.1</ele>
        <time>2024-07-17T07:11:38Z</time>
      </trkpt>
      <trkpt lat="49.99302" lon="2.25863">
        <ele>95.1</ele>
        <time>2024-07-17T07:11:39Z</time>
      </trkpt>
      <trkpt lat="49.99303" lon="2.25862">
        <ele>95.2</ele>
        <time>2024-07-17T07:11:40Z</time>
      </trkpt>
      <trkpt lat="49.99304" lon="2.25861">
        <ele>95.2</ele>
        <time>2024-07-17T07:11:41Z</time>
      </trkpt>
      <trkpt lat="49.99305" lon="2.2586">
        <ele>95.2</ele>
        <time>2024-07-17T07:11:42Z</time>
      </trkpt>
      <trkpt lat="49.99306" lon="2.2586">
        <ele>95.2</ele>
        <time>2024-07-17T07:11:43Z</time>
      </trkpt>
      <trkpt lat="49.99307" lon="2.2586">
        <ele>95.2</ele>
        <time>2024-07-17T07:11:44Z</time>
      </trkpt>
      <trkpt lat="49.99308" lon="2.2586">
        <ele>95.2</ele>
        <time>2024-07-17T07:11:45Z</time>
      </trkpt>
      <trkpt lat="49.99309" lon="2.2586">
        <ele>95.2</ele>
        <time>2024-07-17T07:11:46Z</time>
      </trkpt>
      <trkpt lat="49.9931" lon="2.2586">
        <ele>95.2</ele>
        <time>2024-07-17T07:11:47Z</time>
      </trkpt>
      <trkpt lat="49.99311" lon="2.2586">
        <ele>95.3</ele>
        <time>2024-07-17T07:11:48Z</time>
      </trkpt>
      <trkpt lat="49.99312" lon="2.2586">
        <ele>95.3</ele>
        <time>2024-07-17T07:11:49Z</time>
      </trkpt>
      <trkpt lat="49.99313" lon="2.2586">
        <ele>95.3</ele>
        <time>2024-07-17T07:11:50Z</time>
      </trkpt>
      <trkpt lat="49.99315" lon="2.2586">
        <ele>95.3</ele>
        <time>2024-07-17T07:11:51Z</time>
      </trkpt>
      <trkpt lat="49.99316" lon="2.25859">
        <ele>95.3</ele>
        <time>2024-07-17T07:11:52Z</time>
      </trkpt>
      <trkpt lat="49.99317" lon="2.2586">
        <ele>95.3</ele>
        <time>2024-07-17T07:11:53Z</time>
      </trkpt>
      <trkpt lat="49.99318" lon="2.25859">
        <ele>95.4</ele>
        <time>2024-07-17T07:11:54Z</time>
      </trkpt>
      <trkpt lat="49.99319" lon="2.25859">
        <ele>95.4</ele>
        <time>2024-07-17T07:11:55Z</time>
      </trkpt>
      <trkpt lat="49.99321" lon="2.25859">
        <ele>95.4</ele>
        <time>2024-07-17T07:11:56Z</time>
      </trkpt>
      <trkpt lat="49.99322" lon="2.25859">
        <ele>95.4</ele>
        <time>2024-07-17T07:11:57Z</time>
      </trkpt>
      <trkpt lat="49.99323" lon="2.25859">
        <ele>95.4</ele>
        <time>2024-07-17T07:11:58Z</time>
      </trkpt>
      <trkpt lat="49.99324" lon="2.2586">
        <ele>95.5</ele>
        <time>2024-07-17T07:11:59Z</time>
      </trkpt>
      <trkpt lat="49.99325" lon="2.25859">
        <ele>95.5</ele>
        <time>2024-07-17T07:12:00Z</time>
      </trkpt>
      <trkpt lat="49.99326" lon="2.25859">
        <ele>95.5</ele>
        <time>2024-07-17T07:12:01Z</time>
      </trkpt>
      <trkpt lat="49.99328" lon="2.25859">
        <ele>95.5</ele>
        <time>2024-07-17T07:12:02Z</time>
      </trkpt>
      <trkpt lat="49.99329" lon="2.25859">
        <ele>95.5</ele>
        <time>2024-07-17T07:12:03Z</time>
      </trkpt>
      <trkpt lat="49.9933" lon="2.25858">
        <ele>95.5</ele>
        <time>2024-07-17T07:12:04Z</time>
      </trkpt>
      <trkpt lat="49.99331" lon="2.25858">
        <ele>95.5</ele>
        <time>2024-07-17T07:12:05Z</time>
      </trkpt>
      <trkpt lat="49.99332" lon="2.25857">
        <ele>95.6</ele>
        <time>2024-07-17T07:12:06Z</time>
      </trkpt>
      <trkpt lat="49.99335" lon="2.25857">
        <ele>95.6</ele>
        <time>2024-07-17T07:12:07Z</time>
      </trkpt>
      <trkpt lat="49.99336" lon="2.25856">
        <ele>95.6</ele>
        <time>2024-07-17T07:12:08Z</time>
      </trkpt>
      <trkpt lat="49.99337" lon="2.25856">
        <ele>95.6</ele>
        <time>2024-07-17T07:12:09Z</time>
      </trkpt>
      <trkpt lat="49.99338" lon="2.25855">
        <ele>95.6</ele>
        <time>2024-07-17T07:12:11Z</time>
      </trkpt>
      <trkpt lat="49.99339" lon="2.25855">
        <ele>95.6</ele>
        <time>2024-07-17T07:12:12Z</time>
      </trkpt>
      <trkpt lat="49.9934" lon="2.25855">
        <ele>95.6</ele>
        <time>2024-07-17T07:12:13Z</time>
      </trkpt>
      <trkpt lat="49.99341" lon="2.25855">
        <ele>95.6</ele>
        <time>2024-07-17T07:12:14Z</time>
      </trkpt>
      <trkpt lat="49.99342" lon="2.25854">
        <ele>95.6</ele>
        <time>2024-07-17T07:12:15Z</time>
      </trkpt>
      <trkpt lat="49.99344" lon="2.25854">
        <ele>95.6</ele>
        <time>2024-07-17T07:12:16Z</time>
      </trkpt>
      <trkpt lat="49.99345" lon="2.25854">
        <ele>95.6</ele>
        <time>2024-07-17T07:12:17Z</time>
      </trkpt>
      <trkpt lat="49.99346" lon="2.25854">
        <ele>95.6</ele>
        <time>2024-07-17T07:12:18Z</time>
      </trkpt>
      <trkpt lat="49.99348" lon="2.25853">
        <ele>95.7</ele>
        <time>2024-07-17T07:12:19Z</time>
      </trkpt>
      <trkpt lat="49.99349" lon="2.25853">
        <ele>95.7</ele>
        <time>2024-07-17T07:12:20Z</time>
      </trkpt>
      <trkpt lat="49.9935" lon="2.25853">
        <ele>95.7</ele>
        <time>2024-07-17T07:12:21Z</time>
      </trkpt>
      <trkpt lat="49.99351" lon="2.25853">
        <ele>95.7</ele>
        <time>2024-07-17T07:12:22Z</time>
      </trkpt>
      <trkpt lat="49.99352" lon="2.25852">
        <ele>95.7</ele>
        <time>2024-07-17T07:12:23Z</time>
      </trkpt>
      <trkpt lat="49.99353" lon="2.25852">
        <ele>95.7</ele>
        <time>2024-07-17T07:12:24Z</time>
      </trkpt>
      <trkpt lat="49.99355" lon="2.25851">
        <ele>95.7</ele>
        <time>2024-07-17T07:12:25Z</time>
      </trkpt>
      <trkpt lat="49.99356" lon="2.25851">
        <ele>95.7</ele>
        <time>2024-07-17T07:12:26Z</time>
      </trkpt>
      <trkpt lat="49.99356" lon="2.2585">
        <ele>95.7</ele>
        <time>2024-07-17T07:12:27Z</time>
      </trkpt>
      <trkpt lat="49.99358" lon="2.2585">
        <ele>95.7</ele>
        <time>2024-07-17T07:12:28Z</time>
      </trkpt>
      <trkpt lat="49.99359" lon="2.2585">
        <ele>95.7</ele>
        <time>2024-07-17T07:12:29Z</time>
      </trkpt>
      <trkpt lat="49.9936" lon="2.25849">
        <ele>95.7</ele>
        <time>2024-07-17T07:12:30Z</time>
      </trkpt>
      <trkpt lat="49.99362" lon="2.25849">
        <ele>95.7</ele>
        <time>2024-07-17T07:12:31Z</time>
      </trkpt>
      <trkpt lat="49.99363" lon="2.25849">
        <ele>95.8</ele>
        <time>2024-07-17T07:12:32Z</time>
      </trkpt>
      <trkpt lat="49.99364" lon="2.25848">
        <ele>95.8</ele>
        <time>2024-07-17T07:12:33Z</time>
      </trkpt>
      <trkpt lat="49.99365" lon="2.25848">
        <ele>95.8</ele>
        <time>2024-07-17T07:12:34Z</time>
      </trkpt>
      <trkpt lat="49.99366" lon="2.25848">
        <ele>95.8</ele>
        <time>2024-07-17T07:12:35Z</time>
      </trkpt>
      <trkpt lat="49.99367" lon="2.25847">
        <ele>95.8</ele>
        <time>2024-07-17T07:12:36Z</time>
      </trkpt>
      <trkpt lat="49.99368" lon="2.25847">
        <ele>95.8</ele>
        <time>2024-07-17T07:12:37Z</time>
      </trkpt>
      <trkpt lat="49.99369" lon="2.25847">
        <ele>95.8</ele>
        <time>2024-07-17T07:12:38Z</time>
      </trkpt>
      <trkpt lat="49.99371" lon="2.25847">
        <ele>95.8</ele>
        <time>2024-07-17T07:12:39Z</time>
      </trkpt>
      <trkpt lat="49.99373" lon="2.25846">
        <ele>95.8</ele>
        <time>2024-07-17T07:12:40Z</time>
      </trkpt>
      <trkpt lat="49.99373" lon="2.25846">
        <ele>95.9</ele>
        <time>2024-07-17T07:12:41Z</time>
      </trkpt>
      <trkpt lat="49.99374" lon="2.25846">
        <ele>95.9</ele>
        <time>2024-07-17T07:12:42Z</time>
      </trkpt>
      <trkpt lat="49.99375" lon="2.25846">
        <ele>95.9</ele>
        <time>2024-07-17T07:12:43Z</time>
      </trkpt>
      <trkpt lat="49.99377" lon="2.25845">
        <ele>95.9</ele>
        <time>2024-07-17T07:12:44Z</time>
      </trkpt>
      <trkpt lat="49.99378" lon="2.25845">
        <ele>95.9</ele>
        <time>2024-07-17T07:12:45Z</time>
      </trkpt>
      <trkpt lat="49.99379" lon="2.25845">
        <ele>95.9</ele>
        <time>2024-07-17T07:12:46Z</time>
      </trkpt>
      <trkpt lat="49.9938" lon="2.25844">
        <ele>95.9</ele>
        <time>2024-07-17T07:12:47Z</time>
      </trkpt>
      <trkpt lat="49.99381" lon="2.25844">
        <ele>95.9</ele>
        <time>2024-07-17T07:12:48Z</time>
      </trkpt>
      <trkpt lat="49.99383" lon="2.25844">
        <ele>96</ele>
        <time>2024-07-17T07:12:49Z</time>
      </trkpt>
      <trkpt lat="49.99384" lon="2.25844">
        <ele>96</ele>
        <time>2024-07-17T07:12:50Z</time>
      </trkpt>
      <trkpt lat="49.99385" lon="2.25843">
        <ele>96</ele>
        <time>2024-07-17T07:12:51Z</time>
      </trkpt>
      <trkpt lat="49.99387" lon="2.25843">
        <ele>96</ele>
        <time>2024-07-17T07:12:52Z</time>
      </trkpt>
      <trkpt lat="49.99388" lon="2.25843">
        <ele>96</ele>
        <time>2024-07-17T07:12:53Z</time>
      </trkpt>
      <trkpt lat="49.99389" lon="2.25843">
        <ele>96</ele>
        <time>2024-07-17T07:12:54Z</time>
      </trkpt>
      <trkpt lat="49.99391" lon="2.25842">
        <ele>96.1</ele>
        <time>2024-07-17T07:12:55Z</time>
      </trkpt>
      <trkpt lat="49.99392" lon="2.25842">
        <ele>96.1</ele>
        <time>2024-07-17T07:12:56Z</time>
      </trkpt>
      <trkpt lat="49.99393" lon="2.25842">
        <ele>96.1</ele>
        <time>2024-07-17T07:12:57Z</time>
      </trkpt>
      <trkpt lat="49.99395" lon="2.25842">
        <ele>96.1</ele>
        <time>2024-07-17T07:12:58Z</time>
      </trkpt>
      <trkpt lat="49.99396" lon="2.25841">
        <ele>96.1</ele>
        <time>2024-07-17T07:13:00Z</time>
      </trkpt>
      <trkpt lat="49.99397" lon="2.25841">
        <ele>96.2</ele>
        <time>2024-07-17T07:13:01Z</time>
      </trkpt>
      <trkpt lat="49.99398" lon="2.25841">
        <ele>96.2</ele>
        <time>2024-07-17T07:13:02Z</time>
      </trkpt>
      <trkpt lat="49.99399" lon="2.25841">
        <ele>96.2</ele>
        <time>2024-07-17T07:13:03Z</time>
      </trkpt>
      <trkpt lat="49.99401" lon="2.25842">
        <ele>96.2</ele>
        <time>2024-07-17T07:13:04Z</time>
      </trkpt>
      <trkpt lat="49.99402" lon="2.25842">
        <ele>96.2</ele>
        <time>2024-07-17T07:13:05Z</time>
      </trkpt>
      <trkpt lat="49.99403" lon="2.25842">
        <ele>96.3</ele>
        <time>2024-07-17T07:13:06Z</time>
      </trkpt>
      <trkpt lat="49.99404" lon="2.25842">
        <ele>96.3</ele>
        <time>2024-07-17T07:13:07Z</time>
      </trkpt>
      <trkpt lat="49.99405" lon="2.25842">
        <ele>96.3</ele>
        <time>2024-07-17T07:13:08Z</time>
      </trkpt>
      <trkpt lat="49.99407" lon="2.25842">
        <ele>96.3</ele>
        <time>2024-07-17T07:13:09Z</time>
      </trkpt>
      <trkpt lat="49.99408" lon="2.25842">
        <ele>96.3</ele>
        <time>2024-07-17T07:13:10Z</time>
      </trkpt>
      <trkpt lat="49.99409" lon="2.25842">
        <ele>96.4</ele>
        <time>2024-07-17T07:13:11Z</time>
      </trkpt>
      <trkpt lat="49.9941" lon="2.25842">
        <ele>96.4</ele>
        <time>2024-07-17T07:13:12Z</time>
      </trkpt>
      <trkpt lat="49.99411" lon="2.25842">
        <ele>96.4</ele>
        <time>2024-07-17T07:13:13Z</time>
      </trkpt>
      <trkpt lat="49.99412" lon="2.25842">
        <ele>96.4</ele>
        <time>2024-07-17T07:13:14Z</time>
      </trkpt>
      <trkpt lat="49.99413" lon="2.25842">
        <ele>96.4</ele>
        <time>2024-07-17T07:13:15Z</time>
      </trkpt>
      <trkpt lat="49.99414" lon="2.25842">
        <ele>96.5</ele>
        <time>2024-07-17T07:13:16Z</time>
      </trkpt>
      <trkpt lat="49.99416" lon="2.25842">
        <ele>96.5</ele>
        <time>2024-07-17T07:13:17Z</time>
      </trkpt>
      <trkpt lat="49.99418" lon="2.25841">
        <ele>96.5</ele>
        <time>2024-07-17T07:13:18Z</time>
      </trkpt>
      <trkpt lat="49.99419" lon="2.25841">
        <ele>96.6</ele>
        <time>2024-07-17T07:13:20Z</time>
      </trkpt>
      <trkpt lat="49.9942" lon="2.25841">
        <ele>96.6</ele>
        <time>2024-07-17T07:13:21Z</time>
      </trkpt>
      <trkpt lat="49.99421" lon="2.25842">
        <ele>96.6</ele>
        <time>2024-07-17T07:13:22Z</time>
      </trkpt>
      <trkpt lat="49.99422" lon="2.25842">
        <ele>96.6</ele>
        <time>2024-07-17T07:13:23Z</time>
      </trkpt>
      <trkpt lat="49.99423" lon="2.25842">
        <ele>96.6</ele>
        <time>2024-07-17T07:13:24Z</time>
      </trkpt>
      <trkpt lat="49.99424" lon="2.25842">
        <ele>96.7</ele>
        <time>2024-07-17T07:13:25Z</time>
      </trkpt>
      <trkpt lat="49.99425" lon="2.25842">
        <ele>96.7</ele>
        <time>2024-07-17T07:13:26Z</time>
      </trkpt>
      <trkpt lat="49.99426" lon="2.25842">
        <ele>96.7</ele>
        <time>2024-07-17T07:13:27Z</time>
      </trkpt>
      <trkpt lat="49.99427" lon="2.25842">
        <ele>96.7</ele>
        <time>2024-07-17T07:13:28Z</time>
      </trkpt>
      <trkpt lat="49.99428" lon="2.25842">
        <ele>96.7</ele>
        <time>2024-07-17T07:13:29Z</time>
      </trkpt>
      <trkpt lat="49.99429" lon="2.25842">
        <ele>96.8</ele>
        <time>2024-07-17T07:13:30Z</time>
      </trkpt>
      <trkpt lat="49.9943" lon="2.25842">
        <ele>96.8</ele>
        <time>2024-07-17T07:13:31Z</time>
      </trkpt>
      <trkpt lat="49.99431" lon="2.25843">
        <ele>96.8</ele>
        <time>2024-07-17T07:13:32Z</time>
      </trkpt>
      <trkpt lat="49.99432" lon="2.25843">
        <ele>96.8</ele>
        <time>2024-07-17T07:13:33Z</time>
      </trkpt>
      <trkpt lat="49.99433" lon="2.25843">
        <ele>96.8</ele>
        <time>2024-07-17T07:13:34Z</time>
      </trkpt>
      <trkpt lat="49.99434" lon="2.25844">
        <ele>96.9</ele>
        <time>2024-07-17T07:13:35Z</time>
      </trkpt>
      <trkpt lat="49.99435" lon="2.25843">
        <ele>96.9</ele>
        <time>2024-07-17T07:13:36Z</time>
      </trkpt>
      <trkpt lat="49.99436" lon="2.25843">
        <ele>96.9</ele>
        <time>2024-07-17T07:13:37Z</time>
      </trkpt>
      <trkpt lat="49.99436" lon="2.25843">
        <ele>96.9</ele>
        <time>2024-07-17T07:13:38Z</time>
      </trkpt>
      <trkpt lat="49.99438" lon="2.25843">
        <ele>96.9</ele>
        <time>2024-07-17T07:13:39Z</time>
      </trkpt>
      <trkpt lat="49.99438" lon="2.25843">
        <ele>97</ele>
        <time>2024-07-17T07:13:40Z</time>
      </trkpt>
      <trkpt lat="49.99439" lon="2.25843">
        <ele>97</ele>
        <time>2024-07-17T07:13:41Z</time>
      </trkpt>
      <trkpt lat="49.9944" lon="2.25843">
        <ele>97</ele>
        <time>2024-07-17T07:13:42Z</time>
      </trkpt>
      <trkpt lat="49.99442" lon="2.25842">
        <ele>97</ele>
        <time>2024-07-17T07:13:43Z</time>
      </trkpt>
      <trkpt lat="49.99443" lon="2.25842">
        <ele>97.1</ele>
        <time>2024-07-17T07:13:44Z</time>
      </trkpt>
      <trkpt lat="49.99443" lon="2.25842">
        <ele>97.1</ele>
        <time>2024-07-17T07:13:45Z</time>
      </trkpt>
      <trkpt lat="49.99444" lon="2.25842">
        <ele>97.1</ele>
        <time>2024-07-17T07:13:46Z</time>
      </trkpt>
      <trkpt lat="49.99445" lon="2.25842">
        <ele>97.1</ele>
        <time>2024-07-17T07:13:47Z</time>
      </trkpt>
      <trkpt lat="49.99446" lon="2.25843">
        <ele>97.1</ele>
        <time>2024-07-17T07:13:48Z</time>
      </trkpt>
      <trkpt lat="49.99447" lon="2.25843">
        <ele>97.2</ele>
        <time>2024-07-17T07:13:49Z</time>
      </trkpt>
      <trkpt lat="49.99448" lon="2.25843">
        <ele>97.2</ele>
        <time>2024-07-17T07:13:50Z</time>
      </trkpt>
      <trkpt lat="49.99449" lon="2.25842">
        <ele>97.2</ele>
        <time>2024-07-17T07:13:51Z</time>
      </trkpt>
      <trkpt lat="49.9945" lon="2.25842">
        <ele>97.3</ele>
        <time>2024-07-17T07:13:52Z</time>
      </trkpt>
      <trkpt lat="49.99452" lon="2.25842">
        <ele>97.3</ele>
        <time>2024-07-17T07:13:53Z</time>
      </trkpt>
      <trkpt lat="49.99453" lon="2.25842">
        <ele>97.3</ele>
        <time>2024-07-17T07:13:54Z</time>
      </trkpt>
      <trkpt lat="49.99454" lon="2.25842">
        <ele>97.3</ele>
        <time>2024-07-17T07:13:55Z</time>
      </trkpt>
      <trkpt lat="49.99455" lon="2.25841">
        <ele>97.4</ele>
        <time>2024-07-17T07:13:56Z</time>
      </trkpt>
      <trkpt lat="49.99456" lon="2.25841">
        <ele>97.4</ele>
        <time>2024-07-17T07:13:57Z</time>
      </trkpt>
      <trkpt lat="49.99458" lon="2.25841">
        <ele>97.5</ele>
        <time>2024-07-17T07:13:58Z</time>
      </trkpt>
      <trkpt lat="49.99459" lon="2.25841">
        <ele>97.5</ele>
        <time>2024-07-17T07:13:59Z</time>
      </trkpt>
      <trkpt lat="49.99459" lon="2.25841">
        <ele>97.5</ele>
        <time>2024-07-17T07:14:00Z</time>
      </trkpt>
      <trkpt lat="49.9946" lon="2.25841">
        <ele>97.6</ele>
        <time>2024-07-17T07:14:01Z</time>
      </trkpt>
      <trkpt lat="49.99462" lon="2.25841">
        <ele>97.6</ele>
        <time>2024-07-17T07:14:02Z</time>
      </trkpt>
      <trkpt lat="49.99464" lon="2.2584">
        <ele>97.7</ele>
        <time>2024-07-17T07:14:03Z</time>
      </trkpt>
      <trkpt lat="49.99465" lon="2.2584">
        <ele>97.7</ele>
        <time>2024-07-17T07:14:05Z</time>
      </trkpt>
      <trkpt lat="49.99466" lon="2.25839">
        <ele>97.7</ele>
        <time>2024-07-17T07:14:06Z</time>
      </trkpt>
      <trkpt lat="49.99467" lon="2.25839">
        <ele>97.8</ele>
        <time>2024-07-17T07:14:07Z</time>
      </trkpt>
      <trkpt lat="49.99468" lon="2.25838">
        <ele>97.8</ele>
        <time>2024-07-17T07:14:08Z</time>
      </trkpt>
      <trkpt lat="49.99469" lon="2.25838">
        <ele>97.9</ele>
        <time>2024-07-17T07:14:09Z</time>
      </trkpt>
      <trkpt lat="49.9947" lon="2.25838">
        <ele>97.9</ele>
        <time>2024-07-17T07:14:10Z</time>
      </trkpt>
      <trkpt lat="49.99472" lon="2.25838">
        <ele>97.9</ele>
        <time>2024-07-17T07:14:11Z</time>
      </trkpt>
      <trkpt lat="49.99472" lon="2.25837">
        <ele>98</ele>
        <time>2024-07-17T07:14:12Z</time>
      </trkpt>
      <trkpt lat="49.99473" lon="2.25837">
        <ele>98</ele>
        <time>2024-07-17T07:14:14Z</time>
      </trkpt>
      <trkpt lat="49.99474" lon="2.25836">
        <ele>98</ele>
        <time>2024-07-17T07:14:15Z</time>
      </trkpt>
      <trkpt lat="49.99475" lon="2.25836">
        <ele>98.1</ele>
        <time>2024-07-17T07:14:16Z</time>
      </trkpt>
      <trkpt lat="49.99477" lon="2.25836">
        <ele>98.1</ele>
        <time>2024-07-17T07:14:17Z</time>
      </trkpt>
      <trkpt lat="49.99478" lon="2.25836">
        <ele>98.2</ele>
        <time>2024-07-17T07:14:19Z</time>
      </trkpt>
      <trkpt lat="49.99479" lon="2.25836">
        <ele>98.2</ele>
        <time>2024-07-17T07:14:20Z</time>
      </trkpt>
      <trkpt lat="49.9948" lon="2.25836">
        <ele>98.3</ele>
        <time>2024-07-17T07:14:21Z</time>
      </trkpt>
      <trkpt lat="49.99481" lon="2.25836">
        <ele>98.3</ele>
        <time>2024-07-17T07:14:22Z</time>
      </trkpt>
      <trkpt lat="49.99482" lon="2.25836">
        <ele>98.3</ele>
        <time>2024-07-17T07:14:23Z</time>
      </trkpt>
      <trkpt lat="49.99483" lon="2.25836">
        <ele>98.3</ele>
        <time>2024-07-17T07:14:24Z</time>
      </trkpt>
      <trkpt lat="49.99484" lon="2.25836">
        <ele>98.4</ele>
        <time>2024-07-17T07:14:25Z</time>
      </trkpt>
      <trkpt lat="49.99486" lon="2.25836">
        <ele>98.4</ele>
        <time>2024-07-17T07:14:26Z</time>
      </trkpt>
      <trkpt lat="49.99487" lon="2.25837">
        <ele>98.5</ele>
        <time>2024-07-17T07:14:27Z</time>
      </trkpt>
      <trkpt lat="49.99488" lon="2.25837">
        <ele>98.5</ele>
        <time>2024-07-17T07:14:28Z</time>
      </trkpt>
      <trkpt lat="49.9949" lon="2.25837">
        <ele>98.5</ele>
        <time>2024-07-17T07:14:29Z</time>
      </trkpt>
      <trkpt lat="49.99491" lon="2.25837">
        <ele>98.6</ele>
        <time>2024-07-17T07:14:30Z</time>
      </trkpt>
      <trkpt lat="49.99492" lon="2.25837">
        <ele>98.6</ele>
        <time>2024-07-17T07:14:31Z</time>
      </trkpt>
      <trkpt lat="49.99493" lon="2.25838">
        <ele>98.6</ele>
        <time>2024-07-17T07:14:32Z</time>
      </trkpt>
      <trkpt lat="49.99494" lon="2.25838">
        <ele>98.7</ele>
        <time>2024-07-17T07:14:33Z</time>
      </trkpt>
      <trkpt lat="49.99495" lon="2.25838">
        <ele>98.7</ele>
        <time>2024-07-17T07:14:34Z</time>
      </trkpt>
      <trkpt lat="49.99496" lon="2.25838">
        <ele>98.8</ele>
        <time>2024-07-17T07:14:35Z</time>
      </trkpt>
      <trkpt lat="49.99497" lon="2.25838">
        <ele>98.8</ele>
        <time>2024-07-17T07:14:36Z</time>
      </trkpt>
      <trkpt lat="49.99498" lon="2.25838">
        <ele>98.8</ele>
        <time>2024-07-17T07:14:37Z</time>
      </trkpt>
      <trkpt lat="49.99499" lon="2.25838">
        <ele>98.9</ele>
        <time>2024-07-17T07:14:38Z</time>
      </trkpt>
      <trkpt lat="49.995" lon="2.25838">
        <ele>98.9</ele>
        <time>2024-07-17T07:14:39Z</time>
      </trkpt>
      <trkpt lat="49.99502" lon="2.25838">
        <ele>98.9</ele>
        <time>2024-07-17T07:14:40Z</time>
      </trkpt>
      <trkpt lat="49.99502" lon="2.25838">
        <ele>99</ele>
        <time>2024-07-17T07:14:41Z</time>
      </trkpt>
      <trkpt lat="49.99503" lon="2.25837">
        <ele>99</ele>
        <time>2024-07-17T07:14:42Z</time>
      </trkpt>
      <trkpt lat="49.99504" lon="2.25837">
        <ele>99</ele>
        <time>2024-07-17T07:14:43Z</time>
      </trkpt>
      <trkpt lat="49.99505" lon="2.25838">
        <ele>99.1</ele>
        <time>2024-07-17T07:14:44Z</time>
      </trkpt>
      <trkpt lat="49.99506" lon="2.25838">
        <ele>99.1</ele>
        <time>2024-07-17T07:14:45Z</time>
      </trkpt>
      <trkpt lat="49.99507" lon="2.25838">
        <ele>99.1</ele>
        <time>2024-07-17T07:14:46Z</time>
      </trkpt>
      <trkpt lat="49.99508" lon="2.25838">
        <ele>99.2</ele>
        <time>2024-07-17T07:14:47Z</time>
      </trkpt>
      <trkpt lat="49.99509" lon="2.25838">
        <ele>99.2</ele>
        <time>2024-07-17T07:14:48Z</time>
      </trkpt>
      <trkpt lat="49.9951" lon="2.25838">
        <ele>99.2</ele>
        <time>2024-07-17T07:14:49Z</time>
      </trkpt>
      <trkpt lat="49.99511" lon="2.25839">
        <ele>99.3</ele>
        <time>2024-07-17T07:14:50Z</time>
      </trkpt>
      <trkpt lat="49.99512" lon="2.25839">
        <ele>99.3</ele>
        <time>2024-07-17T07:14:51Z</time>
      </trkpt>
      <trkpt lat="49.99513" lon="2.2584">
        <ele>99.3</ele>
        <time>2024-07-17T07:14:52Z</time>
      </trkpt>
      <trkpt lat="49.99514" lon="2.2584">
        <ele>99.4</ele>
        <time>2024-07-17T07:14:53Z</time>
      </trkpt>
      <trkpt lat="49.99515" lon="2.2584">
        <ele>99.4</ele>
        <time>2024-07-17T07:14:54Z</time>
      </trkpt>
      <trkpt lat="49.99517" lon="2.2584">
        <ele>99.5</ele>
        <time>2024-07-17T07:14:55Z</time>
      </trkpt>
      <trkpt lat="49.99518" lon="2.2584">
        <ele>99.5</ele>
        <time>2024-07-17T07:14:56Z</time>
      </trkpt>
      <trkpt lat="49.99519" lon="2.2584">
        <ele>99.6</ele>
        <time>2024-07-17T07:14:57Z</time>
      </trkpt>
      <trkpt lat="49.9952" lon="2.2584">
        <ele>99.6</ele>
        <time>2024-07-17T07:14:58Z</time>
      </trkpt>
      <trkpt lat="49.99522" lon="2.2584">
        <ele>99.7</ele>
        <time>2024-07-17T07:14:59Z</time>
      </trkpt>
      <trkpt lat="49.99523" lon="2.2584">
        <ele>99.7</ele>
        <time>2024-07-17T07:15:00Z</time>
      </trkpt>
      <trkpt lat="49.99524" lon="2.25841">
        <ele>99.8</ele>
        <time>2024-07-17T07:15:01Z</time>
      </trkpt>
      <trkpt lat="49.99525" lon="2.25841">
        <ele>99.8</ele>
        <time>2024-07-17T07:15:02Z</time>
      </trkpt>
      <trkpt lat="49.99527" lon="2.25841">
        <ele>99.9</ele>
        <time>2024-07-17T07:15:03Z</time>
      </trkpt>
      <trkpt lat="49.99529" lon="2.25841">
        <ele>100</ele>
        <time>2024-07-17T07:15:04Z</time>
      </trkpt>
      <trkpt lat="49.9953" lon="2.25842">
        <ele>100</ele>
        <time>2024-07-17T07:15:05Z</time>
      </trkpt>
      <trkpt lat="49.99531" lon="2.25842">
        <ele>100.1</ele>
        <time>2024-07-17T07:15:06Z</time>
      </trkpt>
      <trkpt lat="49.99532" lon="2.25842">
        <ele>100.1</ele>
        <time>2024-07-17T07:15:07Z</time>
      </trkpt>
      <trkpt lat="49.99533" lon="2.25842">
        <ele>100.1</ele>
        <time>2024-07-17T07:15:08Z</time>
      </trkpt>
      <trkpt lat="49.99534" lon="2.25841">
        <ele>100.2</ele>
        <time>2024-07-17T07:15:09Z</time>
      </trkpt>
      <trkpt lat="49.99535" lon="2.25841">
        <ele>100.2</ele>
        <time>2024-07-17T07:15:10Z</time>
      </trkpt>
      <trkpt lat="49.99536" lon="2.25841">
        <ele>100.3</ele>
        <time>2024-07-17T07:15:12Z</time>
      </trkpt>
      <trkpt lat="49.99537" lon="2.25841">
        <ele>100.3</ele>
        <time>2024-07-17T07:15:13Z</time>
      </trkpt>
      <trkpt lat="49.99538" lon="2.2584">
        <ele>100.3</ele>
        <time>2024-07-17T07:15:14Z</time>
      </trkpt>
      <trkpt lat="49.9954" lon="2.25841">
        <ele>100.4</ele>
        <time>2024-07-17T07:15:15Z</time>
      </trkpt>
      <trkpt lat="49.99542" lon="2.25842">
        <ele>100.5</ele>
        <time>2024-07-17T07:15:17Z</time>
      </trkpt>
      <trkpt lat="49.99543" lon="2.25842">
        <ele>100.5</ele>
        <time>2024-07-17T07:15:18Z</time>
      </trkpt>
      <trkpt lat="49.99544" lon="2.25842">
        <ele>100.6</ele>
        <time>2024-07-17T07:15:19Z</time>
      </trkpt>
      <trkpt lat="49.99545" lon="2.25843">
        <ele>100.6</ele>
        <time>2024-07-17T07:15:20Z</time>
      </trkpt>
      <trkpt lat="49.99547" lon="2.25844">
        <ele>100.7</ele>
        <time>2024-07-17T07:15:21Z</time>
      </trkpt>
      <trkpt lat="49.99548" lon="2.25844">
        <ele>100.7</ele>
        <time>2024-07-17T07:15:22Z</time>
      </trkpt>
      <trkpt lat="49.99549" lon="2.25846">
        <ele>100.8</ele>
        <time>2024-07-17T07:15:23Z</time>
      </trkpt>
      <trkpt lat="49.99549" lon="2.25847">
        <ele>100.8</ele>
        <time>2024-07-17T07:15:24Z</time>
      </trkpt>
      <trkpt lat="49.99551" lon="2.25849">
        <ele>100.9</ele>
        <time>2024-07-17T07:15:25Z</time>
      </trkpt>
      <trkpt lat="49.99552" lon="2.25849">
        <ele>101</ele>
        <time>2024-07-17T07:15:26Z</time>
      </trkpt>
      <trkpt lat="49.99553" lon="2.2585">
        <ele>101</ele>
        <time>2024-07-17T07:15:27Z</time>
      </trkpt>
      <trkpt lat="49.99554" lon="2.25851">
        <ele>101</ele>
        <time>2024-07-17T07:15:28Z</time>
      </trkpt>
      <trkpt lat="49.99555" lon="2.25851">
        <ele>101.1</ele>
        <time>2024-07-17T07:15:29Z</time>
      </trkpt>
      <trkpt lat="49.99556" lon="2.25852">
        <ele>101.1</ele>
        <time>2024-07-17T07:15:30Z</time>
      </trkpt>
      <trkpt lat="49.99557" lon="2.25852">
        <ele>101.2</ele>
        <time>2024-07-17T07:15:31Z</time>
      </trkpt>
      <trkpt lat="49.99558" lon="2.25853">
        <ele>101.2</ele>
        <time>2024-07-17T07:15:32Z</time>
      </trkpt>
      <trkpt lat="49.9956" lon="2.25853">
        <ele>101.3</ele>
        <time>2024-07-17T07:15:33Z</time>
      </trkpt>
      <trkpt lat="49.99561" lon="2.25854">
        <ele>101.3</ele>
        <time>2024-07-17T07:15:34Z</time>
      </trkpt>
      <trkpt lat="49.99562" lon="2.25855">
        <ele>101.4</ele>
        <time>2024-07-17T07:15:35Z</time>
      </trkpt>
      <trkpt lat="49.99564" lon="2.25855">
        <ele>101.5</ele>
        <time>2024-07-17T07:15:36Z</time>
      </trkpt>
      <trkpt lat="49.99565" lon="2.25856">
        <ele>101.5</ele>
        <time>2024-07-17T07:15:37Z</time>
      </trkpt>
      <trkpt lat="49.99566" lon="2.25856">
        <ele>101.5</ele>
        <time>2024-07-17T07:15:38Z</time>
      </trkpt>
      <trkpt lat="49.99567" lon="2.25856">
        <ele>101.6</ele>
        <time>2024-07-17T07:15:39Z</time>
      </trkpt>
      <trkpt lat="49.99568" lon="2.25857">
        <ele>101.6</ele>
        <time>2024-07-17T07:15:40Z</time>
      </trkpt>
      <trkpt lat="49.99569" lon="2.25857">
        <ele>101.7</ele>
        <time>2024-07-17T07:15:41Z</time>
      </trkpt>
      <trkpt lat="49.9957" lon="2.25858">
        <ele>101.7</ele>
        <time>2024-07-17T07:15:42Z</time>
      </trkpt>
      <trkpt lat="49.99571" lon="2.25859">
        <ele>101.8</ele>
        <time>2024-07-17T07:15:43Z</time>
      </trkpt>
      <trkpt lat="49.99572" lon="2.25859">
        <ele>101.8</ele>
        <time>2024-07-17T07:15:44Z</time>
      </trkpt>
      <trkpt lat="49.99573" lon="2.2586">
        <ele>101.9</ele>
        <time>2024-07-17T07:15:45Z</time>
      </trkpt>
      <trkpt lat="49.99574" lon="2.25861">
        <ele>101.9</ele>
        <time>2024-07-17T07:15:46Z</time>
      </trkpt>
      <trkpt lat="49.99575" lon="2.25861">
        <ele>102</ele>
        <time>2024-07-17T07:15:47Z</time>
      </trkpt>
      <trkpt lat="49.99576" lon="2.25862">
        <ele>102</ele>
        <time>2024-07-17T07:15:48Z</time>
      </trkpt>
      <trkpt lat="49.99577" lon="2.25862">
        <ele>102.1</ele>
        <time>2024-07-17T07:15:49Z</time>
      </trkpt>
      <trkpt lat="49.99578" lon="2.25863">
        <ele>102.1</ele>
        <time>2024-07-17T07:15:50Z</time>
      </trkpt>
      <trkpt lat="49.99579" lon="2.25863">
        <ele>102.2</ele>
        <time>2024-07-17T07:15:51Z</time>
      </trkpt>
      <trkpt lat="49.9958" lon="2.25863">
        <ele>102.2</ele>
        <time>2024-07-17T07:15:52Z</time>
      </trkpt>
      <trkpt lat="49.99582" lon="2.25864">
        <ele>102.3</ele>
        <time>2024-07-17T07:15:53Z</time>
      </trkpt>
      <trkpt lat="49.99583" lon="2.25864">
        <ele>102.3</ele>
        <time>2024-07-17T07:15:54Z</time>
      </trkpt>
      <trkpt lat="49.99583" lon="2.25864">
        <ele>102.3</ele>
        <time>2024-07-17T07:15:55Z</time>
      </trkpt>
      <trkpt lat="49.99584" lon="2.25865">
        <ele>102.4</ele>
        <time>2024-07-17T07:15:56Z</time>
      </trkpt>
      <trkpt lat="49.99586" lon="2.25865">
        <ele>102.4</ele>
        <time>2024-07-17T07:15:57Z</time>
      </trkpt>
      <trkpt lat="49.99587" lon="2.25866">
        <ele>102.5</ele>
        <time>2024-07-17T07:15:58Z</time>
      </trkpt>
      <trkpt lat="49.99588" lon="2.25866">
        <ele>102.5</ele>
        <time>2024-07-17T07:15:59Z</time>
      </trkpt>
      <trkpt lat="49.99589" lon="2.25866">
        <ele>102.6</ele>
        <time>2024-07-17T07:16:00Z</time>
      </trkpt>
      <trkpt lat="49.9959" lon="2.25867">
        <ele>102.6</ele>
        <time>2024-07-17T07:16:01Z</time>
      </trkpt>
      <trkpt lat="49.99591" lon="2.25867">
        <ele>102.6</ele>
        <time>2024-07-17T07:16:02Z</time>
      </trkpt>
      <trkpt lat="49.99591" lon="2.25867">
        <ele>102.7</ele>
        <time>2024-07-17T07:16:03Z</time>
      </trkpt>
      <trkpt lat="49.99592" lon="2.25868">
        <ele>102.7</ele>
        <time>2024-07-17T07:16:04Z</time>
      </trkpt>
      <trkpt lat="49.99593" lon="2.25868">
        <ele>102.8</ele>
        <time>2024-07-17T07:16:05Z</time>
      </trkpt>
      <trkpt lat="49.99595" lon="2.25869">
        <ele>102.8</ele>
        <time>2024-07-17T07:16:06Z</time>
      </trkpt>
      <trkpt lat="49.99596" lon="2.2587">
        <ele>102.9</ele>
        <time>2024-07-17T07:16:07Z</time>
      </trkpt>
      <trkpt lat="49.99597" lon="2.25871">
        <ele>102.9</ele>
        <time>2024-07-17T07:16:08Z</time>
      </trkpt>
      <trkpt lat="49.99597" lon="2.25871">
        <ele>102.9</ele>
        <time>2024-07-17T07:16:09Z</time>
      </trkpt>
      <trkpt lat="49.99598" lon="2.25872">
        <ele>103</ele>
        <time>2024-07-17T07:16:10Z</time>
      </trkpt>
      <trkpt lat="49.99599" lon="2.25872">
        <ele>103</ele>
        <time>2024-07-17T07:16:11Z</time>
      </trkpt>
      <trkpt lat="49.996" lon="2.25873">
        <ele>103.1</ele>
        <time>2024-07-17T07:16:12Z</time>
      </trkpt>
      <trkpt lat="49.99601" lon="2.25873">
        <ele>103.1</ele>
        <time>2024-07-17T07:16:13Z</time>
      </trkpt>
      <trkpt lat="49.99602" lon="2.25873">
        <ele>103.2</ele>
        <time>2024-07-17T07:16:14Z</time>
      </trkpt>
      <trkpt lat="49.99603" lon="2.25874">
        <ele>103.2</ele>
        <time>2024-07-17T07:16:15Z</time>
      </trkpt>
      <trkpt lat="49.99604" lon="2.25874">
        <ele>103.3</ele>
        <time>2024-07-17T07:16:16Z</time>
      </trkpt>
      <trkpt lat="49.99605" lon="2.25874">
        <ele>103.3</ele>
        <time>2024-07-17T07:16:17Z</time>
      </trkpt>
      <trkpt lat="49.99606" lon="2.25874">
        <ele>103.4</ele>
        <time>2024-07-17T07:16:18Z</time>
      </trkpt>
      <trkpt lat="49.99607" lon="2.25874">
        <ele>103.4</ele>
        <time>2024-07-17T07:16:19Z</time>
      </trkpt>
      <trkpt lat="49.99608" lon="2.25875">
        <ele>103.4</ele>
        <time>2024-07-17T07:16:20Z</time>
      </trkpt>
      <trkpt lat="49.99609" lon="2.25875">
        <ele>103.5</ele>
        <time>2024-07-17T07:16:21Z</time>
      </trkpt>
      <trkpt lat="49.9961" lon="2.25875">
        <ele>103.5</ele>
        <time>2024-07-17T07:16:22Z</time>
      </trkpt>
      <trkpt lat="49.99611" lon="2.25875">
        <ele>103.6</ele>
        <time>2024-07-17T07:16:23Z</time>
      </trkpt>
      <trkpt lat="49.99612" lon="2.25875">
        <ele>103.6</ele>
        <time>2024-07-17T07:16:24Z</time>
      </trkpt>
      <trkpt lat="49.99613" lon="2.25875">
        <ele>103.7</ele>
        <time>2024-07-17T07:16:25Z</time>
      </trkpt>
      <trkpt lat="49.99614" lon="2.25876">
        <ele>103.7</ele>
        <time>2024-07-17T07:16:26Z</time>
      </trkpt>
      <trkpt lat="49.99615" lon="2.25876">
        <ele>103.8</ele>
        <time>2024-07-17T07:16:27Z</time>
      </trkpt>
      <trkpt lat="49.99616" lon="2.25877">
        <ele>103.8</ele>
        <time>2024-07-17T07:16:28Z</time>
      </trkpt>
      <trkpt lat="49.99617" lon="2.25878">
        <ele>103.9</ele>
        <time>2024-07-17T07:16:29Z</time>
      </trkpt>
      <trkpt lat="49.99618" lon="2.25878">
        <ele>103.9</ele>
        <time>2024-07-17T07:16:30Z</time>
      </trkpt>
      <trkpt lat="49.99619" lon="2.25879">
        <ele>104</ele>
        <time>2024-07-17T07:16:31Z</time>
      </trkpt>
      <trkpt lat="49.9962" lon="2.25879">
        <ele>104</ele>
        <time>2024-07-17T07:16:32Z</time>
      </trkpt>
      <trkpt lat="49.99621" lon="2.25879">
        <ele>104</ele>
        <time>2024-07-17T07:16:33Z</time>
      </trkpt>
      <trkpt lat="49.99622" lon="2.2588">
        <ele>104.1</ele>
        <time>2024-07-17T07:16:34Z</time>
      </trkpt>
      <trkpt lat="49.99623" lon="2.25881">
        <ele>104.1</ele>
        <time>2024-07-17T07:16:35Z</time>
      </trkpt>
      <trkpt lat="49.99623" lon="2.25881">
        <ele>104.2</ele>
        <time>2024-07-17T07:16:36Z</time>
      </trkpt>
      <trkpt lat="49.99624" lon="2.25882">
        <ele>104.2</ele>
        <time>2024-07-17T07:16:37Z</time>
      </trkpt>
      <trkpt lat="49.99625" lon="2.25883">
        <ele>104.2</ele>
        <time>2024-07-17T07:16:38Z</time>
      </trkpt>
      <trkpt lat="49.99626" lon="2.25883">
        <ele>104.3</ele>
        <time>2024-07-17T07:16:39Z</time>
      </trkpt>
      <trkpt lat="49.99627" lon="2.25884">
        <ele>104.3</ele>
        <time>2024-07-17T07:16:40Z</time>
      </trkpt>
      <trkpt lat="49.99628" lon="2.25884">
        <ele>104.4</ele>
        <time>2024-07-17T07:16:41Z</time>
      </trkpt>
      <trkpt lat="49.99629" lon="2.25885">
        <ele>104.4</ele>
        <time>2024-07-17T07:16:42Z</time>
      </trkpt>
      <trkpt lat="49.9963" lon="2.25885">
        <ele>104.5</ele>
        <time>2024-07-17T07:16:43Z</time>
      </trkpt>
      <trkpt lat="49.99631" lon="2.25886">
        <ele>104.5</ele>
        <time>2024-07-17T07:16:44Z</time>
      </trkpt>
      <trkpt lat="49.99632" lon="2.25886">
        <ele>104.6</ele>
        <time>2024-07-17T07:16:45Z</time>
      </trkpt>
      <trkpt lat="49.99633" lon="2.25886">
        <ele>104.6</ele>
        <time>2024-07-17T07:16:46Z</time>
      </trkpt>
      <trkpt lat="49.99635" lon="2.25886">
        <ele>104.7</ele>
        <time>2024-07-17T07:16:47Z</time>
      </trkpt>
      <trkpt lat="49.99636" lon="2.25886">
        <ele>104.8</ele>
        <time>2024-07-17T07:16:48Z</time>
      </trkpt>
      <trkpt lat="49.99637" lon="2.25887">
        <ele>104.8</ele>
        <time>2024-07-17T07:16:49Z</time>
      </trkpt>
      <trkpt lat="49.99638" lon="2.25887">
        <ele>104.9</ele>
        <time>2024-07-17T07:16:50Z</time>
      </trkpt>
      <trkpt lat="49.99639" lon="2.25887">
        <ele>104.9</ele>
        <time>2024-07-17T07:16:51Z</time>
      </trkpt>
      <trkpt lat="49.9964" lon="2.25887">
        <ele>105</ele>
        <time>2024-07-17T07:16:52Z</time>
      </trkpt>
      <trkpt lat="49.99642" lon="2.25888">
        <ele>105.1</ele>
        <time>2024-07-17T07:16:53Z</time>
      </trkpt>
      <trkpt lat="49.99643" lon="2.25888">
        <ele>105.1</ele>
        <time>2024-07-17T07:16:54Z</time>
      </trkpt>
      <trkpt lat="49.99644" lon="2.25889">
        <ele>105.1</ele>
        <time>2024-07-17T07:16:55Z</time>
      </trkpt>
      <trkpt lat="49.99645" lon="2.25889">
        <ele>105.2</ele>
        <time>2024-07-17T07:16:56Z</time>
      </trkpt>
      <trkpt lat="49.99646" lon="2.25888">
        <ele>105.2</ele>
        <time>2024-07-17T07:16:57Z</time>
      </trkpt>
      <trkpt lat="49.99647" lon="2.25888">
        <ele>105.3</ele>
        <time>2024-07-17T07:16:58Z</time>
      </trkpt>
      <trkpt lat="49.99648" lon="2.25888">
        <ele>105.3</ele>
        <time>2024-07-17T07:16:59Z</time>
      </trkpt>
      <trkpt lat="49.99649" lon="2.25888">
        <ele>105.4</ele>
        <time>2024-07-17T07:17:00Z</time>
      </trkpt>
      <trkpt lat="49.9965" lon="2.25888">
        <ele>105.4</ele>
        <time>2024-07-17T07:17:01Z</time>
      </trkpt>
      <trkpt lat="49.99651" lon="2.25888">
        <ele>105.5</ele>
        <time>2024-07-17T07:17:02Z</time>
      </trkpt>
      <trkpt lat="49.99652" lon="2.25888">
        <ele>105.5</ele>
        <time>2024-07-17T07:17:03Z</time>
      </trkpt>
      <trkpt lat="49.99653" lon="2.25888">
        <ele>105.6</ele>
        <time>2024-07-17T07:17:04Z</time>
      </trkpt>
      <trkpt lat="49.99654" lon="2.25888">
        <ele>105.6</ele>
        <time>2024-07-17T07:17:05Z</time>
      </trkpt>
      <trkpt lat="49.99655" lon="2.25888">
        <ele>105.7</ele>
        <time>2024-07-17T07:17:06Z</time>
      </trkpt>
      <trkpt lat="49.99656" lon="2.25889">
        <ele>105.7</ele>
        <time>2024-07-17T07:17:07Z</time>
      </trkpt>
      <trkpt lat="49.99657" lon="2.25889">
        <ele>105.8</ele>
        <time>2024-07-17T07:17:08Z</time>
      </trkpt>
      <trkpt lat="49.99658" lon="2.2589">
        <ele>105.8</ele>
        <time>2024-07-17T07:17:09Z</time>
      </trkpt>
      <trkpt lat="49.9966" lon="2.2589">
        <ele>105.9</ele>
        <time>2024-07-17T07:17:10Z</time>
      </trkpt>
      <trkpt lat="49.99661" lon="2.25891">
        <ele>105.9</ele>
        <time>2024-07-17T07:17:11Z</time>
      </trkpt>
      <trkpt lat="49.99662" lon="2.25892">
        <ele>106</ele>
        <time>2024-07-17T07:17:12Z</time>
      </trkpt>
      <trkpt lat="49.99663" lon="2.25892">
        <ele>106</ele>
        <time>2024-07-17T07:17:13Z</time>
      </trkpt>
      <trkpt lat="49.99664" lon="2.25892">
        <ele>106.1</ele>
        <time>2024-07-17T07:17:14Z</time>
      </trkpt>
      <trkpt lat="49.99665" lon="2.25893">
        <ele>106.1</ele>
        <time>2024-07-17T07:17:15Z</time>
      </trkpt>
      <trkpt lat="49.99666" lon="2.25893">
        <ele>106.2</ele>
        <time>2024-07-17T07:17:16Z</time>
      </trkpt>
      <trkpt lat="49.99667" lon="2.25894">
        <ele>106.2</ele>
        <time>2024-07-17T07:17:17Z</time>
      </trkpt>
      <trkpt lat="49.99668" lon="2.25894">
        <ele>106.3</ele>
        <time>2024-07-17T07:17:18Z</time>
      </trkpt>
      <trkpt lat="49.9967" lon="2.25895">
        <ele>106.3</ele>
        <time>2024-07-17T07:17:19Z</time>
      </trkpt>
      <trkpt lat="49.99671" lon="2.25895">
        <ele>106.4</ele>
        <time>2024-07-17T07:17:20Z</time>
      </trkpt>
      <trkpt lat="49.99672" lon="2.25895">
        <ele>106.4</ele>
        <time>2024-07-17T07:17:21Z</time>
      </trkpt>
      <trkpt lat="49.99672" lon="2.25896">
        <ele>106.4</ele>
        <time>2024-07-17T07:17:22Z</time>
      </trkpt>
      <trkpt lat="49.99673" lon="2.25896">
        <ele>106.5</ele>
        <time>2024-07-17T07:17:23Z</time>
      </trkpt>
      <trkpt lat="49.99675" lon="2.25895">
        <ele>106.5</ele>
        <time>2024-07-17T07:17:24Z</time>
      </trkpt>
      <trkpt lat="49.99675" lon="2.25896">
        <ele>106.5</ele>
        <time>2024-07-17T07:17:25Z</time>
      </trkpt>
      <trkpt lat="49.99676" lon="2.25897">
        <ele>106.6</ele>
        <time>2024-07-17T07:17:26Z</time>
      </trkpt>
      <trkpt lat="49.99677" lon="2.25897">
        <ele>106.6</ele>
        <time>2024-07-17T07:17:27Z</time>
      </trkpt>
      <trkpt lat="49.99678" lon="2.25898">
        <ele>106.6</ele>
        <time>2024-07-17T07:17:28Z</time>
      </trkpt>
      <trkpt lat="49.99679" lon="2.25897">
        <ele>106.7</ele>
        <time>2024-07-17T07:17:29Z</time>
      </trkpt>
      <trkpt lat="49.9968" lon="2.25897">
        <ele>106.7</ele>
        <time>2024-07-17T07:17:30Z</time>
      </trkpt>
      <trkpt lat="49.99681" lon="2.25898">
        <ele>106.8</ele>
        <time>2024-07-17T07:17:31Z</time>
      </trkpt>
      <trkpt lat="49.99682" lon="2.25898">
        <ele>106.8</ele>
        <time>2024-07-17T07:17:32Z</time>
      </trkpt>
      <trkpt lat="49.99683" lon="2.25899">
        <ele>106.9</ele>
        <time>2024-07-17T07:17:33Z</time>
      </trkpt>
      <trkpt lat="49.99684" lon="2.25899">
        <ele>106.9</ele>
        <time>2024-07-17T07:17:34Z</time>
      </trkpt>
      <trkpt lat="49.99685" lon="2.259">
        <ele>106.9</ele>
        <time>2024-07-17T07:17:35Z</time>
      </trkpt>
      <trkpt lat="49.99686" lon="2.25901">
        <ele>107</ele>
        <time>2024-07-17T07:17:36Z</time>
      </trkpt>
      <trkpt lat="49.99687" lon="2.25901">
        <ele>107</ele>
        <time>2024-07-17T07:17:37Z</time>
      </trkpt>
      <trkpt lat="49.99688" lon="2.25902">
        <ele>107.1</ele>
        <time>2024-07-17T07:17:38Z</time>
      </trkpt>
      <trkpt lat="49.99689" lon="2.25902">
        <ele>107.1</ele>
        <time>2024-07-17T07:17:39Z</time>
      </trkpt>
      <trkpt lat="49.9969" lon="2.25903">
        <ele>107.2</ele>
        <time>2024-07-17T07:17:40Z</time>
      </trkpt>
      <trkpt lat="49.99691" lon="2.25904">
        <ele>107.2</ele>
        <time>2024-07-17T07:17:41Z</time>
      </trkpt>
      <trkpt lat="49.99692" lon="2.25904">
        <ele>107.2</ele>
        <time>2024-07-17T07:17:42Z</time>
      </trkpt>
      <trkpt lat="49.99693" lon="2.25905">
        <ele>107.3</ele>
        <time>2024-07-17T07:17:43Z</time>
      </trkpt>
      <trkpt lat="49.99694" lon="2.25906">
        <ele>107.3</ele>
        <time>2024-07-17T07:17:44Z</time>
      </trkpt>
      <trkpt lat="49.99695" lon="2.25907">
        <ele>107.4</ele>
        <time>2024-07-17T07:17:45Z</time>
      </trkpt>
      <trkpt lat="49.99696" lon="2.25907">
        <ele>107.4</ele>
        <time>2024-07-17T07:17:46Z</time>
      </trkpt>
      <trkpt lat="49.99696" lon="2.25908">
        <ele>107.4</ele>
        <time>2024-07-17T07:17:47Z</time>
      </trkpt>
      <trkpt lat="49.99697" lon="2.25909">
        <ele>107.5</ele>
        <time>2024-07-17T07:17:48Z</time>
      </trkpt>
      <trkpt lat="49.99698" lon="2.25909">
        <ele>107.5</ele>
        <time>2024-07-17T07:17:49Z</time>
      </trkpt>
      <trkpt lat="49.99699" lon="2.25909">
        <ele>107.6</ele>
        <time>2024-07-17T07:17:50Z</time>
      </trkpt>
      <trkpt lat="49.99701" lon="2.25909">
        <ele>107.6</ele>
        <time>2024-07-17T07:17:51Z</time>
      </trkpt>
      <trkpt lat="49.99702" lon="2.2591">
        <ele>107.6</ele>
        <time>2024-07-17T07:17:52Z</time>
      </trkpt>
      <trkpt lat="49.99703" lon="2.25911">
        <ele>107.7</ele>
        <time>2024-07-17T07:17:53Z</time>
      </trkpt>
      <trkpt lat="49.99704" lon="2.25911">
        <ele>107.7</ele>
        <time>2024-07-17T07:17:54Z</time>
      </trkpt>
      <trkpt lat="49.99705" lon="2.25912">
        <ele>107.8</ele>
        <time>2024-07-17T07:17:55Z</time>
      </trkpt>
      <trkpt lat="49.99706" lon="2.25912">
        <ele>107.8</ele>
        <time>2024-07-17T07:17:56Z</time>
      </trkpt>
      <trkpt lat="49.99707" lon="2.25912">
        <ele>107.8</ele>
        <time>2024-07-17T07:17:57Z</time>
      </trkpt>
      <trkpt lat="49.99708" lon="2.25913">
        <ele>107.9</ele>
        <time>2024-07-17T07:17:58Z</time>
      </trkpt>
      <trkpt lat="49.9971" lon="2.25913">
        <ele>107.9</ele>
        <time>2024-07-17T07:17:59Z</time>
      </trkpt>
      <trkpt lat="49.99711" lon="2.25914">
        <ele>108</ele>
        <time>2024-07-17T07:18:00Z</time>
      </trkpt>
      <trkpt lat="49.99712" lon="2.25914">
        <ele>108</ele>
        <time>2024-07-17T07:18:01Z</time>
      </trkpt>
      <trkpt lat="49.99713" lon="2.25914">
        <ele>108</ele>
        <time>2024-07-17T07:18:02Z</time>
      </trkpt>
      <trkpt lat="49.99714" lon="2.25914">
        <ele>108.1</ele>
        <time>2024-07-17T07:18:03Z</time>
      </trkpt>
      <trkpt lat="49.99715" lon="2.25915">
        <ele>108.1</ele>
        <time>2024-07-17T07:18:04Z</time>
      </trkpt>
      <trkpt lat="49.99716" lon="2.25915">
        <ele>108.1</ele>
        <time>2024-07-17T07:18:05Z</time>
      </trkpt>
      <trkpt lat="49.99717" lon="2.25915">
        <ele>108.2</ele>
        <time>2024-07-17T07:18:06Z</time>
      </trkpt>
      <trkpt lat="49.99718" lon="2.25916">
        <ele>108.2</ele>
        <time>2024-07-17T07:18:07Z</time>
      </trkpt>
      <trkpt lat="49.99719" lon="2.25916">
        <ele>108.2</ele>
        <time>2024-07-17T07:18:08Z</time>
      </trkpt>
      <trkpt lat="49.9972" lon="2.25916">
        <ele>108.3</ele>
        <time>2024-07-17T07:18:09Z</time>
      </trkpt>
      <trkpt lat="49.99721" lon="2.25917">
        <ele>108.3</ele>
        <time>2024-07-17T07:18:10Z</time>
      </trkpt>
      <trkpt lat="49.99722" lon="2.25917">
        <ele>108.3</ele>
        <time>2024-07-17T07:18:11Z</time>
      </trkpt>
      <trkpt lat="49.99722" lon="2.25918">
        <ele>108.4</ele>
        <time>2024-07-17T07:18:12Z</time>
      </trkpt>
      <trkpt lat="49.99723" lon="2.25919">
        <ele>108.4</ele>
        <time>2024-07-17T07:18:13Z</time>
      </trkpt>
      <trkpt lat="49.99724" lon="2.25919">
        <ele>108.4</ele>
        <time>2024-07-17T07:18:14Z</time>
      </trkpt>
      <trkpt lat="49.99724" lon="2.2592">
        <ele>108.4</ele>
        <time>2024-07-17T07:18:15Z</time>
      </trkpt>
      <trkpt lat="49.99725" lon="2.25921">
        <ele>108.5</ele>
        <time>2024-07-17T07:18:16Z</time>
      </trkpt>
      <trkpt lat="49.99726" lon="2.25922">
        <ele>108.5</ele>
        <time>2024-07-17T07:18:17Z</time>
      </trkpt>
      <trkpt lat="49.99726" lon="2.25923">
        <ele>108.5</ele>
        <time>2024-07-17T07:18:18Z</time>
      </trkpt>
      <trkpt lat="49.99727" lon="2.25924">
        <ele>108.6</ele>
        <time>2024-07-17T07:18:19Z</time>
      </trkpt>
      <trkpt lat="49.99728" lon="2.25924">
        <ele>108.6</ele>
        <time>2024-07-17T07:18:20Z</time>
      </trkpt>
      <trkpt lat="49.99729" lon="2.25925">
        <ele>108.6</ele>
        <time>2024-07-17T07:18:21Z</time>
      </trkpt>
      <trkpt lat="49.9973" lon="2.25925">
        <ele>108.7</ele>
        <time>2024-07-17T07:18:22Z</time>
      </trkpt>
      <trkpt lat="49.99731" lon="2.25926">
        <ele>108.7</ele>
        <time>2024-07-17T07:18:23Z</time>
      </trkpt>
      <trkpt lat="49.99732" lon="2.25926">
        <ele>108.7</ele>
        <time>2024-07-17T07:18:24Z</time>
      </trkpt>
      <trkpt lat="49.99733" lon="2.25927">
        <ele>108.8</ele>
        <time>2024-07-17T07:18:25Z</time>
      </trkpt>
      <trkpt lat="49.99734" lon="2.25927">
        <ele>108.8</ele>
        <time>2024-07-17T07:18:26Z</time>
      </trkpt>
      <trkpt lat="49.99735" lon="2.25928">
        <ele>108.9</ele>
        <time>2024-07-17T07:18:27Z</time>
      </trkpt>
      <trkpt lat="49.99736" lon="2.25928">
        <ele>108.9</ele>
        <time>2024-07-17T07:18:28Z</time>
      </trkpt>
      <trkpt lat="49.99738" lon="2.25929">
        <ele>108.9</ele>
        <time>2024-07-17T07:18:29Z</time>
      </trkpt>
      <trkpt lat="49.99739" lon="2.25929">
        <ele>109</ele>
        <time>2024-07-17T07:18:30Z</time>
      </trkpt>
      <trkpt lat="49.9974" lon="2.2593">
        <ele>109</ele>
        <time>2024-07-17T07:18:31Z</time>
      </trkpt>
      <trkpt lat="49.99741" lon="2.2593">
        <ele>109.1</ele>
        <time>2024-07-17T07:18:32Z</time>
      </trkpt>
      <trkpt lat="49.99742" lon="2.25931">
        <ele>109.1</ele>
        <time>2024-07-17T07:18:33Z</time>
      </trkpt>
      <trkpt lat="49.99743" lon="2.25931">
        <ele>109.1</ele>
        <time>2024-07-17T07:18:34Z</time>
      </trkpt>
      <trkpt lat="49.99744" lon="2.25931">
        <ele>109.2</ele>
        <time>2024-07-17T07:18:35Z</time>
      </trkpt>
      <trkpt lat="49.99745" lon="2.25931">
        <ele>109.2</ele>
        <time>2024-07-17T07:18:36Z</time>
      </trkpt>
      <trkpt lat="49.99748" lon="2.25932">
        <ele>109.3</ele>
        <time>2024-07-17T07:18:37Z</time>
      </trkpt>
      <trkpt lat="49.99749" lon="2.25932">
        <ele>109.3</ele>
        <time>2024-07-17T07:18:39Z</time>
      </trkpt>
      <trkpt lat="49.9975" lon="2.25932">
        <ele>109.4</ele>
        <time>2024-07-17T07:18:40Z</time>
      </trkpt>
      <trkpt lat="49.99751" lon="2.25932">
        <ele>109.4</ele>
        <time>2024-07-17T07:18:41Z</time>
      </trkpt>
      <trkpt lat="49.99752" lon="2.25933">
        <ele>109.4</ele>
        <time>2024-07-17T07:18:42Z</time>
      </trkpt>
      <trkpt lat="49.99753" lon="2.25933">
        <ele>109.5</ele>
        <time>2024-07-17T07:18:43Z</time>
      </trkpt>
      <trkpt lat="49.99755" lon="2.25934">
        <ele>109.5</ele>
        <time>2024-07-17T07:18:44Z</time>
      </trkpt>
      <trkpt lat="49.99756" lon="2.25934">
        <ele>109.6</ele>
        <time>2024-07-17T07:18:45Z</time>
      </trkpt>
      <trkpt lat="49.99757" lon="2.25935">
        <ele>109.6</ele>
        <time>2024-07-17T07:18:46Z</time>
      </trkpt>
      <trkpt lat="49.99758" lon="2.25936">
        <ele>109.7</ele>
        <time>2024-07-17T07:18:47Z</time>
      </trkpt>
      <trkpt lat="49.99759" lon="2.25936">
        <ele>109.7</ele>
        <time>2024-07-17T07:18:48Z</time>
      </trkpt>
      <trkpt lat="49.9976" lon="2.25937">
        <ele>109.7</ele>
        <time>2024-07-17T07:18:49Z</time>
      </trkpt>
      <trkpt lat="49.99761" lon="2.25938">
        <ele>109.8</ele>
        <time>2024-07-17T07:18:50Z</time>
      </trkpt>
      <trkpt lat="49.99762" lon="2.25938">
        <ele>109.8</ele>
        <time>2024-07-17T07:18:51Z</time>
      </trkpt>
      <trkpt lat="49.99763" lon="2.25939">
        <ele>109.9</ele>
        <time>2024-07-17T07:18:52Z</time>
      </trkpt>
      <trkpt lat="49.99764" lon="2.25939">
        <ele>109.9</ele>
        <time>2024-07-17T07:18:53Z</time>
      </trkpt>
      <trkpt lat="49.99765" lon="2.2594">
        <ele>110</ele>
        <time>2024-07-17T07:18:54Z</time>
      </trkpt>
      <trkpt lat="49.99766" lon="2.2594">
        <ele>110</ele>
        <time>2024-07-17T07:18:55Z</time>
      </trkpt>
      <trkpt lat="49.99767" lon="2.25941">
        <ele>110</ele>
        <time>2024-07-17T07:18:56Z</time>
      </trkpt>
      <trkpt lat="49.99768" lon="2.25941">
        <ele>110.1</ele>
        <time>2024-07-17T07:18:57Z</time>
      </trkpt>
      <trkpt lat="49.99769" lon="2.25942">
        <ele>110.1</ele>
        <time>2024-07-17T07:18:58Z</time>
      </trkpt>
      <trkpt lat="49.9977" lon="2.25942">
        <ele>110.2</ele>
        <time>2024-07-17T07:18:59Z</time>
      </trkpt>
      <trkpt lat="49.99771" lon="2.25943">
        <ele>110.2</ele>
        <time>2024-07-17T07:19:00Z</time>
      </trkpt>
      <trkpt lat="49.99773" lon="2.25943">
        <ele>110.3</ele>
        <time>2024-07-17T07:19:01Z</time>
      </trkpt>
      <trkpt lat="49.99774" lon="2.25944">
        <ele>110.3</ele>
        <time>2024-07-17T07:19:02Z</time>
      </trkpt>
      <trkpt lat="49.99774" lon="2.25944">
        <ele>110.3</ele>
        <time>2024-07-17T07:19:03Z</time>
      </trkpt>
      <trkpt lat="49.99775" lon="2.25944">
        <ele>110.4</ele>
        <time>2024-07-17T07:19:04Z</time>
      </trkpt>
      <trkpt lat="49.99776" lon="2.25945">
        <ele>110.4</ele>
        <time>2024-07-17T07:19:05Z</time>
      </trkpt>
      <trkpt lat="49.99777" lon="2.25945">
        <ele>110.5</ele>
        <time>2024-07-17T07:19:06Z</time>
      </trkpt>
      <trkpt lat="49.99778" lon="2.25946">
        <ele>110.5</ele>
        <time>2024-07-17T07:19:07Z</time>
      </trkpt>
      <trkpt lat="49.99779" lon="2.25946">
        <ele>110.5</ele>
        <time>2024-07-17T07:19:08Z</time>
      </trkpt>
      <trkpt lat="49.9978" lon="2.25947">
        <ele>110.6</ele>
        <time>2024-07-17T07:19:09Z</time>
      </trkpt>
      <trkpt lat="49.99781" lon="2.25947">
        <ele>110.6</ele>
        <time>2024-07-17T07:19:10Z</time>
      </trkpt>
      <trkpt lat="49.99783" lon="2.25948">
        <ele>110.7</ele>
        <time>2024-07-17T07:19:11Z</time>
      </trkpt>
      <trkpt lat="49.99784" lon="2.25948">
        <ele>110.7</ele>
        <time>2024-07-17T07:19:12Z</time>
      </trkpt>
      <trkpt lat="49.99785" lon="2.25948">
        <ele>110.7</ele>
        <time>2024-07-17T07:19:13Z</time>
      </trkpt>
      <trkpt lat="49.99786" lon="2.25949">
        <ele>110.8</ele>
        <time>2024-07-17T07:19:14Z</time>
      </trkpt>
      <trkpt lat="49.99786" lon="2.2595">
        <ele>110.8</ele>
        <time>2024-07-17T07:19:15Z</time>
      </trkpt>
      <trkpt lat="49.99787" lon="2.2595">
        <ele>110.8</ele>
        <time>2024-07-17T07:19:16Z</time>
      </trkpt>
      <trkpt lat="49.99788" lon="2.25951">
        <ele>110.9</ele>
        <time>2024-07-17T07:19:17Z</time>
      </trkpt>
      <trkpt lat="49.99789" lon="2.25951">
        <ele>110.9</ele>
        <time>2024-07-17T07:19:18Z</time>
      </trkpt>
      <trkpt lat="49.9979" lon="2.25952">
        <ele>110.9</ele>
        <time>2024-07-17T07:19:19Z</time>
      </trkpt>
      <trkpt lat="49.99791" lon="2.25952">
        <ele>111</ele>
        <time>2024-07-17T07:19:20Z</time>
      </trkpt>
      <trkpt lat="49.99792" lon="2.25952">
        <ele>111</ele>
        <time>2024-07-17T07:19:21Z</time>
      </trkpt>
      <trkpt lat="49.99793" lon="2.25953">
        <ele>111</ele>
        <time>2024-07-17T07:19:22Z</time>
      </trkpt>
      <trkpt lat="49.99794" lon="2.25953">
        <ele>111.1</ele>
        <time>2024-07-17T07:19:23Z</time>
      </trkpt>
      <trkpt lat="49.99795" lon="2.25953">
        <ele>111.1</ele>
        <time>2024-07-17T07:19:24Z</time>
      </trkpt>
      <trkpt lat="49.99796" lon="2.25954">
        <ele>111.2</ele>
        <time>2024-07-17T07:19:25Z</time>
      </trkpt>
      <trkpt lat="49.99797" lon="2.25954">
        <ele>111.2</ele>
        <time>2024-07-17T07:19:26Z</time>
      </trkpt>
      <trkpt lat="49.99799" lon="2.25954">
        <ele>111.3</ele>
        <time>2024-07-17T07:19:27Z</time>
      </trkpt>
      <trkpt lat="49.99801" lon="2.25955">
        <ele>111.3</ele>
        <time>2024-07-17T07:19:29Z</time>
      </trkpt>
      <trkpt lat="49.99802" lon="2.25955">
        <ele>111.4</ele>
        <time>2024-07-17T07:19:30Z</time>
      </trkpt>
      <trkpt lat="49.99803" lon="2.25956">
        <ele>111.4</ele>
        <time>2024-07-17T07:19:31Z</time>
      </trkpt>
      <trkpt lat="49.99804" lon="2.25956">
        <ele>111.4</ele>
        <time>2024-07-17T07:19:32Z</time>
      </trkpt>
      <trkpt lat="49.99805" lon="2.25957">
        <ele>111.5</ele>
        <time>2024-07-17T07:19:33Z</time>
      </trkpt>
      <trkpt lat="49.99806" lon="2.25957">
        <ele>111.5</ele>
        <time>2024-07-17T07:19:34Z</time>
      </trkpt>
      <trkpt lat="49.99807" lon="2.25958">
        <ele>111.6</ele>
        <time>2024-07-17T07:19:35Z</time>
      </trkpt>
      <trkpt lat="49.99808" lon="2.25959">
        <ele>111.6</ele>
        <time>2024-07-17T07:19:36Z</time>
      </trkpt>
      <trkpt lat="49.99809" lon="2.25959">
        <ele>111.6</ele>
        <time>2024-07-17T07:19:37Z</time>
      </trkpt>
      <trkpt lat="49.9981" lon="2.2596">
        <ele>111.7</ele>
        <time>2024-07-17T07:19:38Z</time>
      </trkpt>
      <trkpt lat="49.99811" lon="2.25961">
        <ele>111.7</ele>
        <time>2024-07-17T07:19:39Z</time>
      </trkpt>
      <trkpt lat="49.99812" lon="2.25962">
        <ele>111.8</ele>
        <time>2024-07-17T07:19:40Z</time>
      </trkpt>
      <trkpt lat="49.99813" lon="2.25962">
        <ele>111.8</ele>
        <time>2024-07-17T07:19:41Z</time>
      </trkpt>
      <trkpt lat="49.99814" lon="2.25962">
        <ele>111.9</ele>
        <time>2024-07-17T07:19:42Z</time>
      </trkpt>
      <trkpt lat="49.99815" lon="2.25963">
        <ele>111.9</ele>
        <time>2024-07-17T07:19:43Z</time>
      </trkpt>
      <trkpt lat="49.99816" lon="2.25963">
        <ele>111.9</ele>
        <time>2024-07-17T07:19:44Z</time>
      </trkpt>
      <trkpt lat="49.99817" lon="2.25964">
        <ele>112</ele>
        <time>2024-07-17T07:19:45Z</time>
      </trkpt>
      <trkpt lat="49.99818" lon="2.25964">
        <ele>112</ele>
        <time>2024-07-17T07:19:46Z</time>
      </trkpt>
      <trkpt lat="49.99819" lon="2.25965">
        <ele>112.1</ele>
        <time>2024-07-17T07:19:47Z</time>
      </trkpt>
      <trkpt lat="49.9982" lon="2.25965">
        <ele>112.1</ele>
        <time>2024-07-17T07:19:48Z</time>
      </trkpt>
      <trkpt lat="49.99821" lon="2.25966">
        <ele>112.2</ele>
        <time>2024-07-17T07:19:49Z</time>
      </trkpt>
      <trkpt lat="49.99822" lon="2.25967">
        <ele>112.2</ele>
        <time>2024-07-17T07:19:50Z</time>
      </trkpt>
      <trkpt lat="49.99823" lon="2.25967">
        <ele>112.2</ele>
        <time>2024-07-17T07:19:51Z</time>
      </trkpt>
      <trkpt lat="49.99824" lon="2.25968">
        <ele>112.3</ele>
        <time>2024-07-17T07:19:52Z</time>
      </trkpt>
      <trkpt lat="49.99825" lon="2.25968">
        <ele>112.3</ele>
        <time>2024-07-17T07:19:53Z</time>
      </trkpt>
      <trkpt lat="49.99826" lon="2.25969">
        <ele>112.4</ele>
        <time>2024-07-17T07:19:54Z</time>
      </trkpt>
      <trkpt lat="49.99827" lon="2.25969">
        <ele>112.4</ele>
        <time>2024-07-17T07:19:55Z</time>
      </trkpt>
      <trkpt lat="49.99828" lon="2.25969">
        <ele>112.5</ele>
        <time>2024-07-17T07:19:56Z</time>
      </trkpt>
      <trkpt lat="49.99829" lon="2.2597">
        <ele>112.5</ele>
        <time>2024-07-17T07:19:57Z</time>
      </trkpt>
      <trkpt lat="49.9983" lon="2.2597">
        <ele>112.5</ele>
        <time>2024-07-17T07:19:58Z</time>
      </trkpt>
      <trkpt lat="49.99831" lon="2.25971">
        <ele>112.6</ele>
        <time>2024-07-17T07:19:59Z</time>
      </trkpt>
      <trkpt lat="49.99832" lon="2.25971">
        <ele>112.6</ele>
        <time>2024-07-17T07:20:00Z</time>
      </trkpt>
      <trkpt lat="49.99833" lon="2.25972">
        <ele>112.7</ele>
        <time>2024-07-17T07:20:01Z</time>
      </trkpt>
      <trkpt lat="49.99834" lon="2.25973">
        <ele>112.7</ele>
        <time>2024-07-17T07:20:02Z</time>
      </trkpt>
      <trkpt lat="49.99835" lon="2.25973">
        <ele>112.8</ele>
        <time>2024-07-17T07:20:03Z</time>
      </trkpt>
      <trkpt lat="49.99837" lon="2.25974">
        <ele>112.8</ele>
        <time>2024-07-17T07:20:04Z</time>
      </trkpt>
      <trkpt lat="49.99838" lon="2.25974">
        <ele>112.9</ele>
        <time>2024-07-17T07:20:05Z</time>
      </trkpt>
      <trkpt lat="49.99839" lon="2.25975">
        <ele>112.9</ele>
        <time>2024-07-17T07:20:06Z</time>
      </trkpt>
      <trkpt lat="49.9984" lon="2.25975">
        <ele>112.9</ele>
        <time>2024-07-17T07:20:07Z</time>
      </trkpt>
      <trkpt lat="49.99841" lon="2.25975">
        <ele>113</ele>
        <time>2024-07-17T07:20:08Z</time>
      </trkpt>
      <trkpt lat="49.99842" lon="2.25976">
        <ele>113</ele>
        <time>2024-07-17T07:20:09Z</time>
      </trkpt>
      <trkpt lat="49.99843" lon="2.25976">
        <ele>113</ele>
        <time>2024-07-17T07:20:10Z</time>
      </trkpt>
      <trkpt lat="49.99844" lon="2.25976">
        <ele>113.1</ele>
        <time>2024-07-17T07:20:11Z</time>
      </trkpt>
      <trkpt lat="49.99845" lon="2.25977">
        <ele>113.1</ele>
        <time>2024-07-17T07:20:12Z</time>
      </trkpt>
      <trkpt lat="49.99846" lon="2.25977">
        <ele>113.1</ele>
        <time>2024-07-17T07:20:13Z</time>
      </trkpt>
      <trkpt lat="49.99847" lon="2.25977">
        <ele>113.1</ele>
        <time>2024-07-17T07:20:14Z</time>
      </trkpt>
      <trkpt lat="49.99848" lon="2.25978">
        <ele>113.2</ele>
        <time>2024-07-17T07:20:15Z</time>
      </trkpt>
      <trkpt lat="49.99849" lon="2.25978">
        <ele>113.2</ele>
        <time>2024-07-17T07:20:16Z</time>
      </trkpt>
      <trkpt lat="49.9985" lon="2.25978">
        <ele>113.2</ele>
        <time>2024-07-17T07:20:17Z</time>
      </trkpt>
      <trkpt lat="49.99851" lon="2.25978">
        <ele>113.3</ele>
        <time>2024-07-17T07:20:18Z</time>
      </trkpt>
      <trkpt lat="49.99851" lon="2.25978">
        <ele>113.3</ele>
        <time>2024-07-17T07:20:19Z</time>
      </trkpt>
      <trkpt lat="49.99852" lon="2.25978">
        <ele>113.3</ele>
        <time>2024-07-17T07:20:20Z</time>
      </trkpt>
      <trkpt lat="49.99854" lon="2.25978">
        <ele>113.4</ele>
        <time>2024-07-17T07:20:21Z</time>
      </trkpt>
      <trkpt lat="49.99856" lon="2.25979">
        <ele>113.4</ele>
        <time>2024-07-17T07:20:23Z</time>
      </trkpt>
      <trkpt lat="49.99857" lon="2.25979">
        <ele>113.5</ele>
        <time>2024-07-17T07:20:24Z</time>
      </trkpt>
      <trkpt lat="49.99858" lon="2.25979">
        <ele>113.5</ele>
        <time>2024-07-17T07:20:25Z</time>
      </trkpt>
      <trkpt lat="49.99859" lon="2.25979">
        <ele>113.5</ele>
        <time>2024-07-17T07:20:26Z</time>
      </trkpt>
      <trkpt lat="49.9986" lon="2.2598">
        <ele>113.6</ele>
        <time>2024-07-17T07:20:27Z</time>
      </trkpt>
      <trkpt lat="49.99861" lon="2.2598">
        <ele>113.6</ele>
        <time>2024-07-17T07:20:28Z</time>
      </trkpt>
      <trkpt lat="49.99862" lon="2.25981">
        <ele>113.6</ele>
        <time>2024-07-17T07:20:29Z</time>
      </trkpt>
      <trkpt lat="49.99863" lon="2.25981">
        <ele>113.7</ele>
        <time>2024-07-17T07:20:30Z</time>
      </trkpt>
      <trkpt lat="49.99864" lon="2.25981">
        <ele>113.7</ele>
        <time>2024-07-17T07:20:31Z</time>
      </trkpt>
      <trkpt lat="49.99865" lon="2.25982">
        <ele>113.8</ele>
        <time>2024-07-17T07:20:32Z</time>
      </trkpt>
      <trkpt lat="49.99866" lon="2.25982">
        <ele>113.8</ele>
        <time>2024-07-17T07:20:33Z</time>
      </trkpt>
      <trkpt lat="49.99867" lon="2.25982">
        <ele>113.8</ele>
        <time>2024-07-17T07:20:34Z</time>
      </trkpt>
      <trkpt lat="49.99868" lon="2.25983">
        <ele>113.9</ele>
        <time>2024-07-17T07:20:35Z</time>
      </trkpt>
      <trkpt lat="49.99869" lon="2.25983">
        <ele>113.9</ele>
        <time>2024-07-17T07:20:36Z</time>
      </trkpt>
      <trkpt lat="49.99872" lon="2.25984">
        <ele>114</ele>
        <time>2024-07-17T07:20:37Z</time>
      </trkpt>
      <trkpt lat="49.99873" lon="2.25984">
        <ele>114</ele>
        <time>2024-07-17T07:20:39Z</time>
      </trkpt>
      <trkpt lat="49.99874" lon="2.25985">
        <ele>114</ele>
        <time>2024-07-17T07:20:40Z</time>
      </trkpt>
      <trkpt lat="49.99875" lon="2.25986">
        <ele>114.1</ele>
        <time>2024-07-17T07:20:41Z</time>
      </trkpt>
      <trkpt lat="49.99876" lon="2.25987">
        <ele>114.1</ele>
        <time>2024-07-17T07:20:42Z</time>
      </trkpt>
      <trkpt lat="49.99876" lon="2.25987">
        <ele>114.1</ele>
        <time>2024-07-17T07:20:43Z</time>
      </trkpt>
      <trkpt lat="49.99877" lon="2.25988">
        <ele>114.1</ele>
        <time>2024-07-17T07:20:44Z</time>
      </trkpt>
      <trkpt lat="49.99878" lon="2.25989">
        <ele>114.2</ele>
        <time>2024-07-17T07:20:45Z</time>
      </trkpt>
      <trkpt lat="49.99879" lon="2.2599">
        <ele>114.2</ele>
        <time>2024-07-17T07:20:46Z</time>
      </trkpt>
      <trkpt lat="49.99879" lon="2.25991">
        <ele>114.2</ele>
        <time>2024-07-17T07:20:47Z</time>
      </trkpt>
      <trkpt lat="49.99879" lon="2.25993">
        <ele>114.3</ele>
        <time>2024-07-17T07:20:48Z</time>
      </trkpt>
      <trkpt lat="49.99879" lon="2.25994">
        <ele>114.3</ele>
        <time>2024-07-17T07:20:49Z</time>
      </trkpt>
      <trkpt lat="49.99879" lon="2.25996">
        <ele>114.4</ele>
        <time>2024-07-17T07:20:50Z</time>
      </trkpt>
      <trkpt lat="49.99879" lon="2.25997">
        <ele>114.4</ele>
        <time>2024-07-17T07:20:51Z</time>
      </trkpt>
      <trkpt lat="49.99878" lon="2.25998">
        <ele>114.5</ele>
        <time>2024-07-17T07:20:52Z</time>
      </trkpt>
      <trkpt lat="49.99878" lon="2.25999">
        <ele>114.5</ele>
        <time>2024-07-17T07:20:53Z</time>
      </trkpt>
      <trkpt lat="49.99877" lon="2.26001">
        <ele>114.6</ele>
        <time>2024-07-17T07:20:54Z</time>
      </trkpt>
      <trkpt lat="49.99877" lon="2.26002">
        <ele>114.6</ele>
        <time>2024-07-17T07:20:55Z</time>
      </trkpt>
      <trkpt lat="49.99877" lon="2.26002">
        <ele>114.6</ele>
        <time>2024-07-17T07:20:56Z</time>
      </trkpt>
      <trkpt lat="49.99876" lon="2.26003">
        <ele>114.7</ele>
        <time>2024-07-17T07:20:57Z</time>
      </trkpt>
      <trkpt lat="49.99876" lon="2.26004">
        <ele>114.7</ele>
        <time>2024-07-17T07:20:58Z</time>
      </trkpt>
      <trkpt lat="49.99876" lon="2.26004">
        <ele>114.7</ele>
        <time>2024-07-17T07:20:59Z</time>
      </trkpt>
      <trkpt lat="49.99876" lon="2.26004">
        <ele>114.7</ele>
        <time>2024-07-17T07:21:00Z</time>
      </trkpt>
      <trkpt lat="49.99876" lon="2.26003">
        <ele>114.7</ele>
        <time>2024-07-17T07:21:01Z</time>
      </trkpt>
      <trkpt lat="49.99876" lon="2.26003">
        <ele>114.7</ele>
        <time>2024-07-17T07:21:02Z</time>
      </trkpt>
      <trkpt lat="49.99876" lon="2.26003">
        <ele>114.7</ele>
        <time>2024-07-17T07:21:03Z</time>
      </trkpt>
      <trkpt lat="49.99876" lon="2.26003">
        <ele>114.7</ele>
        <time>2024-07-17T07:21:04Z</time>
      </trkpt>
      <trkpt lat="49.99876" lon="2.26003">
        <ele>114.7</ele>
        <time>2024-07-17T07:21:05Z</time>
      </trkpt>
      <trkpt lat="49.99876" lon="2.26002">
        <ele>114.7</ele>
        <time>2024-07-17T07:21:06Z</time>
      </trkpt>
      <trkpt lat="49.99876" lon="2.26002">
        <ele>114.7</ele>
        <time>2024-07-17T07:21:07Z</time>
      </trkpt>
      <trkpt lat="49.99876" lon="2.26002">
        <ele>114.8</ele>
        <time>2024-07-17T07:21:08Z</time>
      </trkpt>
      <trkpt lat="49.99876" lon="2.26002">
        <ele>114.8</ele>
        <time>2024-07-17T07:21:09Z</time>
      </trkpt>
      <trkpt lat="49.99876" lon="2.26002">
        <ele>114.8</ele>
        <time>2024-07-17T07:21:10Z</time>
      </trkpt>
      <trkpt lat="49.99876" lon="2.26002">
        <ele>114.8</ele>
        <time>2024-07-17T07:21:11Z</time>
      </trkpt>
      <trkpt lat="49.99876" lon="2.26001">
        <ele>114.8</ele>
        <time>2024-07-17T07:21:12Z</time>
      </trkpt>
      <trkpt lat="49.99876" lon="2.26001">
        <ele>114.8</ele>
        <time>2024-07-17T07:21:13Z</time>
      </trkpt>
      <trkpt lat="49.99876" lon="2.26001">
        <ele>114.8</ele>
        <time>2024-07-17T07:21:14Z</time>
      </trkpt>
      <trkpt lat="49.99876" lon="2.26001">
        <ele>114.8</ele>
        <time>2024-07-17T07:21:15Z</time>
      </trkpt>
      <trkpt lat="49.99876" lon="2.26001">
        <ele>114.8</ele>
        <time>2024-07-17T07:21:16Z</time>
      </trkpt>
      <trkpt lat="49.99876" lon="2.26">
        <ele>114.8</ele>
        <time>2024-07-17T07:21:17Z</time>
      </trkpt>
      <trkpt lat="49.99877" lon="2.26">
        <ele>114.8</ele>
        <time>2024-07-17T07:21:18Z</time>
      </trkpt>
      <trkpt lat="49.99877" lon="2.26">
        <ele>114.8</ele>
        <time>2024-07-17T07:21:19Z</time>
      </trkpt>
      <trkpt lat="49.99877" lon="2.26">
        <ele>114.8</ele>
        <time>2024-07-17T07:21:20Z</time>
      </trkpt>
      <trkpt lat="49.99877" lon="2.26">
        <ele>114.8</ele>
        <time>2024-07-17T07:21:21Z</time>
      </trkpt>
      <trkpt lat="49.99877" lon="2.26">
        <ele>114.8</ele>
        <time>2024-07-17T07:21:22Z</time>
      </trkpt>
      <trkpt lat="49.99877" lon="2.25999">
        <ele>114.9</ele>
        <time>2024-07-17T07:21:23Z</time>
      </trkpt>
      <trkpt lat="49.99877" lon="2.25999">
        <ele>114.9</ele>
        <time>2024-07-17T07:21:24Z</time>
      </trkpt>
      <trkpt lat="49.99877" lon="2.25999">
        <ele>114.9</ele>
        <time>2024-07-17T07:21:25Z</time>
      </trkpt>
      <trkpt lat="49.99877" lon="2.25999">
        <ele>114.9</ele>
        <time>2024-07-17T07:21:26Z</time>
      </trkpt>
      <trkpt lat="49.99877" lon="2.25999">
        <ele>114.9</ele>
        <time>2024-07-17T07:21:27Z</time>
      </trkpt>
      <trkpt lat="49.99877" lon="2.25998">
        <ele>114.9</ele>
        <time>2024-07-17T07:21:28Z</time>
      </trkpt>
      <trkpt lat="49.99877" lon="2.25998">
        <ele>114.9</ele>
        <time>2024-07-17T07:21:29Z</time>
      </trkpt>
      <trkpt lat="49.99877" lon="2.25998">
        <ele>114.9</ele>
        <time>2024-07-17T07:21:30Z</time>
      </trkpt>
      <trkpt lat="49.99877" lon="2.25998">
        <ele>114.9</ele>
        <time>2024-07-17T07:21:31Z</time>
      </trkpt>
      <trkpt lat="49.99877" lon="2.25998">
        <ele>114.9</ele>
        <time>2024-07-17T07:21:32Z</time>
      </trkpt>
      <trkpt lat="49.99877" lon="2.25997">
        <ele>114.9</ele>
        <time>2024-07-17T07:21:33Z</time>
      </trkpt>
      <trkpt lat="49.99877" lon="2.25997">
        <ele>114.9</ele>
        <time>2024-07-17T07:21:34Z</time>
      </trkpt>
      <trkpt lat="49.99877" lon="2.25997">
        <ele>114.9</ele>
        <time>2024-07-17T07:21:35Z</time>
      </trkpt>
      <trkpt lat="49.99876" lon="2.25998">
        <ele>114.9</ele>
        <time>2024-07-17T07:21:36Z</time>
      </trkpt>
      <trkpt lat="49.99876" lon="2.25998">
        <ele>115</ele>
        <time>2024-07-17T07:21:37Z</time>
      </trkpt>
      <trkpt lat="49.99876" lon="2.25998">
        <ele>115</ele>
        <time>2024-07-17T07:21:38Z</time>
      </trkpt>
      <trkpt lat="49.99876" lon="2.25998">
        <ele>115</ele>
        <time>2024-07-17T07:21:39Z</time>
      </trkpt>
      <trkpt lat="49.99876" lon="2.25998">
        <ele>115</ele>
        <time>2024-07-17T07:21:40Z</time>
      </trkpt>
      <trkpt lat="49.99876" lon="2.25998">
        <ele>115</ele>
        <time>2024-07-17T07:21:41Z</time>
      </trkpt>
      <trkpt lat="49.99876" lon="2.25998">
        <ele>115</ele>
        <time>2024-07-17T07:21:42Z</time>
      </trkpt>
      <trkpt lat="49.99876" lon="2.25998">
        <ele>115</ele>
        <time>2024-07-17T07:21:43Z</time>
      </trkpt>
      <trkpt lat="49.99876" lon="2.25998">
        <ele>115</ele>
        <time>2024-07-17T07:21:44Z</time>
      </trkpt>
      <trkpt lat="49.99876" lon="2.25998">
        <ele>115</ele>
        <time>2024-07-17T07:21:45Z</time>
      </trkpt>
      <trkpt lat="49.99876" lon="2.25998">
        <ele>115</ele>
        <time>2024-07-17T07:21:46Z</time>
      </trkpt>
      <trkpt lat="49.99876" lon="2.25998">
        <ele>115</ele>
        <time>2024-07-17T07:21:47Z</time>
      </trkpt>
      <trkpt lat="49.99876" lon="2.25998">
        <ele>115</ele>
        <time>2024-07-17T07:21:48Z</time>
      </trkpt>
      <trkpt lat="49.99876" lon="2.25998">
        <ele>115</ele>
        <time>2024-07-17T07:21:49Z</time>
      </trkpt>
      <trkpt lat="49.99877" lon="2.25997">
        <ele>115</ele>
        <time>2024-07-17T07:21:50Z</time>
      </trkpt>
      <trkpt lat="49.99877" lon="2.25997">
        <ele>115</ele>
        <time>2024-07-17T07:21:51Z</time>
      </trkpt>
      <trkpt lat="49.99877" lon="2.25997">
        <ele>115</ele>
        <time>2024-07-17T07:21:52Z</time>
      </trkpt>
      <trkpt lat="49.99877" lon="2.25997">
        <ele>115</ele>
        <time>2024-07-17T07:21:53Z</time>
      </trkpt>
      <trkpt lat="49.99877" lon="2.25997">
        <ele>115</ele>
        <time>2024-07-17T07:21:54Z</time>
      </trkpt>
      <trkpt lat="49.99877" lon="2.25997">
        <ele>115</ele>
        <time>2024-07-17T07:21:55Z</time>
      </trkpt>
      <trkpt lat="49.99877" lon="2.25997">
        <ele>115</ele>
        <time>2024-07-17T07:21:56Z</time>
      </trkpt>
      <trkpt lat="49.99877" lon="2.25997">
        <ele>115</ele>
        <time>2024-07-17T07:21:57Z</time>
      </trkpt>
      <trkpt lat="49.99877" lon="2.25997">
        <ele>115</ele>
        <time>2024-07-17T07:21:58Z</time>
      </trkpt>
      <trkpt lat="49.99877" lon="2.25997">
        <ele>115</ele>
        <time>2024-07-17T07:21:59Z</time>
      </trkpt>
      <trkpt lat="49.99877" lon="2.25997">
        <ele>115</ele>
        <time>2024-07-17T07:22:00Z</time>
      </trkpt>
      <trkpt lat="49.99877" lon="2.25997">
        <ele>115</ele>
        <time>2024-07-17T07:22:01Z</time>
      </trkpt>
      <trkpt lat="49.99877" lon="2.25997">
        <ele>115</ele>
        <time>2024-07-17T07:22:02Z</time>
      </trkpt>
      <trkpt lat="49.99877" lon="2.25997">
        <ele>115</ele>
        <time>2024-07-17T07:22:03Z</time>
      </trkpt>
      <trkpt lat="49.99877" lon="2.25997">
        <ele>115</ele>
        <time>2024-07-17T07:22:04Z</time>
      </trkpt>
      <trkpt lat="49.99877" lon="2.25997">
        <ele>115</ele>
        <time>2024-07-17T07:22:05Z</time>
      </trkpt>
      <trkpt lat="49.99877" lon="2.25997">
        <ele>115</ele>
        <time>2024-07-17T07:22:06Z</time>
      </trkpt>
      <trkpt lat="49.99877" lon="2.25997">
        <ele>115</ele>
        <time>2024-07-17T07:22:07Z</time>
      </trkpt>
      <trkpt lat="49.99877" lon="2.25997">
        <ele>115</ele>
        <time>2024-07-17T07:22:08Z</time>
      </trkpt>
      <trkpt lat="49.99877" lon="2.25997">
        <ele>115</ele>
        <time>2024-07-17T07:22:09Z</time>
      </trkpt>
      <trkpt lat="49.99877" lon="2.25997">
        <ele>115</ele>
        <time>2024-07-17T07:22:10Z</time>
      </trkpt>
      <trkpt lat="49.99877" lon="2.25997">
        <ele>115</ele>
        <time>2024-07-17T07:22:11Z</time>
      </trkpt>
      <trkpt lat="49.99877" lon="2.25997">
        <ele>115</ele>
        <time>2024-07-17T07:22:12Z</time>
      </trkpt>
      <trkpt lat="49.99877" lon="2.25997">
        <ele>115</ele>
        <time>2024-07-17T07:22:13Z</time>
      </trkpt>
      <trkpt lat="49.99877" lon="2.25997">
        <ele>115</ele>
        <time>2024-07-17T07:22:14Z</time>
      </trkpt>
      <trkpt lat="49.99877" lon="2.25997">
        <ele>115</ele>
        <time>2024-07-17T07:22:15Z</time>
      </trkpt>
      <trkpt lat="49.99877" lon="2.25997">
        <ele>115</ele>
        <time>2024-07-17T07:22:16Z</time>
      </trkpt>
      <trkpt lat="49.99877" lon="2.25997">
        <ele>115</ele>
        <time>2024-07-17T07:22:17Z</time>
      </trkpt>
      <trkpt lat="49.99877" lon="2.25997">
        <ele>115</ele>
        <time>2024-07-17T07:22:18Z</time>
      </trkpt>
      <trkpt lat="49.99877" lon="2.25997">
        <ele>115</ele>
        <time>2024-07-17T07:22:19Z</time>
      </trkpt>
      <trkpt lat="49.99877" lon="2.25997">
        <ele>115</ele>
        <time>2024-07-17T07:22:20Z</time>
      </trkpt>
      <trkpt lat="49.99877" lon="2.25997">
        <ele>115</ele>
        <time>2024-07-17T07:22:21Z</time>
      </trkpt>
      <trkpt lat="49.99877" lon="2.25997">
        <ele>115</ele>
        <time>2024-07-17T07:22:22Z</time>
      </trkpt>
      <trkpt lat="49.99877" lon="2.25997">
        <ele>115</ele>
        <time>2024-07-17T07:22:23Z</time>
      </trkpt>
      <trkpt lat="49.99877" lon="2.25997">
        <ele>115</ele>
        <time>2024-07-17T07:22:24Z</time>
      </trkpt>
      <trkpt lat="49.99877" lon="2.25997">
        <ele>115</ele>
        <time>2024-07-17T07:22:25Z</time>
      </trkpt>
      <trkpt lat="49.99877" lon="2.25997">
        <ele>115</ele>
        <time>2024-07-17T07:22:26Z</time>
      </trkpt>
      <trkpt lat="49.99877" lon="2.25997">
        <ele>115</ele>
        <time>2024-07-17T07:22:27Z</time>
      </trkpt>
      <trkpt lat="49.99877" lon="2.25997">
        <ele>115</ele>
        <time>2024-07-17T07:22:28Z</time>
      </trkpt>
      <trkpt lat="49.99877" lon="2.25997">
        <ele>115</ele>
        <time>2024-07-17T07:22:29Z</time>
      </trkpt>
      <trkpt lat="49.99877" lon="2.25997">
        <ele>115</ele>
        <time>2024-07-17T07:22:30Z</time>
      </trkpt>
      <trkpt lat="49.99877" lon="2.25997">
        <ele>115</ele>
        <time>2024-07-17T07:22:31Z</time>
      </trkpt>
      <trkpt lat="49.99877" lon="2.25997">
        <ele>115</ele>
        <time>2024-07-17T07:22:32Z</time>
      </trkpt>
      <trkpt lat="49.99877" lon="2.25997">
        <ele>115</ele>
        <time>2024-07-17T07:22:33Z</time>
      </trkpt>
      <trkpt lat="49.99877" lon="2.25997">
        <ele>115</ele>
        <time>2024-07-17T07:22:34Z</time>
      </trkpt>
      <trkpt lat="49.99877" lon="2.25997">
        <ele>115</ele>
        <time>2024-07-17T07:22:35Z</time>
      </trkpt>
      <trkpt lat="49.99877" lon="2.25997">
        <ele>115</ele>
        <time>2024-07-17T07:22:36Z</time>
      </trkpt>
      <trkpt lat="49.99877" lon="2.25997">
        <ele>115</ele>
        <time>2024-07-17T07:22:37Z</time>
      </trkpt>
      <trkpt lat="49.99877" lon="2.25997">
        <ele>115</ele>
        <time>2024-07-17T07:22:38Z</time>
      </trkpt>
      <trkpt lat="49.99877" lon="2.25997">
        <ele>115</ele>
        <time>2024-07-17T07:22:39Z</time>
      </trkpt>
      <trkpt lat="49.99877" lon="2.25997">
        <ele>115</ele>
        <time>2024-07-17T07:22:40Z</time>
      </trkpt>
      <trkpt lat="49.99877" lon="2.25997">
        <ele>115</ele>
        <time>2024-07-17T07:22:41Z</time>
      </trkpt>
      <trkpt lat="49.99877" lon="2.25997">
        <ele>115</ele>
        <time>2024-07-17T07:22:42Z</time>
      </trkpt>
      <trkpt lat="49.99877" lon="2.25997">
        <ele>115</ele>
        <time>2024-07-17T07:22:43Z</time>
      </trkpt>
      <trkpt lat="49.99877" lon="2.25997">
        <ele>115</ele>
        <time>2024-07-17T07:22:44Z</time>
      </trkpt>
      <trkpt lat="49.99877" lon="2.25997">
        <ele>115</ele>
        <time>2024-07-17T07:22:45Z</time>
      </trkpt>
      <trkpt lat="49.99877" lon="2.25997">
        <ele>115</ele>
        <time>2024-07-17T07:22:46Z</time>
      </trkpt>
      <trkpt lat="49.99877" lon="2.25997">
        <ele>115</ele>
        <time>2024-07-17T07:22:47Z</time>
      </trkpt>
      <trkpt lat="49.99877" lon="2.25997">
        <ele>115</ele>
        <time>2024-07-17T07:22:48Z</time>
      </trkpt>
      <trkpt lat="49.99877" lon="2.25997">
        <ele>115</ele>
        <time>2024-07-17T07:22:49Z</time>
      </trkpt>
      <trkpt lat="49.99877" lon="2.25997">
        <ele>115</ele>
        <time>2024-07-17T07:22:50Z</time>
      </trkpt>
      <trkpt lat="49.99877" lon="2.25997">
        <ele>115</ele>
        <time>2024-07-17T07:22:51Z</time>
      </trkpt>
      <trkpt lat="49.99877" lon="2.25997">
        <ele>115</ele>
        <time>2024-07-17T07:22:52Z</time>
      </trkpt>
      <trkpt lat="49.99877" lon="2.25997">
        <ele>115</ele>
        <time>2024-07-17T07:22:53Z</time>
      </trkpt>
      <trkpt lat="49.99877" lon="2.25997">
        <ele>115</ele>
        <time>2024-07-17T07:22:54Z</time>
      </trkpt>
      <trkpt lat="49.99877" lon="2.25997">
        <ele>115</ele>
        <time>2024-07-17T07:22:55Z</time>
      </trkpt>
      <trkpt lat="49.99877" lon="2.25997">
        <ele>115</ele>
        <time>2024-07-17T07:22:56Z</time>
      </trkpt>
      <trkpt lat="49.99877" lon="2.25997">
        <ele>115</ele>
        <time>2024-07-17T07:22:57Z</time>
      </trkpt>
      <trkpt lat="49.99877" lon="2.25997">
        <ele>115</ele>
        <time>2024-07-17T07:22:58Z</time>
      </trkpt>
      <trkpt lat="49.99877" lon="2.25997">
        <ele>115</ele>
        <time>2024-07-17T07:22:59Z</time>
      </trkpt>
      <trkpt lat="49.99877" lon="2.25997">
        <ele>115</ele>
        <time>2024-07-17T07:23:00Z</time>
      </trkpt>
      <trkpt lat="49.99877" lon="2.25997">
        <ele>115</ele>
        <time>2024-07-17T07:23:01Z</time>
      </trkpt>
      <trkpt lat="49.99877" lon="2.25997">
        <ele>115</ele>
        <time>2024-07-17T07:23:02Z</time>
      </trkpt>
      <trkpt lat="49.99877" lon="2.25997">
        <ele>115</ele>
        <time>2024-07-17T07:23:03Z</time>
      </trkpt>
      <trkpt lat="49.99877" lon="2.25997">
        <ele>115</ele>
        <time>2024-07-17T07:23:04Z</time>
      </trkpt>
      <trkpt lat="49.99877" lon="2.25997">
        <ele>115</ele>
        <time>2024-07-17T07:23:05Z</time>
      </trkpt>
      <trkpt lat="49.99877" lon="2.25997">
        <ele>115</ele>
        <time>2024-07-17T07:23:06Z</time>
      </trkpt>
      <trkpt lat="49.99877" lon="2.25997">
        <ele>115</ele>
        <time>2024-07-17T07:23:07Z</time>
      </trkpt>
      <trkpt lat="49.99877" lon="2.25997">
        <ele>115</ele>
        <time>2024-07-17T07:23:08Z</time>
      </trkpt>
      <trkpt lat="49.99877" lon="2.25997">
        <ele>115</ele>
        <time>2024-07-17T07:23:09Z</time>
      </trkpt>
      <trkpt lat="49.99877" lon="2.25997">
        <ele>115</ele>
        <time>2024-07-17T07:23:10Z</time>
      </trkpt>
      <trkpt lat="49.99877" lon="2.25997">
        <ele>115</ele>
        <time>2024-07-17T07:23:11Z</time>
      </trkpt>
      <trkpt lat="49.99877" lon="2.25997">
        <ele>115</ele>
        <time>2024-07-17T07:23:12Z</time>
      </trkpt>
      <trkpt lat="49.99877" lon="2.25997">
        <ele>115</ele>
        <time>2024-07-17T07:23:13Z</time>
      </trkpt>
      <trkpt lat="49.99877" lon="2.25997">
        <ele>115</ele>
        <time>2024-07-17T07:23:14Z</time>
      </trkpt>
      <trkpt lat="49.99877" lon="2.25997">
        <ele>115</ele>
        <time>2024-07-17T07:23:15Z</time>
      </trkpt>
      <trkpt lat="49.99877" lon="2.25997">
        <ele>115</ele>
        <time>2024-07-17T07:23:16Z</time>
      </trkpt>
      <trkpt lat="49.99877" lon="2.25997">
        <ele>115</ele>
        <time>2024-07-17T07:23:17Z</time>
      </trkpt>
      <trkpt lat="49.99877" lon="2.25995">
        <ele>115.1</ele>
        <time>2024-07-17T07:23:18Z</time>
      </trkpt>
      <trkpt lat="49.99877" lon="2.25995">
        <ele>115.1</ele>
        <time>2024-07-17T07:23:19Z</time>
      </trkpt>
      <trkpt lat="49.99877" lon="2.25995">
        <ele>115.1</ele>
        <time>2024-07-17T07:23:20Z</time>
      </trkpt>
      <trkpt lat="49.99876" lon="2.25995">
        <ele>115.2</ele>
        <time>2024-07-17T07:23:21Z</time>
      </trkpt>
      <trkpt lat="49.99876" lon="2.25995">
        <ele>115.2</ele>
        <time>2024-07-17T07:23:22Z</time>
      </trkpt>
      <trkpt lat="49.99876" lon="2.25995">
        <ele>115.2</ele>
        <time>2024-07-17T07:23:23Z</time>
      </trkpt>
      <trkpt lat="49.99876" lon="2.25995">
        <ele>115.2</ele>
        <time>2024-07-17T07:23:24Z</time>
      </trkpt>
      <trkpt lat="49.99876" lon="2.25996">
        <ele>115.2</ele>
        <time>2024-07-17T07:23:25Z</time>
      </trkpt>
      <trkpt lat="49.99875" lon="2.25996">
        <ele>115.2</ele>
        <time>2024-07-17T07:23:26Z</time>
      </trkpt>
      <trkpt lat="49.99875" lon="2.25997">
        <ele>115.3</ele>
        <time>2024-07-17T07:23:27Z</time>
      </trkpt>
      <trkpt lat="49.99874" lon="2.25998">
        <ele>115.3</ele>
        <time>2024-07-17T07:23:28Z</time>
      </trkpt>
      <trkpt lat="49.99873" lon="2.25999">
        <ele>115.4</ele>
        <time>2024-07-17T07:23:29Z</time>
      </trkpt>
      <trkpt lat="49.99872" lon="2.26001">
        <ele>115.5</ele>
        <time>2024-07-17T07:23:30Z</time>
      </trkpt>
      <trkpt lat="49.99871" lon="2.26002">
        <ele>115.5</ele>
        <time>2024-07-17T07:23:31Z</time>
      </trkpt>
      <trkpt lat="49.9987" lon="2.26003">
        <ele>115.6</ele>
        <time>2024-07-17T07:23:32Z</time>
      </trkpt>
      <trkpt lat="49.99869" lon="2.26004">
        <ele>115.6</ele>
        <time>2024-07-17T07:23:33Z</time>
      </trkpt>
      <trkpt lat="49.99868" lon="2.26007">
        <ele>115.7</ele>
        <time>2024-07-17T07:23:34Z</time>
      </trkpt>
      <trkpt lat="49.99868" lon="2.26008">
        <ele>115.8</ele>
        <time>2024-07-17T07:23:35Z</time>
      </trkpt>
      <trkpt lat="49.99867" lon="2.26009">
        <ele>115.8</ele>
        <time>2024-07-17T07:23:36Z</time>
      </trkpt>
      <trkpt lat="49.99866" lon="2.26012">
        <ele>115.9</ele>
        <time>2024-07-17T07:23:37Z</time>
      </trkpt>
      <trkpt lat="49.99865" lon="2.26013">
        <ele>116</ele>
        <time>2024-07-17T07:23:38Z</time>
      </trkpt>
      <trkpt lat="49.99865" lon="2.26014">
        <ele>116</ele>
        <time>2024-07-17T07:23:39Z</time>
      </trkpt>
      <trkpt lat="49.99864" lon="2.26016">
        <ele>116.1</ele>
        <time>2024-07-17T07:23:40Z</time>
      </trkpt>
      <trkpt lat="49.99863" lon="2.26018">
        <ele>116.1</ele>
        <time>2024-07-17T07:23:41Z</time>
      </trkpt>
      <trkpt lat="49.99863" lon="2.26019">
        <ele>116.2</ele>
        <time>2024-07-17T07:23:42Z</time>
      </trkpt>
      <trkpt lat="49.99863" lon="2.26021">
        <ele>116.2</ele>
        <time>2024-07-17T07:23:43Z</time>
      </trkpt>
      <trkpt lat="49.99862" lon="2.26023">
        <ele>116.3</ele>
        <time>2024-07-17T07:23:44Z</time>
      </trkpt>
      <trkpt lat="49.99861" lon="2.26024">
        <ele>116.3</ele>
        <time>2024-07-17T07:23:45Z</time>
      </trkpt>
      <trkpt lat="49.99861" lon="2.26026">
        <ele>116.4</ele>
        <time>2024-07-17T07:23:46Z</time>
      </trkpt>
      <trkpt lat="49.99861" lon="2.26028">
        <ele>116.4</ele>
        <time>2024-07-17T07:23:47Z</time>
      </trkpt>
      <trkpt lat="49.9986" lon="2.26029">
        <ele>116.5</ele>
        <time>2024-07-17T07:23:48Z</time>
      </trkpt>
      <trkpt lat="49.9986" lon="2.26031">
        <ele>116.5</ele>
        <time>2024-07-17T07:23:49Z</time>
      </trkpt>
      <trkpt lat="49.99859" lon="2.26032">
        <ele>116.6</ele>
        <time>2024-07-17T07:23:50Z</time>
      </trkpt>
      <trkpt lat="49.99859" lon="2.26034">
        <ele>116.6</ele>
        <time>2024-07-17T07:23:51Z</time>
      </trkpt>
      <trkpt lat="49.99858" lon="2.26035">
        <ele>116.7</ele>
        <time>2024-07-17T07:23:52Z</time>
      </trkpt>
      <trkpt lat="49.99858" lon="2.26037">
        <ele>116.7</ele>
        <time>2024-07-17T07:23:53Z</time>
      </trkpt>
      <trkpt lat="49.99858" lon="2.26038">
        <ele>116.8</ele>
        <time>2024-07-17T07:23:54Z</time>
      </trkpt>
      <trkpt lat="49.99857" lon="2.2604">
        <ele>116.8</ele>
        <time>2024-07-17T07:23:55Z</time>
      </trkpt>
      <trkpt lat="49.99857" lon="2.26041">
        <ele>116.9</ele>
        <time>2024-07-17T07:23:56Z</time>
      </trkpt>
      <trkpt lat="49.99856" lon="2.26042">
        <ele>116.9</ele>
        <time>2024-07-17T07:23:57Z</time>
      </trkpt>
      <trkpt lat="49.99856" lon="2.26044">
        <ele>117</ele>
        <time>2024-07-17T07:23:58Z</time>
      </trkpt>
      <trkpt lat="49.99855" lon="2.26045">
        <ele>117</ele>
        <time>2024-07-17T07:23:59Z</time>
      </trkpt>
      <trkpt lat="49.99855" lon="2.26046">
        <ele>117</ele>
        <time>2024-07-17T07:24:00Z</time>
      </trkpt>
      <trkpt lat="49.99854" lon="2.26048">
        <ele>117.1</ele>
        <time>2024-07-17T07:24:01Z</time>
      </trkpt>
      <trkpt lat="49.99854" lon="2.26049">
        <ele>117.1</ele>
        <time>2024-07-17T07:24:02Z</time>
      </trkpt>
      <trkpt lat="49.99853" lon="2.26051">
        <ele>117.2</ele>
        <time>2024-07-17T07:24:03Z</time>
      </trkpt>
      <trkpt lat="49.99853" lon="2.26052">
        <ele>117.2</ele>
        <time>2024-07-17T07:24:04Z</time>
      </trkpt>
      <trkpt lat="49.99852" lon="2.26054">
        <ele>117.3</ele>
        <time>2024-07-17T07:24:05Z</time>
      </trkpt>
      <trkpt lat="49.99851" lon="2.26055">
        <ele>117.3</ele>
        <time>2024-07-17T07:24:06Z</time>
      </trkpt>
      <trkpt lat="49.99851" lon="2.26056">
        <ele>117.4</ele>
        <time>2024-07-17T07:24:07Z</time>
      </trkpt>
      <trkpt lat="49.9985" lon="2.26057">
        <ele>117.4</ele>
        <time>2024-07-17T07:24:08Z</time>
      </trkpt>
      <trkpt lat="49.99849" lon="2.26059">
        <ele>117.5</ele>
        <time>2024-07-17T07:24:09Z</time>
      </trkpt>
      <trkpt lat="49.99849" lon="2.2606">
        <ele>117.5</ele>
        <time>2024-07-17T07:24:10Z</time>
      </trkpt>
      <trkpt lat="49.99848" lon="2.26061">
        <ele>117.5</ele>
        <time>2024-07-17T07:24:11Z</time>
      </trkpt>
      <trkpt lat="49.99847" lon="2.26063">
        <ele>117.6</ele>
        <time>2024-07-17T07:24:12Z</time>
      </trkpt>
      <trkpt lat="49.99846" lon="2.26064">
        <ele>117.7</ele>
        <time>2024-07-17T07:24:13Z</time>
      </trkpt>
      <trkpt lat="49.99846" lon="2.26065">
        <ele>117.7</ele>
        <time>2024-07-17T07:24:14Z</time>
      </trkpt>
      <trkpt lat="49.99845" lon="2.26067">
        <ele>117.8</ele>
        <time>2024-07-17T07:24:15Z</time>
      </trkpt>
      <trkpt lat="49.99844" lon="2.26069">
        <ele>117.8</ele>
        <time>2024-07-17T07:24:16Z</time>
      </trkpt>
      <trkpt lat="49.99844" lon="2.2607">
        <ele>117.8</ele>
        <time>2024-07-17T07:24:17Z</time>
      </trkpt>
      <trkpt lat="49.99843" lon="2.26071">
        <ele>117.9</ele>
        <time>2024-07-17T07:24:18Z</time>
      </trkpt>
      <trkpt lat="49.99842" lon="2.26072">
        <ele>117.9</ele>
        <time>2024-07-17T07:24:19Z</time>
      </trkpt>
      <trkpt lat="49.99842" lon="2.26074">
        <ele>118</ele>
        <time>2024-07-17T07:24:20Z</time>
      </trkpt>
      <trkpt lat="49.99841" lon="2.26075">
        <ele>118</ele>
        <time>2024-07-17T07:24:21Z</time>
      </trkpt>
      <trkpt lat="49.99841" lon="2.26076">
        <ele>118.1</ele>
        <time>2024-07-17T07:24:22Z</time>
      </trkpt>
      <trkpt lat="49.9984" lon="2.26077">
        <ele>118.1</ele>
        <time>2024-07-17T07:24:23Z</time>
      </trkpt>
      <trkpt lat="49.99838" lon="2.2608">
        <ele>118.2</ele>
        <time>2024-07-17T07:24:24Z</time>
      </trkpt>
      <trkpt lat="49.99838" lon="2.26081">
        <ele>118.2</ele>
        <time>2024-07-17T07:24:25Z</time>
      </trkpt>
      <trkpt lat="49.99837" lon="2.26082">
        <ele>118.3</ele>
        <time>2024-07-17T07:24:26Z</time>
      </trkpt>
      <trkpt lat="49.99836" lon="2.26083">
        <ele>118.3</ele>
        <time>2024-07-17T07:24:27Z</time>
      </trkpt>
      <trkpt lat="49.99835" lon="2.26084">
        <ele>118.3</ele>
        <time>2024-07-17T07:24:28Z</time>
      </trkpt>
      <trkpt lat="49.99835" lon="2.26084">
        <ele>118.4</ele>
        <time>2024-07-17T07:24:29Z</time>
      </trkpt>
      <trkpt lat="49.99834" lon="2.26085">
        <ele>118.4</ele>
        <time>2024-07-17T07:24:30Z</time>
      </trkpt>
      <trkpt lat="49.99833" lon="2.26086">
        <ele>118.4</ele>
        <time>2024-07-17T07:24:31Z</time>
      </trkpt>
      <trkpt lat="49.99833" lon="2.26087">
        <ele>118.5</ele>
        <time>2024-07-17T07:24:32Z</time>
      </trkpt>
      <trkpt lat="49.99832" lon="2.26088">
        <ele>118.5</ele>
        <time>2024-07-17T07:24:33Z</time>
      </trkpt>
      <trkpt lat="49.99831" lon="2.2609">
        <ele>118.5</ele>
        <time>2024-07-17T07:24:34Z</time>
      </trkpt>
      <trkpt lat="49.99831" lon="2.26091">
        <ele>118.6</ele>
        <time>2024-07-17T07:24:35Z</time>
      </trkpt>
      <trkpt lat="49.9983" lon="2.26092">
        <ele>118.6</ele>
        <time>2024-07-17T07:24:36Z</time>
      </trkpt>
      <trkpt lat="49.99829" lon="2.26094">
        <ele>118.7</ele>
        <time>2024-07-17T07:24:37Z</time>
      </trkpt>
      <trkpt lat="49.99829" lon="2.26095">
        <ele>118.7</ele>
        <time>2024-07-17T07:24:38Z</time>
      </trkpt>
      <trkpt lat="49.99828" lon="2.26096">
        <ele>118.7</ele>
        <time>2024-07-17T07:24:39Z</time>
      </trkpt>
      <trkpt lat="49.99827" lon="2.26097">
        <ele>118.8</ele>
        <time>2024-07-17T07:24:40Z</time>
      </trkpt>
      <trkpt lat="49.99826" lon="2.26098">
        <ele>118.8</ele>
        <time>2024-07-17T07:24:41Z</time>
      </trkpt>
      <trkpt lat="49.99825" lon="2.261">
        <ele>118.8</ele>
        <time>2024-07-17T07:24:42Z</time>
      </trkpt>
      <trkpt lat="49.99825" lon="2.26101">
        <ele>118.9</ele>
        <time>2024-07-17T07:24:43Z</time>
      </trkpt>
      <trkpt lat="49.99824" lon="2.26102">
        <ele>118.9</ele>
        <time>2024-07-17T07:24:44Z</time>
      </trkpt>
      <trkpt lat="49.99823" lon="2.26103">
        <ele>118.9</ele>
        <time>2024-07-17T07:24:45Z</time>
      </trkpt>
      <trkpt lat="49.99821" lon="2.26106">
        <ele>119</ele>
        <time>2024-07-17T07:24:46Z</time>
      </trkpt>
      <trkpt lat="49.99821" lon="2.26107">
        <ele>119</ele>
        <time>2024-07-17T07:24:47Z</time>
      </trkpt>
      <trkpt lat="49.9982" lon="2.26107">
        <ele>119.1</ele>
        <time>2024-07-17T07:24:48Z</time>
      </trkpt>
      <trkpt lat="49.99818" lon="2.2611">
        <ele>119.1</ele>
        <time>2024-07-17T07:24:49Z</time>
      </trkpt>
      <trkpt lat="49.99818" lon="2.2611">
        <ele>119.1</ele>
        <time>2024-07-17T07:24:50Z</time>
      </trkpt>
      <trkpt lat="49.99817" lon="2.26111">
        <ele>119.2</ele>
        <time>2024-07-17T07:24:51Z</time>
      </trkpt>
      <trkpt lat="49.99815" lon="2.26113">
        <ele>119.2</ele>
        <time>2024-07-17T07:24:52Z</time>
      </trkpt>
      <trkpt lat="49.99815" lon="2.26114">
        <ele>119.3</ele>
        <time>2024-07-17T07:24:53Z</time>
      </trkpt>
      <trkpt lat="49.99814" lon="2.26115">
        <ele>119.3</ele>
        <time>2024-07-17T07:24:54Z</time>
      </trkpt>
      <trkpt lat="49.99812" lon="2.26117">
        <ele>119.4</ele>
        <time>2024-07-17T07:24:55Z</time>
      </trkpt>
      <trkpt lat="49.99812" lon="2.26118">
        <ele>119.4</ele>
        <time>2024-07-17T07:24:56Z</time>
      </trkpt>
      <trkpt lat="49.99811" lon="2.26119">
        <ele>119.4</ele>
        <time>2024-07-17T07:24:57Z</time>
      </trkpt>
      <trkpt lat="49.9981" lon="2.26121">
        <ele>119.5</ele>
        <time>2024-07-17T07:24:58Z</time>
      </trkpt>
      <trkpt lat="49.99809" lon="2.26122">
        <ele>119.5</ele>
        <time>2024-07-17T07:24:59Z</time>
      </trkpt>
      <trkpt lat="49.99807" lon="2.26126">
        <ele>119.6</ele>
        <time>2024-07-17T07:25:00Z</time>
      </trkpt>
      <trkpt lat="49.99806" lon="2.26127">
        <ele>119.7</ele>
        <time>2024-07-17T07:25:01Z</time>
      </trkpt>
      <trkpt lat="49.99805" lon="2.26129">
        <ele>119.8</ele>
        <time>2024-07-17T07:25:02Z</time>
      </trkpt>
      <trkpt lat="49.99804" lon="2.2613">
        <ele>119.8</ele>
        <time>2024-07-17T07:25:03Z</time>
      </trkpt>
      <trkpt lat="49.99804" lon="2.26132">
        <ele>119.8</ele>
        <time>2024-07-17T07:25:04Z</time>
      </trkpt>
      <trkpt lat="49.99803" lon="2.26134">
        <ele>119.9</ele>
        <time>2024-07-17T07:25:05Z</time>
      </trkpt>
      <trkpt lat="49.99802" lon="2.26135">
        <ele>119.9</ele>
        <time>2024-07-17T07:25:06Z</time>
      </trkpt>
      <trkpt lat="49.99801" lon="2.26137">
        <ele>120</ele>
        <time>2024-07-17T07:25:07Z</time>
      </trkpt>
      <trkpt lat="49.99801" lon="2.26138">
        <ele>120</ele>
        <time>2024-07-17T07:25:08Z</time>
      </trkpt>
      <trkpt lat="49.998" lon="2.26139">
        <ele>120.1</ele>
        <time>2024-07-17T07:25:09Z</time>
      </trkpt>
      <trkpt lat="49.998" lon="2.2614">
        <ele>120.1</ele>
        <time>2024-07-17T07:25:10Z</time>
      </trkpt>
      <trkpt lat="49.99799" lon="2.26141">
        <ele>120.1</ele>
        <time>2024-07-17T07:25:11Z</time>
      </trkpt>
      <trkpt lat="49.99798" lon="2.26143">
        <ele>120.2</ele>
        <time>2024-07-17T07:25:12Z</time>
      </trkpt>
      <trkpt lat="49.99797" lon="2.26145">
        <ele>120.3</ele>
        <time>2024-07-17T07:25:13Z</time>
      </trkpt>
      <trkpt lat="49.99796" lon="2.26146">
        <ele>120.3</ele>
        <time>2024-07-17T07:25:14Z</time>
      </trkpt>
      <trkpt lat="49.99796" lon="2.26147">
        <ele>120.4</ele>
        <time>2024-07-17T07:25:15Z</time>
      </trkpt>
      <trkpt lat="49.99795" lon="2.26148">
        <ele>120.4</ele>
        <time>2024-07-17T07:25:16Z</time>
      </trkpt>
      <trkpt lat="49.99794" lon="2.26149">
        <ele>120.4</ele>
        <time>2024-07-17T07:25:17Z</time>
      </trkpt>
      <trkpt lat="49.99794" lon="2.2615">
        <ele>120.5</ele>
        <time>2024-07-17T07:25:18Z</time>
      </trkpt>
      <trkpt lat="49.99793" lon="2.26151">
        <ele>120.5</ele>
        <time>2024-07-17T07:25:19Z</time>
      </trkpt>
      <trkpt lat="49.99791" lon="2.26151">
        <ele>120.6</ele>
        <time>2024-07-17T07:25:20Z</time>
      </trkpt>
      <trkpt lat="49.9979" lon="2.26153">
        <ele>120.7</ele>
        <time>2024-07-17T07:25:21Z</time>
      </trkpt>
      <trkpt lat="49.99789" lon="2.26155">
        <ele>120.8</ele>
        <time>2024-07-17T07:25:22Z</time>
      </trkpt>
      <trkpt lat="49.99788" lon="2.26156">
        <ele>120.8</ele>
        <time>2024-07-17T07:25:23Z</time>
      </trkpt>
      <trkpt lat="49.99788" lon="2.26157">
        <ele>120.9</ele>
        <time>2024-07-17T07:25:24Z</time>
      </trkpt>
      <trkpt lat="49.99787" lon="2.26159">
        <ele>120.9</ele>
        <time>2024-07-17T07:25:25Z</time>
      </trkpt>
      <trkpt lat="49.99787" lon="2.2616">
        <ele>121</ele>
        <time>2024-07-17T07:25:26Z</time>
      </trkpt>
      <trkpt lat="49.99786" lon="2.26162">
        <ele>121</ele>
        <time>2024-07-17T07:25:27Z</time>
      </trkpt>
      <trkpt lat="49.99785" lon="2.26163">
        <ele>121.1</ele>
        <time>2024-07-17T07:25:28Z</time>
      </trkpt>
      <trkpt lat="49.99785" lon="2.26164">
        <ele>121.1</ele>
        <time>2024-07-17T07:25:29Z</time>
      </trkpt>
      <trkpt lat="49.99784" lon="2.26165">
        <ele>121.2</ele>
        <time>2024-07-17T07:25:30Z</time>
      </trkpt>
      <trkpt lat="49.99783" lon="2.26168">
        <ele>121.3</ele>
        <time>2024-07-17T07:25:31Z</time>
      </trkpt>
      <trkpt lat="49.99783" lon="2.26168">
        <ele>121.3</ele>
        <time>2024-07-17T07:25:33Z</time>
      </trkpt>
      <trkpt lat="49.99783" lon="2.26169">
        <ele>121.4</ele>
        <time>2024-07-17T07:25:34Z</time>
      </trkpt>
      <trkpt lat="49.99783" lon="2.2617">
        <ele>121.4</ele>
        <time>2024-07-17T07:25:35Z</time>
      </trkpt>
      <trkpt lat="49.99782" lon="2.26171">
        <ele>121.4</ele>
        <time>2024-07-17T07:25:36Z</time>
      </trkpt>
      <trkpt lat="49.99781" lon="2.26172">
        <ele>121.5</ele>
        <time>2024-07-17T07:25:37Z</time>
      </trkpt>
      <trkpt lat="49.99781" lon="2.26173">
        <ele>121.6</ele>
        <time>2024-07-17T07:25:38Z</time>
      </trkpt>
      <trkpt lat="49.9978" lon="2.26174">
        <ele>121.6</ele>
        <time>2024-07-17T07:25:39Z</time>
      </trkpt>
      <trkpt lat="49.99779" lon="2.26177">
        <ele>121.7</ele>
        <time>2024-07-17T07:25:40Z</time>
      </trkpt>
      <trkpt lat="49.99778" lon="2.26178">
        <ele>121.8</ele>
        <time>2024-07-17T07:25:41Z</time>
      </trkpt>
      <trkpt lat="49.99778" lon="2.26178">
        <ele>121.8</ele>
        <time>2024-07-17T07:25:42Z</time>
      </trkpt>
      <trkpt lat="49.99777" lon="2.2618">
        <ele>121.9</ele>
        <time>2024-07-17T07:25:43Z</time>
      </trkpt>
      <trkpt lat="49.99776" lon="2.26181">
        <ele>121.9</ele>
        <time>2024-07-17T07:25:44Z</time>
      </trkpt>
      <trkpt lat="49.99775" lon="2.26182">
        <ele>122</ele>
        <time>2024-07-17T07:25:45Z</time>
      </trkpt>
      <trkpt lat="49.99774" lon="2.26184">
        <ele>122.1</ele>
        <time>2024-07-17T07:25:46Z</time>
      </trkpt>
      <trkpt lat="49.99774" lon="2.26185">
        <ele>122.1</ele>
        <time>2024-07-17T07:25:47Z</time>
      </trkpt>
      <trkpt lat="49.99774" lon="2.26186">
        <ele>122.2</ele>
        <time>2024-07-17T07:25:48Z</time>
      </trkpt>
      <trkpt lat="49.99773" lon="2.26187">
        <ele>122.2</ele>
        <time>2024-07-17T07:25:49Z</time>
      </trkpt>
      <trkpt lat="49.99772" lon="2.26187">
        <ele>122.3</ele>
        <time>2024-07-17T07:25:50Z</time>
      </trkpt>
      <trkpt lat="49.99772" lon="2.26189">
        <ele>122.3</ele>
        <time>2024-07-17T07:25:51Z</time>
      </trkpt>
      <trkpt lat="49.99771" lon="2.2619">
        <ele>122.4</ele>
        <time>2024-07-17T07:25:52Z</time>
      </trkpt>
      <trkpt lat="49.9977" lon="2.26192">
        <ele>122.5</ele>
        <time>2024-07-17T07:25:53Z</time>
      </trkpt>
      <trkpt lat="49.99769" lon="2.26194">
        <ele>122.6</ele>
        <time>2024-07-17T07:25:54Z</time>
      </trkpt>
      <trkpt lat="49.99768" lon="2.26196">
        <ele>122.7</ele>
        <time>2024-07-17T07:25:55Z</time>
      </trkpt>
      <trkpt lat="49.99767" lon="2.26197">
        <ele>122.8</ele>
        <time>2024-07-17T07:25:56Z</time>
      </trkpt>
      <trkpt lat="49.99765" lon="2.262">
        <ele>122.9</ele>
        <time>2024-07-17T07:25:57Z</time>
      </trkpt>
      <trkpt lat="49.99765" lon="2.262">
        <ele>123</ele>
        <time>2024-07-17T07:25:58Z</time>
      </trkpt>
      <trkpt lat="49.99764" lon="2.26201">
        <ele>123</ele>
        <time>2024-07-17T07:25:59Z</time>
      </trkpt>
      <trkpt lat="49.99763" lon="2.26204">
        <ele>123.1</ele>
        <time>2024-07-17T07:26:00Z</time>
      </trkpt>
      <trkpt lat="49.99762" lon="2.26205">
        <ele>123.2</ele>
        <time>2024-07-17T07:26:02Z</time>
      </trkpt>
      <trkpt lat="49.99761" lon="2.26206">
        <ele>123.3</ele>
        <time>2024-07-17T07:26:03Z</time>
      </trkpt>
      <trkpt lat="49.9976" lon="2.26207">
        <ele>123.3</ele>
        <time>2024-07-17T07:26:04Z</time>
      </trkpt>
      <trkpt lat="49.9976" lon="2.26208">
        <ele>123.4</ele>
        <time>2024-07-17T07:26:05Z</time>
      </trkpt>
      <trkpt lat="49.99759" lon="2.26209">
        <ele>123.5</ele>
        <time>2024-07-17T07:26:06Z</time>
      </trkpt>
      <trkpt lat="49.99758" lon="2.26211">
        <ele>123.5</ele>
        <time>2024-07-17T07:26:07Z</time>
      </trkpt>
      <trkpt lat="49.99757" lon="2.26212">
        <ele>123.6</ele>
        <time>2024-07-17T07:26:08Z</time>
      </trkpt>
      <trkpt lat="49.99757" lon="2.26214">
        <ele>123.7</ele>
        <time>2024-07-17T07:26:09Z</time>
      </trkpt>
      <trkpt lat="49.99756" lon="2.26216">
        <ele>123.8</ele>
        <time>2024-07-17T07:26:10Z</time>
      </trkpt>
      <trkpt lat="49.99755" lon="2.26217">
        <ele>123.8</ele>
        <time>2024-07-17T07:26:11Z</time>
      </trkpt>
      <trkpt lat="49.99754" lon="2.26218">
        <ele>123.9</ele>
        <time>2024-07-17T07:26:12Z</time>
      </trkpt>
      <trkpt lat="49.99754" lon="2.26219">
        <ele>123.9</ele>
        <time>2024-07-17T07:26:13Z</time>
      </trkpt>
      <trkpt lat="49.99753" lon="2.2622">
        <ele>124</ele>
        <time>2024-07-17T07:26:14Z</time>
      </trkpt>
      <trkpt lat="49.99752" lon="2.26221">
        <ele>124</ele>
        <time>2024-07-17T07:26:15Z</time>
      </trkpt>
      <trkpt lat="49.99752" lon="2.26221">
        <ele>124</ele>
        <time>2024-07-17T07:26:16Z</time>
      </trkpt>
      <trkpt lat="49.99751" lon="2.26222">
        <ele>124.1</ele>
        <time>2024-07-17T07:26:17Z</time>
      </trkpt>
      <trkpt lat="49.99751" lon="2.26222">
        <ele>124.1</ele>
        <time>2024-07-17T07:26:18Z</time>
      </trkpt>
      <trkpt lat="49.9975" lon="2.26223">
        <ele>124.1</ele>
        <time>2024-07-17T07:26:19Z</time>
      </trkpt>
      <trkpt lat="49.99749" lon="2.26224">
        <ele>124.2</ele>
        <time>2024-07-17T07:26:20Z</time>
      </trkpt>
      <trkpt lat="49.99749" lon="2.26225">
        <ele>124.2</ele>
        <time>2024-07-17T07:26:21Z</time>
      </trkpt>
      <trkpt lat="49.99748" lon="2.26226">
        <ele>124.3</ele>
        <time>2024-07-17T07:26:22Z</time>
      </trkpt>
      <trkpt lat="49.99748" lon="2.26228">
        <ele>124.3</ele>
        <time>2024-07-17T07:26:23Z</time>
      </trkpt>
      <trkpt lat="49.99747" lon="2.26228">
        <ele>124.4</ele>
        <time>2024-07-17T07:26:24Z</time>
      </trkpt>
      <trkpt lat="49.99747" lon="2.2623">
        <ele>124.4</ele>
        <time>2024-07-17T07:26:25Z</time>
      </trkpt>
      <trkpt lat="49.99746" lon="2.2623">
        <ele>124.4</ele>
        <time>2024-07-17T07:26:26Z</time>
      </trkpt>
      <trkpt lat="49.99746" lon="2.26232">
        <ele>124.5</ele>
        <time>2024-07-17T07:26:27Z</time>
      </trkpt>
      <trkpt lat="49.99746" lon="2.26232">
        <ele>124.5</ele>
        <time>2024-07-17T07:26:28Z</time>
      </trkpt>
      <trkpt lat="49.99745" lon="2.26233">
        <ele>124.5</ele>
        <time>2024-07-17T07:26:29Z</time>
      </trkpt>
      <trkpt lat="49.99744" lon="2.26234">
        <ele>124.6</ele>
        <time>2024-07-17T07:26:30Z</time>
      </trkpt>
      <trkpt lat="49.99744" lon="2.26235">
        <ele>124.6</ele>
        <time>2024-07-17T07:26:31Z</time>
      </trkpt>
      <trkpt lat="49.99743" lon="2.26236">
        <ele>124.6</ele>
        <time>2024-07-17T07:26:32Z</time>
      </trkpt>
      <trkpt lat="49.99743" lon="2.26237">
        <ele>124.6</ele>
        <time>2024-07-17T07:26:33Z</time>
      </trkpt>
      <trkpt lat="49.99742" lon="2.2624">
        <ele>124.7</ele>
        <time>2024-07-17T07:26:34Z</time>
      </trkpt>
      <trkpt lat="49.99742" lon="2.26241">
        <ele>124.8</ele>
        <time>2024-07-17T07:26:35Z</time>
      </trkpt>
      <trkpt lat="49.99741" lon="2.26243">
        <ele>124.8</ele>
        <time>2024-07-17T07:26:36Z</time>
      </trkpt>
      <trkpt lat="49.99741" lon="2.26246">
        <ele>124.9</ele>
        <time>2024-07-17T07:26:37Z</time>
      </trkpt>
      <trkpt lat="49.99741" lon="2.26247">
        <ele>124.9</ele>
        <time>2024-07-17T07:26:38Z</time>
      </trkpt>
      <trkpt lat="49.9974" lon="2.26248">
        <ele>124.9</ele>
        <time>2024-07-17T07:26:39Z</time>
      </trkpt>
      <trkpt lat="49.9974" lon="2.2625">
        <ele>125</ele>
        <time>2024-07-17T07:26:40Z</time>
      </trkpt>
      <trkpt lat="49.9974" lon="2.26253">
        <ele>125</ele>
        <time>2024-07-17T07:26:41Z</time>
      </trkpt>
      <trkpt lat="49.99739" lon="2.26255">
        <ele>125.1</ele>
        <time>2024-07-17T07:26:42Z</time>
      </trkpt>
      <trkpt lat="49.99739" lon="2.26257">
        <ele>125.1</ele>
        <time>2024-07-17T07:26:43Z</time>
      </trkpt>
      <trkpt lat="49.99739" lon="2.26258">
        <ele>125.1</ele>
        <time>2024-07-17T07:26:44Z</time>
      </trkpt>
      <trkpt lat="49.99738" lon="2.26259">
        <ele>125.2</ele>
        <time>2024-07-17T07:26:45Z</time>
      </trkpt>
      <trkpt lat="49.99738" lon="2.26261">
        <ele>125.2</ele>
        <time>2024-07-17T07:26:46Z</time>
      </trkpt>
      <trkpt lat="49.99738" lon="2.26262">
        <ele>125.2</ele>
        <time>2024-07-17T07:26:47Z</time>
      </trkpt>
      <trkpt lat="49.99738" lon="2.26264">
        <ele>125.3</ele>
        <time>2024-07-17T07:26:48Z</time>
      </trkpt>
      <trkpt lat="49.99738" lon="2.26265">
        <ele>125.3</ele>
        <time>2024-07-17T07:26:49Z</time>
      </trkpt>
      <trkpt lat="49.99737" lon="2.26267">
        <ele>125.3</ele>
        <time>2024-07-17T07:26:50Z</time>
      </trkpt>
      <trkpt lat="49.99737" lon="2.26268">
        <ele>125.3</ele>
        <time>2024-07-17T07:26:51Z</time>
      </trkpt>
      <trkpt lat="49.99737" lon="2.2627">
        <ele>125.4</ele>
        <time>2024-07-17T07:26:52Z</time>
      </trkpt>
      <trkpt lat="49.99736" lon="2.26271">
        <ele>125.4</ele>
        <time>2024-07-17T07:26:53Z</time>
      </trkpt>
      <trkpt lat="49.99736" lon="2.26273">
        <ele>125.4</ele>
        <time>2024-07-17T07:26:54Z</time>
      </trkpt>
      <trkpt lat="49.99736" lon="2.26274">
        <ele>125.4</ele>
        <time>2024-07-17T07:26:55Z</time>
      </trkpt>
      <trkpt lat="49.99736" lon="2.26276">
        <ele>125.5</ele>
        <time>2024-07-17T07:26:56Z</time>
      </trkpt>
      <trkpt lat="49.99735" lon="2.26279">
        <ele>125.5</ele>
        <time>2024-07-17T07:26:57Z</time>
      </trkpt>
      <trkpt lat="49.99735" lon="2.2628">
        <ele>125.5</ele>
        <time>2024-07-17T07:26:59Z</time>
      </trkpt>
      <trkpt lat="49.99735" lon="2.26282">
        <ele>125.5</ele>
        <time>2024-07-17T07:27:00Z</time>
      </trkpt>
      <trkpt lat="49.99735" lon="2.26283">
        <ele>125.6</ele>
        <time>2024-07-17T07:27:01Z</time>
      </trkpt>
      <trkpt lat="49.99734" lon="2.26284">
        <ele>125.6</ele>
        <time>2024-07-17T07:27:02Z</time>
      </trkpt>
      <trkpt lat="49.99734" lon="2.26286">
        <ele>125.6</ele>
        <time>2024-07-17T07:27:03Z</time>
      </trkpt>
      <trkpt lat="49.99734" lon="2.26287">
        <ele>125.6</ele>
        <time>2024-07-17T07:27:04Z</time>
      </trkpt>
      <trkpt lat="49.99734" lon="2.26289">
        <ele>125.6</ele>
        <time>2024-07-17T07:27:05Z</time>
      </trkpt>
      <trkpt lat="49.99733" lon="2.26291">
        <ele>125.6</ele>
        <time>2024-07-17T07:27:06Z</time>
      </trkpt>
      <trkpt lat="49.99733" lon="2.26294">
        <ele>125.6</ele>
        <time>2024-07-17T07:27:07Z</time>
      </trkpt>
      <trkpt lat="49.99732" lon="2.26296">
        <ele>125.7</ele>
        <time>2024-07-17T07:27:09Z</time>
      </trkpt>
      <trkpt lat="49.99732" lon="2.26298">
        <ele>125.7</ele>
        <time>2024-07-17T07:27:10Z</time>
      </trkpt>
      <trkpt lat="49.99732" lon="2.26299">
        <ele>125.7</ele>
        <time>2024-07-17T07:27:11Z</time>
      </trkpt>
      <trkpt lat="49.99731" lon="2.26301">
        <ele>125.7</ele>
        <time>2024-07-17T07:27:12Z</time>
      </trkpt>
      <trkpt lat="49.9973" lon="2.26304">
        <ele>125.7</ele>
        <time>2024-07-17T07:27:13Z</time>
      </trkpt>
      <trkpt lat="49.9973" lon="2.26305">
        <ele>125.7</ele>
        <time>2024-07-17T07:27:14Z</time>
      </trkpt>
      <trkpt lat="49.9973" lon="2.26306">
        <ele>125.7</ele>
        <time>2024-07-17T07:27:15Z</time>
      </trkpt>
      <trkpt lat="49.99729" lon="2.26309">
        <ele>125.7</ele>
        <time>2024-07-17T07:27:16Z</time>
      </trkpt>
      <trkpt lat="49.99729" lon="2.26311">
        <ele>125.7</ele>
        <time>2024-07-17T07:27:17Z</time>
      </trkpt>
      <trkpt lat="49.99728" lon="2.26314">
        <ele>125.7</ele>
        <time>2024-07-17T07:27:18Z</time>
      </trkpt>
      <trkpt lat="49.99727" lon="2.26316">
        <ele>125.7</ele>
        <time>2024-07-17T07:27:19Z</time>
      </trkpt>
      <trkpt lat="49.99727" lon="2.26317">
        <ele>125.7</ele>
        <time>2024-07-17T07:27:20Z</time>
      </trkpt>
      <trkpt lat="49.99727" lon="2.2632">
        <ele>125.7</ele>
        <time>2024-07-17T07:27:21Z</time>
      </trkpt>
      <trkpt lat="49.99726" lon="2.26322">
        <ele>125.7</ele>
        <time>2024-07-17T07:27:22Z</time>
      </trkpt>
      <trkpt lat="49.99726" lon="2.26324">
        <ele>125.7</ele>
        <time>2024-07-17T07:27:23Z</time>
      </trkpt>
      <trkpt lat="49.99725" lon="2.26326">
        <ele>125.7</ele>
        <time>2024-07-17T07:27:24Z</time>
      </trkpt>
      <trkpt lat="49.99725" lon="2.26329">
        <ele>125.7</ele>
        <time>2024-07-17T07:27:25Z</time>
      </trkpt>
      <trkpt lat="49.99724" lon="2.26331">
        <ele>125.7</ele>
        <time>2024-07-17T07:27:26Z</time>
      </trkpt>
      <trkpt lat="49.99724" lon="2.26332">
        <ele>125.7</ele>
        <time>2024-07-17T07:27:27Z</time>
      </trkpt>
      <trkpt lat="49.99724" lon="2.26333">
        <ele>125.7</ele>
        <time>2024-07-17T07:27:28Z</time>
      </trkpt>
      <trkpt lat="49.99724" lon="2.26334">
        <ele>125.7</ele>
        <time>2024-07-17T07:27:29Z</time>
      </trkpt>
      <trkpt lat="49.99723" lon="2.26335">
        <ele>125.7</ele>
        <time>2024-07-17T07:27:30Z</time>
      </trkpt>
      <trkpt lat="49.99723" lon="2.26336">
        <ele>125.7</ele>
        <time>2024-07-17T07:27:31Z</time>
      </trkpt>
      <trkpt lat="49.99723" lon="2.26338">
        <ele>125.7</ele>
        <time>2024-07-17T07:27:32Z</time>
      </trkpt>
      <trkpt lat="49.99722" lon="2.26339">
        <ele>125.7</ele>
        <time>2024-07-17T07:27:33Z</time>
      </trkpt>
      <trkpt lat="49.99722" lon="2.2634">
        <ele>125.7</ele>
        <time>2024-07-17T07:27:34Z</time>
      </trkpt>
      <trkpt lat="49.99721" lon="2.26343">
        <ele>125.7</ele>
        <time>2024-07-17T07:27:35Z</time>
      </trkpt>
      <trkpt lat="49.99721" lon="2.26345">
        <ele>125.7</ele>
        <time>2024-07-17T07:27:37Z</time>
      </trkpt>
      <trkpt lat="49.9972" lon="2.26346">
        <ele>125.7</ele>
        <time>2024-07-17T07:27:38Z</time>
      </trkpt>
      <trkpt lat="49.9972" lon="2.26347">
        <ele>125.7</ele>
        <time>2024-07-17T07:27:39Z</time>
      </trkpt>
      <trkpt lat="49.9972" lon="2.26349">
        <ele>125.7</ele>
        <time>2024-07-17T07:27:40Z</time>
      </trkpt>
      <trkpt lat="49.99719" lon="2.26351">
        <ele>125.7</ele>
        <time>2024-07-17T07:27:41Z</time>
      </trkpt>
      <trkpt lat="49.99719" lon="2.26354">
        <ele>125.7</ele>
        <time>2024-07-17T07:27:42Z</time>
      </trkpt>
      <trkpt lat="49.99718" lon="2.26356">
        <ele>125.7</ele>
        <time>2024-07-17T07:27:44Z</time>
      </trkpt>
      <trkpt lat="49.99718" lon="2.26359">
        <ele>125.7</ele>
        <time>2024-07-17T07:27:45Z</time>
      </trkpt>
      <trkpt lat="49.99718" lon="2.26361">
        <ele>125.7</ele>
        <time>2024-07-17T07:27:46Z</time>
      </trkpt>
      <trkpt lat="49.99717" lon="2.26362">
        <ele>125.7</ele>
        <time>2024-07-17T07:27:47Z</time>
      </trkpt>
      <trkpt lat="49.99717" lon="2.26364">
        <ele>125.7</ele>
        <time>2024-07-17T07:27:48Z</time>
      </trkpt>
      <trkpt lat="49.99717" lon="2.26367">
        <ele>125.7</ele>
        <time>2024-07-17T07:27:49Z</time>
      </trkpt>
      <trkpt lat="49.99716" lon="2.26368">
        <ele>125.7</ele>
        <time>2024-07-17T07:27:50Z</time>
      </trkpt>
      <trkpt lat="49.99716" lon="2.26369">
        <ele>125.7</ele>
        <time>2024-07-17T07:27:51Z</time>
      </trkpt>
      <trkpt lat="49.99716" lon="2.26371">
        <ele>125.7</ele>
        <time>2024-07-17T07:27:52Z</time>
      </trkpt>
      <trkpt lat="49.99715" lon="2.26373">
        <ele>125.7</ele>
        <time>2024-07-17T07:27:53Z</time>
      </trkpt>
      <trkpt lat="49.99715" lon="2.26375">
        <ele>125.7</ele>
        <time>2024-07-17T07:27:54Z</time>
      </trkpt>
      <trkpt lat="49.99714" lon="2.26376">
        <ele>125.7</ele>
        <time>2024-07-17T07:27:55Z</time>
      </trkpt>
      <trkpt lat="49.99714" lon="2.26378">
        <ele>125.7</ele>
        <time>2024-07-17T07:27:56Z</time>
      </trkpt>
      <trkpt lat="49.99714" lon="2.2638">
        <ele>125.7</ele>
        <time>2024-07-17T07:27:57Z</time>
      </trkpt>
      <trkpt lat="49.99714" lon="2.26381">
        <ele>125.7</ele>
        <time>2024-07-17T07:27:58Z</time>
      </trkpt>
      <trkpt lat="49.99713" lon="2.26383">
        <ele>125.7</ele>
        <time>2024-07-17T07:27:59Z</time>
      </trkpt>
      <trkpt lat="49.99713" lon="2.26385">
        <ele>125.7</ele>
        <time>2024-07-17T07:28:00Z</time>
      </trkpt>
      <trkpt lat="49.99713" lon="2.26386">
        <ele>125.7</ele>
        <time>2024-07-17T07:28:01Z</time>
      </trkpt>
      <trkpt lat="49.99713" lon="2.26388">
        <ele>125.7</ele>
        <time>2024-07-17T07:28:02Z</time>
      </trkpt>
      <trkpt lat="49.99712" lon="2.26389">
        <ele>125.7</ele>
        <time>2024-07-17T07:28:03Z</time>
      </trkpt>
      <trkpt lat="49.99712" lon="2.26391">
        <ele>125.7</ele>
        <time>2024-07-17T07:28:04Z</time>
      </trkpt>
      <trkpt lat="49.99712" lon="2.26393">
        <ele>125.7</ele>
        <time>2024-07-17T07:28:05Z</time>
      </trkpt>
      <trkpt lat="49.99711" lon="2.26394">
        <ele>125.7</ele>
        <time>2024-07-17T07:28:06Z</time>
      </trkpt>
      <trkpt lat="49.99711" lon="2.26396">
        <ele>125.7</ele>
        <time>2024-07-17T07:28:07Z</time>
      </trkpt>
      <trkpt lat="49.9971" lon="2.26397">
        <ele>125.7</ele>
        <time>2024-07-17T07:28:08Z</time>
      </trkpt>
      <trkpt lat="49.9971" lon="2.26399">
        <ele>125.7</ele>
        <time>2024-07-17T07:28:09Z</time>
      </trkpt>
      <trkpt lat="49.9971" lon="2.264">
        <ele>125.7</ele>
        <time>2024-07-17T07:28:10Z</time>
      </trkpt>
      <trkpt lat="49.99709" lon="2.26402">
        <ele>125.7</ele>
        <time>2024-07-17T07:28:11Z</time>
      </trkpt>
      <trkpt lat="49.99708" lon="2.26403">
        <ele>125.7</ele>
        <time>2024-07-17T07:28:12Z</time>
      </trkpt>
      <trkpt lat="49.99708" lon="2.26405">
        <ele>125.7</ele>
        <time>2024-07-17T07:28:13Z</time>
      </trkpt>
      <trkpt lat="49.99708" lon="2.26406">
        <ele>125.7</ele>
        <time>2024-07-17T07:28:14Z</time>
      </trkpt>
      <trkpt lat="49.99707" lon="2.26408">
        <ele>125.7</ele>
        <time>2024-07-17T07:28:15Z</time>
      </trkpt>
      <trkpt lat="49.99707" lon="2.2641">
        <ele>125.7</ele>
        <time>2024-07-17T07:28:16Z</time>
      </trkpt>
      <trkpt lat="49.99706" lon="2.26412">
        <ele>125.7</ele>
        <time>2024-07-17T07:28:17Z</time>
      </trkpt>
      <trkpt lat="49.99706" lon="2.26413">
        <ele>125.7</ele>
        <time>2024-07-17T07:28:18Z</time>
      </trkpt>
      <trkpt lat="49.99705" lon="2.26415">
        <ele>125.7</ele>
        <time>2024-07-17T07:28:19Z</time>
      </trkpt>
      <trkpt lat="49.99705" lon="2.26417">
        <ele>125.7</ele>
        <time>2024-07-17T07:28:20Z</time>
      </trkpt>
      <trkpt lat="49.99705" lon="2.26418">
        <ele>125.7</ele>
        <time>2024-07-17T07:28:21Z</time>
      </trkpt>
      <trkpt lat="49.99704" lon="2.2642">
        <ele>125.7</ele>
        <time>2024-07-17T07:28:22Z</time>
      </trkpt>
      <trkpt lat="49.99703" lon="2.26421">
        <ele>125.7</ele>
        <time>2024-07-17T07:28:23Z</time>
      </trkpt>
      <trkpt lat="49.99703" lon="2.26423">
        <ele>125.7</ele>
        <time>2024-07-17T07:28:24Z</time>
      </trkpt>
      <trkpt lat="49.99702" lon="2.26427">
        <ele>125.7</ele>
        <time>2024-07-17T07:28:25Z</time>
      </trkpt>
      <trkpt lat="49.99702" lon="2.26428">
        <ele>125.7</ele>
        <time>2024-07-17T07:28:26Z</time>
      </trkpt>
      <trkpt lat="49.99702" lon="2.2643">
        <ele>125.7</ele>
        <time>2024-07-17T07:28:27Z</time>
      </trkpt>
      <trkpt lat="49.99701" lon="2.26432">
        <ele>125.7</ele>
        <time>2024-07-17T07:28:28Z</time>
      </trkpt>
      <trkpt lat="49.99701" lon="2.26435">
        <ele>125.8</ele>
        <time>2024-07-17T07:28:29Z</time>
      </trkpt>
      <trkpt lat="49.997" lon="2.26437">
        <ele>125.8</ele>
        <time>2024-07-17T07:28:30Z</time>
      </trkpt>
      <trkpt lat="49.997" lon="2.26439">
        <ele>125.8</ele>
        <time>2024-07-17T07:28:31Z</time>
      </trkpt>
      <trkpt lat="49.99699" lon="2.26442">
        <ele>125.8</ele>
        <time>2024-07-17T07:28:32Z</time>
      </trkpt>
      <trkpt lat="49.99699" lon="2.26443">
        <ele>125.8</ele>
        <time>2024-07-17T07:28:33Z</time>
      </trkpt>
      <trkpt lat="49.99699" lon="2.26445">
        <ele>125.8</ele>
        <time>2024-07-17T07:28:34Z</time>
      </trkpt>
      <trkpt lat="49.99697" lon="2.26449">
        <ele>125.8</ele>
        <time>2024-07-17T07:28:35Z</time>
      </trkpt>
      <trkpt lat="49.99697" lon="2.26451">
        <ele>125.8</ele>
        <time>2024-07-17T07:28:36Z</time>
      </trkpt>
      <trkpt lat="49.99696" lon="2.26453">
        <ele>125.8</ele>
        <time>2024-07-17T07:28:37Z</time>
      </trkpt>
      <trkpt lat="49.99695" lon="2.26455">
        <ele>125.8</ele>
        <time>2024-07-17T07:28:39Z</time>
      </trkpt>
      <trkpt lat="49.99694" lon="2.26457">
        <ele>125.8</ele>
        <time>2024-07-17T07:28:40Z</time>
      </trkpt>
      <trkpt lat="49.99694" lon="2.26458">
        <ele>125.8</ele>
        <time>2024-07-17T07:28:41Z</time>
      </trkpt>
      <trkpt lat="49.99694" lon="2.2646">
        <ele>125.8</ele>
        <time>2024-07-17T07:28:42Z</time>
      </trkpt>
      <trkpt lat="49.99693" lon="2.26461">
        <ele>125.8</ele>
        <time>2024-07-17T07:28:43Z</time>
      </trkpt>
      <trkpt lat="49.99692" lon="2.26464">
        <ele>125.8</ele>
        <time>2024-07-17T07:28:44Z</time>
      </trkpt>
      <trkpt lat="49.99691" lon="2.26467">
        <ele>125.8</ele>
        <time>2024-07-17T07:28:45Z</time>
      </trkpt>
      <trkpt lat="49.99691" lon="2.26468">
        <ele>125.8</ele>
        <time>2024-07-17T07:28:46Z</time>
      </trkpt>
      <trkpt lat="49.9969" lon="2.26469">
        <ele>125.9</ele>
        <time>2024-07-17T07:28:47Z</time>
      </trkpt>
      <trkpt lat="49.99691" lon="2.26469">
        <ele>125.9</ele>
        <time>2024-07-17T07:28:48Z</time>
      </trkpt>
      <trkpt lat="49.9969" lon="2.2647">
        <ele>125.9</ele>
        <time>2024-07-17T07:28:49Z</time>
      </trkpt>
      <trkpt lat="49.9969" lon="2.26472">
        <ele>125.9</ele>
        <time>2024-07-17T07:28:50Z</time>
      </trkpt>
      <trkpt lat="49.99689" lon="2.26474">
        <ele>125.9</ele>
        <time>2024-07-17T07:28:51Z</time>
      </trkpt>
      <trkpt lat="49.99689" lon="2.26475">
        <ele>125.9</ele>
        <time>2024-07-17T07:28:52Z</time>
      </trkpt>
      <trkpt lat="49.99688" lon="2.26476">
        <ele>125.9</ele>
        <time>2024-07-17T07:28:53Z</time>
      </trkpt>
      <trkpt lat="49.99688" lon="2.26478">
        <ele>125.9</ele>
        <time>2024-07-17T07:28:54Z</time>
      </trkpt>
      <trkpt lat="49.99688" lon="2.26479">
        <ele>125.9</ele>
        <time>2024-07-17T07:28:55Z</time>
      </trkpt>
      <trkpt lat="49.99687" lon="2.26481">
        <ele>125.9</ele>
        <time>2024-07-17T07:28:56Z</time>
      </trkpt>
      <trkpt lat="49.99687" lon="2.26482">
        <ele>125.9</ele>
        <time>2024-07-17T07:28:57Z</time>
      </trkpt>
      <trkpt lat="49.99687" lon="2.26484">
        <ele>125.9</ele>
        <time>2024-07-17T07:28:58Z</time>
      </trkpt>
      <trkpt lat="49.99686" lon="2.26486">
        <ele>125.9</ele>
        <time>2024-07-17T07:28:59Z</time>
      </trkpt>
      <trkpt lat="49.99686" lon="2.26487">
        <ele>125.9</ele>
        <time>2024-07-17T07:29:00Z</time>
      </trkpt>
      <trkpt lat="49.99685" lon="2.26489">
        <ele>125.9</ele>
        <time>2024-07-17T07:29:01Z</time>
      </trkpt>
      <trkpt lat="49.99685" lon="2.2649">
        <ele>125.9</ele>
        <time>2024-07-17T07:29:02Z</time>
      </trkpt>
      <trkpt lat="49.99684" lon="2.26492">
        <ele>125.9</ele>
        <time>2024-07-17T07:29:03Z</time>
      </trkpt>
      <trkpt lat="49.99684" lon="2.26495">
        <ele>125.9</ele>
        <time>2024-07-17T07:29:04Z</time>
      </trkpt>
      <trkpt lat="49.99683" lon="2.26497">
        <ele>125.9</ele>
        <time>2024-07-17T07:29:05Z</time>
      </trkpt>
      <trkpt lat="49.99682" lon="2.26501">
        <ele>125.9</ele>
        <time>2024-07-17T07:29:06Z</time>
      </trkpt>
      <trkpt lat="49.99682" lon="2.26502">
        <ele>125.9</ele>
        <time>2024-07-17T07:29:07Z</time>
      </trkpt>
      <trkpt lat="49.99681" lon="2.26504">
        <ele>125.9</ele>
        <time>2024-07-17T07:29:08Z</time>
      </trkpt>
      <trkpt lat="49.99681" lon="2.26505">
        <ele>125.9</ele>
        <time>2024-07-17T07:29:09Z</time>
      </trkpt>
      <trkpt lat="49.99681" lon="2.26507">
        <ele>125.9</ele>
        <time>2024-07-17T07:29:10Z</time>
      </trkpt>
      <trkpt lat="49.9968" lon="2.26508">
        <ele>125.9</ele>
        <time>2024-07-17T07:29:12Z</time>
      </trkpt>
      <trkpt lat="49.9968" lon="2.26509">
        <ele>125.9</ele>
        <time>2024-07-17T07:29:13Z</time>
      </trkpt>
      <trkpt lat="49.9968" lon="2.26511">
        <ele>125.9</ele>
        <time>2024-07-17T07:29:14Z</time>
      </trkpt>
      <trkpt lat="49.99679" lon="2.26512">
        <ele>125.9</ele>
        <time>2024-07-17T07:29:15Z</time>
      </trkpt>
      <trkpt lat="49.99679" lon="2.26514">
        <ele>125.9</ele>
        <time>2024-07-17T07:29:16Z</time>
      </trkpt>
      <trkpt lat="49.99679" lon="2.26516">
        <ele>125.9</ele>
        <time>2024-07-17T07:29:17Z</time>
      </trkpt>
      <trkpt lat="49.99679" lon="2.26517">
        <ele>125.9</ele>
        <time>2024-07-17T07:29:18Z</time>
      </trkpt>
      <trkpt lat="49.99678" lon="2.26519">
        <ele>125.9</ele>
        <time>2024-07-17T07:29:19Z</time>
      </trkpt>
      <trkpt lat="49.99678" lon="2.2652">
        <ele>125.9</ele>
        <time>2024-07-17T07:29:20Z</time>
      </trkpt>
      <trkpt lat="49.99678" lon="2.26521">
        <ele>125.9</ele>
        <time>2024-07-17T07:29:21Z</time>
      </trkpt>
      <trkpt lat="49.99678" lon="2.26523">
        <ele>125.9</ele>
        <time>2024-07-17T07:29:22Z</time>
      </trkpt>
      <trkpt lat="49.99678" lon="2.26524">
        <ele>125.9</ele>
        <time>2024-07-17T07:29:23Z</time>
      </trkpt>
      <trkpt lat="49.99678" lon="2.26526">
        <ele>125.9</ele>
        <time>2024-07-17T07:29:24Z</time>
      </trkpt>
      <trkpt lat="49.99678" lon="2.26528">
        <ele>125.9</ele>
        <time>2024-07-17T07:29:25Z</time>
      </trkpt>
      <trkpt lat="49.99678" lon="2.26529">
        <ele>125.9</ele>
        <time>2024-07-17T07:29:26Z</time>
      </trkpt>
      <trkpt lat="49.99678" lon="2.26531">
        <ele>125.9</ele>
        <time>2024-07-17T07:29:27Z</time>
      </trkpt>
      <trkpt lat="49.99678" lon="2.26532">
        <ele>125.9</ele>
        <time>2024-07-17T07:29:28Z</time>
      </trkpt>
      <trkpt lat="49.99678" lon="2.26534">
        <ele>125.9</ele>
        <time>2024-07-17T07:29:29Z</time>
      </trkpt>
      <trkpt lat="49.99677" lon="2.26537">
        <ele>125.9</ele>
        <time>2024-07-17T07:29:30Z</time>
      </trkpt>
      <trkpt lat="49.99677" lon="2.26538">
        <ele>125.9</ele>
        <time>2024-07-17T07:29:31Z</time>
      </trkpt>
      <trkpt lat="49.99677" lon="2.2654">
        <ele>125.9</ele>
        <time>2024-07-17T07:29:32Z</time>
      </trkpt>
      <trkpt lat="49.99677" lon="2.26542">
        <ele>125.9</ele>
        <time>2024-07-17T07:29:33Z</time>
      </trkpt>
      <trkpt lat="49.99676" lon="2.26544">
        <ele>125.9</ele>
        <time>2024-07-17T07:29:34Z</time>
      </trkpt>
      <trkpt lat="49.99676" lon="2.26546">
        <ele>125.9</ele>
        <time>2024-07-17T07:29:35Z</time>
      </trkpt>
      <trkpt lat="49.99676" lon="2.26548">
        <ele>125.9</ele>
        <time>2024-07-17T07:29:36Z</time>
      </trkpt>
      <trkpt lat="49.99675" lon="2.2655">
        <ele>125.9</ele>
        <time>2024-07-17T07:29:37Z</time>
      </trkpt>
      <trkpt lat="49.99675" lon="2.26552">
        <ele>125.9</ele>
        <time>2024-07-17T07:29:38Z</time>
      </trkpt>
      <trkpt lat="49.99674" lon="2.26555">
        <ele>125.9</ele>
        <time>2024-07-17T07:29:39Z</time>
      </trkpt>
      <trkpt lat="49.99674" lon="2.26556">
        <ele>125.9</ele>
        <time>2024-07-17T07:29:40Z</time>
      </trkpt>
      <trkpt lat="49.99673" lon="2.26557">
        <ele>125.9</ele>
        <time>2024-07-17T07:29:41Z</time>
      </trkpt>
      <trkpt lat="49.99672" lon="2.2656">
        <ele>125.8</ele>
        <time>2024-07-17T07:29:42Z</time>
      </trkpt>
      <trkpt lat="49.99672" lon="2.26562">
        <ele>125.8</ele>
        <time>2024-07-17T07:29:43Z</time>
      </trkpt>
      <trkpt lat="49.99672" lon="2.26563">
        <ele>125.8</ele>
        <time>2024-07-17T07:29:44Z</time>
      </trkpt>
      <trkpt lat="49.99671" lon="2.26565">
        <ele>125.8</ele>
        <time>2024-07-17T07:29:45Z</time>
      </trkpt>
      <trkpt lat="49.99671" lon="2.26567">
        <ele>125.8</ele>
        <time>2024-07-17T07:29:46Z</time>
      </trkpt>
      <trkpt lat="49.9967" lon="2.26569">
        <ele>125.8</ele>
        <time>2024-07-17T07:29:47Z</time>
      </trkpt>
      <trkpt lat="49.9967" lon="2.26571">
        <ele>125.8</ele>
        <time>2024-07-17T07:29:48Z</time>
      </trkpt>
      <trkpt lat="49.99669" lon="2.26573">
        <ele>125.8</ele>
        <time>2024-07-17T07:29:49Z</time>
      </trkpt>
      <trkpt lat="49.99668" lon="2.26575">
        <ele>125.7</ele>
        <time>2024-07-17T07:29:50Z</time>
      </trkpt>
      <trkpt lat="49.99668" lon="2.26577">
        <ele>125.7</ele>
        <time>2024-07-17T07:29:51Z</time>
      </trkpt>
      <trkpt lat="49.99667" lon="2.26579">
        <ele>125.7</ele>
        <time>2024-07-17T07:29:52Z</time>
      </trkpt>
      <trkpt lat="49.99666" lon="2.26582">
        <ele>125.7</ele>
        <time>2024-07-17T07:29:53Z</time>
      </trkpt>
      <trkpt lat="49.99666" lon="2.26583">
        <ele>125.7</ele>
        <time>2024-07-17T07:29:54Z</time>
      </trkpt>
      <trkpt lat="49.99666" lon="2.26585">
        <ele>125.7</ele>
        <time>2024-07-17T07:29:55Z</time>
      </trkpt>
      <trkpt lat="49.99665" lon="2.26586">
        <ele>125.6</ele>
        <time>2024-07-17T07:29:56Z</time>
      </trkpt>
      <trkpt lat="49.99665" lon="2.26589">
        <ele>125.6</ele>
        <time>2024-07-17T07:29:57Z</time>
      </trkpt>
      <trkpt lat="49.99664" lon="2.26593">
        <ele>125.6</ele>
        <time>2024-07-17T07:29:58Z</time>
      </trkpt>
      <trkpt lat="49.99663" lon="2.26594">
        <ele>125.6</ele>
        <time>2024-07-17T07:29:59Z</time>
      </trkpt>
      <trkpt lat="49.99662" lon="2.26599">
        <ele>125.5</ele>
        <time>2024-07-17T07:30:00Z</time>
      </trkpt>
      <trkpt lat="49.99662" lon="2.26601">
        <ele>125.5</ele>
        <time>2024-07-17T07:30:02Z</time>
      </trkpt>
      <trkpt lat="49.99661" lon="2.26603">
        <ele>125.5</ele>
        <time>2024-07-17T07:30:03Z</time>
      </trkpt>
      <trkpt lat="49.9966" lon="2.26606">
        <ele>125.5</ele>
        <time>2024-07-17T07:30:04Z</time>
      </trkpt>
      <trkpt lat="49.9966" lon="2.26607">
        <ele>125.4</ele>
        <time>2024-07-17T07:30:05Z</time>
      </trkpt>
      <trkpt lat="49.9966" lon="2.26609">
        <ele>125.4</ele>
        <time>2024-07-17T07:30:06Z</time>
      </trkpt>
      <trkpt lat="49.99658" lon="2.26613">
        <ele>125.4</ele>
        <time>2024-07-17T07:30:07Z</time>
      </trkpt>
      <trkpt lat="49.99658" lon="2.26616">
        <ele>125.4</ele>
        <time>2024-07-17T07:30:09Z</time>
      </trkpt>
      <trkpt lat="49.99657" lon="2.26618">
        <ele>125.3</ele>
        <time>2024-07-17T07:30:10Z</time>
      </trkpt>
      <trkpt lat="49.99657" lon="2.2662">
        <ele>125.3</ele>
        <time>2024-07-17T07:30:11Z</time>
      </trkpt>
      <trkpt lat="49.99656" lon="2.26623">
        <ele>125.3</ele>
        <time>2024-07-17T07:30:12Z</time>
      </trkpt>
      <trkpt lat="49.99656" lon="2.26625">
        <ele>125.3</ele>
        <time>2024-07-17T07:30:13Z</time>
      </trkpt>
      <trkpt lat="49.99655" lon="2.26627">
        <ele>125.2</ele>
        <time>2024-07-17T07:30:14Z</time>
      </trkpt>
      <trkpt lat="49.99655" lon="2.2663">
        <ele>125.2</ele>
        <time>2024-07-17T07:30:15Z</time>
      </trkpt>
      <trkpt lat="49.99655" lon="2.26631">
        <ele>125.2</ele>
        <time>2024-07-17T07:30:16Z</time>
      </trkpt>
      <trkpt lat="49.99655" lon="2.26632">
        <ele>125.2</ele>
        <time>2024-07-17T07:30:17Z</time>
      </trkpt>
      <trkpt lat="49.99654" lon="2.26633">
        <ele>125.2</ele>
        <time>2024-07-17T07:30:18Z</time>
      </trkpt>
      <trkpt lat="49.99654" lon="2.26636">
        <ele>125.2</ele>
        <time>2024-07-17T07:30:19Z</time>
      </trkpt>
      <trkpt lat="49.99654" lon="2.26636">
        <ele>125.2</ele>
        <time>2024-07-17T07:30:20Z</time>
      </trkpt>
      <trkpt lat="49.99653" lon="2.2664">
        <ele>125.1</ele>
        <time>2024-07-17T07:30:21Z</time>
      </trkpt>
      <trkpt lat="49.99652" lon="2.26643">
        <ele>125.1</ele>
        <time>2024-07-17T07:30:23Z</time>
      </trkpt>
      <trkpt lat="49.99652" lon="2.26645">
        <ele>125.1</ele>
        <time>2024-07-17T07:30:24Z</time>
      </trkpt>
      <trkpt lat="49.99652" lon="2.26645">
        <ele>125.1</ele>
        <time>2024-07-17T07:30:25Z</time>
      </trkpt>
      <trkpt lat="49.99651" lon="2.26647">
        <ele>125.1</ele>
        <time>2024-07-17T07:30:26Z</time>
      </trkpt>
      <trkpt lat="49.99651" lon="2.26649">
        <ele>125</ele>
        <time>2024-07-17T07:30:27Z</time>
      </trkpt>
      <trkpt lat="49.99651" lon="2.26651">
        <ele>125</ele>
        <time>2024-07-17T07:30:28Z</time>
      </trkpt>
      <trkpt lat="49.9965" lon="2.26656">
        <ele>125</ele>
        <time>2024-07-17T07:30:29Z</time>
      </trkpt>
      <trkpt lat="49.99649" lon="2.26658">
        <ele>125</ele>
        <time>2024-07-17T07:30:31Z</time>
      </trkpt>
      <trkpt lat="49.99649" lon="2.26659">
        <ele>125</ele>
        <time>2024-07-17T07:30:32Z</time>
      </trkpt>
      <trkpt lat="49.99648" lon="2.26662">
        <ele>124.9</ele>
        <time>2024-07-17T07:30:33Z</time>
      </trkpt>
      <trkpt lat="49.99648" lon="2.26663">
        <ele>124.9</ele>
        <time>2024-07-17T07:30:34Z</time>
      </trkpt>
      <trkpt lat="49.99648" lon="2.26664">
        <ele>124.9</ele>
        <time>2024-07-17T07:30:35Z</time>
      </trkpt>
      <trkpt lat="49.99647" lon="2.26667">
        <ele>124.9</ele>
        <time>2024-07-17T07:30:36Z</time>
      </trkpt>
      <trkpt lat="49.99646" lon="2.26669">
        <ele>124.9</ele>
        <time>2024-07-17T07:30:37Z</time>
      </trkpt>
      <trkpt lat="49.99646" lon="2.2667">
        <ele>124.9</ele>
        <time>2024-07-17T07:30:38Z</time>
      </trkpt>
      <trkpt lat="49.99646" lon="2.26672">
        <ele>124.8</ele>
        <time>2024-07-17T07:30:39Z</time>
      </trkpt>
      <trkpt lat="49.99646" lon="2.26673">
        <ele>124.8</ele>
        <time>2024-07-17T07:30:40Z</time>
      </trkpt>
      <trkpt lat="49.99645" lon="2.26675">
        <ele>124.8</ele>
        <time>2024-07-17T07:30:41Z</time>
      </trkpt>
      <trkpt lat="49.99645" lon="2.26677">
        <ele>124.8</ele>
        <time>2024-07-17T07:30:42Z</time>
      </trkpt>
      <trkpt lat="49.99644" lon="2.26679">
        <ele>124.8</ele>
        <time>2024-07-17T07:30:43Z</time>
      </trkpt>
      <trkpt lat="49.99644" lon="2.26682">
        <ele>124.8</ele>
        <time>2024-07-17T07:30:44Z</time>
      </trkpt>
      <trkpt lat="49.99643" lon="2.26684">
        <ele>124.7</ele>
        <time>2024-07-17T07:30:45Z</time>
      </trkpt>
      <trkpt lat="49.99643" lon="2.26685">
        <ele>124.7</ele>
        <time>2024-07-17T07:30:46Z</time>
      </trkpt>
      <trkpt lat="49.99643" lon="2.26688">
        <ele>124.7</ele>
        <time>2024-07-17T07:30:47Z</time>
      </trkpt>
      <trkpt lat="49.99642" lon="2.2669">
        <ele>124.7</ele>
        <time>2024-07-17T07:30:48Z</time>
      </trkpt>
      <trkpt lat="49.99642" lon="2.26692">
        <ele>124.7</ele>
        <time>2024-07-17T07:30:49Z</time>
      </trkpt>
      <trkpt lat="49.99642" lon="2.26694">
        <ele>124.7</ele>
        <time>2024-07-17T07:30:50Z</time>
      </trkpt>
      <trkpt lat="49.99641" lon="2.26697">
        <ele>124.7</ele>
        <time>2024-07-17T07:30:51Z</time>
      </trkpt>
      <trkpt lat="49.9964" lon="2.26698">
        <ele>124.7</ele>
        <time>2024-07-17T07:30:52Z</time>
      </trkpt>
      <trkpt lat="49.9964" lon="2.267">
        <ele>124.7</ele>
        <time>2024-07-17T07:30:53Z</time>
      </trkpt>
      <trkpt lat="49.9964" lon="2.26702">
        <ele>124.6</ele>
        <time>2024-07-17T07:30:54Z</time>
      </trkpt>
      <trkpt lat="49.99639" lon="2.26702">
        <ele>124.6</ele>
        <time>2024-07-17T07:30:55Z</time>
      </trkpt>
      <trkpt lat="49.99639" lon="2.26704">
        <ele>124.6</ele>
        <time>2024-07-17T07:30:56Z</time>
      </trkpt>
      <trkpt lat="49.99638" lon="2.26705">
        <ele>124.6</ele>
        <time>2024-07-17T07:30:57Z</time>
      </trkpt>
      <trkpt lat="49.99638" lon="2.26706">
        <ele>124.6</ele>
        <time>2024-07-17T07:30:58Z</time>
      </trkpt>
      <trkpt lat="49.99638" lon="2.26707">
        <ele>124.6</ele>
        <time>2024-07-17T07:30:59Z</time>
      </trkpt>
      <trkpt lat="49.99638" lon="2.26708">
        <ele>124.6</ele>
        <time>2024-07-17T07:31:00Z</time>
      </trkpt>
      <trkpt lat="49.99637" lon="2.2671">
        <ele>124.6</ele>
        <time>2024-07-17T07:31:01Z</time>
      </trkpt>
      <trkpt lat="49.99637" lon="2.26711">
        <ele>124.6</ele>
        <time>2024-07-17T07:31:02Z</time>
      </trkpt>
      <trkpt lat="49.99637" lon="2.26712">
        <ele>124.6</ele>
        <time>2024-07-17T07:31:03Z</time>
      </trkpt>
      <trkpt lat="49.99636" lon="2.26714">
        <ele>124.6</ele>
        <time>2024-07-17T07:31:04Z</time>
      </trkpt>
      <trkpt lat="49.99636" lon="2.26716">
        <ele>124.6</ele>
        <time>2024-07-17T07:31:05Z</time>
      </trkpt>
      <trkpt lat="49.99635" lon="2.26717">
        <ele>124.6</ele>
        <time>2024-07-17T07:31:06Z</time>
      </trkpt>
      <trkpt lat="49.99635" lon="2.26719">
        <ele>124.6</ele>
        <time>2024-07-17T07:31:07Z</time>
      </trkpt>
      <trkpt lat="49.99635" lon="2.26722">
        <ele>124.6</ele>
        <time>2024-07-17T07:31:08Z</time>
      </trkpt>
      <trkpt lat="49.99634" lon="2.26723">
        <ele>124.5</ele>
        <time>2024-07-17T07:31:09Z</time>
      </trkpt>
      <trkpt lat="49.99634" lon="2.26724">
        <ele>124.5</ele>
        <time>2024-07-17T07:31:10Z</time>
      </trkpt>
      <trkpt lat="49.99634" lon="2.26726">
        <ele>124.5</ele>
        <time>2024-07-17T07:31:11Z</time>
      </trkpt>
      <trkpt lat="49.99634" lon="2.26727">
        <ele>124.5</ele>
        <time>2024-07-17T07:31:12Z</time>
      </trkpt>
      <trkpt lat="49.99633" lon="2.26728">
        <ele>124.5</ele>
        <time>2024-07-17T07:31:13Z</time>
      </trkpt>
      <trkpt lat="49.99633" lon="2.26731">
        <ele>124.5</ele>
        <time>2024-07-17T07:31:14Z</time>
      </trkpt>
      <trkpt lat="49.99632" lon="2.26733">
        <ele>124.5</ele>
        <time>2024-07-17T07:31:15Z</time>
      </trkpt>
      <trkpt lat="49.99631" lon="2.26734">
        <ele>124.5</ele>
        <time>2024-07-17T07:31:16Z</time>
      </trkpt>
      <trkpt lat="49.9963" lon="2.26736">
        <ele>124.5</ele>
        <time>2024-07-17T07:31:17Z</time>
      </trkpt>
      <trkpt lat="49.9963" lon="2.26738">
        <ele>124.5</ele>
        <time>2024-07-17T07:31:18Z</time>
      </trkpt>
      <trkpt lat="49.99629" lon="2.2674">
        <ele>124.5</ele>
        <time>2024-07-17T07:31:19Z</time>
      </trkpt>
      <trkpt lat="49.99628" lon="2.26741">
        <ele>124.5</ele>
        <time>2024-07-17T07:31:20Z</time>
      </trkpt>
      <trkpt lat="49.99628" lon="2.26742">
        <ele>124.5</ele>
        <time>2024-07-17T07:31:21Z</time>
      </trkpt>
      <trkpt lat="49.99628" lon="2.26742">
        <ele>124.5</ele>
        <time>2024-07-17T07:31:22Z</time>
      </trkpt>
      <trkpt lat="49.99628" lon="2.26744">
        <ele>124.5</ele>
        <time>2024-07-17T07:31:23Z</time>
      </trkpt>
      <trkpt lat="49.99628" lon="2.26744">
        <ele>124.5</ele>
        <time>2024-07-17T07:31:24Z</time>
      </trkpt>
      <trkpt lat="49.99628" lon="2.26745">
        <ele>124.5</ele>
        <time>2024-07-17T07:31:25Z</time>
      </trkpt>
      <trkpt lat="49.99627" lon="2.26747">
        <ele>124.5</ele>
        <time>2024-07-17T07:31:26Z</time>
      </trkpt>
      <trkpt lat="49.99627" lon="2.26749">
        <ele>124.5</ele>
        <time>2024-07-17T07:31:28Z</time>
      </trkpt>
      <trkpt lat="49.99627" lon="2.2675">
        <ele>124.5</ele>
        <time>2024-07-17T07:31:29Z</time>
      </trkpt>
      <trkpt lat="49.99627" lon="2.26752">
        <ele>124.4</ele>
        <time>2024-07-17T07:31:30Z</time>
      </trkpt>
      <trkpt lat="49.99627" lon="2.26753">
        <ele>124.4</ele>
        <time>2024-07-17T07:31:31Z</time>
      </trkpt>
      <trkpt lat="49.99626" lon="2.26755">
        <ele>124.4</ele>
        <time>2024-07-17T07:31:32Z</time>
      </trkpt>
      <trkpt lat="49.99626" lon="2.26756">
        <ele>124.4</ele>
        <time>2024-07-17T07:31:33Z</time>
      </trkpt>
      <trkpt lat="49.99626" lon="2.26757">
        <ele>124.4</ele>
        <time>2024-07-17T07:31:34Z</time>
      </trkpt>
      <trkpt lat="49.99625" lon="2.26759">
        <ele>124.4</ele>
        <time>2024-07-17T07:31:35Z</time>
      </trkpt>
      <trkpt lat="49.99625" lon="2.2676">
        <ele>124.4</ele>
        <time>2024-07-17T07:31:36Z</time>
      </trkpt>
      <trkpt lat="49.99625" lon="2.26762">
        <ele>124.4</ele>
        <time>2024-07-17T07:31:37Z</time>
      </trkpt>
      <trkpt lat="49.99624" lon="2.26763">
        <ele>124.4</ele>
        <time>2024-07-17T07:31:38Z</time>
      </trkpt>
      <trkpt lat="49.99624" lon="2.26765">
        <ele>124.4</ele>
        <time>2024-07-17T07:31:39Z</time>
      </trkpt>
      <trkpt lat="49.99623" lon="2.26768">
        <ele>124.4</ele>
        <time>2024-07-17T07:31:40Z</time>
      </trkpt>
      <trkpt lat="49.99623" lon="2.26769">
        <ele>124.3</ele>
        <time>2024-07-17T07:31:41Z</time>
      </trkpt>
      <trkpt lat="49.99622" lon="2.2677">
        <ele>124.3</ele>
        <time>2024-07-17T07:31:42Z</time>
      </trkpt>
      <trkpt lat="49.99622" lon="2.26772">
        <ele>124.3</ele>
        <time>2024-07-17T07:31:43Z</time>
      </trkpt>
      <trkpt lat="49.99622" lon="2.26774">
        <ele>124.3</ele>
        <time>2024-07-17T07:31:44Z</time>
      </trkpt>
      <trkpt lat="49.99622" lon="2.26775">
        <ele>124.3</ele>
        <time>2024-07-17T07:31:45Z</time>
      </trkpt>
      <trkpt lat="49.99621" lon="2.26777">
        <ele>124.3</ele>
        <time>2024-07-17T07:31:46Z</time>
      </trkpt>
      <trkpt lat="49.99621" lon="2.26779">
        <ele>124.3</ele>
        <time>2024-07-17T07:31:47Z</time>
      </trkpt>
      <trkpt lat="49.9962" lon="2.2678">
        <ele>124.3</ele>
        <time>2024-07-17T07:31:48Z</time>
      </trkpt>
      <trkpt lat="49.9962" lon="2.26782">
        <ele>124.3</ele>
        <time>2024-07-17T07:31:49Z</time>
      </trkpt>
      <trkpt lat="49.9962" lon="2.26783">
        <ele>124.2</ele>
        <time>2024-07-17T07:31:50Z</time>
      </trkpt>
      <trkpt lat="49.99619" lon="2.26785">
        <ele>124.2</ele>
        <time>2024-07-17T07:31:51Z</time>
      </trkpt>
      <trkpt lat="49.99619" lon="2.26787">
        <ele>124.2</ele>
        <time>2024-07-17T07:31:52Z</time>
      </trkpt>
      <trkpt lat="49.99618" lon="2.2679">
        <ele>124.2</ele>
        <time>2024-07-17T07:31:53Z</time>
      </trkpt>
      <trkpt lat="49.99617" lon="2.26794">
        <ele>124.2</ele>
        <time>2024-07-17T07:31:54Z</time>
      </trkpt>
      <trkpt lat="49.99617" lon="2.26795">
        <ele>124.1</ele>
        <time>2024-07-17T07:31:55Z</time>
      </trkpt>
      <trkpt lat="49.99616" lon="2.268">
        <ele>124.1</ele>
        <time>2024-07-17T07:31:56Z</time>
      </trkpt>
      <trkpt lat="49.99616" lon="2.26801">
        <ele>124.1</ele>
        <time>2024-07-17T07:31:57Z</time>
      </trkpt>
      <trkpt lat="49.99615" lon="2.26803">
        <ele>124.1</ele>
        <time>2024-07-17T07:31:58Z</time>
      </trkpt>
      <trkpt lat="49.99614" lon="2.26806">
        <ele>124</ele>
        <time>2024-07-17T07:31:59Z</time>
      </trkpt>
      <trkpt lat="49.99613" lon="2.26808">
        <ele>124</ele>
        <time>2024-07-17T07:32:00Z</time>
      </trkpt>
      <trkpt lat="49.99613" lon="2.2681">
        <ele>124</ele>
        <time>2024-07-17T07:32:01Z</time>
      </trkpt>
      <trkpt lat="49.99611" lon="2.26814">
        <ele>124</ele>
        <time>2024-07-17T07:32:02Z</time>
      </trkpt>
      <trkpt lat="49.99611" lon="2.26815">
        <ele>124</ele>
        <time>2024-07-17T07:32:03Z</time>
      </trkpt>
      <trkpt lat="49.99611" lon="2.26816">
        <ele>124</ele>
        <time>2024-07-17T07:32:04Z</time>
      </trkpt>
      <trkpt lat="49.9961" lon="2.26818">
        <ele>123.9</ele>
        <time>2024-07-17T07:32:05Z</time>
      </trkpt>
      <trkpt lat="49.9961" lon="2.2682">
        <ele>123.9</ele>
        <time>2024-07-17T07:32:06Z</time>
      </trkpt>
      <trkpt lat="49.9961" lon="2.26823">
        <ele>123.9</ele>
        <time>2024-07-17T07:32:07Z</time>
      </trkpt>
      <trkpt lat="49.99609" lon="2.26824">
        <ele>123.9</ele>
        <time>2024-07-17T07:32:08Z</time>
      </trkpt>
      <trkpt lat="49.99609" lon="2.26825">
        <ele>123.9</ele>
        <time>2024-07-17T07:32:09Z</time>
      </trkpt>
      <trkpt lat="49.99608" lon="2.26828">
        <ele>123.9</ele>
        <time>2024-07-17T07:32:10Z</time>
      </trkpt>
      <trkpt lat="49.99608" lon="2.26829">
        <ele>123.9</ele>
        <time>2024-07-17T07:32:11Z</time>
      </trkpt>
      <trkpt lat="49.99607" lon="2.2683">
        <ele>123.9</ele>
        <time>2024-07-17T07:32:12Z</time>
      </trkpt>
      <trkpt lat="49.99607" lon="2.26834">
        <ele>123.9</ele>
        <time>2024-07-17T07:32:13Z</time>
      </trkpt>
      <trkpt lat="49.99606" lon="2.26835">
        <ele>123.8</ele>
        <time>2024-07-17T07:32:14Z</time>
      </trkpt>
      <trkpt lat="49.99606" lon="2.26836">
        <ele>123.8</ele>
        <time>2024-07-17T07:32:15Z</time>
      </trkpt>
      <trkpt lat="49.99606" lon="2.26837">
        <ele>123.8</ele>
        <time>2024-07-17T07:32:16Z</time>
      </trkpt>
      <trkpt lat="49.99605" lon="2.26838">
        <ele>123.8</ele>
        <time>2024-07-17T07:32:17Z</time>
      </trkpt>
      <trkpt lat="49.99605" lon="2.26839">
        <ele>123.8</ele>
        <time>2024-07-17T07:32:18Z</time>
      </trkpt>
      <trkpt lat="49.99605" lon="2.26841">
        <ele>123.8</ele>
        <time>2024-07-17T07:32:19Z</time>
      </trkpt>
      <trkpt lat="49.99604" lon="2.26842">
        <ele>123.8</ele>
        <time>2024-07-17T07:32:20Z</time>
      </trkpt>
      <trkpt lat="49.99603" lon="2.26843">
        <ele>123.8</ele>
        <time>2024-07-17T07:32:21Z</time>
      </trkpt>
      <trkpt lat="49.99603" lon="2.26845">
        <ele>123.8</ele>
        <time>2024-07-17T07:32:22Z</time>
      </trkpt>
      <trkpt lat="49.99602" lon="2.26847">
        <ele>123.8</ele>
        <time>2024-07-17T07:32:23Z</time>
      </trkpt>
      <trkpt lat="49.99602" lon="2.26849">
        <ele>123.7</ele>
        <time>2024-07-17T07:32:24Z</time>
      </trkpt>
      <trkpt lat="49.99601" lon="2.26852">
        <ele>123.7</ele>
        <time>2024-07-17T07:32:25Z</time>
      </trkpt>
      <trkpt lat="49.996" lon="2.26853">
        <ele>123.7</ele>
        <time>2024-07-17T07:32:26Z</time>
      </trkpt>
      <trkpt lat="49.996" lon="2.26854">
        <ele>123.7</ele>
        <time>2024-07-17T07:32:27Z</time>
      </trkpt>
      <trkpt lat="49.99599" lon="2.26855">
        <ele>123.7</ele>
        <time>2024-07-17T07:32:28Z</time>
      </trkpt>
      <trkpt lat="49.99598" lon="2.26858">
        <ele>123.7</ele>
        <time>2024-07-17T07:32:29Z</time>
      </trkpt>
      <trkpt lat="49.99598" lon="2.26859">
        <ele>123.7</ele>
        <time>2024-07-17T07:32:30Z</time>
      </trkpt>
      <trkpt lat="49.99598" lon="2.2686">
        <ele>123.6</ele>
        <time>2024-07-17T07:32:31Z</time>
      </trkpt>
      <trkpt lat="49.99598" lon="2.26862">
        <ele>123.6</ele>
        <time>2024-07-17T07:32:32Z</time>
      </trkpt>
      <trkpt lat="49.99597" lon="2.26863">
        <ele>123.6</ele>
        <time>2024-07-17T07:32:33Z</time>
      </trkpt>
      <trkpt lat="49.99597" lon="2.26867">
        <ele>123.6</ele>
        <time>2024-07-17T07:32:34Z</time>
      </trkpt>
      <trkpt lat="49.99597" lon="2.26869">
        <ele>123.6</ele>
        <time>2024-07-17T07:32:36Z</time>
      </trkpt>
      <trkpt lat="49.99597" lon="2.26871">
        <ele>123.6</ele>
        <time>2024-07-17T07:32:37Z</time>
      </trkpt>
      <trkpt lat="49.99597" lon="2.26874">
        <ele>123.5</ele>
        <time>2024-07-17T07:32:38Z</time>
      </trkpt>
      <trkpt lat="49.99596" lon="2.26877">
        <ele>123.5</ele>
        <time>2024-07-17T07:32:39Z</time>
      </trkpt>
      <trkpt lat="49.99596" lon="2.26878">
        <ele>123.5</ele>
        <time>2024-07-17T07:32:40Z</time>
      </trkpt>
      <trkpt lat="49.99596" lon="2.26879">
        <ele>123.5</ele>
        <time>2024-07-17T07:32:41Z</time>
      </trkpt>
      <trkpt lat="49.99595" lon="2.26881">
        <ele>123.5</ele>
        <time>2024-07-17T07:32:42Z</time>
      </trkpt>
      <trkpt lat="49.99595" lon="2.26882">
        <ele>123.5</ele>
        <time>2024-07-17T07:32:43Z</time>
      </trkpt>
      <trkpt lat="49.99595" lon="2.26884">
        <ele>123.5</ele>
        <time>2024-07-17T07:32:44Z</time>
      </trkpt>
      <trkpt lat="49.99594" lon="2.26885">
        <ele>123.5</ele>
        <time>2024-07-17T07:32:45Z</time>
      </trkpt>
      <trkpt lat="49.99594" lon="2.26887">
        <ele>123.4</ele>
        <time>2024-07-17T07:32:46Z</time>
      </trkpt>
      <trkpt lat="49.99594" lon="2.26889">
        <ele>123.4</ele>
        <time>2024-07-17T07:32:47Z</time>
      </trkpt>
      <trkpt lat="49.99592" lon="2.26893">
        <ele>123.4</ele>
        <time>2024-07-17T07:32:48Z</time>
      </trkpt>
      <trkpt lat="49.99592" lon="2.26894">
        <ele>123.4</ele>
        <time>2024-07-17T07:32:50Z</time>
      </trkpt>
      <trkpt lat="49.99592" lon="2.26896">
        <ele>123.4</ele>
        <time>2024-07-17T07:32:51Z</time>
      </trkpt>
      <trkpt lat="49.99591" lon="2.26898">
        <ele>123.4</ele>
        <time>2024-07-17T07:32:52Z</time>
      </trkpt>
      <trkpt lat="49.9959" lon="2.26901">
        <ele>123.3</ele>
        <time>2024-07-17T07:32:53Z</time>
      </trkpt>
      <trkpt lat="49.9959" lon="2.26902">
        <ele>123.3</ele>
        <time>2024-07-17T07:32:54Z</time>
      </trkpt>
      <trkpt lat="49.9959" lon="2.26904">
        <ele>123.3</ele>
        <time>2024-07-17T07:32:55Z</time>
      </trkpt>
      <trkpt lat="49.99589" lon="2.26906">
        <ele>123.3</ele>
        <time>2024-07-17T07:32:56Z</time>
      </trkpt>
      <trkpt lat="49.99588" lon="2.26908">
        <ele>123.3</ele>
        <time>2024-07-17T07:32:57Z</time>
      </trkpt>
      <trkpt lat="49.99588" lon="2.26909">
        <ele>123.3</ele>
        <time>2024-07-17T07:32:58Z</time>
      </trkpt>
      <trkpt lat="49.99587" lon="2.26911">
        <ele>123.3</ele>
        <time>2024-07-17T07:32:59Z</time>
      </trkpt>
      <trkpt lat="49.99587" lon="2.26913">
        <ele>123.3</ele>
        <time>2024-07-17T07:33:00Z</time>
      </trkpt>
      <trkpt lat="49.99587" lon="2.26914">
        <ele>123.3</ele>
        <time>2024-07-17T07:33:01Z</time>
      </trkpt>
      <trkpt lat="49.99586" lon="2.26915">
        <ele>123.2</ele>
        <time>2024-07-17T07:33:02Z</time>
      </trkpt>
      <trkpt lat="49.99586" lon="2.26917">
        <ele>123.2</ele>
        <time>2024-07-17T07:33:03Z</time>
      </trkpt>
      <trkpt lat="49.99586" lon="2.2692">
        <ele>123.2</ele>
        <time>2024-07-17T07:33:04Z</time>
      </trkpt>
      <trkpt lat="49.99585" lon="2.26921">
        <ele>123.2</ele>
        <time>2024-07-17T07:33:05Z</time>
      </trkpt>
      <trkpt lat="49.99585" lon="2.26923">
        <ele>123.2</ele>
        <time>2024-07-17T07:33:06Z</time>
      </trkpt>
      <trkpt lat="49.99584" lon="2.26924">
        <ele>123.2</ele>
        <time>2024-07-17T07:33:07Z</time>
      </trkpt>
      <trkpt lat="49.99584" lon="2.26926">
        <ele>123.1</ele>
        <time>2024-07-17T07:33:08Z</time>
      </trkpt>
      <trkpt lat="49.99584" lon="2.26927">
        <ele>123.1</ele>
        <time>2024-07-17T07:33:10Z</time>
      </trkpt>
      <trkpt lat="49.99583" lon="2.26928">
        <ele>123.1</ele>
        <time>2024-07-17T07:33:11Z</time>
      </trkpt>
      <trkpt lat="49.99583" lon="2.2693">
        <ele>123.1</ele>
        <time>2024-07-17T07:33:12Z</time>
      </trkpt>
      <trkpt lat="49.99583" lon="2.26933">
        <ele>123.1</ele>
        <time>2024-07-17T07:33:13Z</time>
      </trkpt>
      <trkpt lat="49.99582" lon="2.26935">
        <ele>123.1</ele>
        <time>2024-07-17T07:33:14Z</time>
      </trkpt>
      <trkpt lat="49.99582" lon="2.26936">
        <ele>123.1</ele>
        <time>2024-07-17T07:33:15Z</time>
      </trkpt>
      <trkpt lat="49.99582" lon="2.26939">
        <ele>123</ele>
        <time>2024-07-17T07:33:16Z</time>
      </trkpt>
      <trkpt lat="49.99582" lon="2.26941">
        <ele>123</ele>
        <time>2024-07-17T07:33:17Z</time>
      </trkpt>
      <trkpt lat="49.99581" lon="2.26942">
        <ele>123</ele>
        <time>2024-07-17T07:33:18Z</time>
      </trkpt>
      <trkpt lat="49.99581" lon="2.26943">
        <ele>123</ele>
        <time>2024-07-17T07:33:19Z</time>
      </trkpt>
      <trkpt lat="49.99581" lon="2.26945">
        <ele>123</ele>
        <time>2024-07-17T07:33:20Z</time>
      </trkpt>
      <trkpt lat="49.9958" lon="2.26946">
        <ele>123</ele>
        <time>2024-07-17T07:33:21Z</time>
      </trkpt>
      <trkpt lat="49.9958" lon="2.26947">
        <ele>123</ele>
        <time>2024-07-17T07:33:22Z</time>
      </trkpt>
      <trkpt lat="49.99579" lon="2.26949">
        <ele>122.9</ele>
        <time>2024-07-17T07:33:23Z</time>
      </trkpt>
      <trkpt lat="49.99579" lon="2.26951">
        <ele>122.9</ele>
        <time>2024-07-17T07:33:24Z</time>
      </trkpt>
      <trkpt lat="49.99579" lon="2.26953">
        <ele>122.9</ele>
        <time>2024-07-17T07:33:25Z</time>
      </trkpt>
      <trkpt lat="49.99578" lon="2.26954">
        <ele>122.9</ele>
        <time>2024-07-17T07:33:26Z</time>
      </trkpt>
      <trkpt lat="49.99578" lon="2.26955">
        <ele>122.9</ele>
        <time>2024-07-17T07:33:27Z</time>
      </trkpt>
      <trkpt lat="49.99577" lon="2.26957">
        <ele>122.9</ele>
        <time>2024-07-17T07:33:28Z</time>
      </trkpt>
      <trkpt lat="49.99577" lon="2.26958">
        <ele>122.9</ele>
        <time>2024-07-17T07:33:29Z</time>
      </trkpt>
      <trkpt lat="49.99577" lon="2.26959">
        <ele>122.9</ele>
        <time>2024-07-17T07:33:30Z</time>
      </trkpt>
      <trkpt lat="49.99577" lon="2.2696">
        <ele>122.9</ele>
        <time>2024-07-17T07:33:31Z</time>
      </trkpt>
      <trkpt lat="49.99576" lon="2.2696">
        <ele>122.9</ele>
        <time>2024-07-17T07:33:32Z</time>
      </trkpt>
      <trkpt lat="49.99576" lon="2.26962">
        <ele>122.8</ele>
        <time>2024-07-17T07:33:33Z</time>
      </trkpt>
      <trkpt lat="49.99575" lon="2.26963">
        <ele>122.8</ele>
        <time>2024-07-17T07:33:34Z</time>
      </trkpt>
      <trkpt lat="49.99575" lon="2.26965">
        <ele>122.8</ele>
        <time>2024-07-17T07:33:35Z</time>
      </trkpt>
      <trkpt lat="49.99574" lon="2.26966">
        <ele>122.8</ele>
        <time>2024-07-17T07:33:36Z</time>
      </trkpt>
      <trkpt lat="49.99574" lon="2.26967">
        <ele>122.8</ele>
        <time>2024-07-17T07:33:37Z</time>
      </trkpt>
      <trkpt lat="49.99573" lon="2.26969">
        <ele>122.8</ele>
        <time>2024-07-17T07:33:38Z</time>
      </trkpt>
      <trkpt lat="49.99572" lon="2.2697">
        <ele>122.8</ele>
        <time>2024-07-17T07:33:39Z</time>
      </trkpt>
      <trkpt lat="49.99572" lon="2.26973">
        <ele>122.8</ele>
        <time>2024-07-17T07:33:40Z</time>
      </trkpt>
      <trkpt lat="49.99571" lon="2.26975">
        <ele>122.7</ele>
        <time>2024-07-17T07:33:42Z</time>
      </trkpt>
      <trkpt lat="49.99571" lon="2.26975">
        <ele>122.7</ele>
        <time>2024-07-17T07:33:43Z</time>
      </trkpt>
      <trkpt lat="49.99571" lon="2.26977">
        <ele>122.7</ele>
        <time>2024-07-17T07:33:44Z</time>
      </trkpt>
      <trkpt lat="49.9957" lon="2.26977">
        <ele>122.7</ele>
        <time>2024-07-17T07:33:45Z</time>
      </trkpt>
      <trkpt lat="49.99569" lon="2.2698">
        <ele>122.7</ele>
        <time>2024-07-17T07:33:46Z</time>
      </trkpt>
      <trkpt lat="49.99568" lon="2.26981">
        <ele>122.7</ele>
        <time>2024-07-17T07:33:47Z</time>
      </trkpt>
      <trkpt lat="49.99568" lon="2.26982">
        <ele>122.7</ele>
        <time>2024-07-17T07:33:48Z</time>
      </trkpt>
      <trkpt lat="49.99567" lon="2.26985">
        <ele>122.7</ele>
        <time>2024-07-17T07:33:49Z</time>
      </trkpt>
      <trkpt lat="49.99566" lon="2.26986">
        <ele>122.6</ele>
        <time>2024-07-17T07:33:50Z</time>
      </trkpt>
      <trkpt lat="49.99566" lon="2.26987">
        <ele>122.6</ele>
        <time>2024-07-17T07:33:51Z</time>
      </trkpt>
      <trkpt lat="49.99564" lon="2.2699">
        <ele>122.6</ele>
        <time>2024-07-17T07:33:52Z</time>
      </trkpt>
      <trkpt lat="49.99563" lon="2.26992">
        <ele>122.6</ele>
        <time>2024-07-17T07:33:54Z</time>
      </trkpt>
      <trkpt lat="49.99563" lon="2.26994">
        <ele>122.6</ele>
        <time>2024-07-17T07:33:55Z</time>
      </trkpt>
      <trkpt lat="49.99562" lon="2.26995">
        <ele>122.6</ele>
        <time>2024-07-17T07:33:56Z</time>
      </trkpt>
      <trkpt lat="49.99562" lon="2.26997">
        <ele>122.6</ele>
        <time>2024-07-17T07:33:57Z</time>
      </trkpt>
      <trkpt lat="49.99562" lon="2.26998">
        <ele>122.6</ele>
        <time>2024-07-17T07:33:58Z</time>
      </trkpt>
      <trkpt lat="49.99562" lon="2.26999">
        <ele>122.5</ele>
        <time>2024-07-17T07:33:59Z</time>
      </trkpt>
      <trkpt lat="49.99561" lon="2.27">
        <ele>122.5</ele>
        <time>2024-07-17T07:34:00Z</time>
      </trkpt>
      <trkpt lat="49.99561" lon="2.27002">
        <ele>122.5</ele>
        <time>2024-07-17T07:34:01Z</time>
      </trkpt>
      <trkpt lat="49.99561" lon="2.27003">
        <ele>122.5</ele>
        <time>2024-07-17T07:34:02Z</time>
      </trkpt>
      <trkpt lat="49.9956" lon="2.27005">
        <ele>122.5</ele>
        <time>2024-07-17T07:34:03Z</time>
      </trkpt>
      <trkpt lat="49.9956" lon="2.27006">
        <ele>122.5</ele>
        <time>2024-07-17T07:34:04Z</time>
      </trkpt>
      <trkpt lat="49.9956" lon="2.27008">
        <ele>122.5</ele>
        <time>2024-07-17T07:34:05Z</time>
      </trkpt>
      <trkpt lat="49.99559" lon="2.27009">
        <ele>122.5</ele>
        <time>2024-07-17T07:34:06Z</time>
      </trkpt>
      <trkpt lat="49.99559" lon="2.27011">
        <ele>122.5</ele>
        <time>2024-07-17T07:34:07Z</time>
      </trkpt>
      <trkpt lat="49.99559" lon="2.27012">
        <ele>122.5</ele>
        <time>2024-07-17T07:34:08Z</time>
      </trkpt>
      <trkpt lat="49.99559" lon="2.27013">
        <ele>122.5</ele>
        <time>2024-07-17T07:34:09Z</time>
      </trkpt>
      <trkpt lat="49.99558" lon="2.27016">
        <ele>122.4</ele>
        <time>2024-07-17T07:34:10Z</time>
      </trkpt>
      <trkpt lat="49.99557" lon="2.27018">
        <ele>122.4</ele>
        <time>2024-07-17T07:34:12Z</time>
      </trkpt>
      <trkpt lat="49.99557" lon="2.2702">
        <ele>122.4</ele>
        <time>2024-07-17T07:34:13Z</time>
      </trkpt>
      <trkpt lat="49.99556" lon="2.27022">
        <ele>122.4</ele>
        <time>2024-07-17T07:34:14Z</time>
      </trkpt>
      <trkpt lat="49.99556" lon="2.27024">
        <ele>122.4</ele>
        <time>2024-07-17T07:34:15Z</time>
      </trkpt>
      <trkpt lat="49.99555" lon="2.27027">
        <ele>122.4</ele>
        <time>2024-07-17T07:34:16Z</time>
      </trkpt>
      <trkpt lat="49.99555" lon="2.27029">
        <ele>122.4</ele>
        <time>2024-07-17T07:34:17Z</time>
      </trkpt>
      <trkpt lat="49.99555" lon="2.27031">
        <ele>122.4</ele>
        <time>2024-07-17T07:34:18Z</time>
      </trkpt>
      <trkpt lat="49.99554" lon="2.27033">
        <ele>122.3</ele>
        <time>2024-07-17T07:34:19Z</time>
      </trkpt>
      <trkpt lat="49.99554" lon="2.27035">
        <ele>122.3</ele>
        <time>2024-07-17T07:34:20Z</time>
      </trkpt>
      <trkpt lat="49.99554" lon="2.27038">
        <ele>122.3</ele>
        <time>2024-07-17T07:34:21Z</time>
      </trkpt>
      <trkpt lat="49.99553" lon="2.27039">
        <ele>122.3</ele>
        <time>2024-07-17T07:34:22Z</time>
      </trkpt>
      <trkpt lat="49.99553" lon="2.27041">
        <ele>122.3</ele>
        <time>2024-07-17T07:34:23Z</time>
      </trkpt>
      <trkpt lat="49.99553" lon="2.27044">
        <ele>122.3</ele>
        <time>2024-07-17T07:34:25Z</time>
      </trkpt>
      <trkpt lat="49.99553" lon="2.27045">
        <ele>122.3</ele>
        <time>2024-07-17T07:34:26Z</time>
      </trkpt>
      <trkpt lat="49.99552" lon="2.27046">
        <ele>122.3</ele>
        <time>2024-07-17T07:34:27Z</time>
      </trkpt>
      <trkpt lat="49.99552" lon="2.27048">
        <ele>122.3</ele>
        <time>2024-07-17T07:34:28Z</time>
      </trkpt>
      <trkpt lat="49.99552" lon="2.27049">
        <ele>122.3</ele>
        <time>2024-07-17T07:34:29Z</time>
      </trkpt>
      <trkpt lat="49.99551" lon="2.27051">
        <ele>122.3</ele>
        <time>2024-07-17T07:34:30Z</time>
      </trkpt>
      <trkpt lat="49.99551" lon="2.27052">
        <ele>122.2</ele>
        <time>2024-07-17T07:34:31Z</time>
      </trkpt>
      <trkpt lat="49.99551" lon="2.27053">
        <ele>122.2</ele>
        <time>2024-07-17T07:34:32Z</time>
      </trkpt>
      <trkpt lat="49.99551" lon="2.27054">
        <ele>122.2</ele>
        <time>2024-07-17T07:34:33Z</time>
      </trkpt>
      <trkpt lat="49.99551" lon="2.27056">
        <ele>122.2</ele>
        <time>2024-07-17T07:34:34Z</time>
      </trkpt>
      <trkpt lat="49.9955" lon="2.27058">
        <ele>122.2</ele>
        <time>2024-07-17T07:34:35Z</time>
      </trkpt>
      <trkpt lat="49.9955" lon="2.2706">
        <ele>122.2</ele>
        <time>2024-07-17T07:34:36Z</time>
      </trkpt>
      <trkpt lat="49.9955" lon="2.27062">
        <ele>122.2</ele>
        <time>2024-07-17T07:34:37Z</time>
      </trkpt>
      <trkpt lat="49.99549" lon="2.27064">
        <ele>122.2</ele>
        <time>2024-07-17T07:34:38Z</time>
      </trkpt>
      <trkpt lat="49.99549" lon="2.27065">
        <ele>122.1</ele>
        <time>2024-07-17T07:34:39Z</time>
      </trkpt>
      <trkpt lat="49.99549" lon="2.27066">
        <ele>122.1</ele>
        <time>2024-07-17T07:34:40Z</time>
      </trkpt>
      <trkpt lat="49.99548" lon="2.27068">
        <ele>122.1</ele>
        <time>2024-07-17T07:34:41Z</time>
      </trkpt>
      <trkpt lat="49.99548" lon="2.2707">
        <ele>122.1</ele>
        <time>2024-07-17T07:34:42Z</time>
      </trkpt>
      <trkpt lat="49.99547" lon="2.27071">
        <ele>122.1</ele>
        <time>2024-07-17T07:34:43Z</time>
      </trkpt>
      <trkpt lat="49.99547" lon="2.27073">
        <ele>122.1</ele>
        <time>2024-07-17T07:34:44Z</time>
      </trkpt>
      <trkpt lat="49.99546" lon="2.27076">
        <ele>122.1</ele>
        <time>2024-07-17T07:34:45Z</time>
      </trkpt>
      <trkpt lat="49.99546" lon="2.27078">
        <ele>122.1</ele>
        <time>2024-07-17T07:34:47Z</time>
      </trkpt>
      <trkpt lat="49.99546" lon="2.2708">
        <ele>122</ele>
        <time>2024-07-17T07:34:48Z</time>
      </trkpt>
      <trkpt lat="49.99546" lon="2.27081">
        <ele>122</ele>
        <time>2024-07-17T07:34:49Z</time>
      </trkpt>
      <trkpt lat="49.99546" lon="2.27085">
        <ele>122</ele>
        <time>2024-07-17T07:34:50Z</time>
      </trkpt>
      <trkpt lat="49.99546" lon="2.27086">
        <ele>122</ele>
        <time>2024-07-17T07:34:52Z</time>
      </trkpt>
      <trkpt lat="49.99546" lon="2.27088">
        <ele>122</ele>
        <time>2024-07-17T07:34:53Z</time>
      </trkpt>
      <trkpt lat="49.99547" lon="2.27089">
        <ele>122</ele>
        <time>2024-07-17T07:34:54Z</time>
      </trkpt>
      <trkpt lat="49.99547" lon="2.27091">
        <ele>122</ele>
        <time>2024-07-17T07:34:55Z</time>
      </trkpt>
      <trkpt lat="49.99547" lon="2.27092">
        <ele>122</ele>
        <time>2024-07-17T07:34:56Z</time>
      </trkpt>
      <trkpt lat="49.99548" lon="2.27094">
        <ele>122</ele>
        <time>2024-07-17T07:34:57Z</time>
      </trkpt>
      <trkpt lat="49.99548" lon="2.27096">
        <ele>122</ele>
        <time>2024-07-17T07:34:58Z</time>
      </trkpt>
      <trkpt lat="49.99548" lon="2.27097">
        <ele>122</ele>
        <time>2024-07-17T07:34:59Z</time>
      </trkpt>
      <trkpt lat="49.99548" lon="2.27098">
        <ele>122</ele>
        <time>2024-07-17T07:35:00Z</time>
      </trkpt>
      <trkpt lat="49.99548" lon="2.27099">
        <ele>122</ele>
        <time>2024-07-17T07:35:01Z</time>
      </trkpt>
      <trkpt lat="49.99548" lon="2.27101">
        <ele>122</ele>
        <time>2024-07-17T07:35:02Z</time>
      </trkpt>
      <trkpt lat="49.99548" lon="2.27102">
        <ele>122</ele>
        <time>2024-07-17T07:35:03Z</time>
      </trkpt>
      <trkpt lat="49.99548" lon="2.27103">
        <ele>122.1</ele>
        <time>2024-07-17T07:35:04Z</time>
      </trkpt>
      <trkpt lat="49.99548" lon="2.27105">
        <ele>122.1</ele>
        <time>2024-07-17T07:35:05Z</time>
      </trkpt>
      <trkpt lat="49.99548" lon="2.27105">
        <ele>122.1</ele>
        <time>2024-07-17T07:35:06Z</time>
      </trkpt>
      <trkpt lat="49.99547" lon="2.27106">
        <ele>122.1</ele>
        <time>2024-07-17T07:35:07Z</time>
      </trkpt>
      <trkpt lat="49.99547" lon="2.27106">
        <ele>122.1</ele>
        <time>2024-07-17T07:35:08Z</time>
      </trkpt>
      <trkpt lat="49.99547" lon="2.27106">
        <ele>122.1</ele>
        <time>2024-07-17T07:35:09Z</time>
      </trkpt>
      <trkpt lat="49.99547" lon="2.27106">
        <ele>122.1</ele>
        <time>2024-07-17T07:35:10Z</time>
      </trkpt>
      <trkpt lat="49.99547" lon="2.27106">
        <ele>122.1</ele>
        <time>2024-07-17T07:35:11Z</time>
      </trkpt>
      <trkpt lat="49.99546" lon="2.27106">
        <ele>122.1</ele>
        <time>2024-07-17T07:35:12Z</time>
      </trkpt>
      <trkpt lat="49.99546" lon="2.27107">
        <ele>122.1</ele>
        <time>2024-07-17T07:35:13Z</time>
      </trkpt>
      <trkpt lat="49.99546" lon="2.27107">
        <ele>122.1</ele>
        <time>2024-07-17T07:35:14Z</time>
      </trkpt>
      <trkpt lat="49.99546" lon="2.27107">
        <ele>122.1</ele>
        <time>2024-07-17T07:35:15Z</time>
      </trkpt>
      <trkpt lat="49.99545" lon="2.27107">
        <ele>122.1</ele>
        <time>2024-07-17T07:35:16Z</time>
      </trkpt>
      <trkpt lat="49.99545" lon="2.27107">
        <ele>122.1</ele>
        <time>2024-07-17T07:35:17Z</time>
      </trkpt>
      <trkpt lat="49.99545" lon="2.27107">
        <ele>122.1</ele>
        <time>2024-07-17T07:35:18Z</time>
      </trkpt>
      <trkpt lat="49.99545" lon="2.27107">
        <ele>122.1</ele>
        <time>2024-07-17T07:35:19Z</time>
      </trkpt>
      <trkpt lat="49.99545" lon="2.27107">
        <ele>122.1</ele>
        <time>2024-07-17T07:35:20Z</time>
      </trkpt>
      <trkpt lat="49.99545" lon="2.27107">
        <ele>122.1</ele>
        <time>2024-07-17T07:35:21Z</time>
      </trkpt>
      <trkpt lat="49.99545" lon="2.27107">
        <ele>122.1</ele>
        <time>2024-07-17T07:35:22Z</time>
      </trkpt>
      <trkpt lat="49.99545" lon="2.27107">
        <ele>122.1</ele>
        <time>2024-07-17T07:35:23Z</time>
      </trkpt>
      <trkpt lat="49.99545" lon="2.27107">
        <ele>122.1</ele>
        <time>2024-07-17T07:35:24Z</time>
      </trkpt>
      <trkpt lat="49.99545" lon="2.27107">
        <ele>122.1</ele>
        <time>2024-07-17T07:35:25Z</time>
      </trkpt>
      <trkpt lat="49.99545" lon="2.27107">
        <ele>122.1</ele>
        <time>2024-07-17T07:35:26Z</time>
      </trkpt>
      <trkpt lat="49.99545" lon="2.27107">
        <ele>122.1</ele>
        <time>2024-07-17T07:35:27Z</time>
      </trkpt>
      <trkpt lat="49.99545" lon="2.27107">
        <ele>122.1</ele>
        <time>2024-07-17T07:35:28Z</time>
      </trkpt>
      <trkpt lat="49.99545" lon="2.27107">
        <ele>122.1</ele>
        <time>2024-07-17T07:35:29Z</time>
      </trkpt>
      <trkpt lat="49.99545" lon="2.27107">
        <ele>122.1</ele>
        <time>2024-07-17T07:35:30Z</time>
      </trkpt>
      <trkpt lat="49.99545" lon="2.27107">
        <ele>122.1</ele>
        <time>2024-07-17T07:35:31Z</time>
      </trkpt>
      <trkpt lat="49.99545" lon="2.27107">
        <ele>122.1</ele>
        <time>2024-07-17T07:35:32Z</time>
      </trkpt>
      <trkpt lat="49.99545" lon="2.27107">
        <ele>122.1</ele>
        <time>2024-07-17T07:35:33Z</time>
      </trkpt>
      <trkpt lat="49.99545" lon="2.27107">
        <ele>122.1</ele>
        <time>2024-07-17T07:35:34Z</time>
      </trkpt>
      <trkpt lat="49.99547" lon="2.27104">
        <ele>122.1</ele>
        <time>2024-07-17T07:35:35Z</time>
      </trkpt>
      <trkpt lat="49.99547" lon="2.27103">
        <ele>122.2</ele>
        <time>2024-07-17T07:35:36Z</time>
      </trkpt>
      <trkpt lat="49.99547" lon="2.27103">
        <ele>122.2</ele>
        <time>2024-07-17T07:35:37Z</time>
      </trkpt>
      <trkpt lat="49.99547" lon="2.27103">
        <ele>122.2</ele>
        <time>2024-07-17T07:35:38Z</time>
      </trkpt>
      <trkpt lat="49.99547" lon="2.27103">
        <ele>122.2</ele>
        <time>2024-07-17T07:35:39Z</time>
      </trkpt>
      <trkpt lat="49.99547" lon="2.27103">
        <ele>122.2</ele>
        <time>2024-07-17T07:35:40Z</time>
      </trkpt>
      <trkpt lat="49.99547" lon="2.27103">
        <ele>122.2</ele>
        <time>2024-07-17T07:35:41Z</time>
      </trkpt>
      <trkpt lat="49.99547" lon="2.27103">
        <ele>122.2</ele>
        <time>2024-07-17T07:35:42Z</time>
      </trkpt>
      <trkpt lat="49.99547" lon="2.27103">
        <ele>122.2</ele>
        <time>2024-07-17T07:35:43Z</time>
      </trkpt>
      <trkpt lat="49.99547" lon="2.27103">
        <ele>122.2</ele>
        <time>2024-07-17T07:35:44Z</time>
      </trkpt>
      <trkpt lat="49.99547" lon="2.27103">
        <ele>122.2</ele>
        <time>2024-07-17T07:35:45Z</time>
      </trkpt>
      <trkpt lat="49.99547" lon="2.27103">
        <ele>122.2</ele>
        <time>2024-07-17T07:35:46Z</time>
      </trkpt>
      <trkpt lat="49.99547" lon="2.27103">
        <ele>122.2</ele>
        <time>2024-07-17T07:35:47Z</time>
      </trkpt>
      <trkpt lat="49.99547" lon="2.27103">
        <ele>122.2</ele>
        <time>2024-07-17T07:35:48Z</time>
      </trkpt>
      <trkpt lat="49.99547" lon="2.27103">
        <ele>122.2</ele>
        <time>2024-07-17T07:35:49Z</time>
      </trkpt>
      <trkpt lat="49.99547" lon="2.27103">
        <ele>122.2</ele>
        <time>2024-07-17T07:35:50Z</time>
      </trkpt>
      <trkpt lat="49.99547" lon="2.27103">
        <ele>122.2</ele>
        <time>2024-07-17T07:35:51Z</time>
      </trkpt>
      <trkpt lat="49.99547" lon="2.27103">
        <ele>122.2</ele>
        <time>2024-07-17T07:35:52Z</time>
      </trkpt>
      <trkpt lat="49.99547" lon="2.27103">
        <ele>122.2</ele>
        <time>2024-07-17T07:35:53Z</time>
      </trkpt>
      <trkpt lat="49.99547" lon="2.27103">
        <ele>122.2</ele>
        <time>2024-07-17T07:35:54Z</time>
      </trkpt>
      <trkpt lat="49.99547" lon="2.27103">
        <ele>122.2</ele>
        <time>2024-07-17T07:35:55Z</time>
      </trkpt>
      <trkpt lat="49.99547" lon="2.27103">
        <ele>122.2</ele>
        <time>2024-07-17T07:35:56Z</time>
      </trkpt>
      <trkpt lat="49.99547" lon="2.27103">
        <ele>122.2</ele>
        <time>2024-07-17T07:35:57Z</time>
      </trkpt>
      <trkpt lat="49.99547" lon="2.27103">
        <ele>122.2</ele>
        <time>2024-07-17T07:35:58Z</time>
      </trkpt>
      <trkpt lat="49.99547" lon="2.27103">
        <ele>122.2</ele>
        <time>2024-07-17T07:35:59Z</time>
      </trkpt>
      <trkpt lat="49.99547" lon="2.27103">
        <ele>122.2</ele>
        <time>2024-07-17T07:36:00Z</time>
      </trkpt>
      <trkpt lat="49.99547" lon="2.27103">
        <ele>122.2</ele>
        <time>2024-07-17T07:36:01Z</time>
      </trkpt>
      <trkpt lat="49.99547" lon="2.27103">
        <ele>122.2</ele>
        <time>2024-07-17T07:36:02Z</time>
      </trkpt>
      <trkpt lat="49.99547" lon="2.27103">
        <ele>122.2</ele>
        <time>2024-07-17T07:36:03Z</time>
      </trkpt>
      <trkpt lat="49.99547" lon="2.27103">
        <ele>122.2</ele>
        <time>2024-07-17T07:36:04Z</time>
      </trkpt>
      <trkpt lat="49.99547" lon="2.27103">
        <ele>122.2</ele>
        <time>2024-07-17T07:36:05Z</time>
      </trkpt>
      <trkpt lat="49.99547" lon="2.27103">
        <ele>122.2</ele>
        <time>2024-07-17T07:36:06Z</time>
      </trkpt>
      <trkpt lat="49.99547" lon="2.27103">
        <ele>122.2</ele>
        <time>2024-07-17T07:36:07Z</time>
      </trkpt>
      <trkpt lat="49.99547" lon="2.27103">
        <ele>122.2</ele>
        <time>2024-07-17T07:36:08Z</time>
      </trkpt>
      <trkpt lat="49.99547" lon="2.27103">
        <ele>122.2</ele>
        <time>2024-07-17T07:36:09Z</time>
      </trkpt>
      <trkpt lat="49.99547" lon="2.27103">
        <ele>122.2</ele>
        <time>2024-07-17T07:36:10Z</time>
      </trkpt>
      <trkpt lat="49.99547" lon="2.27103">
        <ele>122.2</ele>
        <time>2024-07-17T07:36:11Z</time>
      </trkpt>
      <trkpt lat="49.99547" lon="2.27103">
        <ele>122.2</ele>
        <time>2024-07-17T07:36:12Z</time>
      </trkpt>
      <trkpt lat="49.99547" lon="2.27103">
        <ele>122.2</ele>
        <time>2024-07-17T07:36:13Z</time>
      </trkpt>
      <trkpt lat="49.99547" lon="2.27103">
        <ele>122.2</ele>
        <time>2024-07-17T07:36:14Z</time>
      </trkpt>
      <trkpt lat="49.99547" lon="2.27103">
        <ele>122.2</ele>
        <time>2024-07-17T07:36:15Z</time>
      </trkpt>
      <trkpt lat="49.99547" lon="2.27103">
        <ele>122.2</ele>
        <time>2024-07-17T07:36:16Z</time>
      </trkpt>
      <trkpt lat="49.99547" lon="2.27103">
        <ele>122.2</ele>
        <time>2024-07-17T07:36:17Z</time>
      </trkpt>
      <trkpt lat="49.99547" lon="2.27103">
        <ele>122.2</ele>
        <time>2024-07-17T07:36:18Z</time>
      </trkpt>
      <trkpt lat="49.99547" lon="2.27103">
        <ele>122.2</ele>
        <time>2024-07-17T07:36:19Z</time>
      </trkpt>
      <trkpt lat="49.99547" lon="2.27103">
        <ele>122.2</ele>
        <time>2024-07-17T07:36:20Z</time>
      </trkpt>
      <trkpt lat="49.99547" lon="2.27103">
        <ele>122.2</ele>
        <time>2024-07-17T07:36:21Z</time>
      </trkpt>
      <trkpt lat="49.99547" lon="2.27103">
        <ele>122.2</ele>
        <time>2024-07-17T07:36:22Z</time>
      </trkpt>
      <trkpt lat="49.99547" lon="2.27103">
        <ele>122.2</ele>
        <time>2024-07-17T07:36:23Z</time>
      </trkpt>
      <trkpt lat="49.99547" lon="2.27103">
        <ele>122.2</ele>
        <time>2024-07-17T07:36:24Z</time>
      </trkpt>
      <trkpt lat="49.99547" lon="2.27103">
        <ele>122.2</ele>
        <time>2024-07-17T07:36:25Z</time>
      </trkpt>
      <trkpt lat="49.99547" lon="2.27103">
        <ele>122.2</ele>
        <time>2024-07-17T07:36:26Z</time>
      </trkpt>
      <trkpt lat="49.99547" lon="2.27103">
        <ele>122.2</ele>
        <time>2024-07-17T07:36:27Z</time>
      </trkpt>
      <trkpt lat="49.99547" lon="2.27103">
        <ele>122.2</ele>
        <time>2024-07-17T07:36:28Z</time>
      </trkpt>
      <trkpt lat="49.99547" lon="2.27103">
        <ele>122.2</ele>
        <time>2024-07-17T07:36:29Z</time>
      </trkpt>
      <trkpt lat="49.99547" lon="2.27103">
        <ele>122.2</ele>
        <time>2024-07-17T07:36:30Z</time>
      </trkpt>
      <trkpt lat="49.99547" lon="2.27103">
        <ele>122.2</ele>
        <time>2024-07-17T07:36:31Z</time>
      </trkpt>
      <trkpt lat="49.99547" lon="2.27103">
        <ele>122.2</ele>
        <time>2024-07-17T07:36:32Z</time>
      </trkpt>
      <trkpt lat="49.99547" lon="2.27103">
        <ele>122.2</ele>
        <time>2024-07-17T07:36:33Z</time>
      </trkpt>
      <trkpt lat="49.99547" lon="2.27103">
        <ele>122.2</ele>
        <time>2024-07-17T07:36:34Z</time>
      </trkpt>
      <trkpt lat="49.99547" lon="2.27103">
        <ele>122.2</ele>
        <time>2024-07-17T07:36:35Z</time>
      </trkpt>
      <trkpt lat="49.99547" lon="2.27103">
        <ele>122.2</ele>
        <time>2024-07-17T07:36:36Z</time>
      </trkpt>
      <trkpt lat="49.99547" lon="2.27103">
        <ele>122.2</ele>
        <time>2024-07-17T07:36:37Z</time>
      </trkpt>
      <trkpt lat="49.99547" lon="2.27103">
        <ele>122.2</ele>
        <time>2024-07-17T07:36:38Z</time>
      </trkpt>
      <trkpt lat="49.99547" lon="2.27103">
        <ele>122.2</ele>
        <time>2024-07-17T07:36:39Z</time>
      </trkpt>
      <trkpt lat="49.99547" lon="2.27103">
        <ele>122.2</ele>
        <time>2024-07-17T07:36:40Z</time>
      </trkpt>
      <trkpt lat="49.99547" lon="2.27103">
        <ele>122.2</ele>
        <time>2024-07-17T07:36:41Z</time>
      </trkpt>
      <trkpt lat="49.99547" lon="2.27103">
        <ele>122.2</ele>
        <time>2024-07-17T07:36:42Z</time>
      </trkpt>
      <trkpt lat="49.99547" lon="2.27103">
        <ele>122.2</ele>
        <time>2024-07-17T07:36:43Z</time>
      </trkpt>
      <trkpt lat="49.99547" lon="2.27103">
        <ele>122.2</ele>
        <time>2024-07-17T07:36:44Z</time>
      </trkpt>
      <trkpt lat="49.99547" lon="2.27103">
        <ele>122.2</ele>
        <time>2024-07-17T07:36:45Z</time>
      </trkpt>
      <trkpt lat="49.99547" lon="2.27103">
        <ele>122.2</ele>
        <time>2024-07-17T07:36:46Z</time>
      </trkpt>
      <trkpt lat="49.99547" lon="2.27103">
        <ele>122.2</ele>
        <time>2024-07-17T07:36:47Z</time>
      </trkpt>
      <trkpt lat="49.99547" lon="2.27103">
        <ele>122.2</ele>
        <time>2024-07-17T07:36:48Z</time>
      </trkpt>
      <trkpt lat="49.99547" lon="2.27103">
        <ele>122.2</ele>
        <time>2024-07-17T07:36:49Z</time>
      </trkpt>
      <trkpt lat="49.99547" lon="2.27103">
        <ele>122.2</ele>
        <time>2024-07-17T07:36:50Z</time>
      </trkpt>
      <trkpt lat="49.99547" lon="2.27103">
        <ele>122.2</ele>
        <time>2024-07-17T07:36:51Z</time>
      </trkpt>
      <trkpt lat="49.99547" lon="2.27103">
        <ele>122.2</ele>
        <time>2024-07-17T07:36:52Z</time>
      </trkpt>
      <trkpt lat="49.99547" lon="2.27103">
        <ele>122.2</ele>
        <time>2024-07-17T07:36:53Z</time>
      </trkpt>
      <trkpt lat="49.99547" lon="2.27103">
        <ele>122.2</ele>
        <time>2024-07-17T07:36:54Z</time>
      </trkpt>
      <trkpt lat="49.99547" lon="2.27103">
        <ele>122.2</ele>
        <time>2024-07-17T07:36:55Z</time>
      </trkpt>
      <trkpt lat="49.99547" lon="2.27103">
        <ele>122.2</ele>
        <time>2024-07-17T07:36:56Z</time>
      </trkpt>
      <trkpt lat="49.99547" lon="2.27103">
        <ele>122.2</ele>
        <time>2024-07-17T07:36:57Z</time>
      </trkpt>
      <trkpt lat="49.99547" lon="2.27103">
        <ele>122.2</ele>
        <time>2024-07-17T07:36:58Z</time>
      </trkpt>
      <trkpt lat="49.99547" lon="2.27103">
        <ele>122.2</ele>
        <time>2024-07-17T07:36:59Z</time>
      </trkpt>
      <trkpt lat="49.99547" lon="2.27103">
        <ele>122.2</ele>
        <time>2024-07-17T07:37:00Z</time>
      </trkpt>
      <trkpt lat="49.99547" lon="2.27103">
        <ele>122.2</ele>
        <time>2024-07-17T07:37:01Z</time>
      </trkpt>
      <trkpt lat="49.99547" lon="2.27103">
        <ele>122.2</ele>
        <time>2024-07-17T07:37:02Z</time>
      </trkpt>
      <trkpt lat="49.99547" lon="2.27103">
        <ele>122.2</ele>
        <time>2024-07-17T07:37:03Z</time>
      </trkpt>
      <trkpt lat="49.99547" lon="2.27103">
        <ele>122.2</ele>
        <time>2024-07-17T07:37:04Z</time>
      </trkpt>
      <trkpt lat="49.99547" lon="2.27103">
        <ele>122.2</ele>
        <time>2024-07-17T07:37:05Z</time>
      </trkpt>
      <trkpt lat="49.99547" lon="2.27103">
        <ele>122.2</ele>
        <time>2024-07-17T07:37:06Z</time>
      </trkpt>
      <trkpt lat="49.99547" lon="2.27103">
        <ele>122.2</ele>
        <time>2024-07-17T07:37:07Z</time>
      </trkpt>
      <trkpt lat="49.99547" lon="2.27103">
        <ele>122.2</ele>
        <time>2024-07-17T07:37:08Z</time>
      </trkpt>
      <trkpt lat="49.99547" lon="2.27103">
        <ele>122.2</ele>
        <time>2024-07-17T07:37:09Z</time>
      </trkpt>
      <trkpt lat="49.99547" lon="2.27103">
        <ele>122.2</ele>
        <time>2024-07-17T07:37:10Z</time>
      </trkpt>
      <trkpt lat="49.99547" lon="2.27103">
        <ele>122.2</ele>
        <time>2024-07-17T07:37:11Z</time>
      </trkpt>
      <trkpt lat="49.99547" lon="2.27103">
        <ele>122.2</ele>
        <time>2024-07-17T07:37:12Z</time>
      </trkpt>
      <trkpt lat="49.99547" lon="2.27103">
        <ele>122.2</ele>
        <time>2024-07-17T07:37:13Z</time>
      </trkpt>
      <trkpt lat="49.99547" lon="2.27103">
        <ele>122.2</ele>
        <time>2024-07-17T07:37:14Z</time>
      </trkpt>
      <trkpt lat="49.99547" lon="2.27103">
        <ele>122.2</ele>
        <time>2024-07-17T07:37:15Z</time>
      </trkpt>
      <trkpt lat="49.99547" lon="2.27103">
        <ele>122.2</ele>
        <time>2024-07-17T07:37:16Z</time>
      </trkpt>
      <trkpt lat="49.99547" lon="2.27103">
        <ele>122.2</ele>
        <time>2024-07-17T07:37:17Z</time>
      </trkpt>
      <trkpt lat="49.99547" lon="2.27103">
        <ele>122.2</ele>
        <time>2024-07-17T07:37:18Z</time>
      </trkpt>
      <trkpt lat="49.99547" lon="2.27103">
        <ele>122.2</ele>
        <time>2024-07-17T07:37:19Z</time>
      </trkpt>
      <trkpt lat="49.99547" lon="2.27103">
        <ele>122.2</ele>
        <time>2024-07-17T07:37:20Z</time>
      </trkpt>
      <trkpt lat="49.99547" lon="2.27103">
        <ele>122.2</ele>
        <time>2024-07-17T07:37:21Z</time>
      </trkpt>
      <trkpt lat="49.99547" lon="2.27103">
        <ele>122.2</ele>
        <time>2024-07-17T07:37:22Z</time>
      </trkpt>
      <trkpt lat="49.99547" lon="2.27103">
        <ele>122.2</ele>
        <time>2024-07-17T07:37:23Z</time>
      </trkpt>
      <trkpt lat="49.99547" lon="2.27103">
        <ele>122.2</ele>
        <time>2024-07-17T07:37:24Z</time>
      </trkpt>
      <trkpt lat="49.99547" lon="2.27103">
        <ele>122.2</ele>
        <time>2024-07-17T07:37:25Z</time>
      </trkpt>
      <trkpt lat="49.99547" lon="2.27103">
        <ele>122.2</ele>
        <time>2024-07-17T07:37:26Z</time>
      </trkpt>
      <trkpt lat="49.99547" lon="2.27103">
        <ele>122.2</ele>
        <time>2024-07-17T07:37:27Z</time>
      </trkpt>
      <trkpt lat="49.99547" lon="2.27103">
        <ele>122.2</ele>
        <time>2024-07-17T07:37:28Z</time>
      </trkpt>
      <trkpt lat="49.99547" lon="2.27103">
        <ele>122.2</ele>
        <time>2024-07-17T07:37:29Z</time>
      </trkpt>
      <trkpt lat="49.99547" lon="2.27103">
        <ele>122.2</ele>
        <time>2024-07-17T07:37:30Z</time>
      </trkpt>
      <trkpt lat="49.99547" lon="2.27103">
        <ele>122.2</ele>
        <time>2024-07-17T07:37:31Z</time>
      </trkpt>
      <trkpt lat="49.99547" lon="2.27103">
        <ele>122.2</ele>
        <time>2024-07-17T07:37:32Z</time>
      </trkpt>
      <trkpt lat="49.99547" lon="2.27103">
        <ele>122.2</ele>
        <time>2024-07-17T07:37:33Z</time>
      </trkpt>
      <trkpt lat="49.99547" lon="2.27103">
        <ele>122.2</ele>
        <time>2024-07-17T07:37:34Z</time>
      </trkpt>
      <trkpt lat="49.99547" lon="2.27103">
        <ele>122.2</ele>
        <time>2024-07-17T07:37:35Z</time>
      </trkpt>
      <trkpt lat="49.99547" lon="2.27103">
        <ele>122.2</ele>
        <time>2024-07-17T07:37:36Z</time>
      </trkpt>
      <trkpt lat="49.99547" lon="2.27103">
        <ele>122.2</ele>
        <time>2024-07-17T07:37:37Z</time>
      </trkpt>
      <trkpt lat="49.99547" lon="2.27103">
        <ele>122.2</ele>
        <time>2024-07-17T07:37:38Z</time>
      </trkpt>
      <trkpt lat="49.99547" lon="2.27103">
        <ele>122.2</ele>
        <time>2024-07-17T07:37:39Z</time>
      </trkpt>
      <trkpt lat="49.99547" lon="2.27103">
        <ele>122.2</ele>
        <time>2024-07-17T07:37:40Z</time>
      </trkpt>
      <trkpt lat="49.99547" lon="2.27103">
        <ele>122.2</ele>
        <time>2024-07-17T07:37:41Z</time>
      </trkpt>
      <trkpt lat="49.99547" lon="2.27103">
        <ele>122.2</ele>
        <time>2024-07-17T07:37:42Z</time>
      </trkpt>
      <trkpt lat="49.99547" lon="2.27103">
        <ele>122.2</ele>
        <time>2024-07-17T07:37:43Z</time>
      </trkpt>
      <trkpt lat="49.99547" lon="2.27103">
        <ele>122.2</ele>
        <time>2024-07-17T07:37:44Z</time>
      </trkpt>
      <trkpt lat="49.99547" lon="2.27103">
        <ele>122.2</ele>
        <time>2024-07-17T07:37:45Z</time>
      </trkpt>
      <trkpt lat="49.99547" lon="2.27103">
        <ele>122.2</ele>
        <time>2024-07-17T07:37:46Z</time>
      </trkpt>
      <trkpt lat="49.99547" lon="2.27103">
        <ele>122.2</ele>
        <time>2024-07-17T07:37:47Z</time>
      </trkpt>
      <trkpt lat="49.99547" lon="2.27103">
        <ele>122.2</ele>
        <time>2024-07-17T07:37:48Z</time>
      </trkpt>
      <trkpt lat="49.99547" lon="2.27103">
        <ele>122.2</ele>
        <time>2024-07-17T07:37:49Z</time>
      </trkpt>
      <trkpt lat="49.99547" lon="2.27103">
        <ele>122.2</ele>
        <time>2024-07-17T07:37:50Z</time>
      </trkpt>
      <trkpt lat="49.99547" lon="2.27103">
        <ele>122.2</ele>
        <time>2024-07-17T07:37:51Z</time>
      </trkpt>
      <trkpt lat="49.99547" lon="2.27103">
        <ele>122.2</ele>
        <time>2024-07-17T07:37:52Z</time>
      </trkpt>
      <trkpt lat="49.99547" lon="2.27103">
        <ele>122.2</ele>
        <time>2024-07-17T07:37:53Z</time>
      </trkpt>
      <trkpt lat="49.99547" lon="2.27103">
        <ele>122.2</ele>
        <time>2024-07-17T07:37:54Z</time>
      </trkpt>
      <trkpt lat="49.99547" lon="2.27103">
        <ele>122.2</ele>
        <time>2024-07-17T07:37:55Z</time>
      </trkpt>
      <trkpt lat="49.99547" lon="2.27103">
        <ele>122.2</ele>
        <time>2024-07-17T07:37:56Z</time>
      </trkpt>
      <trkpt lat="49.99547" lon="2.27103">
        <ele>122.2</ele>
        <time>2024-07-17T07:37:57Z</time>
      </trkpt>
      <trkpt lat="49.99547" lon="2.27103">
        <ele>122.2</ele>
        <time>2024-07-17T07:37:58Z</time>
      </trkpt>
      <trkpt lat="49.99547" lon="2.27103">
        <ele>122.2</ele>
        <time>2024-07-17T07:37:59Z</time>
      </trkpt>
      <trkpt lat="49.99547" lon="2.27103">
        <ele>122.2</ele>
        <time>2024-07-17T07:38:00Z</time>
      </trkpt>
      <trkpt lat="49.99547" lon="2.27103">
        <ele>122.2</ele>
        <time>2024-07-17T07:38:01Z</time>
      </trkpt>
      <trkpt lat="49.99547" lon="2.27103">
        <ele>122.2</ele>
        <time>2024-07-17T07:38:02Z</time>
      </trkpt>
      <trkpt lat="49.99547" lon="2.27103">
        <ele>122.2</ele>
        <time>2024-07-17T07:38:03Z</time>
      </trkpt>
      <trkpt lat="49.99547" lon="2.27103">
        <ele>122.2</ele>
        <time>2024-07-17T07:38:04Z</time>
      </trkpt>
      <trkpt lat="49.99547" lon="2.27103">
        <ele>122.2</ele>
        <time>2024-07-17T07:38:05Z</time>
      </trkpt>
      <trkpt lat="49.99547" lon="2.27103">
        <ele>122.2</ele>
        <time>2024-07-17T07:38:06Z</time>
      </trkpt>
      <trkpt lat="49.99547" lon="2.27103">
        <ele>122.2</ele>
        <time>2024-07-17T07:38:07Z</time>
      </trkpt>
      <trkpt lat="49.99547" lon="2.27103">
        <ele>122.2</ele>
        <time>2024-07-17T07:38:08Z</time>
      </trkpt>
      <trkpt lat="49.99547" lon="2.27103">
        <ele>122.2</ele>
        <time>2024-07-17T07:38:09Z</time>
      </trkpt>
      <trkpt lat="49.99547" lon="2.27103">
        <ele>122.2</ele>
        <time>2024-07-17T07:38:10Z</time>
      </trkpt>
      <trkpt lat="49.99547" lon="2.27103">
        <ele>122.2</ele>
        <time>2024-07-17T07:38:11Z</time>
      </trkpt>
      <trkpt lat="49.99547" lon="2.27103">
        <ele>122.2</ele>
        <time>2024-07-17T07:38:12Z</time>
      </trkpt>
      <trkpt lat="49.99547" lon="2.27103">
        <ele>122.2</ele>
        <time>2024-07-17T07:38:13Z</time>
      </trkpt>
      <trkpt lat="49.99547" lon="2.27103">
        <ele>122.2</ele>
        <time>2024-07-17T07:38:14Z</time>
      </trkpt>
      <trkpt lat="49.99547" lon="2.27103">
        <ele>122.2</ele>
        <time>2024-07-17T07:38:15Z</time>
      </trkpt>
      <trkpt lat="49.99547" lon="2.27103">
        <ele>122.2</ele>
        <time>2024-07-17T07:38:16Z</time>
      </trkpt>
      <trkpt lat="49.99547" lon="2.27103">
        <ele>122.2</ele>
        <time>2024-07-17T07:38:17Z</time>
      </trkpt>
      <trkpt lat="49.99547" lon="2.27103">
        <ele>122.2</ele>
        <time>2024-07-17T07:38:18Z</time>
      </trkpt>
      <trkpt lat="49.99547" lon="2.27103">
        <ele>122.2</ele>
        <time>2024-07-17T07:38:19Z</time>
      </trkpt>
      <trkpt lat="49.99547" lon="2.27103">
        <ele>122.2</ele>
        <time>2024-07-17T07:38:20Z</time>
      </trkpt>
      <trkpt lat="49.99547" lon="2.27103">
        <ele>122.2</ele>
        <time>2024-07-17T07:38:21Z</time>
      </trkpt>
      <trkpt lat="49.99547" lon="2.27103">
        <ele>122.2</ele>
        <time>2024-07-17T07:38:22Z</time>
      </trkpt>
      <trkpt lat="49.99547" lon="2.27103">
        <ele>122.2</ele>
        <time>2024-07-17T07:38:23Z</time>
      </trkpt>
      <trkpt lat="49.99547" lon="2.27103">
        <ele>122.2</ele>
        <time>2024-07-17T07:38:24Z</time>
      </trkpt>
      <trkpt lat="49.99547" lon="2.27103">
        <ele>122.2</ele>
        <time>2024-07-17T07:38:25Z</time>
      </trkpt>
      <trkpt lat="49.99547" lon="2.27103">
        <ele>122.2</ele>
        <time>2024-07-17T07:38:26Z</time>
      </trkpt>
      <trkpt lat="49.99547" lon="2.27103">
        <ele>122.2</ele>
        <time>2024-07-17T07:38:27Z</time>
      </trkpt>
      <trkpt lat="49.99547" lon="2.27103">
        <ele>122.2</ele>
        <time>2024-07-17T07:38:28Z</time>
      </trkpt>
      <trkpt lat="49.99547" lon="2.27103">
        <ele>122.2</ele>
        <time>2024-07-17T07:38:29Z</time>
      </trkpt>
      <trkpt lat="49.99547" lon="2.27103">
        <ele>122.2</ele>
        <time>2024-07-17T07:38:30Z</time>
      </trkpt>
      <trkpt lat="49.99547" lon="2.27103">
        <ele>122.2</ele>
        <time>2024-07-17T07:38:31Z</time>
      </trkpt>
      <trkpt lat="49.99547" lon="2.27103">
        <ele>122.2</ele>
        <time>2024-07-17T07:38:32Z</time>
      </trkpt>
      <trkpt lat="49.99547" lon="2.27103">
        <ele>122.2</ele>
        <time>2024-07-17T07:38:33Z</time>
      </trkpt>
      <trkpt lat="49.99547" lon="2.27103">
        <ele>122.2</ele>
        <time>2024-07-17T07:38:34Z</time>
      </trkpt>
      <trkpt lat="49.99547" lon="2.27103">
        <ele>122.2</ele>
        <time>2024-07-17T07:38:35Z</time>
      </trkpt>
      <trkpt lat="49.99547" lon="2.27103">
        <ele>122.2</ele>
        <time>2024-07-17T07:38:36Z</time>
      </trkpt>
      <trkpt lat="49.99547" lon="2.27103">
        <ele>122.2</ele>
        <time>2024-07-17T07:38:37Z</time>
      </trkpt>
      <trkpt lat="49.99547" lon="2.27103">
        <ele>122.2</ele>
        <time>2024-07-17T07:38:38Z</time>
      </trkpt>
      <trkpt lat="49.99547" lon="2.27103">
        <ele>122.2</ele>
        <time>2024-07-17T07:38:39Z</time>
      </trkpt>
      <trkpt lat="49.99547" lon="2.27103">
        <ele>122.2</ele>
        <time>2024-07-17T07:38:40Z</time>
      </trkpt>
      <trkpt lat="49.99547" lon="2.27103">
        <ele>122.2</ele>
        <time>2024-07-17T07:38:41Z</time>
      </trkpt>
      <trkpt lat="49.99547" lon="2.27103">
        <ele>122.2</ele>
        <time>2024-07-17T07:38:42Z</time>
      </trkpt>
      <trkpt lat="49.99547" lon="2.27103">
        <ele>122.2</ele>
        <time>2024-07-17T07:38:43Z</time>
      </trkpt>
      <trkpt lat="49.99547" lon="2.27103">
        <ele>122.2</ele>
        <time>2024-07-17T07:38:44Z</time>
      </trkpt>
      <trkpt lat="49.99547" lon="2.27103">
        <ele>122.2</ele>
        <time>2024-07-17T07:38:45Z</time>
      </trkpt>
      <trkpt lat="49.99547" lon="2.27103">
        <ele>122.2</ele>
        <time>2024-07-17T07:38:46Z</time>
      </trkpt>
      <trkpt lat="49.99547" lon="2.27103">
        <ele>122.2</ele>
        <time>2024-07-17T07:38:47Z</time>
      </trkpt>
      <trkpt lat="49.99547" lon="2.27103">
        <ele>122.2</ele>
        <time>2024-07-17T07:38:48Z</time>
      </trkpt>
      <trkpt lat="49.99547" lon="2.27103">
        <ele>122.2</ele>
        <time>2024-07-17T07:38:49Z</time>
      </trkpt>
      <trkpt lat="49.99547" lon="2.27103">
        <ele>122.2</ele>
        <time>2024-07-17T07:38:50Z</time>
      </trkpt>
      <trkpt lat="49.99547" lon="2.27103">
        <ele>122.2</ele>
        <time>2024-07-17T07:38:51Z</time>
      </trkpt>
      <trkpt lat="49.99547" lon="2.27103">
        <ele>122.2</ele>
        <time>2024-07-17T07:38:52Z</time>
      </trkpt>
      <trkpt lat="49.99547" lon="2.27103">
        <ele>122.2</ele>
        <time>2024-07-17T07:38:53Z</time>
      </trkpt>
      <trkpt lat="49.99547" lon="2.27103">
        <ele>122.2</ele>
        <time>2024-07-17T07:38:54Z</time>
      </trkpt>
      <trkpt lat="49.99547" lon="2.27103">
        <ele>122.2</ele>
        <time>2024-07-17T07:38:55Z</time>
      </trkpt>
      <trkpt lat="49.99547" lon="2.27103">
        <ele>122.2</ele>
        <time>2024-07-17T07:38:56Z</time>
      </trkpt>
      <trkpt lat="49.99547" lon="2.27103">
        <ele>122.2</ele>
        <time>2024-07-17T07:38:57Z</time>
      </trkpt>
      <trkpt lat="49.99547" lon="2.27103">
        <ele>122.2</ele>
        <time>2024-07-17T07:38:58Z</time>
      </trkpt>
      <trkpt lat="49.99547" lon="2.27103">
        <ele>122.2</ele>
        <time>2024-07-17T07:38:59Z</time>
      </trkpt>
      <trkpt lat="49.99547" lon="2.27103">
        <ele>122.2</ele>
        <time>2024-07-17T07:39:00Z</time>
      </trkpt>
      <trkpt lat="49.99547" lon="2.27103">
        <ele>122.2</ele>
        <time>2024-07-17T07:39:01Z</time>
      </trkpt>
      <trkpt lat="49.99547" lon="2.27103">
        <ele>122.2</ele>
        <time>2024-07-17T07:39:02Z</time>
      </trkpt>
      <trkpt lat="49.99547" lon="2.27103">
        <ele>122.2</ele>
        <time>2024-07-17T07:39:03Z</time>
      </trkpt>
      <trkpt lat="49.99547" lon="2.27103">
        <ele>122.2</ele>
        <time>2024-07-17T07:39:04Z</time>
      </trkpt>
      <trkpt lat="49.99547" lon="2.27103">
        <ele>122.2</ele>
        <time>2024-07-17T07:39:05Z</time>
      </trkpt>
      <trkpt lat="49.99547" lon="2.27103">
        <ele>122.2</ele>
        <time>2024-07-17T07:39:06Z</time>
      </trkpt>
      <trkpt lat="49.99547" lon="2.27103">
        <ele>122.2</ele>
        <time>2024-07-17T07:39:07Z</time>
      </trkpt>
      <trkpt lat="49.99547" lon="2.27103">
        <ele>122.2</ele>
        <time>2024-07-17T07:39:08Z</time>
      </trkpt>
      <trkpt lat="49.99547" lon="2.27103">
        <ele>122.2</ele>
        <time>2024-07-17T07:39:09Z</time>
      </trkpt>
      <trkpt lat="49.99547" lon="2.27103">
        <ele>122.2</ele>
        <time>2024-07-17T07:39:10Z</time>
      </trkpt>
      <trkpt lat="49.99547" lon="2.27103">
        <ele>122.2</ele>
        <time>2024-07-17T07:39:11Z</time>
      </trkpt>
      <trkpt lat="49.99547" lon="2.27103">
        <ele>122.2</ele>
        <time>2024-07-17T07:39:12Z</time>
      </trkpt>
      <trkpt lat="49.99547" lon="2.27103">
        <ele>122.2</ele>
        <time>2024-07-17T07:39:13Z</time>
      </trkpt>
      <trkpt lat="49.99547" lon="2.27103">
        <ele>122.2</ele>
        <time>2024-07-17T07:39:14Z</time>
      </trkpt>
      <trkpt lat="49.99547" lon="2.27103">
        <ele>122.2</ele>
        <time>2024-07-17T07:39:15Z</time>
      </trkpt>
      <trkpt lat="49.99547" lon="2.27103">
        <ele>122.2</ele>
        <time>2024-07-17T07:39:16Z</time>
      </trkpt>
      <trkpt lat="49.99547" lon="2.27103">
        <ele>122.2</ele>
        <time>2024-07-17T07:39:17Z</time>
      </trkpt>
      <trkpt lat="49.99547" lon="2.27103">
        <ele>122.2</ele>
        <time>2024-07-17T07:39:18Z</time>
      </trkpt>
      <trkpt lat="49.99547" lon="2.27103">
        <ele>122.2</ele>
        <time>2024-07-17T07:39:19Z</time>
      </trkpt>
      <trkpt lat="49.99547" lon="2.27103">
        <ele>122.2</ele>
        <time>2024-07-17T07:39:20Z</time>
      </trkpt>
      <trkpt lat="49.99547" lon="2.27103">
        <ele>122.2</ele>
        <time>2024-07-17T07:39:21Z</time>
      </trkpt>
      <trkpt lat="49.99547" lon="2.27103">
        <ele>122.2</ele>
        <time>2024-07-17T07:39:22Z</time>
      </trkpt>
      <trkpt lat="49.99547" lon="2.27103">
        <ele>122.2</ele>
        <time>2024-07-17T07:39:23Z</time>
      </trkpt>
      <trkpt lat="49.99547" lon="2.27103">
        <ele>122.2</ele>
        <time>2024-07-17T07:39:24Z</time>
      </trkpt>
      <trkpt lat="49.99547" lon="2.27103">
        <ele>122.2</ele>
        <time>2024-07-17T07:39:25Z</time>
      </trkpt>
      <trkpt lat="49.99547" lon="2.27103">
        <ele>122.2</ele>
        <time>2024-07-17T07:39:26Z</time>
      </trkpt>
      <trkpt lat="49.99547" lon="2.27103">
        <ele>122.2</ele>
        <time>2024-07-17T07:39:27Z</time>
      </trkpt>
      <trkpt lat="49.99547" lon="2.27103">
        <ele>122.2</ele>
        <time>2024-07-17T07:39:28Z</time>
      </trkpt>
      <trkpt lat="49.99547" lon="2.27103">
        <ele>122.2</ele>
        <time>2024-07-17T07:39:29Z</time>
      </trkpt>
      <trkpt lat="49.99547" lon="2.27103">
        <ele>122.2</ele>
        <time>2024-07-17T07:39:30Z</time>
      </trkpt>
      <trkpt lat="49.99547" lon="2.27103">
        <ele>122.2</ele>
        <time>2024-07-17T07:39:31Z</time>
      </trkpt>
      <trkpt lat="49.99547" lon="2.27103">
        <ele>122.2</ele>
        <time>2024-07-17T07:39:32Z</time>
      </trkpt>
      <trkpt lat="49.99547" lon="2.27103">
        <ele>122.2</ele>
        <time>2024-07-17T07:39:33Z</time>
      </trkpt>
      <trkpt lat="49.99547" lon="2.27103">
        <ele>122.2</ele>
        <time>2024-07-17T07:39:34Z</time>
      </trkpt>
      <trkpt lat="49.99547" lon="2.27103">
        <ele>122.2</ele>
        <time>2024-07-17T07:39:35Z</time>
      </trkpt>
      <trkpt lat="49.99547" lon="2.27103">
        <ele>122.2</ele>
        <time>2024-07-17T07:39:36Z</time>
      </trkpt>
      <trkpt lat="49.99547" lon="2.27103">
        <ele>122.2</ele>
        <time>2024-07-17T07:39:37Z</time>
      </trkpt>
      <trkpt lat="49.99547" lon="2.27103">
        <ele>122.2</ele>
        <time>2024-07-17T07:39:38Z</time>
      </trkpt>
      <trkpt lat="49.99547" lon="2.27103">
        <ele>122.2</ele>
        <time>2024-07-17T07:39:39Z</time>
      </trkpt>
      <trkpt lat="49.99547" lon="2.27103">
        <ele>122.2</ele>
        <time>2024-07-17T07:39:40Z</time>
      </trkpt>
      <trkpt lat="49.99547" lon="2.27103">
        <ele>122.2</ele>
        <time>2024-07-17T07:39:41Z</time>
      </trkpt>
      <trkpt lat="49.99547" lon="2.27103">
        <ele>122.2</ele>
        <time>2024-07-17T07:39:42Z</time>
      </trkpt>
      <trkpt lat="49.99547" lon="2.27103">
        <ele>122.2</ele>
        <time>2024-07-17T07:39:43Z</time>
      </trkpt>
      <trkpt lat="49.99547" lon="2.27103">
        <ele>122.2</ele>
        <time>2024-07-17T07:39:44Z</time>
      </trkpt>
      <trkpt lat="49.99547" lon="2.27103">
        <ele>122.2</ele>
        <time>2024-07-17T07:39:45Z</time>
      </trkpt>
      <trkpt lat="49.99547" lon="2.27103">
        <ele>122.2</ele>
        <time>2024-07-17T07:39:46Z</time>
      </trkpt>
      <trkpt lat="49.99547" lon="2.27103">
        <ele>122.2</ele>
        <time>2024-07-17T07:39:47Z</time>
      </trkpt>
      <trkpt lat="49.99547" lon="2.27103">
        <ele>122.2</ele>
        <time>2024-07-17T07:39:48Z</time>
      </trkpt>
      <trkpt lat="49.99547" lon="2.27103">
        <ele>122.2</ele>
        <time>2024-07-17T07:39:49Z</time>
      </trkpt>
      <trkpt lat="49.99547" lon="2.27103">
        <ele>122.2</ele>
        <time>2024-07-17T07:39:50Z</time>
      </trkpt>
      <trkpt lat="49.99547" lon="2.27103">
        <ele>122.3</ele>
        <time>2024-07-17T07:39:51Z</time>
      </trkpt>
      <trkpt lat="49.99547" lon="2.27104">
        <ele>122.3</ele>
        <time>2024-07-17T07:39:52Z</time>
      </trkpt>
      <trkpt lat="49.99547" lon="2.27104">
        <ele>122.3</ele>
        <time>2024-07-17T07:39:53Z</time>
      </trkpt>
      <trkpt lat="49.99548" lon="2.27104">
        <ele>122.3</ele>
        <time>2024-07-17T07:39:54Z</time>
      </trkpt>
      <trkpt lat="49.99548" lon="2.27104">
        <ele>122.3</ele>
        <time>2024-07-17T07:39:55Z</time>
      </trkpt>
      <trkpt lat="49.99549" lon="2.27103">
        <ele>122.4</ele>
        <time>2024-07-17T07:39:56Z</time>
      </trkpt>
      <trkpt lat="49.9955" lon="2.27102">
        <ele>122.4</ele>
        <time>2024-07-17T07:39:58Z</time>
      </trkpt>
      <trkpt lat="49.99551" lon="2.27102">
        <ele>122.5</ele>
        <time>2024-07-17T07:39:59Z</time>
      </trkpt>
      <trkpt lat="49.99552" lon="2.27101">
        <ele>122.5</ele>
        <time>2024-07-17T07:40:00Z</time>
      </trkpt>
      <trkpt lat="49.99554" lon="2.27101">
        <ele>122.5</ele>
        <time>2024-07-17T07:40:01Z</time>
      </trkpt>
      <trkpt lat="49.99554" lon="2.27101">
        <ele>122.6</ele>
        <time>2024-07-17T07:40:02Z</time>
      </trkpt>
      <trkpt lat="49.99555" lon="2.27101">
        <ele>122.6</ele>
        <time>2024-07-17T07:40:03Z</time>
      </trkpt>
      <trkpt lat="49.99556" lon="2.27101">
        <ele>122.6</ele>
        <time>2024-07-17T07:40:04Z</time>
      </trkpt>
      <trkpt lat="49.99556" lon="2.27101">
        <ele>122.7</ele>
        <time>2024-07-17T07:40:05Z</time>
      </trkpt>
      <trkpt lat="49.99557" lon="2.27101">
        <ele>122.7</ele>
        <time>2024-07-17T07:40:06Z</time>
      </trkpt>
      <trkpt lat="49.99558" lon="2.27101">
        <ele>122.7</ele>
        <time>2024-07-17T07:40:07Z</time>
      </trkpt>
      <trkpt lat="49.99558" lon="2.27101">
        <ele>122.7</ele>
        <time>2024-07-17T07:40:08Z</time>
      </trkpt>
      <trkpt lat="49.99559" lon="2.271">
        <ele>122.8</ele>
        <time>2024-07-17T07:40:09Z</time>
      </trkpt>
      <trkpt lat="49.9956" lon="2.271">
        <ele>122.8</ele>
        <time>2024-07-17T07:40:10Z</time>
      </trkpt>
      <trkpt lat="49.99559" lon="2.27099">
        <ele>122.8</ele>
        <time>2024-07-17T07:40:11Z</time>
      </trkpt>
      <trkpt lat="49.9956" lon="2.27099">
        <ele>122.8</ele>
        <time>2024-07-17T07:40:12Z</time>
      </trkpt>
      <trkpt lat="49.9956" lon="2.27098">
        <ele>122.9</ele>
        <time>2024-07-17T07:40:13Z</time>
      </trkpt>
      <trkpt lat="49.99561" lon="2.27098">
        <ele>122.9</ele>
        <time>2024-07-17T07:40:14Z</time>
      </trkpt>
      <trkpt lat="49.99562" lon="2.27097">
        <ele>122.9</ele>
        <time>2024-07-17T07:40:15Z</time>
      </trkpt>
      <trkpt lat="49.99563" lon="2.27097">
        <ele>122.9</ele>
        <time>2024-07-17T07:40:16Z</time>
      </trkpt>
      <trkpt lat="49.99563" lon="2.27098">
        <ele>123</ele>
        <time>2024-07-17T07:40:17Z</time>
      </trkpt>
      <trkpt lat="49.99564" lon="2.27098">
        <ele>123</ele>
        <time>2024-07-17T07:40:18Z</time>
      </trkpt>
      <trkpt lat="49.99565" lon="2.27098">
        <ele>123</ele>
        <time>2024-07-17T07:40:19Z</time>
      </trkpt>
      <trkpt lat="49.99565" lon="2.27098">
        <ele>123.1</ele>
        <time>2024-07-17T07:40:20Z</time>
      </trkpt>
      <trkpt lat="49.99566" lon="2.27098">
        <ele>123.1</ele>
        <time>2024-07-17T07:40:21Z</time>
      </trkpt>
      <trkpt lat="49.99567" lon="2.27098">
        <ele>123.1</ele>
        <time>2024-07-17T07:40:22Z</time>
      </trkpt>
      <trkpt lat="49.99568" lon="2.27098">
        <ele>123.1</ele>
        <time>2024-07-17T07:40:23Z</time>
      </trkpt>
      <trkpt lat="49.99569" lon="2.27097">
        <ele>123.2</ele>
        <time>2024-07-17T07:40:24Z</time>
      </trkpt>
      <trkpt lat="49.9957" lon="2.27097">
        <ele>123.2</ele>
        <time>2024-07-17T07:40:25Z</time>
      </trkpt>
      <trkpt lat="49.9957" lon="2.27097">
        <ele>123.2</ele>
        <time>2024-07-17T07:40:26Z</time>
      </trkpt>
      <trkpt lat="49.99572" lon="2.27097">
        <ele>123.3</ele>
        <time>2024-07-17T07:40:27Z</time>
      </trkpt>
      <trkpt lat="49.99574" lon="2.27097">
        <ele>123.3</ele>
        <time>2024-07-17T07:40:29Z</time>
      </trkpt>
      <trkpt lat="49.99574" lon="2.27097">
        <ele>123.3</ele>
        <time>2024-07-17T07:40:30Z</time>
      </trkpt>
      <trkpt lat="49.99575" lon="2.27097">
        <ele>123.3</ele>
        <time>2024-07-17T07:40:31Z</time>
      </trkpt>
      <trkpt lat="49.99576" lon="2.27097">
        <ele>123.4</ele>
        <time>2024-07-17T07:40:32Z</time>
      </trkpt>
      <trkpt lat="49.99576" lon="2.27098">
        <ele>123.4</ele>
        <time>2024-07-17T07:40:33Z</time>
      </trkpt>
      <trkpt lat="49.99577" lon="2.27098">
        <ele>123.4</ele>
        <time>2024-07-17T07:40:34Z</time>
      </trkpt>
      <trkpt lat="49.99577" lon="2.27098">
        <ele>123.4</ele>
        <time>2024-07-17T07:40:35Z</time>
      </trkpt>
      <trkpt lat="49.99579" lon="2.27098">
        <ele>123.4</ele>
        <time>2024-07-17T07:40:36Z</time>
      </trkpt>
      <trkpt lat="49.9958" lon="2.27098">
        <ele>123.4</ele>
        <time>2024-07-17T07:40:37Z</time>
      </trkpt>
      <trkpt lat="49.99581" lon="2.27098">
        <ele>123.5</ele>
        <time>2024-07-17T07:40:38Z</time>
      </trkpt>
      <trkpt lat="49.99581" lon="2.27098">
        <ele>123.5</ele>
        <time>2024-07-17T07:40:39Z</time>
      </trkpt>
      <trkpt lat="49.99583" lon="2.27098">
        <ele>123.5</ele>
        <time>2024-07-17T07:40:40Z</time>
      </trkpt>
      <trkpt lat="49.99584" lon="2.27098">
        <ele>123.5</ele>
        <time>2024-07-17T07:40:41Z</time>
      </trkpt>
      <trkpt lat="49.99585" lon="2.27098">
        <ele>123.5</ele>
        <time>2024-07-17T07:40:42Z</time>
      </trkpt>
      <trkpt lat="49.99587" lon="2.27097">
        <ele>123.6</ele>
        <time>2024-07-17T07:40:43Z</time>
      </trkpt>
      <trkpt lat="49.99587" lon="2.27097">
        <ele>123.6</ele>
        <time>2024-07-17T07:40:44Z</time>
      </trkpt>
      <trkpt lat="49.99588" lon="2.27097">
        <ele>123.6</ele>
        <time>2024-07-17T07:40:45Z</time>
      </trkpt>
      <trkpt lat="49.9959" lon="2.27097">
        <ele>123.6</ele>
        <time>2024-07-17T07:40:46Z</time>
      </trkpt>
      <trkpt lat="49.99592" lon="2.27097">
        <ele>123.7</ele>
        <time>2024-07-17T07:40:47Z</time>
      </trkpt>
      <trkpt lat="49.99593" lon="2.27098">
        <ele>123.7</ele>
        <time>2024-07-17T07:40:48Z</time>
      </trkpt>
      <trkpt lat="49.99595" lon="2.27098">
        <ele>123.7</ele>
        <time>2024-07-17T07:40:49Z</time>
      </trkpt>
      <trkpt lat="49.99596" lon="2.27098">
        <ele>123.8</ele>
        <time>2024-07-17T07:40:50Z</time>
      </trkpt>
      <trkpt lat="49.99597" lon="2.27098">
        <ele>123.8</ele>
        <time>2024-07-17T07:40:51Z</time>
      </trkpt>
      <trkpt lat="49.99599" lon="2.27098">
        <ele>123.8</ele>
        <time>2024-07-17T07:40:52Z</time>
      </trkpt>
      <trkpt lat="49.996" lon="2.27098">
        <ele>123.8</ele>
        <time>2024-07-17T07:40:53Z</time>
      </trkpt>
      <trkpt lat="49.99601" lon="2.27098">
        <ele>123.9</ele>
        <time>2024-07-17T07:40:54Z</time>
      </trkpt>
      <trkpt lat="49.99603" lon="2.27098">
        <ele>123.9</ele>
        <time>2024-07-17T07:40:55Z</time>
      </trkpt>
      <trkpt lat="49.99604" lon="2.27098">
        <ele>123.9</ele>
        <time>2024-07-17T07:40:56Z</time>
      </trkpt>
      <trkpt lat="49.99605" lon="2.27098">
        <ele>123.9</ele>
        <time>2024-07-17T07:40:57Z</time>
      </trkpt>
      <trkpt lat="49.99606" lon="2.27098">
        <ele>124</ele>
        <time>2024-07-17T07:40:58Z</time>
      </trkpt>
      <trkpt lat="49.99607" lon="2.27098">
        <ele>124</ele>
        <time>2024-07-17T07:40:59Z</time>
      </trkpt>
      <trkpt lat="49.99608" lon="2.27098">
        <ele>124</ele>
        <time>2024-07-17T07:41:00Z</time>
      </trkpt>
      <trkpt lat="49.99611" lon="2.27097">
        <ele>124</ele>
        <time>2024-07-17T07:41:01Z</time>
      </trkpt>
      <trkpt lat="49.99612" lon="2.27097">
        <ele>124.1</ele>
        <time>2024-07-17T07:41:02Z</time>
      </trkpt>
      <trkpt lat="49.99613" lon="2.27097">
        <ele>124.1</ele>
        <time>2024-07-17T07:41:04Z</time>
      </trkpt>
      <trkpt lat="49.99614" lon="2.27096">
        <ele>124.1</ele>
        <time>2024-07-17T07:41:05Z</time>
      </trkpt>
      <trkpt lat="49.99615" lon="2.27096">
        <ele>124.1</ele>
        <time>2024-07-17T07:41:06Z</time>
      </trkpt>
      <trkpt lat="49.99616" lon="2.27095">
        <ele>124.1</ele>
        <time>2024-07-17T07:41:07Z</time>
      </trkpt>
      <trkpt lat="49.99618" lon="2.27095">
        <ele>124.2</ele>
        <time>2024-07-17T07:41:08Z</time>
      </trkpt>
      <trkpt lat="49.99619" lon="2.27095">
        <ele>124.2</ele>
        <time>2024-07-17T07:41:09Z</time>
      </trkpt>
      <trkpt lat="49.99621" lon="2.27094">
        <ele>124.2</ele>
        <time>2024-07-17T07:41:10Z</time>
      </trkpt>
      <trkpt lat="49.99621" lon="2.27094">
        <ele>124.2</ele>
        <time>2024-07-17T07:41:11Z</time>
      </trkpt>
      <trkpt lat="49.99622" lon="2.27093">
        <ele>124.2</ele>
        <time>2024-07-17T07:41:12Z</time>
      </trkpt>
      <trkpt lat="49.99623" lon="2.27093">
        <ele>124.3</ele>
        <time>2024-07-17T07:41:13Z</time>
      </trkpt>
      <trkpt lat="49.99624" lon="2.27092">
        <ele>124.3</ele>
        <time>2024-07-17T07:41:14Z</time>
      </trkpt>
      <trkpt lat="49.99625" lon="2.27092">
        <ele>124.3</ele>
        <time>2024-07-17T07:41:15Z</time>
      </trkpt>
      <trkpt lat="49.99626" lon="2.27091">
        <ele>124.3</ele>
        <time>2024-07-17T07:41:16Z</time>
      </trkpt>
      <trkpt lat="49.99628" lon="2.27091">
        <ele>124.3</ele>
        <time>2024-07-17T07:41:17Z</time>
      </trkpt>
      <trkpt lat="49.99629" lon="2.27091">
        <ele>124.4</ele>
        <time>2024-07-17T07:41:18Z</time>
      </trkpt>
      <trkpt lat="49.99631" lon="2.2709">
        <ele>124.4</ele>
        <time>2024-07-17T07:41:19Z</time>
      </trkpt>
      <trkpt lat="49.99632" lon="2.2709">
        <ele>124.4</ele>
        <time>2024-07-17T07:41:20Z</time>
      </trkpt>
      <trkpt lat="49.99632" lon="2.27089">
        <ele>124.5</ele>
        <time>2024-07-17T07:41:21Z</time>
      </trkpt>
      <trkpt lat="49.99633" lon="2.27089">
        <ele>124.5</ele>
        <time>2024-07-17T07:41:22Z</time>
      </trkpt>
      <trkpt lat="49.99635" lon="2.27088">
        <ele>124.5</ele>
        <time>2024-07-17T07:41:23Z</time>
      </trkpt>
      <trkpt lat="49.99635" lon="2.27088">
        <ele>124.5</ele>
        <time>2024-07-17T07:41:24Z</time>
      </trkpt>
      <trkpt lat="49.99636" lon="2.27088">
        <ele>124.6</ele>
        <time>2024-07-17T07:41:25Z</time>
      </trkpt>
      <trkpt lat="49.99637" lon="2.27087">
        <ele>124.6</ele>
        <time>2024-07-17T07:41:26Z</time>
      </trkpt>
      <trkpt lat="49.99638" lon="2.27087">
        <ele>124.6</ele>
        <time>2024-07-17T07:41:27Z</time>
      </trkpt>
      <trkpt lat="49.9964" lon="2.27087">
        <ele>124.6</ele>
        <time>2024-07-17T07:41:28Z</time>
      </trkpt>
      <trkpt lat="49.99641" lon="2.27086">
        <ele>124.7</ele>
        <time>2024-07-17T07:41:29Z</time>
      </trkpt>
      <trkpt lat="49.99642" lon="2.27086">
        <ele>124.7</ele>
        <time>2024-07-17T07:41:30Z</time>
      </trkpt>
      <trkpt lat="49.99643" lon="2.27086">
        <ele>124.7</ele>
        <time>2024-07-17T07:41:31Z</time>
      </trkpt>
      <trkpt lat="49.99644" lon="2.27085">
        <ele>124.7</ele>
        <time>2024-07-17T07:41:32Z</time>
      </trkpt>
      <trkpt lat="49.99645" lon="2.27085">
        <ele>124.8</ele>
        <time>2024-07-17T07:41:33Z</time>
      </trkpt>
      <trkpt lat="49.99646" lon="2.27085">
        <ele>124.8</ele>
        <time>2024-07-17T07:41:34Z</time>
      </trkpt>
      <trkpt lat="49.99647" lon="2.27085">
        <ele>124.8</ele>
        <time>2024-07-17T07:41:35Z</time>
      </trkpt>
      <trkpt lat="49.99648" lon="2.27085">
        <ele>124.8</ele>
        <time>2024-07-17T07:41:36Z</time>
      </trkpt>
      <trkpt lat="49.99649" lon="2.27084">
        <ele>124.9</ele>
        <time>2024-07-17T07:41:37Z</time>
      </trkpt>
      <trkpt lat="49.9965" lon="2.27084">
        <ele>124.9</ele>
        <time>2024-07-17T07:41:38Z</time>
      </trkpt>
      <trkpt lat="49.99651" lon="2.27084">
        <ele>124.9</ele>
        <time>2024-07-17T07:41:39Z</time>
      </trkpt>
      <trkpt lat="49.99652" lon="2.27084">
        <ele>124.9</ele>
        <time>2024-07-17T07:41:40Z</time>
      </trkpt>
      <trkpt lat="49.99653" lon="2.27083">
        <ele>125</ele>
        <time>2024-07-17T07:41:41Z</time>
      </trkpt>
      <trkpt lat="49.99654" lon="2.27083">
        <ele>125</ele>
        <time>2024-07-17T07:41:42Z</time>
      </trkpt>
      <trkpt lat="49.99655" lon="2.27083">
        <ele>125</ele>
        <time>2024-07-17T07:41:43Z</time>
      </trkpt>
      <trkpt lat="49.99656" lon="2.27082">
        <ele>125</ele>
        <time>2024-07-17T07:41:44Z</time>
      </trkpt>
      <trkpt lat="49.99657" lon="2.27082">
        <ele>125.1</ele>
        <time>2024-07-17T07:41:45Z</time>
      </trkpt>
      <trkpt lat="49.99658" lon="2.27082">
        <ele>125.1</ele>
        <time>2024-07-17T07:41:46Z</time>
      </trkpt>
      <trkpt lat="49.99659" lon="2.27082">
        <ele>125.1</ele>
        <time>2024-07-17T07:41:47Z</time>
      </trkpt>
      <trkpt lat="49.99659" lon="2.27082">
        <ele>125.1</ele>
        <time>2024-07-17T07:41:48Z</time>
      </trkpt>
      <trkpt lat="49.9966" lon="2.27082">
        <ele>125.2</ele>
        <time>2024-07-17T07:41:49Z</time>
      </trkpt>
      <trkpt lat="49.99661" lon="2.27082">
        <ele>125.2</ele>
        <time>2024-07-17T07:41:50Z</time>
      </trkpt>
      <trkpt lat="49.99662" lon="2.27082">
        <ele>125.2</ele>
        <time>2024-07-17T07:41:51Z</time>
      </trkpt>
      <trkpt lat="49.99664" lon="2.27081">
        <ele>125.2</ele>
        <time>2024-07-17T07:41:52Z</time>
      </trkpt>
      <trkpt lat="49.99664" lon="2.27081">
        <ele>125.3</ele>
        <time>2024-07-17T07:41:53Z</time>
      </trkpt>
      <trkpt lat="49.99665" lon="2.27081">
        <ele>125.3</ele>
        <time>2024-07-17T07:41:54Z</time>
      </trkpt>
      <trkpt lat="49.99667" lon="2.27081">
        <ele>125.3</ele>
        <time>2024-07-17T07:41:55Z</time>
      </trkpt>
      <trkpt lat="49.99668" lon="2.27081">
        <ele>125.4</ele>
        <time>2024-07-17T07:41:56Z</time>
      </trkpt>
      <trkpt lat="49.99669" lon="2.27081">
        <ele>125.4</ele>
        <time>2024-07-17T07:41:57Z</time>
      </trkpt>
      <trkpt lat="49.9967" lon="2.27081">
        <ele>125.4</ele>
        <time>2024-07-17T07:41:58Z</time>
      </trkpt>
      <trkpt lat="49.99672" lon="2.27081">
        <ele>125.5</ele>
        <time>2024-07-17T07:41:59Z</time>
      </trkpt>
      <trkpt lat="49.99673" lon="2.27081">
        <ele>125.5</ele>
        <time>2024-07-17T07:42:00Z</time>
      </trkpt>
      <trkpt lat="49.99674" lon="2.27081">
        <ele>125.5</ele>
        <time>2024-07-17T07:42:01Z</time>
      </trkpt>
      <trkpt lat="49.99675" lon="2.27081">
        <ele>125.6</ele>
        <time>2024-07-17T07:42:02Z</time>
      </trkpt>
      <trkpt lat="49.99676" lon="2.27081">
        <ele>125.6</ele>
        <time>2024-07-17T07:42:03Z</time>
      </trkpt>
      <trkpt lat="49.99677" lon="2.27081">
        <ele>125.6</ele>
        <time>2024-07-17T07:42:04Z</time>
      </trkpt>
      <trkpt lat="49.99678" lon="2.27081">
        <ele>125.6</ele>
        <time>2024-07-17T07:42:05Z</time>
      </trkpt>
      <trkpt lat="49.99679" lon="2.27081">
        <ele>125.7</ele>
        <time>2024-07-17T07:42:06Z</time>
      </trkpt>
      <trkpt lat="49.9968" lon="2.2708">
        <ele>125.7</ele>
        <time>2024-07-17T07:42:07Z</time>
      </trkpt>
      <trkpt lat="49.99681" lon="2.2708">
        <ele>125.7</ele>
        <time>2024-07-17T07:42:08Z</time>
      </trkpt>
      <trkpt lat="49.99682" lon="2.2708">
        <ele>125.8</ele>
        <time>2024-07-17T07:42:09Z</time>
      </trkpt>
      <trkpt lat="49.99684" lon="2.2708">
        <ele>125.8</ele>
        <time>2024-07-17T07:42:10Z</time>
      </trkpt>
      <trkpt lat="49.99685" lon="2.2708">
        <ele>125.8</ele>
        <time>2024-07-17T07:42:11Z</time>
      </trkpt>
      <trkpt lat="49.99686" lon="2.2708">
        <ele>125.8</ele>
        <time>2024-07-17T07:42:12Z</time>
      </trkpt>
      <trkpt lat="49.99687" lon="2.2708">
        <ele>125.9</ele>
        <time>2024-07-17T07:42:13Z</time>
      </trkpt>
      <trkpt lat="49.99688" lon="2.27081">
        <ele>125.9</ele>
        <time>2024-07-17T07:42:14Z</time>
      </trkpt>
      <trkpt lat="49.99689" lon="2.27081">
        <ele>125.9</ele>
        <time>2024-07-17T07:42:15Z</time>
      </trkpt>
      <trkpt lat="49.9969" lon="2.27081">
        <ele>125.9</ele>
        <time>2024-07-17T07:42:16Z</time>
      </trkpt>
      <trkpt lat="49.99691" lon="2.27081">
        <ele>126</ele>
        <time>2024-07-17T07:42:17Z</time>
      </trkpt>
      <trkpt lat="49.99693" lon="2.2708">
        <ele>126</ele>
        <time>2024-07-17T07:42:18Z</time>
      </trkpt>
      <trkpt lat="49.99694" lon="2.2708">
        <ele>126</ele>
        <time>2024-07-17T07:42:19Z</time>
      </trkpt>
      <trkpt lat="49.99695" lon="2.27079">
        <ele>126</ele>
        <time>2024-07-17T07:42:20Z</time>
      </trkpt>
      <trkpt lat="49.99697" lon="2.27078">
        <ele>126.1</ele>
        <time>2024-07-17T07:42:21Z</time>
      </trkpt>
      <trkpt lat="49.99698" lon="2.27077">
        <ele>126.1</ele>
        <time>2024-07-17T07:42:22Z</time>
      </trkpt>
      <trkpt lat="49.99699" lon="2.27077">
        <ele>126.1</ele>
        <time>2024-07-17T07:42:23Z</time>
      </trkpt>
      <trkpt lat="49.997" lon="2.27077">
        <ele>126.2</ele>
        <time>2024-07-17T07:42:24Z</time>
      </trkpt>
      <trkpt lat="49.99701" lon="2.27076">
        <ele>126.2</ele>
        <time>2024-07-17T07:42:25Z</time>
      </trkpt>
      <trkpt lat="49.99703" lon="2.27076">
        <ele>126.2</ele>
        <time>2024-07-17T07:42:26Z</time>
      </trkpt>
      <trkpt lat="49.99705" lon="2.27076">
        <ele>126.2</ele>
        <time>2024-07-17T07:42:27Z</time>
      </trkpt>
      <trkpt lat="49.99706" lon="2.27075">
        <ele>126.2</ele>
        <time>2024-07-17T07:42:28Z</time>
      </trkpt>
      <trkpt lat="49.99707" lon="2.27075">
        <ele>126.3</ele>
        <time>2024-07-17T07:42:29Z</time>
      </trkpt>
      <trkpt lat="49.99709" lon="2.27074">
        <ele>126.3</ele>
        <time>2024-07-17T07:42:30Z</time>
      </trkpt>
      <trkpt lat="49.99709" lon="2.27074">
        <ele>126.3</ele>
        <time>2024-07-17T07:42:31Z</time>
      </trkpt>
      <trkpt lat="49.9971" lon="2.27073">
        <ele>126.3</ele>
        <time>2024-07-17T07:42:32Z</time>
      </trkpt>
      <trkpt lat="49.99712" lon="2.27073">
        <ele>126.3</ele>
        <time>2024-07-17T07:42:33Z</time>
      </trkpt>
      <trkpt lat="49.99713" lon="2.27072">
        <ele>126.3</ele>
        <time>2024-07-17T07:42:34Z</time>
      </trkpt>
      <trkpt lat="49.99714" lon="2.27072">
        <ele>126.3</ele>
        <time>2024-07-17T07:42:35Z</time>
      </trkpt>
      <trkpt lat="49.99715" lon="2.27072">
        <ele>126.4</ele>
        <time>2024-07-17T07:42:36Z</time>
      </trkpt>
      <trkpt lat="49.99716" lon="2.27071">
        <ele>126.4</ele>
        <time>2024-07-17T07:42:37Z</time>
      </trkpt>
      <trkpt lat="49.99717" lon="2.27071">
        <ele>126.4</ele>
        <time>2024-07-17T07:42:38Z</time>
      </trkpt>
      <trkpt lat="49.99718" lon="2.27071">
        <ele>126.4</ele>
        <time>2024-07-17T07:42:39Z</time>
      </trkpt>
      <trkpt lat="49.9972" lon="2.27071">
        <ele>126.4</ele>
        <time>2024-07-17T07:42:40Z</time>
      </trkpt>
      <trkpt lat="49.99721" lon="2.27071">
        <ele>126.4</ele>
        <time>2024-07-17T07:42:41Z</time>
      </trkpt>
      <trkpt lat="49.99722" lon="2.2707">
        <ele>126.4</ele>
        <time>2024-07-17T07:42:42Z</time>
      </trkpt>
      <trkpt lat="49.99723" lon="2.2707">
        <ele>126.4</ele>
        <time>2024-07-17T07:42:43Z</time>
      </trkpt>
      <trkpt lat="49.99724" lon="2.2707">
        <ele>126.4</ele>
        <time>2024-07-17T07:42:44Z</time>
      </trkpt>
      <trkpt lat="49.99726" lon="2.2707">
        <ele>126.4</ele>
        <time>2024-07-17T07:42:45Z</time>
      </trkpt>
      <trkpt lat="49.99727" lon="2.2707">
        <ele>126.4</ele>
        <time>2024-07-17T07:42:46Z</time>
      </trkpt>
      <trkpt lat="49.99728" lon="2.2707">
        <ele>126.5</ele>
        <time>2024-07-17T07:42:47Z</time>
      </trkpt>
      <trkpt lat="49.99729" lon="2.2707">
        <ele>126.5</ele>
        <time>2024-07-17T07:42:48Z</time>
      </trkpt>
      <trkpt lat="49.9973" lon="2.2707">
        <ele>126.5</ele>
        <time>2024-07-17T07:42:49Z</time>
      </trkpt>
      <trkpt lat="49.99731" lon="2.2707">
        <ele>126.5</ele>
        <time>2024-07-17T07:42:50Z</time>
      </trkpt>
      <trkpt lat="49.99732" lon="2.2707">
        <ele>126.5</ele>
        <time>2024-07-17T07:42:51Z</time>
      </trkpt>
      <trkpt lat="49.99734" lon="2.2707">
        <ele>126.5</ele>
        <time>2024-07-17T07:42:52Z</time>
      </trkpt>
      <trkpt lat="49.99735" lon="2.27069">
        <ele>126.6</ele>
        <time>2024-07-17T07:42:53Z</time>
      </trkpt>
      <trkpt lat="49.99736" lon="2.27069">
        <ele>126.6</ele>
        <time>2024-07-17T07:42:54Z</time>
      </trkpt>
      <trkpt lat="49.99737" lon="2.27069">
        <ele>126.6</ele>
        <time>2024-07-17T07:42:55Z</time>
      </trkpt>
      <trkpt lat="49.99738" lon="2.27069">
        <ele>126.6</ele>
        <time>2024-07-17T07:42:56Z</time>
      </trkpt>
      <trkpt lat="49.9974" lon="2.27069">
        <ele>126.7</ele>
        <time>2024-07-17T07:42:57Z</time>
      </trkpt>
      <trkpt lat="49.99741" lon="2.27069">
        <ele>126.7</ele>
        <time>2024-07-17T07:42:58Z</time>
      </trkpt>
      <trkpt lat="49.99742" lon="2.27069">
        <ele>126.7</ele>
        <time>2024-07-17T07:42:59Z</time>
      </trkpt>
      <trkpt lat="49.99744" lon="2.27068">
        <ele>126.7</ele>
        <time>2024-07-17T07:43:00Z</time>
      </trkpt>
      <trkpt lat="49.99745" lon="2.27068">
        <ele>126.7</ele>
        <time>2024-07-17T07:43:01Z</time>
      </trkpt>
      <trkpt lat="49.99746" lon="2.27068">
        <ele>126.7</ele>
        <time>2024-07-17T07:43:02Z</time>
      </trkpt>
      <trkpt lat="49.99747" lon="2.27068">
        <ele>126.8</ele>
        <time>2024-07-17T07:43:03Z</time>
      </trkpt>
      <trkpt lat="49.99748" lon="2.27068">
        <ele>126.8</ele>
        <time>2024-07-17T07:43:04Z</time>
      </trkpt>
      <trkpt lat="49.99749" lon="2.27068">
        <ele>126.8</ele>
        <time>2024-07-17T07:43:05Z</time>
      </trkpt>
      <trkpt lat="49.9975" lon="2.27067">
        <ele>126.8</ele>
        <time>2024-07-17T07:43:06Z</time>
      </trkpt>
      <trkpt lat="49.99752" lon="2.27067">
        <ele>126.8</ele>
        <time>2024-07-17T07:43:07Z</time>
      </trkpt>
      <trkpt lat="49.99753" lon="2.27067">
        <ele>126.9</ele>
        <time>2024-07-17T07:43:08Z</time>
      </trkpt>
      <trkpt lat="49.99755" lon="2.27066">
        <ele>126.9</ele>
        <time>2024-07-17T07:43:09Z</time>
      </trkpt>
      <trkpt lat="49.99755" lon="2.27065">
        <ele>126.9</ele>
        <time>2024-07-17T07:43:10Z</time>
      </trkpt>
      <trkpt lat="49.99756" lon="2.27065">
        <ele>126.9</ele>
        <time>2024-07-17T07:43:11Z</time>
      </trkpt>
      <trkpt lat="49.99757" lon="2.27064">
        <ele>126.9</ele>
        <time>2024-07-17T07:43:12Z</time>
      </trkpt>
      <trkpt lat="49.99758" lon="2.27063">
        <ele>127</ele>
        <time>2024-07-17T07:43:13Z</time>
      </trkpt>
      <trkpt lat="49.9976" lon="2.27063">
        <ele>127</ele>
        <time>2024-07-17T07:43:14Z</time>
      </trkpt>
      <trkpt lat="49.99761" lon="2.27063">
        <ele>127</ele>
        <time>2024-07-17T07:43:15Z</time>
      </trkpt>
      <trkpt lat="49.99762" lon="2.27063">
        <ele>127</ele>
        <time>2024-07-17T07:43:16Z</time>
      </trkpt>
      <trkpt lat="49.99763" lon="2.27062">
        <ele>127</ele>
        <time>2024-07-17T07:43:17Z</time>
      </trkpt>
      <trkpt lat="49.99766" lon="2.27061">
        <ele>127.1</ele>
        <time>2024-07-17T07:43:18Z</time>
      </trkpt>
      <trkpt lat="49.99767" lon="2.27061">
        <ele>127.1</ele>
        <time>2024-07-17T07:43:20Z</time>
      </trkpt>
      <trkpt lat="49.99768" lon="2.27061">
        <ele>127.1</ele>
        <time>2024-07-17T07:43:21Z</time>
      </trkpt>
      <trkpt lat="49.99769" lon="2.27061">
        <ele>127.1</ele>
        <time>2024-07-17T07:43:22Z</time>
      </trkpt>
      <trkpt lat="49.9977" lon="2.2706">
        <ele>127.2</ele>
        <time>2024-07-17T07:43:23Z</time>
      </trkpt>
      <trkpt lat="49.99771" lon="2.2706">
        <ele>127.2</ele>
        <time>2024-07-17T07:43:24Z</time>
      </trkpt>
      <trkpt lat="49.99772" lon="2.2706">
        <ele>127.2</ele>
        <time>2024-07-17T07:43:25Z</time>
      </trkpt>
      <trkpt lat="49.99773" lon="2.2706">
        <ele>127.2</ele>
        <time>2024-07-17T07:43:26Z</time>
      </trkpt>
      <trkpt lat="49.99774" lon="2.2706">
        <ele>127.2</ele>
        <time>2024-07-17T07:43:27Z</time>
      </trkpt>
      <trkpt lat="49.99775" lon="2.2706">
        <ele>127.3</ele>
        <time>2024-07-17T07:43:28Z</time>
      </trkpt>
      <trkpt lat="49.99776" lon="2.2706">
        <ele>127.3</ele>
        <time>2024-07-17T07:43:29Z</time>
      </trkpt>
      <trkpt lat="49.99778" lon="2.2706">
        <ele>127.3</ele>
        <time>2024-07-17T07:43:30Z</time>
      </trkpt>
      <trkpt lat="49.99778" lon="2.27059">
        <ele>127.3</ele>
        <time>2024-07-17T07:43:31Z</time>
      </trkpt>
      <trkpt lat="49.99779" lon="2.27059">
        <ele>127.3</ele>
        <time>2024-07-17T07:43:32Z</time>
      </trkpt>
      <trkpt lat="49.9978" lon="2.27059">
        <ele>127.4</ele>
        <time>2024-07-17T07:43:33Z</time>
      </trkpt>
      <trkpt lat="49.99781" lon="2.27059">
        <ele>127.4</ele>
        <time>2024-07-17T07:43:34Z</time>
      </trkpt>
      <trkpt lat="49.99782" lon="2.27059">
        <ele>127.4</ele>
        <time>2024-07-17T07:43:35Z</time>
      </trkpt>
      <trkpt lat="49.99783" lon="2.27059">
        <ele>127.4</ele>
        <time>2024-07-17T07:43:36Z</time>
      </trkpt>
      <trkpt lat="49.99784" lon="2.27059">
        <ele>127.4</ele>
        <time>2024-07-17T07:43:37Z</time>
      </trkpt>
      <trkpt lat="49.99785" lon="2.27059">
        <ele>127.5</ele>
        <time>2024-07-17T07:43:38Z</time>
      </trkpt>
      <trkpt lat="49.99786" lon="2.27059">
        <ele>127.5</ele>
        <time>2024-07-17T07:43:39Z</time>
      </trkpt>
      <trkpt lat="49.99788" lon="2.27059">
        <ele>127.5</ele>
        <time>2024-07-17T07:43:40Z</time>
      </trkpt>
      <trkpt lat="49.99789" lon="2.27059">
        <ele>127.5</ele>
        <time>2024-07-17T07:43:41Z</time>
      </trkpt>
      <trkpt lat="49.9979" lon="2.27059">
        <ele>127.6</ele>
        <time>2024-07-17T07:43:42Z</time>
      </trkpt>
      <trkpt lat="49.99791" lon="2.27058">
        <ele>127.6</ele>
        <time>2024-07-17T07:43:43Z</time>
      </trkpt>
      <trkpt lat="49.99792" lon="2.27058">
        <ele>127.6</ele>
        <time>2024-07-17T07:43:44Z</time>
      </trkpt>
      <trkpt lat="49.99793" lon="2.27058">
        <ele>127.6</ele>
        <time>2024-07-17T07:43:45Z</time>
      </trkpt>
      <trkpt lat="49.99794" lon="2.27058">
        <ele>127.6</ele>
        <time>2024-07-17T07:43:46Z</time>
      </trkpt>
      <trkpt lat="49.99796" lon="2.27058">
        <ele>127.6</ele>
        <time>2024-07-17T07:43:47Z</time>
      </trkpt>
      <trkpt lat="49.99797" lon="2.27058">
        <ele>127.7</ele>
        <time>2024-07-17T07:43:48Z</time>
      </trkpt>
      <trkpt lat="49.99799" lon="2.27058">
        <ele>127.7</ele>
        <time>2024-07-17T07:43:49Z</time>
      </trkpt>
      <trkpt lat="49.998" lon="2.27058">
        <ele>127.7</ele>
        <time>2024-07-17T07:43:50Z</time>
      </trkpt>
      <trkpt lat="49.998" lon="2.27058">
        <ele>127.7</ele>
        <time>2024-07-17T07:43:51Z</time>
      </trkpt>
      <trkpt lat="49.99802" lon="2.27058">
        <ele>127.7</ele>
        <time>2024-07-17T07:43:52Z</time>
      </trkpt>
      <trkpt lat="49.99803" lon="2.27057">
        <ele>127.8</ele>
        <time>2024-07-17T07:43:53Z</time>
      </trkpt>
      <trkpt lat="49.99804" lon="2.27057">
        <ele>127.8</ele>
        <time>2024-07-17T07:43:54Z</time>
      </trkpt>
      <trkpt lat="49.99805" lon="2.27057">
        <ele>127.8</ele>
        <time>2024-07-17T07:43:55Z</time>
      </trkpt>
      <trkpt lat="49.99806" lon="2.27057">
        <ele>127.8</ele>
        <time>2024-07-17T07:43:56Z</time>
      </trkpt>
      <trkpt lat="49.99807" lon="2.27057">
        <ele>127.8</ele>
        <time>2024-07-17T07:43:57Z</time>
      </trkpt>
      <trkpt lat="49.99809" lon="2.27056">
        <ele>127.9</ele>
        <time>2024-07-17T07:43:58Z</time>
      </trkpt>
      <trkpt lat="49.9981" lon="2.27056">
        <ele>127.9</ele>
        <time>2024-07-17T07:43:59Z</time>
      </trkpt>
      <trkpt lat="49.99811" lon="2.27056">
        <ele>127.9</ele>
        <time>2024-07-17T07:44:00Z</time>
      </trkpt>
      <trkpt lat="49.99812" lon="2.27055">
        <ele>128</ele>
        <time>2024-07-17T07:44:01Z</time>
      </trkpt>
      <trkpt lat="49.99814" lon="2.27055">
        <ele>128</ele>
        <time>2024-07-17T07:44:02Z</time>
      </trkpt>
      <trkpt lat="49.99816" lon="2.27054">
        <ele>128</ele>
        <time>2024-07-17T07:44:03Z</time>
      </trkpt>
      <trkpt lat="49.99817" lon="2.27054">
        <ele>128</ele>
        <time>2024-07-17T07:44:04Z</time>
      </trkpt>
      <trkpt lat="49.99817" lon="2.27053">
        <ele>128.1</ele>
        <time>2024-07-17T07:44:05Z</time>
      </trkpt>
      <trkpt lat="49.99819" lon="2.27053">
        <ele>128.1</ele>
        <time>2024-07-17T07:44:06Z</time>
      </trkpt>
      <trkpt lat="49.9982" lon="2.27053">
        <ele>128.1</ele>
        <time>2024-07-17T07:44:07Z</time>
      </trkpt>
      <trkpt lat="49.99821" lon="2.27052">
        <ele>128.1</ele>
        <time>2024-07-17T07:44:08Z</time>
      </trkpt>
      <trkpt lat="49.99823" lon="2.27052">
        <ele>128.2</ele>
        <time>2024-07-17T07:44:09Z</time>
      </trkpt>
      <trkpt lat="49.99824" lon="2.27052">
        <ele>128.2</ele>
        <time>2024-07-17T07:44:10Z</time>
      </trkpt>
      <trkpt lat="49.99825" lon="2.27052">
        <ele>128.2</ele>
        <time>2024-07-17T07:44:11Z</time>
      </trkpt>
      <trkpt lat="49.99827" lon="2.27052">
        <ele>128.3</ele>
        <time>2024-07-17T07:44:12Z</time>
      </trkpt>
      <trkpt lat="49.99828" lon="2.27052">
        <ele>128.3</ele>
        <time>2024-07-17T07:44:13Z</time>
      </trkpt>
      <trkpt lat="49.99829" lon="2.27052">
        <ele>128.3</ele>
        <time>2024-07-17T07:44:14Z</time>
      </trkpt>
      <trkpt lat="49.9983" lon="2.27052">
        <ele>128.3</ele>
        <time>2024-07-17T07:44:15Z</time>
      </trkpt>
      <trkpt lat="49.99831" lon="2.27052">
        <ele>128.4</ele>
        <time>2024-07-17T07:44:16Z</time>
      </trkpt>
      <trkpt lat="49.99832" lon="2.27052">
        <ele>128.4</ele>
        <time>2024-07-17T07:44:17Z</time>
      </trkpt>
      <trkpt lat="49.99835" lon="2.27052">
        <ele>128.4</ele>
        <time>2024-07-17T07:44:18Z</time>
      </trkpt>
      <trkpt lat="49.99835" lon="2.27053">
        <ele>128.4</ele>
        <time>2024-07-17T07:44:19Z</time>
      </trkpt>
      <trkpt lat="49.99836" lon="2.27053">
        <ele>128.5</ele>
        <time>2024-07-17T07:44:20Z</time>
      </trkpt>
      <trkpt lat="49.99838" lon="2.27053">
        <ele>128.5</ele>
        <time>2024-07-17T07:44:21Z</time>
      </trkpt>
      <trkpt lat="49.99839" lon="2.27053">
        <ele>128.5</ele>
        <time>2024-07-17T07:44:22Z</time>
      </trkpt>
      <trkpt lat="49.99841" lon="2.27053">
        <ele>128.6</ele>
        <time>2024-07-17T07:44:23Z</time>
      </trkpt>
      <trkpt lat="49.99842" lon="2.27053">
        <ele>128.6</ele>
        <time>2024-07-17T07:44:24Z</time>
      </trkpt>
      <trkpt lat="49.99843" lon="2.27053">
        <ele>128.6</ele>
        <time>2024-07-17T07:44:25Z</time>
      </trkpt>
      <trkpt lat="49.99844" lon="2.27053">
        <ele>128.6</ele>
        <time>2024-07-17T07:44:26Z</time>
      </trkpt>
      <trkpt lat="49.99845" lon="2.27053">
        <ele>128.6</ele>
        <time>2024-07-17T07:44:27Z</time>
      </trkpt>
      <trkpt lat="49.99846" lon="2.27053">
        <ele>128.6</ele>
        <time>2024-07-17T07:44:28Z</time>
      </trkpt>
      <trkpt lat="49.99848" lon="2.27053">
        <ele>128.7</ele>
        <time>2024-07-17T07:44:29Z</time>
      </trkpt>
      <trkpt lat="49.99849" lon="2.27053">
        <ele>128.7</ele>
        <time>2024-07-17T07:44:30Z</time>
      </trkpt>
      <trkpt lat="49.9985" lon="2.27054">
        <ele>128.7</ele>
        <time>2024-07-17T07:44:31Z</time>
      </trkpt>
      <trkpt lat="49.99851" lon="2.27054">
        <ele>128.7</ele>
        <time>2024-07-17T07:44:32Z</time>
      </trkpt>
      <trkpt lat="49.99852" lon="2.27054">
        <ele>128.7</ele>
        <time>2024-07-17T07:44:33Z</time>
      </trkpt>
      <trkpt lat="49.99853" lon="2.27054">
        <ele>128.8</ele>
        <time>2024-07-17T07:44:34Z</time>
      </trkpt>
      <trkpt lat="49.99854" lon="2.27054">
        <ele>128.8</ele>
        <time>2024-07-17T07:44:35Z</time>
      </trkpt>
      <trkpt lat="49.99857" lon="2.27054">
        <ele>128.8</ele>
        <time>2024-07-17T07:44:36Z</time>
      </trkpt>
      <trkpt lat="49.99858" lon="2.27054">
        <ele>128.8</ele>
        <time>2024-07-17T07:44:38Z</time>
      </trkpt>
      <trkpt lat="49.99859" lon="2.27054">
        <ele>128.9</ele>
        <time>2024-07-17T07:44:39Z</time>
      </trkpt>
      <trkpt lat="49.9986" lon="2.27054">
        <ele>128.9</ele>
        <time>2024-07-17T07:44:40Z</time>
      </trkpt>
      <trkpt lat="49.99861" lon="2.27054">
        <ele>128.9</ele>
        <time>2024-07-17T07:44:41Z</time>
      </trkpt>
      <trkpt lat="49.99862" lon="2.27054">
        <ele>128.9</ele>
        <time>2024-07-17T07:44:42Z</time>
      </trkpt>
      <trkpt lat="49.99863" lon="2.27053">
        <ele>128.9</ele>
        <time>2024-07-17T07:44:43Z</time>
      </trkpt>
      <trkpt lat="49.99864" lon="2.27053">
        <ele>129</ele>
        <time>2024-07-17T07:44:44Z</time>
      </trkpt>
      <trkpt lat="49.99866" lon="2.27053">
        <ele>129</ele>
        <time>2024-07-17T07:44:45Z</time>
      </trkpt>
      <trkpt lat="49.99867" lon="2.27052">
        <ele>129</ele>
        <time>2024-07-17T07:44:46Z</time>
      </trkpt>
      <trkpt lat="49.99868" lon="2.27052">
        <ele>129</ele>
        <time>2024-07-17T07:44:47Z</time>
      </trkpt>
      <trkpt lat="49.99869" lon="2.27052">
        <ele>129</ele>
        <time>2024-07-17T07:44:48Z</time>
      </trkpt>
      <trkpt lat="49.9987" lon="2.27051">
        <ele>129.1</ele>
        <time>2024-07-17T07:44:49Z</time>
      </trkpt>
      <trkpt lat="49.99871" lon="2.2705">
        <ele>129.1</ele>
        <time>2024-07-17T07:44:50Z</time>
      </trkpt>
      <trkpt lat="49.99872" lon="2.2705">
        <ele>129.1</ele>
        <time>2024-07-17T07:44:51Z</time>
      </trkpt>
      <trkpt lat="49.99873" lon="2.2705">
        <ele>129.1</ele>
        <time>2024-07-17T07:44:52Z</time>
      </trkpt>
      <trkpt lat="49.99874" lon="2.2705">
        <ele>129.1</ele>
        <time>2024-07-17T07:44:53Z</time>
      </trkpt>
      <trkpt lat="49.99875" lon="2.2705">
        <ele>129.2</ele>
        <time>2024-07-17T07:44:54Z</time>
      </trkpt>
      <trkpt lat="49.99876" lon="2.2705">
        <ele>129.2</ele>
        <time>2024-07-17T07:44:55Z</time>
      </trkpt>
      <trkpt lat="49.99877" lon="2.27049">
        <ele>129.2</ele>
        <time>2024-07-17T07:44:56Z</time>
      </trkpt>
      <trkpt lat="49.99878" lon="2.27049">
        <ele>129.2</ele>
        <time>2024-07-17T07:44:57Z</time>
      </trkpt>
      <trkpt lat="49.99879" lon="2.27049">
        <ele>129.2</ele>
        <time>2024-07-17T07:44:58Z</time>
      </trkpt>
      <trkpt lat="49.9988" lon="2.27049">
        <ele>129.2</ele>
        <time>2024-07-17T07:44:59Z</time>
      </trkpt>
      <trkpt lat="49.99881" lon="2.27049">
        <ele>129.3</ele>
        <time>2024-07-17T07:45:00Z</time>
      </trkpt>
      <trkpt lat="49.99882" lon="2.27049">
        <ele>129.3</ele>
        <time>2024-07-17T07:45:01Z</time>
      </trkpt>
      <trkpt lat="49.99883" lon="2.27049">
        <ele>129.3</ele>
        <time>2024-07-17T07:45:02Z</time>
      </trkpt>
      <trkpt lat="49.99884" lon="2.27049">
        <ele>129.3</ele>
        <time>2024-07-17T07:45:03Z</time>
      </trkpt>
      <trkpt lat="49.99885" lon="2.27049">
        <ele>129.3</ele>
        <time>2024-07-17T07:45:04Z</time>
      </trkpt>
      <trkpt lat="49.99886" lon="2.27049">
        <ele>129.3</ele>
        <time>2024-07-17T07:45:05Z</time>
      </trkpt>
      <trkpt lat="49.99887" lon="2.27049">
        <ele>129.4</ele>
        <time>2024-07-17T07:45:06Z</time>
      </trkpt>
      <trkpt lat="49.99889" lon="2.27049">
        <ele>129.4</ele>
        <time>2024-07-17T07:45:07Z</time>
      </trkpt>
      <trkpt lat="49.99889" lon="2.27049">
        <ele>129.4</ele>
        <time>2024-07-17T07:45:08Z</time>
      </trkpt>
      <trkpt lat="49.9989" lon="2.27049">
        <ele>129.4</ele>
        <time>2024-07-17T07:45:09Z</time>
      </trkpt>
      <trkpt lat="49.99892" lon="2.27049">
        <ele>129.4</ele>
        <time>2024-07-17T07:45:10Z</time>
      </trkpt>
      <trkpt lat="49.99892" lon="2.27049">
        <ele>129.4</ele>
        <time>2024-07-17T07:45:11Z</time>
      </trkpt>
      <trkpt lat="49.99893" lon="2.27049">
        <ele>129.5</ele>
        <time>2024-07-17T07:45:12Z</time>
      </trkpt>
      <trkpt lat="49.99895" lon="2.27049">
        <ele>129.5</ele>
        <time>2024-07-17T07:45:13Z</time>
      </trkpt>
      <trkpt lat="49.99896" lon="2.27049">
        <ele>129.5</ele>
        <time>2024-07-17T07:45:14Z</time>
      </trkpt>
      <trkpt lat="49.99897" lon="2.27049">
        <ele>129.5</ele>
        <time>2024-07-17T07:45:15Z</time>
      </trkpt>
      <trkpt lat="49.99898" lon="2.2705">
        <ele>129.5</ele>
        <time>2024-07-17T07:45:16Z</time>
      </trkpt>
      <trkpt lat="49.99899" lon="2.2705">
        <ele>129.6</ele>
        <time>2024-07-17T07:45:17Z</time>
      </trkpt>
      <trkpt lat="49.999" lon="2.2705">
        <ele>129.6</ele>
        <time>2024-07-17T07:45:18Z</time>
      </trkpt>
      <trkpt lat="49.99901" lon="2.2705">
        <ele>129.6</ele>
        <time>2024-07-17T07:45:19Z</time>
      </trkpt>
      <trkpt lat="49.99902" lon="2.2705">
        <ele>129.7</ele>
        <time>2024-07-17T07:45:20Z</time>
      </trkpt>
      <trkpt lat="49.99903" lon="2.2705">
        <ele>129.7</ele>
        <time>2024-07-17T07:45:21Z</time>
      </trkpt>
      <trkpt lat="49.99904" lon="2.2705">
        <ele>129.7</ele>
        <time>2024-07-17T07:45:22Z</time>
      </trkpt>
      <trkpt lat="49.99905" lon="2.2705">
        <ele>129.7</ele>
        <time>2024-07-17T07:45:23Z</time>
      </trkpt>
      <trkpt lat="49.99906" lon="2.2705">
        <ele>129.8</ele>
        <time>2024-07-17T07:45:24Z</time>
      </trkpt>
      <trkpt lat="49.99907" lon="2.27051">
        <ele>129.8</ele>
        <time>2024-07-17T07:45:25Z</time>
      </trkpt>
      <trkpt lat="49.99907" lon="2.27054">
        <ele>129.8</ele>
        <time>2024-07-17T07:45:26Z</time>
      </trkpt>
      <trkpt lat="49.99908" lon="2.27055">
        <ele>129.9</ele>
        <time>2024-07-17T07:45:27Z</time>
      </trkpt>
      <trkpt lat="49.99909" lon="2.27055">
        <ele>129.9</ele>
        <time>2024-07-17T07:45:28Z</time>
      </trkpt>
      <trkpt lat="49.9991" lon="2.27055">
        <ele>129.9</ele>
        <time>2024-07-17T07:45:29Z</time>
      </trkpt>
      <trkpt lat="49.99911" lon="2.27055">
        <ele>130</ele>
        <time>2024-07-17T07:45:30Z</time>
      </trkpt>
      <trkpt lat="49.99913" lon="2.27055">
        <ele>130</ele>
        <time>2024-07-17T07:45:31Z</time>
      </trkpt>
      <trkpt lat="49.99913" lon="2.27055">
        <ele>130</ele>
        <time>2024-07-17T07:45:32Z</time>
      </trkpt>
      <trkpt lat="49.99914" lon="2.27055">
        <ele>130</ele>
        <time>2024-07-17T07:45:33Z</time>
      </trkpt>
      <trkpt lat="49.99916" lon="2.27054">
        <ele>130.1</ele>
        <time>2024-07-17T07:45:34Z</time>
      </trkpt>
      <trkpt lat="49.99917" lon="2.27054">
        <ele>130.1</ele>
        <time>2024-07-17T07:45:35Z</time>
      </trkpt>
      <trkpt lat="49.99918" lon="2.27054">
        <ele>130.1</ele>
        <time>2024-07-17T07:45:36Z</time>
      </trkpt>
      <trkpt lat="49.99919" lon="2.27054">
        <ele>130.1</ele>
        <time>2024-07-17T07:45:37Z</time>
      </trkpt>
      <trkpt lat="49.9992" lon="2.27053">
        <ele>130.1</ele>
        <time>2024-07-17T07:45:38Z</time>
      </trkpt>
      <trkpt lat="49.99921" lon="2.27053">
        <ele>130.2</ele>
        <time>2024-07-17T07:45:39Z</time>
      </trkpt>
      <trkpt lat="49.99923" lon="2.27053">
        <ele>130.2</ele>
        <time>2024-07-17T07:45:40Z</time>
      </trkpt>
      <trkpt lat="49.99924" lon="2.27053">
        <ele>130.2</ele>
        <time>2024-07-17T07:45:41Z</time>
      </trkpt>
      <trkpt lat="49.99925" lon="2.27053">
        <ele>130.2</ele>
        <time>2024-07-17T07:45:42Z</time>
      </trkpt>
      <trkpt lat="49.99927" lon="2.27052">
        <ele>130.2</ele>
        <time>2024-07-17T07:45:43Z</time>
      </trkpt>
      <trkpt lat="49.99928" lon="2.27052">
        <ele>130.3</ele>
        <time>2024-07-17T07:45:44Z</time>
      </trkpt>
      <trkpt lat="49.9993" lon="2.27052">
        <ele>130.3</ele>
        <time>2024-07-17T07:45:45Z</time>
      </trkpt>
      <trkpt lat="49.99931" lon="2.27052">
        <ele>130.3</ele>
        <time>2024-07-17T07:45:46Z</time>
      </trkpt>
      <trkpt lat="49.99932" lon="2.27052">
        <ele>130.3</ele>
        <time>2024-07-17T07:45:47Z</time>
      </trkpt>
      <trkpt lat="49.99933" lon="2.27052">
        <ele>130.3</ele>
        <time>2024-07-17T07:45:48Z</time>
      </trkpt>
      <trkpt lat="49.99934" lon="2.27052">
        <ele>130.4</ele>
        <time>2024-07-17T07:45:49Z</time>
      </trkpt>
      <trkpt lat="49.99935" lon="2.27052">
        <ele>130.4</ele>
        <time>2024-07-17T07:45:50Z</time>
      </trkpt>
      <trkpt lat="49.99937" lon="2.27051">
        <ele>130.4</ele>
        <time>2024-07-17T07:45:51Z</time>
      </trkpt>
      <trkpt lat="49.99938" lon="2.27051">
        <ele>130.4</ele>
        <time>2024-07-17T07:45:52Z</time>
      </trkpt>
      <trkpt lat="49.99939" lon="2.27051">
        <ele>130.4</ele>
        <time>2024-07-17T07:45:53Z</time>
      </trkpt>
      <trkpt lat="49.9994" lon="2.27051">
        <ele>130.4</ele>
        <time>2024-07-17T07:45:54Z</time>
      </trkpt>
      <trkpt lat="49.99941" lon="2.2705">
        <ele>130.4</ele>
        <time>2024-07-17T07:45:55Z</time>
      </trkpt>
      <trkpt lat="49.99942" lon="2.2705">
        <ele>130.5</ele>
        <time>2024-07-17T07:45:56Z</time>
      </trkpt>
      <trkpt lat="49.99943" lon="2.27049">
        <ele>130.5</ele>
        <time>2024-07-17T07:45:57Z</time>
      </trkpt>
      <trkpt lat="49.99944" lon="2.27049">
        <ele>130.5</ele>
        <time>2024-07-17T07:45:58Z</time>
      </trkpt>
      <trkpt lat="49.99945" lon="2.27049">
        <ele>130.5</ele>
        <time>2024-07-17T07:45:59Z</time>
      </trkpt>
      <trkpt lat="49.99947" lon="2.27049">
        <ele>130.5</ele>
        <time>2024-07-17T07:46:00Z</time>
      </trkpt>
      <trkpt lat="49.99948" lon="2.27049">
        <ele>130.5</ele>
        <time>2024-07-17T07:46:01Z</time>
      </trkpt>
      <trkpt lat="49.99949" lon="2.27049">
        <ele>130.6</ele>
        <time>2024-07-17T07:46:02Z</time>
      </trkpt>
      <trkpt lat="49.9995" lon="2.27049">
        <ele>130.6</ele>
        <time>2024-07-17T07:46:03Z</time>
      </trkpt>
      <trkpt lat="49.99951" lon="2.27049">
        <ele>130.6</ele>
        <time>2024-07-17T07:46:04Z</time>
      </trkpt>
      <trkpt lat="49.99952" lon="2.27049">
        <ele>130.6</ele>
        <time>2024-07-17T07:46:05Z</time>
      </trkpt>
      <trkpt lat="49.99954" lon="2.27049">
        <ele>130.6</ele>
        <time>2024-07-17T07:46:06Z</time>
      </trkpt>
      <trkpt lat="49.99955" lon="2.27049">
        <ele>130.7</ele>
        <time>2024-07-17T07:46:07Z</time>
      </trkpt>
      <trkpt lat="49.99956" lon="2.27049">
        <ele>130.7</ele>
        <time>2024-07-17T07:46:08Z</time>
      </trkpt>
      <trkpt lat="49.99957" lon="2.27049">
        <ele>130.7</ele>
        <time>2024-07-17T07:46:09Z</time>
      </trkpt>
      <trkpt lat="49.99959" lon="2.27049">
        <ele>130.7</ele>
        <time>2024-07-17T07:46:10Z</time>
      </trkpt>
      <trkpt lat="49.99961" lon="2.27049">
        <ele>130.8</ele>
        <time>2024-07-17T07:46:11Z</time>
      </trkpt>
      <trkpt lat="49.99962" lon="2.27049">
        <ele>130.8</ele>
        <time>2024-07-17T07:46:12Z</time>
      </trkpt>
      <trkpt lat="49.99965" lon="2.27048">
        <ele>130.8</ele>
        <time>2024-07-17T07:46:13Z</time>
      </trkpt>
      <trkpt lat="49.99966" lon="2.27048">
        <ele>130.8</ele>
        <time>2024-07-17T07:46:15Z</time>
      </trkpt>
      <trkpt lat="49.99967" lon="2.27048">
        <ele>130.9</ele>
        <time>2024-07-17T07:46:16Z</time>
      </trkpt>
      <trkpt lat="49.99967" lon="2.27047">
        <ele>130.9</ele>
        <time>2024-07-17T07:46:17Z</time>
      </trkpt>
      <trkpt lat="49.9997" lon="2.27046">
        <ele>130.9</ele>
        <time>2024-07-17T07:46:18Z</time>
      </trkpt>
      <trkpt lat="49.99971" lon="2.27046">
        <ele>130.9</ele>
        <time>2024-07-17T07:46:20Z</time>
      </trkpt>
      <trkpt lat="49.99972" lon="2.27046">
        <ele>130.9</ele>
        <time>2024-07-17T07:46:21Z</time>
      </trkpt>
      <trkpt lat="49.99973" lon="2.27046">
        <ele>131</ele>
        <time>2024-07-17T07:46:22Z</time>
      </trkpt>
      <trkpt lat="49.99974" lon="2.27047">
        <ele>131</ele>
        <time>2024-07-17T07:46:23Z</time>
      </trkpt>
      <trkpt lat="49.99975" lon="2.27047">
        <ele>131</ele>
        <time>2024-07-17T07:46:24Z</time>
      </trkpt>
      <trkpt lat="49.99977" lon="2.27047">
        <ele>131</ele>
        <time>2024-07-17T07:46:25Z</time>
      </trkpt>
      <trkpt lat="49.99978" lon="2.27047">
        <ele>131</ele>
        <time>2024-07-17T07:46:26Z</time>
      </trkpt>
      <trkpt lat="49.9998" lon="2.27047">
        <ele>131.1</ele>
        <time>2024-07-17T07:46:27Z</time>
      </trkpt>
      <trkpt lat="49.99981" lon="2.27048">
        <ele>131.1</ele>
        <time>2024-07-17T07:46:28Z</time>
      </trkpt>
      <trkpt lat="49.99982" lon="2.27047">
        <ele>131.1</ele>
        <time>2024-07-17T07:46:29Z</time>
      </trkpt>
      <trkpt lat="49.99983" lon="2.27047">
        <ele>131.1</ele>
        <time>2024-07-17T07:46:30Z</time>
      </trkpt>
      <trkpt lat="49.99984" lon="2.27047">
        <ele>131.1</ele>
        <time>2024-07-17T07:46:31Z</time>
      </trkpt>
      <trkpt lat="49.99986" lon="2.27048">
        <ele>131.1</ele>
        <time>2024-07-17T07:46:32Z</time>
      </trkpt>
      <trkpt lat="49.99986" lon="2.27047">
        <ele>131.1</ele>
        <time>2024-07-17T07:46:33Z</time>
      </trkpt>
      <trkpt lat="49.99987" lon="2.27047">
        <ele>131.2</ele>
        <time>2024-07-17T07:46:34Z</time>
      </trkpt>
      <trkpt lat="49.99988" lon="2.27047">
        <ele>131.2</ele>
        <time>2024-07-17T07:46:35Z</time>
      </trkpt>
      <trkpt lat="49.9999" lon="2.27047">
        <ele>131.2</ele>
        <time>2024-07-17T07:46:36Z</time>
      </trkpt>
      <trkpt lat="49.99992" lon="2.27047">
        <ele>131.2</ele>
        <time>2024-07-17T07:46:38Z</time>
      </trkpt>
      <trkpt lat="49.99992" lon="2.27047">
        <ele>131.2</ele>
        <time>2024-07-17T07:46:39Z</time>
      </trkpt>
      <trkpt lat="49.99993" lon="2.27047">
        <ele>131.2</ele>
        <time>2024-07-17T07:46:40Z</time>
      </trkpt>
      <trkpt lat="49.99996" lon="2.27047">
        <ele>131.3</ele>
        <time>2024-07-17T07:46:41Z</time>
      </trkpt>
      <trkpt lat="49.99997" lon="2.27047">
        <ele>131.3</ele>
        <time>2024-07-17T07:46:43Z</time>
      </trkpt>
      <trkpt lat="49.99998" lon="2.27046">
        <ele>131.3</ele>
        <time>2024-07-17T07:46:44Z</time>
      </trkpt>
      <trkpt lat="49.99999" lon="2.27046">
        <ele>131.3</ele>
        <time>2024-07-17T07:46:45Z</time>
      </trkpt>
      <trkpt lat="50" lon="2.27046">
        <ele>131.3</ele>
        <time>2024-07-17T07:46:46Z</time>
      </trkpt>
      <trkpt lat="50.00001" lon="2.27046">
        <ele>131.3</ele>
        <time>2024-07-17T07:46:47Z</time>
      </trkpt>
      <trkpt lat="50.00002" lon="2.27046">
        <ele>131.3</ele>
        <time>2024-07-17T07:46:48Z</time>
      </trkpt>
      <trkpt lat="50.00004" lon="2.27047">
        <ele>131.4</ele>
        <time>2024-07-17T07:46:49Z</time>
      </trkpt>
      <trkpt lat="50.00005" lon="2.27047">
        <ele>131.4</ele>
        <time>2024-07-17T07:46:50Z</time>
      </trkpt>
      <trkpt lat="50.00006" lon="2.27047">
        <ele>131.4</ele>
        <time>2024-07-17T07:46:51Z</time>
      </trkpt>
      <trkpt lat="50.00007" lon="2.27047">
        <ele>131.4</ele>
        <time>2024-07-17T07:46:52Z</time>
      </trkpt>
      <trkpt lat="50.00008" lon="2.27046">
        <ele>131.4</ele>
        <time>2024-07-17T07:46:53Z</time>
      </trkpt>
      <trkpt lat="50.0001" lon="2.27046">
        <ele>131.4</ele>
        <time>2024-07-17T07:46:54Z</time>
      </trkpt>
      <trkpt lat="50.0001" lon="2.27046">
        <ele>131.5</ele>
        <time>2024-07-17T07:46:55Z</time>
      </trkpt>
      <trkpt lat="50.00011" lon="2.27045">
        <ele>131.5</ele>
        <time>2024-07-17T07:46:56Z</time>
      </trkpt>
      <trkpt lat="50.00013" lon="2.27045">
        <ele>131.5</ele>
        <time>2024-07-17T07:46:57Z</time>
      </trkpt>
      <trkpt lat="50.00014" lon="2.27044">
        <ele>131.5</ele>
        <time>2024-07-17T07:46:58Z</time>
      </trkpt>
      <trkpt lat="50.00015" lon="2.27044">
        <ele>131.5</ele>
        <time>2024-07-17T07:46:59Z</time>
      </trkpt>
      <trkpt lat="50.00016" lon="2.27044">
        <ele>131.5</ele>
        <time>2024-07-17T07:47:00Z</time>
      </trkpt>
      <trkpt lat="50.00017" lon="2.27044">
        <ele>131.5</ele>
        <time>2024-07-17T07:47:01Z</time>
      </trkpt>
      <trkpt lat="50.00017" lon="2.27044">
        <ele>131.6</ele>
        <time>2024-07-17T07:47:02Z</time>
      </trkpt>
      <trkpt lat="50.00019" lon="2.27044">
        <ele>131.6</ele>
        <time>2024-07-17T07:47:03Z</time>
      </trkpt>
      <trkpt lat="50.00019" lon="2.27044">
        <ele>131.6</ele>
        <time>2024-07-17T07:47:04Z</time>
      </trkpt>
      <trkpt lat="50.0002" lon="2.27044">
        <ele>131.6</ele>
        <time>2024-07-17T07:47:05Z</time>
      </trkpt>
      <trkpt lat="50.00022" lon="2.27044">
        <ele>131.6</ele>
        <time>2024-07-17T07:47:06Z</time>
      </trkpt>
      <trkpt lat="50.00024" lon="2.27043">
        <ele>131.6</ele>
        <time>2024-07-17T07:47:07Z</time>
      </trkpt>
      <trkpt lat="50.00025" lon="2.27043">
        <ele>131.7</ele>
        <time>2024-07-17T07:47:09Z</time>
      </trkpt>
      <trkpt lat="50.00026" lon="2.27042">
        <ele>131.7</ele>
        <time>2024-07-17T07:47:10Z</time>
      </trkpt>
      <trkpt lat="50.00027" lon="2.27042">
        <ele>131.7</ele>
        <time>2024-07-17T07:47:11Z</time>
      </trkpt>
      <trkpt lat="50.00028" lon="2.27042">
        <ele>131.7</ele>
        <time>2024-07-17T07:47:12Z</time>
      </trkpt>
      <trkpt lat="50.00029" lon="2.27042">
        <ele>131.7</ele>
        <time>2024-07-17T07:47:13Z</time>
      </trkpt>
      <trkpt lat="50.0003" lon="2.27042">
        <ele>131.7</ele>
        <time>2024-07-17T07:47:14Z</time>
      </trkpt>
      <trkpt lat="50.0003" lon="2.27042">
        <ele>131.7</ele>
        <time>2024-07-17T07:47:15Z</time>
      </trkpt>
      <trkpt lat="50.00031" lon="2.27042">
        <ele>131.8</ele>
        <time>2024-07-17T07:47:16Z</time>
      </trkpt>
      <trkpt lat="50.00033" lon="2.27042">
        <ele>131.8</ele>
        <time>2024-07-17T07:47:17Z</time>
      </trkpt>
      <trkpt lat="50.00035" lon="2.27043">
        <ele>131.8</ele>
        <time>2024-07-17T07:47:19Z</time>
      </trkpt>
      <trkpt lat="50.00036" lon="2.27043">
        <ele>131.8</ele>
        <time>2024-07-17T07:47:20Z</time>
      </trkpt>
      <trkpt lat="50.00037" lon="2.27043">
        <ele>131.8</ele>
        <time>2024-07-17T07:47:21Z</time>
      </trkpt>
      <trkpt lat="50.00038" lon="2.27043">
        <ele>131.8</ele>
        <time>2024-07-17T07:47:22Z</time>
      </trkpt>
      <trkpt lat="50.00039" lon="2.27043">
        <ele>131.9</ele>
        <time>2024-07-17T07:47:23Z</time>
      </trkpt>
      <trkpt lat="50.0004" lon="2.27043">
        <ele>131.9</ele>
        <time>2024-07-17T07:47:24Z</time>
      </trkpt>
      <trkpt lat="50.00041" lon="2.27043">
        <ele>131.9</ele>
        <time>2024-07-17T07:47:25Z</time>
      </trkpt>
      <trkpt lat="50.00042" lon="2.27043">
        <ele>131.9</ele>
        <time>2024-07-17T07:47:26Z</time>
      </trkpt>
      <trkpt lat="50.00043" lon="2.27043">
        <ele>131.9</ele>
        <time>2024-07-17T07:47:27Z</time>
      </trkpt>
      <trkpt lat="50.00045" lon="2.27043">
        <ele>131.9</ele>
        <time>2024-07-17T07:47:28Z</time>
      </trkpt>
      <trkpt lat="50.00046" lon="2.27043">
        <ele>132</ele>
        <time>2024-07-17T07:47:29Z</time>
      </trkpt>
      <trkpt lat="50.00047" lon="2.27043">
        <ele>132</ele>
        <time>2024-07-17T07:47:30Z</time>
      </trkpt>
      <trkpt lat="50.00048" lon="2.27043">
        <ele>132</ele>
        <time>2024-07-17T07:47:31Z</time>
      </trkpt>
      <trkpt lat="50.00049" lon="2.27043">
        <ele>132</ele>
        <time>2024-07-17T07:47:32Z</time>
      </trkpt>
      <trkpt lat="50.0005" lon="2.27043">
        <ele>132</ele>
        <time>2024-07-17T07:47:33Z</time>
      </trkpt>
      <trkpt lat="50.00051" lon="2.27044">
        <ele>132.1</ele>
        <time>2024-07-17T07:47:34Z</time>
      </trkpt>
      <trkpt lat="50.00053" lon="2.27043">
        <ele>132.1</ele>
        <time>2024-07-17T07:47:35Z</time>
      </trkpt>
      <trkpt lat="50.00054" lon="2.27044">
        <ele>132.1</ele>
        <time>2024-07-17T07:47:36Z</time>
      </trkpt>
      <trkpt lat="50.00055" lon="2.27045">
        <ele>132.1</ele>
        <time>2024-07-17T07:47:37Z</time>
      </trkpt>
      <trkpt lat="50.00056" lon="2.27045">
        <ele>132.1</ele>
        <time>2024-07-17T07:47:38Z</time>
      </trkpt>
      <trkpt lat="50.00057" lon="2.27045">
        <ele>132.2</ele>
        <time>2024-07-17T07:47:39Z</time>
      </trkpt>
      <trkpt lat="50.00058" lon="2.27044">
        <ele>132.2</ele>
        <time>2024-07-17T07:47:40Z</time>
      </trkpt>
      <trkpt lat="50.00059" lon="2.27043">
        <ele>132.2</ele>
        <time>2024-07-17T07:47:41Z</time>
      </trkpt>
      <trkpt lat="50.00061" lon="2.27041">
        <ele>132.2</ele>
        <time>2024-07-17T07:47:42Z</time>
      </trkpt>
      <trkpt lat="50.00062" lon="2.2704">
        <ele>132.3</ele>
        <time>2024-07-17T07:47:43Z</time>
      </trkpt>
      <trkpt lat="50.00064" lon="2.2704">
        <ele>132.3</ele>
        <time>2024-07-17T07:47:44Z</time>
      </trkpt>
      <trkpt lat="50.00065" lon="2.27042">
        <ele>132.3</ele>
        <time>2024-07-17T07:47:45Z</time>
      </trkpt>
      <trkpt lat="50.00066" lon="2.27043">
        <ele>132.4</ele>
        <time>2024-07-17T07:47:46Z</time>
      </trkpt>
      <trkpt lat="50.00068" lon="2.27045">
        <ele>132.4</ele>
        <time>2024-07-17T07:47:47Z</time>
      </trkpt>
      <trkpt lat="50.00069" lon="2.27046">
        <ele>132.4</ele>
        <time>2024-07-17T07:47:48Z</time>
      </trkpt>
      <trkpt lat="50.0007" lon="2.27047">
        <ele>132.4</ele>
        <time>2024-07-17T07:47:49Z</time>
      </trkpt>
      <trkpt lat="50.00071" lon="2.27047">
        <ele>132.4</ele>
        <time>2024-07-17T07:47:50Z</time>
      </trkpt>
      <trkpt lat="50.00072" lon="2.27048">
        <ele>132.5</ele>
        <time>2024-07-17T07:47:51Z</time>
      </trkpt>
      <trkpt lat="50.00073" lon="2.27049">
        <ele>132.5</ele>
        <time>2024-07-17T07:47:52Z</time>
      </trkpt>
      <trkpt lat="50.00074" lon="2.27049">
        <ele>132.5</ele>
        <time>2024-07-17T07:47:53Z</time>
      </trkpt>
      <trkpt lat="50.00075" lon="2.27047">
        <ele>132.5</ele>
        <time>2024-07-17T07:47:54Z</time>
      </trkpt>
      <trkpt lat="50.00075" lon="2.27045">
        <ele>132.5</ele>
        <time>2024-07-17T07:47:55Z</time>
      </trkpt>
      <trkpt lat="50.00077" lon="2.27045">
        <ele>132.5</ele>
        <time>2024-07-17T07:47:56Z</time>
      </trkpt>
      <trkpt lat="50.00079" lon="2.27047">
        <ele>132.6</ele>
        <time>2024-07-17T07:47:57Z</time>
      </trkpt>
      <trkpt lat="50.0008" lon="2.27048">
        <ele>132.6</ele>
        <time>2024-07-17T07:47:59Z</time>
      </trkpt>
      <trkpt lat="50.00081" lon="2.27048">
        <ele>132.6</ele>
        <time>2024-07-17T07:48:00Z</time>
      </trkpt>
      <trkpt lat="50.00083" lon="2.27049">
        <ele>132.6</ele>
        <time>2024-07-17T07:48:01Z</time>
      </trkpt>
      <trkpt lat="50.00084" lon="2.27049">
        <ele>132.6</ele>
        <time>2024-07-17T07:48:02Z</time>
      </trkpt>
      <trkpt lat="50.00084" lon="2.2705">
        <ele>132.6</ele>
        <time>2024-07-17T07:48:03Z</time>
      </trkpt>
      <trkpt lat="50.00085" lon="2.2705">
        <ele>132.6</ele>
        <time>2024-07-17T07:48:04Z</time>
      </trkpt>
      <trkpt lat="50.00086" lon="2.27051">
        <ele>132.6</ele>
        <time>2024-07-17T07:48:05Z</time>
      </trkpt>
      <trkpt lat="50.00087" lon="2.27052">
        <ele>132.6</ele>
        <time>2024-07-17T07:48:06Z</time>
      </trkpt>
      <trkpt lat="50.00088" lon="2.27052">
        <ele>132.6</ele>
        <time>2024-07-17T07:48:07Z</time>
      </trkpt>
      <trkpt lat="50.0009" lon="2.27053">
        <ele>132.6</ele>
        <time>2024-07-17T07:48:08Z</time>
      </trkpt>
      <trkpt lat="50.00091" lon="2.27053">
        <ele>132.6</ele>
        <time>2024-07-17T07:48:09Z</time>
      </trkpt>
      <trkpt lat="50.00092" lon="2.27053">
        <ele>132.6</ele>
        <time>2024-07-17T07:48:10Z</time>
      </trkpt>
      <trkpt lat="50.00094" lon="2.27054">
        <ele>132.6</ele>
        <time>2024-07-17T07:48:11Z</time>
      </trkpt>
      <trkpt lat="50.00096" lon="2.27054">
        <ele>132.6</ele>
        <time>2024-07-17T07:48:12Z</time>
      </trkpt>
      <trkpt lat="50.00097" lon="2.27054">
        <ele>132.6</ele>
        <time>2024-07-17T07:48:13Z</time>
      </trkpt>
      <trkpt lat="50.00097" lon="2.27054">
        <ele>132.6</ele>
        <time>2024-07-17T07:48:14Z</time>
      </trkpt>
      <trkpt lat="50.001" lon="2.27055">
        <ele>132.7</ele>
        <time>2024-07-17T07:48:15Z</time>
      </trkpt>
      <trkpt lat="50.00101" lon="2.27054">
        <ele>132.7</ele>
        <time>2024-07-17T07:48:17Z</time>
      </trkpt>
      <trkpt lat="50.00103" lon="2.27055">
        <ele>132.7</ele>
        <time>2024-07-17T07:48:18Z</time>
      </trkpt>
      <trkpt lat="50.00104" lon="2.27054">
        <ele>132.7</ele>
        <time>2024-07-17T07:48:19Z</time>
      </trkpt>
      <trkpt lat="50.00106" lon="2.27055">
        <ele>132.7</ele>
        <time>2024-07-17T07:48:20Z</time>
      </trkpt>
      <trkpt lat="50.00107" lon="2.27055">
        <ele>132.7</ele>
        <time>2024-07-17T07:48:21Z</time>
      </trkpt>
      <trkpt lat="50.00108" lon="2.27055">
        <ele>132.7</ele>
        <time>2024-07-17T07:48:22Z</time>
      </trkpt>
      <trkpt lat="50.00109" lon="2.27055">
        <ele>132.7</ele>
        <time>2024-07-17T07:48:23Z</time>
      </trkpt>
      <trkpt lat="50.00111" lon="2.27055">
        <ele>132.7</ele>
        <time>2024-07-17T07:48:24Z</time>
      </trkpt>
      <trkpt lat="50.00111" lon="2.27055">
        <ele>132.7</ele>
        <time>2024-07-17T07:48:25Z</time>
      </trkpt>
      <trkpt lat="50.00113" lon="2.27055">
        <ele>132.8</ele>
        <time>2024-07-17T07:48:26Z</time>
      </trkpt>
      <trkpt lat="50.00114" lon="2.27056">
        <ele>132.8</ele>
        <time>2024-07-17T07:48:28Z</time>
      </trkpt>
      <trkpt lat="50.00115" lon="2.27056">
        <ele>132.8</ele>
        <time>2024-07-17T07:48:29Z</time>
      </trkpt>
      <trkpt lat="50.00116" lon="2.27056">
        <ele>132.8</ele>
        <time>2024-07-17T07:48:30Z</time>
      </trkpt>
      <trkpt lat="50.00117" lon="2.27056">
        <ele>132.8</ele>
        <time>2024-07-17T07:48:31Z</time>
      </trkpt>
      <trkpt lat="50.00118" lon="2.27056">
        <ele>132.8</ele>
        <time>2024-07-17T07:48:32Z</time>
      </trkpt>
      <trkpt lat="50.0012" lon="2.27056">
        <ele>132.8</ele>
        <time>2024-07-17T07:48:33Z</time>
      </trkpt>
      <trkpt lat="50.00121" lon="2.27057">
        <ele>132.8</ele>
        <time>2024-07-17T07:48:34Z</time>
      </trkpt>
      <trkpt lat="50.00122" lon="2.27057">
        <ele>132.8</ele>
        <time>2024-07-17T07:48:35Z</time>
      </trkpt>
      <trkpt lat="50.00123" lon="2.27057">
        <ele>132.8</ele>
        <time>2024-07-17T07:48:36Z</time>
      </trkpt>
      <trkpt lat="50.00124" lon="2.27057">
        <ele>132.8</ele>
        <time>2024-07-17T07:48:37Z</time>
      </trkpt>
      <trkpt lat="50.00125" lon="2.27057">
        <ele>132.8</ele>
        <time>2024-07-17T07:48:38Z</time>
      </trkpt>
      <trkpt lat="50.00126" lon="2.27057">
        <ele>132.8</ele>
        <time>2024-07-17T07:48:39Z</time>
      </trkpt>
      <trkpt lat="50.00127" lon="2.27058">
        <ele>132.8</ele>
        <time>2024-07-17T07:48:40Z</time>
      </trkpt>
      <trkpt lat="50.00128" lon="2.27058">
        <ele>132.8</ele>
        <time>2024-07-17T07:48:41Z</time>
      </trkpt>
      <trkpt lat="50.00129" lon="2.27058">
        <ele>132.8</ele>
        <time>2024-07-17T07:48:42Z</time>
      </trkpt>
      <trkpt lat="50.0013" lon="2.27058">
        <ele>132.8</ele>
        <time>2024-07-17T07:48:43Z</time>
      </trkpt>
      <trkpt lat="50.00131" lon="2.27059">
        <ele>132.8</ele>
        <time>2024-07-17T07:48:44Z</time>
      </trkpt>
      <trkpt lat="50.00132" lon="2.27059">
        <ele>132.8</ele>
        <time>2024-07-17T07:48:45Z</time>
      </trkpt>
      <trkpt lat="50.00133" lon="2.27059">
        <ele>132.8</ele>
        <time>2024-07-17T07:48:46Z</time>
      </trkpt>
      <trkpt lat="50.00134" lon="2.27059">
        <ele>132.8</ele>
        <time>2024-07-17T07:48:47Z</time>
      </trkpt>
      <trkpt lat="50.00135" lon="2.27059">
        <ele>132.8</ele>
        <time>2024-07-17T07:48:48Z</time>
      </trkpt>
      <trkpt lat="50.00136" lon="2.27059">
        <ele>132.8</ele>
        <time>2024-07-17T07:48:49Z</time>
      </trkpt>
      <trkpt lat="50.00137" lon="2.27059">
        <ele>132.8</ele>
        <time>2024-07-17T07:48:50Z</time>
      </trkpt>
      <trkpt lat="50.00139" lon="2.27059">
        <ele>132.8</ele>
        <time>2024-07-17T07:48:51Z</time>
      </trkpt>
      <trkpt lat="50.00139" lon="2.27059">
        <ele>132.8</ele>
        <time>2024-07-17T07:48:52Z</time>
      </trkpt>
      <trkpt lat="50.0014" lon="2.27059">
        <ele>132.8</ele>
        <time>2024-07-17T07:48:53Z</time>
      </trkpt>
      <trkpt lat="50.00141" lon="2.27059">
        <ele>132.8</ele>
        <time>2024-07-17T07:48:54Z</time>
      </trkpt>
      <trkpt lat="50.00142" lon="2.27059">
        <ele>132.8</ele>
        <time>2024-07-17T07:48:55Z</time>
      </trkpt>
      <trkpt lat="50.00143" lon="2.2706">
        <ele>132.8</ele>
        <time>2024-07-17T07:48:56Z</time>
      </trkpt>
      <trkpt lat="50.00144" lon="2.2706">
        <ele>132.8</ele>
        <time>2024-07-17T07:48:57Z</time>
      </trkpt>
      <trkpt lat="50.00146" lon="2.2706">
        <ele>132.8</ele>
        <time>2024-07-17T07:48:58Z</time>
      </trkpt>
      <trkpt lat="50.00147" lon="2.2706">
        <ele>132.8</ele>
        <time>2024-07-17T07:48:59Z</time>
      </trkpt>
      <trkpt lat="50.00148" lon="2.2706">
        <ele>132.8</ele>
        <time>2024-07-17T07:49:00Z</time>
      </trkpt>
      <trkpt lat="50.00149" lon="2.2706">
        <ele>132.8</ele>
        <time>2024-07-17T07:49:01Z</time>
      </trkpt>
      <trkpt lat="50.0015" lon="2.2706">
        <ele>132.8</ele>
        <time>2024-07-17T07:49:02Z</time>
      </trkpt>
      <trkpt lat="50.00151" lon="2.2706">
        <ele>132.8</ele>
        <time>2024-07-17T07:49:03Z</time>
      </trkpt>
      <trkpt lat="50.00152" lon="2.2706">
        <ele>132.8</ele>
        <time>2024-07-17T07:49:04Z</time>
      </trkpt>
      <trkpt lat="50.00153" lon="2.27061">
        <ele>132.8</ele>
        <time>2024-07-17T07:49:05Z</time>
      </trkpt>
      <trkpt lat="50.00154" lon="2.27061">
        <ele>132.8</ele>
        <time>2024-07-17T07:49:06Z</time>
      </trkpt>
      <trkpt lat="50.00155" lon="2.27061">
        <ele>132.8</ele>
        <time>2024-07-17T07:49:07Z</time>
      </trkpt>
      <trkpt lat="50.00157" lon="2.27062">
        <ele>132.8</ele>
        <time>2024-07-17T07:49:08Z</time>
      </trkpt>
      <trkpt lat="50.00157" lon="2.27062">
        <ele>132.8</ele>
        <time>2024-07-17T07:49:09Z</time>
      </trkpt>
      <trkpt lat="50.00158" lon="2.27063">
        <ele>132.8</ele>
        <time>2024-07-17T07:49:10Z</time>
      </trkpt>
      <trkpt lat="50.0016" lon="2.27063">
        <ele>132.8</ele>
        <time>2024-07-17T07:49:11Z</time>
      </trkpt>
      <trkpt lat="50.00161" lon="2.27063">
        <ele>132.8</ele>
        <time>2024-07-17T07:49:12Z</time>
      </trkpt>
      <trkpt lat="50.00162" lon="2.27064">
        <ele>132.8</ele>
        <time>2024-07-17T07:49:13Z</time>
      </trkpt>
      <trkpt lat="50.00162" lon="2.27064">
        <ele>132.8</ele>
        <time>2024-07-17T07:49:14Z</time>
      </trkpt>
      <trkpt lat="50.00163" lon="2.27065">
        <ele>132.8</ele>
        <time>2024-07-17T07:49:15Z</time>
      </trkpt>
      <trkpt lat="50.00164" lon="2.27065">
        <ele>132.7</ele>
        <time>2024-07-17T07:49:16Z</time>
      </trkpt>
      <trkpt lat="50.00165" lon="2.27066">
        <ele>132.7</ele>
        <time>2024-07-17T07:49:17Z</time>
      </trkpt>
      <trkpt lat="50.00166" lon="2.27066">
        <ele>132.7</ele>
        <time>2024-07-17T07:49:18Z</time>
      </trkpt>
      <trkpt lat="50.00168" lon="2.27067">
        <ele>132.7</ele>
        <time>2024-07-17T07:49:19Z</time>
      </trkpt>
      <trkpt lat="50.00169" lon="2.27067">
        <ele>132.7</ele>
        <time>2024-07-17T07:49:20Z</time>
      </trkpt>
      <trkpt lat="50.0017" lon="2.27067">
        <ele>132.7</ele>
        <time>2024-07-17T07:49:21Z</time>
      </trkpt>
      <trkpt lat="50.00171" lon="2.27067">
        <ele>132.7</ele>
        <time>2024-07-17T07:49:22Z</time>
      </trkpt>
      <trkpt lat="50.00173" lon="2.27068">
        <ele>132.7</ele>
        <time>2024-07-17T07:49:23Z</time>
      </trkpt>
      <trkpt lat="50.00174" lon="2.27068">
        <ele>132.7</ele>
        <time>2024-07-17T07:49:25Z</time>
      </trkpt>
      <trkpt lat="50.00175" lon="2.27068">
        <ele>132.7</ele>
        <time>2024-07-17T07:49:26Z</time>
      </trkpt>
      <trkpt lat="50.00176" lon="2.27069">
        <ele>132.7</ele>
        <time>2024-07-17T07:49:27Z</time>
      </trkpt>
      <trkpt lat="50.00177" lon="2.27069">
        <ele>132.7</ele>
        <time>2024-07-17T07:49:28Z</time>
      </trkpt>
      <trkpt lat="50.00178" lon="2.27069">
        <ele>132.7</ele>
        <time>2024-07-17T07:49:29Z</time>
      </trkpt>
      <trkpt lat="50.00179" lon="2.2707">
        <ele>132.7</ele>
        <time>2024-07-17T07:49:30Z</time>
      </trkpt>
      <trkpt lat="50.0018" lon="2.2707">
        <ele>132.7</ele>
        <time>2024-07-17T07:49:31Z</time>
      </trkpt>
      <trkpt lat="50.00181" lon="2.2707">
        <ele>132.7</ele>
        <time>2024-07-17T07:49:32Z</time>
      </trkpt>
      <trkpt lat="50.00182" lon="2.2707">
        <ele>132.7</ele>
        <time>2024-07-17T07:49:33Z</time>
      </trkpt>
      <trkpt lat="50.00183" lon="2.27071">
        <ele>132.6</ele>
        <time>2024-07-17T07:49:34Z</time>
      </trkpt>
      <trkpt lat="50.00184" lon="2.27071">
        <ele>132.6</ele>
        <time>2024-07-17T07:49:35Z</time>
      </trkpt>
      <trkpt lat="50.00185" lon="2.27071">
        <ele>132.6</ele>
        <time>2024-07-17T07:49:36Z</time>
      </trkpt>
      <trkpt lat="50.00186" lon="2.27072">
        <ele>132.6</ele>
        <time>2024-07-17T07:49:37Z</time>
      </trkpt>
      <trkpt lat="50.00187" lon="2.27072">
        <ele>132.6</ele>
        <time>2024-07-17T07:49:38Z</time>
      </trkpt>
      <trkpt lat="50.00188" lon="2.27073">
        <ele>132.6</ele>
        <time>2024-07-17T07:49:39Z</time>
      </trkpt>
      <trkpt lat="50.00189" lon="2.27073">
        <ele>132.6</ele>
        <time>2024-07-17T07:49:40Z</time>
      </trkpt>
      <trkpt lat="50.0019" lon="2.27074">
        <ele>132.6</ele>
        <time>2024-07-17T07:49:41Z</time>
      </trkpt>
      <trkpt lat="50.0019" lon="2.27074">
        <ele>132.6</ele>
        <time>2024-07-17T07:49:42Z</time>
      </trkpt>
      <trkpt lat="50.00191" lon="2.27075">
        <ele>132.6</ele>
        <time>2024-07-17T07:49:43Z</time>
      </trkpt>
      <trkpt lat="50.00192" lon="2.27075">
        <ele>132.6</ele>
        <time>2024-07-17T07:49:44Z</time>
      </trkpt>
      <trkpt lat="50.00192" lon="2.27076">
        <ele>132.6</ele>
        <time>2024-07-17T07:49:45Z</time>
      </trkpt>
      <trkpt lat="50.00192" lon="2.27077">
        <ele>132.6</ele>
        <time>2024-07-17T07:49:46Z</time>
      </trkpt>
      <trkpt lat="50.00191" lon="2.27078">
        <ele>132.6</ele>
        <time>2024-07-17T07:49:47Z</time>
      </trkpt>
      <trkpt lat="50.00192" lon="2.2708">
        <ele>132.6</ele>
        <time>2024-07-17T07:49:48Z</time>
      </trkpt>
      <trkpt lat="50.00192" lon="2.2708">
        <ele>132.6</ele>
        <time>2024-07-17T07:49:49Z</time>
      </trkpt>
      <trkpt lat="50.00192" lon="2.27081">
        <ele>132.6</ele>
        <time>2024-07-17T07:49:50Z</time>
      </trkpt>
      <trkpt lat="50.00192" lon="2.27082">
        <ele>132.6</ele>
        <time>2024-07-17T07:49:51Z</time>
      </trkpt>
      <trkpt lat="50.00192" lon="2.27082">
        <ele>132.6</ele>
        <time>2024-07-17T07:49:52Z</time>
      </trkpt>
      <trkpt lat="50.00192" lon="2.27083">
        <ele>132.6</ele>
        <time>2024-07-17T07:49:53Z</time>
      </trkpt>
      <trkpt lat="50.00192" lon="2.27084">
        <ele>132.6</ele>
        <time>2024-07-17T07:49:54Z</time>
      </trkpt>
      <trkpt lat="50.00192" lon="2.27085">
        <ele>132.6</ele>
        <time>2024-07-17T07:49:55Z</time>
      </trkpt>
      <trkpt lat="50.00192" lon="2.27086">
        <ele>132.6</ele>
        <time>2024-07-17T07:49:56Z</time>
      </trkpt>
      <trkpt lat="50.00192" lon="2.27087">
        <ele>132.6</ele>
        <time>2024-07-17T07:49:57Z</time>
      </trkpt>
      <trkpt lat="50.00192" lon="2.27088">
        <ele>132.6</ele>
        <time>2024-07-17T07:49:58Z</time>
      </trkpt>
      <trkpt lat="50.00193" lon="2.27088">
        <ele>132.6</ele>
        <time>2024-07-17T07:49:59Z</time>
      </trkpt>
      <trkpt lat="50.00193" lon="2.27087">
        <ele>132.6</ele>
        <time>2024-07-17T07:50:00Z</time>
      </trkpt>
      <trkpt lat="50.00193" lon="2.27085">
        <ele>132.6</ele>
        <time>2024-07-17T07:50:01Z</time>
      </trkpt>
      <trkpt lat="50.00193" lon="2.27084">
        <ele>132.6</ele>
        <time>2024-07-17T07:50:02Z</time>
      </trkpt>
      <trkpt lat="50.00194" lon="2.27081">
        <ele>132.6</ele>
        <time>2024-07-17T07:50:03Z</time>
      </trkpt>
      <trkpt lat="50.00194" lon="2.2708">
        <ele>132.6</ele>
        <time>2024-07-17T07:50:05Z</time>
      </trkpt>
      <trkpt lat="50.00194" lon="2.27078">
        <ele>132.6</ele>
        <time>2024-07-17T07:50:06Z</time>
      </trkpt>
      <trkpt lat="50.00195" lon="2.27077">
        <ele>132.6</ele>
        <time>2024-07-17T07:50:07Z</time>
      </trkpt>
      <trkpt lat="50.00195" lon="2.27076">
        <ele>132.6</ele>
        <time>2024-07-17T07:50:08Z</time>
      </trkpt>
      <trkpt lat="50.00196" lon="2.27076">
        <ele>132.6</ele>
        <time>2024-07-17T07:50:09Z</time>
      </trkpt>
      <trkpt lat="50.00197" lon="2.27077">
        <ele>132.6</ele>
        <time>2024-07-17T07:50:10Z</time>
      </trkpt>
      <trkpt lat="50.00197" lon="2.27077">
        <ele>132.6</ele>
        <time>2024-07-17T07:50:11Z</time>
      </trkpt>
      <trkpt lat="50.00198" lon="2.27076">
        <ele>132.6</ele>
        <time>2024-07-17T07:50:12Z</time>
      </trkpt>
      <trkpt lat="50.00198" lon="2.27076">
        <ele>132.6</ele>
        <time>2024-07-17T07:50:13Z</time>
      </trkpt>
      <trkpt lat="50.00199" lon="2.27076">
        <ele>132.5</ele>
        <time>2024-07-17T07:50:14Z</time>
      </trkpt>
      <trkpt lat="50.002" lon="2.27076">
        <ele>132.5</ele>
        <time>2024-07-17T07:50:15Z</time>
      </trkpt>
      <trkpt lat="50.00201" lon="2.27075">
        <ele>132.5</ele>
        <time>2024-07-17T07:50:16Z</time>
      </trkpt>
      <trkpt lat="50.00201" lon="2.27074">
        <ele>132.5</ele>
        <time>2024-07-17T07:50:17Z</time>
      </trkpt>
      <trkpt lat="50.00202" lon="2.27074">
        <ele>132.5</ele>
        <time>2024-07-17T07:50:18Z</time>
      </trkpt>
      <trkpt lat="50.00203" lon="2.27074">
        <ele>132.5</ele>
        <time>2024-07-17T07:50:19Z</time>
      </trkpt>
      <trkpt lat="50.00204" lon="2.27074">
        <ele>132.5</ele>
        <time>2024-07-17T07:50:20Z</time>
      </trkpt>
      <trkpt lat="50.00204" lon="2.27073">
        <ele>132.5</ele>
        <time>2024-07-17T07:50:21Z</time>
      </trkpt>
      <trkpt lat="50.00205" lon="2.27073">
        <ele>132.5</ele>
        <time>2024-07-17T07:50:22Z</time>
      </trkpt>
      <trkpt lat="50.00206" lon="2.27073">
        <ele>132.5</ele>
        <time>2024-07-17T07:50:23Z</time>
      </trkpt>
      <trkpt lat="50.00208" lon="2.27072">
        <ele>132.5</ele>
        <time>2024-07-17T07:50:24Z</time>
      </trkpt>
      <trkpt lat="50.00209" lon="2.27071">
        <ele>132.5</ele>
        <time>2024-07-17T07:50:26Z</time>
      </trkpt>
      <trkpt lat="50.0021" lon="2.27071">
        <ele>132.5</ele>
        <time>2024-07-17T07:50:27Z</time>
      </trkpt>
      <trkpt lat="50.00211" lon="2.27071">
        <ele>132.5</ele>
        <time>2024-07-17T07:50:28Z</time>
      </trkpt>
      <trkpt lat="50.00212" lon="2.2707">
        <ele>132.5</ele>
        <time>2024-07-17T07:50:29Z</time>
      </trkpt>
      <trkpt lat="50.00214" lon="2.27069">
        <ele>132.4</ele>
        <time>2024-07-17T07:50:30Z</time>
      </trkpt>
      <trkpt lat="50.00215" lon="2.27069">
        <ele>132.4</ele>
        <time>2024-07-17T07:50:31Z</time>
      </trkpt>
      <trkpt lat="50.00215" lon="2.27068">
        <ele>132.4</ele>
        <time>2024-07-17T07:50:32Z</time>
      </trkpt>
      <trkpt lat="50.00217" lon="2.27068">
        <ele>132.4</ele>
        <time>2024-07-17T07:50:33Z</time>
      </trkpt>
      <trkpt lat="50.00218" lon="2.27068">
        <ele>132.4</ele>
        <time>2024-07-17T07:50:34Z</time>
      </trkpt>
      <trkpt lat="50.00218" lon="2.27067">
        <ele>132.4</ele>
        <time>2024-07-17T07:50:35Z</time>
      </trkpt>
      <trkpt lat="50.00219" lon="2.27067">
        <ele>132.4</ele>
        <time>2024-07-17T07:50:36Z</time>
      </trkpt>
      <trkpt lat="50.0022" lon="2.27067">
        <ele>132.4</ele>
        <time>2024-07-17T07:50:37Z</time>
      </trkpt>
      <trkpt lat="50.00221" lon="2.27066">
        <ele>132.4</ele>
        <time>2024-07-17T07:50:38Z</time>
      </trkpt>
      <trkpt lat="50.00222" lon="2.27066">
        <ele>132.4</ele>
        <time>2024-07-17T07:50:39Z</time>
      </trkpt>
      <trkpt lat="50.00223" lon="2.27065">
        <ele>132.4</ele>
        <time>2024-07-17T07:50:40Z</time>
      </trkpt>
      <trkpt lat="50.00224" lon="2.27065">
        <ele>132.4</ele>
        <time>2024-07-17T07:50:41Z</time>
      </trkpt>
      <trkpt lat="50.00225" lon="2.27064">
        <ele>132.4</ele>
        <time>2024-07-17T07:50:42Z</time>
      </trkpt>
      <trkpt lat="50.00225" lon="2.27064">
        <ele>132.3</ele>
        <time>2024-07-17T07:50:43Z</time>
      </trkpt>
      <trkpt lat="50.00226" lon="2.27063">
        <ele>132.3</ele>
        <time>2024-07-17T07:50:44Z</time>
      </trkpt>
      <trkpt lat="50.00227" lon="2.27062">
        <ele>132.3</ele>
        <time>2024-07-17T07:50:45Z</time>
      </trkpt>
      <trkpt lat="50.00228" lon="2.27062">
        <ele>132.3</ele>
        <time>2024-07-17T07:50:46Z</time>
      </trkpt>
      <trkpt lat="50.0023" lon="2.27061">
        <ele>132.3</ele>
        <time>2024-07-17T07:50:47Z</time>
      </trkpt>
      <trkpt lat="50.0023" lon="2.27061">
        <ele>132.3</ele>
        <time>2024-07-17T07:50:48Z</time>
      </trkpt>
      <trkpt lat="50.00231" lon="2.2706">
        <ele>132.3</ele>
        <time>2024-07-17T07:50:49Z</time>
      </trkpt>
      <trkpt lat="50.00232" lon="2.27059">
        <ele>132.3</ele>
        <time>2024-07-17T07:50:50Z</time>
      </trkpt>
      <trkpt lat="50.00233" lon="2.27058">
        <ele>132.3</ele>
        <time>2024-07-17T07:50:51Z</time>
      </trkpt>
      <trkpt lat="50.00234" lon="2.27056">
        <ele>132.2</ele>
        <time>2024-07-17T07:50:52Z</time>
      </trkpt>
      <trkpt lat="50.00235" lon="2.27055">
        <ele>132.2</ele>
        <time>2024-07-17T07:50:53Z</time>
      </trkpt>
      <trkpt lat="50.00237" lon="2.27053">
        <ele>132.2</ele>
        <time>2024-07-17T07:50:54Z</time>
      </trkpt>
      <trkpt lat="50.00238" lon="2.27052">
        <ele>132.2</ele>
        <time>2024-07-17T07:50:56Z</time>
      </trkpt>
      <trkpt lat="50.00239" lon="2.27051">
        <ele>132.2</ele>
        <time>2024-07-17T07:50:57Z</time>
      </trkpt>
      <trkpt lat="50.0024" lon="2.2705">
        <ele>132.2</ele>
        <time>2024-07-17T07:50:58Z</time>
      </trkpt>
      <trkpt lat="50.00241" lon="2.27049">
        <ele>132.1</ele>
        <time>2024-07-17T07:50:59Z</time>
      </trkpt>
      <trkpt lat="50.00241" lon="2.27047">
        <ele>132.1</ele>
        <time>2024-07-17T07:51:00Z</time>
      </trkpt>
      <trkpt lat="50.00242" lon="2.27047">
        <ele>132.1</ele>
        <time>2024-07-17T07:51:01Z</time>
      </trkpt>
      <trkpt lat="50.00243" lon="2.27046">
        <ele>132.1</ele>
        <time>2024-07-17T07:51:02Z</time>
      </trkpt>
      <trkpt lat="50.00244" lon="2.27045">
        <ele>132.1</ele>
        <time>2024-07-17T07:51:03Z</time>
      </trkpt>
      <trkpt lat="50.00245" lon="2.27044">
        <ele>132.1</ele>
        <time>2024-07-17T07:51:04Z</time>
      </trkpt>
      <trkpt lat="50.00246" lon="2.27043">
        <ele>132</ele>
        <time>2024-07-17T07:51:05Z</time>
      </trkpt>
      <trkpt lat="50.00247" lon="2.27042">
        <ele>132</ele>
        <time>2024-07-17T07:51:06Z</time>
      </trkpt>
      <trkpt lat="50.00249" lon="2.27041">
        <ele>132</ele>
        <time>2024-07-17T07:51:07Z</time>
      </trkpt>
      <trkpt lat="50.0025" lon="2.27041">
        <ele>132</ele>
        <time>2024-07-17T07:51:08Z</time>
      </trkpt>
      <trkpt lat="50.0025" lon="2.2704">
        <ele>132</ele>
        <time>2024-07-17T07:51:09Z</time>
      </trkpt>
      <trkpt lat="50.00251" lon="2.27039">
        <ele>131.9</ele>
        <time>2024-07-17T07:51:10Z</time>
      </trkpt>
      <trkpt lat="50.00252" lon="2.27038">
        <ele>131.9</ele>
        <time>2024-07-17T07:51:11Z</time>
      </trkpt>
      <trkpt lat="50.00253" lon="2.27038">
        <ele>131.9</ele>
        <time>2024-07-17T07:51:12Z</time>
      </trkpt>
      <trkpt lat="50.00254" lon="2.27037">
        <ele>131.9</ele>
        <time>2024-07-17T07:51:13Z</time>
      </trkpt>
      <trkpt lat="50.00255" lon="2.27036">
        <ele>131.9</ele>
        <time>2024-07-17T07:51:14Z</time>
      </trkpt>
      <trkpt lat="50.00256" lon="2.27035">
        <ele>131.9</ele>
        <time>2024-07-17T07:51:15Z</time>
      </trkpt>
      <trkpt lat="50.00257" lon="2.27035">
        <ele>131.9</ele>
        <time>2024-07-17T07:51:16Z</time>
      </trkpt>
      <trkpt lat="50.00258" lon="2.27034">
        <ele>131.9</ele>
        <time>2024-07-17T07:51:17Z</time>
      </trkpt>
      <trkpt lat="50.00259" lon="2.27033">
        <ele>131.9</ele>
        <time>2024-07-17T07:51:18Z</time>
      </trkpt>
      <trkpt lat="50.0026" lon="2.27032">
        <ele>131.9</ele>
        <time>2024-07-17T07:51:19Z</time>
      </trkpt>
      <trkpt lat="50.00261" lon="2.27031">
        <ele>131.9</ele>
        <time>2024-07-17T07:51:20Z</time>
      </trkpt>
      <trkpt lat="50.00262" lon="2.2703">
        <ele>131.9</ele>
        <time>2024-07-17T07:51:21Z</time>
      </trkpt>
      <trkpt lat="50.00263" lon="2.2703">
        <ele>131.9</ele>
        <time>2024-07-17T07:51:22Z</time>
      </trkpt>
      <trkpt lat="50.00264" lon="2.27029">
        <ele>131.9</ele>
        <time>2024-07-17T07:51:23Z</time>
      </trkpt>
      <trkpt lat="50.00265" lon="2.27028">
        <ele>131.9</ele>
        <time>2024-07-17T07:51:24Z</time>
      </trkpt>
      <trkpt lat="50.00266" lon="2.27028">
        <ele>132</ele>
        <time>2024-07-17T07:51:25Z</time>
      </trkpt>
      <trkpt lat="50.00267" lon="2.27027">
        <ele>132</ele>
        <time>2024-07-17T07:51:26Z</time>
      </trkpt>
      <trkpt lat="50.00267" lon="2.27027">
        <ele>132</ele>
        <time>2024-07-17T07:51:27Z</time>
      </trkpt>
      <trkpt lat="50.00268" lon="2.27026">
        <ele>132</ele>
        <time>2024-07-17T07:51:28Z</time>
      </trkpt>
      <trkpt lat="50.0027" lon="2.27025">
        <ele>132</ele>
        <time>2024-07-17T07:51:29Z</time>
      </trkpt>
      <trkpt lat="50.00271" lon="2.27025">
        <ele>132</ele>
        <time>2024-07-17T07:51:30Z</time>
      </trkpt>
      <trkpt lat="50.00272" lon="2.27024">
        <ele>132</ele>
        <time>2024-07-17T07:51:31Z</time>
      </trkpt>
      <trkpt lat="50.00273" lon="2.27023">
        <ele>132</ele>
        <time>2024-07-17T07:51:32Z</time>
      </trkpt>
      <trkpt lat="50.00274" lon="2.27022">
        <ele>132</ele>
        <time>2024-07-17T07:51:33Z</time>
      </trkpt>
      <trkpt lat="50.00274" lon="2.27022">
        <ele>132</ele>
        <time>2024-07-17T07:51:34Z</time>
      </trkpt>
      <trkpt lat="50.00275" lon="2.27021">
        <ele>132</ele>
        <time>2024-07-17T07:51:35Z</time>
      </trkpt>
      <trkpt lat="50.00276" lon="2.2702">
        <ele>132</ele>
        <time>2024-07-17T07:51:36Z</time>
      </trkpt>
      <trkpt lat="50.00277" lon="2.27019">
        <ele>132</ele>
        <time>2024-07-17T07:51:37Z</time>
      </trkpt>
      <trkpt lat="50.00278" lon="2.27018">
        <ele>132</ele>
        <time>2024-07-17T07:51:38Z</time>
      </trkpt>
      <trkpt lat="50.00279" lon="2.27017">
        <ele>132</ele>
        <time>2024-07-17T07:51:39Z</time>
      </trkpt>
      <trkpt lat="50.0028" lon="2.27017">
        <ele>131.9</ele>
        <time>2024-07-17T07:51:40Z</time>
      </trkpt>
      <trkpt lat="50.00281" lon="2.27016">
        <ele>131.9</ele>
        <time>2024-07-17T07:51:41Z</time>
      </trkpt>
      <trkpt lat="50.00281" lon="2.27015">
        <ele>131.9</ele>
        <time>2024-07-17T07:51:42Z</time>
      </trkpt>
      <trkpt lat="50.00282" lon="2.27014">
        <ele>131.9</ele>
        <time>2024-07-17T07:51:43Z</time>
      </trkpt>
      <trkpt lat="50.00283" lon="2.27013">
        <ele>131.9</ele>
        <time>2024-07-17T07:51:44Z</time>
      </trkpt>
      <trkpt lat="50.00284" lon="2.27012">
        <ele>131.9</ele>
        <time>2024-07-17T07:51:45Z</time>
      </trkpt>
      <trkpt lat="50.00285" lon="2.27011">
        <ele>131.9</ele>
        <time>2024-07-17T07:51:46Z</time>
      </trkpt>
      <trkpt lat="50.00286" lon="2.2701">
        <ele>131.9</ele>
        <time>2024-07-17T07:51:47Z</time>
      </trkpt>
      <trkpt lat="50.00287" lon="2.27009">
        <ele>131.9</ele>
        <time>2024-07-17T07:51:48Z</time>
      </trkpt>
      <trkpt lat="50.00287" lon="2.27008">
        <ele>131.9</ele>
        <time>2024-07-17T07:51:49Z</time>
      </trkpt>
      <trkpt lat="50.00288" lon="2.27007">
        <ele>131.9</ele>
        <time>2024-07-17T07:51:50Z</time>
      </trkpt>
      <trkpt lat="50.00289" lon="2.27007">
        <ele>131.9</ele>
        <time>2024-07-17T07:51:51Z</time>
      </trkpt>
      <trkpt lat="50.0029" lon="2.27006">
        <ele>131.9</ele>
        <time>2024-07-17T07:51:52Z</time>
      </trkpt>
      <trkpt lat="50.00291" lon="2.27005">
        <ele>131.9</ele>
        <time>2024-07-17T07:51:53Z</time>
      </trkpt>
      <trkpt lat="50.00292" lon="2.27005">
        <ele>131.9</ele>
        <time>2024-07-17T07:51:54Z</time>
      </trkpt>
      <trkpt lat="50.00293" lon="2.27004">
        <ele>131.9</ele>
        <time>2024-07-17T07:51:55Z</time>
      </trkpt>
      <trkpt lat="50.00294" lon="2.27003">
        <ele>131.8</ele>
        <time>2024-07-17T07:51:56Z</time>
      </trkpt>
      <trkpt lat="50.00294" lon="2.27002">
        <ele>131.8</ele>
        <time>2024-07-17T07:51:57Z</time>
      </trkpt>
      <trkpt lat="50.00295" lon="2.27002">
        <ele>131.8</ele>
        <time>2024-07-17T07:51:58Z</time>
      </trkpt>
      <trkpt lat="50.00296" lon="2.27001">
        <ele>131.8</ele>
        <time>2024-07-17T07:51:59Z</time>
      </trkpt>
      <trkpt lat="50.00297" lon="2.27">
        <ele>131.8</ele>
        <time>2024-07-17T07:52:00Z</time>
      </trkpt>
      <trkpt lat="50.00298" lon="2.26999">
        <ele>131.8</ele>
        <time>2024-07-17T07:52:01Z</time>
      </trkpt>
      <trkpt lat="50.00299" lon="2.26998">
        <ele>131.8</ele>
        <time>2024-07-17T07:52:02Z</time>
      </trkpt>
      <trkpt lat="50.003" lon="2.26997">
        <ele>131.8</ele>
        <time>2024-07-17T07:52:03Z</time>
      </trkpt>
      <trkpt lat="50.00301" lon="2.26996">
        <ele>131.8</ele>
        <time>2024-07-17T07:52:04Z</time>
      </trkpt>
      <trkpt lat="50.00302" lon="2.26995">
        <ele>131.8</ele>
        <time>2024-07-17T07:52:05Z</time>
      </trkpt>
      <trkpt lat="50.00303" lon="2.26994">
        <ele>131.8</ele>
        <time>2024-07-17T07:52:06Z</time>
      </trkpt>
      <trkpt lat="50.00304" lon="2.26993">
        <ele>131.8</ele>
        <time>2024-07-17T07:52:07Z</time>
      </trkpt>
      <trkpt lat="50.00305" lon="2.26993">
        <ele>131.7</ele>
        <time>2024-07-17T07:52:08Z</time>
      </trkpt>
      <trkpt lat="50.00306" lon="2.26992">
        <ele>131.7</ele>
        <time>2024-07-17T07:52:09Z</time>
      </trkpt>
      <trkpt lat="50.00306" lon="2.2699">
        <ele>131.7</ele>
        <time>2024-07-17T07:52:10Z</time>
      </trkpt>
      <trkpt lat="50.00307" lon="2.26989">
        <ele>131.7</ele>
        <time>2024-07-17T07:52:11Z</time>
      </trkpt>
      <trkpt lat="50.00308" lon="2.26988">
        <ele>131.7</ele>
        <time>2024-07-17T07:52:12Z</time>
      </trkpt>
      <trkpt lat="50.00309" lon="2.26988">
        <ele>131.7</ele>
        <time>2024-07-17T07:52:13Z</time>
      </trkpt>
      <trkpt lat="50.0031" lon="2.26987">
        <ele>131.7</ele>
        <time>2024-07-17T07:52:14Z</time>
      </trkpt>
      <trkpt lat="50.00311" lon="2.26986">
        <ele>131.7</ele>
        <time>2024-07-17T07:52:15Z</time>
      </trkpt>
      <trkpt lat="50.00312" lon="2.26985">
        <ele>131.7</ele>
        <time>2024-07-17T07:52:16Z</time>
      </trkpt>
      <trkpt lat="50.00313" lon="2.26984">
        <ele>131.7</ele>
        <time>2024-07-17T07:52:17Z</time>
      </trkpt>
      <trkpt lat="50.00314" lon="2.26983">
        <ele>131.7</ele>
        <time>2024-07-17T07:52:18Z</time>
      </trkpt>
      <trkpt lat="50.00315" lon="2.26982">
        <ele>131.6</ele>
        <time>2024-07-17T07:52:19Z</time>
      </trkpt>
      <trkpt lat="50.00316" lon="2.26981">
        <ele>131.6</ele>
        <time>2024-07-17T07:52:20Z</time>
      </trkpt>
      <trkpt lat="50.00316" lon="2.2698">
        <ele>131.6</ele>
        <time>2024-07-17T07:52:21Z</time>
      </trkpt>
      <trkpt lat="50.00317" lon="2.26979">
        <ele>131.6</ele>
        <time>2024-07-17T07:52:22Z</time>
      </trkpt>
      <trkpt lat="50.00318" lon="2.26978">
        <ele>131.6</ele>
        <time>2024-07-17T07:52:23Z</time>
      </trkpt>
      <trkpt lat="50.0032" lon="2.26977">
        <ele>131.6</ele>
        <time>2024-07-17T07:52:24Z</time>
      </trkpt>
      <trkpt lat="50.00321" lon="2.26977">
        <ele>131.6</ele>
        <time>2024-07-17T07:52:25Z</time>
      </trkpt>
      <trkpt lat="50.00322" lon="2.26976">
        <ele>131.6</ele>
        <time>2024-07-17T07:52:26Z</time>
      </trkpt>
      <trkpt lat="50.00323" lon="2.26975">
        <ele>131.6</ele>
        <time>2024-07-17T07:52:28Z</time>
      </trkpt>
      <trkpt lat="50.00325" lon="2.26975">
        <ele>131.6</ele>
        <time>2024-07-17T07:52:29Z</time>
      </trkpt>
      <trkpt lat="50.00326" lon="2.26975">
        <ele>131.6</ele>
        <time>2024-07-17T07:52:30Z</time>
      </trkpt>
      <trkpt lat="50.00327" lon="2.26976">
        <ele>131.6</ele>
        <time>2024-07-17T07:52:32Z</time>
      </trkpt>
      <trkpt lat="50.00989" lon="2.25642">
        <ele>127.7</ele>
        <time>2024-07-17T08:48:05Z</time>
      </trkpt>
      <trkpt lat="50.00989" lon="2.25647">
        <ele>127.6</ele>
        <time>2024-07-17T08:48:06Z</time>
      </trkpt>
      <trkpt lat="50.00989" lon="2.25648">
        <ele>127.6</ele>
        <time>2024-07-17T08:48:07Z</time>
      </trkpt>
      <trkpt lat="50.00989" lon="2.25649">
        <ele>127.6</ele>
        <time>2024-07-17T08:48:09Z</time>
      </trkpt>
      <trkpt lat="50.00989" lon="2.25649">
        <ele>127.6</ele>
        <time>2024-07-17T08:48:10Z</time>
      </trkpt>
      <trkpt lat="50.00989" lon="2.25649">
        <ele>127.6</ele>
        <time>2024-07-17T08:48:11Z</time>
      </trkpt>
      <trkpt lat="50.00989" lon="2.25649">
        <ele>127.6</ele>
        <time>2024-07-17T08:48:12Z</time>
      </trkpt>
      <trkpt lat="50.00989" lon="2.25649">
        <ele>127.6</ele>
        <time>2024-07-17T08:48:13Z</time>
      </trkpt>
      <trkpt lat="50.00989" lon="2.25649">
        <ele>127.6</ele>
        <time>2024-07-17T08:48:14Z</time>
      </trkpt>
      <trkpt lat="50.00989" lon="2.25649">
        <ele>127.6</ele>
        <time>2024-07-17T08:48:15Z</time>
      </trkpt>
      <trkpt lat="50.00989" lon="2.25649">
        <ele>127.6</ele>
        <time>2024-07-17T08:48:16Z</time>
      </trkpt>
      <trkpt lat="50.00989" lon="2.25649">
        <ele>127.6</ele>
        <time>2024-07-17T08:48:17Z</time>
      </trkpt>
      <trkpt lat="50.00989" lon="2.25649">
        <ele>127.6</ele>
        <time>2024-07-17T08:48:18Z</time>
      </trkpt>
      <trkpt lat="50.00989" lon="2.25649">
        <ele>127.6</ele>
        <time>2024-07-17T08:48:19Z</time>
      </trkpt>
      <trkpt lat="50.00989" lon="2.25649">
        <ele>127.6</ele>
        <time>2024-07-17T08:48:20Z</time>
      </trkpt>
      <trkpt lat="50.00989" lon="2.25649">
        <ele>127.6</ele>
        <time>2024-07-17T08:48:21Z</time>
      </trkpt>
      <trkpt lat="50.00989" lon="2.25649">
        <ele>127.6</ele>
        <time>2024-07-17T08:48:22Z</time>
      </trkpt>
      <trkpt lat="50.00989" lon="2.25649">
        <ele>127.6</ele>
        <time>2024-07-17T08:48:23Z</time>
      </trkpt>
      <trkpt lat="50.00989" lon="2.25649">
        <ele>127.6</ele>
        <time>2024-07-17T08:48:24Z</time>
      </trkpt>
      <trkpt lat="50.00989" lon="2.25649">
        <ele>127.6</ele>
        <time>2024-07-17T08:48:25Z</time>
      </trkpt>
      <trkpt lat="50.00989" lon="2.25649">
        <ele>127.6</ele>
        <time>2024-07-17T08:48:26Z</time>
      </trkpt>
      <trkpt lat="50.00989" lon="2.25649">
        <ele>127.6</ele>
        <time>2024-07-17T08:48:27Z</time>
      </trkpt>
      <trkpt lat="50.00989" lon="2.25649">
        <ele>127.6</ele>
        <time>2024-07-17T08:48:28Z</time>
      </trkpt>
      <trkpt lat="50.00989" lon="2.25649">
        <ele>127.6</ele>
        <time>2024-07-17T08:48:29Z</time>
      </trkpt>
      <trkpt lat="50.00989" lon="2.25649">
        <ele>127.6</ele>
        <time>2024-07-17T08:48:30Z</time>
      </trkpt>
      <trkpt lat="50.00989" lon="2.25649">
        <ele>127.6</ele>
        <time>2024-07-17T08:48:31Z</time>
      </trkpt>
      <trkpt lat="50.00989" lon="2.25649">
        <ele>127.6</ele>
        <time>2024-07-17T08:48:32Z</time>
      </trkpt>
      <trkpt lat="50.00989" lon="2.25649">
        <ele>127.6</ele>
        <time>2024-07-17T08:48:33Z</time>
      </trkpt>
      <trkpt lat="50.00989" lon="2.25649">
        <ele>127.6</ele>
        <time>2024-07-17T08:48:34Z</time>
      </trkpt>
      <trkpt lat="50.00989" lon="2.25649">
        <ele>127.6</ele>
        <time>2024-07-17T08:48:35Z</time>
      </trkpt>
      <trkpt lat="50.00989" lon="2.25649">
        <ele>127.6</ele>
        <time>2024-07-17T08:48:36Z</time>
      </trkpt>
      <trkpt lat="50.00989" lon="2.25649">
        <ele>127.6</ele>
        <time>2024-07-17T08:48:37Z</time>
      </trkpt>
      <trkpt lat="50.00989" lon="2.25649">
        <ele>127.6</ele>
        <time>2024-07-17T08:48:38Z</time>
      </trkpt>
      <trkpt lat="50.00989" lon="2.25649">
        <ele>127.6</ele>
        <time>2024-07-17T08:48:39Z</time>
      </trkpt>
      <trkpt lat="50.00989" lon="2.25649">
        <ele>127.6</ele>
        <time>2024-07-17T08:48:40Z</time>
      </trkpt>
      <trkpt lat="50.00989" lon="2.25649">
        <ele>127.6</ele>
        <time>2024-07-17T08:48:41Z</time>
      </trkpt>
      <trkpt lat="50.00989" lon="2.25649">
        <ele>127.6</ele>
        <time>2024-07-17T08:48:42Z</time>
      </trkpt>
      <trkpt lat="50.00989" lon="2.25649">
        <ele>127.6</ele>
        <time>2024-07-17T08:48:43Z</time>
      </trkpt>
      <trkpt lat="50.00989" lon="2.25649">
        <ele>127.6</ele>
        <time>2024-07-17T08:48:44Z</time>
      </trkpt>
      <trkpt lat="50.00989" lon="2.25649">
        <ele>127.6</ele>
        <time>2024-07-17T08:48:45Z</time>
      </trkpt>
      <trkpt lat="50.00989" lon="2.25649">
        <ele>127.6</ele>
        <time>2024-07-17T08:48:46Z</time>
      </trkpt>
      <trkpt lat="50.00989" lon="2.25649">
        <ele>127.6</ele>
        <time>2024-07-17T08:48:47Z</time>
      </trkpt>
      <trkpt lat="50.00989" lon="2.25649">
        <ele>127.6</ele>
        <time>2024-07-17T08:48:48Z</time>
      </trkpt>
      <trkpt lat="50.00989" lon="2.25649">
        <ele>127.6</ele>
        <time>2024-07-17T08:48:49Z</time>
      </trkpt>
      <trkpt lat="50.00989" lon="2.25649">
        <ele>127.6</ele>
        <time>2024-07-17T08:48:50Z</time>
      </trkpt>
      <trkpt lat="50.00989" lon="2.25649">
        <ele>127.6</ele>
        <time>2024-07-17T08:48:51Z</time>
      </trkpt>
      <trkpt lat="50.00989" lon="2.25649">
        <ele>127.6</ele>
        <time>2024-07-17T08:48:52Z</time>
      </trkpt>
      <trkpt lat="50.00989" lon="2.25649">
        <ele>127.6</ele>
        <time>2024-07-17T08:48:53Z</time>
      </trkpt>
      <trkpt lat="50.00989" lon="2.25649">
        <ele>127.6</ele>
        <time>2024-07-17T08:48:54Z</time>
      </trkpt>
      <trkpt lat="50.00987" lon="2.25651">
        <ele>127.6</ele>
        <time>2024-07-17T08:48:55Z</time>
      </trkpt>
      <trkpt lat="50.00986" lon="2.25653">
        <ele>127.5</ele>
        <time>2024-07-17T08:48:56Z</time>
      </trkpt>
      <trkpt lat="50.00986" lon="2.25654">
        <ele>127.5</ele>
        <time>2024-07-17T08:48:57Z</time>
      </trkpt>
      <trkpt lat="50.00986" lon="2.25654">
        <ele>127.5</ele>
        <time>2024-07-17T08:48:58Z</time>
      </trkpt>
      <trkpt lat="50.00985" lon="2.25655">
        <ele>127.5</ele>
        <time>2024-07-17T08:48:59Z</time>
      </trkpt>
      <trkpt lat="50.00985" lon="2.25656">
        <ele>127.5</ele>
        <time>2024-07-17T08:49:00Z</time>
      </trkpt>
      <trkpt lat="50.00985" lon="2.25657">
        <ele>127.5</ele>
        <time>2024-07-17T08:49:01Z</time>
      </trkpt>
      <trkpt lat="50.00984" lon="2.25659">
        <ele>127.5</ele>
        <time>2024-07-17T08:49:02Z</time>
      </trkpt>
      <trkpt lat="50.00983" lon="2.2566">
        <ele>127.5</ele>
        <time>2024-07-17T08:49:03Z</time>
      </trkpt>
      <trkpt lat="50.00982" lon="2.2566">
        <ele>127.5</ele>
        <time>2024-07-17T08:49:04Z</time>
      </trkpt>
      <trkpt lat="50.00981" lon="2.25661">
        <ele>127.4</ele>
        <time>2024-07-17T08:49:05Z</time>
      </trkpt>
      <trkpt lat="50.0098" lon="2.25661">
        <ele>127.4</ele>
        <time>2024-07-17T08:49:06Z</time>
      </trkpt>
      <trkpt lat="50.0098" lon="2.2566">
        <ele>127.4</ele>
        <time>2024-07-17T08:49:07Z</time>
      </trkpt>
      <trkpt lat="50.00979" lon="2.25661">
        <ele>127.4</ele>
        <time>2024-07-17T08:49:08Z</time>
      </trkpt>
      <trkpt lat="50.00978" lon="2.25662">
        <ele>127.4</ele>
        <time>2024-07-17T08:49:09Z</time>
      </trkpt>
      <trkpt lat="50.00978" lon="2.25664">
        <ele>127.4</ele>
        <time>2024-07-17T08:49:10Z</time>
      </trkpt>
      <trkpt lat="50.00976" lon="2.25666">
        <ele>127.4</ele>
        <time>2024-07-17T08:49:11Z</time>
      </trkpt>
      <trkpt lat="50.00976" lon="2.25667">
        <ele>127.4</ele>
        <time>2024-07-17T08:49:12Z</time>
      </trkpt>
      <trkpt lat="50.00975" lon="2.25668">
        <ele>127.4</ele>
        <time>2024-07-17T08:49:13Z</time>
      </trkpt>
      <trkpt lat="50.00974" lon="2.25669">
        <ele>127.4</ele>
        <time>2024-07-17T08:49:14Z</time>
      </trkpt>
      <trkpt lat="50.00974" lon="2.25669">
        <ele>127.4</ele>
        <time>2024-07-17T08:49:15Z</time>
      </trkpt>
      <trkpt lat="50.00973" lon="2.2567">
        <ele>127.4</ele>
        <time>2024-07-17T08:49:16Z</time>
      </trkpt>
      <trkpt lat="50.00972" lon="2.25671">
        <ele>127.4</ele>
        <time>2024-07-17T08:49:17Z</time>
      </trkpt>
      <trkpt lat="50.00971" lon="2.25672">
        <ele>127.4</ele>
        <time>2024-07-17T08:49:18Z</time>
      </trkpt>
      <trkpt lat="50.0097" lon="2.25674">
        <ele>127.4</ele>
        <time>2024-07-17T08:49:19Z</time>
      </trkpt>
      <trkpt lat="50.0097" lon="2.25675">
        <ele>127.4</ele>
        <time>2024-07-17T08:49:20Z</time>
      </trkpt>
      <trkpt lat="50.00969" lon="2.25676">
        <ele>127.4</ele>
        <time>2024-07-17T08:49:21Z</time>
      </trkpt>
      <trkpt lat="50.00968" lon="2.25677">
        <ele>127.4</ele>
        <time>2024-07-17T08:49:22Z</time>
      </trkpt>
      <trkpt lat="50.00967" lon="2.25679">
        <ele>127.5</ele>
        <time>2024-07-17T08:49:23Z</time>
      </trkpt>
      <trkpt lat="50.00966" lon="2.25681">
        <ele>127.5</ele>
        <time>2024-07-17T08:49:24Z</time>
      </trkpt>
      <trkpt lat="50.00965" lon="2.25683">
        <ele>127.5</ele>
        <time>2024-07-17T08:49:25Z</time>
      </trkpt>
      <trkpt lat="50.00964" lon="2.25685">
        <ele>127.5</ele>
        <time>2024-07-17T08:49:26Z</time>
      </trkpt>
      <trkpt lat="50.00964" lon="2.25686">
        <ele>127.5</ele>
        <time>2024-07-17T08:49:27Z</time>
      </trkpt>
      <trkpt lat="50.00962" lon="2.25688">
        <ele>127.5</ele>
        <time>2024-07-17T08:49:28Z</time>
      </trkpt>
      <trkpt lat="50.00962" lon="2.25689">
        <ele>127.5</ele>
        <time>2024-07-17T08:49:29Z</time>
      </trkpt>
      <trkpt lat="50.00961" lon="2.2569">
        <ele>127.5</ele>
        <time>2024-07-17T08:49:30Z</time>
      </trkpt>
      <trkpt lat="50.0096" lon="2.25691">
        <ele>127.5</ele>
        <time>2024-07-17T08:49:31Z</time>
      </trkpt>
      <trkpt lat="50.0096" lon="2.25692">
        <ele>127.6</ele>
        <time>2024-07-17T08:49:32Z</time>
      </trkpt>
      <trkpt lat="50.00959" lon="2.25693">
        <ele>127.6</ele>
        <time>2024-07-17T08:49:33Z</time>
      </trkpt>
      <trkpt lat="50.00958" lon="2.25695">
        <ele>127.6</ele>
        <time>2024-07-17T08:49:34Z</time>
      </trkpt>
      <trkpt lat="50.00957" lon="2.25696">
        <ele>127.6</ele>
        <time>2024-07-17T08:49:35Z</time>
      </trkpt>
      <trkpt lat="50.00957" lon="2.25697">
        <ele>127.6</ele>
        <time>2024-07-17T08:49:36Z</time>
      </trkpt>
      <trkpt lat="50.00956" lon="2.25698">
        <ele>127.6</ele>
        <time>2024-07-17T08:49:37Z</time>
      </trkpt>
      <trkpt lat="50.00955" lon="2.25699">
        <ele>127.6</ele>
        <time>2024-07-17T08:49:38Z</time>
      </trkpt>
      <trkpt lat="50.00955" lon="2.257">
        <ele>127.6</ele>
        <time>2024-07-17T08:49:39Z</time>
      </trkpt>
      <trkpt lat="50.00954" lon="2.25701">
        <ele>127.6</ele>
        <time>2024-07-17T08:49:40Z</time>
      </trkpt>
      <trkpt lat="50.00953" lon="2.25702">
        <ele>127.6</ele>
        <time>2024-07-17T08:49:41Z</time>
      </trkpt>
      <trkpt lat="50.00952" lon="2.25704">
        <ele>127.6</ele>
        <time>2024-07-17T08:49:42Z</time>
      </trkpt>
      <trkpt lat="50.00951" lon="2.25705">
        <ele>127.6</ele>
        <time>2024-07-17T08:49:43Z</time>
      </trkpt>
      <trkpt lat="50.00951" lon="2.25706">
        <ele>127.7</ele>
        <time>2024-07-17T08:49:44Z</time>
      </trkpt>
      <trkpt lat="50.0095" lon="2.25707">
        <ele>127.7</ele>
        <time>2024-07-17T08:49:45Z</time>
      </trkpt>
      <trkpt lat="50.00949" lon="2.25708">
        <ele>127.7</ele>
        <time>2024-07-17T08:49:46Z</time>
      </trkpt>
      <trkpt lat="50.00948" lon="2.25709">
        <ele>127.7</ele>
        <time>2024-07-17T08:49:47Z</time>
      </trkpt>
      <trkpt lat="50.00948" lon="2.2571">
        <ele>127.7</ele>
        <time>2024-07-17T08:49:48Z</time>
      </trkpt>
      <trkpt lat="50.00947" lon="2.25711">
        <ele>127.7</ele>
        <time>2024-07-17T08:49:49Z</time>
      </trkpt>
      <trkpt lat="50.00946" lon="2.25713">
        <ele>127.7</ele>
        <time>2024-07-17T08:49:50Z</time>
      </trkpt>
      <trkpt lat="50.00946" lon="2.25714">
        <ele>127.7</ele>
        <time>2024-07-17T08:49:51Z</time>
      </trkpt>
      <trkpt lat="50.00945" lon="2.25715">
        <ele>127.7</ele>
        <time>2024-07-17T08:49:52Z</time>
      </trkpt>
      <trkpt lat="50.00944" lon="2.25716">
        <ele>127.7</ele>
        <time>2024-07-17T08:49:53Z</time>
      </trkpt>
      <trkpt lat="50.00943" lon="2.25717">
        <ele>127.8</ele>
        <time>2024-07-17T08:49:54Z</time>
      </trkpt>
      <trkpt lat="50.00942" lon="2.25718">
        <ele>127.8</ele>
        <time>2024-07-17T08:49:55Z</time>
      </trkpt>
      <trkpt lat="50.00941" lon="2.25718">
        <ele>127.8</ele>
        <time>2024-07-17T08:49:56Z</time>
      </trkpt>
      <trkpt lat="50.0094" lon="2.25719">
        <ele>127.8</ele>
        <time>2024-07-17T08:49:57Z</time>
      </trkpt>
      <trkpt lat="50.00939" lon="2.25721">
        <ele>127.8</ele>
        <time>2024-07-17T08:49:58Z</time>
      </trkpt>
      <trkpt lat="50.00939" lon="2.25721">
        <ele>127.8</ele>
        <time>2024-07-17T08:49:59Z</time>
      </trkpt>
      <trkpt lat="50.00938" lon="2.25723">
        <ele>127.8</ele>
        <time>2024-07-17T08:50:00Z</time>
      </trkpt>
      <trkpt lat="50.00936" lon="2.25725">
        <ele>127.9</ele>
        <time>2024-07-17T08:50:01Z</time>
      </trkpt>
      <trkpt lat="50.00935" lon="2.25725">
        <ele>127.9</ele>
        <time>2024-07-17T08:50:02Z</time>
      </trkpt>
      <trkpt lat="50.00935" lon="2.25726">
        <ele>127.9</ele>
        <time>2024-07-17T08:50:03Z</time>
      </trkpt>
      <trkpt lat="50.00934" lon="2.25727">
        <ele>127.9</ele>
        <time>2024-07-17T08:50:04Z</time>
      </trkpt>
      <trkpt lat="50.00933" lon="2.25729">
        <ele>127.9</ele>
        <time>2024-07-17T08:50:05Z</time>
      </trkpt>
      <trkpt lat="50.00932" lon="2.2573">
        <ele>127.9</ele>
        <time>2024-07-17T08:50:06Z</time>
      </trkpt>
      <trkpt lat="50.0093" lon="2.25732">
        <ele>128</ele>
        <time>2024-07-17T08:50:07Z</time>
      </trkpt>
      <trkpt lat="50.0093" lon="2.25732">
        <ele>128</ele>
        <time>2024-07-17T08:50:08Z</time>
      </trkpt>
      <trkpt lat="50.00929" lon="2.25733">
        <ele>128</ele>
        <time>2024-07-17T08:50:09Z</time>
      </trkpt>
      <trkpt lat="50.00928" lon="2.25734">
        <ele>128</ele>
        <time>2024-07-17T08:50:10Z</time>
      </trkpt>
      <trkpt lat="50.00927" lon="2.25735">
        <ele>128</ele>
        <time>2024-07-17T08:50:11Z</time>
      </trkpt>
      <trkpt lat="50.00926" lon="2.25737">
        <ele>128</ele>
        <time>2024-07-17T08:50:12Z</time>
      </trkpt>
      <trkpt lat="50.00926" lon="2.25738">
        <ele>128</ele>
        <time>2024-07-17T08:50:13Z</time>
      </trkpt>
      <trkpt lat="50.00925" lon="2.25739">
        <ele>128.1</ele>
        <time>2024-07-17T08:50:14Z</time>
      </trkpt>
      <trkpt lat="50.00924" lon="2.2574">
        <ele>128.1</ele>
        <time>2024-07-17T08:50:15Z</time>
      </trkpt>
      <trkpt lat="50.00923" lon="2.25741">
        <ele>128.1</ele>
        <time>2024-07-17T08:50:16Z</time>
      </trkpt>
      <trkpt lat="50.00922" lon="2.25742">
        <ele>128.1</ele>
        <time>2024-07-17T08:50:17Z</time>
      </trkpt>
      <trkpt lat="50.00921" lon="2.25743">
        <ele>128.1</ele>
        <time>2024-07-17T08:50:18Z</time>
      </trkpt>
      <trkpt lat="50.0092" lon="2.25745">
        <ele>128.1</ele>
        <time>2024-07-17T08:50:19Z</time>
      </trkpt>
      <trkpt lat="50.0092" lon="2.25746">
        <ele>128.1</ele>
        <time>2024-07-17T08:50:20Z</time>
      </trkpt>
      <trkpt lat="50.00919" lon="2.25746">
        <ele>128.2</ele>
        <time>2024-07-17T08:50:21Z</time>
      </trkpt>
      <trkpt lat="50.00918" lon="2.25747">
        <ele>128.2</ele>
        <time>2024-07-17T08:50:22Z</time>
      </trkpt>
      <trkpt lat="50.00917" lon="2.25748">
        <ele>128.2</ele>
        <time>2024-07-17T08:50:23Z</time>
      </trkpt>
      <trkpt lat="50.00916" lon="2.25749">
        <ele>128.2</ele>
        <time>2024-07-17T08:50:24Z</time>
      </trkpt>
      <trkpt lat="50.00916" lon="2.25751">
        <ele>128.2</ele>
        <time>2024-07-17T08:50:25Z</time>
      </trkpt>
      <trkpt lat="50.00915" lon="2.25752">
        <ele>128.2</ele>
        <time>2024-07-17T08:50:26Z</time>
      </trkpt>
      <trkpt lat="50.00914" lon="2.25753">
        <ele>128.2</ele>
        <time>2024-07-17T08:50:27Z</time>
      </trkpt>
      <trkpt lat="50.00913" lon="2.25754">
        <ele>128.2</ele>
        <time>2024-07-17T08:50:28Z</time>
      </trkpt>
      <trkpt lat="50.00913" lon="2.25755">
        <ele>128.3</ele>
        <time>2024-07-17T08:50:29Z</time>
      </trkpt>
      <trkpt lat="50.00912" lon="2.25756">
        <ele>128.3</ele>
        <time>2024-07-17T08:50:30Z</time>
      </trkpt>
      <trkpt lat="50.00911" lon="2.25756">
        <ele>128.3</ele>
        <time>2024-07-17T08:50:31Z</time>
      </trkpt>
      <trkpt lat="50.0091" lon="2.25757">
        <ele>128.3</ele>
        <time>2024-07-17T08:50:32Z</time>
      </trkpt>
      <trkpt lat="50.00909" lon="2.25759">
        <ele>128.3</ele>
        <time>2024-07-17T08:50:33Z</time>
      </trkpt>
      <trkpt lat="50.00908" lon="2.2576">
        <ele>128.3</ele>
        <time>2024-07-17T08:50:34Z</time>
      </trkpt>
      <trkpt lat="50.00908" lon="2.25761">
        <ele>128.3</ele>
        <time>2024-07-17T08:50:35Z</time>
      </trkpt>
      <trkpt lat="50.00907" lon="2.25762">
        <ele>128.3</ele>
        <time>2024-07-17T08:50:36Z</time>
      </trkpt>
      <trkpt lat="50.00906" lon="2.25763">
        <ele>128.3</ele>
        <time>2024-07-17T08:50:37Z</time>
      </trkpt>
      <trkpt lat="50.00905" lon="2.25764">
        <ele>128.3</ele>
        <time>2024-07-17T08:50:38Z</time>
      </trkpt>
      <trkpt lat="50.00904" lon="2.25764">
        <ele>128.4</ele>
        <time>2024-07-17T08:50:39Z</time>
      </trkpt>
      <trkpt lat="50.00904" lon="2.25766">
        <ele>128.4</ele>
        <time>2024-07-17T08:50:40Z</time>
      </trkpt>
      <trkpt lat="50.00903" lon="2.25767">
        <ele>128.4</ele>
        <time>2024-07-17T08:50:41Z</time>
      </trkpt>
      <trkpt lat="50.00902" lon="2.25767">
        <ele>128.4</ele>
        <time>2024-07-17T08:50:42Z</time>
      </trkpt>
      <trkpt lat="50.00902" lon="2.25768">
        <ele>128.4</ele>
        <time>2024-07-17T08:50:43Z</time>
      </trkpt>
      <trkpt lat="50.00901" lon="2.25769">
        <ele>128.4</ele>
        <time>2024-07-17T08:50:44Z</time>
      </trkpt>
      <trkpt lat="50.009" lon="2.2577">
        <ele>128.4</ele>
        <time>2024-07-17T08:50:45Z</time>
      </trkpt>
      <trkpt lat="50.00899" lon="2.25771">
        <ele>128.4</ele>
        <time>2024-07-17T08:50:46Z</time>
      </trkpt>
      <trkpt lat="50.00899" lon="2.25772">
        <ele>128.4</ele>
        <time>2024-07-17T08:50:47Z</time>
      </trkpt>
      <trkpt lat="50.00898" lon="2.25773">
        <ele>128.5</ele>
        <time>2024-07-17T08:50:48Z</time>
      </trkpt>
      <trkpt lat="50.00897" lon="2.25773">
        <ele>128.5</ele>
        <time>2024-07-17T08:50:49Z</time>
      </trkpt>
      <trkpt lat="50.00896" lon="2.25774">
        <ele>128.5</ele>
        <time>2024-07-17T08:50:50Z</time>
      </trkpt>
      <trkpt lat="50.00895" lon="2.25775">
        <ele>128.5</ele>
        <time>2024-07-17T08:50:51Z</time>
      </trkpt>
      <trkpt lat="50.00895" lon="2.25776">
        <ele>128.5</ele>
        <time>2024-07-17T08:50:52Z</time>
      </trkpt>
      <trkpt lat="50.00894" lon="2.25777">
        <ele>128.5</ele>
        <time>2024-07-17T08:50:53Z</time>
      </trkpt>
      <trkpt lat="50.00893" lon="2.25778">
        <ele>128.6</ele>
        <time>2024-07-17T08:50:54Z</time>
      </trkpt>
      <trkpt lat="50.00892" lon="2.25778">
        <ele>128.6</ele>
        <time>2024-07-17T08:50:55Z</time>
      </trkpt>
      <trkpt lat="50.00891" lon="2.25779">
        <ele>128.6</ele>
        <time>2024-07-17T08:50:56Z</time>
      </trkpt>
      <trkpt lat="50.00891" lon="2.2578">
        <ele>128.6</ele>
        <time>2024-07-17T08:50:57Z</time>
      </trkpt>
      <trkpt lat="50.0089" lon="2.25781">
        <ele>128.6</ele>
        <time>2024-07-17T08:50:58Z</time>
      </trkpt>
      <trkpt lat="50.00889" lon="2.25782">
        <ele>128.7</ele>
        <time>2024-07-17T08:50:59Z</time>
      </trkpt>
      <trkpt lat="50.00888" lon="2.25782">
        <ele>128.7</ele>
        <time>2024-07-17T08:51:00Z</time>
      </trkpt>
      <trkpt lat="50.00887" lon="2.25783">
        <ele>128.7</ele>
        <time>2024-07-17T08:51:01Z</time>
      </trkpt>
      <trkpt lat="50.00885" lon="2.25784">
        <ele>128.7</ele>
        <time>2024-07-17T08:51:02Z</time>
      </trkpt>
      <trkpt lat="50.00885" lon="2.25784">
        <ele>128.7</ele>
        <time>2024-07-17T08:51:03Z</time>
      </trkpt>
      <trkpt lat="50.00884" lon="2.25784">
        <ele>128.8</ele>
        <time>2024-07-17T08:51:04Z</time>
      </trkpt>
      <trkpt lat="50.00883" lon="2.25785">
        <ele>128.8</ele>
        <time>2024-07-17T08:51:05Z</time>
      </trkpt>
      <trkpt lat="50.00882" lon="2.25786">
        <ele>128.8</ele>
        <time>2024-07-17T08:51:06Z</time>
      </trkpt>
      <trkpt lat="50.00882" lon="2.25786">
        <ele>128.8</ele>
        <time>2024-07-17T08:51:07Z</time>
      </trkpt>
      <trkpt lat="50.00881" lon="2.25787">
        <ele>128.8</ele>
        <time>2024-07-17T08:51:08Z</time>
      </trkpt>
      <trkpt lat="50.0088" lon="2.25787">
        <ele>128.8</ele>
        <time>2024-07-17T08:51:09Z</time>
      </trkpt>
      <trkpt lat="50.00879" lon="2.25788">
        <ele>128.9</ele>
        <time>2024-07-17T08:51:10Z</time>
      </trkpt>
      <trkpt lat="50.00878" lon="2.25788">
        <ele>128.9</ele>
        <time>2024-07-17T08:51:11Z</time>
      </trkpt>
      <trkpt lat="50.00877" lon="2.25789">
        <ele>128.9</ele>
        <time>2024-07-17T08:51:12Z</time>
      </trkpt>
      <trkpt lat="50.00876" lon="2.2579">
        <ele>128.9</ele>
        <time>2024-07-17T08:51:13Z</time>
      </trkpt>
      <trkpt lat="50.00875" lon="2.2579">
        <ele>128.9</ele>
        <time>2024-07-17T08:51:14Z</time>
      </trkpt>
      <trkpt lat="50.00874" lon="2.25791">
        <ele>129</ele>
        <time>2024-07-17T08:51:15Z</time>
      </trkpt>
      <trkpt lat="50.00873" lon="2.25792">
        <ele>129</ele>
        <time>2024-07-17T08:51:16Z</time>
      </trkpt>
      <trkpt lat="50.00872" lon="2.25793">
        <ele>129</ele>
        <time>2024-07-17T08:51:17Z</time>
      </trkpt>
      <trkpt lat="50.00872" lon="2.25794">
        <ele>129</ele>
        <time>2024-07-17T08:51:18Z</time>
      </trkpt>
      <trkpt lat="50.00871" lon="2.25795">
        <ele>129</ele>
        <time>2024-07-17T08:51:19Z</time>
      </trkpt>
      <trkpt lat="50.0087" lon="2.25796">
        <ele>129.1</ele>
        <time>2024-07-17T08:51:20Z</time>
      </trkpt>
      <trkpt lat="50.0087" lon="2.25797">
        <ele>129.1</ele>
        <time>2024-07-17T08:51:21Z</time>
      </trkpt>
      <trkpt lat="50.00869" lon="2.25798">
        <ele>129.1</ele>
        <time>2024-07-17T08:51:22Z</time>
      </trkpt>
      <trkpt lat="50.00868" lon="2.25799">
        <ele>129.1</ele>
        <time>2024-07-17T08:51:23Z</time>
      </trkpt>
      <trkpt lat="50.00867" lon="2.258">
        <ele>129.1</ele>
        <time>2024-07-17T08:51:24Z</time>
      </trkpt>
      <trkpt lat="50.00867" lon="2.258">
        <ele>129.1</ele>
        <time>2024-07-17T08:51:25Z</time>
      </trkpt>
      <trkpt lat="50.00866" lon="2.25801">
        <ele>129.1</ele>
        <time>2024-07-17T08:51:26Z</time>
      </trkpt>
      <trkpt lat="50.00866" lon="2.25802">
        <ele>129.2</ele>
        <time>2024-07-17T08:51:27Z</time>
      </trkpt>
      <trkpt lat="50.00865" lon="2.25803">
        <ele>129.2</ele>
        <time>2024-07-17T08:51:28Z</time>
      </trkpt>
      <trkpt lat="50.00865" lon="2.25804">
        <ele>129.2</ele>
        <time>2024-07-17T08:51:29Z</time>
      </trkpt>
      <trkpt lat="50.00864" lon="2.25806">
        <ele>129.2</ele>
        <time>2024-07-17T08:51:30Z</time>
      </trkpt>
      <trkpt lat="50.00864" lon="2.25807">
        <ele>129.2</ele>
        <time>2024-07-17T08:51:31Z</time>
      </trkpt>
      <trkpt lat="50.00863" lon="2.25808">
        <ele>129.3</ele>
        <time>2024-07-17T08:51:32Z</time>
      </trkpt>
      <trkpt lat="50.00863" lon="2.25809">
        <ele>129.3</ele>
        <time>2024-07-17T08:51:33Z</time>
      </trkpt>
      <trkpt lat="50.00863" lon="2.2581">
        <ele>129.3</ele>
        <time>2024-07-17T08:51:34Z</time>
      </trkpt>
      <trkpt lat="50.00862" lon="2.25811">
        <ele>129.3</ele>
        <time>2024-07-17T08:51:35Z</time>
      </trkpt>
      <trkpt lat="50.00862" lon="2.25812">
        <ele>129.3</ele>
        <time>2024-07-17T08:51:36Z</time>
      </trkpt>
      <trkpt lat="50.00861" lon="2.25812">
        <ele>129.3</ele>
        <time>2024-07-17T08:51:37Z</time>
      </trkpt>
      <trkpt lat="50.00861" lon="2.25813">
        <ele>129.3</ele>
        <time>2024-07-17T08:51:38Z</time>
      </trkpt>
      <trkpt lat="50.0086" lon="2.25815">
        <ele>129.3</ele>
        <time>2024-07-17T08:51:39Z</time>
      </trkpt>
      <trkpt lat="50.00859" lon="2.25816">
        <ele>129.4</ele>
        <time>2024-07-17T08:51:40Z</time>
      </trkpt>
      <trkpt lat="50.00859" lon="2.25816">
        <ele>129.4</ele>
        <time>2024-07-17T08:51:41Z</time>
      </trkpt>
      <trkpt lat="50.00858" lon="2.25816">
        <ele>129.4</ele>
        <time>2024-07-17T08:51:42Z</time>
      </trkpt>
      <trkpt lat="50.00857" lon="2.25817">
        <ele>129.4</ele>
        <time>2024-07-17T08:51:43Z</time>
      </trkpt>
      <trkpt lat="50.00856" lon="2.25818">
        <ele>129.4</ele>
        <time>2024-07-17T08:51:44Z</time>
      </trkpt>
      <trkpt lat="50.00855" lon="2.25819">
        <ele>129.5</ele>
        <time>2024-07-17T08:51:45Z</time>
      </trkpt>
      <trkpt lat="50.00854" lon="2.25819">
        <ele>129.5</ele>
        <time>2024-07-17T08:51:46Z</time>
      </trkpt>
      <trkpt lat="50.00854" lon="2.25821">
        <ele>129.5</ele>
        <time>2024-07-17T08:51:47Z</time>
      </trkpt>
      <trkpt lat="50.00853" lon="2.25821">
        <ele>129.5</ele>
        <time>2024-07-17T08:51:48Z</time>
      </trkpt>
      <trkpt lat="50.00852" lon="2.25822">
        <ele>129.5</ele>
        <time>2024-07-17T08:51:49Z</time>
      </trkpt>
      <trkpt lat="50.00851" lon="2.25823">
        <ele>129.6</ele>
        <time>2024-07-17T08:51:50Z</time>
      </trkpt>
      <trkpt lat="50.0085" lon="2.25825">
        <ele>129.6</ele>
        <time>2024-07-17T08:51:51Z</time>
      </trkpt>
      <trkpt lat="50.0085" lon="2.25826">
        <ele>129.6</ele>
        <time>2024-07-17T08:51:52Z</time>
      </trkpt>
      <trkpt lat="50.00849" lon="2.25827">
        <ele>129.6</ele>
        <time>2024-07-17T08:51:53Z</time>
      </trkpt>
      <trkpt lat="50.00848" lon="2.25828">
        <ele>129.6</ele>
        <time>2024-07-17T08:51:54Z</time>
      </trkpt>
      <trkpt lat="50.00847" lon="2.25828">
        <ele>129.6</ele>
        <time>2024-07-17T08:51:55Z</time>
      </trkpt>
      <trkpt lat="50.00847" lon="2.25829">
        <ele>129.7</ele>
        <time>2024-07-17T08:51:56Z</time>
      </trkpt>
      <trkpt lat="50.00846" lon="2.2583">
        <ele>129.7</ele>
        <time>2024-07-17T08:51:57Z</time>
      </trkpt>
      <trkpt lat="50.00845" lon="2.2583">
        <ele>129.7</ele>
        <time>2024-07-17T08:51:58Z</time>
      </trkpt>
      <trkpt lat="50.00844" lon="2.25831">
        <ele>129.7</ele>
        <time>2024-07-17T08:51:59Z</time>
      </trkpt>
      <trkpt lat="50.00843" lon="2.25831">
        <ele>129.8</ele>
        <time>2024-07-17T08:52:00Z</time>
      </trkpt>
      <trkpt lat="50.00842" lon="2.25831">
        <ele>129.8</ele>
        <time>2024-07-17T08:52:01Z</time>
      </trkpt>
      <trkpt lat="50.00841" lon="2.25832">
        <ele>129.8</ele>
        <time>2024-07-17T08:52:02Z</time>
      </trkpt>
      <trkpt lat="50.0084" lon="2.25833">
        <ele>129.8</ele>
        <time>2024-07-17T08:52:03Z</time>
      </trkpt>
      <trkpt lat="50.00839" lon="2.25833">
        <ele>129.8</ele>
        <time>2024-07-17T08:52:04Z</time>
      </trkpt>
      <trkpt lat="50.00838" lon="2.25834">
        <ele>129.9</ele>
        <time>2024-07-17T08:52:05Z</time>
      </trkpt>
      <trkpt lat="50.00837" lon="2.25834">
        <ele>129.9</ele>
        <time>2024-07-17T08:52:06Z</time>
      </trkpt>
      <trkpt lat="50.00836" lon="2.25835">
        <ele>129.9</ele>
        <time>2024-07-17T08:52:07Z</time>
      </trkpt>
      <trkpt lat="50.00835" lon="2.25835">
        <ele>129.9</ele>
        <time>2024-07-17T08:52:08Z</time>
      </trkpt>
      <trkpt lat="50.00834" lon="2.25836">
        <ele>129.9</ele>
        <time>2024-07-17T08:52:09Z</time>
      </trkpt>
      <trkpt lat="50.00834" lon="2.25836">
        <ele>129.9</ele>
        <time>2024-07-17T08:52:10Z</time>
      </trkpt>
      <trkpt lat="50.00832" lon="2.25838">
        <ele>130</ele>
        <time>2024-07-17T08:52:11Z</time>
      </trkpt>
      <trkpt lat="50.00832" lon="2.25838">
        <ele>130</ele>
        <time>2024-07-17T08:52:12Z</time>
      </trkpt>
      <trkpt lat="50.00831" lon="2.25839">
        <ele>130</ele>
        <time>2024-07-17T08:52:13Z</time>
      </trkpt>
      <trkpt lat="50.00831" lon="2.2584">
        <ele>130</ele>
        <time>2024-07-17T08:52:14Z</time>
      </trkpt>
      <trkpt lat="50.0083" lon="2.25841">
        <ele>130.1</ele>
        <time>2024-07-17T08:52:15Z</time>
      </trkpt>
      <trkpt lat="50.00829" lon="2.25841">
        <ele>130.1</ele>
        <time>2024-07-17T08:52:16Z</time>
      </trkpt>
      <trkpt lat="50.00828" lon="2.25842">
        <ele>130.1</ele>
        <time>2024-07-17T08:52:17Z</time>
      </trkpt>
      <trkpt lat="50.00828" lon="2.25843">
        <ele>130.1</ele>
        <time>2024-07-17T08:52:18Z</time>
      </trkpt>
      <trkpt lat="50.00827" lon="2.25844">
        <ele>130.1</ele>
        <time>2024-07-17T08:52:19Z</time>
      </trkpt>
      <trkpt lat="50.00826" lon="2.25844">
        <ele>130.2</ele>
        <time>2024-07-17T08:52:20Z</time>
      </trkpt>
      <trkpt lat="50.00825" lon="2.25845">
        <ele>130.2</ele>
        <time>2024-07-17T08:52:21Z</time>
      </trkpt>
      <trkpt lat="50.00824" lon="2.25846">
        <ele>130.2</ele>
        <time>2024-07-17T08:52:22Z</time>
      </trkpt>
      <trkpt lat="50.00823" lon="2.25847">
        <ele>130.2</ele>
        <time>2024-07-17T08:52:23Z</time>
      </trkpt>
      <trkpt lat="50.00822" lon="2.25847">
        <ele>130.2</ele>
        <time>2024-07-17T08:52:24Z</time>
      </trkpt>
      <trkpt lat="50.00822" lon="2.25847">
        <ele>130.3</ele>
        <time>2024-07-17T08:52:25Z</time>
      </trkpt>
      <trkpt lat="50.00821" lon="2.25848">
        <ele>130.3</ele>
        <time>2024-07-17T08:52:26Z</time>
      </trkpt>
      <trkpt lat="50.0082" lon="2.25848">
        <ele>130.3</ele>
        <time>2024-07-17T08:52:27Z</time>
      </trkpt>
      <trkpt lat="50.00819" lon="2.25849">
        <ele>130.3</ele>
        <time>2024-07-17T08:52:28Z</time>
      </trkpt>
      <trkpt lat="50.00818" lon="2.2585">
        <ele>130.3</ele>
        <time>2024-07-17T08:52:29Z</time>
      </trkpt>
      <trkpt lat="50.00818" lon="2.25851">
        <ele>130.4</ele>
        <time>2024-07-17T08:52:30Z</time>
      </trkpt>
      <trkpt lat="50.00817" lon="2.25852">
        <ele>130.4</ele>
        <time>2024-07-17T08:52:31Z</time>
      </trkpt>
      <trkpt lat="50.00816" lon="2.25853">
        <ele>130.4</ele>
        <time>2024-07-17T08:52:32Z</time>
      </trkpt>
      <trkpt lat="50.00816" lon="2.25855">
        <ele>130.4</ele>
        <time>2024-07-17T08:52:33Z</time>
      </trkpt>
      <trkpt lat="50.00815" lon="2.25857">
        <ele>130.5</ele>
        <time>2024-07-17T08:52:34Z</time>
      </trkpt>
      <trkpt lat="50.00814" lon="2.25858">
        <ele>130.5</ele>
        <time>2024-07-17T08:52:35Z</time>
      </trkpt>
      <trkpt lat="50.00814" lon="2.2586">
        <ele>130.5</ele>
        <time>2024-07-17T08:52:36Z</time>
      </trkpt>
      <trkpt lat="50.00813" lon="2.25863">
        <ele>130.6</ele>
        <time>2024-07-17T08:52:37Z</time>
      </trkpt>
      <trkpt lat="50.00813" lon="2.25864">
        <ele>130.6</ele>
        <time>2024-07-17T08:52:38Z</time>
      </trkpt>
      <trkpt lat="50.00813" lon="2.25865">
        <ele>130.6</ele>
        <time>2024-07-17T08:52:39Z</time>
      </trkpt>
      <trkpt lat="50.00812" lon="2.25867">
        <ele>130.6</ele>
        <time>2024-07-17T08:52:40Z</time>
      </trkpt>
      <trkpt lat="50.00812" lon="2.25868">
        <ele>130.6</ele>
        <time>2024-07-17T08:52:41Z</time>
      </trkpt>
      <trkpt lat="50.00811" lon="2.2587">
        <ele>130.7</ele>
        <time>2024-07-17T08:52:42Z</time>
      </trkpt>
      <trkpt lat="50.00809" lon="2.25871">
        <ele>130.7</ele>
        <time>2024-07-17T08:52:43Z</time>
      </trkpt>
      <trkpt lat="50.00808" lon="2.25872">
        <ele>130.7</ele>
        <time>2024-07-17T08:52:44Z</time>
      </trkpt>
      <trkpt lat="50.00808" lon="2.25873">
        <ele>130.7</ele>
        <time>2024-07-17T08:52:45Z</time>
      </trkpt>
      <trkpt lat="50.00807" lon="2.25874">
        <ele>130.8</ele>
        <time>2024-07-17T08:52:46Z</time>
      </trkpt>
      <trkpt lat="50.00806" lon="2.25875">
        <ele>130.8</ele>
        <time>2024-07-17T08:52:47Z</time>
      </trkpt>
      <trkpt lat="50.00805" lon="2.25877">
        <ele>130.8</ele>
        <time>2024-07-17T08:52:48Z</time>
      </trkpt>
      <trkpt lat="50.00804" lon="2.25878">
        <ele>130.8</ele>
        <time>2024-07-17T08:52:49Z</time>
      </trkpt>
      <trkpt lat="50.00804" lon="2.25879">
        <ele>130.8</ele>
        <time>2024-07-17T08:52:50Z</time>
      </trkpt>
      <trkpt lat="50.00803" lon="2.2588">
        <ele>130.9</ele>
        <time>2024-07-17T08:52:51Z</time>
      </trkpt>
      <trkpt lat="50.00802" lon="2.25882">
        <ele>130.9</ele>
        <time>2024-07-17T08:52:52Z</time>
      </trkpt>
      <trkpt lat="50.00802" lon="2.25883">
        <ele>130.9</ele>
        <time>2024-07-17T08:52:53Z</time>
      </trkpt>
      <trkpt lat="50.00801" lon="2.25884">
        <ele>130.9</ele>
        <time>2024-07-17T08:52:54Z</time>
      </trkpt>
      <trkpt lat="50.008" lon="2.25885">
        <ele>131</ele>
        <time>2024-07-17T08:52:55Z</time>
      </trkpt>
      <trkpt lat="50.00799" lon="2.25887">
        <ele>131</ele>
        <time>2024-07-17T08:52:56Z</time>
      </trkpt>
      <trkpt lat="50.00798" lon="2.25888">
        <ele>131</ele>
        <time>2024-07-17T08:52:57Z</time>
      </trkpt>
      <trkpt lat="50.00797" lon="2.25889">
        <ele>131</ele>
        <time>2024-07-17T08:52:58Z</time>
      </trkpt>
      <trkpt lat="50.00796" lon="2.2589">
        <ele>131</ele>
        <time>2024-07-17T08:52:59Z</time>
      </trkpt>
      <trkpt lat="50.00796" lon="2.25891">
        <ele>131.1</ele>
        <time>2024-07-17T08:53:00Z</time>
      </trkpt>
      <trkpt lat="50.00795" lon="2.25892">
        <ele>131.1</ele>
        <time>2024-07-17T08:53:01Z</time>
      </trkpt>
      <trkpt lat="50.00794" lon="2.25893">
        <ele>131.1</ele>
        <time>2024-07-17T08:53:02Z</time>
      </trkpt>
      <trkpt lat="50.00793" lon="2.25894">
        <ele>131.1</ele>
        <time>2024-07-17T08:53:03Z</time>
      </trkpt>
      <trkpt lat="50.00792" lon="2.25895">
        <ele>131.2</ele>
        <time>2024-07-17T08:53:04Z</time>
      </trkpt>
      <trkpt lat="50.00792" lon="2.25896">
        <ele>131.2</ele>
        <time>2024-07-17T08:53:05Z</time>
      </trkpt>
      <trkpt lat="50.00791" lon="2.25897">
        <ele>131.2</ele>
        <time>2024-07-17T08:53:06Z</time>
      </trkpt>
      <trkpt lat="50.0079" lon="2.25898">
        <ele>131.2</ele>
        <time>2024-07-17T08:53:07Z</time>
      </trkpt>
      <trkpt lat="50.00789" lon="2.25899">
        <ele>131.3</ele>
        <time>2024-07-17T08:53:08Z</time>
      </trkpt>
      <trkpt lat="50.00788" lon="2.259">
        <ele>131.3</ele>
        <time>2024-07-17T08:53:09Z</time>
      </trkpt>
      <trkpt lat="50.00787" lon="2.25901">
        <ele>131.3</ele>
        <time>2024-07-17T08:53:10Z</time>
      </trkpt>
      <trkpt lat="50.00786" lon="2.25902">
        <ele>131.3</ele>
        <time>2024-07-17T08:53:11Z</time>
      </trkpt>
      <trkpt lat="50.00786" lon="2.25903">
        <ele>131.4</ele>
        <time>2024-07-17T08:53:12Z</time>
      </trkpt>
      <trkpt lat="50.00785" lon="2.25903">
        <ele>131.4</ele>
        <time>2024-07-17T08:53:13Z</time>
      </trkpt>
      <trkpt lat="50.00784" lon="2.25904">
        <ele>131.4</ele>
        <time>2024-07-17T08:53:14Z</time>
      </trkpt>
      <trkpt lat="50.00783" lon="2.25905">
        <ele>131.4</ele>
        <time>2024-07-17T08:53:15Z</time>
      </trkpt>
      <trkpt lat="50.00783" lon="2.25906">
        <ele>131.4</ele>
        <time>2024-07-17T08:53:16Z</time>
      </trkpt>
      <trkpt lat="50.00782" lon="2.25907">
        <ele>131.5</ele>
        <time>2024-07-17T08:53:17Z</time>
      </trkpt>
      <trkpt lat="50.00781" lon="2.25908">
        <ele>131.5</ele>
        <time>2024-07-17T08:53:18Z</time>
      </trkpt>
      <trkpt lat="50.00781" lon="2.25908">
        <ele>131.5</ele>
        <time>2024-07-17T08:53:19Z</time>
      </trkpt>
      <trkpt lat="50.0078" lon="2.25909">
        <ele>131.5</ele>
        <time>2024-07-17T08:53:20Z</time>
      </trkpt>
      <trkpt lat="50.00779" lon="2.2591">
        <ele>131.6</ele>
        <time>2024-07-17T08:53:21Z</time>
      </trkpt>
      <trkpt lat="50.00779" lon="2.25911">
        <ele>131.6</ele>
        <time>2024-07-17T08:53:22Z</time>
      </trkpt>
      <trkpt lat="50.00778" lon="2.25912">
        <ele>131.6</ele>
        <time>2024-07-17T08:53:23Z</time>
      </trkpt>
      <trkpt lat="50.00777" lon="2.25913">
        <ele>131.6</ele>
        <time>2024-07-17T08:53:24Z</time>
      </trkpt>
      <trkpt lat="50.00777" lon="2.25914">
        <ele>131.6</ele>
        <time>2024-07-17T08:53:25Z</time>
      </trkpt>
      <trkpt lat="50.00776" lon="2.25915">
        <ele>131.7</ele>
        <time>2024-07-17T08:53:26Z</time>
      </trkpt>
      <trkpt lat="50.00775" lon="2.25916">
        <ele>131.7</ele>
        <time>2024-07-17T08:53:27Z</time>
      </trkpt>
      <trkpt lat="50.00774" lon="2.25917">
        <ele>131.7</ele>
        <time>2024-07-17T08:53:28Z</time>
      </trkpt>
      <trkpt lat="50.00773" lon="2.25918">
        <ele>131.8</ele>
        <time>2024-07-17T08:53:29Z</time>
      </trkpt>
      <trkpt lat="50.00772" lon="2.25919">
        <ele>131.8</ele>
        <time>2024-07-17T08:53:30Z</time>
      </trkpt>
      <trkpt lat="50.00771" lon="2.25921">
        <ele>131.8</ele>
        <time>2024-07-17T08:53:31Z</time>
      </trkpt>
      <trkpt lat="50.00771" lon="2.25923">
        <ele>131.8</ele>
        <time>2024-07-17T08:53:33Z</time>
      </trkpt>
      <trkpt lat="50.0077" lon="2.25924">
        <ele>131.9</ele>
        <time>2024-07-17T08:53:34Z</time>
      </trkpt>
      <trkpt lat="50.00284" lon="2.26316">
        <ele>129.7</ele>
        <time>2024-07-17T09:06:34Z</time>
      </trkpt>
      <trkpt lat="50.00306" lon="2.26273">
        <ele>129.4</ele>
        <time>2024-07-17T09:06:35Z</time>
      </trkpt>
      <trkpt lat="50.00308" lon="2.26269">
        <ele>129.4</ele>
        <time>2024-07-17T09:06:36Z</time>
      </trkpt>
      <trkpt lat="50.0031" lon="2.26265">
        <ele>129.4</ele>
        <time>2024-07-17T09:06:37Z</time>
      </trkpt>
      <trkpt lat="50.00311" lon="2.26263">
        <ele>129.4</ele>
        <time>2024-07-17T09:06:39Z</time>
      </trkpt>
      <trkpt lat="50.00312" lon="2.26262">
        <ele>129.3</ele>
        <time>2024-07-17T09:06:40Z</time>
      </trkpt>
      <trkpt lat="50.00312" lon="2.26261">
        <ele>129.3</ele>
        <time>2024-07-17T09:06:41Z</time>
      </trkpt>
      <trkpt lat="50.00312" lon="2.26261">
        <ele>129.3</ele>
        <time>2024-07-17T09:06:42Z</time>
      </trkpt>
      <trkpt lat="50.00312" lon="2.26261">
        <ele>129.3</ele>
        <time>2024-07-17T09:06:43Z</time>
      </trkpt>
      <trkpt lat="50.00312" lon="2.2626">
        <ele>129.3</ele>
        <time>2024-07-17T09:06:44Z</time>
      </trkpt>
      <trkpt lat="50.00312" lon="2.2626">
        <ele>129.3</ele>
        <time>2024-07-17T09:06:45Z</time>
      </trkpt>
      <trkpt lat="50.00312" lon="2.2626">
        <ele>129.3</ele>
        <time>2024-07-17T09:06:46Z</time>
      </trkpt>
      <trkpt lat="50.00312" lon="2.2626">
        <ele>129.3</ele>
        <time>2024-07-17T09:06:47Z</time>
      </trkpt>
      <trkpt lat="50.00312" lon="2.2626">
        <ele>129.3</ele>
        <time>2024-07-17T09:06:48Z</time>
      </trkpt>
      <trkpt lat="50.00312" lon="2.2626">
        <ele>129.3</ele>
        <time>2024-07-17T09:06:49Z</time>
      </trkpt>
      <trkpt lat="50.00312" lon="2.2626">
        <ele>129.3</ele>
        <time>2024-07-17T09:06:50Z</time>
      </trkpt>
      <trkpt lat="50.00312" lon="2.2626">
        <ele>129.3</ele>
        <time>2024-07-17T09:06:51Z</time>
      </trkpt>
      <trkpt lat="50.00312" lon="2.2626">
        <ele>129.3</ele>
        <time>2024-07-17T09:06:52Z</time>
      </trkpt>
      <trkpt lat="50.00312" lon="2.2626">
        <ele>129.3</ele>
        <time>2024-07-17T09:06:53Z</time>
      </trkpt>
      <trkpt lat="50.00312" lon="2.2626">
        <ele>129.3</ele>
        <time>2024-07-17T09:06:54Z</time>
      </trkpt>
      <trkpt lat="50.00312" lon="2.2626">
        <ele>129.3</ele>
        <time>2024-07-17T09:06:55Z</time>
      </trkpt>
      <trkpt lat="50.00312" lon="2.2626">
        <ele>129.3</ele>
        <time>2024-07-17T09:06:56Z</time>
      </trkpt>
      <trkpt lat="50.00312" lon="2.2626">
        <ele>129.3</ele>
        <time>2024-07-17T09:06:57Z</time>
      </trkpt>
      <trkpt lat="50.00312" lon="2.2626">
        <ele>129.3</ele>
        <time>2024-07-17T09:06:58Z</time>
      </trkpt>
      <trkpt lat="50.00312" lon="2.2626">
        <ele>129.3</ele>
        <time>2024-07-17T09:06:59Z</time>
      </trkpt>
      <trkpt lat="50.00312" lon="2.2626">
        <ele>129.3</ele>
        <time>2024-07-17T09:07:00Z</time>
      </trkpt>
      <trkpt lat="50.00312" lon="2.2626">
        <ele>129.3</ele>
        <time>2024-07-17T09:07:01Z</time>
      </trkpt>
      <trkpt lat="50.00312" lon="2.2626">
        <ele>129.3</ele>
        <time>2024-07-17T09:07:02Z</time>
      </trkpt>
      <trkpt lat="50.00312" lon="2.2626">
        <ele>129.3</ele>
        <time>2024-07-17T09:07:03Z</time>
      </trkpt>
      <trkpt lat="50.00312" lon="2.2626">
        <ele>129.3</ele>
        <time>2024-07-17T09:07:04Z</time>
      </trkpt>
      <trkpt lat="50.00312" lon="2.2626">
        <ele>129.3</ele>
        <time>2024-07-17T09:07:05Z</time>
      </trkpt>
      <trkpt lat="50.00312" lon="2.2626">
        <ele>129.3</ele>
        <time>2024-07-17T09:07:06Z</time>
      </trkpt>
      <trkpt lat="50.00312" lon="2.2626">
        <ele>129.3</ele>
        <time>2024-07-17T09:07:07Z</time>
      </trkpt>
      <trkpt lat="50.00312" lon="2.2626">
        <ele>129.3</ele>
        <time>2024-07-17T09:07:08Z</time>
      </trkpt>
      <trkpt lat="50.00312" lon="2.2626">
        <ele>129.3</ele>
        <time>2024-07-17T09:07:09Z</time>
      </trkpt>
      <trkpt lat="50.00312" lon="2.2626">
        <ele>129.3</ele>
        <time>2024-07-17T09:07:10Z</time>
      </trkpt>
      <trkpt lat="50.00312" lon="2.2626">
        <ele>129.3</ele>
        <time>2024-07-17T09:07:11Z</time>
      </trkpt>
      <trkpt lat="50.00312" lon="2.2626">
        <ele>129.3</ele>
        <time>2024-07-17T09:07:12Z</time>
      </trkpt>
      <trkpt lat="50.00312" lon="2.2626">
        <ele>129.3</ele>
        <time>2024-07-17T09:07:13Z</time>
      </trkpt>
      <trkpt lat="50.00312" lon="2.2626">
        <ele>129.3</ele>
        <time>2024-07-17T09:07:15Z</time>
      </trkpt>
      <trkpt lat="50.00312" lon="2.2626">
        <ele>129.3</ele>
        <time>2024-07-17T09:07:16Z</time>
      </trkpt>
      <trkpt lat="50.00312" lon="2.2626">
        <ele>129.3</ele>
        <time>2024-07-17T09:07:17Z</time>
      </trkpt>
      <trkpt lat="50.00312" lon="2.2626">
        <ele>129.3</ele>
        <time>2024-07-17T09:07:18Z</time>
      </trkpt>
      <trkpt lat="50.00312" lon="2.2626">
        <ele>129.3</ele>
        <time>2024-07-17T09:07:19Z</time>
      </trkpt>
      <trkpt lat="50.00312" lon="2.2626">
        <ele>129.3</ele>
        <time>2024-07-17T09:07:20Z</time>
      </trkpt>
      <trkpt lat="50.00312" lon="2.2626">
        <ele>129.3</ele>
        <time>2024-07-17T09:07:21Z</time>
      </trkpt>
      <trkpt lat="50.00312" lon="2.2626">
        <ele>129.3</ele>
        <time>2024-07-17T09:07:22Z</time>
      </trkpt>
      <trkpt lat="50.00312" lon="2.2626">
        <ele>129.3</ele>
        <time>2024-07-17T09:07:23Z</time>
      </trkpt>
      <trkpt lat="50.00312" lon="2.2626">
        <ele>129.3</ele>
        <time>2024-07-17T09:07:24Z</time>
      </trkpt>
      <trkpt lat="50.00312" lon="2.2626">
        <ele>129.3</ele>
        <time>2024-07-17T09:07:25Z</time>
      </trkpt>
      <trkpt lat="50.00312" lon="2.2626">
        <ele>129.3</ele>
        <time>2024-07-17T09:07:26Z</time>
      </trkpt>
      <trkpt lat="50.00312" lon="2.2626">
        <ele>129.3</ele>
        <time>2024-07-17T09:07:27Z</time>
      </trkpt>
      <trkpt lat="50.00312" lon="2.2626">
        <ele>129.3</ele>
        <time>2024-07-17T09:07:28Z</time>
      </trkpt>
      <trkpt lat="50.00312" lon="2.2626">
        <ele>129.3</ele>
        <time>2024-07-17T09:07:29Z</time>
      </trkpt>
      <trkpt lat="50.00312" lon="2.2626">
        <ele>129.3</ele>
        <time>2024-07-17T09:07:30Z</time>
      </trkpt>
      <trkpt lat="50.00312" lon="2.2626">
        <ele>129.3</ele>
        <time>2024-07-17T09:07:31Z</time>
      </trkpt>
      <trkpt lat="50.00312" lon="2.2626">
        <ele>129.3</ele>
        <time>2024-07-17T09:07:32Z</time>
      </trkpt>
      <trkpt lat="50.00312" lon="2.2626">
        <ele>129.3</ele>
        <time>2024-07-17T09:07:33Z</time>
      </trkpt>
      <trkpt lat="50.00312" lon="2.2626">
        <ele>129.3</ele>
        <time>2024-07-17T09:07:34Z</time>
      </trkpt>
      <trkpt lat="50.00312" lon="2.2626">
        <ele>129.3</ele>
        <time>2024-07-17T09:07:35Z</time>
      </trkpt>
      <trkpt lat="50.00312" lon="2.2626">
        <ele>129.3</ele>
        <time>2024-07-17T09:07:36Z</time>
      </trkpt>
      <trkpt lat="50.00312" lon="2.2626">
        <ele>129.3</ele>
        <time>2024-07-17T09:07:37Z</time>
      </trkpt>
      <trkpt lat="50.00312" lon="2.2626">
        <ele>129.3</ele>
        <time>2024-07-17T09:07:38Z</time>
      </trkpt>
      <trkpt lat="50.00312" lon="2.2626">
        <ele>129.3</ele>
        <time>2024-07-17T09:07:39Z</time>
      </trkpt>
      <trkpt lat="50.00312" lon="2.2626">
        <ele>129.3</ele>
        <time>2024-07-17T09:07:40Z</time>
      </trkpt>
      <trkpt lat="50.00312" lon="2.2626">
        <ele>129.3</ele>
        <time>2024-07-17T09:07:41Z</time>
      </trkpt>
      <trkpt lat="50.00312" lon="2.2626">
        <ele>129.3</ele>
        <time>2024-07-17T09:07:42Z</time>
      </trkpt>
      <trkpt lat="50.00312" lon="2.2626">
        <ele>129.3</ele>
        <time>2024-07-17T09:07:43Z</time>
      </trkpt>
      <trkpt lat="50.00312" lon="2.2626">
        <ele>129.3</ele>
        <time>2024-07-17T09:07:44Z</time>
      </trkpt>
      <trkpt lat="50.00312" lon="2.2626">
        <ele>129.3</ele>
        <time>2024-07-17T09:07:45Z</time>
      </trkpt>
      <trkpt lat="50.00312" lon="2.2626">
        <ele>129.3</ele>
        <time>2024-07-17T09:07:46Z</time>
      </trkpt>
      <trkpt lat="50.00312" lon="2.2626">
        <ele>129.3</ele>
        <time>2024-07-17T09:07:47Z</time>
      </trkpt>
      <trkpt lat="50.00312" lon="2.2626">
        <ele>129.3</ele>
        <time>2024-07-17T09:07:48Z</time>
      </trkpt>
      <trkpt lat="50.00312" lon="2.2626">
        <ele>129.3</ele>
        <time>2024-07-17T09:07:49Z</time>
      </trkpt>
      <trkpt lat="50.00312" lon="2.2626">
        <ele>129.3</ele>
        <time>2024-07-17T09:07:50Z</time>
      </trkpt>
      <trkpt lat="50.00312" lon="2.2626">
        <ele>129.3</ele>
        <time>2024-07-17T09:07:51Z</time>
      </trkpt>
      <trkpt lat="50.00312" lon="2.2626">
        <ele>129.3</ele>
        <time>2024-07-17T09:07:52Z</time>
      </trkpt>
      <trkpt lat="50.00312" lon="2.2626">
        <ele>129.3</ele>
        <time>2024-07-17T09:07:53Z</time>
      </trkpt>
      <trkpt lat="50.00312" lon="2.2626">
        <ele>129.3</ele>
        <time>2024-07-17T09:07:54Z</time>
      </trkpt>
      <trkpt lat="50.00312" lon="2.2626">
        <ele>129.3</ele>
        <time>2024-07-17T09:07:55Z</time>
      </trkpt>
      <trkpt lat="50.00312" lon="2.2626">
        <ele>129.3</ele>
        <time>2024-07-17T09:07:56Z</time>
      </trkpt>
      <trkpt lat="50.00312" lon="2.2626">
        <ele>129.3</ele>
        <time>2024-07-17T09:07:57Z</time>
      </trkpt>
      <trkpt lat="50.00312" lon="2.2626">
        <ele>129.3</ele>
        <time>2024-07-17T09:07:58Z</time>
      </trkpt>
      <trkpt lat="50.00312" lon="2.2626">
        <ele>129.3</ele>
        <time>2024-07-17T09:07:59Z</time>
      </trkpt>
      <trkpt lat="50.00312" lon="2.2626">
        <ele>129.3</ele>
        <time>2024-07-17T09:08:00Z</time>
      </trkpt>
      <trkpt lat="50.00312" lon="2.2626">
        <ele>129.3</ele>
        <time>2024-07-17T09:08:01Z</time>
      </trkpt>
      <trkpt lat="50.00312" lon="2.2626">
        <ele>129.3</ele>
        <time>2024-07-17T09:08:02Z</time>
      </trkpt>
      <trkpt lat="50.00312" lon="2.2626">
        <ele>129.3</ele>
        <time>2024-07-17T09:08:03Z</time>
      </trkpt>
      <trkpt lat="50.00312" lon="2.2626">
        <ele>129.3</ele>
        <time>2024-07-17T09:08:04Z</time>
      </trkpt>
      <trkpt lat="50.00312" lon="2.2626">
        <ele>129.3</ele>
        <time>2024-07-17T09:08:05Z</time>
      </trkpt>
      <trkpt lat="50.00312" lon="2.2626">
        <ele>129.3</ele>
        <time>2024-07-17T09:08:06Z</time>
      </trkpt>
      <trkpt lat="50.00312" lon="2.2626">
        <ele>129.3</ele>
        <time>2024-07-17T09:08:07Z</time>
      </trkpt>
      <trkpt lat="50.00312" lon="2.2626">
        <ele>129.3</ele>
        <time>2024-07-17T09:08:08Z</time>
      </trkpt>
      <trkpt lat="50.00312" lon="2.2626">
        <ele>129.3</ele>
        <time>2024-07-17T09:08:09Z</time>
      </trkpt>
      <trkpt lat="50.00312" lon="2.2626">
        <ele>129.3</ele>
        <time>2024-07-17T09:08:10Z</time>
      </trkpt>
      <trkpt lat="50.00312" lon="2.2626">
        <ele>129.3</ele>
        <time>2024-07-17T09:08:11Z</time>
      </trkpt>
      <trkpt lat="50.00312" lon="2.2626">
        <ele>129.3</ele>
        <time>2024-07-17T09:08:12Z</time>
      </trkpt>
      <trkpt lat="50.00312" lon="2.2626">
        <ele>129.3</ele>
        <time>2024-07-17T09:08:13Z</time>
      </trkpt>
      <trkpt lat="50.00312" lon="2.2626">
        <ele>129.3</ele>
        <time>2024-07-17T09:08:14Z</time>
      </trkpt>
      <trkpt lat="50.00312" lon="2.2626">
        <ele>129.3</ele>
        <time>2024-07-17T09:08:15Z</time>
      </trkpt>
      <trkpt lat="50.00312" lon="2.2626">
        <ele>129.3</ele>
        <time>2024-07-17T09:08:16Z</time>
      </trkpt>
      <trkpt lat="50.00312" lon="2.2626">
        <ele>129.3</ele>
        <time>2024-07-17T09:08:17Z</time>
      </trkpt>
      <trkpt lat="50.00312" lon="2.2626">
        <ele>129.3</ele>
        <time>2024-07-17T09:08:18Z</time>
      </trkpt>
      <trkpt lat="50.00312" lon="2.2626">
        <ele>129.3</ele>
        <time>2024-07-17T09:08:19Z</time>
      </trkpt>
      <trkpt lat="50.00312" lon="2.2626">
        <ele>129.3</ele>
        <time>2024-07-17T09:08:20Z</time>
      </trkpt>
      <trkpt lat="50.00312" lon="2.2626">
        <ele>129.3</ele>
        <time>2024-07-17T09:08:21Z</time>
      </trkpt>
      <trkpt lat="50.00312" lon="2.2626">
        <ele>129.3</ele>
        <time>2024-07-17T09:08:22Z</time>
      </trkpt>
      <trkpt lat="50.00312" lon="2.2626">
        <ele>129.3</ele>
        <time>2024-07-17T09:08:23Z</time>
      </trkpt>
      <trkpt lat="50.00312" lon="2.2626">
        <ele>129.3</ele>
        <time>2024-07-17T09:08:24Z</time>
      </trkpt>
      <trkpt lat="50.00312" lon="2.2626">
        <ele>129.3</ele>
        <time>2024-07-17T09:08:25Z</time>
      </trkpt>
      <trkpt lat="50.00312" lon="2.2626">
        <ele>129.3</ele>
        <time>2024-07-17T09:08:26Z</time>
      </trkpt>
      <trkpt lat="50.00312" lon="2.2626">
        <ele>129.3</ele>
        <time>2024-07-17T09:08:27Z</time>
      </trkpt>
      <trkpt lat="50.00312" lon="2.2626">
        <ele>129.3</ele>
        <time>2024-07-17T09:08:28Z</time>
      </trkpt>
      <trkpt lat="50.00312" lon="2.2626">
        <ele>129.3</ele>
        <time>2024-07-17T09:08:29Z</time>
      </trkpt>
      <trkpt lat="50.00312" lon="2.2626">
        <ele>129.3</ele>
        <time>2024-07-17T09:08:30Z</time>
      </trkpt>
      <trkpt lat="50.00312" lon="2.2626">
        <ele>129.3</ele>
        <time>2024-07-17T09:08:31Z</time>
      </trkpt>
      <trkpt lat="50.00312" lon="2.2626">
        <ele>129.3</ele>
        <time>2024-07-17T09:08:32Z</time>
      </trkpt>
      <trkpt lat="50.00312" lon="2.2626">
        <ele>129.3</ele>
        <time>2024-07-17T09:08:33Z</time>
      </trkpt>
      <trkpt lat="50.00312" lon="2.2626">
        <ele>129.3</ele>
        <time>2024-07-17T09:08:34Z</time>
      </trkpt>
      <trkpt lat="50.00312" lon="2.2626">
        <ele>129.3</ele>
        <time>2024-07-17T09:08:35Z</time>
      </trkpt>
      <trkpt lat="50.00312" lon="2.2626">
        <ele>129.3</ele>
        <time>2024-07-17T09:08:36Z</time>
      </trkpt>
      <trkpt lat="50.00312" lon="2.2626">
        <ele>129.3</ele>
        <time>2024-07-17T09:08:37Z</time>
      </trkpt>
      <trkpt lat="50.00312" lon="2.2626">
        <ele>129.3</ele>
        <time>2024-07-17T09:08:38Z</time>
      </trkpt>
      <trkpt lat="50.00312" lon="2.2626">
        <ele>129.3</ele>
        <time>2024-07-17T09:08:39Z</time>
      </trkpt>
      <trkpt lat="50.00312" lon="2.2626">
        <ele>129.3</ele>
        <time>2024-07-17T09:08:40Z</time>
      </trkpt>
      <trkpt lat="50.00312" lon="2.2626">
        <ele>129.3</ele>
        <time>2024-07-17T09:08:41Z</time>
      </trkpt>
      <trkpt lat="50.00312" lon="2.2626">
        <ele>129.3</ele>
        <time>2024-07-17T09:08:42Z</time>
      </trkpt>
      <trkpt lat="50.00312" lon="2.2626">
        <ele>129.3</ele>
        <time>2024-07-17T09:08:43Z</time>
      </trkpt>
      <trkpt lat="50.00312" lon="2.2626">
        <ele>129.3</ele>
        <time>2024-07-17T09:08:44Z</time>
      </trkpt>
      <trkpt lat="50.00312" lon="2.2626">
        <ele>129.3</ele>
        <time>2024-07-17T09:08:45Z</time>
      </trkpt>
      <trkpt lat="50.00312" lon="2.2626">
        <ele>129.3</ele>
        <time>2024-07-17T09:08:46Z</time>
      </trkpt>
      <trkpt lat="50.00312" lon="2.2626">
        <ele>129.3</ele>
        <time>2024-07-17T09:08:47Z</time>
      </trkpt>
      <trkpt lat="50.00312" lon="2.2626">
        <ele>129.3</ele>
        <time>2024-07-17T09:08:48Z</time>
      </trkpt>
      <trkpt lat="50.00312" lon="2.2626">
        <ele>129.3</ele>
        <time>2024-07-17T09:08:49Z</time>
      </trkpt>
      <trkpt lat="50.00312" lon="2.2626">
        <ele>129.3</ele>
        <time>2024-07-17T09:08:50Z</time>
      </trkpt>
      <trkpt lat="50.00312" lon="2.2626">
        <ele>129.3</ele>
        <time>2024-07-17T09:08:51Z</time>
      </trkpt>
      <trkpt lat="50.00312" lon="2.2626">
        <ele>129.3</ele>
        <time>2024-07-17T09:08:52Z</time>
      </trkpt>
      <trkpt lat="50.00312" lon="2.2626">
        <ele>129.3</ele>
        <time>2024-07-17T09:08:53Z</time>
      </trkpt>
      <trkpt lat="50.00312" lon="2.2626">
        <ele>129.3</ele>
        <time>2024-07-17T09:08:54Z</time>
      </trkpt>
      <trkpt lat="50.00312" lon="2.2626">
        <ele>129.3</ele>
        <time>2024-07-17T09:08:55Z</time>
      </trkpt>
      <trkpt lat="50.00312" lon="2.2626">
        <ele>129.3</ele>
        <time>2024-07-17T09:08:56Z</time>
      </trkpt>
      <trkpt lat="50.00312" lon="2.2626">
        <ele>129.3</ele>
        <time>2024-07-17T09:08:57Z</time>
      </trkpt>
      <trkpt lat="50.00312" lon="2.2626">
        <ele>129.3</ele>
        <time>2024-07-17T09:08:58Z</time>
      </trkpt>
      <trkpt lat="50.00312" lon="2.2626">
        <ele>129.3</ele>
        <time>2024-07-17T09:08:59Z</time>
      </trkpt>
      <trkpt lat="50.00312" lon="2.26261">
        <ele>129.3</ele>
        <time>2024-07-17T09:09:00Z</time>
      </trkpt>
      <trkpt lat="50.00312" lon="2.26261">
        <ele>129.3</ele>
        <time>2024-07-17T09:09:01Z</time>
      </trkpt>
      <trkpt lat="50.00312" lon="2.26261">
        <ele>129.3</ele>
        <time>2024-07-17T09:09:02Z</time>
      </trkpt>
      <trkpt lat="50.00312" lon="2.26261">
        <ele>129.3</ele>
        <time>2024-07-17T09:09:03Z</time>
      </trkpt>
      <trkpt lat="50.00312" lon="2.26261">
        <ele>129.3</ele>
        <time>2024-07-17T09:09:04Z</time>
      </trkpt>
      <trkpt lat="50.00312" lon="2.26261">
        <ele>129.3</ele>
        <time>2024-07-17T09:09:05Z</time>
      </trkpt>
      <trkpt lat="50.00311" lon="2.26262">
        <ele>129.3</ele>
        <time>2024-07-17T09:09:06Z</time>
      </trkpt>
      <trkpt lat="50.00311" lon="2.26262">
        <ele>129.3</ele>
        <time>2024-07-17T09:09:07Z</time>
      </trkpt>
      <trkpt lat="50.0031" lon="2.26262">
        <ele>129.3</ele>
        <time>2024-07-17T09:09:08Z</time>
      </trkpt>
      <trkpt lat="50.0031" lon="2.26262">
        <ele>129.3</ele>
        <time>2024-07-17T09:09:09Z</time>
      </trkpt>
      <trkpt lat="50.0031" lon="2.26262">
        <ele>129.3</ele>
        <time>2024-07-17T09:09:10Z</time>
      </trkpt>
      <trkpt lat="50.0031" lon="2.26262">
        <ele>129.3</ele>
        <time>2024-07-17T09:09:11Z</time>
      </trkpt>
      <trkpt lat="50.0031" lon="2.26262">
        <ele>129.3</ele>
        <time>2024-07-17T09:09:12Z</time>
      </trkpt>
      <trkpt lat="50.0031" lon="2.26261">
        <ele>129.3</ele>
        <time>2024-07-17T09:09:13Z</time>
      </trkpt>
      <trkpt lat="50.00309" lon="2.26261">
        <ele>129.3</ele>
        <time>2024-07-17T09:09:14Z</time>
      </trkpt>
      <trkpt lat="50.00309" lon="2.26261">
        <ele>129.3</ele>
        <time>2024-07-17T09:09:15Z</time>
      </trkpt>
      <trkpt lat="50.00309" lon="2.26261">
        <ele>129.3</ele>
        <time>2024-07-17T09:09:16Z</time>
      </trkpt>
      <trkpt lat="50.00309" lon="2.26261">
        <ele>129.3</ele>
        <time>2024-07-17T09:09:17Z</time>
      </trkpt>
      <trkpt lat="50.00309" lon="2.26262">
        <ele>129.3</ele>
        <time>2024-07-17T09:09:18Z</time>
      </trkpt>
      <trkpt lat="50.00309" lon="2.26262">
        <ele>129.3</ele>
        <time>2024-07-17T09:09:19Z</time>
      </trkpt>
      <trkpt lat="50.00309" lon="2.26263">
        <ele>129.3</ele>
        <time>2024-07-17T09:09:20Z</time>
      </trkpt>
      <trkpt lat="50.00308" lon="2.26264">
        <ele>129.3</ele>
        <time>2024-07-17T09:09:21Z</time>
      </trkpt>
      <trkpt lat="50.00308" lon="2.26265">
        <ele>129.3</ele>
        <time>2024-07-17T09:09:22Z</time>
      </trkpt>
      <trkpt lat="50.00308" lon="2.26265">
        <ele>129.3</ele>
        <time>2024-07-17T09:09:23Z</time>
      </trkpt>
      <trkpt lat="50.00308" lon="2.26266">
        <ele>129.3</ele>
        <time>2024-07-17T09:09:24Z</time>
      </trkpt>
      <trkpt lat="50.00307" lon="2.26266">
        <ele>129.3</ele>
        <time>2024-07-17T09:09:25Z</time>
      </trkpt>
      <trkpt lat="50.00306" lon="2.26266">
        <ele>129.2</ele>
        <time>2024-07-17T09:09:26Z</time>
      </trkpt>
      <trkpt lat="50.00305" lon="2.26266">
        <ele>129.2</ele>
        <time>2024-07-17T09:09:27Z</time>
      </trkpt>
      <trkpt lat="50.00303" lon="2.26266">
        <ele>129.2</ele>
        <time>2024-07-17T09:09:28Z</time>
      </trkpt>
      <trkpt lat="50.00302" lon="2.26267">
        <ele>129.1</ele>
        <time>2024-07-17T09:09:29Z</time>
      </trkpt>
      <trkpt lat="50.00301" lon="2.26267">
        <ele>129.1</ele>
        <time>2024-07-17T09:09:30Z</time>
      </trkpt>
      <trkpt lat="50.00301" lon="2.26268">
        <ele>129.1</ele>
        <time>2024-07-17T09:09:31Z</time>
      </trkpt>
      <trkpt lat="50.003" lon="2.26268">
        <ele>129.1</ele>
        <time>2024-07-17T09:09:32Z</time>
      </trkpt>
      <trkpt lat="50.00299" lon="2.26269">
        <ele>129.1</ele>
        <time>2024-07-17T09:09:33Z</time>
      </trkpt>
      <trkpt lat="50.00298" lon="2.2627">
        <ele>129.1</ele>
        <time>2024-07-17T09:09:34Z</time>
      </trkpt>
      <trkpt lat="50.00297" lon="2.26272">
        <ele>129</ele>
        <time>2024-07-17T09:09:35Z</time>
      </trkpt>
      <trkpt lat="50.00297" lon="2.26273">
        <ele>129</ele>
        <time>2024-07-17T09:09:36Z</time>
      </trkpt>
      <trkpt lat="50.00296" lon="2.26274">
        <ele>129</ele>
        <time>2024-07-17T09:09:37Z</time>
      </trkpt>
      <trkpt lat="50.00295" lon="2.26274">
        <ele>129</ele>
        <time>2024-07-17T09:09:38Z</time>
      </trkpt>
      <trkpt lat="50.00294" lon="2.26275">
        <ele>128.9</ele>
        <time>2024-07-17T09:09:39Z</time>
      </trkpt>
      <trkpt lat="50.00294" lon="2.26275">
        <ele>128.9</ele>
        <time>2024-07-17T09:09:40Z</time>
      </trkpt>
      <trkpt lat="50.00294" lon="2.26276">
        <ele>128.9</ele>
        <time>2024-07-17T09:09:41Z</time>
      </trkpt>
      <trkpt lat="50.00294" lon="2.26274">
        <ele>128.9</ele>
        <time>2024-07-17T09:09:42Z</time>
      </trkpt>
      <trkpt lat="50.00295" lon="2.26273">
        <ele>128.9</ele>
        <time>2024-07-17T09:09:43Z</time>
      </trkpt>
      <trkpt lat="50.00295" lon="2.26272">
        <ele>128.9</ele>
        <time>2024-07-17T09:09:44Z</time>
      </trkpt>
      <trkpt lat="50.00295" lon="2.26272">
        <ele>128.9</ele>
        <time>2024-07-17T09:09:45Z</time>
      </trkpt>
      <trkpt lat="50.00295" lon="2.26272">
        <ele>128.9</ele>
        <time>2024-07-17T09:09:46Z</time>
      </trkpt>
      <trkpt lat="50.00295" lon="2.26272">
        <ele>128.9</ele>
        <time>2024-07-17T09:09:47Z</time>
      </trkpt>
      <trkpt lat="50.00295" lon="2.26272">
        <ele>128.9</ele>
        <time>2024-07-17T09:09:48Z</time>
      </trkpt>
      <trkpt lat="50.00295" lon="2.26272">
        <ele>128.9</ele>
        <time>2024-07-17T09:09:49Z</time>
      </trkpt>
      <trkpt lat="50.00295" lon="2.26271">
        <ele>128.8</ele>
        <time>2024-07-17T09:09:50Z</time>
      </trkpt>
      <trkpt lat="50.00295" lon="2.26271">
        <ele>128.8</ele>
        <time>2024-07-17T09:09:51Z</time>
      </trkpt>
      <trkpt lat="50.00295" lon="2.26271">
        <ele>128.8</ele>
        <time>2024-07-17T09:09:52Z</time>
      </trkpt>
      <trkpt lat="50.00295" lon="2.26271">
        <ele>128.8</ele>
        <time>2024-07-17T09:09:53Z</time>
      </trkpt>
      <trkpt lat="50.00295" lon="2.26271">
        <ele>128.8</ele>
        <time>2024-07-17T09:09:54Z</time>
      </trkpt>
      <trkpt lat="50.00294" lon="2.26271">
        <ele>128.8</ele>
        <time>2024-07-17T09:09:55Z</time>
      </trkpt>
      <trkpt lat="50.00294" lon="2.26271">
        <ele>128.8</ele>
        <time>2024-07-17T09:09:56Z</time>
      </trkpt>
      <trkpt lat="50.00293" lon="2.2627">
        <ele>128.8</ele>
        <time>2024-07-17T09:09:57Z</time>
      </trkpt>
      <trkpt lat="50.00292" lon="2.2627">
        <ele>128.8</ele>
        <time>2024-07-17T09:09:58Z</time>
      </trkpt>
      <trkpt lat="50.00291" lon="2.2627">
        <ele>128.8</ele>
        <time>2024-07-17T09:09:59Z</time>
      </trkpt>
      <trkpt lat="50.0029" lon="2.26269">
        <ele>128.7</ele>
        <time>2024-07-17T09:10:00Z</time>
      </trkpt>
      <trkpt lat="50.0029" lon="2.26269">
        <ele>128.7</ele>
        <time>2024-07-17T09:10:01Z</time>
      </trkpt>
      <trkpt lat="50.00289" lon="2.26268">
        <ele>128.7</ele>
        <time>2024-07-17T09:10:02Z</time>
      </trkpt>
      <trkpt lat="50.00288" lon="2.26268">
        <ele>128.7</ele>
        <time>2024-07-17T09:10:03Z</time>
      </trkpt>
      <trkpt lat="50.00287" lon="2.26267">
        <ele>128.6</ele>
        <time>2024-07-17T09:10:04Z</time>
      </trkpt>
      <trkpt lat="50.00287" lon="2.26266">
        <ele>128.6</ele>
        <time>2024-07-17T09:10:05Z</time>
      </trkpt>
      <trkpt lat="50.00286" lon="2.26265">
        <ele>128.6</ele>
        <time>2024-07-17T09:10:06Z</time>
      </trkpt>
      <trkpt lat="50.00286" lon="2.26264">
        <ele>128.6</ele>
        <time>2024-07-17T09:10:07Z</time>
      </trkpt>
      <trkpt lat="50.00285" lon="2.26263">
        <ele>128.6</ele>
        <time>2024-07-17T09:10:08Z</time>
      </trkpt>
      <trkpt lat="50.00284" lon="2.26262">
        <ele>128.5</ele>
        <time>2024-07-17T09:10:09Z</time>
      </trkpt>
      <trkpt lat="50.00283" lon="2.26261">
        <ele>128.5</ele>
        <time>2024-07-17T09:10:10Z</time>
      </trkpt>
      <trkpt lat="50.00283" lon="2.2626">
        <ele>128.5</ele>
        <time>2024-07-17T09:10:11Z</time>
      </trkpt>
      <trkpt lat="50.00282" lon="2.26259">
        <ele>128.4</ele>
        <time>2024-07-17T09:10:12Z</time>
      </trkpt>
      <trkpt lat="50.00281" lon="2.26258">
        <ele>128.4</ele>
        <time>2024-07-17T09:10:13Z</time>
      </trkpt>
      <trkpt lat="50.0028" lon="2.26257">
        <ele>128.4</ele>
        <time>2024-07-17T09:10:14Z</time>
      </trkpt>
      <trkpt lat="50.00279" lon="2.26257">
        <ele>128.4</ele>
        <time>2024-07-17T09:10:15Z</time>
      </trkpt>
      <trkpt lat="50.00279" lon="2.26256">
        <ele>128.3</ele>
        <time>2024-07-17T09:10:16Z</time>
      </trkpt>
      <trkpt lat="50.00278" lon="2.26256">
        <ele>128.3</ele>
        <time>2024-07-17T09:10:17Z</time>
      </trkpt>
      <trkpt lat="50.00277" lon="2.26256">
        <ele>128.3</ele>
        <time>2024-07-17T09:10:18Z</time>
      </trkpt>
      <trkpt lat="50.00276" lon="2.26256">
        <ele>128.3</ele>
        <time>2024-07-17T09:10:19Z</time>
      </trkpt>
      <trkpt lat="50.00276" lon="2.26256">
        <ele>128.2</ele>
        <time>2024-07-17T09:10:20Z</time>
      </trkpt>
      <trkpt lat="50.00275" lon="2.26256">
        <ele>128.2</ele>
        <time>2024-07-17T09:10:21Z</time>
      </trkpt>
      <trkpt lat="50.00274" lon="2.26257">
        <ele>128.2</ele>
        <time>2024-07-17T09:10:22Z</time>
      </trkpt>
      <trkpt lat="50.00273" lon="2.26257">
        <ele>128.1</ele>
        <time>2024-07-17T09:10:23Z</time>
      </trkpt>
      <trkpt lat="50.00272" lon="2.26258">
        <ele>128.1</ele>
        <time>2024-07-17T09:10:24Z</time>
      </trkpt>
      <trkpt lat="50.00272" lon="2.26258">
        <ele>128.1</ele>
        <time>2024-07-17T09:10:25Z</time>
      </trkpt>
      <trkpt lat="50.00271" lon="2.26258">
        <ele>128.1</ele>
        <time>2024-07-17T09:10:26Z</time>
      </trkpt>
      <trkpt lat="50.0027" lon="2.26258">
        <ele>128.1</ele>
        <time>2024-07-17T09:10:27Z</time>
      </trkpt>
      <trkpt lat="50.0027" lon="2.26258">
        <ele>128</ele>
        <time>2024-07-17T09:10:28Z</time>
      </trkpt>
      <trkpt lat="50.00269" lon="2.26259">
        <ele>128</ele>
        <time>2024-07-17T09:10:29Z</time>
      </trkpt>
      <trkpt lat="50.00268" lon="2.26259">
        <ele>128</ele>
        <time>2024-07-17T09:10:30Z</time>
      </trkpt>
      <trkpt lat="50.00267" lon="2.26259">
        <ele>127.9</ele>
        <time>2024-07-17T09:10:31Z</time>
      </trkpt>
      <trkpt lat="50.00266" lon="2.26259">
        <ele>127.9</ele>
        <time>2024-07-17T09:10:32Z</time>
      </trkpt>
      <trkpt lat="50.00265" lon="2.2626">
        <ele>127.9</ele>
        <time>2024-07-17T09:10:33Z</time>
      </trkpt>
      <trkpt lat="50.00263" lon="2.26261">
        <ele>127.8</ele>
        <time>2024-07-17T09:10:34Z</time>
      </trkpt>
      <trkpt lat="50.00262" lon="2.26261">
        <ele>127.8</ele>
        <time>2024-07-17T09:10:35Z</time>
      </trkpt>
      <trkpt lat="50.00261" lon="2.26261">
        <ele>127.7</ele>
        <time>2024-07-17T09:10:36Z</time>
      </trkpt>
      <trkpt lat="50.00259" lon="2.26262">
        <ele>127.7</ele>
        <time>2024-07-17T09:10:37Z</time>
      </trkpt>
      <trkpt lat="50.00258" lon="2.26262">
        <ele>127.6</ele>
        <time>2024-07-17T09:10:38Z</time>
      </trkpt>
      <trkpt lat="50.00257" lon="2.26262">
        <ele>127.6</ele>
        <time>2024-07-17T09:10:39Z</time>
      </trkpt>
      <trkpt lat="50.00256" lon="2.26263">
        <ele>127.6</ele>
        <time>2024-07-17T09:10:40Z</time>
      </trkpt>
      <trkpt lat="50.00255" lon="2.26263">
        <ele>127.5</ele>
        <time>2024-07-17T09:10:41Z</time>
      </trkpt>
      <trkpt lat="50.00254" lon="2.26264">
        <ele>127.5</ele>
        <time>2024-07-17T09:10:42Z</time>
      </trkpt>
      <trkpt lat="50.00253" lon="2.26264">
        <ele>127.5</ele>
        <time>2024-07-17T09:10:43Z</time>
      </trkpt>
      <trkpt lat="50.00252" lon="2.26265">
        <ele>127.4</ele>
        <time>2024-07-17T09:10:44Z</time>
      </trkpt>
      <trkpt lat="50.00251" lon="2.26265">
        <ele>127.4</ele>
        <time>2024-07-17T09:10:45Z</time>
      </trkpt>
      <trkpt lat="50.0025" lon="2.26266">
        <ele>127.3</ele>
        <time>2024-07-17T09:10:46Z</time>
      </trkpt>
      <trkpt lat="50.00249" lon="2.26267">
        <ele>127.3</ele>
        <time>2024-07-17T09:10:47Z</time>
      </trkpt>
      <trkpt lat="50.00248" lon="2.26267">
        <ele>127.3</ele>
        <time>2024-07-17T09:10:48Z</time>
      </trkpt>
      <trkpt lat="50.00247" lon="2.26268">
        <ele>127.2</ele>
        <time>2024-07-17T09:10:49Z</time>
      </trkpt>
      <trkpt lat="50.00246" lon="2.26269">
        <ele>127.2</ele>
        <time>2024-07-17T09:10:50Z</time>
      </trkpt>
      <trkpt lat="50.00246" lon="2.26269">
        <ele>127.2</ele>
        <time>2024-07-17T09:10:51Z</time>
      </trkpt>
      <trkpt lat="50.00245" lon="2.2627">
        <ele>127.1</ele>
        <time>2024-07-17T09:10:52Z</time>
      </trkpt>
      <trkpt lat="50.00244" lon="2.26271">
        <ele>127.1</ele>
        <time>2024-07-17T09:10:53Z</time>
      </trkpt>
      <trkpt lat="50.00243" lon="2.26272">
        <ele>127.1</ele>
        <time>2024-07-17T09:10:54Z</time>
      </trkpt>
      <trkpt lat="50.00242" lon="2.26272">
        <ele>127</ele>
        <time>2024-07-17T09:10:55Z</time>
      </trkpt>
      <trkpt lat="50.00241" lon="2.26273">
        <ele>127</ele>
        <time>2024-07-17T09:10:56Z</time>
      </trkpt>
      <trkpt lat="50.0024" lon="2.26273">
        <ele>126.9</ele>
        <time>2024-07-17T09:10:57Z</time>
      </trkpt>
      <trkpt lat="50.00238" lon="2.26274">
        <ele>126.9</ele>
        <time>2024-07-17T09:10:58Z</time>
      </trkpt>
      <trkpt lat="50.00238" lon="2.26274">
        <ele>126.9</ele>
        <time>2024-07-17T09:10:59Z</time>
      </trkpt>
      <trkpt lat="50.00237" lon="2.26275">
        <ele>126.8</ele>
        <time>2024-07-17T09:11:00Z</time>
      </trkpt>
      <trkpt lat="50.00236" lon="2.26275">
        <ele>126.8</ele>
        <time>2024-07-17T09:11:01Z</time>
      </trkpt>
      <trkpt lat="50.00235" lon="2.26275">
        <ele>126.8</ele>
        <time>2024-07-17T09:11:02Z</time>
      </trkpt>
      <trkpt lat="50.00235" lon="2.26276">
        <ele>126.7</ele>
        <time>2024-07-17T09:11:03Z</time>
      </trkpt>
      <trkpt lat="50.00234" lon="2.26277">
        <ele>126.7</ele>
        <time>2024-07-17T09:11:04Z</time>
      </trkpt>
      <trkpt lat="50.00233" lon="2.26277">
        <ele>126.7</ele>
        <time>2024-07-17T09:11:05Z</time>
      </trkpt>
      <trkpt lat="50.00231" lon="2.26277">
        <ele>126.6</ele>
        <time>2024-07-17T09:11:06Z</time>
      </trkpt>
      <trkpt lat="50.0023" lon="2.26277">
        <ele>126.6</ele>
        <time>2024-07-17T09:11:07Z</time>
      </trkpt>
      <trkpt lat="50.00229" lon="2.26278">
        <ele>126.6</ele>
        <time>2024-07-17T09:11:08Z</time>
      </trkpt>
      <trkpt lat="50.00228" lon="2.26278">
        <ele>126.5</ele>
        <time>2024-07-17T09:11:09Z</time>
      </trkpt>
      <trkpt lat="50.00227" lon="2.26278">
        <ele>126.5</ele>
        <time>2024-07-17T09:11:10Z</time>
      </trkpt>
      <trkpt lat="50.00227" lon="2.26278">
        <ele>126.5</ele>
        <time>2024-07-17T09:11:11Z</time>
      </trkpt>
      <trkpt lat="50.00226" lon="2.26279">
        <ele>126.4</ele>
        <time>2024-07-17T09:11:12Z</time>
      </trkpt>
      <trkpt lat="50.00225" lon="2.26279">
        <ele>126.4</ele>
        <time>2024-07-17T09:11:13Z</time>
      </trkpt>
      <trkpt lat="50.00224" lon="2.26279">
        <ele>126.4</ele>
        <time>2024-07-17T09:11:14Z</time>
      </trkpt>
      <trkpt lat="50.00223" lon="2.2628">
        <ele>126.3</ele>
        <time>2024-07-17T09:11:15Z</time>
      </trkpt>
      <trkpt lat="50.00223" lon="2.2628">
        <ele>126.3</ele>
        <time>2024-07-17T09:11:16Z</time>
      </trkpt>
      <trkpt lat="50.00222" lon="2.26281">
        <ele>126.3</ele>
        <time>2024-07-17T09:11:17Z</time>
      </trkpt>
      <trkpt lat="50.00221" lon="2.26281">
        <ele>126.2</ele>
        <time>2024-07-17T09:11:18Z</time>
      </trkpt>
      <trkpt lat="50.0022" lon="2.26282">
        <ele>126.2</ele>
        <time>2024-07-17T09:11:19Z</time>
      </trkpt>
      <trkpt lat="50.00219" lon="2.26282">
        <ele>126.2</ele>
        <time>2024-07-17T09:11:20Z</time>
      </trkpt>
      <trkpt lat="50.00218" lon="2.26283">
        <ele>126.1</ele>
        <time>2024-07-17T09:11:21Z</time>
      </trkpt>
      <trkpt lat="50.00218" lon="2.26283">
        <ele>126.1</ele>
        <time>2024-07-17T09:11:22Z</time>
      </trkpt>
      <trkpt lat="50.00217" lon="2.26283">
        <ele>126.1</ele>
        <time>2024-07-17T09:11:23Z</time>
      </trkpt>
      <trkpt lat="50.00216" lon="2.26284">
        <ele>126.1</ele>
        <time>2024-07-17T09:11:24Z</time>
      </trkpt>
      <trkpt lat="50.00216" lon="2.26284">
        <ele>126</ele>
        <time>2024-07-17T09:11:25Z</time>
      </trkpt>
      <trkpt lat="50.00215" lon="2.26284">
        <ele>126</ele>
        <time>2024-07-17T09:11:26Z</time>
      </trkpt>
      <trkpt lat="50.00214" lon="2.26285">
        <ele>126</ele>
        <time>2024-07-17T09:11:27Z</time>
      </trkpt>
      <trkpt lat="50.00214" lon="2.26285">
        <ele>126</ele>
        <time>2024-07-17T09:11:28Z</time>
      </trkpt>
      <trkpt lat="50.00213" lon="2.26285">
        <ele>125.9</ele>
        <time>2024-07-17T09:11:29Z</time>
      </trkpt>
      <trkpt lat="50.00213" lon="2.26286">
        <ele>125.9</ele>
        <time>2024-07-17T09:11:30Z</time>
      </trkpt>
      <trkpt lat="50.00212" lon="2.26286">
        <ele>125.9</ele>
        <time>2024-07-17T09:11:31Z</time>
      </trkpt>
      <trkpt lat="50.00211" lon="2.26286">
        <ele>125.9</ele>
        <time>2024-07-17T09:11:32Z</time>
      </trkpt>
      <trkpt lat="50.00211" lon="2.26287">
        <ele>125.8</ele>
        <time>2024-07-17T09:11:33Z</time>
      </trkpt>
      <trkpt lat="50.0021" lon="2.26287">
        <ele>125.8</ele>
        <time>2024-07-17T09:11:34Z</time>
      </trkpt>
      <trkpt lat="50.00209" lon="2.26287">
        <ele>125.8</ele>
        <time>2024-07-17T09:11:35Z</time>
      </trkpt>
      <trkpt lat="50.00208" lon="2.26288">
        <ele>125.7</ele>
        <time>2024-07-17T09:11:36Z</time>
      </trkpt>
      <trkpt lat="50.00208" lon="2.26288">
        <ele>125.7</ele>
        <time>2024-07-17T09:11:37Z</time>
      </trkpt>
      <trkpt lat="50.00207" lon="2.26289">
        <ele>125.7</ele>
        <time>2024-07-17T09:11:38Z</time>
      </trkpt>
      <trkpt lat="50.00206" lon="2.2629">
        <ele>125.6</ele>
        <time>2024-07-17T09:11:39Z</time>
      </trkpt>
      <trkpt lat="50.00206" lon="2.26291">
        <ele>125.6</ele>
        <time>2024-07-17T09:11:40Z</time>
      </trkpt>
      <trkpt lat="50.00205" lon="2.26291">
        <ele>125.6</ele>
        <time>2024-07-17T09:11:41Z</time>
      </trkpt>
      <trkpt lat="50.00204" lon="2.26292">
        <ele>125.5</ele>
        <time>2024-07-17T09:11:42Z</time>
      </trkpt>
      <trkpt lat="50.00203" lon="2.26292">
        <ele>125.5</ele>
        <time>2024-07-17T09:11:43Z</time>
      </trkpt>
      <trkpt lat="50.00203" lon="2.26293">
        <ele>125.5</ele>
        <time>2024-07-17T09:11:44Z</time>
      </trkpt>
      <trkpt lat="50.00202" lon="2.26293">
        <ele>125.4</ele>
        <time>2024-07-17T09:11:45Z</time>
      </trkpt>
      <trkpt lat="50.00201" lon="2.26294">
        <ele>125.4</ele>
        <time>2024-07-17T09:11:46Z</time>
      </trkpt>
      <trkpt lat="50.002" lon="2.26294">
        <ele>125.4</ele>
        <time>2024-07-17T09:11:47Z</time>
      </trkpt>
      <trkpt lat="50.00199" lon="2.26294">
        <ele>125.3</ele>
        <time>2024-07-17T09:11:48Z</time>
      </trkpt>
      <trkpt lat="50.00199" lon="2.26294">
        <ele>125.3</ele>
        <time>2024-07-17T09:11:49Z</time>
      </trkpt>
      <trkpt lat="50.00197" lon="2.26295">
        <ele>125.3</ele>
        <time>2024-07-17T09:11:50Z</time>
      </trkpt>
      <trkpt lat="50.00196" lon="2.26295">
        <ele>125.2</ele>
        <time>2024-07-17T09:11:51Z</time>
      </trkpt>
      <trkpt lat="50.00195" lon="2.26295">
        <ele>125.2</ele>
        <time>2024-07-17T09:11:52Z</time>
      </trkpt>
      <trkpt lat="50.00194" lon="2.26295">
        <ele>125.1</ele>
        <time>2024-07-17T09:11:53Z</time>
      </trkpt>
      <trkpt lat="50.00193" lon="2.26295">
        <ele>125.1</ele>
        <time>2024-07-17T09:11:54Z</time>
      </trkpt>
      <trkpt lat="50.00192" lon="2.26295">
        <ele>125</ele>
        <time>2024-07-17T09:11:55Z</time>
      </trkpt>
      <trkpt lat="50.0019" lon="2.26295">
        <ele>125</ele>
        <time>2024-07-17T09:11:56Z</time>
      </trkpt>
      <trkpt lat="50.00189" lon="2.26294">
        <ele>124.9</ele>
        <time>2024-07-17T09:11:57Z</time>
      </trkpt>
      <trkpt lat="50.00188" lon="2.26294">
        <ele>124.9</ele>
        <time>2024-07-17T09:11:58Z</time>
      </trkpt>
      <trkpt lat="50.00187" lon="2.26294">
        <ele>124.9</ele>
        <time>2024-07-17T09:11:59Z</time>
      </trkpt>
      <trkpt lat="50.00186" lon="2.26293">
        <ele>124.8</ele>
        <time>2024-07-17T09:12:00Z</time>
      </trkpt>
      <trkpt lat="50.00185" lon="2.26293">
        <ele>124.8</ele>
        <time>2024-07-17T09:12:01Z</time>
      </trkpt>
      <trkpt lat="50.00184" lon="2.26292">
        <ele>124.7</ele>
        <time>2024-07-17T09:12:02Z</time>
      </trkpt>
      <trkpt lat="50.00182" lon="2.26292">
        <ele>124.7</ele>
        <time>2024-07-17T09:12:03Z</time>
      </trkpt>
      <trkpt lat="50.00181" lon="2.26292">
        <ele>124.7</ele>
        <time>2024-07-17T09:12:04Z</time>
      </trkpt>
      <trkpt lat="50.0018" lon="2.26292">
        <ele>124.6</ele>
        <time>2024-07-17T09:12:05Z</time>
      </trkpt>
      <trkpt lat="50.00179" lon="2.26292">
        <ele>124.6</ele>
        <time>2024-07-17T09:12:06Z</time>
      </trkpt>
      <trkpt lat="50.00178" lon="2.26291">
        <ele>124.5</ele>
        <time>2024-07-17T09:12:07Z</time>
      </trkpt>
      <trkpt lat="50.00177" lon="2.26291">
        <ele>124.5</ele>
        <time>2024-07-17T09:12:08Z</time>
      </trkpt>
      <trkpt lat="50.00176" lon="2.2629">
        <ele>124.4</ele>
        <time>2024-07-17T09:12:09Z</time>
      </trkpt>
      <trkpt lat="50.00175" lon="2.2629">
        <ele>124.4</ele>
        <time>2024-07-17T09:12:10Z</time>
      </trkpt>
      <trkpt lat="50.00174" lon="2.2629">
        <ele>124.4</ele>
        <time>2024-07-17T09:12:11Z</time>
      </trkpt>
      <trkpt lat="50.00173" lon="2.2629">
        <ele>124.3</ele>
        <time>2024-07-17T09:12:12Z</time>
      </trkpt>
      <trkpt lat="50.00172" lon="2.2629">
        <ele>124.3</ele>
        <time>2024-07-17T09:12:13Z</time>
      </trkpt>
      <trkpt lat="50.00171" lon="2.2629">
        <ele>124.3</ele>
        <time>2024-07-17T09:12:14Z</time>
      </trkpt>
      <trkpt lat="50.0017" lon="2.2629">
        <ele>124.2</ele>
        <time>2024-07-17T09:12:15Z</time>
      </trkpt>
      <trkpt lat="50.00169" lon="2.2629">
        <ele>124.2</ele>
        <time>2024-07-17T09:12:16Z</time>
      </trkpt>
      <trkpt lat="50.00168" lon="2.2629">
        <ele>124.1</ele>
        <time>2024-07-17T09:12:17Z</time>
      </trkpt>
      <trkpt lat="50.00167" lon="2.26289">
        <ele>124.1</ele>
        <time>2024-07-17T09:12:18Z</time>
      </trkpt>
      <trkpt lat="50.00166" lon="2.26289">
        <ele>124</ele>
        <time>2024-07-17T09:12:19Z</time>
      </trkpt>
      <trkpt lat="50.00164" lon="2.26288">
        <ele>124</ele>
        <time>2024-07-17T09:12:20Z</time>
      </trkpt>
      <trkpt lat="50.00163" lon="2.26287">
        <ele>123.9</ele>
        <time>2024-07-17T09:12:21Z</time>
      </trkpt>
      <trkpt lat="50.00162" lon="2.26286">
        <ele>123.9</ele>
        <time>2024-07-17T09:12:22Z</time>
      </trkpt>
      <trkpt lat="50.00161" lon="2.26285">
        <ele>123.9</ele>
        <time>2024-07-17T09:12:23Z</time>
      </trkpt>
      <trkpt lat="50.0016" lon="2.26284">
        <ele>123.8</ele>
        <time>2024-07-17T09:12:24Z</time>
      </trkpt>
      <trkpt lat="50.00159" lon="2.26283">
        <ele>123.8</ele>
        <time>2024-07-17T09:12:25Z</time>
      </trkpt>
      <trkpt lat="50.00157" lon="2.26282">
        <ele>123.7</ele>
        <time>2024-07-17T09:12:26Z</time>
      </trkpt>
      <trkpt lat="50.00156" lon="2.26282">
        <ele>123.7</ele>
        <time>2024-07-17T09:12:27Z</time>
      </trkpt>
      <trkpt lat="50.00155" lon="2.26281">
        <ele>123.6</ele>
        <time>2024-07-17T09:12:28Z</time>
      </trkpt>
      <trkpt lat="50.00154" lon="2.2628">
        <ele>123.6</ele>
        <time>2024-07-17T09:12:29Z</time>
      </trkpt>
      <trkpt lat="50.00152" lon="2.26279">
        <ele>123.5</ele>
        <time>2024-07-17T09:12:30Z</time>
      </trkpt>
      <trkpt lat="50.00152" lon="2.26277">
        <ele>123.5</ele>
        <time>2024-07-17T09:12:31Z</time>
      </trkpt>
      <trkpt lat="50.00153" lon="2.26276">
        <ele>123.5</ele>
        <time>2024-07-17T09:12:32Z</time>
      </trkpt>
      <trkpt lat="50.00154" lon="2.26275">
        <ele>123.4</ele>
        <time>2024-07-17T09:12:33Z</time>
      </trkpt>
      <trkpt lat="50.00154" lon="2.26274">
        <ele>123.4</ele>
        <time>2024-07-17T09:12:34Z</time>
      </trkpt>
      <trkpt lat="50.00154" lon="2.26274">
        <ele>123.4</ele>
        <time>2024-07-17T09:12:35Z</time>
      </trkpt>
      <trkpt lat="50.00155" lon="2.26274">
        <ele>123.4</ele>
        <time>2024-07-17T09:12:36Z</time>
      </trkpt>
      <trkpt lat="50.00155" lon="2.26274">
        <ele>123.4</ele>
        <time>2024-07-17T09:12:37Z</time>
      </trkpt>
      <trkpt lat="50.00154" lon="2.26274">
        <ele>123.4</ele>
        <time>2024-07-17T09:12:38Z</time>
      </trkpt>
      <trkpt lat="50.00154" lon="2.26274">
        <ele>123.4</ele>
        <time>2024-07-17T09:12:39Z</time>
      </trkpt>
      <trkpt lat="50.00154" lon="2.26273">
        <ele>123.3</ele>
        <time>2024-07-17T09:12:40Z</time>
      </trkpt>
      <trkpt lat="50.00152" lon="2.26272">
        <ele>123.3</ele>
        <time>2024-07-17T09:12:41Z</time>
      </trkpt>
      <trkpt lat="50.00152" lon="2.26271">
        <ele>123.3</ele>
        <time>2024-07-17T09:12:42Z</time>
      </trkpt>
      <trkpt lat="50.00151" lon="2.2627">
        <ele>123.2</ele>
        <time>2024-07-17T09:12:43Z</time>
      </trkpt>
      <trkpt lat="50.00151" lon="2.2627">
        <ele>123.2</ele>
        <time>2024-07-17T09:12:44Z</time>
      </trkpt>
      <trkpt lat="50.00151" lon="2.2627">
        <ele>123.2</ele>
        <time>2024-07-17T09:12:45Z</time>
      </trkpt>
      <trkpt lat="50.00151" lon="2.2627">
        <ele>123.2</ele>
        <time>2024-07-17T09:12:46Z</time>
      </trkpt>
      <trkpt lat="50.0015" lon="2.2627">
        <ele>123.2</ele>
        <time>2024-07-17T09:12:47Z</time>
      </trkpt>
      <trkpt lat="50.0015" lon="2.2627">
        <ele>123.2</ele>
        <time>2024-07-17T09:12:48Z</time>
      </trkpt>
      <trkpt lat="50.0015" lon="2.2627">
        <ele>123.2</ele>
        <time>2024-07-17T09:12:49Z</time>
      </trkpt>
      <trkpt lat="50.0015" lon="2.2627">
        <ele>123.2</ele>
        <time>2024-07-17T09:12:50Z</time>
      </trkpt>
      <trkpt lat="50.0015" lon="2.2627">
        <ele>123.2</ele>
        <time>2024-07-17T09:12:51Z</time>
      </trkpt>
      <trkpt lat="50.0015" lon="2.26269">
        <ele>123.2</ele>
        <time>2024-07-17T09:12:52Z</time>
      </trkpt>
      <trkpt lat="50.0015" lon="2.2627">
        <ele>123.2</ele>
        <time>2024-07-17T09:12:53Z</time>
      </trkpt>
      <trkpt lat="50.00149" lon="2.2627">
        <ele>123.2</ele>
        <time>2024-07-17T09:12:54Z</time>
      </trkpt>
      <trkpt lat="50.00149" lon="2.2627">
        <ele>123.1</ele>
        <time>2024-07-17T09:12:55Z</time>
      </trkpt>
      <trkpt lat="50.00148" lon="2.2627">
        <ele>123.1</ele>
        <time>2024-07-17T09:12:56Z</time>
      </trkpt>
      <trkpt lat="50.00147" lon="2.2627">
        <ele>123.1</ele>
        <time>2024-07-17T09:12:57Z</time>
      </trkpt>
      <trkpt lat="50.00146" lon="2.2627">
        <ele>123</ele>
        <time>2024-07-17T09:12:58Z</time>
      </trkpt>
      <trkpt lat="50.00145" lon="2.2627">
        <ele>123</ele>
        <time>2024-07-17T09:12:59Z</time>
      </trkpt>
      <trkpt lat="50.00143" lon="2.26271">
        <ele>123</ele>
        <time>2024-07-17T09:13:00Z</time>
      </trkpt>
      <trkpt lat="50.00142" lon="2.26271">
        <ele>122.9</ele>
        <time>2024-07-17T09:13:01Z</time>
      </trkpt>
      <trkpt lat="50.00141" lon="2.26271">
        <ele>122.9</ele>
        <time>2024-07-17T09:13:02Z</time>
      </trkpt>
      <trkpt lat="50.00139" lon="2.26271">
        <ele>122.8</ele>
        <time>2024-07-17T09:13:03Z</time>
      </trkpt>
      <trkpt lat="50.00138" lon="2.26271">
        <ele>122.8</ele>
        <time>2024-07-17T09:13:04Z</time>
      </trkpt>
      <trkpt lat="50.00137" lon="2.26271">
        <ele>122.7</ele>
        <time>2024-07-17T09:13:05Z</time>
      </trkpt>
      <trkpt lat="50.00136" lon="2.26271">
        <ele>122.7</ele>
        <time>2024-07-17T09:13:06Z</time>
      </trkpt>
      <trkpt lat="50.00135" lon="2.26271">
        <ele>122.7</ele>
        <time>2024-07-17T09:13:07Z</time>
      </trkpt>
      <trkpt lat="50.00134" lon="2.2627">
        <ele>122.6</ele>
        <time>2024-07-17T09:13:08Z</time>
      </trkpt>
      <trkpt lat="50.00132" lon="2.2627">
        <ele>122.6</ele>
        <time>2024-07-17T09:13:09Z</time>
      </trkpt>
      <trkpt lat="50.00131" lon="2.26269">
        <ele>122.6</ele>
        <time>2024-07-17T09:13:10Z</time>
      </trkpt>
      <trkpt lat="50.0013" lon="2.26269">
        <ele>122.5</ele>
        <time>2024-07-17T09:13:11Z</time>
      </trkpt>
      <trkpt lat="50.0013" lon="2.26268">
        <ele>122.5</ele>
        <time>2024-07-17T09:13:12Z</time>
      </trkpt>
      <trkpt lat="50.00129" lon="2.26268">
        <ele>122.5</ele>
        <time>2024-07-17T09:13:13Z</time>
      </trkpt>
      <trkpt lat="50.00128" lon="2.26267">
        <ele>122.5</ele>
        <time>2024-07-17T09:13:14Z</time>
      </trkpt>
      <trkpt lat="50.00127" lon="2.26266">
        <ele>122.4</ele>
        <time>2024-07-17T09:13:15Z</time>
      </trkpt>
      <trkpt lat="50.00126" lon="2.26265">
        <ele>122.4</ele>
        <time>2024-07-17T09:13:16Z</time>
      </trkpt>
      <trkpt lat="50.00125" lon="2.26265">
        <ele>122.4</ele>
        <time>2024-07-17T09:13:17Z</time>
      </trkpt>
      <trkpt lat="50.00124" lon="2.26264">
        <ele>122.4</ele>
        <time>2024-07-17T09:13:18Z</time>
      </trkpt>
      <trkpt lat="50.00124" lon="2.26263">
        <ele>122.4</ele>
        <time>2024-07-17T09:13:19Z</time>
      </trkpt>
      <trkpt lat="50.00123" lon="2.26262">
        <ele>122.4</ele>
        <time>2024-07-17T09:13:20Z</time>
      </trkpt>
      <trkpt lat="50.00122" lon="2.26261">
        <ele>122.3</ele>
        <time>2024-07-17T09:13:21Z</time>
      </trkpt>
      <trkpt lat="50.00121" lon="2.2626">
        <ele>122.3</ele>
        <time>2024-07-17T09:13:22Z</time>
      </trkpt>
      <trkpt lat="50.0012" lon="2.26259">
        <ele>122.3</ele>
        <time>2024-07-17T09:13:23Z</time>
      </trkpt>
      <trkpt lat="50.0012" lon="2.26258">
        <ele>122.3</ele>
        <time>2024-07-17T09:13:24Z</time>
      </trkpt>
      <trkpt lat="50.00119" lon="2.26257">
        <ele>122.3</ele>
        <time>2024-07-17T09:13:25Z</time>
      </trkpt>
      <trkpt lat="50.00119" lon="2.26255">
        <ele>122.3</ele>
        <time>2024-07-17T09:13:26Z</time>
      </trkpt>
      <trkpt lat="50.00118" lon="2.26254">
        <ele>122.2</ele>
        <time>2024-07-17T09:13:27Z</time>
      </trkpt>
      <trkpt lat="50.00117" lon="2.26254">
        <ele>122.2</ele>
        <time>2024-07-17T09:13:28Z</time>
      </trkpt>
      <trkpt lat="50.00116" lon="2.26253">
        <ele>122.2</ele>
        <time>2024-07-17T09:13:29Z</time>
      </trkpt>
      <trkpt lat="50.00115" lon="2.26253">
        <ele>122.2</ele>
        <time>2024-07-17T09:13:30Z</time>
      </trkpt>
      <trkpt lat="50.00115" lon="2.26254">
        <ele>122.2</ele>
        <time>2024-07-17T09:13:31Z</time>
      </trkpt>
      <trkpt lat="50.00115" lon="2.26254">
        <ele>122.2</ele>
        <time>2024-07-17T09:13:32Z</time>
      </trkpt>
      <trkpt lat="50.00115" lon="2.26254">
        <ele>122.2</ele>
        <time>2024-07-17T09:13:33Z</time>
      </trkpt>
      <trkpt lat="50.00115" lon="2.26255">
        <ele>122.2</ele>
        <time>2024-07-17T09:13:34Z</time>
      </trkpt>
      <trkpt lat="50.00115" lon="2.26255">
        <ele>122.2</ele>
        <time>2024-07-17T09:13:35Z</time>
      </trkpt>
      <trkpt lat="50.00114" lon="2.26255">
        <ele>122.2</ele>
        <time>2024-07-17T09:13:36Z</time>
      </trkpt>
      <trkpt lat="50.00114" lon="2.26255">
        <ele>122.2</ele>
        <time>2024-07-17T09:13:37Z</time>
      </trkpt>
      <trkpt lat="50.00113" lon="2.26256">
        <ele>122.1</ele>
        <time>2024-07-17T09:13:38Z</time>
      </trkpt>
      <trkpt lat="50.00112" lon="2.26256">
        <ele>122.1</ele>
        <time>2024-07-17T09:13:39Z</time>
      </trkpt>
      <trkpt lat="50.00111" lon="2.26257">
        <ele>122.1</ele>
        <time>2024-07-17T09:13:40Z</time>
      </trkpt>
      <trkpt lat="50.0011" lon="2.26257">
        <ele>122.1</ele>
        <time>2024-07-17T09:13:41Z</time>
      </trkpt>
      <trkpt lat="50.0011" lon="2.26256">
        <ele>122.1</ele>
        <time>2024-07-17T09:13:42Z</time>
      </trkpt>
      <trkpt lat="50.00109" lon="2.26256">
        <ele>122.1</ele>
        <time>2024-07-17T09:13:43Z</time>
      </trkpt>
      <trkpt lat="50.00108" lon="2.26255">
        <ele>122</ele>
        <time>2024-07-17T09:13:44Z</time>
      </trkpt>
      <trkpt lat="50.00108" lon="2.26254">
        <ele>122</ele>
        <time>2024-07-17T09:13:45Z</time>
      </trkpt>
      <trkpt lat="50.00108" lon="2.26253">
        <ele>122</ele>
        <time>2024-07-17T09:13:46Z</time>
      </trkpt>
      <trkpt lat="50.00108" lon="2.26251">
        <ele>122</ele>
        <time>2024-07-17T09:13:47Z</time>
      </trkpt>
      <trkpt lat="50.00108" lon="2.26248">
        <ele>122</ele>
        <time>2024-07-17T09:13:48Z</time>
      </trkpt>
      <trkpt lat="50.00108" lon="2.26246">
        <ele>121.9</ele>
        <time>2024-07-17T09:13:49Z</time>
      </trkpt>
      <trkpt lat="50.00108" lon="2.26245">
        <ele>121.9</ele>
        <time>2024-07-17T09:13:50Z</time>
      </trkpt>
      <trkpt lat="50.00108" lon="2.26243">
        <ele>121.9</ele>
        <time>2024-07-17T09:13:51Z</time>
      </trkpt>
      <trkpt lat="50.00108" lon="2.26241">
        <ele>121.9</ele>
        <time>2024-07-17T09:13:52Z</time>
      </trkpt>
      <trkpt lat="50.00107" lon="2.26239">
        <ele>121.9</ele>
        <time>2024-07-17T09:13:53Z</time>
      </trkpt>
      <trkpt lat="50.00107" lon="2.26238">
        <ele>121.8</ele>
        <time>2024-07-17T09:13:54Z</time>
      </trkpt>
      <trkpt lat="50.00107" lon="2.26236">
        <ele>121.8</ele>
        <time>2024-07-17T09:13:55Z</time>
      </trkpt>
      <trkpt lat="50.00107" lon="2.26234">
        <ele>121.8</ele>
        <time>2024-07-17T09:13:56Z</time>
      </trkpt>
      <trkpt lat="50.00106" lon="2.26233">
        <ele>121.8</ele>
        <time>2024-07-17T09:13:57Z</time>
      </trkpt>
      <trkpt lat="50.00106" lon="2.26231">
        <ele>121.8</ele>
        <time>2024-07-17T09:13:58Z</time>
      </trkpt>
      <trkpt lat="50.00106" lon="2.26229">
        <ele>121.7</ele>
        <time>2024-07-17T09:13:59Z</time>
      </trkpt>
      <trkpt lat="50.00105" lon="2.26228">
        <ele>121.7</ele>
        <time>2024-07-17T09:14:00Z</time>
      </trkpt>
      <trkpt lat="50.00105" lon="2.26226">
        <ele>121.7</ele>
        <time>2024-07-17T09:14:01Z</time>
      </trkpt>
      <trkpt lat="50.00105" lon="2.26225">
        <ele>121.7</ele>
        <time>2024-07-17T09:14:02Z</time>
      </trkpt>
      <trkpt lat="50.00104" lon="2.26223">
        <ele>121.7</ele>
        <time>2024-07-17T09:14:03Z</time>
      </trkpt>
      <trkpt lat="50.00104" lon="2.26222">
        <ele>121.7</ele>
        <time>2024-07-17T09:14:04Z</time>
      </trkpt>
      <trkpt lat="50.00103" lon="2.2622">
        <ele>121.6</ele>
        <time>2024-07-17T09:14:05Z</time>
      </trkpt>
      <trkpt lat="50.00103" lon="2.26219">
        <ele>121.6</ele>
        <time>2024-07-17T09:14:06Z</time>
      </trkpt>
      <trkpt lat="50.00102" lon="2.26217">
        <ele>121.6</ele>
        <time>2024-07-17T09:14:07Z</time>
      </trkpt>
      <trkpt lat="50.001" lon="2.26216">
        <ele>121.6</ele>
        <time>2024-07-17T09:14:08Z</time>
      </trkpt>
      <trkpt lat="50.00099" lon="2.26215">
        <ele>121.6</ele>
        <time>2024-07-17T09:14:09Z</time>
      </trkpt>
      <trkpt lat="50.00098" lon="2.26214">
        <ele>121.5</ele>
        <time>2024-07-17T09:14:10Z</time>
      </trkpt>
      <trkpt lat="50.00097" lon="2.26213">
        <ele>121.5</ele>
        <time>2024-07-17T09:14:11Z</time>
      </trkpt>
      <trkpt lat="50.00097" lon="2.26212">
        <ele>121.5</ele>
        <time>2024-07-17T09:14:12Z</time>
      </trkpt>
      <trkpt lat="50.00096" lon="2.26211">
        <ele>121.5</ele>
        <time>2024-07-17T09:14:13Z</time>
      </trkpt>
      <trkpt lat="50.00095" lon="2.2621">
        <ele>121.5</ele>
        <time>2024-07-17T09:14:14Z</time>
      </trkpt>
      <trkpt lat="50.00095" lon="2.26208">
        <ele>121.5</ele>
        <time>2024-07-17T09:14:15Z</time>
      </trkpt>
      <trkpt lat="50.00094" lon="2.26207">
        <ele>121.5</ele>
        <time>2024-07-17T09:14:16Z</time>
      </trkpt>
      <trkpt lat="50.00093" lon="2.26206">
        <ele>121.5</ele>
        <time>2024-07-17T09:14:17Z</time>
      </trkpt>
      <trkpt lat="50.00093" lon="2.26204">
        <ele>121.4</ele>
        <time>2024-07-17T09:14:18Z</time>
      </trkpt>
      <trkpt lat="50.00092" lon="2.26203">
        <ele>121.4</ele>
        <time>2024-07-17T09:14:19Z</time>
      </trkpt>
      <trkpt lat="50.00092" lon="2.26202">
        <ele>121.4</ele>
        <time>2024-07-17T09:14:20Z</time>
      </trkpt>
      <trkpt lat="50.00091" lon="2.26201">
        <ele>121.4</ele>
        <time>2024-07-17T09:14:21Z</time>
      </trkpt>
      <trkpt lat="50.0009" lon="2.262">
        <ele>121.3</ele>
        <time>2024-07-17T09:14:22Z</time>
      </trkpt>
      <trkpt lat="50.0009" lon="2.26198">
        <ele>121.3</ele>
        <time>2024-07-17T09:14:23Z</time>
      </trkpt>
      <trkpt lat="50.00089" lon="2.26198">
        <ele>121.3</ele>
        <time>2024-07-17T09:14:24Z</time>
      </trkpt>
      <trkpt lat="50.00088" lon="2.26197">
        <ele>121.2</ele>
        <time>2024-07-17T09:14:25Z</time>
      </trkpt>
      <trkpt lat="50.00087" lon="2.26196">
        <ele>121.2</ele>
        <time>2024-07-17T09:14:26Z</time>
      </trkpt>
      <trkpt lat="50.00086" lon="2.26195">
        <ele>121.2</ele>
        <time>2024-07-17T09:14:27Z</time>
      </trkpt>
      <trkpt lat="50.00085" lon="2.26195">
        <ele>121.1</ele>
        <time>2024-07-17T09:14:28Z</time>
      </trkpt>
      <trkpt lat="50.00084" lon="2.26194">
        <ele>121.1</ele>
        <time>2024-07-17T09:14:29Z</time>
      </trkpt>
      <trkpt lat="50.00083" lon="2.26193">
        <ele>121.1</ele>
        <time>2024-07-17T09:14:30Z</time>
      </trkpt>
      <trkpt lat="50.00081" lon="2.26191">
        <ele>121</ele>
        <time>2024-07-17T09:14:31Z</time>
      </trkpt>
      <trkpt lat="50.00081" lon="2.26191">
        <ele>121</ele>
        <time>2024-07-17T09:14:32Z</time>
      </trkpt>
      <trkpt lat="50.0008" lon="2.2619">
        <ele>121</ele>
        <time>2024-07-17T09:14:33Z</time>
      </trkpt>
      <trkpt lat="50.00079" lon="2.26189">
        <ele>121</ele>
        <time>2024-07-17T09:14:34Z</time>
      </trkpt>
      <trkpt lat="50.00078" lon="2.26188">
        <ele>120.9</ele>
        <time>2024-07-17T09:14:35Z</time>
      </trkpt>
      <trkpt lat="50.00077" lon="2.26187">
        <ele>120.9</ele>
        <time>2024-07-17T09:14:36Z</time>
      </trkpt>
      <trkpt lat="50.00076" lon="2.26186">
        <ele>120.9</ele>
        <time>2024-07-17T09:14:37Z</time>
      </trkpt>
      <trkpt lat="50.00076" lon="2.26185">
        <ele>120.9</ele>
        <time>2024-07-17T09:14:38Z</time>
      </trkpt>
      <trkpt lat="50.00074" lon="2.26184">
        <ele>120.8</ele>
        <time>2024-07-17T09:14:39Z</time>
      </trkpt>
      <trkpt lat="50.00073" lon="2.26184">
        <ele>120.8</ele>
        <time>2024-07-17T09:14:40Z</time>
      </trkpt>
      <trkpt lat="50.00072" lon="2.26184">
        <ele>120.8</ele>
        <time>2024-07-17T09:14:41Z</time>
      </trkpt>
      <trkpt lat="50.00071" lon="2.26183">
        <ele>120.8</ele>
        <time>2024-07-17T09:14:42Z</time>
      </trkpt>
      <trkpt lat="50.0007" lon="2.26182">
        <ele>120.7</ele>
        <time>2024-07-17T09:14:43Z</time>
      </trkpt>
      <trkpt lat="50.00069" lon="2.26182">
        <ele>120.7</ele>
        <time>2024-07-17T09:14:44Z</time>
      </trkpt>
      <trkpt lat="50.00068" lon="2.26181">
        <ele>120.7</ele>
        <time>2024-07-17T09:14:45Z</time>
      </trkpt>
      <trkpt lat="50.00067" lon="2.26181">
        <ele>120.7</ele>
        <time>2024-07-17T09:14:46Z</time>
      </trkpt>
      <trkpt lat="50.00066" lon="2.26181">
        <ele>120.6</ele>
        <time>2024-07-17T09:14:47Z</time>
      </trkpt>
      <trkpt lat="50.00064" lon="2.2618">
        <ele>120.6</ele>
        <time>2024-07-17T09:14:48Z</time>
      </trkpt>
      <trkpt lat="50.00063" lon="2.26179">
        <ele>120.6</ele>
        <time>2024-07-17T09:14:49Z</time>
      </trkpt>
      <trkpt lat="50.00062" lon="2.26179">
        <ele>120.6</ele>
        <time>2024-07-17T09:14:50Z</time>
      </trkpt>
      <trkpt lat="50.00062" lon="2.26178">
        <ele>120.6</ele>
        <time>2024-07-17T09:14:51Z</time>
      </trkpt>
      <trkpt lat="50.00061" lon="2.26177">
        <ele>120.5</ele>
        <time>2024-07-17T09:14:52Z</time>
      </trkpt>
      <trkpt lat="50.0006" lon="2.26177">
        <ele>120.5</ele>
        <time>2024-07-17T09:14:53Z</time>
      </trkpt>
      <trkpt lat="50.00059" lon="2.26176">
        <ele>120.5</ele>
        <time>2024-07-17T09:14:54Z</time>
      </trkpt>
      <trkpt lat="50.00058" lon="2.26174">
        <ele>120.5</ele>
        <time>2024-07-17T09:14:55Z</time>
      </trkpt>
      <trkpt lat="50.00057" lon="2.26173">
        <ele>120.5</ele>
        <time>2024-07-17T09:14:56Z</time>
      </trkpt>
      <trkpt lat="50.00057" lon="2.26172">
        <ele>120.4</ele>
        <time>2024-07-17T09:14:57Z</time>
      </trkpt>
      <trkpt lat="50.00056" lon="2.26171">
        <ele>120.4</ele>
        <time>2024-07-17T09:14:58Z</time>
      </trkpt>
      <trkpt lat="50.00056" lon="2.2617">
        <ele>120.4</ele>
        <time>2024-07-17T09:14:59Z</time>
      </trkpt>
      <trkpt lat="50.00055" lon="2.26168">
        <ele>120.4</ele>
        <time>2024-07-17T09:15:00Z</time>
      </trkpt>
      <trkpt lat="50.00055" lon="2.26167">
        <ele>120.4</ele>
        <time>2024-07-17T09:15:01Z</time>
      </trkpt>
      <trkpt lat="50.00054" lon="2.26166">
        <ele>120.3</ele>
        <time>2024-07-17T09:15:02Z</time>
      </trkpt>
      <trkpt lat="50.00054" lon="2.26165">
        <ele>120.3</ele>
        <time>2024-07-17T09:15:03Z</time>
      </trkpt>
      <trkpt lat="50.00053" lon="2.26163">
        <ele>120.3</ele>
        <time>2024-07-17T09:15:04Z</time>
      </trkpt>
      <trkpt lat="50.00052" lon="2.26162">
        <ele>120.3</ele>
        <time>2024-07-17T09:15:05Z</time>
      </trkpt>
      <trkpt lat="50.00052" lon="2.26161">
        <ele>120.3</ele>
        <time>2024-07-17T09:15:06Z</time>
      </trkpt>
      <trkpt lat="50.00051" lon="2.2616">
        <ele>120.2</ele>
        <time>2024-07-17T09:15:07Z</time>
      </trkpt>
      <trkpt lat="50.0005" lon="2.26159">
        <ele>120.2</ele>
        <time>2024-07-17T09:15:08Z</time>
      </trkpt>
      <trkpt lat="50.00049" lon="2.26158">
        <ele>120.2</ele>
        <time>2024-07-17T09:15:09Z</time>
      </trkpt>
      <trkpt lat="50.00049" lon="2.26157">
        <ele>120.2</ele>
        <time>2024-07-17T09:15:10Z</time>
      </trkpt>
      <trkpt lat="50.00048" lon="2.26156">
        <ele>120.2</ele>
        <time>2024-07-17T09:15:11Z</time>
      </trkpt>
      <trkpt lat="50.00047" lon="2.26155">
        <ele>120.1</ele>
        <time>2024-07-17T09:15:12Z</time>
      </trkpt>
      <trkpt lat="50.00046" lon="2.26154">
        <ele>120.1</ele>
        <time>2024-07-17T09:15:13Z</time>
      </trkpt>
      <trkpt lat="50.00046" lon="2.26153">
        <ele>120.1</ele>
        <time>2024-07-17T09:15:14Z</time>
      </trkpt>
      <trkpt lat="50.00045" lon="2.26152">
        <ele>120.1</ele>
        <time>2024-07-17T09:15:15Z</time>
      </trkpt>
      <trkpt lat="50.00044" lon="2.26152">
        <ele>120</ele>
        <time>2024-07-17T09:15:16Z</time>
      </trkpt>
      <trkpt lat="50.00043" lon="2.26151">
        <ele>120</ele>
        <time>2024-07-17T09:15:17Z</time>
      </trkpt>
      <trkpt lat="50.00042" lon="2.26149">
        <ele>120</ele>
        <time>2024-07-17T09:15:18Z</time>
      </trkpt>
      <trkpt lat="50.0004" lon="2.26147">
        <ele>119.9</ele>
        <time>2024-07-17T09:15:19Z</time>
      </trkpt>
      <trkpt lat="50.00039" lon="2.26146">
        <ele>119.9</ele>
        <time>2024-07-17T09:15:20Z</time>
      </trkpt>
      <trkpt lat="50.00039" lon="2.26146">
        <ele>119.9</ele>
        <time>2024-07-17T09:15:21Z</time>
      </trkpt>
      <trkpt lat="50.00038" lon="2.26145">
        <ele>119.9</ele>
        <time>2024-07-17T09:15:22Z</time>
      </trkpt>
      <trkpt lat="50.00037" lon="2.26144">
        <ele>119.9</ele>
        <time>2024-07-17T09:15:23Z</time>
      </trkpt>
      <trkpt lat="50.00036" lon="2.26143">
        <ele>119.8</ele>
        <time>2024-07-17T09:15:24Z</time>
      </trkpt>
      <trkpt lat="50.00035" lon="2.26142">
        <ele>119.8</ele>
        <time>2024-07-17T09:15:25Z</time>
      </trkpt>
      <trkpt lat="50.00034" lon="2.26141">
        <ele>119.8</ele>
        <time>2024-07-17T09:15:26Z</time>
      </trkpt>
      <trkpt lat="50.00033" lon="2.2614">
        <ele>119.8</ele>
        <time>2024-07-17T09:15:27Z</time>
      </trkpt>
      <trkpt lat="50.00032" lon="2.26139">
        <ele>119.7</ele>
        <time>2024-07-17T09:15:28Z</time>
      </trkpt>
      <trkpt lat="50.00031" lon="2.26138">
        <ele>119.7</ele>
        <time>2024-07-17T09:15:29Z</time>
      </trkpt>
      <trkpt lat="50.0003" lon="2.26137">
        <ele>119.7</ele>
        <time>2024-07-17T09:15:30Z</time>
      </trkpt>
      <trkpt lat="50.0003" lon="2.26136">
        <ele>119.7</ele>
        <time>2024-07-17T09:15:31Z</time>
      </trkpt>
      <trkpt lat="50.00029" lon="2.26136">
        <ele>119.7</ele>
        <time>2024-07-17T09:15:32Z</time>
      </trkpt>
      <trkpt lat="50.00028" lon="2.26135">
        <ele>119.6</ele>
        <time>2024-07-17T09:15:33Z</time>
      </trkpt>
      <trkpt lat="50.00027" lon="2.26134">
        <ele>119.6</ele>
        <time>2024-07-17T09:15:34Z</time>
      </trkpt>
      <trkpt lat="50.00026" lon="2.26133">
        <ele>119.6</ele>
        <time>2024-07-17T09:15:35Z</time>
      </trkpt>
      <trkpt lat="50.00026" lon="2.26132">
        <ele>119.6</ele>
        <time>2024-07-17T09:15:36Z</time>
      </trkpt>
      <trkpt lat="50.00026" lon="2.26131">
        <ele>119.6</ele>
        <time>2024-07-17T09:15:37Z</time>
      </trkpt>
      <trkpt lat="50.00025" lon="2.2613">
        <ele>119.5</ele>
        <time>2024-07-17T09:15:38Z</time>
      </trkpt>
      <trkpt lat="50.00025" lon="2.26128">
        <ele>119.5</ele>
        <time>2024-07-17T09:15:39Z</time>
      </trkpt>
      <trkpt lat="50.00024" lon="2.26127">
        <ele>119.5</ele>
        <time>2024-07-17T09:15:40Z</time>
      </trkpt>
      <trkpt lat="50.00023" lon="2.26126">
        <ele>119.5</ele>
        <time>2024-07-17T09:15:41Z</time>
      </trkpt>
      <trkpt lat="50.00023" lon="2.26125">
        <ele>119.4</ele>
        <time>2024-07-17T09:15:42Z</time>
      </trkpt>
      <trkpt lat="50.00024" lon="2.26124">
        <ele>119.4</ele>
        <time>2024-07-17T09:15:43Z</time>
      </trkpt>
      <trkpt lat="50.00025" lon="2.26123">
        <ele>119.4</ele>
        <time>2024-07-17T09:15:44Z</time>
      </trkpt>
      <trkpt lat="50.00025" lon="2.26122">
        <ele>119.4</ele>
        <time>2024-07-17T09:15:45Z</time>
      </trkpt>
      <trkpt lat="50.00025" lon="2.26122">
        <ele>119.4</ele>
        <time>2024-07-17T09:15:46Z</time>
      </trkpt>
      <trkpt lat="50.00025" lon="2.26121">
        <ele>119.4</ele>
        <time>2024-07-17T09:15:47Z</time>
      </trkpt>
      <trkpt lat="50.00025" lon="2.26121">
        <ele>119.3</ele>
        <time>2024-07-17T09:15:48Z</time>
      </trkpt>
      <trkpt lat="50.00024" lon="2.26119">
        <ele>119.3</ele>
        <time>2024-07-17T09:15:49Z</time>
      </trkpt>
      <trkpt lat="50.00024" lon="2.26118">
        <ele>119.3</ele>
        <time>2024-07-17T09:15:50Z</time>
      </trkpt>
      <trkpt lat="50.00023" lon="2.26117">
        <ele>119.3</ele>
        <time>2024-07-17T09:15:51Z</time>
      </trkpt>
      <trkpt lat="50.00022" lon="2.26117">
        <ele>119.3</ele>
        <time>2024-07-17T09:15:52Z</time>
      </trkpt>
      <trkpt lat="50.00022" lon="2.26116">
        <ele>119.2</ele>
        <time>2024-07-17T09:15:53Z</time>
      </trkpt>
      <trkpt lat="50.00021" lon="2.26115">
        <ele>119.2</ele>
        <time>2024-07-17T09:15:54Z</time>
      </trkpt>
      <trkpt lat="50.0002" lon="2.26114">
        <ele>119.2</ele>
        <time>2024-07-17T09:15:55Z</time>
      </trkpt>
      <trkpt lat="50.00019" lon="2.26113">
        <ele>119.2</ele>
        <time>2024-07-17T09:15:56Z</time>
      </trkpt>
      <trkpt lat="50.00018" lon="2.26113">
        <ele>119.1</ele>
        <time>2024-07-17T09:15:57Z</time>
      </trkpt>
      <trkpt lat="50.00017" lon="2.26112">
        <ele>119.1</ele>
        <time>2024-07-17T09:15:58Z</time>
      </trkpt>
      <trkpt lat="50.00017" lon="2.26111">
        <ele>119.1</ele>
        <time>2024-07-17T09:15:59Z</time>
      </trkpt>
      <trkpt lat="50.00016" lon="2.26111">
        <ele>119.1</ele>
        <time>2024-07-17T09:16:00Z</time>
      </trkpt>
      <trkpt lat="50.00015" lon="2.2611">
        <ele>119</ele>
        <time>2024-07-17T09:16:01Z</time>
      </trkpt>
      <trkpt lat="50.00014" lon="2.26109">
        <ele>119</ele>
        <time>2024-07-17T09:16:02Z</time>
      </trkpt>
      <trkpt lat="50.00013" lon="2.26108">
        <ele>119</ele>
        <time>2024-07-17T09:16:03Z</time>
      </trkpt>
      <trkpt lat="50.00012" lon="2.26107">
        <ele>119</ele>
        <time>2024-07-17T09:16:04Z</time>
      </trkpt>
      <trkpt lat="50.00011" lon="2.26106">
        <ele>118.9</ele>
        <time>2024-07-17T09:16:05Z</time>
      </trkpt>
      <trkpt lat="50.0001" lon="2.26105">
        <ele>118.9</ele>
        <time>2024-07-17T09:16:06Z</time>
      </trkpt>
      <trkpt lat="50.00009" lon="2.26103">
        <ele>118.9</ele>
        <time>2024-07-17T09:16:07Z</time>
      </trkpt>
      <trkpt lat="50.00009" lon="2.26103">
        <ele>118.9</ele>
        <time>2024-07-17T09:16:08Z</time>
      </trkpt>
      <trkpt lat="50.00008" lon="2.26102">
        <ele>118.8</ele>
        <time>2024-07-17T09:16:09Z</time>
      </trkpt>
      <trkpt lat="50.00008" lon="2.26101">
        <ele>118.8</ele>
        <time>2024-07-17T09:16:10Z</time>
      </trkpt>
      <trkpt lat="50.00007" lon="2.261">
        <ele>118.8</ele>
        <time>2024-07-17T09:16:11Z</time>
      </trkpt>
      <trkpt lat="50.00007" lon="2.26099">
        <ele>118.8</ele>
        <time>2024-07-17T09:16:12Z</time>
      </trkpt>
      <trkpt lat="50.00006" lon="2.26098">
        <ele>118.8</ele>
        <time>2024-07-17T09:16:13Z</time>
      </trkpt>
      <trkpt lat="50.00005" lon="2.26096">
        <ele>118.7</ele>
        <time>2024-07-17T09:16:14Z</time>
      </trkpt>
      <trkpt lat="50.00005" lon="2.26095">
        <ele>118.7</ele>
        <time>2024-07-17T09:16:15Z</time>
      </trkpt>
      <trkpt lat="50.00004" lon="2.26094">
        <ele>118.7</ele>
        <time>2024-07-17T09:16:16Z</time>
      </trkpt>
      <trkpt lat="50.00004" lon="2.26093">
        <ele>118.7</ele>
        <time>2024-07-17T09:16:17Z</time>
      </trkpt>
      <trkpt lat="50.00003" lon="2.26092">
        <ele>118.6</ele>
        <time>2024-07-17T09:16:18Z</time>
      </trkpt>
      <trkpt lat="50.00002" lon="2.26091">
        <ele>118.6</ele>
        <time>2024-07-17T09:16:19Z</time>
      </trkpt>
      <trkpt lat="50.00002" lon="2.2609">
        <ele>118.6</ele>
        <time>2024-07-17T09:16:20Z</time>
      </trkpt>
      <trkpt lat="50.00001" lon="2.26088">
        <ele>118.6</ele>
        <time>2024-07-17T09:16:21Z</time>
      </trkpt>
      <trkpt lat="50" lon="2.26088">
        <ele>118.5</ele>
        <time>2024-07-17T09:16:22Z</time>
      </trkpt>
      <trkpt lat="50" lon="2.26087">
        <ele>118.5</ele>
        <time>2024-07-17T09:16:23Z</time>
      </trkpt>
      <trkpt lat="49.99999" lon="2.26086">
        <ele>118.5</ele>
        <time>2024-07-17T09:16:24Z</time>
      </trkpt>
      <trkpt lat="49.99998" lon="2.26085">
        <ele>118.5</ele>
        <time>2024-07-17T09:16:25Z</time>
      </trkpt>
      <trkpt lat="49.99997" lon="2.26084">
        <ele>118.4</ele>
        <time>2024-07-17T09:16:26Z</time>
      </trkpt>
      <trkpt lat="49.99997" lon="2.26083">
        <ele>118.4</ele>
        <time>2024-07-17T09:16:27Z</time>
      </trkpt>
      <trkpt lat="49.99996" lon="2.26082">
        <ele>118.4</ele>
        <time>2024-07-17T09:16:28Z</time>
      </trkpt>
      <trkpt lat="49.99995" lon="2.26081">
        <ele>118.4</ele>
        <time>2024-07-17T09:16:29Z</time>
      </trkpt>
      <trkpt lat="49.99994" lon="2.2608">
        <ele>118.4</ele>
        <time>2024-07-17T09:16:30Z</time>
      </trkpt>
      <trkpt lat="49.99993" lon="2.26079">
        <ele>118.3</ele>
        <time>2024-07-17T09:16:31Z</time>
      </trkpt>
      <trkpt lat="49.99993" lon="2.26078">
        <ele>118.3</ele>
        <time>2024-07-17T09:16:32Z</time>
      </trkpt>
      <trkpt lat="49.99992" lon="2.26077">
        <ele>118.3</ele>
        <time>2024-07-17T09:16:33Z</time>
      </trkpt>
      <trkpt lat="49.99991" lon="2.26076">
        <ele>118.2</ele>
        <time>2024-07-17T09:16:34Z</time>
      </trkpt>
      <trkpt lat="49.9999" lon="2.26074">
        <ele>118.2</ele>
        <time>2024-07-17T09:16:35Z</time>
      </trkpt>
      <trkpt lat="49.99989" lon="2.26073">
        <ele>118.2</ele>
        <time>2024-07-17T09:16:36Z</time>
      </trkpt>
      <trkpt lat="49.99989" lon="2.26072">
        <ele>118.2</ele>
        <time>2024-07-17T09:16:37Z</time>
      </trkpt>
      <trkpt lat="49.99988" lon="2.26071">
        <ele>118.1</ele>
        <time>2024-07-17T09:16:38Z</time>
      </trkpt>
      <trkpt lat="49.99987" lon="2.2607">
        <ele>118.1</ele>
        <time>2024-07-17T09:16:39Z</time>
      </trkpt>
      <trkpt lat="49.99986" lon="2.2607">
        <ele>118.1</ele>
        <time>2024-07-17T09:16:40Z</time>
      </trkpt>
      <trkpt lat="49.99985" lon="2.26068">
        <ele>118.1</ele>
        <time>2024-07-17T09:16:41Z</time>
      </trkpt>
      <trkpt lat="49.99984" lon="2.26067">
        <ele>118</ele>
        <time>2024-07-17T09:16:42Z</time>
      </trkpt>
      <trkpt lat="49.99984" lon="2.26066">
        <ele>118</ele>
        <time>2024-07-17T09:16:43Z</time>
      </trkpt>
      <trkpt lat="49.99983" lon="2.26065">
        <ele>118</ele>
        <time>2024-07-17T09:16:44Z</time>
      </trkpt>
      <trkpt lat="49.99982" lon="2.26064">
        <ele>118</ele>
        <time>2024-07-17T09:16:45Z</time>
      </trkpt>
      <trkpt lat="49.99981" lon="2.26063">
        <ele>118</ele>
        <time>2024-07-17T09:16:46Z</time>
      </trkpt>
      <trkpt lat="49.9998" lon="2.26062">
        <ele>117.9</ele>
        <time>2024-07-17T09:16:47Z</time>
      </trkpt>
      <trkpt lat="49.99979" lon="2.26061">
        <ele>117.9</ele>
        <time>2024-07-17T09:16:48Z</time>
      </trkpt>
      <trkpt lat="49.99978" lon="2.2606">
        <ele>117.9</ele>
        <time>2024-07-17T09:16:49Z</time>
      </trkpt>
      <trkpt lat="49.99978" lon="2.2606">
        <ele>117.9</ele>
        <time>2024-07-17T09:16:50Z</time>
      </trkpt>
      <trkpt lat="49.99977" lon="2.26059">
        <ele>117.8</ele>
        <time>2024-07-17T09:16:51Z</time>
      </trkpt>
      <trkpt lat="49.99976" lon="2.26058">
        <ele>117.8</ele>
        <time>2024-07-17T09:16:52Z</time>
      </trkpt>
      <trkpt lat="49.99975" lon="2.26057">
        <ele>117.8</ele>
        <time>2024-07-17T09:16:53Z</time>
      </trkpt>
      <trkpt lat="49.99974" lon="2.26056">
        <ele>117.8</ele>
        <time>2024-07-17T09:16:54Z</time>
      </trkpt>
      <trkpt lat="49.99974" lon="2.26056">
        <ele>117.7</ele>
        <time>2024-07-17T09:16:55Z</time>
      </trkpt>
      <trkpt lat="49.99973" lon="2.26055">
        <ele>117.7</ele>
        <time>2024-07-17T09:16:56Z</time>
      </trkpt>
      <trkpt lat="49.99972" lon="2.26053">
        <ele>117.7</ele>
        <time>2024-07-17T09:16:57Z</time>
      </trkpt>
      <trkpt lat="49.99971" lon="2.26052">
        <ele>117.7</ele>
        <time>2024-07-17T09:16:58Z</time>
      </trkpt>
      <trkpt lat="49.99971" lon="2.26052">
        <ele>117.7</ele>
        <time>2024-07-17T09:16:59Z</time>
      </trkpt>
      <trkpt lat="49.9997" lon="2.26051">
        <ele>117.6</ele>
        <time>2024-07-17T09:17:00Z</time>
      </trkpt>
      <trkpt lat="49.99969" lon="2.2605">
        <ele>117.6</ele>
        <time>2024-07-17T09:17:01Z</time>
      </trkpt>
      <trkpt lat="49.99969" lon="2.26049">
        <ele>117.6</ele>
        <time>2024-07-17T09:17:02Z</time>
      </trkpt>
      <trkpt lat="49.99968" lon="2.26048">
        <ele>117.6</ele>
        <time>2024-07-17T09:17:03Z</time>
      </trkpt>
      <trkpt lat="49.99967" lon="2.26047">
        <ele>117.6</ele>
        <time>2024-07-17T09:17:04Z</time>
      </trkpt>
      <trkpt lat="49.99967" lon="2.26047">
        <ele>117.5</ele>
        <time>2024-07-17T09:17:05Z</time>
      </trkpt>
      <trkpt lat="49.99966" lon="2.26046">
        <ele>117.5</ele>
        <time>2024-07-17T09:17:06Z</time>
      </trkpt>
      <trkpt lat="49.99965" lon="2.26045">
        <ele>117.5</ele>
        <time>2024-07-17T09:17:07Z</time>
      </trkpt>
      <trkpt lat="49.99965" lon="2.26044">
        <ele>117.5</ele>
        <time>2024-07-17T09:17:08Z</time>
      </trkpt>
      <trkpt lat="49.99964" lon="2.26043">
        <ele>117.4</ele>
        <time>2024-07-17T09:17:09Z</time>
      </trkpt>
      <trkpt lat="49.99963" lon="2.26042">
        <ele>117.4</ele>
        <time>2024-07-17T09:17:10Z</time>
      </trkpt>
      <trkpt lat="49.99963" lon="2.26041">
        <ele>117.4</ele>
        <time>2024-07-17T09:17:11Z</time>
      </trkpt>
      <trkpt lat="49.99962" lon="2.26039">
        <ele>117.4</ele>
        <time>2024-07-17T09:17:12Z</time>
      </trkpt>
      <trkpt lat="49.99962" lon="2.26038">
        <ele>117.4</ele>
        <time>2024-07-17T09:17:13Z</time>
      </trkpt>
      <trkpt lat="49.99961" lon="2.26037">
        <ele>117.3</ele>
        <time>2024-07-17T09:17:14Z</time>
      </trkpt>
      <trkpt lat="49.9996" lon="2.26036">
        <ele>117.3</ele>
        <time>2024-07-17T09:17:15Z</time>
      </trkpt>
      <trkpt lat="49.9996" lon="2.26035">
        <ele>117.3</ele>
        <time>2024-07-17T09:17:16Z</time>
      </trkpt>
      <trkpt lat="49.99959" lon="2.26034">
        <ele>117.3</ele>
        <time>2024-07-17T09:17:17Z</time>
      </trkpt>
      <trkpt lat="49.99958" lon="2.26032">
        <ele>117.2</ele>
        <time>2024-07-17T09:17:18Z</time>
      </trkpt>
      <trkpt lat="49.99957" lon="2.26031">
        <ele>117.2</ele>
        <time>2024-07-17T09:17:19Z</time>
      </trkpt>
      <trkpt lat="49.99957" lon="2.2603">
        <ele>117.2</ele>
        <time>2024-07-17T09:17:20Z</time>
      </trkpt>
      <trkpt lat="49.99956" lon="2.26029">
        <ele>117.2</ele>
        <time>2024-07-17T09:17:21Z</time>
      </trkpt>
      <trkpt lat="49.99955" lon="2.26028">
        <ele>117.1</ele>
        <time>2024-07-17T09:17:22Z</time>
      </trkpt>
      <trkpt lat="49.99954" lon="2.26027">
        <ele>117.1</ele>
        <time>2024-07-17T09:17:23Z</time>
      </trkpt>
      <trkpt lat="49.99953" lon="2.26026">
        <ele>117.1</ele>
        <time>2024-07-17T09:17:24Z</time>
      </trkpt>
      <trkpt lat="49.99952" lon="2.26025">
        <ele>117</ele>
        <time>2024-07-17T09:17:25Z</time>
      </trkpt>
      <trkpt lat="49.99952" lon="2.26023">
        <ele>117</ele>
        <time>2024-07-17T09:17:26Z</time>
      </trkpt>
      <trkpt lat="49.99951" lon="2.26022">
        <ele>117</ele>
        <time>2024-07-17T09:17:27Z</time>
      </trkpt>
      <trkpt lat="49.9995" lon="2.26021">
        <ele>116.9</ele>
        <time>2024-07-17T09:17:28Z</time>
      </trkpt>
      <trkpt lat="49.99949" lon="2.2602">
        <ele>116.9</ele>
        <time>2024-07-17T09:17:29Z</time>
      </trkpt>
      <trkpt lat="49.99948" lon="2.26019">
        <ele>116.9</ele>
        <time>2024-07-17T09:17:30Z</time>
      </trkpt>
      <trkpt lat="49.99947" lon="2.26019">
        <ele>116.8</ele>
        <time>2024-07-17T09:17:31Z</time>
      </trkpt>
      <trkpt lat="49.99946" lon="2.26018">
        <ele>116.8</ele>
        <time>2024-07-17T09:17:32Z</time>
      </trkpt>
      <trkpt lat="49.99945" lon="2.26017">
        <ele>116.8</ele>
        <time>2024-07-17T09:17:33Z</time>
      </trkpt>
      <trkpt lat="49.99944" lon="2.26016">
        <ele>116.7</ele>
        <time>2024-07-17T09:17:34Z</time>
      </trkpt>
      <trkpt lat="49.99943" lon="2.26015">
        <ele>116.7</ele>
        <time>2024-07-17T09:17:35Z</time>
      </trkpt>
      <trkpt lat="49.99943" lon="2.26014">
        <ele>116.7</ele>
        <time>2024-07-17T09:17:36Z</time>
      </trkpt>
      <trkpt lat="49.99942" lon="2.26014">
        <ele>116.7</ele>
        <time>2024-07-17T09:17:37Z</time>
      </trkpt>
      <trkpt lat="49.99941" lon="2.26012">
        <ele>116.6</ele>
        <time>2024-07-17T09:17:38Z</time>
      </trkpt>
      <trkpt lat="49.9994" lon="2.26011">
        <ele>116.6</ele>
        <time>2024-07-17T09:17:39Z</time>
      </trkpt>
      <trkpt lat="49.9994" lon="2.2601">
        <ele>116.6</ele>
        <time>2024-07-17T09:17:40Z</time>
      </trkpt>
      <trkpt lat="49.99941" lon="2.2601">
        <ele>116.6</ele>
        <time>2024-07-17T09:17:41Z</time>
      </trkpt>
      <trkpt lat="49.99941" lon="2.26009">
        <ele>116.6</ele>
        <time>2024-07-17T09:17:42Z</time>
      </trkpt>
      <trkpt lat="49.99941" lon="2.26009">
        <ele>116.5</ele>
        <time>2024-07-17T09:17:43Z</time>
      </trkpt>
      <trkpt lat="49.99941" lon="2.26008">
        <ele>116.5</ele>
        <time>2024-07-17T09:17:44Z</time>
      </trkpt>
      <trkpt lat="49.9994" lon="2.26008">
        <ele>116.5</ele>
        <time>2024-07-17T09:17:45Z</time>
      </trkpt>
      <trkpt lat="49.99939" lon="2.26007">
        <ele>116.5</ele>
        <time>2024-07-17T09:17:46Z</time>
      </trkpt>
      <trkpt lat="49.99939" lon="2.26006">
        <ele>116.4</ele>
        <time>2024-07-17T09:17:47Z</time>
      </trkpt>
      <trkpt lat="49.99938" lon="2.26005">
        <ele>116.4</ele>
        <time>2024-07-17T09:17:48Z</time>
      </trkpt>
      <trkpt lat="49.99937" lon="2.26004">
        <ele>116.4</ele>
        <time>2024-07-17T09:17:49Z</time>
      </trkpt>
      <trkpt lat="49.99936" lon="2.26003">
        <ele>116.4</ele>
        <time>2024-07-17T09:17:50Z</time>
      </trkpt>
      <trkpt lat="49.99935" lon="2.26003">
        <ele>116.3</ele>
        <time>2024-07-17T09:17:51Z</time>
      </trkpt>
      <trkpt lat="49.99934" lon="2.26002">
        <ele>116.3</ele>
        <time>2024-07-17T09:17:52Z</time>
      </trkpt>
      <trkpt lat="49.99933" lon="2.26001">
        <ele>116.3</ele>
        <time>2024-07-17T09:17:53Z</time>
      </trkpt>
      <trkpt lat="49.99933" lon="2.26">
        <ele>116.2</ele>
        <time>2024-07-17T09:17:54Z</time>
      </trkpt>
      <trkpt lat="49.99932" lon="2.25999">
        <ele>116.2</ele>
        <time>2024-07-17T09:17:55Z</time>
      </trkpt>
      <trkpt lat="49.99931" lon="2.25998">
        <ele>116.2</ele>
        <time>2024-07-17T09:17:56Z</time>
      </trkpt>
      <trkpt lat="49.9993" lon="2.25996">
        <ele>116.1</ele>
        <time>2024-07-17T09:17:57Z</time>
      </trkpt>
      <trkpt lat="49.99929" lon="2.25996">
        <ele>116.1</ele>
        <time>2024-07-17T09:17:58Z</time>
      </trkpt>
      <trkpt lat="49.99928" lon="2.25995">
        <ele>116.1</ele>
        <time>2024-07-17T09:17:59Z</time>
      </trkpt>
      <trkpt lat="49.99927" lon="2.25994">
        <ele>116.1</ele>
        <time>2024-07-17T09:18:00Z</time>
      </trkpt>
      <trkpt lat="49.99926" lon="2.25993">
        <ele>116</ele>
        <time>2024-07-17T09:18:01Z</time>
      </trkpt>
      <trkpt lat="49.99925" lon="2.25993">
        <ele>116</ele>
        <time>2024-07-17T09:18:02Z</time>
      </trkpt>
      <trkpt lat="49.99924" lon="2.25992">
        <ele>116</ele>
        <time>2024-07-17T09:18:03Z</time>
      </trkpt>
      <trkpt lat="49.99923" lon="2.25991">
        <ele>115.9</ele>
        <time>2024-07-17T09:18:04Z</time>
      </trkpt>
      <trkpt lat="49.99922" lon="2.25991">
        <ele>115.9</ele>
        <time>2024-07-17T09:18:05Z</time>
      </trkpt>
      <trkpt lat="49.99921" lon="2.25991">
        <ele>115.9</ele>
        <time>2024-07-17T09:18:06Z</time>
      </trkpt>
      <trkpt lat="49.99921" lon="2.2599">
        <ele>115.8</ele>
        <time>2024-07-17T09:18:07Z</time>
      </trkpt>
      <trkpt lat="49.9992" lon="2.25991">
        <ele>115.8</ele>
        <time>2024-07-17T09:18:08Z</time>
      </trkpt>
      <trkpt lat="49.99918" lon="2.25991">
        <ele>115.8</ele>
        <time>2024-07-17T09:18:09Z</time>
      </trkpt>
      <trkpt lat="49.99917" lon="2.25991">
        <ele>115.7</ele>
        <time>2024-07-17T09:18:10Z</time>
      </trkpt>
      <trkpt lat="49.99917" lon="2.25991">
        <ele>115.7</ele>
        <time>2024-07-17T09:18:11Z</time>
      </trkpt>
      <trkpt lat="49.99915" lon="2.25991">
        <ele>115.7</ele>
        <time>2024-07-17T09:18:12Z</time>
      </trkpt>
      <trkpt lat="49.99914" lon="2.25991">
        <ele>115.6</ele>
        <time>2024-07-17T09:18:13Z</time>
      </trkpt>
      <trkpt lat="49.99913" lon="2.25992">
        <ele>115.6</ele>
        <time>2024-07-17T09:18:14Z</time>
      </trkpt>
      <trkpt lat="49.99911" lon="2.25993">
        <ele>115.5</ele>
        <time>2024-07-17T09:18:15Z</time>
      </trkpt>
      <trkpt lat="49.9991" lon="2.25993">
        <ele>115.5</ele>
        <time>2024-07-17T09:18:16Z</time>
      </trkpt>
      <trkpt lat="49.9991" lon="2.25994">
        <ele>115.5</ele>
        <time>2024-07-17T09:18:17Z</time>
      </trkpt>
      <trkpt lat="49.99908" lon="2.25994">
        <ele>115.4</ele>
        <time>2024-07-17T09:18:18Z</time>
      </trkpt>
      <trkpt lat="49.99907" lon="2.25996">
        <ele>115.4</ele>
        <time>2024-07-17T09:18:19Z</time>
      </trkpt>
      <trkpt lat="49.99906" lon="2.25997">
        <ele>115.3</ele>
        <time>2024-07-17T09:18:20Z</time>
      </trkpt>
      <trkpt lat="49.99904" lon="2.25998">
        <ele>115.3</ele>
        <time>2024-07-17T09:18:21Z</time>
      </trkpt>
      <trkpt lat="49.99902" lon="2.25998">
        <ele>115.2</ele>
        <time>2024-07-17T09:18:22Z</time>
      </trkpt>
      <trkpt lat="49.99901" lon="2.25999">
        <ele>115.2</ele>
        <time>2024-07-17T09:18:23Z</time>
      </trkpt>
      <trkpt lat="49.99901" lon="2.25999">
        <ele>115.1</ele>
        <time>2024-07-17T09:18:24Z</time>
      </trkpt>
      <trkpt lat="49.99899" lon="2.25999">
        <ele>115.1</ele>
        <time>2024-07-17T09:18:25Z</time>
      </trkpt>
      <trkpt lat="49.99898" lon="2.26">
        <ele>115</ele>
        <time>2024-07-17T09:18:26Z</time>
      </trkpt>
      <trkpt lat="49.99897" lon="2.26">
        <ele>115</ele>
        <time>2024-07-17T09:18:27Z</time>
      </trkpt>
      <trkpt lat="49.99896" lon="2.26">
        <ele>115</ele>
        <time>2024-07-17T09:18:28Z</time>
      </trkpt>
      <trkpt lat="49.99895" lon="2.26">
        <ele>114.9</ele>
        <time>2024-07-17T09:18:29Z</time>
      </trkpt>
      <trkpt lat="49.99894" lon="2.26">
        <ele>114.9</ele>
        <time>2024-07-17T09:18:30Z</time>
      </trkpt>
      <trkpt lat="49.99893" lon="2.26">
        <ele>114.9</ele>
        <time>2024-07-17T09:18:31Z</time>
      </trkpt>
      <trkpt lat="49.99892" lon="2.26">
        <ele>114.8</ele>
        <time>2024-07-17T09:18:32Z</time>
      </trkpt>
      <trkpt lat="49.99891" lon="2.25999">
        <ele>114.8</ele>
        <time>2024-07-17T09:18:33Z</time>
      </trkpt>
      <trkpt lat="49.9989" lon="2.25998">
        <ele>114.7</ele>
        <time>2024-07-17T09:18:34Z</time>
      </trkpt>
      <trkpt lat="49.99889" lon="2.25998">
        <ele>114.7</ele>
        <time>2024-07-17T09:18:35Z</time>
      </trkpt>
      <trkpt lat="49.99888" lon="2.25997">
        <ele>114.7</ele>
        <time>2024-07-17T09:18:36Z</time>
      </trkpt>
      <trkpt lat="49.99887" lon="2.25997">
        <ele>114.6</ele>
        <time>2024-07-17T09:18:37Z</time>
      </trkpt>
      <trkpt lat="49.99886" lon="2.25996">
        <ele>114.6</ele>
        <time>2024-07-17T09:18:38Z</time>
      </trkpt>
      <trkpt lat="49.99885" lon="2.25995">
        <ele>114.6</ele>
        <time>2024-07-17T09:18:39Z</time>
      </trkpt>
      <trkpt lat="49.99884" lon="2.25994">
        <ele>114.5</ele>
        <time>2024-07-17T09:18:40Z</time>
      </trkpt>
      <trkpt lat="49.99883" lon="2.25993">
        <ele>114.5</ele>
        <time>2024-07-17T09:18:41Z</time>
      </trkpt>
      <trkpt lat="49.99883" lon="2.25992">
        <ele>114.5</ele>
        <time>2024-07-17T09:18:42Z</time>
      </trkpt>
      <trkpt lat="49.99882" lon="2.25992">
        <ele>114.4</ele>
        <time>2024-07-17T09:18:43Z</time>
      </trkpt>
      <trkpt lat="49.99881" lon="2.25991">
        <ele>114.4</ele>
        <time>2024-07-17T09:18:44Z</time>
      </trkpt>
      <trkpt lat="49.99881" lon="2.2599">
        <ele>114.4</ele>
        <time>2024-07-17T09:18:45Z</time>
      </trkpt>
      <trkpt lat="49.9988" lon="2.2599">
        <ele>114.3</ele>
        <time>2024-07-17T09:18:46Z</time>
      </trkpt>
      <trkpt lat="49.99879" lon="2.2599">
        <ele>114.3</ele>
        <time>2024-07-17T09:18:47Z</time>
      </trkpt>
      <trkpt lat="49.99878" lon="2.2599">
        <ele>114.3</ele>
        <time>2024-07-17T09:18:48Z</time>
      </trkpt>
      <trkpt lat="49.99878" lon="2.25989">
        <ele>114.3</ele>
        <time>2024-07-17T09:18:49Z</time>
      </trkpt>
      <trkpt lat="49.99877" lon="2.25989">
        <ele>114.2</ele>
        <time>2024-07-17T09:18:50Z</time>
      </trkpt>
      <trkpt lat="49.99876" lon="2.25988">
        <ele>114.2</ele>
        <time>2024-07-17T09:18:51Z</time>
      </trkpt>
      <trkpt lat="49.99876" lon="2.25987">
        <ele>114.2</ele>
        <time>2024-07-17T09:18:52Z</time>
      </trkpt>
      <trkpt lat="49.99875" lon="2.25987">
        <ele>114.2</ele>
        <time>2024-07-17T09:18:53Z</time>
      </trkpt>
      <trkpt lat="49.99875" lon="2.25986">
        <ele>114.2</ele>
        <time>2024-07-17T09:18:54Z</time>
      </trkpt>
      <trkpt lat="49.99874" lon="2.25986">
        <ele>114.1</ele>
        <time>2024-07-17T09:18:55Z</time>
      </trkpt>
      <trkpt lat="49.99874" lon="2.25986">
        <ele>114.1</ele>
        <time>2024-07-17T09:18:56Z</time>
      </trkpt>
      <trkpt lat="49.99873" lon="2.25985">
        <ele>114.1</ele>
        <time>2024-07-17T09:18:57Z</time>
      </trkpt>
      <trkpt lat="49.99872" lon="2.25985">
        <ele>114.1</ele>
        <time>2024-07-17T09:18:58Z</time>
      </trkpt>
      <trkpt lat="49.99872" lon="2.25985">
        <ele>114.1</ele>
        <time>2024-07-17T09:18:59Z</time>
      </trkpt>
      <trkpt lat="49.99871" lon="2.25984">
        <ele>114.1</ele>
        <time>2024-07-17T09:19:00Z</time>
      </trkpt>
      <trkpt lat="49.99871" lon="2.25984">
        <ele>114</ele>
        <time>2024-07-17T09:19:01Z</time>
      </trkpt>
      <trkpt lat="49.9987" lon="2.25984">
        <ele>114</ele>
        <time>2024-07-17T09:19:02Z</time>
      </trkpt>
      <trkpt lat="49.99869" lon="2.25983">
        <ele>114</ele>
        <time>2024-07-17T09:19:03Z</time>
      </trkpt>
      <trkpt lat="49.99868" lon="2.25983">
        <ele>114</ele>
        <time>2024-07-17T09:19:04Z</time>
      </trkpt>
      <trkpt lat="49.99868" lon="2.25982">
        <ele>113.9</ele>
        <time>2024-07-17T09:19:05Z</time>
      </trkpt>
      <trkpt lat="49.99867" lon="2.25982">
        <ele>113.9</ele>
        <time>2024-07-17T09:19:06Z</time>
      </trkpt>
      <trkpt lat="49.99866" lon="2.25981">
        <ele>113.9</ele>
        <time>2024-07-17T09:19:07Z</time>
      </trkpt>
      <trkpt lat="49.99865" lon="2.25981">
        <ele>113.9</ele>
        <time>2024-07-17T09:19:08Z</time>
      </trkpt>
      <trkpt lat="49.99864" lon="2.25981">
        <ele>113.8</ele>
        <time>2024-07-17T09:19:09Z</time>
      </trkpt>
      <trkpt lat="49.99864" lon="2.2598">
        <ele>113.8</ele>
        <time>2024-07-17T09:19:10Z</time>
      </trkpt>
      <trkpt lat="49.99863" lon="2.2598">
        <ele>113.8</ele>
        <time>2024-07-17T09:19:11Z</time>
      </trkpt>
      <trkpt lat="49.99862" lon="2.25979">
        <ele>113.8</ele>
        <time>2024-07-17T09:19:12Z</time>
      </trkpt>
      <trkpt lat="49.99861" lon="2.25978">
        <ele>113.7</ele>
        <time>2024-07-17T09:19:13Z</time>
      </trkpt>
      <trkpt lat="49.9986" lon="2.25978">
        <ele>113.7</ele>
        <time>2024-07-17T09:19:14Z</time>
      </trkpt>
      <trkpt lat="49.99859" lon="2.25978">
        <ele>113.7</ele>
        <time>2024-07-17T09:19:15Z</time>
      </trkpt>
      <trkpt lat="49.99859" lon="2.25977">
        <ele>113.6</ele>
        <time>2024-07-17T09:19:16Z</time>
      </trkpt>
      <trkpt lat="49.99858" lon="2.25977">
        <ele>113.6</ele>
        <time>2024-07-17T09:19:17Z</time>
      </trkpt>
      <trkpt lat="49.99857" lon="2.25977">
        <ele>113.6</ele>
        <time>2024-07-17T09:19:18Z</time>
      </trkpt>
      <trkpt lat="49.99856" lon="2.25978">
        <ele>113.6</ele>
        <time>2024-07-17T09:19:19Z</time>
      </trkpt>
      <trkpt lat="49.99856" lon="2.25979">
        <ele>113.5</ele>
        <time>2024-07-17T09:19:20Z</time>
      </trkpt>
      <trkpt lat="49.99856" lon="2.2598">
        <ele>113.5</ele>
        <time>2024-07-17T09:19:21Z</time>
      </trkpt>
      <trkpt lat="49.99856" lon="2.2598">
        <ele>113.5</ele>
        <time>2024-07-17T09:19:22Z</time>
      </trkpt>
      <trkpt lat="49.99856" lon="2.2598">
        <ele>113.5</ele>
        <time>2024-07-17T09:19:23Z</time>
      </trkpt>
      <trkpt lat="49.99856" lon="2.2598">
        <ele>113.5</ele>
        <time>2024-07-17T09:19:24Z</time>
      </trkpt>
      <trkpt lat="49.99856" lon="2.2598">
        <ele>113.5</ele>
        <time>2024-07-17T09:19:25Z</time>
      </trkpt>
      <trkpt lat="49.99856" lon="2.2598">
        <ele>113.5</ele>
        <time>2024-07-17T09:19:26Z</time>
      </trkpt>
      <trkpt lat="49.99856" lon="2.2598">
        <ele>113.5</ele>
        <time>2024-07-17T09:19:27Z</time>
      </trkpt>
      <trkpt lat="49.99856" lon="2.2598">
        <ele>113.5</ele>
        <time>2024-07-17T09:19:28Z</time>
      </trkpt>
      <trkpt lat="49.99856" lon="2.2598">
        <ele>113.5</ele>
        <time>2024-07-17T09:19:29Z</time>
      </trkpt>
      <trkpt lat="49.99856" lon="2.2598">
        <ele>113.5</ele>
        <time>2024-07-17T09:19:30Z</time>
      </trkpt>
      <trkpt lat="49.99856" lon="2.2598">
        <ele>113.5</ele>
        <time>2024-07-17T09:19:31Z</time>
      </trkpt>
      <trkpt lat="49.99856" lon="2.2598">
        <ele>113.5</ele>
        <time>2024-07-17T09:19:32Z</time>
      </trkpt>
      <trkpt lat="49.99856" lon="2.2598">
        <ele>113.5</ele>
        <time>2024-07-17T09:19:33Z</time>
      </trkpt>
      <trkpt lat="49.99856" lon="2.25979">
        <ele>113.5</ele>
        <time>2024-07-17T09:19:34Z</time>
      </trkpt>
      <trkpt lat="49.99856" lon="2.25979">
        <ele>113.5</ele>
        <time>2024-07-17T09:19:35Z</time>
      </trkpt>
      <trkpt lat="49.99855" lon="2.25979">
        <ele>113.5</ele>
        <time>2024-07-17T09:19:36Z</time>
      </trkpt>
      <trkpt lat="49.99854" lon="2.25978">
        <ele>113.4</ele>
        <time>2024-07-17T09:19:37Z</time>
      </trkpt>
      <trkpt lat="49.99853" lon="2.25977">
        <ele>113.4</ele>
        <time>2024-07-17T09:19:38Z</time>
      </trkpt>
      <trkpt lat="49.99853" lon="2.25977">
        <ele>113.4</ele>
        <time>2024-07-17T09:19:39Z</time>
      </trkpt>
      <trkpt lat="49.99852" lon="2.25975">
        <ele>113.3</ele>
        <time>2024-07-17T09:19:40Z</time>
      </trkpt>
      <trkpt lat="49.99852" lon="2.25974">
        <ele>113.3</ele>
        <time>2024-07-17T09:19:41Z</time>
      </trkpt>
      <trkpt lat="49.99851" lon="2.25973">
        <ele>113.3</ele>
        <time>2024-07-17T09:19:42Z</time>
      </trkpt>
      <trkpt lat="49.9985" lon="2.25972">
        <ele>113.2</ele>
        <time>2024-07-17T09:19:43Z</time>
      </trkpt>
      <trkpt lat="49.99849" lon="2.25971">
        <ele>113.2</ele>
        <time>2024-07-17T09:19:44Z</time>
      </trkpt>
      <trkpt lat="49.99849" lon="2.25971">
        <ele>113.2</ele>
        <time>2024-07-17T09:19:45Z</time>
      </trkpt>
      <trkpt lat="49.99848" lon="2.2597">
        <ele>113.2</ele>
        <time>2024-07-17T09:19:46Z</time>
      </trkpt>
      <trkpt lat="49.99847" lon="2.25969">
        <ele>113.1</ele>
        <time>2024-07-17T09:19:47Z</time>
      </trkpt>
      <trkpt lat="49.99847" lon="2.25968">
        <ele>113.1</ele>
        <time>2024-07-17T09:19:48Z</time>
      </trkpt>
      <trkpt lat="49.99846" lon="2.25967">
        <ele>113.1</ele>
        <time>2024-07-17T09:19:49Z</time>
      </trkpt>
      <trkpt lat="49.99845" lon="2.25967">
        <ele>113.1</ele>
        <time>2024-07-17T09:19:50Z</time>
      </trkpt>
      <trkpt lat="49.99844" lon="2.25966">
        <ele>113</ele>
        <time>2024-07-17T09:19:51Z</time>
      </trkpt>
      <trkpt lat="49.99843" lon="2.25965">
        <ele>113</ele>
        <time>2024-07-17T09:19:52Z</time>
      </trkpt>
      <trkpt lat="49.99842" lon="2.25964">
        <ele>113</ele>
        <time>2024-07-17T09:19:53Z</time>
      </trkpt>
      <trkpt lat="49.99841" lon="2.25964">
        <ele>112.9</ele>
        <time>2024-07-17T09:19:54Z</time>
      </trkpt>
      <trkpt lat="49.99841" lon="2.25964">
        <ele>112.9</ele>
        <time>2024-07-17T09:19:55Z</time>
      </trkpt>
      <trkpt lat="49.9984" lon="2.25963">
        <ele>112.9</ele>
        <time>2024-07-17T09:19:56Z</time>
      </trkpt>
      <trkpt lat="49.9984" lon="2.25962">
        <ele>112.9</ele>
        <time>2024-07-17T09:19:57Z</time>
      </trkpt>
      <trkpt lat="49.99839" lon="2.25961">
        <ele>112.9</ele>
        <time>2024-07-17T09:19:58Z</time>
      </trkpt>
      <trkpt lat="49.99838" lon="2.2596">
        <ele>112.8</ele>
        <time>2024-07-17T09:19:59Z</time>
      </trkpt>
      <trkpt lat="49.99838" lon="2.2596">
        <ele>112.8</ele>
        <time>2024-07-17T09:20:00Z</time>
      </trkpt>
      <trkpt lat="49.99837" lon="2.2596">
        <ele>112.8</ele>
        <time>2024-07-17T09:20:01Z</time>
      </trkpt>
      <trkpt lat="49.99836" lon="2.2596">
        <ele>112.8</ele>
        <time>2024-07-17T09:20:02Z</time>
      </trkpt>
      <trkpt lat="49.99836" lon="2.2596">
        <ele>112.7</ele>
        <time>2024-07-17T09:20:03Z</time>
      </trkpt>
      <trkpt lat="49.99835" lon="2.2596">
        <ele>112.7</ele>
        <time>2024-07-17T09:20:04Z</time>
      </trkpt>
      <trkpt lat="49.99834" lon="2.2596">
        <ele>112.7</ele>
        <time>2024-07-17T09:20:05Z</time>
      </trkpt>
      <trkpt lat="49.99833" lon="2.2596">
        <ele>112.6</ele>
        <time>2024-07-17T09:20:06Z</time>
      </trkpt>
      <trkpt lat="49.99833" lon="2.25959">
        <ele>112.6</ele>
        <time>2024-07-17T09:20:07Z</time>
      </trkpt>
      <trkpt lat="49.99832" lon="2.25959">
        <ele>112.5</ele>
        <time>2024-07-17T09:20:08Z</time>
      </trkpt>
      <trkpt lat="49.99831" lon="2.25958">
        <ele>112.5</ele>
        <time>2024-07-17T09:20:09Z</time>
      </trkpt>
      <trkpt lat="49.9983" lon="2.25958">
        <ele>112.5</ele>
        <time>2024-07-17T09:20:10Z</time>
      </trkpt>
      <trkpt lat="49.99829" lon="2.25958">
        <ele>112.4</ele>
        <time>2024-07-17T09:20:11Z</time>
      </trkpt>
      <trkpt lat="49.99828" lon="2.25957">
        <ele>112.4</ele>
        <time>2024-07-17T09:20:12Z</time>
      </trkpt>
      <trkpt lat="49.99827" lon="2.25957">
        <ele>112.3</ele>
        <time>2024-07-17T09:20:13Z</time>
      </trkpt>
      <trkpt lat="49.99826" lon="2.25957">
        <ele>112.3</ele>
        <time>2024-07-17T09:20:14Z</time>
      </trkpt>
      <trkpt lat="49.99825" lon="2.25957">
        <ele>112.2</ele>
        <time>2024-07-17T09:20:15Z</time>
      </trkpt>
      <trkpt lat="49.99823" lon="2.25957">
        <ele>112.2</ele>
        <time>2024-07-17T09:20:16Z</time>
      </trkpt>
      <trkpt lat="49.99822" lon="2.25956">
        <ele>112.2</ele>
        <time>2024-07-17T09:20:17Z</time>
      </trkpt>
      <trkpt lat="49.99821" lon="2.25956">
        <ele>112.1</ele>
        <time>2024-07-17T09:20:18Z</time>
      </trkpt>
      <trkpt lat="49.9982" lon="2.25956">
        <ele>112.1</ele>
        <time>2024-07-17T09:20:19Z</time>
      </trkpt>
      <trkpt lat="49.99819" lon="2.25956">
        <ele>112</ele>
        <time>2024-07-17T09:20:20Z</time>
      </trkpt>
      <trkpt lat="49.99818" lon="2.25956">
        <ele>112</ele>
        <time>2024-07-17T09:20:21Z</time>
      </trkpt>
      <trkpt lat="49.99817" lon="2.25956">
        <ele>111.9</ele>
        <time>2024-07-17T09:20:22Z</time>
      </trkpt>
      <trkpt lat="49.99815" lon="2.25956">
        <ele>111.9</ele>
        <time>2024-07-17T09:20:23Z</time>
      </trkpt>
      <trkpt lat="49.99814" lon="2.25956">
        <ele>111.8</ele>
        <time>2024-07-17T09:20:24Z</time>
      </trkpt>
      <trkpt lat="49.99813" lon="2.25955">
        <ele>111.8</ele>
        <time>2024-07-17T09:20:25Z</time>
      </trkpt>
      <trkpt lat="49.99812" lon="2.25955">
        <ele>111.8</ele>
        <time>2024-07-17T09:20:26Z</time>
      </trkpt>
      <trkpt lat="49.99811" lon="2.25955">
        <ele>111.7</ele>
        <time>2024-07-17T09:20:27Z</time>
      </trkpt>
      <trkpt lat="49.9981" lon="2.25955">
        <ele>111.7</ele>
        <time>2024-07-17T09:20:28Z</time>
      </trkpt>
      <trkpt lat="49.99808" lon="2.25955">
        <ele>111.6</ele>
        <time>2024-07-17T09:20:29Z</time>
      </trkpt>
      <trkpt lat="49.99807" lon="2.25955">
        <ele>111.6</ele>
        <time>2024-07-17T09:20:30Z</time>
      </trkpt>
      <trkpt lat="49.99806" lon="2.25955">
        <ele>111.5</ele>
        <time>2024-07-17T09:20:31Z</time>
      </trkpt>
      <trkpt lat="49.99805" lon="2.25955">
        <ele>111.5</ele>
        <time>2024-07-17T09:20:32Z</time>
      </trkpt>
      <trkpt lat="49.99804" lon="2.25955">
        <ele>111.5</ele>
        <time>2024-07-17T09:20:33Z</time>
      </trkpt>
      <trkpt lat="49.99803" lon="2.25955">
        <ele>111.4</ele>
        <time>2024-07-17T09:20:34Z</time>
      </trkpt>
      <trkpt lat="49.99802" lon="2.25954">
        <ele>111.4</ele>
        <time>2024-07-17T09:20:35Z</time>
      </trkpt>
      <trkpt lat="49.99801" lon="2.25954">
        <ele>111.3</ele>
        <time>2024-07-17T09:20:36Z</time>
      </trkpt>
      <trkpt lat="49.998" lon="2.25953">
        <ele>111.3</ele>
        <time>2024-07-17T09:20:37Z</time>
      </trkpt>
      <trkpt lat="49.99799" lon="2.25953">
        <ele>111.3</ele>
        <time>2024-07-17T09:20:38Z</time>
      </trkpt>
      <trkpt lat="49.99798" lon="2.25953">
        <ele>111.2</ele>
        <time>2024-07-17T09:20:39Z</time>
      </trkpt>
      <trkpt lat="49.99796" lon="2.25952">
        <ele>111.2</ele>
        <time>2024-07-17T09:20:40Z</time>
      </trkpt>
      <trkpt lat="49.99796" lon="2.25952">
        <ele>111.1</ele>
        <time>2024-07-17T09:20:41Z</time>
      </trkpt>
      <trkpt lat="49.99795" lon="2.25951">
        <ele>111.1</ele>
        <time>2024-07-17T09:20:42Z</time>
      </trkpt>
      <trkpt lat="49.99794" lon="2.2595">
        <ele>111.1</ele>
        <time>2024-07-17T09:20:43Z</time>
      </trkpt>
      <trkpt lat="49.99793" lon="2.25949">
        <ele>111</ele>
        <time>2024-07-17T09:20:44Z</time>
      </trkpt>
      <trkpt lat="49.99792" lon="2.25949">
        <ele>111</ele>
        <time>2024-07-17T09:20:45Z</time>
      </trkpt>
      <trkpt lat="49.99791" lon="2.25948">
        <ele>111</ele>
        <time>2024-07-17T09:20:46Z</time>
      </trkpt>
      <trkpt lat="49.9979" lon="2.25947">
        <ele>110.9</ele>
        <time>2024-07-17T09:20:47Z</time>
      </trkpt>
      <trkpt lat="49.99789" lon="2.25947">
        <ele>110.9</ele>
        <time>2024-07-17T09:20:48Z</time>
      </trkpt>
      <trkpt lat="49.99788" lon="2.25946">
        <ele>110.9</ele>
        <time>2024-07-17T09:20:49Z</time>
      </trkpt>
      <trkpt lat="49.99787" lon="2.25945">
        <ele>110.8</ele>
        <time>2024-07-17T09:20:50Z</time>
      </trkpt>
      <trkpt lat="49.99786" lon="2.25945">
        <ele>110.8</ele>
        <time>2024-07-17T09:20:51Z</time>
      </trkpt>
      <trkpt lat="49.99785" lon="2.25944">
        <ele>110.7</ele>
        <time>2024-07-17T09:20:52Z</time>
      </trkpt>
      <trkpt lat="49.99783" lon="2.25943">
        <ele>110.7</ele>
        <time>2024-07-17T09:20:53Z</time>
      </trkpt>
      <trkpt lat="49.99782" lon="2.25942">
        <ele>110.6</ele>
        <time>2024-07-17T09:20:54Z</time>
      </trkpt>
      <trkpt lat="49.99782" lon="2.25942">
        <ele>110.6</ele>
        <time>2024-07-17T09:20:55Z</time>
      </trkpt>
      <trkpt lat="49.9978" lon="2.25941">
        <ele>110.5</ele>
        <time>2024-07-17T09:20:56Z</time>
      </trkpt>
      <trkpt lat="49.99779" lon="2.25941">
        <ele>110.5</ele>
        <time>2024-07-17T09:20:57Z</time>
      </trkpt>
      <trkpt lat="49.99778" lon="2.25941">
        <ele>110.5</ele>
        <time>2024-07-17T09:20:58Z</time>
      </trkpt>
      <trkpt lat="49.99776" lon="2.2594">
        <ele>110.4</ele>
        <time>2024-07-17T09:20:59Z</time>
      </trkpt>
      <trkpt lat="49.99775" lon="2.25939">
        <ele>110.4</ele>
        <time>2024-07-17T09:21:00Z</time>
      </trkpt>
      <trkpt lat="49.99774" lon="2.25938">
        <ele>110.3</ele>
        <time>2024-07-17T09:21:01Z</time>
      </trkpt>
      <trkpt lat="49.99772" lon="2.25938">
        <ele>110.2</ele>
        <time>2024-07-17T09:21:02Z</time>
      </trkpt>
      <trkpt lat="49.99771" lon="2.25937">
        <ele>110.2</ele>
        <time>2024-07-17T09:21:03Z</time>
      </trkpt>
      <trkpt lat="49.99771" lon="2.25937">
        <ele>110.2</ele>
        <time>2024-07-17T09:21:04Z</time>
      </trkpt>
      <trkpt lat="49.99769" lon="2.25936">
        <ele>110.1</ele>
        <time>2024-07-17T09:21:05Z</time>
      </trkpt>
      <trkpt lat="49.99768" lon="2.25936">
        <ele>110.1</ele>
        <time>2024-07-17T09:21:06Z</time>
      </trkpt>
      <trkpt lat="49.99767" lon="2.25936">
        <ele>110</ele>
        <time>2024-07-17T09:21:07Z</time>
      </trkpt>
      <trkpt lat="49.99765" lon="2.25935">
        <ele>110</ele>
        <time>2024-07-17T09:21:08Z</time>
      </trkpt>
      <trkpt lat="49.99764" lon="2.25935">
        <ele>109.9</ele>
        <time>2024-07-17T09:21:09Z</time>
      </trkpt>
      <trkpt lat="49.99763" lon="2.25935">
        <ele>109.9</ele>
        <time>2024-07-17T09:21:10Z</time>
      </trkpt>
      <trkpt lat="49.99762" lon="2.25934">
        <ele>109.8</ele>
        <time>2024-07-17T09:21:11Z</time>
      </trkpt>
      <trkpt lat="49.99761" lon="2.25934">
        <ele>109.8</ele>
        <time>2024-07-17T09:21:12Z</time>
      </trkpt>
      <trkpt lat="49.9976" lon="2.25934">
        <ele>109.8</ele>
        <time>2024-07-17T09:21:13Z</time>
      </trkpt>
      <trkpt lat="49.99759" lon="2.25933">
        <ele>109.7</ele>
        <time>2024-07-17T09:21:14Z</time>
      </trkpt>
      <trkpt lat="49.99758" lon="2.25933">
        <ele>109.7</ele>
        <time>2024-07-17T09:21:15Z</time>
      </trkpt>
      <trkpt lat="49.99757" lon="2.25932">
        <ele>109.6</ele>
        <time>2024-07-17T09:21:16Z</time>
      </trkpt>
      <trkpt lat="49.99756" lon="2.25932">
        <ele>109.6</ele>
        <time>2024-07-17T09:21:17Z</time>
      </trkpt>
      <trkpt lat="49.99754" lon="2.25931">
        <ele>109.5</ele>
        <time>2024-07-17T09:21:18Z</time>
      </trkpt>
      <trkpt lat="49.99753" lon="2.25931">
        <ele>109.5</ele>
        <time>2024-07-17T09:21:19Z</time>
      </trkpt>
      <trkpt lat="49.99752" lon="2.25931">
        <ele>109.5</ele>
        <time>2024-07-17T09:21:20Z</time>
      </trkpt>
      <trkpt lat="49.99751" lon="2.2593">
        <ele>109.4</ele>
        <time>2024-07-17T09:21:21Z</time>
      </trkpt>
      <trkpt lat="49.9975" lon="2.2593">
        <ele>109.4</ele>
        <time>2024-07-17T09:21:22Z</time>
      </trkpt>
      <trkpt lat="49.99749" lon="2.25929">
        <ele>109.4</ele>
        <time>2024-07-17T09:21:23Z</time>
      </trkpt>
      <trkpt lat="49.99748" lon="2.25929">
        <ele>109.3</ele>
        <time>2024-07-17T09:21:24Z</time>
      </trkpt>
      <trkpt lat="49.99747" lon="2.25928">
        <ele>109.3</ele>
        <time>2024-07-17T09:21:25Z</time>
      </trkpt>
      <trkpt lat="49.99746" lon="2.25927">
        <ele>109.3</ele>
        <time>2024-07-17T09:21:26Z</time>
      </trkpt>
      <trkpt lat="49.99745" lon="2.25927">
        <ele>109.2</ele>
        <time>2024-07-17T09:21:27Z</time>
      </trkpt>
      <trkpt lat="49.99745" lon="2.25926">
        <ele>109.2</ele>
        <time>2024-07-17T09:21:28Z</time>
      </trkpt>
      <trkpt lat="49.99744" lon="2.25926">
        <ele>109.2</ele>
        <time>2024-07-17T09:21:29Z</time>
      </trkpt>
      <trkpt lat="49.99743" lon="2.25926">
        <ele>109.1</ele>
        <time>2024-07-17T09:21:30Z</time>
      </trkpt>
      <trkpt lat="49.99742" lon="2.25925">
        <ele>109.1</ele>
        <time>2024-07-17T09:21:31Z</time>
      </trkpt>
      <trkpt lat="49.99741" lon="2.25925">
        <ele>109.1</ele>
        <time>2024-07-17T09:21:32Z</time>
      </trkpt>
      <trkpt lat="49.9974" lon="2.25925">
        <ele>109</ele>
        <time>2024-07-17T09:21:33Z</time>
      </trkpt>
      <trkpt lat="49.99738" lon="2.25925">
        <ele>109</ele>
        <time>2024-07-17T09:21:34Z</time>
      </trkpt>
      <trkpt lat="49.99737" lon="2.25924">
        <ele>108.9</ele>
        <time>2024-07-17T09:21:35Z</time>
      </trkpt>
      <trkpt lat="49.99736" lon="2.25924">
        <ele>108.9</ele>
        <time>2024-07-17T09:21:36Z</time>
      </trkpt>
      <trkpt lat="49.99736" lon="2.25924">
        <ele>108.9</ele>
        <time>2024-07-17T09:21:37Z</time>
      </trkpt>
      <trkpt lat="49.99735" lon="2.25924">
        <ele>108.9</ele>
        <time>2024-07-17T09:21:38Z</time>
      </trkpt>
      <trkpt lat="49.99734" lon="2.25924">
        <ele>108.8</ele>
        <time>2024-07-17T09:21:39Z</time>
      </trkpt>
      <trkpt lat="49.99733" lon="2.25924">
        <ele>108.8</ele>
        <time>2024-07-17T09:21:40Z</time>
      </trkpt>
      <trkpt lat="49.99732" lon="2.25924">
        <ele>108.8</ele>
        <time>2024-07-17T09:21:41Z</time>
      </trkpt>
      <trkpt lat="49.99731" lon="2.25924">
        <ele>108.7</ele>
        <time>2024-07-17T09:21:42Z</time>
      </trkpt>
      <trkpt lat="49.9973" lon="2.25924">
        <ele>108.7</ele>
        <time>2024-07-17T09:21:43Z</time>
      </trkpt>
      <trkpt lat="49.99728" lon="2.25924">
        <ele>108.7</ele>
        <time>2024-07-17T09:21:44Z</time>
      </trkpt>
      <trkpt lat="49.99727" lon="2.25923">
        <ele>108.6</ele>
        <time>2024-07-17T09:21:45Z</time>
      </trkpt>
      <trkpt lat="49.99726" lon="2.25923">
        <ele>108.6</ele>
        <time>2024-07-17T09:21:46Z</time>
      </trkpt>
      <trkpt lat="49.99725" lon="2.25922">
        <ele>108.5</ele>
        <time>2024-07-17T09:21:47Z</time>
      </trkpt>
      <trkpt lat="49.99724" lon="2.25921">
        <ele>108.5</ele>
        <time>2024-07-17T09:21:48Z</time>
      </trkpt>
      <trkpt lat="49.99724" lon="2.2592">
        <ele>108.5</ele>
        <time>2024-07-17T09:21:49Z</time>
      </trkpt>
      <trkpt lat="49.99723" lon="2.25919">
        <ele>108.4</ele>
        <time>2024-07-17T09:21:50Z</time>
      </trkpt>
      <trkpt lat="49.99722" lon="2.25918">
        <ele>108.4</ele>
        <time>2024-07-17T09:21:51Z</time>
      </trkpt>
      <trkpt lat="49.99721" lon="2.25918">
        <ele>108.4</ele>
        <time>2024-07-17T09:21:52Z</time>
      </trkpt>
      <trkpt lat="49.9972" lon="2.25917">
        <ele>108.3</ele>
        <time>2024-07-17T09:21:53Z</time>
      </trkpt>
      <trkpt lat="49.99719" lon="2.25917">
        <ele>108.3</ele>
        <time>2024-07-17T09:21:54Z</time>
      </trkpt>
      <trkpt lat="49.99718" lon="2.25916">
        <ele>108.3</ele>
        <time>2024-07-17T09:21:55Z</time>
      </trkpt>
      <trkpt lat="49.99718" lon="2.25915">
        <ele>108.3</ele>
        <time>2024-07-17T09:21:56Z</time>
      </trkpt>
      <trkpt lat="49.99717" lon="2.25915">
        <ele>108.2</ele>
        <time>2024-07-17T09:21:57Z</time>
      </trkpt>
      <trkpt lat="49.99716" lon="2.25914">
        <ele>108.2</ele>
        <time>2024-07-17T09:21:58Z</time>
      </trkpt>
      <trkpt lat="49.99715" lon="2.25914">
        <ele>108.2</ele>
        <time>2024-07-17T09:21:59Z</time>
      </trkpt>
      <trkpt lat="49.99714" lon="2.25913">
        <ele>108.1</ele>
        <time>2024-07-17T09:22:00Z</time>
      </trkpt>
      <trkpt lat="49.99714" lon="2.25913">
        <ele>108.1</ele>
        <time>2024-07-17T09:22:01Z</time>
      </trkpt>
      <trkpt lat="49.99713" lon="2.25912">
        <ele>108.1</ele>
        <time>2024-07-17T09:22:02Z</time>
      </trkpt>
      <trkpt lat="49.99713" lon="2.25911">
        <ele>108.1</ele>
        <time>2024-07-17T09:22:03Z</time>
      </trkpt>
      <trkpt lat="49.99712" lon="2.25911">
        <ele>108</ele>
        <time>2024-07-17T09:22:04Z</time>
      </trkpt>
      <trkpt lat="49.99711" lon="2.2591">
        <ele>108</ele>
        <time>2024-07-17T09:22:05Z</time>
      </trkpt>
      <trkpt lat="49.9971" lon="2.25909">
        <ele>108</ele>
        <time>2024-07-17T09:22:06Z</time>
      </trkpt>
      <trkpt lat="49.9971" lon="2.25909">
        <ele>107.9</ele>
        <time>2024-07-17T09:22:07Z</time>
      </trkpt>
      <trkpt lat="49.99709" lon="2.25909">
        <ele>107.9</ele>
        <time>2024-07-17T09:22:08Z</time>
      </trkpt>
      <trkpt lat="49.99708" lon="2.25908">
        <ele>107.9</ele>
        <time>2024-07-17T09:22:09Z</time>
      </trkpt>
      <trkpt lat="49.99707" lon="2.25908">
        <ele>107.9</ele>
        <time>2024-07-17T09:22:10Z</time>
      </trkpt>
      <trkpt lat="49.99706" lon="2.25907">
        <ele>107.8</ele>
        <time>2024-07-17T09:22:11Z</time>
      </trkpt>
      <trkpt lat="49.99705" lon="2.25907">
        <ele>107.8</ele>
        <time>2024-07-17T09:22:12Z</time>
      </trkpt>
      <trkpt lat="49.99704" lon="2.25906">
        <ele>107.8</ele>
        <time>2024-07-17T09:22:13Z</time>
      </trkpt>
      <trkpt lat="49.99703" lon="2.25906">
        <ele>107.7</ele>
        <time>2024-07-17T09:22:14Z</time>
      </trkpt>
      <trkpt lat="49.99702" lon="2.25905">
        <ele>107.7</ele>
        <time>2024-07-17T09:22:15Z</time>
      </trkpt>
      <trkpt lat="49.99702" lon="2.25905">
        <ele>107.7</ele>
        <time>2024-07-17T09:22:16Z</time>
      </trkpt>
      <trkpt lat="49.99701" lon="2.25905">
        <ele>107.6</ele>
        <time>2024-07-17T09:22:17Z</time>
      </trkpt>
      <trkpt lat="49.997" lon="2.25904">
        <ele>107.6</ele>
        <time>2024-07-17T09:22:18Z</time>
      </trkpt>
      <trkpt lat="49.99699" lon="2.25904">
        <ele>107.5</ele>
        <time>2024-07-17T09:22:19Z</time>
      </trkpt>
      <trkpt lat="49.99698" lon="2.25904">
        <ele>107.5</ele>
        <time>2024-07-17T09:22:20Z</time>
      </trkpt>
      <trkpt lat="49.99697" lon="2.25903">
        <ele>107.5</ele>
        <time>2024-07-17T09:22:21Z</time>
      </trkpt>
      <trkpt lat="49.99696" lon="2.25902">
        <ele>107.4</ele>
        <time>2024-07-17T09:22:22Z</time>
      </trkpt>
      <trkpt lat="49.99695" lon="2.25902">
        <ele>107.4</ele>
        <time>2024-07-17T09:22:23Z</time>
      </trkpt>
      <trkpt lat="49.99694" lon="2.25901">
        <ele>107.3</ele>
        <time>2024-07-17T09:22:24Z</time>
      </trkpt>
      <trkpt lat="49.99693" lon="2.25901">
        <ele>107.3</ele>
        <time>2024-07-17T09:22:25Z</time>
      </trkpt>
      <trkpt lat="49.99692" lon="2.25901">
        <ele>107.3</ele>
        <time>2024-07-17T09:22:26Z</time>
      </trkpt>
      <trkpt lat="49.99691" lon="2.259">
        <ele>107.2</ele>
        <time>2024-07-17T09:22:27Z</time>
      </trkpt>
      <trkpt lat="49.99689" lon="2.259">
        <ele>107.2</ele>
        <time>2024-07-17T09:22:28Z</time>
      </trkpt>
      <trkpt lat="49.99688" lon="2.25899">
        <ele>107.1</ele>
        <time>2024-07-17T09:22:29Z</time>
      </trkpt>
      <trkpt lat="49.99687" lon="2.25899">
        <ele>107.1</ele>
        <time>2024-07-17T09:22:30Z</time>
      </trkpt>
      <trkpt lat="49.99686" lon="2.25898">
        <ele>107</ele>
        <time>2024-07-17T09:22:31Z</time>
      </trkpt>
      <trkpt lat="49.99685" lon="2.25898">
        <ele>107</ele>
        <time>2024-07-17T09:22:32Z</time>
      </trkpt>
      <trkpt lat="49.99684" lon="2.25899">
        <ele>107</ele>
        <time>2024-07-17T09:22:33Z</time>
      </trkpt>
      <trkpt lat="49.99684" lon="2.25899">
        <ele>106.9</ele>
        <time>2024-07-17T09:22:34Z</time>
      </trkpt>
      <trkpt lat="49.99683" lon="2.25899">
        <ele>106.9</ele>
        <time>2024-07-17T09:22:35Z</time>
      </trkpt>
      <trkpt lat="49.99682" lon="2.25899">
        <ele>106.9</ele>
        <time>2024-07-17T09:22:36Z</time>
      </trkpt>
      <trkpt lat="49.99681" lon="2.25898">
        <ele>106.8</ele>
        <time>2024-07-17T09:22:37Z</time>
      </trkpt>
      <trkpt lat="49.9968" lon="2.25898">
        <ele>106.8</ele>
        <time>2024-07-17T09:22:38Z</time>
      </trkpt>
      <trkpt lat="49.99679" lon="2.25897">
        <ele>106.8</ele>
        <time>2024-07-17T09:22:39Z</time>
      </trkpt>
      <trkpt lat="49.99679" lon="2.25897">
        <ele>106.7</ele>
        <time>2024-07-17T09:22:40Z</time>
      </trkpt>
      <trkpt lat="49.99678" lon="2.25897">
        <ele>106.7</ele>
        <time>2024-07-17T09:22:41Z</time>
      </trkpt>
      <trkpt lat="49.99677" lon="2.25896">
        <ele>106.7</ele>
        <time>2024-07-17T09:22:42Z</time>
      </trkpt>
      <trkpt lat="49.99676" lon="2.25895">
        <ele>106.6</ele>
        <time>2024-07-17T09:22:43Z</time>
      </trkpt>
      <trkpt lat="49.99675" lon="2.25894">
        <ele>106.6</ele>
        <time>2024-07-17T09:22:44Z</time>
      </trkpt>
      <trkpt lat="49.99674" lon="2.25893">
        <ele>106.5</ele>
        <time>2024-07-17T09:22:45Z</time>
      </trkpt>
      <trkpt lat="49.99674" lon="2.25893">
        <ele>106.5</ele>
        <time>2024-07-17T09:22:46Z</time>
      </trkpt>
      <trkpt lat="49.99673" lon="2.25892">
        <ele>106.5</ele>
        <time>2024-07-17T09:22:47Z</time>
      </trkpt>
      <trkpt lat="49.99672" lon="2.25891">
        <ele>106.4</ele>
        <time>2024-07-17T09:22:48Z</time>
      </trkpt>
      <trkpt lat="49.99671" lon="2.2589">
        <ele>106.4</ele>
        <time>2024-07-17T09:22:49Z</time>
      </trkpt>
      <trkpt lat="49.99671" lon="2.25889">
        <ele>106.4</ele>
        <time>2024-07-17T09:22:50Z</time>
      </trkpt>
      <trkpt lat="49.9967" lon="2.25888">
        <ele>106.3</ele>
        <time>2024-07-17T09:22:51Z</time>
      </trkpt>
      <trkpt lat="49.99669" lon="2.25887">
        <ele>106.3</ele>
        <time>2024-07-17T09:22:52Z</time>
      </trkpt>
      <trkpt lat="49.99669" lon="2.25886">
        <ele>106.3</ele>
        <time>2024-07-17T09:22:53Z</time>
      </trkpt>
      <trkpt lat="49.99668" lon="2.25885">
        <ele>106.2</ele>
        <time>2024-07-17T09:22:54Z</time>
      </trkpt>
      <trkpt lat="49.99668" lon="2.25884">
        <ele>106.2</ele>
        <time>2024-07-17T09:22:55Z</time>
      </trkpt>
      <trkpt lat="49.99667" lon="2.25883">
        <ele>106.2</ele>
        <time>2024-07-17T09:22:56Z</time>
      </trkpt>
      <trkpt lat="49.99667" lon="2.25882">
        <ele>106.1</ele>
        <time>2024-07-17T09:22:57Z</time>
      </trkpt>
      <trkpt lat="49.99666" lon="2.25881">
        <ele>106.1</ele>
        <time>2024-07-17T09:22:58Z</time>
      </trkpt>
      <trkpt lat="49.99666" lon="2.2588">
        <ele>106</ele>
        <time>2024-07-17T09:22:59Z</time>
      </trkpt>
      <trkpt lat="49.99665" lon="2.25879">
        <ele>106</ele>
        <time>2024-07-17T09:23:00Z</time>
      </trkpt>
      <trkpt lat="49.99664" lon="2.25878">
        <ele>106</ele>
        <time>2024-07-17T09:23:01Z</time>
      </trkpt>
      <trkpt lat="49.99664" lon="2.25878">
        <ele>105.9</ele>
        <time>2024-07-17T09:23:02Z</time>
      </trkpt>
      <trkpt lat="49.99663" lon="2.25877">
        <ele>105.9</ele>
        <time>2024-07-17T09:23:03Z</time>
      </trkpt>
      <trkpt lat="49.99662" lon="2.25877">
        <ele>105.8</ele>
        <time>2024-07-17T09:23:04Z</time>
      </trkpt>
      <trkpt lat="49.99661" lon="2.25877">
        <ele>105.8</ele>
        <time>2024-07-17T09:23:05Z</time>
      </trkpt>
      <trkpt lat="49.99661" lon="2.25876">
        <ele>105.8</ele>
        <time>2024-07-17T09:23:06Z</time>
      </trkpt>
      <trkpt lat="49.9966" lon="2.25876">
        <ele>105.7</ele>
        <time>2024-07-17T09:23:07Z</time>
      </trkpt>
      <trkpt lat="49.99659" lon="2.25875">
        <ele>105.7</ele>
        <time>2024-07-17T09:23:08Z</time>
      </trkpt>
      <trkpt lat="49.99658" lon="2.25875">
        <ele>105.7</ele>
        <time>2024-07-17T09:23:09Z</time>
      </trkpt>
      <trkpt lat="49.99657" lon="2.25875">
        <ele>105.6</ele>
        <time>2024-07-17T09:23:10Z</time>
      </trkpt>
      <trkpt lat="49.99656" lon="2.25876">
        <ele>105.6</ele>
        <time>2024-07-17T09:23:11Z</time>
      </trkpt>
      <trkpt lat="49.99655" lon="2.25876">
        <ele>105.5</ele>
        <time>2024-07-17T09:23:12Z</time>
      </trkpt>
      <trkpt lat="49.99654" lon="2.25876">
        <ele>105.5</ele>
        <time>2024-07-17T09:23:13Z</time>
      </trkpt>
      <trkpt lat="49.99653" lon="2.25876">
        <ele>105.4</ele>
        <time>2024-07-17T09:23:14Z</time>
      </trkpt>
      <trkpt lat="49.99652" lon="2.25876">
        <ele>105.4</ele>
        <time>2024-07-17T09:23:15Z</time>
      </trkpt>
      <trkpt lat="49.99651" lon="2.25875">
        <ele>105.4</ele>
        <time>2024-07-17T09:23:16Z</time>
      </trkpt>
      <trkpt lat="49.9965" lon="2.25875">
        <ele>105.3</ele>
        <time>2024-07-17T09:23:17Z</time>
      </trkpt>
      <trkpt lat="49.99649" lon="2.25875">
        <ele>105.3</ele>
        <time>2024-07-17T09:23:18Z</time>
      </trkpt>
      <trkpt lat="49.99648" lon="2.25875">
        <ele>105.2</ele>
        <time>2024-07-17T09:23:19Z</time>
      </trkpt>
      <trkpt lat="49.99647" lon="2.25875">
        <ele>105.2</ele>
        <time>2024-07-17T09:23:20Z</time>
      </trkpt>
      <trkpt lat="49.99646" lon="2.25875">
        <ele>105.1</ele>
        <time>2024-07-17T09:23:21Z</time>
      </trkpt>
      <trkpt lat="49.99645" lon="2.25875">
        <ele>105.1</ele>
        <time>2024-07-17T09:23:22Z</time>
      </trkpt>
      <trkpt lat="49.99644" lon="2.25875">
        <ele>105</ele>
        <time>2024-07-17T09:23:23Z</time>
      </trkpt>
      <trkpt lat="49.99643" lon="2.25875">
        <ele>105</ele>
        <time>2024-07-17T09:23:24Z</time>
      </trkpt>
      <trkpt lat="49.99642" lon="2.25875">
        <ele>104.9</ele>
        <time>2024-07-17T09:23:25Z</time>
      </trkpt>
      <trkpt lat="49.99641" lon="2.25875">
        <ele>104.9</ele>
        <time>2024-07-17T09:23:26Z</time>
      </trkpt>
      <trkpt lat="49.9964" lon="2.25874">
        <ele>104.8</ele>
        <time>2024-07-17T09:23:27Z</time>
      </trkpt>
      <trkpt lat="49.99639" lon="2.25874">
        <ele>104.8</ele>
        <time>2024-07-17T09:23:28Z</time>
      </trkpt>
      <trkpt lat="49.99638" lon="2.25874">
        <ele>104.7</ele>
        <time>2024-07-17T09:23:29Z</time>
      </trkpt>
      <trkpt lat="49.99637" lon="2.25874">
        <ele>104.7</ele>
        <time>2024-07-17T09:23:30Z</time>
      </trkpt>
      <trkpt lat="49.99636" lon="2.25873">
        <ele>104.7</ele>
        <time>2024-07-17T09:23:31Z</time>
      </trkpt>
      <trkpt lat="49.99635" lon="2.25873">
        <ele>104.6</ele>
        <time>2024-07-17T09:23:32Z</time>
      </trkpt>
      <trkpt lat="49.99634" lon="2.25873">
        <ele>104.6</ele>
        <time>2024-07-17T09:23:33Z</time>
      </trkpt>
      <trkpt lat="49.99632" lon="2.25873">
        <ele>104.5</ele>
        <time>2024-07-17T09:23:34Z</time>
      </trkpt>
      <trkpt lat="49.99631" lon="2.25873">
        <ele>104.4</ele>
        <time>2024-07-17T09:23:35Z</time>
      </trkpt>
      <trkpt lat="49.9963" lon="2.25873">
        <ele>104.4</ele>
        <time>2024-07-17T09:23:36Z</time>
      </trkpt>
      <trkpt lat="49.99629" lon="2.25872">
        <ele>104.3</ele>
        <time>2024-07-17T09:23:37Z</time>
      </trkpt>
      <trkpt lat="49.99628" lon="2.25872">
        <ele>104.3</ele>
        <time>2024-07-17T09:23:38Z</time>
      </trkpt>
      <trkpt lat="49.99627" lon="2.25872">
        <ele>104.2</ele>
        <time>2024-07-17T09:23:39Z</time>
      </trkpt>
      <trkpt lat="49.99626" lon="2.25872">
        <ele>104.2</ele>
        <time>2024-07-17T09:23:40Z</time>
      </trkpt>
      <trkpt lat="49.99625" lon="2.25871">
        <ele>104.2</ele>
        <time>2024-07-17T09:23:41Z</time>
      </trkpt>
      <trkpt lat="49.99624" lon="2.25871">
        <ele>104.1</ele>
        <time>2024-07-17T09:23:42Z</time>
      </trkpt>
      <trkpt lat="49.99623" lon="2.25871">
        <ele>104.1</ele>
        <time>2024-07-17T09:23:43Z</time>
      </trkpt>
      <trkpt lat="49.99622" lon="2.25871">
        <ele>104</ele>
        <time>2024-07-17T09:23:44Z</time>
      </trkpt>
      <trkpt lat="49.99621" lon="2.25871">
        <ele>104</ele>
        <time>2024-07-17T09:23:45Z</time>
      </trkpt>
      <trkpt lat="49.9962" lon="2.25871">
        <ele>103.9</ele>
        <time>2024-07-17T09:23:46Z</time>
      </trkpt>
      <trkpt lat="49.99619" lon="2.25871">
        <ele>103.9</ele>
        <time>2024-07-17T09:23:47Z</time>
      </trkpt>
      <trkpt lat="49.99618" lon="2.2587">
        <ele>103.8</ele>
        <time>2024-07-17T09:23:48Z</time>
      </trkpt>
      <trkpt lat="49.99617" lon="2.2587">
        <ele>103.8</ele>
        <time>2024-07-17T09:23:49Z</time>
      </trkpt>
      <trkpt lat="49.99616" lon="2.2587">
        <ele>103.7</ele>
        <time>2024-07-17T09:23:50Z</time>
      </trkpt>
      <trkpt lat="49.99615" lon="2.25869">
        <ele>103.7</ele>
        <time>2024-07-17T09:23:51Z</time>
      </trkpt>
      <trkpt lat="49.99614" lon="2.25869">
        <ele>103.6</ele>
        <time>2024-07-17T09:23:52Z</time>
      </trkpt>
      <trkpt lat="49.99613" lon="2.25868">
        <ele>103.6</ele>
        <time>2024-07-17T09:23:53Z</time>
      </trkpt>
      <trkpt lat="49.99612" lon="2.25868">
        <ele>103.5</ele>
        <time>2024-07-17T09:23:54Z</time>
      </trkpt>
      <trkpt lat="49.99611" lon="2.25868">
        <ele>103.5</ele>
        <time>2024-07-17T09:23:55Z</time>
      </trkpt>
      <trkpt lat="49.9961" lon="2.25868">
        <ele>103.5</ele>
        <time>2024-07-17T09:23:56Z</time>
      </trkpt>
      <trkpt lat="49.99609" lon="2.25868">
        <ele>103.4</ele>
        <time>2024-07-17T09:23:57Z</time>
      </trkpt>
      <trkpt lat="49.99608" lon="2.25868">
        <ele>103.4</ele>
        <time>2024-07-17T09:23:58Z</time>
      </trkpt>
      <trkpt lat="49.99607" lon="2.25867">
        <ele>103.3</ele>
        <time>2024-07-17T09:23:59Z</time>
      </trkpt>
      <trkpt lat="49.99606" lon="2.25867">
        <ele>103.3</ele>
        <time>2024-07-17T09:24:00Z</time>
      </trkpt>
      <trkpt lat="49.99605" lon="2.25867">
        <ele>103.2</ele>
        <time>2024-07-17T09:24:01Z</time>
      </trkpt>
      <trkpt lat="49.99604" lon="2.25867">
        <ele>103.2</ele>
        <time>2024-07-17T09:24:02Z</time>
      </trkpt>
      <trkpt lat="49.99603" lon="2.25866">
        <ele>103.2</ele>
        <time>2024-07-17T09:24:03Z</time>
      </trkpt>
      <trkpt lat="49.99602" lon="2.25866">
        <ele>103.1</ele>
        <time>2024-07-17T09:24:04Z</time>
      </trkpt>
      <trkpt lat="49.99601" lon="2.25866">
        <ele>103.1</ele>
        <time>2024-07-17T09:24:05Z</time>
      </trkpt>
      <trkpt lat="49.99601" lon="2.25865">
        <ele>103</ele>
        <time>2024-07-17T09:24:06Z</time>
      </trkpt>
      <trkpt lat="49.996" lon="2.25865">
        <ele>103</ele>
        <time>2024-07-17T09:24:07Z</time>
      </trkpt>
      <trkpt lat="49.99599" lon="2.25864">
        <ele>103</ele>
        <time>2024-07-17T09:24:08Z</time>
      </trkpt>
      <trkpt lat="49.99598" lon="2.25864">
        <ele>102.9</ele>
        <time>2024-07-17T09:24:09Z</time>
      </trkpt>
      <trkpt lat="49.99597" lon="2.25864">
        <ele>102.9</ele>
        <time>2024-07-17T09:24:10Z</time>
      </trkpt>
      <trkpt lat="49.99596" lon="2.25863">
        <ele>102.8</ele>
        <time>2024-07-17T09:24:11Z</time>
      </trkpt>
      <trkpt lat="49.99595" lon="2.25863">
        <ele>102.8</ele>
        <time>2024-07-17T09:24:12Z</time>
      </trkpt>
      <trkpt lat="49.99594" lon="2.25863">
        <ele>102.7</ele>
        <time>2024-07-17T09:24:13Z</time>
      </trkpt>
      <trkpt lat="49.99593" lon="2.25862">
        <ele>102.7</ele>
        <time>2024-07-17T09:24:14Z</time>
      </trkpt>
      <trkpt lat="49.99592" lon="2.25862">
        <ele>102.7</ele>
        <time>2024-07-17T09:24:15Z</time>
      </trkpt>
      <trkpt lat="49.99591" lon="2.25862">
        <ele>102.6</ele>
        <time>2024-07-17T09:24:16Z</time>
      </trkpt>
      <trkpt lat="49.9959" lon="2.25861">
        <ele>102.6</ele>
        <time>2024-07-17T09:24:17Z</time>
      </trkpt>
      <trkpt lat="49.99589" lon="2.25861">
        <ele>102.5</ele>
        <time>2024-07-17T09:24:18Z</time>
      </trkpt>
      <trkpt lat="49.99588" lon="2.2586">
        <ele>102.5</ele>
        <time>2024-07-17T09:24:19Z</time>
      </trkpt>
      <trkpt lat="49.99587" lon="2.2586">
        <ele>102.4</ele>
        <time>2024-07-17T09:24:20Z</time>
      </trkpt>
      <trkpt lat="49.99586" lon="2.2586">
        <ele>102.4</ele>
        <time>2024-07-17T09:24:21Z</time>
      </trkpt>
      <trkpt lat="49.99585" lon="2.2586">
        <ele>102.4</ele>
        <time>2024-07-17T09:24:22Z</time>
      </trkpt>
      <trkpt lat="49.99584" lon="2.2586">
        <ele>102.3</ele>
        <time>2024-07-17T09:24:23Z</time>
      </trkpt>
      <trkpt lat="49.99583" lon="2.25859">
        <ele>102.3</ele>
        <time>2024-07-17T09:24:24Z</time>
      </trkpt>
      <trkpt lat="49.99582" lon="2.25859">
        <ele>102.2</ele>
        <time>2024-07-17T09:24:25Z</time>
      </trkpt>
      <trkpt lat="49.99581" lon="2.25859">
        <ele>102.2</ele>
        <time>2024-07-17T09:24:26Z</time>
      </trkpt>
      <trkpt lat="49.9958" lon="2.25858">
        <ele>102.1</ele>
        <time>2024-07-17T09:24:27Z</time>
      </trkpt>
      <trkpt lat="49.99579" lon="2.25858">
        <ele>102.1</ele>
        <time>2024-07-17T09:24:28Z</time>
      </trkpt>
      <trkpt lat="49.99578" lon="2.25858">
        <ele>102.1</ele>
        <time>2024-07-17T09:24:29Z</time>
      </trkpt>
      <trkpt lat="49.99577" lon="2.25858">
        <ele>102</ele>
        <time>2024-07-17T09:24:30Z</time>
      </trkpt>
      <trkpt lat="49.99576" lon="2.25858">
        <ele>102</ele>
        <time>2024-07-17T09:24:31Z</time>
      </trkpt>
      <trkpt lat="49.99575" lon="2.25857">
        <ele>101.9</ele>
        <time>2024-07-17T09:24:32Z</time>
      </trkpt>
      <trkpt lat="49.99574" lon="2.25857">
        <ele>101.9</ele>
        <time>2024-07-17T09:24:33Z</time>
      </trkpt>
      <trkpt lat="49.99573" lon="2.25857">
        <ele>101.8</ele>
        <time>2024-07-17T09:24:34Z</time>
      </trkpt>
      <trkpt lat="49.99572" lon="2.25856">
        <ele>101.8</ele>
        <time>2024-07-17T09:24:35Z</time>
      </trkpt>
      <trkpt lat="49.99571" lon="2.25856">
        <ele>101.7</ele>
        <time>2024-07-17T09:24:36Z</time>
      </trkpt>
      <trkpt lat="49.9957" lon="2.25856">
        <ele>101.7</ele>
        <time>2024-07-17T09:24:37Z</time>
      </trkpt>
      <trkpt lat="49.99569" lon="2.25855">
        <ele>101.7</ele>
        <time>2024-07-17T09:24:38Z</time>
      </trkpt>
      <trkpt lat="49.99568" lon="2.25855">
        <ele>101.6</ele>
        <time>2024-07-17T09:24:39Z</time>
      </trkpt>
      <trkpt lat="49.99568" lon="2.25855">
        <ele>101.6</ele>
        <time>2024-07-17T09:24:40Z</time>
      </trkpt>
      <trkpt lat="49.99567" lon="2.25854">
        <ele>101.6</ele>
        <time>2024-07-17T09:24:41Z</time>
      </trkpt>
      <trkpt lat="49.99565" lon="2.25854">
        <ele>101.5</ele>
        <time>2024-07-17T09:24:42Z</time>
      </trkpt>
      <trkpt lat="49.99565" lon="2.25853">
        <ele>101.5</ele>
        <time>2024-07-17T09:24:43Z</time>
      </trkpt>
      <trkpt lat="49.99564" lon="2.25853">
        <ele>101.4</ele>
        <time>2024-07-17T09:24:44Z</time>
      </trkpt>
      <trkpt lat="49.99563" lon="2.25853">
        <ele>101.4</ele>
        <time>2024-07-17T09:24:45Z</time>
      </trkpt>
      <trkpt lat="49.99563" lon="2.25852">
        <ele>101.4</ele>
        <time>2024-07-17T09:24:46Z</time>
      </trkpt>
      <trkpt lat="49.99562" lon="2.25852">
        <ele>101.3</ele>
        <time>2024-07-17T09:24:47Z</time>
      </trkpt>
      <trkpt lat="49.99561" lon="2.25852">
        <ele>101.3</ele>
        <time>2024-07-17T09:24:48Z</time>
      </trkpt>
      <trkpt lat="49.9956" lon="2.25851">
        <ele>101.3</ele>
        <time>2024-07-17T09:24:49Z</time>
      </trkpt>
      <trkpt lat="49.99559" lon="2.25851">
        <ele>101.2</ele>
        <time>2024-07-17T09:24:50Z</time>
      </trkpt>
      <trkpt lat="49.99558" lon="2.2585">
        <ele>101.2</ele>
        <time>2024-07-17T09:24:51Z</time>
      </trkpt>
      <trkpt lat="49.99558" lon="2.25849">
        <ele>101.2</ele>
        <time>2024-07-17T09:24:52Z</time>
      </trkpt>
      <trkpt lat="49.99557" lon="2.25849">
        <ele>101.1</ele>
        <time>2024-07-17T09:24:53Z</time>
      </trkpt>
      <trkpt lat="49.99556" lon="2.25848">
        <ele>101.1</ele>
        <time>2024-07-17T09:24:54Z</time>
      </trkpt>
      <trkpt lat="49.99555" lon="2.25848">
        <ele>101</ele>
        <time>2024-07-17T09:24:55Z</time>
      </trkpt>
      <trkpt lat="49.99554" lon="2.25848">
        <ele>101</ele>
        <time>2024-07-17T09:24:56Z</time>
      </trkpt>
      <trkpt lat="49.99553" lon="2.25847">
        <ele>100.9</ele>
        <time>2024-07-17T09:24:57Z</time>
      </trkpt>
      <trkpt lat="49.99552" lon="2.25847">
        <ele>100.9</ele>
        <time>2024-07-17T09:24:58Z</time>
      </trkpt>
      <trkpt lat="49.99551" lon="2.25847">
        <ele>100.9</ele>
        <time>2024-07-17T09:24:59Z</time>
      </trkpt>
      <trkpt lat="49.9955" lon="2.25846">
        <ele>100.8</ele>
        <time>2024-07-17T09:25:00Z</time>
      </trkpt>
      <trkpt lat="49.99548" lon="2.25846">
        <ele>100.8</ele>
        <time>2024-07-17T09:25:01Z</time>
      </trkpt>
      <trkpt lat="49.99547" lon="2.25846">
        <ele>100.7</ele>
        <time>2024-07-17T09:25:02Z</time>
      </trkpt>
      <trkpt lat="49.99546" lon="2.25846">
        <ele>100.7</ele>
        <time>2024-07-17T09:25:03Z</time>
      </trkpt>
      <trkpt lat="49.99545" lon="2.25846">
        <ele>100.7</ele>
        <time>2024-07-17T09:25:04Z</time>
      </trkpt>
      <trkpt lat="49.99544" lon="2.25845">
        <ele>100.6</ele>
        <time>2024-07-17T09:25:05Z</time>
      </trkpt>
      <trkpt lat="49.99543" lon="2.25845">
        <ele>100.6</ele>
        <time>2024-07-17T09:25:06Z</time>
      </trkpt>
      <trkpt lat="49.99542" lon="2.25845">
        <ele>100.5</ele>
        <time>2024-07-17T09:25:07Z</time>
      </trkpt>
      <trkpt lat="49.99541" lon="2.25845">
        <ele>100.5</ele>
        <time>2024-07-17T09:25:08Z</time>
      </trkpt>
      <trkpt lat="49.9954" lon="2.25844">
        <ele>100.4</ele>
        <time>2024-07-17T09:25:09Z</time>
      </trkpt>
      <trkpt lat="49.99539" lon="2.25844">
        <ele>100.4</ele>
        <time>2024-07-17T09:25:10Z</time>
      </trkpt>
      <trkpt lat="49.99538" lon="2.25844">
        <ele>100.4</ele>
        <time>2024-07-17T09:25:11Z</time>
      </trkpt>
      <trkpt lat="49.99537" lon="2.25843">
        <ele>100.3</ele>
        <time>2024-07-17T09:25:12Z</time>
      </trkpt>
      <trkpt lat="49.99536" lon="2.25843">
        <ele>100.3</ele>
        <time>2024-07-17T09:25:13Z</time>
      </trkpt>
      <trkpt lat="49.99535" lon="2.25842">
        <ele>100.2</ele>
        <time>2024-07-17T09:25:14Z</time>
      </trkpt>
      <trkpt lat="49.99534" lon="2.25842">
        <ele>100.2</ele>
        <time>2024-07-17T09:25:15Z</time>
      </trkpt>
      <trkpt lat="49.99533" lon="2.25842">
        <ele>100.1</ele>
        <time>2024-07-17T09:25:16Z</time>
      </trkpt>
      <trkpt lat="49.99531" lon="2.25841">
        <ele>100.1</ele>
        <time>2024-07-17T09:25:17Z</time>
      </trkpt>
      <trkpt lat="49.9953" lon="2.2584">
        <ele>100</ele>
        <time>2024-07-17T09:25:18Z</time>
      </trkpt>
      <trkpt lat="49.9953" lon="2.25839">
        <ele>100</ele>
        <time>2024-07-17T09:25:19Z</time>
      </trkpt>
      <trkpt lat="49.99529" lon="2.25838">
        <ele>100</ele>
        <time>2024-07-17T09:25:20Z</time>
      </trkpt>
      <trkpt lat="49.99528" lon="2.25837">
        <ele>99.9</ele>
        <time>2024-07-17T09:25:21Z</time>
      </trkpt>
      <trkpt lat="49.99527" lon="2.25837">
        <ele>99.9</ele>
        <time>2024-07-17T09:25:22Z</time>
      </trkpt>
      <trkpt lat="49.99526" lon="2.25836">
        <ele>99.9</ele>
        <time>2024-07-17T09:25:23Z</time>
      </trkpt>
      <trkpt lat="49.99525" lon="2.25836">
        <ele>99.8</ele>
        <time>2024-07-17T09:25:24Z</time>
      </trkpt>
      <trkpt lat="49.99524" lon="2.25835">
        <ele>99.8</ele>
        <time>2024-07-17T09:25:25Z</time>
      </trkpt>
      <trkpt lat="49.99523" lon="2.25834">
        <ele>99.7</ele>
        <time>2024-07-17T09:25:26Z</time>
      </trkpt>
      <trkpt lat="49.99522" lon="2.25834">
        <ele>99.7</ele>
        <time>2024-07-17T09:25:27Z</time>
      </trkpt>
      <trkpt lat="49.99521" lon="2.25834">
        <ele>99.7</ele>
        <time>2024-07-17T09:25:28Z</time>
      </trkpt>
      <trkpt lat="49.99521" lon="2.25833">
        <ele>99.6</ele>
        <time>2024-07-17T09:25:29Z</time>
      </trkpt>
      <trkpt lat="49.9952" lon="2.25833">
        <ele>99.6</ele>
        <time>2024-07-17T09:25:30Z</time>
      </trkpt>
      <trkpt lat="49.99519" lon="2.25832">
        <ele>99.6</ele>
        <time>2024-07-17T09:25:31Z</time>
      </trkpt>
      <trkpt lat="49.99518" lon="2.25831">
        <ele>99.5</ele>
        <time>2024-07-17T09:25:32Z</time>
      </trkpt>
      <trkpt lat="49.99517" lon="2.25831">
        <ele>99.5</ele>
        <time>2024-07-17T09:25:33Z</time>
      </trkpt>
      <trkpt lat="49.99516" lon="2.2583">
        <ele>99.4</ele>
        <time>2024-07-17T09:25:34Z</time>
      </trkpt>
      <trkpt lat="49.99515" lon="2.2583">
        <ele>99.4</ele>
        <time>2024-07-17T09:25:35Z</time>
      </trkpt>
      <trkpt lat="49.99514" lon="2.25829">
        <ele>99.4</ele>
        <time>2024-07-17T09:25:36Z</time>
      </trkpt>
      <trkpt lat="49.99513" lon="2.25829">
        <ele>99.3</ele>
        <time>2024-07-17T09:25:37Z</time>
      </trkpt>
      <trkpt lat="49.99512" lon="2.25829">
        <ele>99.3</ele>
        <time>2024-07-17T09:25:38Z</time>
      </trkpt>
      <trkpt lat="49.99511" lon="2.25828">
        <ele>99.2</ele>
        <time>2024-07-17T09:25:39Z</time>
      </trkpt>
      <trkpt lat="49.9951" lon="2.25828">
        <ele>99.2</ele>
        <time>2024-07-17T09:25:40Z</time>
      </trkpt>
      <trkpt lat="49.99509" lon="2.25828">
        <ele>99.2</ele>
        <time>2024-07-17T09:25:41Z</time>
      </trkpt>
      <trkpt lat="49.99508" lon="2.25828">
        <ele>99.1</ele>
        <time>2024-07-17T09:25:42Z</time>
      </trkpt>
      <trkpt lat="49.99507" lon="2.25828">
        <ele>99.1</ele>
        <time>2024-07-17T09:25:43Z</time>
      </trkpt>
      <trkpt lat="49.99506" lon="2.25828">
        <ele>99.1</ele>
        <time>2024-07-17T09:25:44Z</time>
      </trkpt>
      <trkpt lat="49.99505" lon="2.25828">
        <ele>99</ele>
        <time>2024-07-17T09:25:45Z</time>
      </trkpt>
      <trkpt lat="49.99504" lon="2.25828">
        <ele>99</ele>
        <time>2024-07-17T09:25:46Z</time>
      </trkpt>
      <trkpt lat="49.99503" lon="2.25828">
        <ele>99</ele>
        <time>2024-07-17T09:25:47Z</time>
      </trkpt>
      <trkpt lat="49.99502" lon="2.25828">
        <ele>98.9</ele>
        <time>2024-07-17T09:25:48Z</time>
      </trkpt>
      <trkpt lat="49.99501" lon="2.25828">
        <ele>98.9</ele>
        <time>2024-07-17T09:25:49Z</time>
      </trkpt>
      <trkpt lat="49.995" lon="2.25828">
        <ele>98.9</ele>
        <time>2024-07-17T09:25:50Z</time>
      </trkpt>
      <trkpt lat="49.995" lon="2.25828">
        <ele>98.9</ele>
        <time>2024-07-17T09:25:51Z</time>
      </trkpt>
      <trkpt lat="49.99499" lon="2.25828">
        <ele>98.8</ele>
        <time>2024-07-17T09:25:52Z</time>
      </trkpt>
      <trkpt lat="49.99498" lon="2.25828">
        <ele>98.8</ele>
        <time>2024-07-17T09:25:53Z</time>
      </trkpt>
      <trkpt lat="49.99497" lon="2.25828">
        <ele>98.8</ele>
        <time>2024-07-17T09:25:54Z</time>
      </trkpt>
      <trkpt lat="49.99496" lon="2.25828">
        <ele>98.7</ele>
        <time>2024-07-17T09:25:55Z</time>
      </trkpt>
      <trkpt lat="49.99495" lon="2.25828">
        <ele>98.7</ele>
        <time>2024-07-17T09:25:56Z</time>
      </trkpt>
      <trkpt lat="49.99494" lon="2.25829">
        <ele>98.7</ele>
        <time>2024-07-17T09:25:57Z</time>
      </trkpt>
      <trkpt lat="49.99493" lon="2.25829">
        <ele>98.6</ele>
        <time>2024-07-17T09:25:58Z</time>
      </trkpt>
      <trkpt lat="49.99493" lon="2.25829">
        <ele>98.6</ele>
        <time>2024-07-17T09:25:59Z</time>
      </trkpt>
      <trkpt lat="49.99492" lon="2.2583">
        <ele>98.6</ele>
        <time>2024-07-17T09:26:00Z</time>
      </trkpt>
      <trkpt lat="49.99491" lon="2.2583">
        <ele>98.6</ele>
        <time>2024-07-17T09:26:01Z</time>
      </trkpt>
      <trkpt lat="49.99491" lon="2.2583">
        <ele>98.6</ele>
        <time>2024-07-17T09:26:02Z</time>
      </trkpt>
      <trkpt lat="49.9949" lon="2.2583">
        <ele>98.5</ele>
        <time>2024-07-17T09:26:03Z</time>
      </trkpt>
      <trkpt lat="49.99489" lon="2.25829">
        <ele>98.5</ele>
        <time>2024-07-17T09:26:04Z</time>
      </trkpt>
      <trkpt lat="49.99488" lon="2.25829">
        <ele>98.5</ele>
        <time>2024-07-17T09:26:05Z</time>
      </trkpt>
      <trkpt lat="49.99487" lon="2.25829">
        <ele>98.5</ele>
        <time>2024-07-17T09:26:06Z</time>
      </trkpt>
      <trkpt lat="49.99486" lon="2.25829">
        <ele>98.4</ele>
        <time>2024-07-17T09:26:07Z</time>
      </trkpt>
      <trkpt lat="49.99485" lon="2.25829">
        <ele>98.4</ele>
        <time>2024-07-17T09:26:08Z</time>
      </trkpt>
      <trkpt lat="49.99484" lon="2.25829">
        <ele>98.4</ele>
        <time>2024-07-17T09:26:09Z</time>
      </trkpt>
      <trkpt lat="49.99483" lon="2.25829">
        <ele>98.3</ele>
        <time>2024-07-17T09:26:10Z</time>
      </trkpt>
      <trkpt lat="49.99482" lon="2.25829">
        <ele>98.3</ele>
        <time>2024-07-17T09:26:11Z</time>
      </trkpt>
      <trkpt lat="49.99481" lon="2.25829">
        <ele>98.3</ele>
        <time>2024-07-17T09:26:12Z</time>
      </trkpt>
      <trkpt lat="49.9948" lon="2.25829">
        <ele>98.2</ele>
        <time>2024-07-17T09:26:13Z</time>
      </trkpt>
      <trkpt lat="49.99479" lon="2.25829">
        <ele>98.2</ele>
        <time>2024-07-17T09:26:14Z</time>
      </trkpt>
      <trkpt lat="49.99478" lon="2.2583">
        <ele>98.2</ele>
        <time>2024-07-17T09:26:15Z</time>
      </trkpt>
      <trkpt lat="49.99476" lon="2.25831">
        <ele>98.1</ele>
        <time>2024-07-17T09:26:16Z</time>
      </trkpt>
      <trkpt lat="49.99475" lon="2.25831">
        <ele>98.1</ele>
        <time>2024-07-17T09:26:17Z</time>
      </trkpt>
      <trkpt lat="49.99474" lon="2.25832">
        <ele>98</ele>
        <time>2024-07-17T09:26:18Z</time>
      </trkpt>
      <trkpt lat="49.99473" lon="2.25832">
        <ele>98</ele>
        <time>2024-07-17T09:26:19Z</time>
      </trkpt>
      <trkpt lat="49.99472" lon="2.25833">
        <ele>98</ele>
        <time>2024-07-17T09:26:20Z</time>
      </trkpt>
      <trkpt lat="49.99471" lon="2.25833">
        <ele>97.9</ele>
        <time>2024-07-17T09:26:21Z</time>
      </trkpt>
      <trkpt lat="49.9947" lon="2.25834">
        <ele>97.9</ele>
        <time>2024-07-17T09:26:22Z</time>
      </trkpt>
      <trkpt lat="49.99468" lon="2.25834">
        <ele>97.8</ele>
        <time>2024-07-17T09:26:23Z</time>
      </trkpt>
      <trkpt lat="49.99467" lon="2.25834">
        <ele>97.8</ele>
        <time>2024-07-17T09:26:24Z</time>
      </trkpt>
      <trkpt lat="49.99466" lon="2.25835">
        <ele>97.7</ele>
        <time>2024-07-17T09:26:25Z</time>
      </trkpt>
      <trkpt lat="49.99465" lon="2.25835">
        <ele>97.7</ele>
        <time>2024-07-17T09:26:26Z</time>
      </trkpt>
      <trkpt lat="49.99464" lon="2.25835">
        <ele>97.7</ele>
        <time>2024-07-17T09:26:27Z</time>
      </trkpt>
      <trkpt lat="49.99463" lon="2.25835">
        <ele>97.6</ele>
        <time>2024-07-17T09:26:28Z</time>
      </trkpt>
      <trkpt lat="49.99461" lon="2.25835">
        <ele>97.6</ele>
        <time>2024-07-17T09:26:29Z</time>
      </trkpt>
      <trkpt lat="49.9946" lon="2.25835">
        <ele>97.5</ele>
        <time>2024-07-17T09:26:30Z</time>
      </trkpt>
      <trkpt lat="49.99459" lon="2.25835">
        <ele>97.5</ele>
        <time>2024-07-17T09:26:31Z</time>
      </trkpt>
      <trkpt lat="49.99458" lon="2.25836">
        <ele>97.5</ele>
        <time>2024-07-17T09:26:32Z</time>
      </trkpt>
      <trkpt lat="49.99457" lon="2.25836">
        <ele>97.4</ele>
        <time>2024-07-17T09:26:33Z</time>
      </trkpt>
      <trkpt lat="49.99456" lon="2.25836">
        <ele>97.4</ele>
        <time>2024-07-17T09:26:34Z</time>
      </trkpt>
      <trkpt lat="49.99455" lon="2.25837">
        <ele>97.4</ele>
        <time>2024-07-17T09:26:35Z</time>
      </trkpt>
      <trkpt lat="49.99454" lon="2.25837">
        <ele>97.3</ele>
        <time>2024-07-17T09:26:36Z</time>
      </trkpt>
      <trkpt lat="49.99452" lon="2.25838">
        <ele>97.3</ele>
        <time>2024-07-17T09:26:37Z</time>
      </trkpt>
      <trkpt lat="49.99451" lon="2.25838">
        <ele>97.3</ele>
        <time>2024-07-17T09:26:38Z</time>
      </trkpt>
      <trkpt lat="49.9945" lon="2.25838">
        <ele>97.2</ele>
        <time>2024-07-17T09:26:39Z</time>
      </trkpt>
      <trkpt lat="49.99449" lon="2.25837">
        <ele>97.2</ele>
        <time>2024-07-17T09:26:40Z</time>
      </trkpt>
      <trkpt lat="49.99448" lon="2.25837">
        <ele>97.2</ele>
        <time>2024-07-17T09:26:41Z</time>
      </trkpt>
      <trkpt lat="49.99447" lon="2.25837">
        <ele>97.2</ele>
        <time>2024-07-17T09:26:42Z</time>
      </trkpt>
      <trkpt lat="49.99446" lon="2.25837">
        <ele>97.1</ele>
        <time>2024-07-17T09:26:43Z</time>
      </trkpt>
      <trkpt lat="49.99445" lon="2.25837">
        <ele>97.1</ele>
        <time>2024-07-17T09:26:44Z</time>
      </trkpt>
      <trkpt lat="49.99444" lon="2.25836">
        <ele>97.1</ele>
        <time>2024-07-17T09:26:45Z</time>
      </trkpt>
      <trkpt lat="49.99443" lon="2.25836">
        <ele>97.1</ele>
        <time>2024-07-17T09:26:46Z</time>
      </trkpt>
      <trkpt lat="49.99442" lon="2.25836">
        <ele>97</ele>
        <time>2024-07-17T09:26:47Z</time>
      </trkpt>
      <trkpt lat="49.99441" lon="2.25836">
        <ele>97</ele>
        <time>2024-07-17T09:26:48Z</time>
      </trkpt>
      <trkpt lat="49.9944" lon="2.25835">
        <ele>97</ele>
        <time>2024-07-17T09:26:49Z</time>
      </trkpt>
      <trkpt lat="49.9944" lon="2.25835">
        <ele>97</ele>
        <time>2024-07-17T09:26:50Z</time>
      </trkpt>
      <trkpt lat="49.99439" lon="2.25835">
        <ele>97</ele>
        <time>2024-07-17T09:26:51Z</time>
      </trkpt>
      <trkpt lat="49.99438" lon="2.25835">
        <ele>96.9</ele>
        <time>2024-07-17T09:26:52Z</time>
      </trkpt>
      <trkpt lat="49.99437" lon="2.25835">
        <ele>96.9</ele>
        <time>2024-07-17T09:26:53Z</time>
      </trkpt>
      <trkpt lat="49.99436" lon="2.25835">
        <ele>96.9</ele>
        <time>2024-07-17T09:26:54Z</time>
      </trkpt>
      <trkpt lat="49.99436" lon="2.25835">
        <ele>96.9</ele>
        <time>2024-07-17T09:26:55Z</time>
      </trkpt>
      <trkpt lat="49.99435" lon="2.25835">
        <ele>96.9</ele>
        <time>2024-07-17T09:26:56Z</time>
      </trkpt>
      <trkpt lat="49.99434" lon="2.25835">
        <ele>96.9</ele>
        <time>2024-07-17T09:26:57Z</time>
      </trkpt>
      <trkpt lat="49.99433" lon="2.25835">
        <ele>96.8</ele>
        <time>2024-07-17T09:26:58Z</time>
      </trkpt>
      <trkpt lat="49.99432" lon="2.25835">
        <ele>96.8</ele>
        <time>2024-07-17T09:26:59Z</time>
      </trkpt>
      <trkpt lat="49.99431" lon="2.25835">
        <ele>96.8</ele>
        <time>2024-07-17T09:27:00Z</time>
      </trkpt>
      <trkpt lat="49.99431" lon="2.25835">
        <ele>96.8</ele>
        <time>2024-07-17T09:27:01Z</time>
      </trkpt>
      <trkpt lat="49.9943" lon="2.25836">
        <ele>96.8</ele>
        <time>2024-07-17T09:27:02Z</time>
      </trkpt>
      <trkpt lat="49.99429" lon="2.25836">
        <ele>96.8</ele>
        <time>2024-07-17T09:27:03Z</time>
      </trkpt>
      <trkpt lat="49.99428" lon="2.25836">
        <ele>96.7</ele>
        <time>2024-07-17T09:27:04Z</time>
      </trkpt>
      <trkpt lat="49.99427" lon="2.25837">
        <ele>96.7</ele>
        <time>2024-07-17T09:27:05Z</time>
      </trkpt>
      <trkpt lat="49.99427" lon="2.25837">
        <ele>96.7</ele>
        <time>2024-07-17T09:27:06Z</time>
      </trkpt>
      <trkpt lat="49.99426" lon="2.25837">
        <ele>96.7</ele>
        <time>2024-07-17T09:27:07Z</time>
      </trkpt>
      <trkpt lat="49.99425" lon="2.25838">
        <ele>96.7</ele>
        <time>2024-07-17T09:27:08Z</time>
      </trkpt>
      <trkpt lat="49.99424" lon="2.25838">
        <ele>96.6</ele>
        <time>2024-07-17T09:27:09Z</time>
      </trkpt>
      <trkpt lat="49.99423" lon="2.25838">
        <ele>96.6</ele>
        <time>2024-07-17T09:27:10Z</time>
      </trkpt>
      <trkpt lat="49.99422" lon="2.25838">
        <ele>96.6</ele>
        <time>2024-07-17T09:27:11Z</time>
      </trkpt>
      <trkpt lat="49.99421" lon="2.25838">
        <ele>96.6</ele>
        <time>2024-07-17T09:27:12Z</time>
      </trkpt>
      <trkpt lat="49.9942" lon="2.25838">
        <ele>96.6</ele>
        <time>2024-07-17T09:27:13Z</time>
      </trkpt>
      <trkpt lat="49.99419" lon="2.25837">
        <ele>96.6</ele>
        <time>2024-07-17T09:27:14Z</time>
      </trkpt>
      <trkpt lat="49.99418" lon="2.25837">
        <ele>96.5</ele>
        <time>2024-07-17T09:27:15Z</time>
      </trkpt>
      <trkpt lat="49.99417" lon="2.25837">
        <ele>96.5</ele>
        <time>2024-07-17T09:27:16Z</time>
      </trkpt>
      <trkpt lat="49.99416" lon="2.25837">
        <ele>96.5</ele>
        <time>2024-07-17T09:27:17Z</time>
      </trkpt>
      <trkpt lat="49.99415" lon="2.25837">
        <ele>96.5</ele>
        <time>2024-07-17T09:27:18Z</time>
      </trkpt>
      <trkpt lat="49.99414" lon="2.25837">
        <ele>96.5</ele>
        <time>2024-07-17T09:27:19Z</time>
      </trkpt>
      <trkpt lat="49.99413" lon="2.25837">
        <ele>96.4</ele>
        <time>2024-07-17T09:27:20Z</time>
      </trkpt>
      <trkpt lat="49.99412" lon="2.25837">
        <ele>96.4</ele>
        <time>2024-07-17T09:27:21Z</time>
      </trkpt>
      <trkpt lat="49.99411" lon="2.25837">
        <ele>96.4</ele>
        <time>2024-07-17T09:27:22Z</time>
      </trkpt>
      <trkpt lat="49.99409" lon="2.25837">
        <ele>96.4</ele>
        <time>2024-07-17T09:27:23Z</time>
      </trkpt>
      <trkpt lat="49.99408" lon="2.25837">
        <ele>96.3</ele>
        <time>2024-07-17T09:27:24Z</time>
      </trkpt>
      <trkpt lat="49.99407" lon="2.25837">
        <ele>96.3</ele>
        <time>2024-07-17T09:27:25Z</time>
      </trkpt>
      <trkpt lat="49.99406" lon="2.25838">
        <ele>96.3</ele>
        <time>2024-07-17T09:27:26Z</time>
      </trkpt>
      <trkpt lat="49.99405" lon="2.25839">
        <ele>96.3</ele>
        <time>2024-07-17T09:27:27Z</time>
      </trkpt>
      <trkpt lat="49.99404" lon="2.25839">
        <ele>96.3</ele>
        <time>2024-07-17T09:27:28Z</time>
      </trkpt>
      <trkpt lat="49.99403" lon="2.2584">
        <ele>96.3</ele>
        <time>2024-07-17T09:27:29Z</time>
      </trkpt>
      <trkpt lat="49.99402" lon="2.2584">
        <ele>96.2</ele>
        <time>2024-07-17T09:27:30Z</time>
      </trkpt>
      <trkpt lat="49.99401" lon="2.2584">
        <ele>96.2</ele>
        <time>2024-07-17T09:27:31Z</time>
      </trkpt>
      <trkpt lat="49.994" lon="2.25841">
        <ele>96.2</ele>
        <time>2024-07-17T09:27:32Z</time>
      </trkpt>
      <trkpt lat="49.99399" lon="2.25841">
        <ele>96.2</ele>
        <time>2024-07-17T09:27:33Z</time>
      </trkpt>
      <trkpt lat="49.99398" lon="2.25842">
        <ele>96.2</ele>
        <time>2024-07-17T09:27:34Z</time>
      </trkpt>
      <trkpt lat="49.99397" lon="2.25842">
        <ele>96.1</ele>
        <time>2024-07-17T09:27:35Z</time>
      </trkpt>
      <trkpt lat="49.99396" lon="2.25843">
        <ele>96.1</ele>
        <time>2024-07-17T09:27:36Z</time>
      </trkpt>
      <trkpt lat="49.99394" lon="2.25844">
        <ele>96.1</ele>
        <time>2024-07-17T09:27:37Z</time>
      </trkpt>
      <trkpt lat="49.99393" lon="2.25844">
        <ele>96.1</ele>
        <time>2024-07-17T09:27:38Z</time>
      </trkpt>
      <trkpt lat="49.99393" lon="2.25845">
        <ele>96.1</ele>
        <time>2024-07-17T09:27:39Z</time>
      </trkpt>
      <trkpt lat="49.99392" lon="2.25845">
        <ele>96.1</ele>
        <time>2024-07-17T09:27:40Z</time>
      </trkpt>
      <trkpt lat="49.99391" lon="2.25845">
        <ele>96.1</ele>
        <time>2024-07-17T09:27:41Z</time>
      </trkpt>
      <trkpt lat="49.9939" lon="2.25845">
        <ele>96</ele>
        <time>2024-07-17T09:27:42Z</time>
      </trkpt>
      <trkpt lat="49.99389" lon="2.25846">
        <ele>96</ele>
        <time>2024-07-17T09:27:43Z</time>
      </trkpt>
      <trkpt lat="49.99388" lon="2.25846">
        <ele>96</ele>
        <time>2024-07-17T09:27:44Z</time>
      </trkpt>
      <trkpt lat="49.99387" lon="2.25846">
        <ele>96</ele>
        <time>2024-07-17T09:27:45Z</time>
      </trkpt>
      <trkpt lat="49.99386" lon="2.25846">
        <ele>96</ele>
        <time>2024-07-17T09:27:46Z</time>
      </trkpt>
      <trkpt lat="49.99385" lon="2.25847">
        <ele>96</ele>
        <time>2024-07-17T09:27:47Z</time>
      </trkpt>
      <trkpt lat="49.99384" lon="2.25847">
        <ele>96</ele>
        <time>2024-07-17T09:27:48Z</time>
      </trkpt>
      <trkpt lat="49.99383" lon="2.25847">
        <ele>95.9</ele>
        <time>2024-07-17T09:27:49Z</time>
      </trkpt>
      <trkpt lat="49.99382" lon="2.25847">
        <ele>95.9</ele>
        <time>2024-07-17T09:27:50Z</time>
      </trkpt>
      <trkpt lat="49.99381" lon="2.25847">
        <ele>95.9</ele>
        <time>2024-07-17T09:27:51Z</time>
      </trkpt>
      <trkpt lat="49.9938" lon="2.25848">
        <ele>95.9</ele>
        <time>2024-07-17T09:27:52Z</time>
      </trkpt>
      <trkpt lat="49.99379" lon="2.25848">
        <ele>95.9</ele>
        <time>2024-07-17T09:27:53Z</time>
      </trkpt>
      <trkpt lat="49.99378" lon="2.25848">
        <ele>95.9</ele>
        <time>2024-07-17T09:27:54Z</time>
      </trkpt>
      <trkpt lat="49.99377" lon="2.25848">
        <ele>95.9</ele>
        <time>2024-07-17T09:27:55Z</time>
      </trkpt>
      <trkpt lat="49.99376" lon="2.25848">
        <ele>95.9</ele>
        <time>2024-07-17T09:27:56Z</time>
      </trkpt>
      <trkpt lat="49.99375" lon="2.25848">
        <ele>95.9</ele>
        <time>2024-07-17T09:27:57Z</time>
      </trkpt>
      <trkpt lat="49.99374" lon="2.25849">
        <ele>95.9</ele>
        <time>2024-07-17T09:27:58Z</time>
      </trkpt>
      <trkpt lat="49.99374" lon="2.25849">
        <ele>95.8</ele>
        <time>2024-07-17T09:27:59Z</time>
      </trkpt>
      <trkpt lat="49.99373" lon="2.25849">
        <ele>95.8</ele>
        <time>2024-07-17T09:28:00Z</time>
      </trkpt>
      <trkpt lat="49.99372" lon="2.2585">
        <ele>95.8</ele>
        <time>2024-07-17T09:28:01Z</time>
      </trkpt>
      <trkpt lat="49.99371" lon="2.2585">
        <ele>95.8</ele>
        <time>2024-07-17T09:28:02Z</time>
      </trkpt>
      <trkpt lat="49.99371" lon="2.2585">
        <ele>95.8</ele>
        <time>2024-07-17T09:28:03Z</time>
      </trkpt>
      <trkpt lat="49.9937" lon="2.25851">
        <ele>95.8</ele>
        <time>2024-07-17T09:28:04Z</time>
      </trkpt>
      <trkpt lat="49.99369" lon="2.25851">
        <ele>95.8</ele>
        <time>2024-07-17T09:28:05Z</time>
      </trkpt>
      <trkpt lat="49.99369" lon="2.25851">
        <ele>95.8</ele>
        <time>2024-07-17T09:28:06Z</time>
      </trkpt>
      <trkpt lat="49.99368" lon="2.25851">
        <ele>95.8</ele>
        <time>2024-07-17T09:28:07Z</time>
      </trkpt>
      <trkpt lat="49.99367" lon="2.25851">
        <ele>95.8</ele>
        <time>2024-07-17T09:28:08Z</time>
      </trkpt>
      <trkpt lat="49.99366" lon="2.25852">
        <ele>95.8</ele>
        <time>2024-07-17T09:28:09Z</time>
      </trkpt>
      <trkpt lat="49.99365" lon="2.25852">
        <ele>95.8</ele>
        <time>2024-07-17T09:28:10Z</time>
      </trkpt>
      <trkpt lat="49.99364" lon="2.25851">
        <ele>95.8</ele>
        <time>2024-07-17T09:28:11Z</time>
      </trkpt>
      <trkpt lat="49.99363" lon="2.25851">
        <ele>95.8</ele>
        <time>2024-07-17T09:28:12Z</time>
      </trkpt>
      <trkpt lat="49.99362" lon="2.25851">
        <ele>95.7</ele>
        <time>2024-07-17T09:28:13Z</time>
      </trkpt>
      <trkpt lat="49.99361" lon="2.25851">
        <ele>95.7</ele>
        <time>2024-07-17T09:28:14Z</time>
      </trkpt>
      <trkpt lat="49.9936" lon="2.25851">
        <ele>95.7</ele>
        <time>2024-07-17T09:28:15Z</time>
      </trkpt>
      <trkpt lat="49.9936" lon="2.25852">
        <ele>95.7</ele>
        <time>2024-07-17T09:28:16Z</time>
      </trkpt>
      <trkpt lat="49.99359" lon="2.25853">
        <ele>95.7</ele>
        <time>2024-07-17T09:28:17Z</time>
      </trkpt>
      <trkpt lat="49.99358" lon="2.25854">
        <ele>95.7</ele>
        <time>2024-07-17T09:28:18Z</time>
      </trkpt>
      <trkpt lat="49.99357" lon="2.25854">
        <ele>95.7</ele>
        <time>2024-07-17T09:28:19Z</time>
      </trkpt>
      <trkpt lat="49.99356" lon="2.25855">
        <ele>95.7</ele>
        <time>2024-07-17T09:28:20Z</time>
      </trkpt>
      <trkpt lat="49.99355" lon="2.25855">
        <ele>95.7</ele>
        <time>2024-07-17T09:28:21Z</time>
      </trkpt>
      <trkpt lat="49.99354" lon="2.25855">
        <ele>95.7</ele>
        <time>2024-07-17T09:28:22Z</time>
      </trkpt>
      <trkpt lat="49.99353" lon="2.25856">
        <ele>95.7</ele>
        <time>2024-07-17T09:28:23Z</time>
      </trkpt>
      <trkpt lat="49.99351" lon="2.25856">
        <ele>95.7</ele>
        <time>2024-07-17T09:28:24Z</time>
      </trkpt>
      <trkpt lat="49.99351" lon="2.25856">
        <ele>95.7</ele>
        <time>2024-07-17T09:28:25Z</time>
      </trkpt>
      <trkpt lat="49.9935" lon="2.25856">
        <ele>95.7</ele>
        <time>2024-07-17T09:28:26Z</time>
      </trkpt>
      <trkpt lat="49.99349" lon="2.25856">
        <ele>95.7</ele>
        <time>2024-07-17T09:28:27Z</time>
      </trkpt>
      <trkpt lat="49.99348" lon="2.25856">
        <ele>95.7</ele>
        <time>2024-07-17T09:28:28Z</time>
      </trkpt>
      <trkpt lat="49.99347" lon="2.25856">
        <ele>95.6</ele>
        <time>2024-07-17T09:28:29Z</time>
      </trkpt>
      <trkpt lat="49.99345" lon="2.25857">
        <ele>95.6</ele>
        <time>2024-07-17T09:28:30Z</time>
      </trkpt>
      <trkpt lat="49.99344" lon="2.25857">
        <ele>95.6</ele>
        <time>2024-07-17T09:28:31Z</time>
      </trkpt>
      <trkpt lat="49.99343" lon="2.25857">
        <ele>95.6</ele>
        <time>2024-07-17T09:28:32Z</time>
      </trkpt>
      <trkpt lat="49.99342" lon="2.25857">
        <ele>95.6</ele>
        <time>2024-07-17T09:28:33Z</time>
      </trkpt>
      <trkpt lat="49.99341" lon="2.25858">
        <ele>95.6</ele>
        <time>2024-07-17T09:28:34Z</time>
      </trkpt>
      <trkpt lat="49.9934" lon="2.25858">
        <ele>95.6</ele>
        <time>2024-07-17T09:28:35Z</time>
      </trkpt>
      <trkpt lat="49.99339" lon="2.25858">
        <ele>95.6</ele>
        <time>2024-07-17T09:28:36Z</time>
      </trkpt>
      <trkpt lat="49.99338" lon="2.25859">
        <ele>95.6</ele>
        <time>2024-07-17T09:28:37Z</time>
      </trkpt>
      <trkpt lat="49.99337" lon="2.25859">
        <ele>95.6</ele>
        <time>2024-07-17T09:28:38Z</time>
      </trkpt>
      <trkpt lat="49.99336" lon="2.25859">
        <ele>95.6</ele>
        <time>2024-07-17T09:28:39Z</time>
      </trkpt>
      <trkpt lat="49.99335" lon="2.25859">
        <ele>95.6</ele>
        <time>2024-07-17T09:28:40Z</time>
      </trkpt>
      <trkpt lat="49.99334" lon="2.25859">
        <ele>95.6</ele>
        <time>2024-07-17T09:28:41Z</time>
      </trkpt>
      <trkpt lat="49.99333" lon="2.25859">
        <ele>95.6</ele>
        <time>2024-07-17T09:28:42Z</time>
      </trkpt>
      <trkpt lat="49.99332" lon="2.25859">
        <ele>95.6</ele>
        <time>2024-07-17T09:28:43Z</time>
      </trkpt>
      <trkpt lat="49.99331" lon="2.25859">
        <ele>95.5</ele>
        <time>2024-07-17T09:28:44Z</time>
      </trkpt>
      <trkpt lat="49.9933" lon="2.25859">
        <ele>95.5</ele>
        <time>2024-07-17T09:28:45Z</time>
      </trkpt>
      <trkpt lat="49.9933" lon="2.25859">
        <ele>95.5</ele>
        <time>2024-07-17T09:28:46Z</time>
      </trkpt>
      <trkpt lat="49.99328" lon="2.25859">
        <ele>95.5</ele>
        <time>2024-07-17T09:28:47Z</time>
      </trkpt>
      <trkpt lat="49.99327" lon="2.25859">
        <ele>95.5</ele>
        <time>2024-07-17T09:28:48Z</time>
      </trkpt>
      <trkpt lat="49.99326" lon="2.25859">
        <ele>95.5</ele>
        <time>2024-07-17T09:28:49Z</time>
      </trkpt>
      <trkpt lat="49.99325" lon="2.25859">
        <ele>95.5</ele>
        <time>2024-07-17T09:28:50Z</time>
      </trkpt>
      <trkpt lat="49.99324" lon="2.25858">
        <ele>95.5</ele>
        <time>2024-07-17T09:28:51Z</time>
      </trkpt>
      <trkpt lat="49.99323" lon="2.25858">
        <ele>95.5</ele>
        <time>2024-07-17T09:28:52Z</time>
      </trkpt>
      <trkpt lat="49.99323" lon="2.25858">
        <ele>95.4</ele>
        <time>2024-07-17T09:28:53Z</time>
      </trkpt>
      <trkpt lat="49.99322" lon="2.25858">
        <ele>95.4</ele>
        <time>2024-07-17T09:28:54Z</time>
      </trkpt>
      <trkpt lat="49.99321" lon="2.25858">
        <ele>95.4</ele>
        <time>2024-07-17T09:28:55Z</time>
      </trkpt>
      <trkpt lat="49.9932" lon="2.25858">
        <ele>95.4</ele>
        <time>2024-07-17T09:28:56Z</time>
      </trkpt>
      <trkpt lat="49.99319" lon="2.25857">
        <ele>95.4</ele>
        <time>2024-07-17T09:28:57Z</time>
      </trkpt>
      <trkpt lat="49.99318" lon="2.25857">
        <ele>95.4</ele>
        <time>2024-07-17T09:28:58Z</time>
      </trkpt>
      <trkpt lat="49.99317" lon="2.25857">
        <ele>95.4</ele>
        <time>2024-07-17T09:28:59Z</time>
      </trkpt>
      <trkpt lat="49.99316" lon="2.25858">
        <ele>95.4</ele>
        <time>2024-07-17T09:29:00Z</time>
      </trkpt>
      <trkpt lat="49.99315" lon="2.25858">
        <ele>95.3</ele>
        <time>2024-07-17T09:29:01Z</time>
      </trkpt>
      <trkpt lat="49.99314" lon="2.25858">
        <ele>95.3</ele>
        <time>2024-07-17T09:29:02Z</time>
      </trkpt>
      <trkpt lat="49.99313" lon="2.25858">
        <ele>95.3</ele>
        <time>2024-07-17T09:29:03Z</time>
      </trkpt>
      <trkpt lat="49.99312" lon="2.25858">
        <ele>95.3</ele>
        <time>2024-07-17T09:29:04Z</time>
      </trkpt>
      <trkpt lat="49.99311" lon="2.25859">
        <ele>95.3</ele>
        <time>2024-07-17T09:29:05Z</time>
      </trkpt>
      <trkpt lat="49.9931" lon="2.2586">
        <ele>95.3</ele>
        <time>2024-07-17T09:29:06Z</time>
      </trkpt>
      <trkpt lat="49.99309" lon="2.25861">
        <ele>95.3</ele>
        <time>2024-07-17T09:29:07Z</time>
      </trkpt>
      <trkpt lat="49.99309" lon="2.25861">
        <ele>95.2</ele>
        <time>2024-07-17T09:29:08Z</time>
      </trkpt>
      <trkpt lat="49.99308" lon="2.25862">
        <ele>95.2</ele>
        <time>2024-07-17T09:29:09Z</time>
      </trkpt>
      <trkpt lat="49.99307" lon="2.25862">
        <ele>95.2</ele>
        <time>2024-07-17T09:29:10Z</time>
      </trkpt>
      <trkpt lat="49.99307" lon="2.25863">
        <ele>95.2</ele>
        <time>2024-07-17T09:29:11Z</time>
      </trkpt>
      <trkpt lat="49.99306" lon="2.25863">
        <ele>95.2</ele>
        <time>2024-07-17T09:29:12Z</time>
      </trkpt>
      <trkpt lat="49.99305" lon="2.25863">
        <ele>95.2</ele>
        <time>2024-07-17T09:29:13Z</time>
      </trkpt>
      <trkpt lat="49.99304" lon="2.25863">
        <ele>95.2</ele>
        <time>2024-07-17T09:29:14Z</time>
      </trkpt>
      <trkpt lat="49.99303" lon="2.25863">
        <ele>95.2</ele>
        <time>2024-07-17T09:29:15Z</time>
      </trkpt>
      <trkpt lat="49.99302" lon="2.25863">
        <ele>95.2</ele>
        <time>2024-07-17T09:29:16Z</time>
      </trkpt>
      <trkpt lat="49.99302" lon="2.25864">
        <ele>95.2</ele>
        <time>2024-07-17T09:29:17Z</time>
      </trkpt>
      <trkpt lat="49.99301" lon="2.25864">
        <ele>95.2</ele>
        <time>2024-07-17T09:29:18Z</time>
      </trkpt>
      <trkpt lat="49.993" lon="2.25864">
        <ele>95.1</ele>
        <time>2024-07-17T09:29:19Z</time>
      </trkpt>
      <trkpt lat="49.99299" lon="2.25864">
        <ele>95.1</ele>
        <time>2024-07-17T09:29:20Z</time>
      </trkpt>
      <trkpt lat="49.99299" lon="2.25863">
        <ele>95.1</ele>
        <time>2024-07-17T09:29:21Z</time>
      </trkpt>
      <trkpt lat="49.99298" lon="2.25863">
        <ele>95.1</ele>
        <time>2024-07-17T09:29:22Z</time>
      </trkpt>
      <trkpt lat="49.99297" lon="2.25863">
        <ele>95.1</ele>
        <time>2024-07-17T09:29:23Z</time>
      </trkpt>
      <trkpt lat="49.99296" lon="2.25864">
        <ele>95.1</ele>
        <time>2024-07-17T09:29:24Z</time>
      </trkpt>
      <trkpt lat="49.99296" lon="2.25864">
        <ele>95.1</ele>
        <time>2024-07-17T09:29:25Z</time>
      </trkpt>
      <trkpt lat="49.99295" lon="2.25865">
        <ele>95.1</ele>
        <time>2024-07-17T09:29:26Z</time>
      </trkpt>
      <trkpt lat="49.99294" lon="2.25865">
        <ele>95.1</ele>
        <time>2024-07-17T09:29:27Z</time>
      </trkpt>
      <trkpt lat="49.99293" lon="2.25865">
        <ele>95.1</ele>
        <time>2024-07-17T09:29:28Z</time>
      </trkpt>
      <trkpt lat="49.99292" lon="2.25865">
        <ele>95.1</ele>
        <time>2024-07-17T09:29:29Z</time>
      </trkpt>
      <trkpt lat="49.99291" lon="2.25865">
        <ele>95.1</ele>
        <time>2024-07-17T09:29:30Z</time>
      </trkpt>
      <trkpt lat="49.9929" lon="2.25866">
        <ele>95.1</ele>
        <time>2024-07-17T09:29:31Z</time>
      </trkpt>
      <trkpt lat="49.99289" lon="2.25866">
        <ele>95.1</ele>
        <time>2024-07-17T09:29:32Z</time>
      </trkpt>
      <trkpt lat="49.99288" lon="2.25866">
        <ele>95.1</ele>
        <time>2024-07-17T09:29:33Z</time>
      </trkpt>
      <trkpt lat="49.99287" lon="2.25866">
        <ele>95</ele>
        <time>2024-07-17T09:29:34Z</time>
      </trkpt>
      <trkpt lat="49.99286" lon="2.25866">
        <ele>95</ele>
        <time>2024-07-17T09:29:35Z</time>
      </trkpt>
      <trkpt lat="49.99285" lon="2.25866">
        <ele>95</ele>
        <time>2024-07-17T09:29:36Z</time>
      </trkpt>
      <trkpt lat="49.99284" lon="2.25867">
        <ele>95</ele>
        <time>2024-07-17T09:29:37Z</time>
      </trkpt>
      <trkpt lat="49.99283" lon="2.25867">
        <ele>95</ele>
        <time>2024-07-17T09:29:38Z</time>
      </trkpt>
      <trkpt lat="49.99282" lon="2.25867">
        <ele>95</ele>
        <time>2024-07-17T09:29:39Z</time>
      </trkpt>
      <trkpt lat="49.99281" lon="2.25867">
        <ele>95</ele>
        <time>2024-07-17T09:29:40Z</time>
      </trkpt>
      <trkpt lat="49.9928" lon="2.25867">
        <ele>95</ele>
        <time>2024-07-17T09:29:41Z</time>
      </trkpt>
      <trkpt lat="49.99279" lon="2.25867">
        <ele>95</ele>
        <time>2024-07-17T09:29:42Z</time>
      </trkpt>
      <trkpt lat="49.99278" lon="2.25867">
        <ele>95</ele>
        <time>2024-07-17T09:29:43Z</time>
      </trkpt>
      <trkpt lat="49.99277" lon="2.25867">
        <ele>95</ele>
        <time>2024-07-17T09:29:44Z</time>
      </trkpt>
      <trkpt lat="49.99276" lon="2.25867">
        <ele>95</ele>
        <time>2024-07-17T09:29:45Z</time>
      </trkpt>
      <trkpt lat="49.99275" lon="2.25866">
        <ele>95</ele>
        <time>2024-07-17T09:29:46Z</time>
      </trkpt>
      <trkpt lat="49.99274" lon="2.25866">
        <ele>95</ele>
        <time>2024-07-17T09:29:47Z</time>
      </trkpt>
      <trkpt lat="49.99273" lon="2.25867">
        <ele>95</ele>
        <time>2024-07-17T09:29:48Z</time>
      </trkpt>
      <trkpt lat="49.99272" lon="2.25867">
        <ele>95</ele>
        <time>2024-07-17T09:29:49Z</time>
      </trkpt>
      <trkpt lat="49.99271" lon="2.25867">
        <ele>95</ele>
        <time>2024-07-17T09:29:50Z</time>
      </trkpt>
      <trkpt lat="49.9927" lon="2.25867">
        <ele>95</ele>
        <time>2024-07-17T09:29:51Z</time>
      </trkpt>
      <trkpt lat="49.99269" lon="2.25867">
        <ele>95</ele>
        <time>2024-07-17T09:29:52Z</time>
      </trkpt>
      <trkpt lat="49.99268" lon="2.25867">
        <ele>95</ele>
        <time>2024-07-17T09:29:53Z</time>
      </trkpt>
      <trkpt lat="49.99266" lon="2.25867">
        <ele>95</ele>
        <time>2024-07-17T09:29:54Z</time>
      </trkpt>
      <trkpt lat="49.99265" lon="2.25867">
        <ele>95</ele>
        <time>2024-07-17T09:29:55Z</time>
      </trkpt>
      <trkpt lat="49.99263" lon="2.25868">
        <ele>95</ele>
        <time>2024-07-17T09:29:56Z</time>
      </trkpt>
      <trkpt lat="49.99262" lon="2.25868">
        <ele>95</ele>
        <time>2024-07-17T09:29:57Z</time>
      </trkpt>
      <trkpt lat="49.99262" lon="2.25868">
        <ele>95</ele>
        <time>2024-07-17T09:29:58Z</time>
      </trkpt>
      <trkpt lat="49.9926" lon="2.25868">
        <ele>95</ele>
        <time>2024-07-17T09:29:59Z</time>
      </trkpt>
      <trkpt lat="49.99259" lon="2.25868">
        <ele>95</ele>
        <time>2024-07-17T09:30:00Z</time>
      </trkpt>
      <trkpt lat="49.99258" lon="2.25868">
        <ele>95</ele>
        <time>2024-07-17T09:30:01Z</time>
      </trkpt>
      <trkpt lat="49.99257" lon="2.25868">
        <ele>95</ele>
        <time>2024-07-17T09:30:02Z</time>
      </trkpt>
      <trkpt lat="49.99256" lon="2.25868">
        <ele>95</ele>
        <time>2024-07-17T09:30:03Z</time>
      </trkpt>
      <trkpt lat="49.99255" lon="2.25869">
        <ele>95</ele>
        <time>2024-07-17T09:30:04Z</time>
      </trkpt>
      <trkpt lat="49.99253" lon="2.25869">
        <ele>95</ele>
        <time>2024-07-17T09:30:05Z</time>
      </trkpt>
      <trkpt lat="49.99253" lon="2.25869">
        <ele>95</ele>
        <time>2024-07-17T09:30:06Z</time>
      </trkpt>
      <trkpt lat="49.99252" lon="2.25869">
        <ele>95</ele>
        <time>2024-07-17T09:30:07Z</time>
      </trkpt>
      <trkpt lat="49.99251" lon="2.25869">
        <ele>95</ele>
        <time>2024-07-17T09:30:08Z</time>
      </trkpt>
      <trkpt lat="49.99251" lon="2.25869">
        <ele>95</ele>
        <time>2024-07-17T09:30:09Z</time>
      </trkpt>
      <trkpt lat="49.99251" lon="2.25869">
        <ele>95</ele>
        <time>2024-07-17T09:30:10Z</time>
      </trkpt>
      <trkpt lat="49.99251" lon="2.25869">
        <ele>95</ele>
        <time>2024-07-17T09:30:11Z</time>
      </trkpt>
      <trkpt lat="49.99251" lon="2.25869">
        <ele>95</ele>
        <time>2024-07-17T09:30:12Z</time>
      </trkpt>
      <trkpt lat="49.99251" lon="2.25869">
        <ele>95</ele>
        <time>2024-07-17T09:30:13Z</time>
      </trkpt>
      <trkpt lat="49.99251" lon="2.25869">
        <ele>95</ele>
        <time>2024-07-17T09:30:14Z</time>
      </trkpt>
      <trkpt lat="49.99251" lon="2.25869">
        <ele>95</ele>
        <time>2024-07-17T09:30:15Z</time>
      </trkpt>
      <trkpt lat="49.99251" lon="2.25869">
        <ele>95</ele>
        <time>2024-07-17T09:30:16Z</time>
      </trkpt>
      <trkpt lat="49.99251" lon="2.25869">
        <ele>95</ele>
        <time>2024-07-17T09:30:17Z</time>
      </trkpt>
      <trkpt lat="49.99251" lon="2.25869">
        <ele>95</ele>
        <time>2024-07-17T09:30:18Z</time>
      </trkpt>
      <trkpt lat="49.99251" lon="2.25869">
        <ele>95</ele>
        <time>2024-07-17T09:30:19Z</time>
      </trkpt>
      <trkpt lat="49.99251" lon="2.25869">
        <ele>95</ele>
        <time>2024-07-17T09:30:20Z</time>
      </trkpt>
      <trkpt lat="49.99251" lon="2.25869">
        <ele>95</ele>
        <time>2024-07-17T09:30:21Z</time>
      </trkpt>
      <trkpt lat="49.99251" lon="2.25869">
        <ele>95</ele>
        <time>2024-07-17T09:30:22Z</time>
      </trkpt>
      <trkpt lat="49.99251" lon="2.25869">
        <ele>95</ele>
        <time>2024-07-17T09:30:23Z</time>
      </trkpt>
      <trkpt lat="49.99251" lon="2.25869">
        <ele>95</ele>
        <time>2024-07-17T09:30:24Z</time>
      </trkpt>
      <trkpt lat="49.99251" lon="2.25869">
        <ele>95</ele>
        <time>2024-07-17T09:30:25Z</time>
      </trkpt>
      <trkpt lat="49.99251" lon="2.25869">
        <ele>95</ele>
        <time>2024-07-17T09:30:26Z</time>
      </trkpt>
      <trkpt lat="49.99251" lon="2.25869">
        <ele>95</ele>
        <time>2024-07-17T09:30:27Z</time>
      </trkpt>
      <trkpt lat="49.99251" lon="2.25869">
        <ele>95</ele>
        <time>2024-07-17T09:30:28Z</time>
      </trkpt>
      <trkpt lat="49.99251" lon="2.25869">
        <ele>95</ele>
        <time>2024-07-17T09:30:29Z</time>
      </trkpt>
      <trkpt lat="49.99251" lon="2.25869">
        <ele>95</ele>
        <time>2024-07-17T09:30:30Z</time>
      </trkpt>
      <trkpt lat="49.99251" lon="2.25869">
        <ele>95</ele>
        <time>2024-07-17T09:30:31Z</time>
      </trkpt>
      <trkpt lat="49.99251" lon="2.25869">
        <ele>95</ele>
        <time>2024-07-17T09:30:32Z</time>
      </trkpt>
      <trkpt lat="49.99251" lon="2.25869">
        <ele>95</ele>
        <time>2024-07-17T09:30:33Z</time>
      </trkpt>
      <trkpt lat="49.99251" lon="2.25869">
        <ele>95</ele>
        <time>2024-07-17T09:30:34Z</time>
      </trkpt>
      <trkpt lat="49.99251" lon="2.25869">
        <ele>95</ele>
        <time>2024-07-17T09:30:35Z</time>
      </trkpt>
      <trkpt lat="49.99251" lon="2.25869">
        <ele>95</ele>
        <time>2024-07-17T09:30:36Z</time>
      </trkpt>
      <trkpt lat="49.99251" lon="2.25869">
        <ele>95</ele>
        <time>2024-07-17T09:30:37Z</time>
      </trkpt>
      <trkpt lat="49.99251" lon="2.25869">
        <ele>95</ele>
        <time>2024-07-17T09:30:38Z</time>
      </trkpt>
      <trkpt lat="49.99251" lon="2.25869">
        <ele>95</ele>
        <time>2024-07-17T09:30:39Z</time>
      </trkpt>
      <trkpt lat="49.99251" lon="2.25869">
        <ele>95</ele>
        <time>2024-07-17T09:30:40Z</time>
      </trkpt>
      <trkpt lat="49.99251" lon="2.25869">
        <ele>95</ele>
        <time>2024-07-17T09:30:41Z</time>
      </trkpt>
      <trkpt lat="49.99251" lon="2.25869">
        <ele>95</ele>
        <time>2024-07-17T09:30:42Z</time>
      </trkpt>
      <trkpt lat="49.99251" lon="2.25869">
        <ele>95</ele>
        <time>2024-07-17T09:30:43Z</time>
      </trkpt>
      <trkpt lat="49.99251" lon="2.25869">
        <ele>95</ele>
        <time>2024-07-17T09:30:44Z</time>
      </trkpt>
      <trkpt lat="49.99251" lon="2.25869">
        <ele>95</ele>
        <time>2024-07-17T09:30:45Z</time>
      </trkpt>
      <trkpt lat="49.99251" lon="2.25869">
        <ele>95</ele>
        <time>2024-07-17T09:30:46Z</time>
      </trkpt>
      <trkpt lat="49.99251" lon="2.25869">
        <ele>95</ele>
        <time>2024-07-17T09:30:47Z</time>
      </trkpt>
      <trkpt lat="49.99251" lon="2.25869">
        <ele>95</ele>
        <time>2024-07-17T09:30:48Z</time>
      </trkpt>
      <trkpt lat="49.99251" lon="2.25869">
        <ele>95</ele>
        <time>2024-07-17T09:30:49Z</time>
      </trkpt>
      <trkpt lat="49.99251" lon="2.25869">
        <ele>95</ele>
        <time>2024-07-17T09:30:50Z</time>
      </trkpt>
      <trkpt lat="49.99251" lon="2.25869">
        <ele>95</ele>
        <time>2024-07-17T09:30:51Z</time>
      </trkpt>
      <trkpt lat="49.99251" lon="2.25869">
        <ele>95</ele>
        <time>2024-07-17T09:30:52Z</time>
      </trkpt>
      <trkpt lat="49.99251" lon="2.25869">
        <ele>95</ele>
        <time>2024-07-17T09:30:53Z</time>
      </trkpt>
      <trkpt lat="49.99251" lon="2.25869">
        <ele>95</ele>
        <time>2024-07-17T09:30:54Z</time>
      </trkpt>
      <trkpt lat="49.99251" lon="2.25869">
        <ele>95</ele>
        <time>2024-07-17T09:30:55Z</time>
      </trkpt>
      <trkpt lat="49.99251" lon="2.25869">
        <ele>95</ele>
        <time>2024-07-17T09:30:56Z</time>
      </trkpt>
      <trkpt lat="49.99251" lon="2.25869">
        <ele>95</ele>
        <time>2024-07-17T09:30:57Z</time>
      </trkpt>
      <trkpt lat="49.99251" lon="2.25869">
        <ele>95</ele>
        <time>2024-07-17T09:30:58Z</time>
      </trkpt>
      <trkpt lat="49.99251" lon="2.25869">
        <ele>95</ele>
        <time>2024-07-17T09:30:59Z</time>
      </trkpt>
      <trkpt lat="49.99251" lon="2.25869">
        <ele>95</ele>
        <time>2024-07-17T09:31:00Z</time>
      </trkpt>
      <trkpt lat="49.99251" lon="2.25869">
        <ele>95</ele>
        <time>2024-07-17T09:31:01Z</time>
      </trkpt>
      <trkpt lat="49.99251" lon="2.25869">
        <ele>95</ele>
        <time>2024-07-17T09:31:02Z</time>
      </trkpt>
      <trkpt lat="49.99254" lon="2.25865">
        <ele>95.1</ele>
        <time>2024-07-17T09:31:03Z</time>
      </trkpt>
      <trkpt lat="49.99252" lon="2.25868">
        <ele>95.1</ele>
        <time>2024-07-17T09:31:04Z</time>
      </trkpt>
      <trkpt lat="49.99252" lon="2.25867">
        <ele>95.1</ele>
        <time>2024-07-17T09:31:05Z</time>
      </trkpt>
      <trkpt lat="49.99252" lon="2.25867">
        <ele>95.1</ele>
        <time>2024-07-17T09:31:06Z</time>
      </trkpt>
      <trkpt lat="49.99251" lon="2.25866">
        <ele>95.1</ele>
        <time>2024-07-17T09:31:07Z</time>
      </trkpt>
      <trkpt lat="49.99251" lon="2.25866">
        <ele>95.1</ele>
        <time>2024-07-17T09:31:08Z</time>
      </trkpt>
      <trkpt lat="49.99251" lon="2.25866">
        <ele>95.1</ele>
        <time>2024-07-17T09:31:09Z</time>
      </trkpt>
      <trkpt lat="49.9925" lon="2.25866">
        <ele>95.1</ele>
        <time>2024-07-17T09:31:10Z</time>
      </trkpt>
      <trkpt lat="49.9925" lon="2.25866">
        <ele>95.1</ele>
        <time>2024-07-17T09:31:11Z</time>
      </trkpt>
      <trkpt lat="49.9925" lon="2.25866">
        <ele>95.1</ele>
        <time>2024-07-17T09:31:12Z</time>
      </trkpt>
      <trkpt lat="49.9925" lon="2.25866">
        <ele>95.1</ele>
        <time>2024-07-17T09:31:13Z</time>
      </trkpt>
      <trkpt lat="49.99249" lon="2.25866">
        <ele>95.1</ele>
        <time>2024-07-17T09:31:14Z</time>
      </trkpt>
      <trkpt lat="49.99249" lon="2.25866">
        <ele>95.1</ele>
        <time>2024-07-17T09:31:15Z</time>
      </trkpt>
      <trkpt lat="49.99249" lon="2.25866">
        <ele>95.1</ele>
        <time>2024-07-17T09:31:16Z</time>
      </trkpt>
      <trkpt lat="49.99249" lon="2.25866">
        <ele>95.1</ele>
        <time>2024-07-17T09:31:17Z</time>
      </trkpt>
      <trkpt lat="49.99248" lon="2.25866">
        <ele>95.1</ele>
        <time>2024-07-17T09:31:18Z</time>
      </trkpt>
      <trkpt lat="49.99248" lon="2.25866">
        <ele>95.1</ele>
        <time>2024-07-17T09:31:19Z</time>
      </trkpt>
      <trkpt lat="49.99248" lon="2.25866">
        <ele>95.1</ele>
        <time>2024-07-17T09:31:20Z</time>
      </trkpt>
      <trkpt lat="49.99248" lon="2.25866">
        <ele>95.1</ele>
        <time>2024-07-17T09:31:21Z</time>
      </trkpt>
      <trkpt lat="49.99247" lon="2.25867">
        <ele>95.1</ele>
        <time>2024-07-17T09:31:22Z</time>
      </trkpt>
      <trkpt lat="49.99245" lon="2.25867">
        <ele>95.1</ele>
        <time>2024-07-17T09:31:23Z</time>
      </trkpt>
      <trkpt lat="49.99244" lon="2.25867">
        <ele>95.1</ele>
        <time>2024-07-17T09:31:24Z</time>
      </trkpt>
      <trkpt lat="49.99244" lon="2.25867">
        <ele>95.1</ele>
        <time>2024-07-17T09:31:25Z</time>
      </trkpt>
      <trkpt lat="49.99243" lon="2.25867">
        <ele>95.1</ele>
        <time>2024-07-17T09:31:26Z</time>
      </trkpt>
      <trkpt lat="49.99242" lon="2.25867">
        <ele>95.1</ele>
        <time>2024-07-17T09:31:27Z</time>
      </trkpt>
      <trkpt lat="49.99241" lon="2.25868">
        <ele>95.1</ele>
        <time>2024-07-17T09:31:28Z</time>
      </trkpt>
      <trkpt lat="49.9924" lon="2.25868">
        <ele>95.1</ele>
        <time>2024-07-17T09:31:29Z</time>
      </trkpt>
      <trkpt lat="49.99239" lon="2.25868">
        <ele>95.1</ele>
        <time>2024-07-17T09:31:30Z</time>
      </trkpt>
      <trkpt lat="49.99238" lon="2.25868">
        <ele>95.1</ele>
        <time>2024-07-17T09:31:31Z</time>
      </trkpt>
      <trkpt lat="49.99238" lon="2.25868">
        <ele>95.1</ele>
        <time>2024-07-17T09:31:32Z</time>
      </trkpt>
      <trkpt lat="49.99237" lon="2.25868">
        <ele>95.1</ele>
        <time>2024-07-17T09:31:33Z</time>
      </trkpt>
      <trkpt lat="49.99236" lon="2.25868">
        <ele>95.1</ele>
        <time>2024-07-17T09:31:34Z</time>
      </trkpt>
      <trkpt lat="49.99235" lon="2.25868">
        <ele>95.2</ele>
        <time>2024-07-17T09:31:35Z</time>
      </trkpt>
      <trkpt lat="49.99235" lon="2.25868">
        <ele>95.2</ele>
        <time>2024-07-17T09:31:36Z</time>
      </trkpt>
      <trkpt lat="49.99234" lon="2.25869">
        <ele>95.2</ele>
        <time>2024-07-17T09:31:37Z</time>
      </trkpt>
      <trkpt lat="49.99233" lon="2.25868">
        <ele>95.2</ele>
        <time>2024-07-17T09:31:38Z</time>
      </trkpt>
      <trkpt lat="49.99231" lon="2.25868">
        <ele>95.2</ele>
        <time>2024-07-17T09:31:39Z</time>
      </trkpt>
      <trkpt lat="49.9923" lon="2.25867">
        <ele>95.2</ele>
        <time>2024-07-17T09:31:40Z</time>
      </trkpt>
      <trkpt lat="49.99229" lon="2.25867">
        <ele>95.2</ele>
        <time>2024-07-17T09:31:41Z</time>
      </trkpt>
      <trkpt lat="49.99228" lon="2.25868">
        <ele>95.2</ele>
        <time>2024-07-17T09:31:42Z</time>
      </trkpt>
      <trkpt lat="49.99226" lon="2.25868">
        <ele>95.2</ele>
        <time>2024-07-17T09:31:43Z</time>
      </trkpt>
      <trkpt lat="49.99225" lon="2.25868">
        <ele>95.2</ele>
        <time>2024-07-17T09:31:44Z</time>
      </trkpt>
      <trkpt lat="49.99223" lon="2.25869">
        <ele>95.3</ele>
        <time>2024-07-17T09:31:45Z</time>
      </trkpt>
      <trkpt lat="49.99222" lon="2.25869">
        <ele>95.3</ele>
        <time>2024-07-17T09:31:46Z</time>
      </trkpt>
      <trkpt lat="49.9922" lon="2.2587">
        <ele>95.3</ele>
        <time>2024-07-17T09:31:47Z</time>
      </trkpt>
      <trkpt lat="49.99219" lon="2.25871">
        <ele>95.3</ele>
        <time>2024-07-17T09:31:48Z</time>
      </trkpt>
      <trkpt lat="49.99217" lon="2.25871">
        <ele>95.3</ele>
        <time>2024-07-17T09:31:49Z</time>
      </trkpt>
      <trkpt lat="49.99215" lon="2.25872">
        <ele>95.3</ele>
        <time>2024-07-17T09:31:50Z</time>
      </trkpt>
      <trkpt lat="49.99215" lon="2.25872">
        <ele>95.3</ele>
        <time>2024-07-17T09:31:51Z</time>
      </trkpt>
      <trkpt lat="49.99214" lon="2.25873">
        <ele>95.3</ele>
        <time>2024-07-17T09:31:52Z</time>
      </trkpt>
      <trkpt lat="49.99213" lon="2.25873">
        <ele>95.3</ele>
        <time>2024-07-17T09:31:53Z</time>
      </trkpt>
      <trkpt lat="49.99212" lon="2.25874">
        <ele>95.3</ele>
        <time>2024-07-17T09:31:54Z</time>
      </trkpt>
      <trkpt lat="49.99211" lon="2.25874">
        <ele>95.3</ele>
        <time>2024-07-17T09:31:55Z</time>
      </trkpt>
      <trkpt lat="49.9921" lon="2.25875">
        <ele>95.3</ele>
        <time>2024-07-17T09:31:56Z</time>
      </trkpt>
      <trkpt lat="49.99208" lon="2.25875">
        <ele>95.3</ele>
        <time>2024-07-17T09:31:57Z</time>
      </trkpt>
      <trkpt lat="49.99207" lon="2.25876">
        <ele>95.3</ele>
        <time>2024-07-17T09:31:58Z</time>
      </trkpt>
      <trkpt lat="49.99206" lon="2.25876">
        <ele>95.3</ele>
        <time>2024-07-17T09:31:59Z</time>
      </trkpt>
      <trkpt lat="49.99205" lon="2.25877">
        <ele>95.3</ele>
        <time>2024-07-17T09:32:00Z</time>
      </trkpt>
      <trkpt lat="49.99204" lon="2.25878">
        <ele>95.3</ele>
        <time>2024-07-17T09:32:01Z</time>
      </trkpt>
      <trkpt lat="49.99204" lon="2.25878">
        <ele>95.3</ele>
        <time>2024-07-17T09:32:02Z</time>
      </trkpt>
      <trkpt lat="49.99203" lon="2.25878">
        <ele>95.3</ele>
        <time>2024-07-17T09:32:03Z</time>
      </trkpt>
      <trkpt lat="49.99202" lon="2.25879">
        <ele>95.3</ele>
        <time>2024-07-17T09:32:04Z</time>
      </trkpt>
      <trkpt lat="49.99201" lon="2.25879">
        <ele>95.3</ele>
        <time>2024-07-17T09:32:05Z</time>
      </trkpt>
      <trkpt lat="49.992" lon="2.2588">
        <ele>95.3</ele>
        <time>2024-07-17T09:32:06Z</time>
      </trkpt>
      <trkpt lat="49.99199" lon="2.2588">
        <ele>95.3</ele>
        <time>2024-07-17T09:32:07Z</time>
      </trkpt>
      <trkpt lat="49.99198" lon="2.25881">
        <ele>95.3</ele>
        <time>2024-07-17T09:32:08Z</time>
      </trkpt>
      <trkpt lat="49.99198" lon="2.25881">
        <ele>95.3</ele>
        <time>2024-07-17T09:32:09Z</time>
      </trkpt>
      <trkpt lat="49.99197" lon="2.25881">
        <ele>95.3</ele>
        <time>2024-07-17T09:32:10Z</time>
      </trkpt>
      <trkpt lat="49.99196" lon="2.25882">
        <ele>95.3</ele>
        <time>2024-07-17T09:32:11Z</time>
      </trkpt>
      <trkpt lat="49.99196" lon="2.25882">
        <ele>95.3</ele>
        <time>2024-07-17T09:32:12Z</time>
      </trkpt>
      <trkpt lat="49.99195" lon="2.25882">
        <ele>95.3</ele>
        <time>2024-07-17T09:32:13Z</time>
      </trkpt>
      <trkpt lat="49.99194" lon="2.25882">
        <ele>95.3</ele>
        <time>2024-07-17T09:32:14Z</time>
      </trkpt>
      <trkpt lat="49.99194" lon="2.25882">
        <ele>95.3</ele>
        <time>2024-07-17T09:32:15Z</time>
      </trkpt>
      <trkpt lat="49.99193" lon="2.25882">
        <ele>95.3</ele>
        <time>2024-07-17T09:32:16Z</time>
      </trkpt>
      <trkpt lat="49.99191" lon="2.25882">
        <ele>95.3</ele>
        <time>2024-07-17T09:32:17Z</time>
      </trkpt>
      <trkpt lat="49.9919" lon="2.25882">
        <ele>95.3</ele>
        <time>2024-07-17T09:32:18Z</time>
      </trkpt>
      <trkpt lat="49.9919" lon="2.25882">
        <ele>95.3</ele>
        <time>2024-07-17T09:32:19Z</time>
      </trkpt>
      <trkpt lat="49.99189" lon="2.25882">
        <ele>95.3</ele>
        <time>2024-07-17T09:32:20Z</time>
      </trkpt>
      <trkpt lat="49.99188" lon="2.25882">
        <ele>95.3</ele>
        <time>2024-07-17T09:32:21Z</time>
      </trkpt>
      <trkpt lat="49.99187" lon="2.25881">
        <ele>95.3</ele>
        <time>2024-07-17T09:32:22Z</time>
      </trkpt>
      <trkpt lat="49.99186" lon="2.25881">
        <ele>95.3</ele>
        <time>2024-07-17T09:32:23Z</time>
      </trkpt>
      <trkpt lat="49.99185" lon="2.25881">
        <ele>95.3</ele>
        <time>2024-07-17T09:32:24Z</time>
      </trkpt>
      <trkpt lat="49.99184" lon="2.25881">
        <ele>95.3</ele>
        <time>2024-07-17T09:32:25Z</time>
      </trkpt>
      <trkpt lat="49.99184" lon="2.25881">
        <ele>95.3</ele>
        <time>2024-07-17T09:32:26Z</time>
      </trkpt>
      <trkpt lat="49.99183" lon="2.25881">
        <ele>95.3</ele>
        <time>2024-07-17T09:32:27Z</time>
      </trkpt>
      <trkpt lat="49.99182" lon="2.25881">
        <ele>95.3</ele>
        <time>2024-07-17T09:32:28Z</time>
      </trkpt>
      <trkpt lat="49.99181" lon="2.25881">
        <ele>95.3</ele>
        <time>2024-07-17T09:32:29Z</time>
      </trkpt>
      <trkpt lat="49.9918" lon="2.25881">
        <ele>95.3</ele>
        <time>2024-07-17T09:32:30Z</time>
      </trkpt>
      <trkpt lat="49.99179" lon="2.25882">
        <ele>95.3</ele>
        <time>2024-07-17T09:32:31Z</time>
      </trkpt>
      <trkpt lat="49.99178" lon="2.25882">
        <ele>95.3</ele>
        <time>2024-07-17T09:32:32Z</time>
      </trkpt>
      <trkpt lat="49.99176" lon="2.25882">
        <ele>95.2</ele>
        <time>2024-07-17T09:32:33Z</time>
      </trkpt>
      <trkpt lat="49.99175" lon="2.25882">
        <ele>95.2</ele>
        <time>2024-07-17T09:32:35Z</time>
      </trkpt>
      <trkpt lat="49.99174" lon="2.25883">
        <ele>95.2</ele>
        <time>2024-07-17T09:32:36Z</time>
      </trkpt>
      <trkpt lat="49.99173" lon="2.25883">
        <ele>95.2</ele>
        <time>2024-07-17T09:32:37Z</time>
      </trkpt>
      <trkpt lat="49.99172" lon="2.25883">
        <ele>95.2</ele>
        <time>2024-07-17T09:32:38Z</time>
      </trkpt>
      <trkpt lat="49.99171" lon="2.25882">
        <ele>95.2</ele>
        <time>2024-07-17T09:32:39Z</time>
      </trkpt>
      <trkpt lat="49.9917" lon="2.25883">
        <ele>95.2</ele>
        <time>2024-07-17T09:32:40Z</time>
      </trkpt>
      <trkpt lat="49.99169" lon="2.25882">
        <ele>95.2</ele>
        <time>2024-07-17T09:32:41Z</time>
      </trkpt>
      <trkpt lat="49.99168" lon="2.25882">
        <ele>95.2</ele>
        <time>2024-07-17T09:32:42Z</time>
      </trkpt>
      <trkpt lat="49.99167" lon="2.25882">
        <ele>95.2</ele>
        <time>2024-07-17T09:32:43Z</time>
      </trkpt>
      <trkpt lat="49.99166" lon="2.25882">
        <ele>95.2</ele>
        <time>2024-07-17T09:32:44Z</time>
      </trkpt>
      <trkpt lat="49.99165" lon="2.25882">
        <ele>95.2</ele>
        <time>2024-07-17T09:32:45Z</time>
      </trkpt>
      <trkpt lat="49.99164" lon="2.25881">
        <ele>95.2</ele>
        <time>2024-07-17T09:32:46Z</time>
      </trkpt>
      <trkpt lat="49.99164" lon="2.25881">
        <ele>95.2</ele>
        <time>2024-07-17T09:32:47Z</time>
      </trkpt>
      <trkpt lat="49.99163" lon="2.25881">
        <ele>95.2</ele>
        <time>2024-07-17T09:32:48Z</time>
      </trkpt>
      <trkpt lat="49.99162" lon="2.2588">
        <ele>95.2</ele>
        <time>2024-07-17T09:32:49Z</time>
      </trkpt>
      <trkpt lat="49.99161" lon="2.2588">
        <ele>95.2</ele>
        <time>2024-07-17T09:32:50Z</time>
      </trkpt>
      <trkpt lat="49.9916" lon="2.25879">
        <ele>95.2</ele>
        <time>2024-07-17T09:32:51Z</time>
      </trkpt>
      <trkpt lat="49.99159" lon="2.25878">
        <ele>95.1</ele>
        <time>2024-07-17T09:32:52Z</time>
      </trkpt>
      <trkpt lat="49.99158" lon="2.25877">
        <ele>95.1</ele>
        <time>2024-07-17T09:32:53Z</time>
      </trkpt>
      <trkpt lat="49.99158" lon="2.25875">
        <ele>95.1</ele>
        <time>2024-07-17T09:32:54Z</time>
      </trkpt>
      <trkpt lat="49.99157" lon="2.25874">
        <ele>95.1</ele>
        <time>2024-07-17T09:32:55Z</time>
      </trkpt>
      <trkpt lat="49.99156" lon="2.25873">
        <ele>95.1</ele>
        <time>2024-07-17T09:32:56Z</time>
      </trkpt>
      <trkpt lat="49.99155" lon="2.25872">
        <ele>95.1</ele>
        <time>2024-07-17T09:32:57Z</time>
      </trkpt>
      <trkpt lat="49.99154" lon="2.25871">
        <ele>95.1</ele>
        <time>2024-07-17T09:32:58Z</time>
      </trkpt>
      <trkpt lat="49.99153" lon="2.25871">
        <ele>95.1</ele>
        <time>2024-07-17T09:32:59Z</time>
      </trkpt>
      <trkpt lat="49.99152" lon="2.2587">
        <ele>95.1</ele>
        <time>2024-07-17T09:33:00Z</time>
      </trkpt>
      <trkpt lat="49.99151" lon="2.25869">
        <ele>95.1</ele>
        <time>2024-07-17T09:33:01Z</time>
      </trkpt>
      <trkpt lat="49.9915" lon="2.25868">
        <ele>95.1</ele>
        <time>2024-07-17T09:33:02Z</time>
      </trkpt>
      <trkpt lat="49.99149" lon="2.25868">
        <ele>95.1</ele>
        <time>2024-07-17T09:33:03Z</time>
      </trkpt>
      <trkpt lat="49.99148" lon="2.25868">
        <ele>95.1</ele>
        <time>2024-07-17T09:33:04Z</time>
      </trkpt>
      <trkpt lat="49.99147" lon="2.25867">
        <ele>95.1</ele>
        <time>2024-07-17T09:33:05Z</time>
      </trkpt>
      <trkpt lat="49.99146" lon="2.25867">
        <ele>95.1</ele>
        <time>2024-07-17T09:33:06Z</time>
      </trkpt>
      <trkpt lat="49.99145" lon="2.25866">
        <ele>95.1</ele>
        <time>2024-07-17T09:33:07Z</time>
      </trkpt>
      <trkpt lat="49.99143" lon="2.25865">
        <ele>95</ele>
        <time>2024-07-17T09:33:08Z</time>
      </trkpt>
      <trkpt lat="49.99142" lon="2.25865">
        <ele>95</ele>
        <time>2024-07-17T09:33:09Z</time>
      </trkpt>
      <trkpt lat="49.9914" lon="2.25865">
        <ele>95</ele>
        <time>2024-07-17T09:33:10Z</time>
      </trkpt>
      <trkpt lat="49.99139" lon="2.25865">
        <ele>95</ele>
        <time>2024-07-17T09:33:11Z</time>
      </trkpt>
      <trkpt lat="49.99138" lon="2.25864">
        <ele>95</ele>
        <time>2024-07-17T09:33:12Z</time>
      </trkpt>
      <trkpt lat="49.99137" lon="2.25864">
        <ele>95</ele>
        <time>2024-07-17T09:33:13Z</time>
      </trkpt>
      <trkpt lat="49.99136" lon="2.25864">
        <ele>95</ele>
        <time>2024-07-17T09:33:14Z</time>
      </trkpt>
      <trkpt lat="49.99135" lon="2.25864">
        <ele>95</ele>
        <time>2024-07-17T09:33:15Z</time>
      </trkpt>
      <trkpt lat="49.99133" lon="2.25864">
        <ele>95</ele>
        <time>2024-07-17T09:33:16Z</time>
      </trkpt>
      <trkpt lat="49.99132" lon="2.25864">
        <ele>95</ele>
        <time>2024-07-17T09:33:17Z</time>
      </trkpt>
      <trkpt lat="49.9913" lon="2.25865">
        <ele>95</ele>
        <time>2024-07-17T09:33:18Z</time>
      </trkpt>
      <trkpt lat="49.99129" lon="2.25865">
        <ele>95</ele>
        <time>2024-07-17T09:33:19Z</time>
      </trkpt>
      <trkpt lat="49.99128" lon="2.25865">
        <ele>95</ele>
        <time>2024-07-17T09:33:20Z</time>
      </trkpt>
      <trkpt lat="49.99127" lon="2.25866">
        <ele>94.9</ele>
        <time>2024-07-17T09:33:21Z</time>
      </trkpt>
      <trkpt lat="49.99126" lon="2.25866">
        <ele>94.9</ele>
        <time>2024-07-17T09:33:22Z</time>
      </trkpt>
      <trkpt lat="49.99125" lon="2.25867">
        <ele>94.9</ele>
        <time>2024-07-17T09:33:23Z</time>
      </trkpt>
      <trkpt lat="49.99123" lon="2.25868">
        <ele>94.9</ele>
        <time>2024-07-17T09:33:24Z</time>
      </trkpt>
      <trkpt lat="49.99122" lon="2.25869">
        <ele>94.9</ele>
        <time>2024-07-17T09:33:25Z</time>
      </trkpt>
      <trkpt lat="49.99121" lon="2.2587">
        <ele>94.9</ele>
        <time>2024-07-17T09:33:26Z</time>
      </trkpt>
      <trkpt lat="49.99119" lon="2.25871">
        <ele>94.9</ele>
        <time>2024-07-17T09:33:27Z</time>
      </trkpt>
      <trkpt lat="49.99119" lon="2.25872">
        <ele>94.9</ele>
        <time>2024-07-17T09:33:28Z</time>
      </trkpt>
      <trkpt lat="49.99118" lon="2.25872">
        <ele>94.9</ele>
        <time>2024-07-17T09:33:29Z</time>
      </trkpt>
      <trkpt lat="49.99117" lon="2.25873">
        <ele>94.9</ele>
        <time>2024-07-17T09:33:30Z</time>
      </trkpt>
      <trkpt lat="49.99116" lon="2.25874">
        <ele>94.9</ele>
        <time>2024-07-17T09:33:31Z</time>
      </trkpt>
      <trkpt lat="49.99115" lon="2.25874">
        <ele>94.9</ele>
        <time>2024-07-17T09:33:32Z</time>
      </trkpt>
      <trkpt lat="49.99113" lon="2.25876">
        <ele>94.9</ele>
        <time>2024-07-17T09:33:33Z</time>
      </trkpt>
      <trkpt lat="49.99112" lon="2.25877">
        <ele>94.9</ele>
        <time>2024-07-17T09:33:34Z</time>
      </trkpt>
      <trkpt lat="49.99111" lon="2.25877">
        <ele>94.8</ele>
        <time>2024-07-17T09:33:35Z</time>
      </trkpt>
      <trkpt lat="49.9911" lon="2.25878">
        <ele>94.8</ele>
        <time>2024-07-17T09:33:36Z</time>
      </trkpt>
      <trkpt lat="49.99109" lon="2.25879">
        <ele>94.8</ele>
        <time>2024-07-17T09:33:37Z</time>
      </trkpt>
      <trkpt lat="49.99108" lon="2.25879">
        <ele>94.8</ele>
        <time>2024-07-17T09:33:38Z</time>
      </trkpt>
      <trkpt lat="49.99107" lon="2.2588">
        <ele>94.8</ele>
        <time>2024-07-17T09:33:39Z</time>
      </trkpt>
      <trkpt lat="49.99106" lon="2.25881">
        <ele>94.8</ele>
        <time>2024-07-17T09:33:40Z</time>
      </trkpt>
      <trkpt lat="49.99105" lon="2.25881">
        <ele>94.8</ele>
        <time>2024-07-17T09:33:41Z</time>
      </trkpt>
      <trkpt lat="49.99104" lon="2.25882">
        <ele>94.8</ele>
        <time>2024-07-17T09:33:42Z</time>
      </trkpt>
      <trkpt lat="49.99103" lon="2.25883">
        <ele>94.8</ele>
        <time>2024-07-17T09:33:43Z</time>
      </trkpt>
      <trkpt lat="49.99102" lon="2.25883">
        <ele>94.8</ele>
        <time>2024-07-17T09:33:44Z</time>
      </trkpt>
      <trkpt lat="49.99101" lon="2.25884">
        <ele>94.8</ele>
        <time>2024-07-17T09:33:45Z</time>
      </trkpt>
      <trkpt lat="49.99101" lon="2.25884">
        <ele>94.8</ele>
        <time>2024-07-17T09:33:46Z</time>
      </trkpt>
      <trkpt lat="49.991" lon="2.25884">
        <ele>94.8</ele>
        <time>2024-07-17T09:33:47Z</time>
      </trkpt>
      <trkpt lat="49.99099" lon="2.25884">
        <ele>94.7</ele>
        <time>2024-07-17T09:33:48Z</time>
      </trkpt>
      <trkpt lat="49.99098" lon="2.25885">
        <ele>94.7</ele>
        <time>2024-07-17T09:33:49Z</time>
      </trkpt>
      <trkpt lat="49.99097" lon="2.25885">
        <ele>94.7</ele>
        <time>2024-07-17T09:33:50Z</time>
      </trkpt>
      <trkpt lat="49.99097" lon="2.25885">
        <ele>94.7</ele>
        <time>2024-07-17T09:33:51Z</time>
      </trkpt>
      <trkpt lat="49.99096" lon="2.25885">
        <ele>94.7</ele>
        <time>2024-07-17T09:33:52Z</time>
      </trkpt>
      <trkpt lat="49.99095" lon="2.25885">
        <ele>94.7</ele>
        <time>2024-07-17T09:33:53Z</time>
      </trkpt>
      <trkpt lat="49.99093" lon="2.25885">
        <ele>94.7</ele>
        <time>2024-07-17T09:33:54Z</time>
      </trkpt>
      <trkpt lat="49.99092" lon="2.25886">
        <ele>94.7</ele>
        <time>2024-07-17T09:33:55Z</time>
      </trkpt>
      <trkpt lat="49.99091" lon="2.25886">
        <ele>94.7</ele>
        <time>2024-07-17T09:33:56Z</time>
      </trkpt>
      <trkpt lat="49.9909" lon="2.25886">
        <ele>94.7</ele>
        <time>2024-07-17T09:33:57Z</time>
      </trkpt>
      <trkpt lat="49.99089" lon="2.25887">
        <ele>94.7</ele>
        <time>2024-07-17T09:33:58Z</time>
      </trkpt>
      <trkpt lat="49.99088" lon="2.25888">
        <ele>94.7</ele>
        <time>2024-07-17T09:33:59Z</time>
      </trkpt>
      <trkpt lat="49.99088" lon="2.2589">
        <ele>94.7</ele>
        <time>2024-07-17T09:34:00Z</time>
      </trkpt>
      <trkpt lat="49.99087" lon="2.25891">
        <ele>94.7</ele>
        <time>2024-07-17T09:34:01Z</time>
      </trkpt>
      <trkpt lat="49.99086" lon="2.25892">
        <ele>94.8</ele>
        <time>2024-07-17T09:34:02Z</time>
      </trkpt>
      <trkpt lat="49.99085" lon="2.25893">
        <ele>94.8</ele>
        <time>2024-07-17T09:34:03Z</time>
      </trkpt>
      <trkpt lat="49.99084" lon="2.25894">
        <ele>94.8</ele>
        <time>2024-07-17T09:34:04Z</time>
      </trkpt>
      <trkpt lat="49.99083" lon="2.25895">
        <ele>94.8</ele>
        <time>2024-07-17T09:34:05Z</time>
      </trkpt>
      <trkpt lat="49.99082" lon="2.25895">
        <ele>94.8</ele>
        <time>2024-07-17T09:34:06Z</time>
      </trkpt>
      <trkpt lat="49.99081" lon="2.25896">
        <ele>94.8</ele>
        <time>2024-07-17T09:34:07Z</time>
      </trkpt>
      <trkpt lat="49.9908" lon="2.25897">
        <ele>94.8</ele>
        <time>2024-07-17T09:34:08Z</time>
      </trkpt>
      <trkpt lat="49.9908" lon="2.25897">
        <ele>94.8</ele>
        <time>2024-07-17T09:34:09Z</time>
      </trkpt>
      <trkpt lat="49.99079" lon="2.25898">
        <ele>94.8</ele>
        <time>2024-07-17T09:34:10Z</time>
      </trkpt>
      <trkpt lat="49.99079" lon="2.25899">
        <ele>94.8</ele>
        <time>2024-07-17T09:34:11Z</time>
      </trkpt>
      <trkpt lat="49.99078" lon="2.25899">
        <ele>94.8</ele>
        <time>2024-07-17T09:34:12Z</time>
      </trkpt>
      <trkpt lat="49.99078" lon="2.259">
        <ele>94.8</ele>
        <time>2024-07-17T09:34:13Z</time>
      </trkpt>
      <trkpt lat="49.99077" lon="2.25901">
        <ele>94.8</ele>
        <time>2024-07-17T09:34:14Z</time>
      </trkpt>
      <trkpt lat="49.99077" lon="2.25902">
        <ele>94.8</ele>
        <time>2024-07-17T09:34:15Z</time>
      </trkpt>
      <trkpt lat="49.99076" lon="2.25903">
        <ele>94.8</ele>
        <time>2024-07-17T09:34:16Z</time>
      </trkpt>
      <trkpt lat="49.99076" lon="2.25903">
        <ele>94.8</ele>
        <time>2024-07-17T09:34:17Z</time>
      </trkpt>
      <trkpt lat="49.99075" lon="2.25905">
        <ele>94.8</ele>
        <time>2024-07-17T09:34:18Z</time>
      </trkpt>
      <trkpt lat="49.99074" lon="2.25906">
        <ele>94.8</ele>
        <time>2024-07-17T09:34:19Z</time>
      </trkpt>
      <trkpt lat="49.99074" lon="2.25907">
        <ele>94.8</ele>
        <time>2024-07-17T09:34:20Z</time>
      </trkpt>
      <trkpt lat="49.99073" lon="2.25908">
        <ele>94.8</ele>
        <time>2024-07-17T09:34:21Z</time>
      </trkpt>
      <trkpt lat="49.99073" lon="2.25909">
        <ele>94.8</ele>
        <time>2024-07-17T09:34:22Z</time>
      </trkpt>
      <trkpt lat="49.99072" lon="2.25911">
        <ele>94.8</ele>
        <time>2024-07-17T09:34:23Z</time>
      </trkpt>
      <trkpt lat="49.99072" lon="2.25912">
        <ele>94.8</ele>
        <time>2024-07-17T09:34:24Z</time>
      </trkpt>
      <trkpt lat="49.99072" lon="2.25913">
        <ele>94.8</ele>
        <time>2024-07-17T09:34:25Z</time>
      </trkpt>
      <trkpt lat="49.99071" lon="2.25915">
        <ele>94.8</ele>
        <time>2024-07-17T09:34:26Z</time>
      </trkpt>
      <trkpt lat="49.99071" lon="2.25916">
        <ele>94.8</ele>
        <time>2024-07-17T09:34:27Z</time>
      </trkpt>
      <trkpt lat="49.9907" lon="2.25917">
        <ele>94.8</ele>
        <time>2024-07-17T09:34:28Z</time>
      </trkpt>
      <trkpt lat="49.99069" lon="2.25918">
        <ele>94.8</ele>
        <time>2024-07-17T09:34:29Z</time>
      </trkpt>
      <trkpt lat="49.99069" lon="2.25919">
        <ele>94.8</ele>
        <time>2024-07-17T09:34:30Z</time>
      </trkpt>
      <trkpt lat="49.99068" lon="2.2592">
        <ele>94.8</ele>
        <time>2024-07-17T09:34:31Z</time>
      </trkpt>
      <trkpt lat="49.99067" lon="2.25921">
        <ele>94.8</ele>
        <time>2024-07-17T09:34:32Z</time>
      </trkpt>
      <trkpt lat="49.99067" lon="2.25922">
        <ele>94.8</ele>
        <time>2024-07-17T09:34:33Z</time>
      </trkpt>
      <trkpt lat="49.99066" lon="2.25923">
        <ele>94.8</ele>
        <time>2024-07-17T09:34:34Z</time>
      </trkpt>
      <trkpt lat="49.99065" lon="2.25924">
        <ele>94.8</ele>
        <time>2024-07-17T09:34:35Z</time>
      </trkpt>
      <trkpt lat="49.99064" lon="2.25925">
        <ele>94.8</ele>
        <time>2024-07-17T09:34:36Z</time>
      </trkpt>
      <trkpt lat="49.99064" lon="2.25926">
        <ele>94.8</ele>
        <time>2024-07-17T09:34:37Z</time>
      </trkpt>
      <trkpt lat="49.99063" lon="2.25927">
        <ele>94.8</ele>
        <time>2024-07-17T09:34:38Z</time>
      </trkpt>
      <trkpt lat="49.99063" lon="2.25928">
        <ele>94.8</ele>
        <time>2024-07-17T09:34:39Z</time>
      </trkpt>
      <trkpt lat="49.99062" lon="2.25929">
        <ele>94.8</ele>
        <time>2024-07-17T09:34:40Z</time>
      </trkpt>
      <trkpt lat="49.99061" lon="2.2593">
        <ele>94.8</ele>
        <time>2024-07-17T09:34:41Z</time>
      </trkpt>
      <trkpt lat="49.99061" lon="2.25931">
        <ele>94.8</ele>
        <time>2024-07-17T09:34:42Z</time>
      </trkpt>
      <trkpt lat="49.9906" lon="2.25932">
        <ele>94.8</ele>
        <time>2024-07-17T09:34:43Z</time>
      </trkpt>
      <trkpt lat="49.99059" lon="2.25933">
        <ele>94.8</ele>
        <time>2024-07-17T09:34:44Z</time>
      </trkpt>
      <trkpt lat="49.99059" lon="2.25934">
        <ele>94.8</ele>
        <time>2024-07-17T09:34:45Z</time>
      </trkpt>
      <trkpt lat="49.99058" lon="2.25936">
        <ele>94.8</ele>
        <time>2024-07-17T09:34:46Z</time>
      </trkpt>
      <trkpt lat="49.99057" lon="2.25937">
        <ele>94.8</ele>
        <time>2024-07-17T09:34:47Z</time>
      </trkpt>
      <trkpt lat="49.99057" lon="2.25938">
        <ele>94.8</ele>
        <time>2024-07-17T09:34:48Z</time>
      </trkpt>
      <trkpt lat="49.99056" lon="2.2594">
        <ele>94.7</ele>
        <time>2024-07-17T09:34:49Z</time>
      </trkpt>
      <trkpt lat="49.99055" lon="2.25941">
        <ele>94.7</ele>
        <time>2024-07-17T09:34:50Z</time>
      </trkpt>
      <trkpt lat="49.99055" lon="2.25942">
        <ele>94.7</ele>
        <time>2024-07-17T09:34:51Z</time>
      </trkpt>
      <trkpt lat="49.99054" lon="2.25944">
        <ele>94.7</ele>
        <time>2024-07-17T09:34:52Z</time>
      </trkpt>
      <trkpt lat="49.99053" lon="2.25945">
        <ele>94.7</ele>
        <time>2024-07-17T09:34:53Z</time>
      </trkpt>
      <trkpt lat="49.99053" lon="2.25947">
        <ele>94.7</ele>
        <time>2024-07-17T09:34:54Z</time>
      </trkpt>
      <trkpt lat="49.99052" lon="2.25948">
        <ele>94.7</ele>
        <time>2024-07-17T09:34:55Z</time>
      </trkpt>
      <trkpt lat="49.99051" lon="2.25949">
        <ele>94.7</ele>
        <time>2024-07-17T09:34:56Z</time>
      </trkpt>
      <trkpt lat="49.9905" lon="2.25951">
        <ele>94.6</ele>
        <time>2024-07-17T09:34:57Z</time>
      </trkpt>
      <trkpt lat="49.99049" lon="2.25952">
        <ele>94.6</ele>
        <time>2024-07-17T09:34:58Z</time>
      </trkpt>
      <trkpt lat="49.99049" lon="2.25953">
        <ele>94.6</ele>
        <time>2024-07-17T09:34:59Z</time>
      </trkpt>
      <trkpt lat="49.99048" lon="2.25954">
        <ele>94.6</ele>
        <time>2024-07-17T09:35:00Z</time>
      </trkpt>
      <trkpt lat="49.99047" lon="2.25955">
        <ele>94.6</ele>
        <time>2024-07-17T09:35:01Z</time>
      </trkpt>
      <trkpt lat="49.99046" lon="2.25957">
        <ele>94.6</ele>
        <time>2024-07-17T09:35:02Z</time>
      </trkpt>
      <trkpt lat="49.99044" lon="2.25959">
        <ele>94.6</ele>
        <time>2024-07-17T09:35:03Z</time>
      </trkpt>
      <trkpt lat="49.99044" lon="2.2596">
        <ele>94.6</ele>
        <time>2024-07-17T09:35:04Z</time>
      </trkpt>
      <trkpt lat="49.99043" lon="2.25961">
        <ele>94.6</ele>
        <time>2024-07-17T09:35:05Z</time>
      </trkpt>
      <trkpt lat="49.99042" lon="2.25962">
        <ele>94.6</ele>
        <time>2024-07-17T09:35:06Z</time>
      </trkpt>
      <trkpt lat="49.99041" lon="2.25964">
        <ele>94.6</ele>
        <time>2024-07-17T09:35:07Z</time>
      </trkpt>
      <trkpt lat="49.9904" lon="2.25966">
        <ele>94.6</ele>
        <time>2024-07-17T09:35:08Z</time>
      </trkpt>
      <trkpt lat="49.99039" lon="2.25966">
        <ele>94.6</ele>
        <time>2024-07-17T09:35:09Z</time>
      </trkpt>
      <trkpt lat="49.99038" lon="2.25967">
        <ele>94.6</ele>
        <time>2024-07-17T09:35:10Z</time>
      </trkpt>
      <trkpt lat="49.99036" lon="2.2597">
        <ele>94.6</ele>
        <time>2024-07-17T09:35:11Z</time>
      </trkpt>
      <trkpt lat="49.99036" lon="2.2597">
        <ele>94.6</ele>
        <time>2024-07-17T09:35:12Z</time>
      </trkpt>
      <trkpt lat="49.99035" lon="2.25971">
        <ele>94.6</ele>
        <time>2024-07-17T09:35:13Z</time>
      </trkpt>
      <trkpt lat="49.99033" lon="2.25974">
        <ele>94.6</ele>
        <time>2024-07-17T09:35:14Z</time>
      </trkpt>
      <trkpt lat="49.99032" lon="2.25974">
        <ele>94.6</ele>
        <time>2024-07-17T09:35:15Z</time>
      </trkpt>
      <trkpt lat="49.99032" lon="2.25975">
        <ele>94.6</ele>
        <time>2024-07-17T09:35:16Z</time>
      </trkpt>
      <trkpt lat="49.9903" lon="2.25977">
        <ele>94.6</ele>
        <time>2024-07-17T09:35:17Z</time>
      </trkpt>
      <trkpt lat="49.99029" lon="2.25978">
        <ele>94.6</ele>
        <time>2024-07-17T09:35:18Z</time>
      </trkpt>
      <trkpt lat="49.99029" lon="2.25978">
        <ele>94.6</ele>
        <time>2024-07-17T09:35:19Z</time>
      </trkpt>
      <trkpt lat="49.99027" lon="2.25979">
        <ele>94.6</ele>
        <time>2024-07-17T09:35:20Z</time>
      </trkpt>
      <trkpt lat="49.99026" lon="2.2598">
        <ele>94.6</ele>
        <time>2024-07-17T09:35:21Z</time>
      </trkpt>
      <trkpt lat="49.99026" lon="2.25981">
        <ele>94.6</ele>
        <time>2024-07-17T09:35:22Z</time>
      </trkpt>
      <trkpt lat="49.99025" lon="2.25982">
        <ele>94.6</ele>
        <time>2024-07-17T09:35:23Z</time>
      </trkpt>
      <trkpt lat="49.99024" lon="2.25983">
        <ele>94.6</ele>
        <time>2024-07-17T09:35:24Z</time>
      </trkpt>
      <trkpt lat="49.99023" lon="2.25984">
        <ele>94.6</ele>
        <time>2024-07-17T09:35:25Z</time>
      </trkpt>
      <trkpt lat="49.99022" lon="2.25985">
        <ele>94.6</ele>
        <time>2024-07-17T09:35:26Z</time>
      </trkpt>
      <trkpt lat="49.99021" lon="2.25986">
        <ele>94.6</ele>
        <time>2024-07-17T09:35:27Z</time>
      </trkpt>
      <trkpt lat="49.9902" lon="2.25987">
        <ele>94.6</ele>
        <time>2024-07-17T09:35:28Z</time>
      </trkpt>
      <trkpt lat="49.9902" lon="2.25987">
        <ele>94.6</ele>
        <time>2024-07-17T09:35:29Z</time>
      </trkpt>
      <trkpt lat="49.99019" lon="2.25988">
        <ele>94.6</ele>
        <time>2024-07-17T09:35:30Z</time>
      </trkpt>
      <trkpt lat="49.99018" lon="2.25989">
        <ele>94.7</ele>
        <time>2024-07-17T09:35:31Z</time>
      </trkpt>
      <trkpt lat="49.99018" lon="2.2599">
        <ele>94.7</ele>
        <time>2024-07-17T09:35:32Z</time>
      </trkpt>
      <trkpt lat="49.99017" lon="2.2599">
        <ele>94.6</ele>
        <time>2024-07-17T09:35:33Z</time>
      </trkpt>
      <trkpt lat="49.99016" lon="2.2599">
        <ele>94.6</ele>
        <time>2024-07-17T09:35:34Z</time>
      </trkpt>
      <trkpt lat="49.99015" lon="2.2599">
        <ele>94.5</ele>
        <time>2024-07-17T09:35:35Z</time>
      </trkpt>
      <trkpt lat="49.99015" lon="2.2599">
        <ele>94.5</ele>
        <time>2024-07-17T09:35:36Z</time>
      </trkpt>
      <trkpt lat="49.99014" lon="2.2599">
        <ele>94.4</ele>
        <time>2024-07-17T09:35:37Z</time>
      </trkpt>
      <trkpt lat="49.99013" lon="2.25989">
        <ele>94.4</ele>
        <time>2024-07-17T09:35:38Z</time>
      </trkpt>
      <trkpt lat="49.99013" lon="2.25989">
        <ele>94.3</ele>
        <time>2024-07-17T09:35:39Z</time>
      </trkpt>
      <trkpt lat="49.99012" lon="2.25989">
        <ele>94.3</ele>
        <time>2024-07-17T09:35:40Z</time>
      </trkpt>
      <trkpt lat="49.99011" lon="2.25988">
        <ele>94.2</ele>
        <time>2024-07-17T09:35:41Z</time>
      </trkpt>
      <trkpt lat="49.9901" lon="2.25988">
        <ele>94.2</ele>
        <time>2024-07-17T09:35:42Z</time>
      </trkpt>
      <trkpt lat="49.99009" lon="2.25988">
        <ele>94.1</ele>
        <time>2024-07-17T09:35:43Z</time>
      </trkpt>
      <trkpt lat="49.99008" lon="2.25988">
        <ele>94.1</ele>
        <time>2024-07-17T09:35:44Z</time>
      </trkpt>
      <trkpt lat="49.99007" lon="2.25988">
        <ele>94</ele>
        <time>2024-07-17T09:35:45Z</time>
      </trkpt>
      <trkpt lat="49.99006" lon="2.25988">
        <ele>94</ele>
        <time>2024-07-17T09:35:46Z</time>
      </trkpt>
      <trkpt lat="49.99005" lon="2.25988">
        <ele>94</ele>
        <time>2024-07-17T09:35:47Z</time>
      </trkpt>
      <trkpt lat="49.99004" lon="2.25987">
        <ele>93.9</ele>
        <time>2024-07-17T09:35:48Z</time>
      </trkpt>
      <trkpt lat="49.99003" lon="2.25987">
        <ele>93.9</ele>
        <time>2024-07-17T09:35:49Z</time>
      </trkpt>
      <trkpt lat="49.99002" lon="2.25987">
        <ele>93.8</ele>
        <time>2024-07-17T09:35:50Z</time>
      </trkpt>
      <trkpt lat="49.99001" lon="2.25987">
        <ele>93.8</ele>
        <time>2024-07-17T09:35:51Z</time>
      </trkpt>
      <trkpt lat="49.99" lon="2.25986">
        <ele>93.8</ele>
        <time>2024-07-17T09:35:52Z</time>
      </trkpt>
      <trkpt lat="49.98999" lon="2.25985">
        <ele>93.7</ele>
        <time>2024-07-17T09:35:53Z</time>
      </trkpt>
      <trkpt lat="49.98998" lon="2.25985">
        <ele>93.7</ele>
        <time>2024-07-17T09:35:54Z</time>
      </trkpt>
      <trkpt lat="49.98998" lon="2.25985">
        <ele>93.7</ele>
        <time>2024-07-17T09:35:55Z</time>
      </trkpt>
      <trkpt lat="49.98997" lon="2.25984">
        <ele>93.6</ele>
        <time>2024-07-17T09:35:56Z</time>
      </trkpt>
      <trkpt lat="49.98996" lon="2.25984">
        <ele>93.6</ele>
        <time>2024-07-17T09:35:57Z</time>
      </trkpt>
      <trkpt lat="49.98995" lon="2.25983">
        <ele>93.6</ele>
        <time>2024-07-17T09:35:58Z</time>
      </trkpt>
      <trkpt lat="49.98994" lon="2.25983">
        <ele>93.5</ele>
        <time>2024-07-17T09:35:59Z</time>
      </trkpt>
      <trkpt lat="49.98993" lon="2.25983">
        <ele>93.5</ele>
        <time>2024-07-17T09:36:00Z</time>
      </trkpt>
      <trkpt lat="49.98992" lon="2.25983">
        <ele>93.5</ele>
        <time>2024-07-17T09:36:01Z</time>
      </trkpt>
      <trkpt lat="49.98991" lon="2.25983">
        <ele>93.4</ele>
        <time>2024-07-17T09:36:02Z</time>
      </trkpt>
      <trkpt lat="49.98991" lon="2.25982">
        <ele>93.4</ele>
        <time>2024-07-17T09:36:03Z</time>
      </trkpt>
      <trkpt lat="49.9899" lon="2.25982">
        <ele>93.4</ele>
        <time>2024-07-17T09:36:04Z</time>
      </trkpt>
      <trkpt lat="49.98989" lon="2.25983">
        <ele>93.3</ele>
        <time>2024-07-17T09:36:05Z</time>
      </trkpt>
      <trkpt lat="49.98988" lon="2.25983">
        <ele>93.3</ele>
        <time>2024-07-17T09:36:06Z</time>
      </trkpt>
      <trkpt lat="49.98987" lon="2.25984">
        <ele>93.4</ele>
        <time>2024-07-17T09:36:07Z</time>
      </trkpt>
      <trkpt lat="49.98986" lon="2.25985">
        <ele>93.4</ele>
        <time>2024-07-17T09:36:08Z</time>
      </trkpt>
      <trkpt lat="49.98985" lon="2.25986">
        <ele>93.4</ele>
        <time>2024-07-17T09:36:09Z</time>
      </trkpt>
      <trkpt lat="49.98984" lon="2.25987">
        <ele>93.4</ele>
        <time>2024-07-17T09:36:10Z</time>
      </trkpt>
      <trkpt lat="49.98984" lon="2.25987">
        <ele>93.4</ele>
        <time>2024-07-17T09:36:11Z</time>
      </trkpt>
      <trkpt lat="49.98983" lon="2.25988">
        <ele>93.4</ele>
        <time>2024-07-17T09:36:12Z</time>
      </trkpt>
      <trkpt lat="49.98982" lon="2.2599">
        <ele>93.4</ele>
        <time>2024-07-17T09:36:13Z</time>
      </trkpt>
      <trkpt lat="49.98982" lon="2.25991">
        <ele>93.4</ele>
        <time>2024-07-17T09:36:14Z</time>
      </trkpt>
      <trkpt lat="49.98982" lon="2.25992">
        <ele>93.4</ele>
        <time>2024-07-17T09:36:15Z</time>
      </trkpt>
      <trkpt lat="49.98981" lon="2.25993">
        <ele>93.4</ele>
        <time>2024-07-17T09:36:16Z</time>
      </trkpt>
      <trkpt lat="49.98981" lon="2.25995">
        <ele>93.5</ele>
        <time>2024-07-17T09:36:17Z</time>
      </trkpt>
      <trkpt lat="49.98981" lon="2.25996">
        <ele>93.5</ele>
        <time>2024-07-17T09:36:18Z</time>
      </trkpt>
      <trkpt lat="49.98981" lon="2.25997">
        <ele>93.5</ele>
        <time>2024-07-17T09:36:19Z</time>
      </trkpt>
      <trkpt lat="49.98981" lon="2.25999">
        <ele>93.5</ele>
        <time>2024-07-17T09:36:20Z</time>
      </trkpt>
      <trkpt lat="49.9898" lon="2.26">
        <ele>93.5</ele>
        <time>2024-07-17T09:36:21Z</time>
      </trkpt>
      <trkpt lat="49.9898" lon="2.26001">
        <ele>93.5</ele>
        <time>2024-07-17T09:36:22Z</time>
      </trkpt>
      <trkpt lat="49.98979" lon="2.26002">
        <ele>93.5</ele>
        <time>2024-07-17T09:36:23Z</time>
      </trkpt>
      <trkpt lat="49.98979" lon="2.26003">
        <ele>93.5</ele>
        <time>2024-07-17T09:36:24Z</time>
      </trkpt>
      <trkpt lat="49.98978" lon="2.26004">
        <ele>93.5</ele>
        <time>2024-07-17T09:36:25Z</time>
      </trkpt>
      <trkpt lat="49.98977" lon="2.26004">
        <ele>93.5</ele>
        <time>2024-07-17T09:36:26Z</time>
      </trkpt>
      <trkpt lat="49.98976" lon="2.26005">
        <ele>93.6</ele>
        <time>2024-07-17T09:36:27Z</time>
      </trkpt>
      <trkpt lat="49.98975" lon="2.26005">
        <ele>93.6</ele>
        <time>2024-07-17T09:36:28Z</time>
      </trkpt>
      <trkpt lat="49.98975" lon="2.26006">
        <ele>93.6</ele>
        <time>2024-07-17T09:36:29Z</time>
      </trkpt>
      <trkpt lat="49.98974" lon="2.26006">
        <ele>93.6</ele>
        <time>2024-07-17T09:36:30Z</time>
      </trkpt>
      <trkpt lat="49.98973" lon="2.26007">
        <ele>93.6</ele>
        <time>2024-07-17T09:36:31Z</time>
      </trkpt>
      <trkpt lat="49.98972" lon="2.26008">
        <ele>93.6</ele>
        <time>2024-07-17T09:36:32Z</time>
      </trkpt>
      <trkpt lat="49.98972" lon="2.26009">
        <ele>93.6</ele>
        <time>2024-07-17T09:36:33Z</time>
      </trkpt>
      <trkpt lat="49.98971" lon="2.2601">
        <ele>93.6</ele>
        <time>2024-07-17T09:36:34Z</time>
      </trkpt>
      <trkpt lat="49.9897" lon="2.26011">
        <ele>93.7</ele>
        <time>2024-07-17T09:36:35Z</time>
      </trkpt>
      <trkpt lat="49.9897" lon="2.26012">
        <ele>93.7</ele>
        <time>2024-07-17T09:36:36Z</time>
      </trkpt>
      <trkpt lat="49.98969" lon="2.26013">
        <ele>93.7</ele>
        <time>2024-07-17T09:36:37Z</time>
      </trkpt>
      <trkpt lat="49.98968" lon="2.26014">
        <ele>93.8</ele>
        <time>2024-07-17T09:36:38Z</time>
      </trkpt>
      <trkpt lat="49.98967" lon="2.26015">
        <ele>93.8</ele>
        <time>2024-07-17T09:36:39Z</time>
      </trkpt>
      <trkpt lat="49.98966" lon="2.26015">
        <ele>93.8</ele>
        <time>2024-07-17T09:36:40Z</time>
      </trkpt>
      <trkpt lat="49.98965" lon="2.26016">
        <ele>93.9</ele>
        <time>2024-07-17T09:36:41Z</time>
      </trkpt>
      <trkpt lat="49.98964" lon="2.26016">
        <ele>93.9</ele>
        <time>2024-07-17T09:36:42Z</time>
      </trkpt>
      <trkpt lat="49.98963" lon="2.26016">
        <ele>93.9</ele>
        <time>2024-07-17T09:36:43Z</time>
      </trkpt>
      <trkpt lat="49.98962" lon="2.26016">
        <ele>94</ele>
        <time>2024-07-17T09:36:44Z</time>
      </trkpt>
      <trkpt lat="49.9896" lon="2.26016">
        <ele>94</ele>
        <time>2024-07-17T09:36:45Z</time>
      </trkpt>
      <trkpt lat="49.98959" lon="2.26017">
        <ele>94.1</ele>
        <time>2024-07-17T09:36:46Z</time>
      </trkpt>
      <trkpt lat="49.98958" lon="2.26017">
        <ele>94.1</ele>
        <time>2024-07-17T09:36:47Z</time>
      </trkpt>
      <trkpt lat="49.98957" lon="2.26017">
        <ele>94.1</ele>
        <time>2024-07-17T09:36:48Z</time>
      </trkpt>
      <trkpt lat="49.98956" lon="2.26017">
        <ele>94.2</ele>
        <time>2024-07-17T09:36:49Z</time>
      </trkpt>
      <trkpt lat="49.98955" lon="2.26018">
        <ele>94.2</ele>
        <time>2024-07-17T09:36:50Z</time>
      </trkpt>
      <trkpt lat="49.98955" lon="2.26019">
        <ele>94.2</ele>
        <time>2024-07-17T09:36:51Z</time>
      </trkpt>
      <trkpt lat="49.98954" lon="2.26019">
        <ele>94.2</ele>
        <time>2024-07-17T09:36:52Z</time>
      </trkpt>
      <trkpt lat="49.98953" lon="2.2602">
        <ele>94.3</ele>
        <time>2024-07-17T09:36:53Z</time>
      </trkpt>
      <trkpt lat="49.98953" lon="2.26021">
        <ele>94.3</ele>
        <time>2024-07-17T09:36:54Z</time>
      </trkpt>
      <trkpt lat="49.98952" lon="2.26021">
        <ele>94.3</ele>
        <time>2024-07-17T09:36:55Z</time>
      </trkpt>
      <trkpt lat="49.98951" lon="2.26022">
        <ele>94.3</ele>
        <time>2024-07-17T09:36:56Z</time>
      </trkpt>
      <trkpt lat="49.98951" lon="2.26022">
        <ele>94.3</ele>
        <time>2024-07-17T09:36:57Z</time>
      </trkpt>
      <trkpt lat="49.9895" lon="2.26023">
        <ele>94.3</ele>
        <time>2024-07-17T09:36:58Z</time>
      </trkpt>
      <trkpt lat="49.9895" lon="2.26024">
        <ele>94.3</ele>
        <time>2024-07-17T09:36:59Z</time>
      </trkpt>
      <trkpt lat="49.98949" lon="2.26025">
        <ele>94.3</ele>
        <time>2024-07-17T09:37:00Z</time>
      </trkpt>
      <trkpt lat="49.98948" lon="2.26026">
        <ele>94.3</ele>
        <time>2024-07-17T09:37:01Z</time>
      </trkpt>
      <trkpt lat="49.98948" lon="2.26027">
        <ele>94.3</ele>
        <time>2024-07-17T09:37:02Z</time>
      </trkpt>
      <trkpt lat="49.98947" lon="2.26028">
        <ele>94.3</ele>
        <time>2024-07-17T09:37:03Z</time>
      </trkpt>
      <trkpt lat="49.98947" lon="2.26029">
        <ele>94.3</ele>
        <time>2024-07-17T09:37:04Z</time>
      </trkpt>
      <trkpt lat="49.98946" lon="2.26029">
        <ele>94.3</ele>
        <time>2024-07-17T09:37:05Z</time>
      </trkpt>
      <trkpt lat="49.98945" lon="2.2603">
        <ele>94.3</ele>
        <time>2024-07-17T09:37:06Z</time>
      </trkpt>
      <trkpt lat="49.98944" lon="2.26029">
        <ele>94.3</ele>
        <time>2024-07-17T09:37:07Z</time>
      </trkpt>
      <trkpt lat="49.98943" lon="2.2603">
        <ele>94.3</ele>
        <time>2024-07-17T09:37:08Z</time>
      </trkpt>
      <trkpt lat="49.98942" lon="2.26029">
        <ele>94.3</ele>
        <time>2024-07-17T09:37:09Z</time>
      </trkpt>
      <trkpt lat="49.98941" lon="2.26028">
        <ele>94.3</ele>
        <time>2024-07-17T09:37:10Z</time>
      </trkpt>
      <trkpt lat="49.9894" lon="2.26028">
        <ele>94.4</ele>
        <time>2024-07-17T09:37:11Z</time>
      </trkpt>
      <trkpt lat="49.98938" lon="2.26027">
        <ele>94.4</ele>
        <time>2024-07-17T09:37:12Z</time>
      </trkpt>
      <trkpt lat="49.98937" lon="2.26027">
        <ele>94.5</ele>
        <time>2024-07-17T09:37:13Z</time>
      </trkpt>
      <trkpt lat="49.98936" lon="2.26027">
        <ele>94.5</ele>
        <time>2024-07-17T09:37:14Z</time>
      </trkpt>
      <trkpt lat="49.98935" lon="2.26027">
        <ele>94.6</ele>
        <time>2024-07-17T09:37:15Z</time>
      </trkpt>
      <trkpt lat="49.98934" lon="2.26026">
        <ele>94.6</ele>
        <time>2024-07-17T09:37:16Z</time>
      </trkpt>
      <trkpt lat="49.98932" lon="2.26026">
        <ele>94.7</ele>
        <time>2024-07-17T09:37:17Z</time>
      </trkpt>
      <trkpt lat="49.98931" lon="2.26026">
        <ele>94.7</ele>
        <time>2024-07-17T09:37:18Z</time>
      </trkpt>
      <trkpt lat="49.9893" lon="2.26026">
        <ele>94.8</ele>
        <time>2024-07-17T09:37:19Z</time>
      </trkpt>
      <trkpt lat="49.98928" lon="2.26026">
        <ele>94.8</ele>
        <time>2024-07-17T09:37:20Z</time>
      </trkpt>
      <trkpt lat="49.98927" lon="2.26027">
        <ele>94.8</ele>
        <time>2024-07-17T09:37:21Z</time>
      </trkpt>
      <trkpt lat="49.98926" lon="2.26027">
        <ele>94.9</ele>
        <time>2024-07-17T09:37:22Z</time>
      </trkpt>
      <trkpt lat="49.98925" lon="2.26028">
        <ele>94.9</ele>
        <time>2024-07-17T09:37:23Z</time>
      </trkpt>
      <trkpt lat="49.98924" lon="2.26028">
        <ele>94.9</ele>
        <time>2024-07-17T09:37:24Z</time>
      </trkpt>
      <trkpt lat="49.98923" lon="2.26029">
        <ele>95</ele>
        <time>2024-07-17T09:37:25Z</time>
      </trkpt>
      <trkpt lat="49.98923" lon="2.26029">
        <ele>95</ele>
        <time>2024-07-17T09:37:26Z</time>
      </trkpt>
      <trkpt lat="49.98922" lon="2.2603">
        <ele>95</ele>
        <time>2024-07-17T09:37:27Z</time>
      </trkpt>
      <trkpt lat="49.98921" lon="2.2603">
        <ele>95</ele>
        <time>2024-07-17T09:37:28Z</time>
      </trkpt>
      <trkpt lat="49.98921" lon="2.26031">
        <ele>95</ele>
        <time>2024-07-17T09:37:29Z</time>
      </trkpt>
      <trkpt lat="49.9892" lon="2.26031">
        <ele>95.1</ele>
        <time>2024-07-17T09:37:30Z</time>
      </trkpt>
      <trkpt lat="49.98919" lon="2.26032">
        <ele>95.1</ele>
        <time>2024-07-17T09:37:31Z</time>
      </trkpt>
      <trkpt lat="49.98919" lon="2.26032">
        <ele>95.1</ele>
        <time>2024-07-17T09:37:32Z</time>
      </trkpt>
      <trkpt lat="49.98918" lon="2.26033">
        <ele>95.1</ele>
        <time>2024-07-17T09:37:33Z</time>
      </trkpt>
      <trkpt lat="49.98917" lon="2.26033">
        <ele>95.1</ele>
        <time>2024-07-17T09:37:34Z</time>
      </trkpt>
      <trkpt lat="49.98916" lon="2.26034">
        <ele>95.2</ele>
        <time>2024-07-17T09:37:35Z</time>
      </trkpt>
      <trkpt lat="49.98916" lon="2.26034">
        <ele>95.2</ele>
        <time>2024-07-17T09:37:36Z</time>
      </trkpt>
      <trkpt lat="49.98915" lon="2.26035">
        <ele>95.2</ele>
        <time>2024-07-17T09:37:37Z</time>
      </trkpt>
      <trkpt lat="49.98914" lon="2.26035">
        <ele>95.2</ele>
        <time>2024-07-17T09:37:38Z</time>
      </trkpt>
      <trkpt lat="49.98914" lon="2.26036">
        <ele>95.3</ele>
        <time>2024-07-17T09:37:39Z</time>
      </trkpt>
      <trkpt lat="49.98913" lon="2.26037">
        <ele>95.3</ele>
        <time>2024-07-17T09:37:40Z</time>
      </trkpt>
      <trkpt lat="49.98912" lon="2.26037">
        <ele>95.3</ele>
        <time>2024-07-17T09:37:41Z</time>
      </trkpt>
      <trkpt lat="49.98912" lon="2.26038">
        <ele>95.3</ele>
        <time>2024-07-17T09:37:42Z</time>
      </trkpt>
      <trkpt lat="49.98911" lon="2.26039">
        <ele>95.4</ele>
        <time>2024-07-17T09:37:43Z</time>
      </trkpt>
      <trkpt lat="49.9891" lon="2.2604">
        <ele>95.4</ele>
        <time>2024-07-17T09:37:44Z</time>
      </trkpt>
      <trkpt lat="49.98909" lon="2.26041">
        <ele>95.4</ele>
        <time>2024-07-17T09:37:45Z</time>
      </trkpt>
      <trkpt lat="49.98908" lon="2.26042">
        <ele>95.4</ele>
        <time>2024-07-17T09:37:46Z</time>
      </trkpt>
      <trkpt lat="49.98907" lon="2.26042">
        <ele>95.5</ele>
        <time>2024-07-17T09:37:47Z</time>
      </trkpt>
      <trkpt lat="49.98906" lon="2.26043">
        <ele>95.5</ele>
        <time>2024-07-17T09:37:48Z</time>
      </trkpt>
      <trkpt lat="49.98906" lon="2.26044">
        <ele>95.5</ele>
        <time>2024-07-17T09:37:49Z</time>
      </trkpt>
      <trkpt lat="49.98905" lon="2.26045">
        <ele>95.5</ele>
        <time>2024-07-17T09:37:50Z</time>
      </trkpt>
      <trkpt lat="49.98904" lon="2.26046">
        <ele>95.6</ele>
        <time>2024-07-17T09:37:51Z</time>
      </trkpt>
      <trkpt lat="49.98904" lon="2.26047">
        <ele>95.6</ele>
        <time>2024-07-17T09:37:52Z</time>
      </trkpt>
      <trkpt lat="49.98903" lon="2.26048">
        <ele>95.6</ele>
        <time>2024-07-17T09:37:53Z</time>
      </trkpt>
      <trkpt lat="49.98902" lon="2.26049">
        <ele>95.6</ele>
        <time>2024-07-17T09:37:54Z</time>
      </trkpt>
      <trkpt lat="49.98901" lon="2.2605">
        <ele>95.7</ele>
        <time>2024-07-17T09:37:55Z</time>
      </trkpt>
      <trkpt lat="49.989" lon="2.2605">
        <ele>95.7</ele>
        <time>2024-07-17T09:37:56Z</time>
      </trkpt>
      <trkpt lat="49.98899" lon="2.26051">
        <ele>95.7</ele>
        <time>2024-07-17T09:37:57Z</time>
      </trkpt>
      <trkpt lat="49.98899" lon="2.26052">
        <ele>95.7</ele>
        <time>2024-07-17T09:37:58Z</time>
      </trkpt>
      <trkpt lat="49.98898" lon="2.26053">
        <ele>95.8</ele>
        <time>2024-07-17T09:37:59Z</time>
      </trkpt>
      <trkpt lat="49.98897" lon="2.26055">
        <ele>95.8</ele>
        <time>2024-07-17T09:38:00Z</time>
      </trkpt>
      <trkpt lat="49.98897" lon="2.26056">
        <ele>95.8</ele>
        <time>2024-07-17T09:38:01Z</time>
      </trkpt>
      <trkpt lat="49.98897" lon="2.26057">
        <ele>95.8</ele>
        <time>2024-07-17T09:38:02Z</time>
      </trkpt>
      <trkpt lat="49.98897" lon="2.26058">
        <ele>95.8</ele>
        <time>2024-07-17T09:38:03Z</time>
      </trkpt>
      <trkpt lat="49.98897" lon="2.2606">
        <ele>95.9</ele>
        <time>2024-07-17T09:38:04Z</time>
      </trkpt>
      <trkpt lat="49.98896" lon="2.26062">
        <ele>95.9</ele>
        <time>2024-07-17T09:38:05Z</time>
      </trkpt>
      <trkpt lat="49.98896" lon="2.26064">
        <ele>95.9</ele>
        <time>2024-07-17T09:38:06Z</time>
      </trkpt>
      <trkpt lat="49.98896" lon="2.26066">
        <ele>95.9</ele>
        <time>2024-07-17T09:38:07Z</time>
      </trkpt>
      <trkpt lat="49.98896" lon="2.26067">
        <ele>95.9</ele>
        <time>2024-07-17T09:38:08Z</time>
      </trkpt>
      <trkpt lat="49.98895" lon="2.26069">
        <ele>95.9</ele>
        <time>2024-07-17T09:38:09Z</time>
      </trkpt>
      <trkpt lat="49.98894" lon="2.26071">
        <ele>95.9</ele>
        <time>2024-07-17T09:38:10Z</time>
      </trkpt>
      <trkpt lat="49.98893" lon="2.26072">
        <ele>95.9</ele>
        <time>2024-07-17T09:38:11Z</time>
      </trkpt>
      <trkpt lat="49.98893" lon="2.26073">
        <ele>95.9</ele>
        <time>2024-07-17T09:38:12Z</time>
      </trkpt>
      <trkpt lat="49.98892" lon="2.26075">
        <ele>95.9</ele>
        <time>2024-07-17T09:38:13Z</time>
      </trkpt>
      <trkpt lat="49.98891" lon="2.26077">
        <ele>95.9</ele>
        <time>2024-07-17T09:38:14Z</time>
      </trkpt>
      <trkpt lat="49.98891" lon="2.26079">
        <ele>96</ele>
        <time>2024-07-17T09:38:15Z</time>
      </trkpt>
      <trkpt lat="49.9889" lon="2.26081">
        <ele>96</ele>
        <time>2024-07-17T09:38:16Z</time>
      </trkpt>
      <trkpt lat="49.9889" lon="2.26084">
        <ele>96</ele>
        <time>2024-07-17T09:38:17Z</time>
      </trkpt>
      <trkpt lat="49.98891" lon="2.26086">
        <ele>96.1</ele>
        <time>2024-07-17T09:38:18Z</time>
      </trkpt>
      <trkpt lat="49.98891" lon="2.26089">
        <ele>96.1</ele>
        <time>2024-07-17T09:38:19Z</time>
      </trkpt>
      <trkpt lat="49.98892" lon="2.26091">
        <ele>96.1</ele>
        <time>2024-07-17T09:38:20Z</time>
      </trkpt>
      <trkpt lat="49.98892" lon="2.26092">
        <ele>96.1</ele>
        <time>2024-07-17T09:38:21Z</time>
      </trkpt>
      <trkpt lat="49.98893" lon="2.26095">
        <ele>96.2</ele>
        <time>2024-07-17T09:38:22Z</time>
      </trkpt>
      <trkpt lat="49.98894" lon="2.26098">
        <ele>96.2</ele>
        <time>2024-07-17T09:38:23Z</time>
      </trkpt>
      <trkpt lat="49.98895" lon="2.26099">
        <ele>96.2</ele>
        <time>2024-07-17T09:38:24Z</time>
      </trkpt>
      <trkpt lat="49.98895" lon="2.261">
        <ele>96.2</ele>
        <time>2024-07-17T09:38:25Z</time>
      </trkpt>
      <trkpt lat="49.98896" lon="2.26103">
        <ele>96.3</ele>
        <time>2024-07-17T09:38:26Z</time>
      </trkpt>
      <trkpt lat="49.98896" lon="2.26104">
        <ele>96.3</ele>
        <time>2024-07-17T09:38:27Z</time>
      </trkpt>
      <trkpt lat="49.98896" lon="2.26105">
        <ele>96.3</ele>
        <time>2024-07-17T09:38:28Z</time>
      </trkpt>
      <trkpt lat="49.98897" lon="2.26107">
        <ele>96.3</ele>
        <time>2024-07-17T09:38:29Z</time>
      </trkpt>
      <trkpt lat="49.98897" lon="2.26108">
        <ele>96.3</ele>
        <time>2024-07-17T09:38:30Z</time>
      </trkpt>
      <trkpt lat="49.98897" lon="2.26111">
        <ele>96.4</ele>
        <time>2024-07-17T09:38:31Z</time>
      </trkpt>
      <trkpt lat="49.98896" lon="2.26114">
        <ele>96.4</ele>
        <time>2024-07-17T09:38:32Z</time>
      </trkpt>
      <trkpt lat="49.98896" lon="2.26116">
        <ele>96.4</ele>
        <time>2024-07-17T09:38:33Z</time>
      </trkpt>
      <trkpt lat="49.98895" lon="2.26117">
        <ele>96.4</ele>
        <time>2024-07-17T09:38:34Z</time>
      </trkpt>
      <trkpt lat="49.98894" lon="2.26119">
        <ele>96.5</ele>
        <time>2024-07-17T09:38:35Z</time>
      </trkpt>
      <trkpt lat="49.98894" lon="2.26121">
        <ele>96.5</ele>
        <time>2024-07-17T09:38:36Z</time>
      </trkpt>
      <trkpt lat="49.98893" lon="2.26122">
        <ele>96.5</ele>
        <time>2024-07-17T09:38:37Z</time>
      </trkpt>
      <trkpt lat="49.98892" lon="2.26124">
        <ele>96.5</ele>
        <time>2024-07-17T09:38:38Z</time>
      </trkpt>
      <trkpt lat="49.98891" lon="2.26125">
        <ele>96.5</ele>
        <time>2024-07-17T09:38:39Z</time>
      </trkpt>
      <trkpt lat="49.98891" lon="2.26126">
        <ele>96.6</ele>
        <time>2024-07-17T09:38:40Z</time>
      </trkpt>
      <trkpt lat="49.98891" lon="2.26128">
        <ele>96.6</ele>
        <time>2024-07-17T09:38:41Z</time>
      </trkpt>
      <trkpt lat="49.9889" lon="2.26129">
        <ele>96.6</ele>
        <time>2024-07-17T09:38:42Z</time>
      </trkpt>
      <trkpt lat="49.9889" lon="2.26131">
        <ele>96.6</ele>
        <time>2024-07-17T09:38:43Z</time>
      </trkpt>
      <trkpt lat="49.9889" lon="2.26132">
        <ele>96.6</ele>
        <time>2024-07-17T09:38:44Z</time>
      </trkpt>
      <trkpt lat="49.98889" lon="2.26133">
        <ele>96.6</ele>
        <time>2024-07-17T09:38:45Z</time>
      </trkpt>
      <trkpt lat="49.98888" lon="2.26134">
        <ele>96.7</ele>
        <time>2024-07-17T09:38:46Z</time>
      </trkpt>
      <trkpt lat="49.98888" lon="2.26134">
        <ele>96.7</ele>
        <time>2024-07-17T09:38:47Z</time>
      </trkpt>
      <trkpt lat="49.98887" lon="2.26134">
        <ele>96.7</ele>
        <time>2024-07-17T09:38:48Z</time>
      </trkpt>
      <trkpt lat="49.98887" lon="2.26135">
        <ele>96.7</ele>
        <time>2024-07-17T09:38:49Z</time>
      </trkpt>
      <trkpt lat="49.98886" lon="2.26135">
        <ele>96.7</ele>
        <time>2024-07-17T09:38:50Z</time>
      </trkpt>
      <trkpt lat="49.98885" lon="2.26135">
        <ele>96.7</ele>
        <time>2024-07-17T09:38:51Z</time>
      </trkpt>
      <trkpt lat="49.98885" lon="2.26134">
        <ele>96.7</ele>
        <time>2024-07-17T09:38:52Z</time>
      </trkpt>
      <trkpt lat="49.98885" lon="2.26134">
        <ele>96.7</ele>
        <time>2024-07-17T09:38:53Z</time>
      </trkpt>
      <trkpt lat="49.98886" lon="2.26133">
        <ele>96.7</ele>
        <time>2024-07-17T09:38:54Z</time>
      </trkpt>
      <trkpt lat="49.98886" lon="2.26133">
        <ele>96.7</ele>
        <time>2024-07-17T09:38:55Z</time>
      </trkpt>
      <trkpt lat="49.98886" lon="2.26133">
        <ele>96.7</ele>
        <time>2024-07-17T09:38:56Z</time>
      </trkpt>
      <trkpt lat="49.98886" lon="2.26134">
        <ele>96.7</ele>
        <time>2024-07-17T09:38:57Z</time>
      </trkpt>
      <trkpt lat="49.98886" lon="2.26134">
        <ele>96.7</ele>
        <time>2024-07-17T09:38:58Z</time>
      </trkpt>
      <trkpt lat="49.98886" lon="2.26134">
        <ele>96.8</ele>
        <time>2024-07-17T09:38:59Z</time>
      </trkpt>
      <trkpt lat="49.98886" lon="2.26134">
        <ele>96.8</ele>
        <time>2024-07-17T09:39:00Z</time>
      </trkpt>
      <trkpt lat="49.98886" lon="2.26135">
        <ele>96.8</ele>
        <time>2024-07-17T09:39:01Z</time>
      </trkpt>
      <trkpt lat="49.98886" lon="2.26135">
        <ele>96.8</ele>
        <time>2024-07-17T09:39:02Z</time>
      </trkpt>
      <trkpt lat="49.98887" lon="2.26135">
        <ele>96.8</ele>
        <time>2024-07-17T09:39:03Z</time>
      </trkpt>
      <trkpt lat="49.98887" lon="2.26136">
        <ele>96.8</ele>
        <time>2024-07-17T09:39:04Z</time>
      </trkpt>
      <trkpt lat="49.98888" lon="2.26136">
        <ele>96.8</ele>
        <time>2024-07-17T09:39:05Z</time>
      </trkpt>
      <trkpt lat="49.98888" lon="2.26136">
        <ele>96.7</ele>
        <time>2024-07-17T09:39:06Z</time>
      </trkpt>
      <trkpt lat="49.98888" lon="2.26136">
        <ele>96.7</ele>
        <time>2024-07-17T09:39:07Z</time>
      </trkpt>
      <trkpt lat="49.98888" lon="2.26136">
        <ele>96.7</ele>
        <time>2024-07-17T09:39:08Z</time>
      </trkpt>
      <trkpt lat="49.98888" lon="2.26136">
        <ele>96.7</ele>
        <time>2024-07-17T09:39:09Z</time>
      </trkpt>
      <trkpt lat="49.98889" lon="2.26136">
        <ele>96.7</ele>
        <time>2024-07-17T09:39:10Z</time>
      </trkpt>
      <trkpt lat="49.98889" lon="2.26136">
        <ele>96.7</ele>
        <time>2024-07-17T09:39:11Z</time>
      </trkpt>
      <trkpt lat="49.98889" lon="2.26136">
        <ele>96.7</ele>
        <time>2024-07-17T09:39:12Z</time>
      </trkpt>
      <trkpt lat="49.98889" lon="2.26136">
        <ele>96.7</ele>
        <time>2024-07-17T09:39:13Z</time>
      </trkpt>
      <trkpt lat="49.98889" lon="2.26136">
        <ele>96.7</ele>
        <time>2024-07-17T09:39:14Z</time>
      </trkpt>
      <trkpt lat="49.98889" lon="2.26136">
        <ele>96.7</ele>
        <time>2024-07-17T09:39:15Z</time>
      </trkpt>
      <trkpt lat="49.98889" lon="2.26136">
        <ele>96.7</ele>
        <time>2024-07-17T09:39:16Z</time>
      </trkpt>
      <trkpt lat="49.98889" lon="2.26136">
        <ele>96.7</ele>
        <time>2024-07-17T09:39:17Z</time>
      </trkpt>
      <trkpt lat="49.98889" lon="2.26136">
        <ele>96.7</ele>
        <time>2024-07-17T09:39:18Z</time>
      </trkpt>
      <trkpt lat="49.98889" lon="2.26136">
        <ele>96.7</ele>
        <time>2024-07-17T09:39:19Z</time>
      </trkpt>
      <trkpt lat="49.98889" lon="2.26136">
        <ele>96.7</ele>
        <time>2024-07-17T09:39:20Z</time>
      </trkpt>
      <trkpt lat="49.98889" lon="2.26136">
        <ele>96.7</ele>
        <time>2024-07-17T09:39:21Z</time>
      </trkpt>
      <trkpt lat="49.98889" lon="2.26136">
        <ele>96.7</ele>
        <time>2024-07-17T09:39:22Z</time>
      </trkpt>
      <trkpt lat="49.98889" lon="2.26136">
        <ele>96.7</ele>
        <time>2024-07-17T09:39:23Z</time>
      </trkpt>
      <trkpt lat="49.98889" lon="2.26136">
        <ele>96.7</ele>
        <time>2024-07-17T09:39:24Z</time>
      </trkpt>
      <trkpt lat="49.98889" lon="2.26136">
        <ele>96.7</ele>
        <time>2024-07-17T09:39:25Z</time>
      </trkpt>
      <trkpt lat="49.98889" lon="2.26136">
        <ele>96.7</ele>
        <time>2024-07-17T09:39:26Z</time>
      </trkpt>
      <trkpt lat="49.9889" lon="2.26136">
        <ele>96.7</ele>
        <time>2024-07-17T09:39:27Z</time>
      </trkpt>
      <trkpt lat="49.98891" lon="2.26136">
        <ele>96.7</ele>
        <time>2024-07-17T09:39:28Z</time>
      </trkpt>
      <trkpt lat="49.98891" lon="2.26136">
        <ele>96.7</ele>
        <time>2024-07-17T09:39:29Z</time>
      </trkpt>
      <trkpt lat="49.98891" lon="2.26136">
        <ele>96.7</ele>
        <time>2024-07-17T09:39:30Z</time>
      </trkpt>
      <trkpt lat="49.98891" lon="2.26136">
        <ele>96.7</ele>
        <time>2024-07-17T09:39:31Z</time>
      </trkpt>
      <trkpt lat="49.98891" lon="2.26136">
        <ele>96.7</ele>
        <time>2024-07-17T09:39:32Z</time>
      </trkpt>
      <trkpt lat="49.98891" lon="2.26136">
        <ele>96.7</ele>
        <time>2024-07-17T09:39:33Z</time>
      </trkpt>
      <trkpt lat="49.98891" lon="2.26136">
        <ele>96.7</ele>
        <time>2024-07-17T09:39:34Z</time>
      </trkpt>
      <trkpt lat="49.98891" lon="2.26136">
        <ele>96.7</ele>
        <time>2024-07-17T09:39:35Z</time>
      </trkpt>
      <trkpt lat="49.98891" lon="2.26136">
        <ele>96.7</ele>
        <time>2024-07-17T09:39:36Z</time>
      </trkpt>
      <trkpt lat="49.98891" lon="2.26135">
        <ele>96.7</ele>
        <time>2024-07-17T09:39:37Z</time>
      </trkpt>
      <trkpt lat="49.98891" lon="2.26135">
        <ele>96.7</ele>
        <time>2024-07-17T09:39:38Z</time>
      </trkpt>
      <trkpt lat="49.98891" lon="2.26135">
        <ele>96.7</ele>
        <time>2024-07-17T09:39:39Z</time>
      </trkpt>
      <trkpt lat="49.98891" lon="2.26135">
        <ele>96.7</ele>
        <time>2024-07-17T09:39:40Z</time>
      </trkpt>
      <trkpt lat="49.98891" lon="2.26135">
        <ele>96.7</ele>
        <time>2024-07-17T09:39:41Z</time>
      </trkpt>
      <trkpt lat="49.98891" lon="2.26135">
        <ele>96.7</ele>
        <time>2024-07-17T09:39:42Z</time>
      </trkpt>
      <trkpt lat="49.98891" lon="2.26135">
        <ele>96.7</ele>
        <time>2024-07-17T09:39:43Z</time>
      </trkpt>
      <trkpt lat="49.98891" lon="2.26135">
        <ele>96.7</ele>
        <time>2024-07-17T09:39:44Z</time>
      </trkpt>
      <trkpt lat="49.98891" lon="2.26135">
        <ele>96.7</ele>
        <time>2024-07-17T09:39:45Z</time>
      </trkpt>
      <trkpt lat="49.98891" lon="2.26135">
        <ele>96.7</ele>
        <time>2024-07-17T09:39:46Z</time>
      </trkpt>
      <trkpt lat="49.98891" lon="2.26135">
        <ele>96.7</ele>
        <time>2024-07-17T09:39:47Z</time>
      </trkpt>
      <trkpt lat="49.98891" lon="2.26135">
        <ele>96.7</ele>
        <time>2024-07-17T09:39:48Z</time>
      </trkpt>
      <trkpt lat="49.98891" lon="2.26135">
        <ele>96.7</ele>
        <time>2024-07-17T09:39:49Z</time>
      </trkpt>
      <trkpt lat="49.98891" lon="2.26135">
        <ele>96.7</ele>
        <time>2024-07-17T09:39:50Z</time>
      </trkpt>
      <trkpt lat="49.98891" lon="2.26135">
        <ele>96.7</ele>
        <time>2024-07-17T09:39:51Z</time>
      </trkpt>
      <trkpt lat="49.98891" lon="2.26135">
        <ele>96.7</ele>
        <time>2024-07-17T09:39:52Z</time>
      </trkpt>
      <trkpt lat="49.98891" lon="2.26135">
        <ele>96.7</ele>
        <time>2024-07-17T09:39:53Z</time>
      </trkpt>
      <trkpt lat="49.98891" lon="2.26135">
        <ele>96.7</ele>
        <time>2024-07-17T09:39:54Z</time>
      </trkpt>
      <trkpt lat="49.98891" lon="2.26135">
        <ele>96.7</ele>
        <time>2024-07-17T09:39:55Z</time>
      </trkpt>
      <trkpt lat="49.98891" lon="2.26135">
        <ele>96.7</ele>
        <time>2024-07-17T09:39:56Z</time>
      </trkpt>
      <trkpt lat="49.98891" lon="2.26135">
        <ele>96.7</ele>
        <time>2024-07-17T09:39:57Z</time>
      </trkpt>
      <trkpt lat="49.98891" lon="2.26135">
        <ele>96.7</ele>
        <time>2024-07-17T09:39:58Z</time>
      </trkpt>
      <trkpt lat="49.98891" lon="2.26135">
        <ele>96.7</ele>
        <time>2024-07-17T09:39:59Z</time>
      </trkpt>
      <trkpt lat="49.98891" lon="2.26135">
        <ele>96.7</ele>
        <time>2024-07-17T09:40:00Z</time>
      </trkpt>
      <trkpt lat="49.98891" lon="2.26135">
        <ele>96.7</ele>
        <time>2024-07-17T09:40:01Z</time>
      </trkpt>
      <trkpt lat="49.98891" lon="2.26135">
        <ele>96.7</ele>
        <time>2024-07-17T09:40:02Z</time>
      </trkpt>
      <trkpt lat="49.98891" lon="2.26135">
        <ele>96.7</ele>
        <time>2024-07-17T09:40:03Z</time>
      </trkpt>
      <trkpt lat="49.98891" lon="2.26135">
        <ele>96.7</ele>
        <time>2024-07-17T09:40:04Z</time>
      </trkpt>
      <trkpt lat="49.98891" lon="2.26135">
        <ele>96.7</ele>
        <time>2024-07-17T09:40:05Z</time>
      </trkpt>
      <trkpt lat="49.98891" lon="2.26135">
        <ele>96.7</ele>
        <time>2024-07-17T09:40:06Z</time>
      </trkpt>
      <trkpt lat="49.98891" lon="2.26135">
        <ele>96.7</ele>
        <time>2024-07-17T09:40:07Z</time>
      </trkpt>
      <trkpt lat="49.98891" lon="2.26135">
        <ele>96.7</ele>
        <time>2024-07-17T09:40:08Z</time>
      </trkpt>
      <trkpt lat="49.98891" lon="2.26135">
        <ele>96.7</ele>
        <time>2024-07-17T09:40:09Z</time>
      </trkpt>
      <trkpt lat="49.98891" lon="2.26135">
        <ele>96.7</ele>
        <time>2024-07-17T09:40:10Z</time>
      </trkpt>
      <trkpt lat="49.98891" lon="2.26135">
        <ele>96.7</ele>
        <time>2024-07-17T09:40:11Z</time>
      </trkpt>
      <trkpt lat="49.98891" lon="2.26135">
        <ele>96.7</ele>
        <time>2024-07-17T09:40:12Z</time>
      </trkpt>
      <trkpt lat="49.98891" lon="2.26135">
        <ele>96.7</ele>
        <time>2024-07-17T09:40:13Z</time>
      </trkpt>
      <trkpt lat="49.98891" lon="2.26135">
        <ele>96.7</ele>
        <time>2024-07-17T09:40:14Z</time>
      </trkpt>
      <trkpt lat="49.98891" lon="2.26135">
        <ele>96.7</ele>
        <time>2024-07-17T09:40:15Z</time>
      </trkpt>
      <trkpt lat="49.98891" lon="2.26135">
        <ele>96.7</ele>
        <time>2024-07-17T09:40:16Z</time>
      </trkpt>
      <trkpt lat="49.98891" lon="2.26135">
        <ele>96.7</ele>
        <time>2024-07-17T09:40:17Z</time>
      </trkpt>
      <trkpt lat="49.98891" lon="2.26135">
        <ele>96.7</ele>
        <time>2024-07-17T09:40:18Z</time>
      </trkpt>
      <trkpt lat="49.98891" lon="2.26135">
        <ele>96.7</ele>
        <time>2024-07-17T09:40:19Z</time>
      </trkpt>
      <trkpt lat="49.98891" lon="2.26135">
        <ele>96.7</ele>
        <time>2024-07-17T09:40:20Z</time>
      </trkpt>
      <trkpt lat="49.98891" lon="2.26135">
        <ele>96.7</ele>
        <time>2024-07-17T09:40:21Z</time>
      </trkpt>
      <trkpt lat="49.98891" lon="2.26135">
        <ele>96.7</ele>
        <time>2024-07-17T09:40:22Z</time>
      </trkpt>
      <trkpt lat="49.98891" lon="2.26135">
        <ele>96.7</ele>
        <time>2024-07-17T09:40:23Z</time>
      </trkpt>
      <trkpt lat="49.98891" lon="2.26135">
        <ele>96.7</ele>
        <time>2024-07-17T09:40:24Z</time>
      </trkpt>
      <trkpt lat="49.98891" lon="2.26135">
        <ele>96.7</ele>
        <time>2024-07-17T09:40:25Z</time>
      </trkpt>
      <trkpt lat="49.98891" lon="2.26135">
        <ele>96.7</ele>
        <time>2024-07-17T09:40:26Z</time>
      </trkpt>
      <trkpt lat="49.98891" lon="2.26135">
        <ele>96.7</ele>
        <time>2024-07-17T09:40:27Z</time>
      </trkpt>
      <trkpt lat="49.98891" lon="2.26135">
        <ele>96.7</ele>
        <time>2024-07-17T09:40:28Z</time>
      </trkpt>
      <trkpt lat="49.98891" lon="2.26135">
        <ele>96.7</ele>
        <time>2024-07-17T09:40:29Z</time>
      </trkpt>
      <trkpt lat="49.98891" lon="2.26135">
        <ele>96.7</ele>
        <time>2024-07-17T09:40:30Z</time>
      </trkpt>
      <trkpt lat="49.98891" lon="2.26135">
        <ele>96.7</ele>
        <time>2024-07-17T09:40:31Z</time>
      </trkpt>
      <trkpt lat="49.98891" lon="2.26135">
        <ele>96.7</ele>
        <time>2024-07-17T09:40:32Z</time>
      </trkpt>
      <trkpt lat="49.98891" lon="2.26135">
        <ele>96.7</ele>
        <time>2024-07-17T09:40:33Z</time>
      </trkpt>
      <trkpt lat="49.98891" lon="2.26135">
        <ele>96.7</ele>
        <time>2024-07-17T09:40:34Z</time>
      </trkpt>
      <trkpt lat="49.98891" lon="2.26135">
        <ele>96.7</ele>
        <time>2024-07-17T09:40:35Z</time>
      </trkpt>
      <trkpt lat="49.98891" lon="2.26135">
        <ele>96.7</ele>
        <time>2024-07-17T09:40:36Z</time>
      </trkpt>
      <trkpt lat="49.98891" lon="2.26135">
        <ele>96.7</ele>
        <time>2024-07-17T09:40:37Z</time>
      </trkpt>
      <trkpt lat="49.98891" lon="2.26135">
        <ele>96.7</ele>
        <time>2024-07-17T09:40:38Z</time>
      </trkpt>
      <trkpt lat="49.98891" lon="2.26135">
        <ele>96.7</ele>
        <time>2024-07-17T09:40:39Z</time>
      </trkpt>
      <trkpt lat="49.98891" lon="2.26135">
        <ele>96.7</ele>
        <time>2024-07-17T09:40:40Z</time>
      </trkpt>
      <trkpt lat="49.98891" lon="2.26136">
        <ele>96.7</ele>
        <time>2024-07-17T09:40:41Z</time>
      </trkpt>
      <trkpt lat="49.98891" lon="2.26136">
        <ele>96.7</ele>
        <time>2024-07-17T09:40:42Z</time>
      </trkpt>
      <trkpt lat="49.98891" lon="2.26136">
        <ele>96.7</ele>
        <time>2024-07-17T09:40:43Z</time>
      </trkpt>
      <trkpt lat="49.98891" lon="2.26135">
        <ele>96.7</ele>
        <time>2024-07-17T09:40:44Z</time>
      </trkpt>
      <trkpt lat="49.98891" lon="2.26136">
        <ele>96.7</ele>
        <time>2024-07-17T09:40:45Z</time>
      </trkpt>
      <trkpt lat="49.98891" lon="2.26136">
        <ele>96.7</ele>
        <time>2024-07-17T09:40:46Z</time>
      </trkpt>
      <trkpt lat="49.98891" lon="2.26136">
        <ele>96.7</ele>
        <time>2024-07-17T09:40:47Z</time>
      </trkpt>
      <trkpt lat="49.98891" lon="2.26136">
        <ele>96.7</ele>
        <time>2024-07-17T09:40:48Z</time>
      </trkpt>
      <trkpt lat="49.98891" lon="2.26136">
        <ele>96.7</ele>
        <time>2024-07-17T09:40:49Z</time>
      </trkpt>
      <trkpt lat="49.98891" lon="2.26136">
        <ele>96.7</ele>
        <time>2024-07-17T09:40:50Z</time>
      </trkpt>
      <trkpt lat="49.98891" lon="2.26135">
        <ele>96.7</ele>
        <time>2024-07-17T09:40:51Z</time>
      </trkpt>
      <trkpt lat="49.98891" lon="2.26136">
        <ele>96.7</ele>
        <time>2024-07-17T09:40:52Z</time>
      </trkpt>
      <trkpt lat="49.98891" lon="2.26136">
        <ele>96.7</ele>
        <time>2024-07-17T09:40:53Z</time>
      </trkpt>
      <trkpt lat="49.98891" lon="2.26136">
        <ele>96.7</ele>
        <time>2024-07-17T09:40:54Z</time>
      </trkpt>
      <trkpt lat="49.98891" lon="2.26136">
        <ele>96.7</ele>
        <time>2024-07-17T09:40:55Z</time>
      </trkpt>
      <trkpt lat="49.98891" lon="2.26136">
        <ele>96.7</ele>
        <time>2024-07-17T09:40:56Z</time>
      </trkpt>
      <trkpt lat="49.98891" lon="2.26136">
        <ele>96.7</ele>
        <time>2024-07-17T09:40:57Z</time>
      </trkpt>
      <trkpt lat="49.98891" lon="2.26136">
        <ele>96.7</ele>
        <time>2024-07-17T09:40:58Z</time>
      </trkpt>
      <trkpt lat="49.98891" lon="2.26136">
        <ele>96.7</ele>
        <time>2024-07-17T09:40:59Z</time>
      </trkpt>
      <trkpt lat="49.98891" lon="2.26136">
        <ele>96.7</ele>
        <time>2024-07-17T09:41:00Z</time>
      </trkpt>
      <trkpt lat="49.98891" lon="2.26136">
        <ele>96.7</ele>
        <time>2024-07-17T09:41:01Z</time>
      </trkpt>
      <trkpt lat="49.98891" lon="2.26136">
        <ele>96.7</ele>
        <time>2024-07-17T09:41:02Z</time>
      </trkpt>
      <trkpt lat="49.98891" lon="2.26136">
        <ele>96.7</ele>
        <time>2024-07-17T09:41:03Z</time>
      </trkpt>
      <trkpt lat="49.98891" lon="2.26136">
        <ele>96.7</ele>
        <time>2024-07-17T09:41:04Z</time>
      </trkpt>
      <trkpt lat="49.98891" lon="2.26136">
        <ele>96.7</ele>
        <time>2024-07-17T09:41:05Z</time>
      </trkpt>
      <trkpt lat="49.98891" lon="2.26136">
        <ele>96.7</ele>
        <time>2024-07-17T09:41:06Z</time>
      </trkpt>
      <trkpt lat="49.98891" lon="2.26136">
        <ele>96.7</ele>
        <time>2024-07-17T09:41:07Z</time>
      </trkpt>
      <trkpt lat="49.98891" lon="2.26136">
        <ele>96.7</ele>
        <time>2024-07-17T09:41:08Z</time>
      </trkpt>
      <trkpt lat="49.98891" lon="2.26136">
        <ele>96.7</ele>
        <time>2024-07-17T09:41:09Z</time>
      </trkpt>
      <trkpt lat="49.98891" lon="2.26136">
        <ele>96.7</ele>
        <time>2024-07-17T09:41:10Z</time>
      </trkpt>
      <trkpt lat="49.98891" lon="2.26135">
        <ele>96.7</ele>
        <time>2024-07-17T09:41:11Z</time>
      </trkpt>
      <trkpt lat="49.98891" lon="2.26136">
        <ele>96.7</ele>
        <time>2024-07-17T09:41:12Z</time>
      </trkpt>
      <trkpt lat="49.98891" lon="2.26136">
        <ele>96.7</ele>
        <time>2024-07-17T09:41:13Z</time>
      </trkpt>
      <trkpt lat="49.9889" lon="2.26136">
        <ele>96.7</ele>
        <time>2024-07-17T09:41:14Z</time>
      </trkpt>
      <trkpt lat="49.9889" lon="2.26136">
        <ele>96.7</ele>
        <time>2024-07-17T09:41:15Z</time>
      </trkpt>
      <trkpt lat="49.9889" lon="2.26136">
        <ele>96.7</ele>
        <time>2024-07-17T09:41:16Z</time>
      </trkpt>
      <trkpt lat="49.9889" lon="2.26136">
        <ele>96.7</ele>
        <time>2024-07-17T09:41:17Z</time>
      </trkpt>
      <trkpt lat="49.9889" lon="2.26136">
        <ele>96.7</ele>
        <time>2024-07-17T09:41:18Z</time>
      </trkpt>
      <trkpt lat="49.98889" lon="2.26136">
        <ele>96.7</ele>
        <time>2024-07-17T09:41:19Z</time>
      </trkpt>
      <trkpt lat="49.98889" lon="2.26136">
        <ele>96.7</ele>
        <time>2024-07-17T09:41:20Z</time>
      </trkpt>
      <trkpt lat="49.98889" lon="2.26136">
        <ele>96.7</ele>
        <time>2024-07-17T09:41:21Z</time>
      </trkpt>
      <trkpt lat="49.98889" lon="2.26136">
        <ele>96.7</ele>
        <time>2024-07-17T09:41:22Z</time>
      </trkpt>
      <trkpt lat="49.98889" lon="2.26136">
        <ele>96.7</ele>
        <time>2024-07-17T09:41:23Z</time>
      </trkpt>
      <trkpt lat="49.98889" lon="2.26136">
        <ele>96.7</ele>
        <time>2024-07-17T09:41:24Z</time>
      </trkpt>
      <trkpt lat="49.98889" lon="2.26136">
        <ele>96.7</ele>
        <time>2024-07-17T09:41:25Z</time>
      </trkpt>
      <trkpt lat="49.98889" lon="2.26136">
        <ele>96.7</ele>
        <time>2024-07-17T09:41:26Z</time>
      </trkpt>
      <trkpt lat="49.98889" lon="2.26136">
        <ele>96.7</ele>
        <time>2024-07-17T09:41:27Z</time>
      </trkpt>
      <trkpt lat="49.98889" lon="2.26136">
        <ele>96.7</ele>
        <time>2024-07-17T09:41:28Z</time>
      </trkpt>
      <trkpt lat="49.98889" lon="2.26137">
        <ele>96.7</ele>
        <time>2024-07-17T09:41:29Z</time>
      </trkpt>
      <trkpt lat="49.98889" lon="2.26137">
        <ele>96.7</ele>
        <time>2024-07-17T09:41:30Z</time>
      </trkpt>
      <trkpt lat="49.98889" lon="2.26137">
        <ele>96.7</ele>
        <time>2024-07-17T09:41:31Z</time>
      </trkpt>
      <trkpt lat="49.98888" lon="2.26137">
        <ele>96.7</ele>
        <time>2024-07-17T09:41:32Z</time>
      </trkpt>
      <trkpt lat="49.98888" lon="2.26137">
        <ele>96.7</ele>
        <time>2024-07-17T09:41:33Z</time>
      </trkpt>
      <trkpt lat="49.98888" lon="2.26137">
        <ele>96.7</ele>
        <time>2024-07-17T09:41:34Z</time>
      </trkpt>
      <trkpt lat="49.98888" lon="2.26137">
        <ele>96.7</ele>
        <time>2024-07-17T09:41:35Z</time>
      </trkpt>
      <trkpt lat="49.98888" lon="2.26137">
        <ele>96.7</ele>
        <time>2024-07-17T09:41:36Z</time>
      </trkpt>
      <trkpt lat="49.98888" lon="2.26137">
        <ele>96.7</ele>
        <time>2024-07-17T09:41:37Z</time>
      </trkpt>
      <trkpt lat="49.98888" lon="2.26137">
        <ele>96.7</ele>
        <time>2024-07-17T09:41:38Z</time>
      </trkpt>
      <trkpt lat="49.98888" lon="2.26137">
        <ele>96.7</ele>
        <time>2024-07-17T09:41:39Z</time>
      </trkpt>
      <trkpt lat="49.98888" lon="2.26137">
        <ele>96.7</ele>
        <time>2024-07-17T09:41:40Z</time>
      </trkpt>
      <trkpt lat="49.98888" lon="2.26138">
        <ele>96.7</ele>
        <time>2024-07-17T09:41:41Z</time>
      </trkpt>
      <trkpt lat="49.98888" lon="2.26138">
        <ele>96.7</ele>
        <time>2024-07-17T09:41:42Z</time>
      </trkpt>
      <trkpt lat="49.98888" lon="2.26138">
        <ele>96.7</ele>
        <time>2024-07-17T09:41:43Z</time>
      </trkpt>
      <trkpt lat="49.98888" lon="2.26138">
        <ele>96.7</ele>
        <time>2024-07-17T09:41:44Z</time>
      </trkpt>
      <trkpt lat="49.98888" lon="2.26138">
        <ele>96.7</ele>
        <time>2024-07-17T09:41:45Z</time>
      </trkpt>
      <trkpt lat="49.98888" lon="2.26138">
        <ele>96.7</ele>
        <time>2024-07-17T09:41:46Z</time>
      </trkpt>
      <trkpt lat="49.98888" lon="2.26138">
        <ele>96.7</ele>
        <time>2024-07-17T09:41:47Z</time>
      </trkpt>
      <trkpt lat="49.98888" lon="2.26138">
        <ele>96.7</ele>
        <time>2024-07-17T09:41:48Z</time>
      </trkpt>
      <trkpt lat="49.98888" lon="2.26138">
        <ele>96.7</ele>
        <time>2024-07-17T09:41:49Z</time>
      </trkpt>
      <trkpt lat="49.98888" lon="2.26138">
        <ele>96.7</ele>
        <time>2024-07-17T09:41:50Z</time>
      </trkpt>
      <trkpt lat="49.98888" lon="2.26138">
        <ele>96.7</ele>
        <time>2024-07-17T09:41:51Z</time>
      </trkpt>
      <trkpt lat="49.98888" lon="2.26138">
        <ele>96.7</ele>
        <time>2024-07-17T09:41:52Z</time>
      </trkpt>
      <trkpt lat="49.98888" lon="2.26138">
        <ele>96.7</ele>
        <time>2024-07-17T09:41:53Z</time>
      </trkpt>
      <trkpt lat="49.98888" lon="2.26138">
        <ele>96.7</ele>
        <time>2024-07-17T09:41:54Z</time>
      </trkpt>
      <trkpt lat="49.98888" lon="2.26138">
        <ele>96.7</ele>
        <time>2024-07-17T09:41:55Z</time>
      </trkpt>
      <trkpt lat="49.98888" lon="2.26138">
        <ele>96.7</ele>
        <time>2024-07-17T09:41:56Z</time>
      </trkpt>
      <trkpt lat="49.98888" lon="2.26138">
        <ele>96.7</ele>
        <time>2024-07-17T09:41:57Z</time>
      </trkpt>
      <trkpt lat="49.98888" lon="2.26138">
        <ele>96.7</ele>
        <time>2024-07-17T09:41:58Z</time>
      </trkpt>
      <trkpt lat="49.98888" lon="2.26138">
        <ele>96.7</ele>
        <time>2024-07-17T09:41:59Z</time>
      </trkpt>
      <trkpt lat="49.98888" lon="2.26138">
        <ele>96.7</ele>
        <time>2024-07-17T09:42:00Z</time>
      </trkpt>
      <trkpt lat="49.98888" lon="2.26138">
        <ele>96.7</ele>
        <time>2024-07-17T09:42:01Z</time>
      </trkpt>
      <trkpt lat="49.98888" lon="2.26138">
        <ele>96.7</ele>
        <time>2024-07-17T09:42:02Z</time>
      </trkpt>
      <trkpt lat="49.98888" lon="2.26138">
        <ele>96.7</ele>
        <time>2024-07-17T09:42:03Z</time>
      </trkpt>
      <trkpt lat="49.98888" lon="2.26138">
        <ele>96.7</ele>
        <time>2024-07-17T09:42:04Z</time>
      </trkpt>
      <trkpt lat="49.98888" lon="2.26138">
        <ele>96.7</ele>
        <time>2024-07-17T09:42:05Z</time>
      </trkpt>
      <trkpt lat="49.98888" lon="2.26138">
        <ele>96.7</ele>
        <time>2024-07-17T09:42:06Z</time>
      </trkpt>
      <trkpt lat="49.98888" lon="2.26138">
        <ele>96.7</ele>
        <time>2024-07-17T09:42:07Z</time>
      </trkpt>
      <trkpt lat="49.98888" lon="2.26138">
        <ele>96.7</ele>
        <time>2024-07-17T09:42:08Z</time>
      </trkpt>
      <trkpt lat="49.98888" lon="2.26138">
        <ele>96.7</ele>
        <time>2024-07-17T09:42:09Z</time>
      </trkpt>
      <trkpt lat="49.98888" lon="2.26138">
        <ele>96.7</ele>
        <time>2024-07-17T09:42:10Z</time>
      </trkpt>
      <trkpt lat="49.98888" lon="2.26138">
        <ele>96.7</ele>
        <time>2024-07-17T09:42:11Z</time>
      </trkpt>
      <trkpt lat="49.98888" lon="2.26138">
        <ele>96.7</ele>
        <time>2024-07-17T09:42:12Z</time>
      </trkpt>
      <trkpt lat="49.98888" lon="2.26138">
        <ele>96.7</ele>
        <time>2024-07-17T09:42:13Z</time>
      </trkpt>
      <trkpt lat="49.98888" lon="2.26138">
        <ele>96.7</ele>
        <time>2024-07-17T09:42:14Z</time>
      </trkpt>
      <trkpt lat="49.98888" lon="2.26138">
        <ele>96.7</ele>
        <time>2024-07-17T09:42:15Z</time>
      </trkpt>
      <trkpt lat="49.98888" lon="2.26138">
        <ele>96.7</ele>
        <time>2024-07-17T09:42:16Z</time>
      </trkpt>
      <trkpt lat="49.98888" lon="2.26138">
        <ele>96.7</ele>
        <time>2024-07-17T09:42:17Z</time>
      </trkpt>
      <trkpt lat="49.98888" lon="2.26138">
        <ele>96.7</ele>
        <time>2024-07-17T09:42:18Z</time>
      </trkpt>
      <trkpt lat="49.98888" lon="2.26138">
        <ele>96.7</ele>
        <time>2024-07-17T09:42:19Z</time>
      </trkpt>
      <trkpt lat="49.98888" lon="2.26138">
        <ele>96.7</ele>
        <time>2024-07-17T09:42:20Z</time>
      </trkpt>
      <trkpt lat="49.98888" lon="2.26138">
        <ele>96.7</ele>
        <time>2024-07-17T09:42:21Z</time>
      </trkpt>
      <trkpt lat="49.98888" lon="2.26138">
        <ele>96.7</ele>
        <time>2024-07-17T09:42:22Z</time>
      </trkpt>
      <trkpt lat="49.98888" lon="2.26138">
        <ele>96.7</ele>
        <time>2024-07-17T09:42:23Z</time>
      </trkpt>
      <trkpt lat="49.98888" lon="2.26138">
        <ele>96.7</ele>
        <time>2024-07-17T09:42:24Z</time>
      </trkpt>
      <trkpt lat="49.98888" lon="2.26138">
        <ele>96.7</ele>
        <time>2024-07-17T09:42:25Z</time>
      </trkpt>
      <trkpt lat="49.98888" lon="2.26138">
        <ele>96.7</ele>
        <time>2024-07-17T09:42:26Z</time>
      </trkpt>
      <trkpt lat="49.98888" lon="2.26138">
        <ele>96.7</ele>
        <time>2024-07-17T09:42:27Z</time>
      </trkpt>
      <trkpt lat="49.98888" lon="2.26138">
        <ele>96.7</ele>
        <time>2024-07-17T09:42:28Z</time>
      </trkpt>
      <trkpt lat="49.98888" lon="2.26138">
        <ele>96.7</ele>
        <time>2024-07-17T09:42:29Z</time>
      </trkpt>
      <trkpt lat="49.98888" lon="2.26138">
        <ele>96.7</ele>
        <time>2024-07-17T09:42:30Z</time>
      </trkpt>
      <trkpt lat="49.98888" lon="2.26138">
        <ele>96.7</ele>
        <time>2024-07-17T09:42:31Z</time>
      </trkpt>
      <trkpt lat="49.98888" lon="2.26138">
        <ele>96.7</ele>
        <time>2024-07-17T09:42:32Z</time>
      </trkpt>
      <trkpt lat="49.98888" lon="2.26138">
        <ele>96.7</ele>
        <time>2024-07-17T09:42:33Z</time>
      </trkpt>
      <trkpt lat="49.98888" lon="2.26138">
        <ele>96.7</ele>
        <time>2024-07-17T09:42:34Z</time>
      </trkpt>
      <trkpt lat="49.98888" lon="2.26138">
        <ele>96.7</ele>
        <time>2024-07-17T09:42:35Z</time>
      </trkpt>
      <trkpt lat="49.98888" lon="2.26138">
        <ele>96.7</ele>
        <time>2024-07-17T09:42:36Z</time>
      </trkpt>
      <trkpt lat="49.98888" lon="2.26138">
        <ele>96.7</ele>
        <time>2024-07-17T09:42:37Z</time>
      </trkpt>
      <trkpt lat="49.98888" lon="2.26138">
        <ele>96.7</ele>
        <time>2024-07-17T09:42:38Z</time>
      </trkpt>
      <trkpt lat="49.98888" lon="2.26138">
        <ele>96.7</ele>
        <time>2024-07-17T09:42:39Z</time>
      </trkpt>
      <trkpt lat="49.98888" lon="2.26138">
        <ele>96.7</ele>
        <time>2024-07-17T09:42:40Z</time>
      </trkpt>
      <trkpt lat="49.98888" lon="2.26138">
        <ele>96.7</ele>
        <time>2024-07-17T09:42:41Z</time>
      </trkpt>
      <trkpt lat="49.98888" lon="2.26138">
        <ele>96.7</ele>
        <time>2024-07-17T09:42:42Z</time>
      </trkpt>
      <trkpt lat="49.98888" lon="2.26138">
        <ele>96.7</ele>
        <time>2024-07-17T09:42:43Z</time>
      </trkpt>
      <trkpt lat="49.98888" lon="2.26138">
        <ele>96.7</ele>
        <time>2024-07-17T09:42:44Z</time>
      </trkpt>
      <trkpt lat="49.98888" lon="2.26138">
        <ele>96.7</ele>
        <time>2024-07-17T09:42:45Z</time>
      </trkpt>
      <trkpt lat="49.98888" lon="2.26138">
        <ele>96.7</ele>
        <time>2024-07-17T09:42:46Z</time>
      </trkpt>
      <trkpt lat="49.98888" lon="2.26138">
        <ele>96.7</ele>
        <time>2024-07-17T09:42:47Z</time>
      </trkpt>
      <trkpt lat="49.98888" lon="2.26138">
        <ele>96.7</ele>
        <time>2024-07-17T09:42:48Z</time>
      </trkpt>
      <trkpt lat="49.98888" lon="2.26138">
        <ele>96.7</ele>
        <time>2024-07-17T09:42:49Z</time>
      </trkpt>
      <trkpt lat="49.98888" lon="2.26138">
        <ele>96.7</ele>
        <time>2024-07-17T09:42:50Z</time>
      </trkpt>
      <trkpt lat="49.98888" lon="2.26138">
        <ele>96.7</ele>
        <time>2024-07-17T09:42:51Z</time>
      </trkpt>
      <trkpt lat="49.98888" lon="2.26138">
        <ele>96.7</ele>
        <time>2024-07-17T09:42:52Z</time>
      </trkpt>
      <trkpt lat="49.98888" lon="2.26138">
        <ele>96.7</ele>
        <time>2024-07-17T09:42:53Z</time>
      </trkpt>
      <trkpt lat="49.98888" lon="2.26138">
        <ele>96.7</ele>
        <time>2024-07-17T09:42:54Z</time>
      </trkpt>
      <trkpt lat="49.98888" lon="2.26138">
        <ele>96.7</ele>
        <time>2024-07-17T09:42:55Z</time>
      </trkpt>
      <trkpt lat="49.98888" lon="2.26138">
        <ele>96.7</ele>
        <time>2024-07-17T09:42:56Z</time>
      </trkpt>
      <trkpt lat="49.98888" lon="2.26138">
        <ele>96.7</ele>
        <time>2024-07-17T09:42:57Z</time>
      </trkpt>
      <trkpt lat="49.98888" lon="2.26138">
        <ele>96.7</ele>
        <time>2024-07-17T09:42:58Z</time>
      </trkpt>
      <trkpt lat="49.98888" lon="2.26138">
        <ele>96.7</ele>
        <time>2024-07-17T09:42:59Z</time>
      </trkpt>
      <trkpt lat="49.98888" lon="2.26138">
        <ele>96.7</ele>
        <time>2024-07-17T09:43:00Z</time>
      </trkpt>
      <trkpt lat="49.98888" lon="2.26138">
        <ele>96.7</ele>
        <time>2024-07-17T09:43:01Z</time>
      </trkpt>
      <trkpt lat="49.98888" lon="2.26138">
        <ele>96.7</ele>
        <time>2024-07-17T09:43:02Z</time>
      </trkpt>
      <trkpt lat="49.98888" lon="2.26138">
        <ele>96.7</ele>
        <time>2024-07-17T09:43:03Z</time>
      </trkpt>
      <trkpt lat="49.98888" lon="2.26138">
        <ele>96.7</ele>
        <time>2024-07-17T09:43:04Z</time>
      </trkpt>
      <trkpt lat="49.98888" lon="2.26138">
        <ele>96.7</ele>
        <time>2024-07-17T09:43:05Z</time>
      </trkpt>
      <trkpt lat="49.98888" lon="2.26138">
        <ele>96.7</ele>
        <time>2024-07-17T09:43:06Z</time>
      </trkpt>
      <trkpt lat="49.98888" lon="2.26138">
        <ele>96.7</ele>
        <time>2024-07-17T09:43:07Z</time>
      </trkpt>
      <trkpt lat="49.98888" lon="2.26138">
        <ele>96.7</ele>
        <time>2024-07-17T09:43:08Z</time>
      </trkpt>
      <trkpt lat="49.98888" lon="2.26138">
        <ele>96.7</ele>
        <time>2024-07-17T09:43:09Z</time>
      </trkpt>
      <trkpt lat="49.98888" lon="2.26138">
        <ele>96.7</ele>
        <time>2024-07-17T09:43:10Z</time>
      </trkpt>
      <trkpt lat="49.98888" lon="2.26138">
        <ele>96.7</ele>
        <time>2024-07-17T09:43:11Z</time>
      </trkpt>
      <trkpt lat="49.98888" lon="2.26138">
        <ele>96.7</ele>
        <time>2024-07-17T09:43:12Z</time>
      </trkpt>
      <trkpt lat="49.98888" lon="2.26138">
        <ele>96.7</ele>
        <time>2024-07-17T09:43:13Z</time>
      </trkpt>
      <trkpt lat="49.98888" lon="2.26138">
        <ele>96.7</ele>
        <time>2024-07-17T09:43:14Z</time>
      </trkpt>
      <trkpt lat="49.98888" lon="2.26138">
        <ele>96.7</ele>
        <time>2024-07-17T09:43:15Z</time>
      </trkpt>
      <trkpt lat="49.98888" lon="2.26138">
        <ele>96.7</ele>
        <time>2024-07-17T09:43:16Z</time>
      </trkpt>
      <trkpt lat="49.98888" lon="2.26138">
        <ele>96.7</ele>
        <time>2024-07-17T09:43:17Z</time>
      </trkpt>
      <trkpt lat="49.98888" lon="2.26138">
        <ele>96.7</ele>
        <time>2024-07-17T09:43:18Z</time>
      </trkpt>
      <trkpt lat="49.98888" lon="2.26138">
        <ele>96.7</ele>
        <time>2024-07-17T09:43:19Z</time>
      </trkpt>
      <trkpt lat="49.98888" lon="2.26138">
        <ele>96.7</ele>
        <time>2024-07-17T09:43:20Z</time>
      </trkpt>
      <trkpt lat="49.98888" lon="2.26138">
        <ele>96.7</ele>
        <time>2024-07-17T09:43:21Z</time>
      </trkpt>
      <trkpt lat="49.98888" lon="2.26138">
        <ele>96.7</ele>
        <time>2024-07-17T09:43:22Z</time>
      </trkpt>
      <trkpt lat="49.98888" lon="2.26138">
        <ele>96.7</ele>
        <time>2024-07-17T09:43:23Z</time>
      </trkpt>
      <trkpt lat="49.98888" lon="2.26138">
        <ele>96.7</ele>
        <time>2024-07-17T09:43:24Z</time>
      </trkpt>
      <trkpt lat="49.98888" lon="2.26138">
        <ele>96.7</ele>
        <time>2024-07-17T09:43:25Z</time>
      </trkpt>
      <trkpt lat="49.98888" lon="2.26138">
        <ele>96.7</ele>
        <time>2024-07-17T09:43:26Z</time>
      </trkpt>
      <trkpt lat="49.98888" lon="2.26138">
        <ele>96.7</ele>
        <time>2024-07-17T09:43:27Z</time>
      </trkpt>
      <trkpt lat="49.98888" lon="2.26138">
        <ele>96.7</ele>
        <time>2024-07-17T09:43:28Z</time>
      </trkpt>
      <trkpt lat="49.98888" lon="2.26138">
        <ele>96.7</ele>
        <time>2024-07-17T09:43:29Z</time>
      </trkpt>
      <trkpt lat="49.98888" lon="2.26138">
        <ele>96.7</ele>
        <time>2024-07-17T09:43:30Z</time>
      </trkpt>
      <trkpt lat="49.98888" lon="2.26138">
        <ele>96.7</ele>
        <time>2024-07-17T09:43:31Z</time>
      </trkpt>
      <trkpt lat="49.98888" lon="2.26138">
        <ele>96.7</ele>
        <time>2024-07-17T09:43:32Z</time>
      </trkpt>
      <trkpt lat="49.98888" lon="2.26138">
        <ele>96.7</ele>
        <time>2024-07-17T09:43:33Z</time>
      </trkpt>
      <trkpt lat="49.98888" lon="2.26138">
        <ele>96.7</ele>
        <time>2024-07-17T09:43:34Z</time>
      </trkpt>
      <trkpt lat="49.98888" lon="2.26138">
        <ele>96.7</ele>
        <time>2024-07-17T09:43:35Z</time>
      </trkpt>
      <trkpt lat="49.98888" lon="2.26138">
        <ele>96.7</ele>
        <time>2024-07-17T09:43:36Z</time>
      </trkpt>
      <trkpt lat="49.98888" lon="2.26138">
        <ele>96.7</ele>
        <time>2024-07-17T09:43:37Z</time>
      </trkpt>
      <trkpt lat="49.98888" lon="2.26138">
        <ele>96.7</ele>
        <time>2024-07-17T09:43:38Z</time>
      </trkpt>
      <trkpt lat="49.98888" lon="2.26138">
        <ele>96.7</ele>
        <time>2024-07-17T09:43:39Z</time>
      </trkpt>
      <trkpt lat="49.98888" lon="2.26138">
        <ele>96.7</ele>
        <time>2024-07-17T09:43:40Z</time>
      </trkpt>
      <trkpt lat="49.98888" lon="2.26138">
        <ele>96.7</ele>
        <time>2024-07-17T09:43:41Z</time>
      </trkpt>
      <trkpt lat="49.98888" lon="2.26138">
        <ele>96.7</ele>
        <time>2024-07-17T09:43:42Z</time>
      </trkpt>
      <trkpt lat="49.98888" lon="2.26138">
        <ele>96.7</ele>
        <time>2024-07-17T09:43:43Z</time>
      </trkpt>
      <trkpt lat="49.98888" lon="2.26138">
        <ele>96.7</ele>
        <time>2024-07-17T09:43:44Z</time>
      </trkpt>
      <trkpt lat="49.98888" lon="2.26138">
        <ele>96.7</ele>
        <time>2024-07-17T09:43:45Z</time>
      </trkpt>
      <trkpt lat="49.98888" lon="2.26138">
        <ele>96.7</ele>
        <time>2024-07-17T09:43:46Z</time>
      </trkpt>
      <trkpt lat="49.98888" lon="2.26138">
        <ele>96.7</ele>
        <time>2024-07-17T09:43:47Z</time>
      </trkpt>
      <trkpt lat="49.98888" lon="2.26138">
        <ele>96.7</ele>
        <time>2024-07-17T09:43:48Z</time>
      </trkpt>
      <trkpt lat="49.98888" lon="2.26138">
        <ele>96.7</ele>
        <time>2024-07-17T09:43:49Z</time>
      </trkpt>
      <trkpt lat="49.98888" lon="2.26138">
        <ele>96.7</ele>
        <time>2024-07-17T09:43:50Z</time>
      </trkpt>
      <trkpt lat="49.98888" lon="2.26138">
        <ele>96.7</ele>
        <time>2024-07-17T09:43:51Z</time>
      </trkpt>
      <trkpt lat="49.98888" lon="2.26138">
        <ele>96.7</ele>
        <time>2024-07-17T09:43:52Z</time>
      </trkpt>
      <trkpt lat="49.98888" lon="2.26138">
        <ele>96.7</ele>
        <time>2024-07-17T09:43:53Z</time>
      </trkpt>
      <trkpt lat="49.98888" lon="2.26138">
        <ele>96.7</ele>
        <time>2024-07-17T09:43:54Z</time>
      </trkpt>
      <trkpt lat="49.98888" lon="2.26138">
        <ele>96.7</ele>
        <time>2024-07-17T09:43:55Z</time>
      </trkpt>
      <trkpt lat="49.98888" lon="2.26138">
        <ele>96.7</ele>
        <time>2024-07-17T09:43:56Z</time>
      </trkpt>
      <trkpt lat="49.98888" lon="2.26138">
        <ele>96.7</ele>
        <time>2024-07-17T09:43:57Z</time>
      </trkpt>
      <trkpt lat="49.98888" lon="2.26138">
        <ele>96.7</ele>
        <time>2024-07-17T09:43:58Z</time>
      </trkpt>
      <trkpt lat="49.98888" lon="2.26138">
        <ele>96.7</ele>
        <time>2024-07-17T09:43:59Z</time>
      </trkpt>
      <trkpt lat="49.98888" lon="2.26138">
        <ele>96.7</ele>
        <time>2024-07-17T09:44:00Z</time>
      </trkpt>
      <trkpt lat="49.98888" lon="2.26138">
        <ele>96.7</ele>
        <time>2024-07-17T09:44:01Z</time>
      </trkpt>
      <trkpt lat="49.98888" lon="2.26138">
        <ele>96.7</ele>
        <time>2024-07-17T09:44:02Z</time>
      </trkpt>
      <trkpt lat="49.98888" lon="2.26138">
        <ele>96.7</ele>
        <time>2024-07-17T09:44:03Z</time>
      </trkpt>
      <trkpt lat="49.98888" lon="2.26138">
        <ele>96.7</ele>
        <time>2024-07-17T09:44:04Z</time>
      </trkpt>
      <trkpt lat="49.98888" lon="2.26138">
        <ele>96.7</ele>
        <time>2024-07-17T09:44:05Z</time>
      </trkpt>
      <trkpt lat="49.98888" lon="2.26138">
        <ele>96.7</ele>
        <time>2024-07-17T09:44:06Z</time>
      </trkpt>
      <trkpt lat="49.98888" lon="2.26138">
        <ele>96.7</ele>
        <time>2024-07-17T09:44:07Z</time>
      </trkpt>
      <trkpt lat="49.98888" lon="2.26138">
        <ele>96.7</ele>
        <time>2024-07-17T09:44:08Z</time>
      </trkpt>
      <trkpt lat="49.98888" lon="2.26138">
        <ele>96.7</ele>
        <time>2024-07-17T09:44:09Z</time>
      </trkpt>
      <trkpt lat="49.98888" lon="2.26138">
        <ele>96.7</ele>
        <time>2024-07-17T09:44:10Z</time>
      </trkpt>
      <trkpt lat="49.98888" lon="2.26138">
        <ele>96.7</ele>
        <time>2024-07-17T09:44:11Z</time>
      </trkpt>
      <trkpt lat="49.98888" lon="2.26138">
        <ele>96.7</ele>
        <time>2024-07-17T09:44:12Z</time>
      </trkpt>
      <trkpt lat="49.98888" lon="2.26138">
        <ele>96.7</ele>
        <time>2024-07-17T09:44:13Z</time>
      </trkpt>
      <trkpt lat="49.98888" lon="2.26138">
        <ele>96.7</ele>
        <time>2024-07-17T09:44:14Z</time>
      </trkpt>
      <trkpt lat="49.98888" lon="2.26138">
        <ele>96.7</ele>
        <time>2024-07-17T09:44:15Z</time>
      </trkpt>
      <trkpt lat="49.98888" lon="2.26138">
        <ele>96.7</ele>
        <time>2024-07-17T09:44:16Z</time>
      </trkpt>
      <trkpt lat="49.98888" lon="2.26138">
        <ele>96.7</ele>
        <time>2024-07-17T09:44:17Z</time>
      </trkpt>
      <trkpt lat="49.98888" lon="2.26138">
        <ele>96.7</ele>
        <time>2024-07-17T09:44:18Z</time>
      </trkpt>
      <trkpt lat="49.98888" lon="2.26138">
        <ele>96.7</ele>
        <time>2024-07-17T09:44:19Z</time>
      </trkpt>
      <trkpt lat="49.98888" lon="2.26138">
        <ele>96.7</ele>
        <time>2024-07-17T09:44:20Z</time>
      </trkpt>
      <trkpt lat="49.98888" lon="2.26138">
        <ele>96.7</ele>
        <time>2024-07-17T09:44:21Z</time>
      </trkpt>
      <trkpt lat="49.98888" lon="2.26138">
        <ele>96.7</ele>
        <time>2024-07-17T09:44:22Z</time>
      </trkpt>
      <trkpt lat="49.98888" lon="2.26138">
        <ele>96.7</ele>
        <time>2024-07-17T09:44:23Z</time>
      </trkpt>
      <trkpt lat="49.98888" lon="2.26138">
        <ele>96.7</ele>
        <time>2024-07-17T09:44:24Z</time>
      </trkpt>
      <trkpt lat="49.98888" lon="2.26138">
        <ele>96.7</ele>
        <time>2024-07-17T09:44:25Z</time>
      </trkpt>
      <trkpt lat="49.98888" lon="2.26138">
        <ele>96.7</ele>
        <time>2024-07-17T09:44:26Z</time>
      </trkpt>
      <trkpt lat="49.98888" lon="2.26138">
        <ele>96.7</ele>
        <time>2024-07-17T09:44:27Z</time>
      </trkpt>
      <trkpt lat="49.98888" lon="2.26138">
        <ele>96.7</ele>
        <time>2024-07-17T09:44:28Z</time>
      </trkpt>
      <trkpt lat="49.98888" lon="2.26138">
        <ele>96.7</ele>
        <time>2024-07-17T09:44:29Z</time>
      </trkpt>
      <trkpt lat="49.98888" lon="2.26138">
        <ele>96.7</ele>
        <time>2024-07-17T09:44:30Z</time>
      </trkpt>
      <trkpt lat="49.98888" lon="2.26138">
        <ele>96.7</ele>
        <time>2024-07-17T09:44:31Z</time>
      </trkpt>
      <trkpt lat="49.98888" lon="2.26138">
        <ele>96.7</ele>
        <time>2024-07-17T09:44:32Z</time>
      </trkpt>
      <trkpt lat="49.98888" lon="2.26138">
        <ele>96.7</ele>
        <time>2024-07-17T09:44:33Z</time>
      </trkpt>
      <trkpt lat="49.98888" lon="2.26138">
        <ele>96.7</ele>
        <time>2024-07-17T09:44:34Z</time>
      </trkpt>
      <trkpt lat="49.98888" lon="2.26138">
        <ele>96.7</ele>
        <time>2024-07-17T09:44:35Z</time>
      </trkpt>
      <trkpt lat="49.98888" lon="2.26138">
        <ele>96.7</ele>
        <time>2024-07-17T09:44:36Z</time>
      </trkpt>
      <trkpt lat="49.98888" lon="2.26138">
        <ele>96.7</ele>
        <time>2024-07-17T09:44:37Z</time>
      </trkpt>
      <trkpt lat="49.98888" lon="2.26138">
        <ele>96.7</ele>
        <time>2024-07-17T09:44:38Z</time>
      </trkpt>
      <trkpt lat="49.98888" lon="2.26138">
        <ele>96.7</ele>
        <time>2024-07-17T09:44:39Z</time>
      </trkpt>
      <trkpt lat="49.98888" lon="2.26138">
        <ele>96.7</ele>
        <time>2024-07-17T09:44:40Z</time>
      </trkpt>
      <trkpt lat="49.98888" lon="2.26138">
        <ele>96.7</ele>
        <time>2024-07-17T09:44:41Z</time>
      </trkpt>
      <trkpt lat="49.98888" lon="2.26138">
        <ele>96.7</ele>
        <time>2024-07-17T09:44:42Z</time>
      </trkpt>
      <trkpt lat="49.98888" lon="2.26138">
        <ele>96.7</ele>
        <time>2024-07-17T09:44:43Z</time>
      </trkpt>
      <trkpt lat="49.98888" lon="2.26138">
        <ele>96.7</ele>
        <time>2024-07-17T09:44:44Z</time>
      </trkpt>
      <trkpt lat="49.98888" lon="2.26138">
        <ele>96.7</ele>
        <time>2024-07-17T09:44:45Z</time>
      </trkpt>
      <trkpt lat="49.98888" lon="2.26138">
        <ele>96.7</ele>
        <time>2024-07-17T09:44:46Z</time>
      </trkpt>
      <trkpt lat="49.98888" lon="2.26138">
        <ele>96.7</ele>
        <time>2024-07-17T09:44:47Z</time>
      </trkpt>
      <trkpt lat="49.98888" lon="2.26138">
        <ele>96.7</ele>
        <time>2024-07-17T09:44:48Z</time>
      </trkpt>
      <trkpt lat="49.98888" lon="2.26138">
        <ele>96.7</ele>
        <time>2024-07-17T09:44:49Z</time>
      </trkpt>
      <trkpt lat="49.98888" lon="2.26138">
        <ele>96.7</ele>
        <time>2024-07-17T09:44:50Z</time>
      </trkpt>
      <trkpt lat="49.98888" lon="2.26138">
        <ele>96.7</ele>
        <time>2024-07-17T09:44:51Z</time>
      </trkpt>
      <trkpt lat="49.98888" lon="2.26138">
        <ele>96.7</ele>
        <time>2024-07-17T09:44:52Z</time>
      </trkpt>
      <trkpt lat="49.98888" lon="2.26138">
        <ele>96.7</ele>
        <time>2024-07-17T09:44:53Z</time>
      </trkpt>
      <trkpt lat="49.98888" lon="2.26138">
        <ele>96.7</ele>
        <time>2024-07-17T09:44:54Z</time>
      </trkpt>
      <trkpt lat="49.98888" lon="2.26138">
        <ele>96.7</ele>
        <time>2024-07-17T09:44:55Z</time>
      </trkpt>
      <trkpt lat="49.98888" lon="2.26138">
        <ele>96.7</ele>
        <time>2024-07-17T09:44:56Z</time>
      </trkpt>
      <trkpt lat="49.98888" lon="2.26138">
        <ele>96.7</ele>
        <time>2024-07-17T09:44:57Z</time>
      </trkpt>
      <trkpt lat="49.98888" lon="2.26138">
        <ele>96.7</ele>
        <time>2024-07-17T09:44:58Z</time>
      </trkpt>
      <trkpt lat="49.98888" lon="2.26138">
        <ele>96.7</ele>
        <time>2024-07-17T09:44:59Z</time>
      </trkpt>
      <trkpt lat="49.98888" lon="2.26138">
        <ele>96.7</ele>
        <time>2024-07-17T09:45:00Z</time>
      </trkpt>
      <trkpt lat="49.98888" lon="2.26138">
        <ele>96.7</ele>
        <time>2024-07-17T09:45:01Z</time>
      </trkpt>
      <trkpt lat="49.98888" lon="2.26138">
        <ele>96.7</ele>
        <time>2024-07-17T09:45:02Z</time>
      </trkpt>
      <trkpt lat="49.98888" lon="2.26138">
        <ele>96.7</ele>
        <time>2024-07-17T09:45:03Z</time>
      </trkpt>
      <trkpt lat="49.98888" lon="2.26138">
        <ele>96.7</ele>
        <time>2024-07-17T09:45:04Z</time>
      </trkpt>
      <trkpt lat="49.98888" lon="2.26138">
        <ele>96.7</ele>
        <time>2024-07-17T09:45:05Z</time>
      </trkpt>
      <trkpt lat="49.98888" lon="2.26138">
        <ele>96.7</ele>
        <time>2024-07-17T09:45:06Z</time>
      </trkpt>
      <trkpt lat="49.98888" lon="2.26138">
        <ele>96.7</ele>
        <time>2024-07-17T09:45:07Z</time>
      </trkpt>
      <trkpt lat="49.98888" lon="2.26138">
        <ele>96.7</ele>
        <time>2024-07-17T09:45:08Z</time>
      </trkpt>
      <trkpt lat="49.98888" lon="2.26138">
        <ele>96.7</ele>
        <time>2024-07-17T09:45:09Z</time>
      </trkpt>
      <trkpt lat="49.98888" lon="2.26138">
        <ele>96.7</ele>
        <time>2024-07-17T09:45:10Z</time>
      </trkpt>
      <trkpt lat="49.98888" lon="2.26138">
        <ele>96.7</ele>
        <time>2024-07-17T09:45:11Z</time>
      </trkpt>
      <trkpt lat="49.98888" lon="2.26138">
        <ele>96.7</ele>
        <time>2024-07-17T09:45:12Z</time>
      </trkpt>
      <trkpt lat="49.98888" lon="2.26138">
        <ele>96.7</ele>
        <time>2024-07-17T09:45:13Z</time>
      </trkpt>
      <trkpt lat="49.98888" lon="2.26138">
        <ele>96.7</ele>
        <time>2024-07-17T09:45:14Z</time>
      </trkpt>
      <trkpt lat="49.98888" lon="2.26138">
        <ele>96.7</ele>
        <time>2024-07-17T09:45:15Z</time>
      </trkpt>
      <trkpt lat="49.98888" lon="2.26138">
        <ele>96.7</ele>
        <time>2024-07-17T09:45:16Z</time>
      </trkpt>
      <trkpt lat="49.98888" lon="2.26138">
        <ele>96.7</ele>
        <time>2024-07-17T09:45:17Z</time>
      </trkpt>
      <trkpt lat="49.98888" lon="2.26138">
        <ele>96.7</ele>
        <time>2024-07-17T09:45:18Z</time>
      </trkpt>
      <trkpt lat="49.98888" lon="2.26138">
        <ele>96.7</ele>
        <time>2024-07-17T09:45:19Z</time>
      </trkpt>
      <trkpt lat="49.98888" lon="2.26138">
        <ele>96.7</ele>
        <time>2024-07-17T09:45:20Z</time>
      </trkpt>
      <trkpt lat="49.98888" lon="2.26138">
        <ele>96.7</ele>
        <time>2024-07-17T09:46:31Z</time>
      </trkpt>
      <trkpt lat="49.98888" lon="2.26138">
        <ele>96.7</ele>
        <time>2024-07-17T09:46:32Z</time>
      </trkpt>
      <trkpt lat="49.98888" lon="2.26138">
        <ele>96.7</ele>
        <time>2024-07-17T09:46:33Z</time>
      </trkpt>
      <trkpt lat="49.98888" lon="2.26138">
        <ele>96.7</ele>
        <time>2024-07-17T09:46:34Z</time>
      </trkpt>
      <trkpt lat="49.98888" lon="2.26138">
        <ele>96.7</ele>
        <time>2024-07-17T09:46:35Z</time>
      </trkpt>
      <trkpt lat="49.98888" lon="2.26138">
        <ele>96.7</ele>
        <time>2024-07-17T09:46:36Z</time>
      </trkpt>
      <trkpt lat="49.98888" lon="2.26138">
        <ele>96.7</ele>
        <time>2024-07-17T09:46:37Z</time>
      </trkpt>
      <trkpt lat="49.98888" lon="2.26138">
        <ele>96.7</ele>
        <time>2024-07-17T09:46:38Z</time>
      </trkpt>
      <trkpt lat="49.98888" lon="2.26138">
        <ele>96.7</ele>
        <time>2024-07-17T09:46:39Z</time>
      </trkpt>
      <trkpt lat="49.98888" lon="2.26138">
        <ele>96.7</ele>
        <time>2024-07-17T09:46:40Z</time>
      </trkpt>
      <trkpt lat="49.98888" lon="2.26138">
        <ele>96.7</ele>
        <time>2024-07-17T09:46:41Z</time>
      </trkpt>
      <trkpt lat="49.98888" lon="2.26138">
        <ele>96.7</ele>
        <time>2024-07-17T09:46:42Z</time>
      </trkpt>
      <trkpt lat="49.98888" lon="2.26138">
        <ele>96.7</ele>
        <time>2024-07-17T09:46:43Z</time>
      </trkpt>
      <trkpt lat="49.98888" lon="2.26138">
        <ele>96.7</ele>
        <time>2024-07-17T09:46:44Z</time>
      </trkpt>
      <trkpt lat="49.98888" lon="2.26138">
        <ele>96.7</ele>
        <time>2024-07-17T09:46:45Z</time>
      </trkpt>
      <trkpt lat="49.98888" lon="2.26138">
        <ele>96.7</ele>
        <time>2024-07-17T09:46:46Z</time>
      </trkpt>
      <trkpt lat="49.98888" lon="2.26138">
        <ele>96.7</ele>
        <time>2024-07-17T09:46:47Z</time>
      </trkpt>
      <trkpt lat="49.98888" lon="2.26138">
        <ele>96.7</ele>
        <time>2024-07-17T09:46:48Z</time>
      </trkpt>
      <trkpt lat="49.98888" lon="2.26138">
        <ele>96.7</ele>
        <time>2024-07-17T09:46:49Z</time>
      </trkpt>
      <trkpt lat="49.98888" lon="2.26138">
        <ele>96.7</ele>
        <time>2024-07-17T09:46:50Z</time>
      </trkpt>
      <trkpt lat="49.98888" lon="2.26138">
        <ele>96.7</ele>
        <time>2024-07-17T09:46:51Z</time>
      </trkpt>
      <trkpt lat="49.98888" lon="2.26138">
        <ele>96.7</ele>
        <time>2024-07-17T09:46:52Z</time>
      </trkpt>
      <trkpt lat="49.98888" lon="2.26138">
        <ele>96.7</ele>
        <time>2024-07-17T09:46:53Z</time>
      </trkpt>
      <trkpt lat="49.98888" lon="2.26138">
        <ele>96.7</ele>
        <time>2024-07-17T09:46:54Z</time>
      </trkpt>
      <trkpt lat="49.98888" lon="2.26138">
        <ele>96.7</ele>
        <time>2024-07-17T09:46:55Z</time>
      </trkpt>
      <trkpt lat="49.98888" lon="2.26138">
        <ele>96.7</ele>
        <time>2024-07-17T09:46:56Z</time>
      </trkpt>
      <trkpt lat="49.98888" lon="2.26138">
        <ele>96.7</ele>
        <time>2024-07-17T09:46:57Z</time>
      </trkpt>
      <trkpt lat="49.98888" lon="2.26138">
        <ele>96.7</ele>
        <time>2024-07-17T09:46:58Z</time>
      </trkpt>
      <trkpt lat="49.98888" lon="2.26138">
        <ele>96.7</ele>
        <time>2024-07-17T09:46:59Z</time>
      </trkpt>
      <trkpt lat="49.98888" lon="2.26138">
        <ele>96.7</ele>
        <time>2024-07-17T09:47:00Z</time>
      </trkpt>
      <trkpt lat="49.98888" lon="2.26138">
        <ele>96.7</ele>
        <time>2024-07-17T09:47:01Z</time>
      </trkpt>
      <trkpt lat="49.98888" lon="2.26138">
        <ele>96.7</ele>
        <time>2024-07-17T09:47:02Z</time>
      </trkpt>
      <trkpt lat="49.98888" lon="2.26138">
        <ele>96.7</ele>
        <time>2024-07-17T09:47:03Z</time>
      </trkpt>
      <trkpt lat="49.98888" lon="2.26138">
        <ele>96.7</ele>
        <time>2024-07-17T09:47:04Z</time>
      </trkpt>
      <trkpt lat="49.98888" lon="2.26138">
        <ele>96.7</ele>
        <time>2024-07-17T09:47:05Z</time>
      </trkpt>
      <trkpt lat="49.98888" lon="2.26138">
        <ele>96.7</ele>
        <time>2024-07-17T09:47:06Z</time>
      </trkpt>
      <trkpt lat="49.98888" lon="2.26138">
        <ele>96.7</ele>
        <time>2024-07-17T09:47:07Z</time>
      </trkpt>
      <trkpt lat="49.98888" lon="2.26138">
        <ele>96.7</ele>
        <time>2024-07-17T09:47:08Z</time>
      </trkpt>
      <trkpt lat="49.98888" lon="2.26138">
        <ele>96.7</ele>
        <time>2024-07-17T09:47:09Z</time>
      </trkpt>
      <trkpt lat="49.98888" lon="2.26138">
        <ele>96.7</ele>
        <time>2024-07-17T09:47:10Z</time>
      </trkpt>
      <trkpt lat="49.98888" lon="2.26138">
        <ele>96.7</ele>
        <time>2024-07-17T09:47:11Z</time>
      </trkpt>
      <trkpt lat="49.98888" lon="2.26138">
        <ele>96.7</ele>
        <time>2024-07-17T09:47:12Z</time>
      </trkpt>
      <trkpt lat="49.98888" lon="2.26138">
        <ele>96.7</ele>
        <time>2024-07-17T09:47:13Z</time>
      </trkpt>
      <trkpt lat="49.98888" lon="2.26138">
        <ele>96.7</ele>
        <time>2024-07-17T09:47:14Z</time>
      </trkpt>
      <trkpt lat="49.98888" lon="2.26138">
        <ele>96.7</ele>
        <time>2024-07-17T09:47:15Z</time>
      </trkpt>
      <trkpt lat="49.98888" lon="2.26138">
        <ele>96.7</ele>
        <time>2024-07-17T09:47:16Z</time>
      </trkpt>
      <trkpt lat="49.98888" lon="2.26138">
        <ele>96.7</ele>
        <time>2024-07-17T09:47:17Z</time>
      </trkpt>
      <trkpt lat="49.98888" lon="2.26138">
        <ele>96.7</ele>
        <time>2024-07-17T09:47:18Z</time>
      </trkpt>
      <trkpt lat="49.98888" lon="2.26138">
        <ele>96.7</ele>
        <time>2024-07-17T09:47:19Z</time>
      </trkpt>
      <trkpt lat="49.98888" lon="2.26138">
        <ele>96.7</ele>
        <time>2024-07-17T09:47:20Z</time>
      </trkpt>
      <trkpt lat="49.98888" lon="2.26138">
        <ele>96.7</ele>
        <time>2024-07-17T09:47:21Z</time>
      </trkpt>
      <trkpt lat="49.98888" lon="2.26138">
        <ele>96.7</ele>
        <time>2024-07-17T09:47:22Z</time>
      </trkpt>
      <trkpt lat="49.98888" lon="2.26138">
        <ele>96.7</ele>
        <time>2024-07-17T09:47:23Z</time>
      </trkpt>
      <trkpt lat="49.98888" lon="2.26138">
        <ele>96.7</ele>
        <time>2024-07-17T09:47:24Z</time>
      </trkpt>
      <trkpt lat="49.98888" lon="2.26138">
        <ele>96.7</ele>
        <time>2024-07-17T09:47:25Z</time>
      </trkpt>
      <trkpt lat="49.98888" lon="2.26138">
        <ele>96.7</ele>
        <time>2024-07-17T09:47:26Z</time>
      </trkpt>
      <trkpt lat="49.98888" lon="2.26138">
        <ele>96.7</ele>
        <time>2024-07-17T09:47:27Z</time>
      </trkpt>
      <trkpt lat="49.98888" lon="2.26138">
        <ele>96.7</ele>
        <time>2024-07-17T09:47:28Z</time>
      </trkpt>
      <trkpt lat="49.98888" lon="2.26138">
        <ele>96.7</ele>
        <time>2024-07-17T09:47:29Z</time>
      </trkpt>
      <trkpt lat="49.98888" lon="2.26138">
        <ele>96.7</ele>
        <time>2024-07-17T09:47:30Z</time>
      </trkpt>
      <trkpt lat="49.98888" lon="2.26138">
        <ele>96.7</ele>
        <time>2024-07-17T09:47:31Z</time>
      </trkpt>
      <trkpt lat="49.98888" lon="2.26138">
        <ele>96.7</ele>
        <time>2024-07-17T09:47:32Z</time>
      </trkpt>
      <trkpt lat="49.98888" lon="2.26138">
        <ele>96.7</ele>
        <time>2024-07-17T09:47:33Z</time>
      </trkpt>
      <trkpt lat="49.98888" lon="2.26138">
        <ele>96.7</ele>
        <time>2024-07-17T09:47:34Z</time>
      </trkpt>
      <trkpt lat="49.98888" lon="2.26138">
        <ele>96.7</ele>
        <time>2024-07-17T09:47:35Z</time>
      </trkpt>
      <trkpt lat="49.98888" lon="2.26138">
        <ele>96.7</ele>
        <time>2024-07-17T09:47:36Z</time>
      </trkpt>
      <trkpt lat="49.98888" lon="2.26138">
        <ele>96.7</ele>
        <time>2024-07-17T09:47:37Z</time>
      </trkpt>
      <trkpt lat="49.98888" lon="2.26138">
        <ele>96.7</ele>
        <time>2024-07-17T09:47:38Z</time>
      </trkpt>
      <trkpt lat="49.98888" lon="2.26138">
        <ele>96.7</ele>
        <time>2024-07-17T09:47:39Z</time>
      </trkpt>
      <trkpt lat="49.98888" lon="2.26138">
        <ele>96.7</ele>
        <time>2024-07-17T09:47:40Z</time>
      </trkpt>
      <trkpt lat="49.98888" lon="2.26138">
        <ele>96.7</ele>
        <time>2024-07-17T09:47:41Z</time>
      </trkpt>
      <trkpt lat="49.98888" lon="2.26138">
        <ele>96.7</ele>
        <time>2024-07-17T09:47:42Z</time>
      </trkpt>
      <trkpt lat="49.98888" lon="2.26138">
        <ele>96.7</ele>
        <time>2024-07-17T09:47:43Z</time>
      </trkpt>
      <trkpt lat="49.98888" lon="2.26138">
        <ele>96.7</ele>
        <time>2024-07-17T09:47:44Z</time>
      </trkpt>
      <trkpt lat="49.98888" lon="2.26138">
        <ele>96.7</ele>
        <time>2024-07-17T09:47:45Z</time>
      </trkpt>
      <trkpt lat="49.98888" lon="2.26138">
        <ele>96.7</ele>
        <time>2024-07-17T09:47:46Z</time>
      </trkpt>
      <trkpt lat="49.98888" lon="2.26138">
        <ele>96.7</ele>
        <time>2024-07-17T09:47:47Z</time>
      </trkpt>
      <trkpt lat="49.98888" lon="2.26138">
        <ele>96.7</ele>
        <time>2024-07-17T09:47:48Z</time>
      </trkpt>
      <trkpt lat="49.98888" lon="2.26138">
        <ele>96.7</ele>
        <time>2024-07-17T09:47:49Z</time>
      </trkpt>
      <trkpt lat="49.98888" lon="2.26138">
        <ele>96.7</ele>
        <time>2024-07-17T09:47:50Z</time>
      </trkpt>
      <trkpt lat="49.98888" lon="2.26138">
        <ele>96.7</ele>
        <time>2024-07-17T09:47:51Z</time>
      </trkpt>
      <trkpt lat="49.98888" lon="2.26138">
        <ele>96.7</ele>
        <time>2024-07-17T09:47:52Z</time>
      </trkpt>
      <trkpt lat="49.98888" lon="2.26138">
        <ele>96.7</ele>
        <time>2024-07-17T09:47:53Z</time>
      </trkpt>
      <trkpt lat="49.98888" lon="2.26138">
        <ele>96.7</ele>
        <time>2024-07-17T09:47:54Z</time>
      </trkpt>
      <trkpt lat="49.98888" lon="2.26138">
        <ele>96.7</ele>
        <time>2024-07-17T09:47:55Z</time>
      </trkpt>
      <trkpt lat="49.98888" lon="2.26138">
        <ele>96.7</ele>
        <time>2024-07-17T09:47:56Z</time>
      </trkpt>
      <trkpt lat="49.98888" lon="2.26138">
        <ele>96.7</ele>
        <time>2024-07-17T09:47:57Z</time>
      </trkpt>
      <trkpt lat="49.98888" lon="2.26138">
        <ele>96.7</ele>
        <time>2024-07-17T09:47:58Z</time>
      </trkpt>
      <trkpt lat="49.98888" lon="2.26138">
        <ele>96.7</ele>
        <time>2024-07-17T09:47:59Z</time>
      </trkpt>
      <trkpt lat="49.98888" lon="2.26138">
        <ele>96.7</ele>
        <time>2024-07-17T09:48:00Z</time>
      </trkpt>
      <trkpt lat="49.98888" lon="2.26138">
        <ele>96.7</ele>
        <time>2024-07-17T09:48:01Z</time>
      </trkpt>
      <trkpt lat="49.98888" lon="2.26138">
        <ele>96.7</ele>
        <time>2024-07-17T09:48:02Z</time>
      </trkpt>
      <trkpt lat="49.98888" lon="2.26138">
        <ele>96.7</ele>
        <time>2024-07-17T09:48:03Z</time>
      </trkpt>
      <trkpt lat="49.98888" lon="2.26138">
        <ele>96.7</ele>
        <time>2024-07-17T09:48:04Z</time>
      </trkpt>
      <trkpt lat="49.98888" lon="2.26138">
        <ele>96.7</ele>
        <time>2024-07-17T09:48:05Z</time>
      </trkpt>
      <trkpt lat="49.98888" lon="2.26138">
        <ele>96.7</ele>
        <time>2024-07-17T09:48:06Z</time>
      </trkpt>
      <trkpt lat="49.98888" lon="2.26138">
        <ele>96.7</ele>
        <time>2024-07-17T09:48:07Z</time>
      </trkpt>
      <trkpt lat="49.98888" lon="2.26138">
        <ele>96.7</ele>
        <time>2024-07-17T09:48:08Z</time>
      </trkpt>
      <trkpt lat="49.98888" lon="2.26138">
        <ele>96.7</ele>
        <time>2024-07-17T09:48:09Z</time>
      </trkpt>
      <trkpt lat="49.98888" lon="2.26138">
        <ele>96.7</ele>
        <time>2024-07-17T09:48:10Z</time>
      </trkpt>
      <trkpt lat="49.98888" lon="2.26138">
        <ele>96.7</ele>
        <time>2024-07-17T09:48:11Z</time>
      </trkpt>
      <trkpt lat="49.98888" lon="2.26138">
        <ele>96.7</ele>
        <time>2024-07-17T09:48:12Z</time>
      </trkpt>
      <trkpt lat="49.98888" lon="2.26138">
        <ele>96.7</ele>
        <time>2024-07-17T09:48:13Z</time>
      </trkpt>
      <trkpt lat="49.98888" lon="2.26138">
        <ele>96.7</ele>
        <time>2024-07-17T09:48:14Z</time>
      </trkpt>
      <trkpt lat="49.98888" lon="2.26138">
        <ele>96.7</ele>
        <time>2024-07-17T09:48:15Z</time>
      </trkpt>
      <trkpt lat="49.98888" lon="2.26138">
        <ele>96.7</ele>
        <time>2024-07-17T09:48:16Z</time>
      </trkpt>
      <trkpt lat="49.98888" lon="2.26138">
        <ele>96.7</ele>
        <time>2024-07-17T09:48:17Z</time>
      </trkpt>
      <trkpt lat="49.98888" lon="2.26138">
        <ele>96.7</ele>
        <time>2024-07-17T09:48:18Z</time>
      </trkpt>
      <trkpt lat="49.98888" lon="2.26138">
        <ele>96.7</ele>
        <time>2024-07-17T09:48:19Z</time>
      </trkpt>
      <trkpt lat="49.98888" lon="2.26138">
        <ele>96.7</ele>
        <time>2024-07-17T09:48:20Z</time>
      </trkpt>
      <trkpt lat="49.98888" lon="2.26138">
        <ele>96.7</ele>
        <time>2024-07-17T09:48:21Z</time>
      </trkpt>
      <trkpt lat="49.98888" lon="2.26138">
        <ele>96.7</ele>
        <time>2024-07-17T09:48:22Z</time>
      </trkpt>
      <trkpt lat="49.98888" lon="2.26138">
        <ele>96.7</ele>
        <time>2024-07-17T09:48:23Z</time>
      </trkpt>
      <trkpt lat="49.98888" lon="2.26138">
        <ele>96.7</ele>
        <time>2024-07-17T09:48:24Z</time>
      </trkpt>
      <trkpt lat="49.98888" lon="2.26138">
        <ele>96.7</ele>
        <time>2024-07-17T09:48:25Z</time>
      </trkpt>
      <trkpt lat="49.98888" lon="2.26138">
        <ele>96.7</ele>
        <time>2024-07-17T09:48:26Z</time>
      </trkpt>
      <trkpt lat="49.98888" lon="2.26138">
        <ele>96.7</ele>
        <time>2024-07-17T09:48:27Z</time>
      </trkpt>
      <trkpt lat="49.98888" lon="2.26138">
        <ele>96.7</ele>
        <time>2024-07-17T09:48:28Z</time>
      </trkpt>
      <trkpt lat="49.98888" lon="2.26138">
        <ele>96.7</ele>
        <time>2024-07-17T09:48:29Z</time>
      </trkpt>
      <trkpt lat="49.98888" lon="2.26138">
        <ele>96.7</ele>
        <time>2024-07-17T09:48:30Z</time>
      </trkpt>
      <trkpt lat="49.98888" lon="2.26138">
        <ele>96.7</ele>
        <time>2024-07-17T09:48:31Z</time>
      </trkpt>
      <trkpt lat="49.98888" lon="2.26138">
        <ele>96.7</ele>
        <time>2024-07-17T09:48:32Z</time>
      </trkpt>
      <trkpt lat="49.98888" lon="2.26138">
        <ele>96.7</ele>
        <time>2024-07-17T09:48:33Z</time>
      </trkpt>
      <trkpt lat="49.98888" lon="2.26138">
        <ele>96.7</ele>
        <time>2024-07-17T09:48:34Z</time>
      </trkpt>
      <trkpt lat="49.98888" lon="2.26138">
        <ele>96.7</ele>
        <time>2024-07-17T09:48:35Z</time>
      </trkpt>
      <trkpt lat="49.98888" lon="2.26138">
        <ele>96.7</ele>
        <time>2024-07-17T09:48:36Z</time>
      </trkpt>
      <trkpt lat="49.98888" lon="2.26138">
        <ele>96.7</ele>
        <time>2024-07-17T09:48:37Z</time>
      </trkpt>
      <trkpt lat="49.98888" lon="2.26138">
        <ele>96.7</ele>
        <time>2024-07-17T09:48:38Z</time>
      </trkpt>
      <trkpt lat="49.98888" lon="2.26138">
        <ele>96.7</ele>
        <time>2024-07-17T09:48:39Z</time>
      </trkpt>
      <trkpt lat="49.98888" lon="2.26138">
        <ele>96.7</ele>
        <time>2024-07-17T09:48:40Z</time>
      </trkpt>
      <trkpt lat="49.98888" lon="2.26138">
        <ele>96.7</ele>
        <time>2024-07-17T09:48:41Z</time>
      </trkpt>
      <trkpt lat="49.98888" lon="2.26138">
        <ele>96.7</ele>
        <time>2024-07-17T09:48:42Z</time>
      </trkpt>
      <trkpt lat="49.98888" lon="2.26138">
        <ele>96.7</ele>
        <time>2024-07-17T09:48:43Z</time>
      </trkpt>
      <trkpt lat="49.98888" lon="2.26138">
        <ele>96.7</ele>
        <time>2024-07-17T09:49:47Z</time>
      </trkpt>
      <trkpt lat="49.98888" lon="2.26138">
        <ele>96.7</ele>
        <time>2024-07-17T09:49:48Z</time>
      </trkpt>
      <trkpt lat="49.98888" lon="2.26138">
        <ele>96.7</ele>
        <time>2024-07-17T09:49:49Z</time>
      </trkpt>
      <trkpt lat="49.98888" lon="2.26138">
        <ele>96.7</ele>
        <time>2024-07-17T09:49:50Z</time>
      </trkpt>
      <trkpt lat="49.98888" lon="2.26138">
        <ele>96.7</ele>
        <time>2024-07-17T09:49:51Z</time>
      </trkpt>
      <trkpt lat="49.98888" lon="2.26138">
        <ele>96.7</ele>
        <time>2024-07-17T09:49:52Z</time>
      </trkpt>
      <trkpt lat="49.98888" lon="2.26138">
        <ele>96.7</ele>
        <time>2024-07-17T09:49:53Z</time>
      </trkpt>
      <trkpt lat="49.98888" lon="2.26138">
        <ele>96.7</ele>
        <time>2024-07-17T09:49:54Z</time>
      </trkpt>
      <trkpt lat="49.98888" lon="2.26138">
        <ele>96.7</ele>
        <time>2024-07-17T09:49:55Z</time>
      </trkpt>
      <trkpt lat="49.98888" lon="2.26138">
        <ele>96.7</ele>
        <time>2024-07-17T09:49:56Z</time>
      </trkpt>
      <trkpt lat="49.98888" lon="2.26138">
        <ele>96.7</ele>
        <time>2024-07-17T09:49:57Z</time>
      </trkpt>
      <trkpt lat="49.98888" lon="2.26138">
        <ele>96.7</ele>
        <time>2024-07-17T09:49:58Z</time>
      </trkpt>
      <trkpt lat="49.98888" lon="2.26138">
        <ele>96.7</ele>
        <time>2024-07-17T09:49:59Z</time>
      </trkpt>
      <trkpt lat="49.98888" lon="2.26138">
        <ele>96.7</ele>
        <time>2024-07-17T09:50:00Z</time>
      </trkpt>
      <trkpt lat="49.98888" lon="2.26138">
        <ele>96.7</ele>
        <time>2024-07-17T09:50:01Z</time>
      </trkpt>
      <trkpt lat="49.98888" lon="2.26138">
        <ele>96.7</ele>
        <time>2024-07-17T09:50:02Z</time>
      </trkpt>
      <trkpt lat="49.98888" lon="2.26138">
        <ele>96.7</ele>
        <time>2024-07-17T09:50:03Z</time>
      </trkpt>
      <trkpt lat="49.98888" lon="2.26138">
        <ele>96.7</ele>
        <time>2024-07-17T09:50:04Z</time>
      </trkpt>
      <trkpt lat="49.98888" lon="2.26138">
        <ele>96.7</ele>
        <time>2024-07-17T09:50:05Z</time>
      </trkpt>
      <trkpt lat="49.98888" lon="2.26138">
        <ele>96.7</ele>
        <time>2024-07-17T09:50:06Z</time>
      </trkpt>
      <trkpt lat="49.98888" lon="2.26138">
        <ele>96.7</ele>
        <time>2024-07-17T09:50:07Z</time>
      </trkpt>
      <trkpt lat="49.98888" lon="2.26138">
        <ele>96.7</ele>
        <time>2024-07-17T09:50:08Z</time>
      </trkpt>
      <trkpt lat="49.98888" lon="2.26138">
        <ele>96.7</ele>
        <time>2024-07-17T09:50:09Z</time>
      </trkpt>
      <trkpt lat="49.98888" lon="2.26138">
        <ele>96.7</ele>
        <time>2024-07-17T09:50:10Z</time>
      </trkpt>
      <trkpt lat="49.98888" lon="2.26138">
        <ele>96.7</ele>
        <time>2024-07-17T09:50:11Z</time>
      </trkpt>
      <trkpt lat="49.98888" lon="2.26138">
        <ele>96.7</ele>
        <time>2024-07-17T09:50:12Z</time>
      </trkpt>
      <trkpt lat="49.98888" lon="2.26138">
        <ele>96.7</ele>
        <time>2024-07-17T09:50:13Z</time>
      </trkpt>
      <trkpt lat="49.98888" lon="2.26138">
        <ele>96.7</ele>
        <time>2024-07-17T09:50:14Z</time>
      </trkpt>
      <trkpt lat="49.98888" lon="2.26138">
        <ele>96.7</ele>
        <time>2024-07-17T09:50:15Z</time>
      </trkpt>
      <trkpt lat="49.98888" lon="2.26138">
        <ele>96.7</ele>
        <time>2024-07-17T09:50:16Z</time>
      </trkpt>
      <trkpt lat="49.98888" lon="2.26138">
        <ele>96.7</ele>
        <time>2024-07-17T09:50:17Z</time>
      </trkpt>
      <trkpt lat="49.98888" lon="2.26138">
        <ele>96.7</ele>
        <time>2024-07-17T09:50:18Z</time>
      </trkpt>
      <trkpt lat="49.98888" lon="2.26138">
        <ele>96.7</ele>
        <time>2024-07-17T09:50:19Z</time>
      </trkpt>
      <trkpt lat="49.98888" lon="2.26138">
        <ele>96.7</ele>
        <time>2024-07-17T09:50:20Z</time>
      </trkpt>
      <trkpt lat="49.98888" lon="2.26138">
        <ele>96.7</ele>
        <time>2024-07-17T09:50:21Z</time>
      </trkpt>
      <trkpt lat="49.98888" lon="2.26138">
        <ele>96.7</ele>
        <time>2024-07-17T09:50:22Z</time>
      </trkpt>
      <trkpt lat="49.98888" lon="2.26138">
        <ele>96.7</ele>
        <time>2024-07-17T09:50:23Z</time>
      </trkpt>
      <trkpt lat="49.98888" lon="2.26138">
        <ele>96.7</ele>
        <time>2024-07-17T09:50:24Z</time>
      </trkpt>
      <trkpt lat="49.98888" lon="2.26138">
        <ele>96.7</ele>
        <time>2024-07-17T09:50:25Z</time>
      </trkpt>
      <trkpt lat="49.98888" lon="2.26138">
        <ele>96.7</ele>
        <time>2024-07-17T09:50:26Z</time>
      </trkpt>
      <trkpt lat="49.98888" lon="2.26138">
        <ele>96.7</ele>
        <time>2024-07-17T09:50:27Z</time>
      </trkpt>
      <trkpt lat="49.98888" lon="2.26138">
        <ele>96.7</ele>
        <time>2024-07-17T09:50:28Z</time>
      </trkpt>
      <trkpt lat="49.98888" lon="2.26138">
        <ele>96.7</ele>
        <time>2024-07-17T09:50:29Z</time>
      </trkpt>
      <trkpt lat="49.98888" lon="2.26138">
        <ele>96.7</ele>
        <time>2024-07-17T09:50:30Z</time>
      </trkpt>
      <trkpt lat="49.98888" lon="2.26138">
        <ele>96.7</ele>
        <time>2024-07-17T09:50:31Z</time>
      </trkpt>
      <trkpt lat="49.98888" lon="2.26138">
        <ele>96.7</ele>
        <time>2024-07-17T09:50:32Z</time>
      </trkpt>
      <trkpt lat="49.98888" lon="2.26138">
        <ele>96.7</ele>
        <time>2024-07-17T09:50:33Z</time>
      </trkpt>
      <trkpt lat="49.98888" lon="2.26138">
        <ele>96.7</ele>
        <time>2024-07-17T09:50:34Z</time>
      </trkpt>
      <trkpt lat="49.98888" lon="2.26138">
        <ele>96.7</ele>
        <time>2024-07-17T09:50:35Z</time>
      </trkpt>
      <trkpt lat="49.98888" lon="2.26138">
        <ele>96.7</ele>
        <time>2024-07-17T09:50:36Z</time>
      </trkpt>
      <trkpt lat="49.98888" lon="2.26138">
        <ele>96.7</ele>
        <time>2024-07-17T09:50:37Z</time>
      </trkpt>
      <trkpt lat="49.98888" lon="2.26138">
        <ele>96.7</ele>
        <time>2024-07-17T09:50:38Z</time>
      </trkpt>
      <trkpt lat="49.98888" lon="2.26138">
        <ele>96.7</ele>
        <time>2024-07-17T09:50:39Z</time>
      </trkpt>
      <trkpt lat="49.98888" lon="2.26138">
        <ele>96.7</ele>
        <time>2024-07-17T09:50:40Z</time>
      </trkpt>
      <trkpt lat="49.98888" lon="2.26138">
        <ele>96.7</ele>
        <time>2024-07-17T09:50:41Z</time>
      </trkpt>
      <trkpt lat="49.98888" lon="2.26138">
        <ele>96.7</ele>
        <time>2024-07-17T09:50:42Z</time>
      </trkpt>
      <trkpt lat="49.98888" lon="2.26138">
        <ele>96.7</ele>
        <time>2024-07-17T09:50:43Z</time>
      </trkpt>
      <trkpt lat="49.98888" lon="2.26138">
        <ele>96.7</ele>
        <time>2024-07-17T09:50:44Z</time>
      </trkpt>
      <trkpt lat="49.98888" lon="2.26138">
        <ele>96.7</ele>
        <time>2024-07-17T09:50:45Z</time>
      </trkpt>
      <trkpt lat="49.98888" lon="2.26138">
        <ele>96.7</ele>
        <time>2024-07-17T09:50:46Z</time>
      </trkpt>
      <trkpt lat="49.98888" lon="2.26138">
        <ele>96.7</ele>
        <time>2024-07-17T09:50:47Z</time>
      </trkpt>
      <trkpt lat="49.98888" lon="2.26138">
        <ele>96.7</ele>
        <time>2024-07-17T09:50:48Z</time>
      </trkpt>
      <trkpt lat="49.98888" lon="2.26138">
        <ele>96.7</ele>
        <time>2024-07-17T09:50:49Z</time>
      </trkpt>
      <trkpt lat="49.98888" lon="2.26138">
        <ele>96.7</ele>
        <time>2024-07-17T09:50:50Z</time>
      </trkpt>
      <trkpt lat="49.98888" lon="2.26138">
        <ele>96.7</ele>
        <time>2024-07-17T09:50:51Z</time>
      </trkpt>
      <trkpt lat="49.98888" lon="2.26138">
        <ele>96.7</ele>
        <time>2024-07-17T09:50:52Z</time>
      </trkpt>
      <trkpt lat="49.98888" lon="2.26138">
        <ele>96.7</ele>
        <time>2024-07-17T09:50:53Z</time>
      </trkpt>
      <trkpt lat="49.98888" lon="2.26138">
        <ele>96.7</ele>
        <time>2024-07-17T09:50:54Z</time>
      </trkpt>
      <trkpt lat="49.98888" lon="2.26138">
        <ele>96.7</ele>
        <time>2024-07-17T09:50:55Z</time>
      </trkpt>
      <trkpt lat="49.98888" lon="2.26138">
        <ele>96.7</ele>
        <time>2024-07-17T09:50:56Z</time>
      </trkpt>
      <trkpt lat="49.98888" lon="2.26138">
        <ele>96.7</ele>
        <time>2024-07-17T09:50:57Z</time>
      </trkpt>
      <trkpt lat="49.98888" lon="2.26138">
        <ele>96.7</ele>
        <time>2024-07-17T09:50:58Z</time>
      </trkpt>
      <trkpt lat="49.98888" lon="2.26138">
        <ele>96.7</ele>
        <time>2024-07-17T09:50:59Z</time>
      </trkpt>
      <trkpt lat="49.98888" lon="2.26138">
        <ele>96.7</ele>
        <time>2024-07-17T09:51:00Z</time>
      </trkpt>
      <trkpt lat="49.98888" lon="2.26138">
        <ele>96.7</ele>
        <time>2024-07-17T09:51:01Z</time>
      </trkpt>
      <trkpt lat="49.98888" lon="2.26138">
        <ele>96.7</ele>
        <time>2024-07-17T09:51:02Z</time>
      </trkpt>
      <trkpt lat="49.98887" lon="2.26138">
        <ele>96.7</ele>
        <time>2024-07-17T09:51:03Z</time>
      </trkpt>
      <trkpt lat="49.98888" lon="2.26138">
        <ele>96.7</ele>
        <time>2024-07-17T09:51:04Z</time>
      </trkpt>
      <trkpt lat="49.98888" lon="2.26138">
        <ele>96.7</ele>
        <time>2024-07-17T09:51:05Z</time>
      </trkpt>
      <trkpt lat="49.98888" lon="2.26138">
        <ele>96.7</ele>
        <time>2024-07-17T09:51:06Z</time>
      </trkpt>
      <trkpt lat="49.98888" lon="2.26138">
        <ele>96.7</ele>
        <time>2024-07-17T09:51:07Z</time>
      </trkpt>
      <trkpt lat="49.98888" lon="2.26138">
        <ele>96.7</ele>
        <time>2024-07-17T09:51:08Z</time>
      </trkpt>
      <trkpt lat="49.98888" lon="2.26138">
        <ele>96.7</ele>
        <time>2024-07-17T09:51:09Z</time>
      </trkpt>
      <trkpt lat="49.98888" lon="2.26138">
        <ele>96.7</ele>
        <time>2024-07-17T09:51:10Z</time>
      </trkpt>
      <trkpt lat="49.98888" lon="2.26138">
        <ele>96.7</ele>
        <time>2024-07-17T09:51:11Z</time>
      </trkpt>
      <trkpt lat="49.98888" lon="2.26138">
        <ele>96.7</ele>
        <time>2024-07-17T09:51:12Z</time>
      </trkpt>
      <trkpt lat="49.98887" lon="2.26138">
        <ele>96.7</ele>
        <time>2024-07-17T09:51:13Z</time>
      </trkpt>
      <trkpt lat="49.98887" lon="2.26138">
        <ele>96.7</ele>
        <time>2024-07-17T09:51:14Z</time>
      </trkpt>
      <trkpt lat="49.98887" lon="2.26138">
        <ele>96.7</ele>
        <time>2024-07-17T09:51:15Z</time>
      </trkpt>
      <trkpt lat="49.98887" lon="2.26138">
        <ele>96.7</ele>
        <time>2024-07-17T09:51:16Z</time>
      </trkpt>
      <trkpt lat="49.98888" lon="2.26138">
        <ele>96.7</ele>
        <time>2024-07-17T09:51:17Z</time>
      </trkpt>
      <trkpt lat="49.98888" lon="2.26137">
        <ele>96.7</ele>
        <time>2024-07-17T09:51:18Z</time>
      </trkpt>
      <trkpt lat="49.98888" lon="2.26137">
        <ele>96.7</ele>
        <time>2024-07-17T09:51:19Z</time>
      </trkpt>
      <trkpt lat="49.98889" lon="2.26136">
        <ele>96.7</ele>
        <time>2024-07-17T09:51:20Z</time>
      </trkpt>
      <trkpt lat="49.98889" lon="2.26136">
        <ele>96.7</ele>
        <time>2024-07-17T09:51:21Z</time>
      </trkpt>
      <trkpt lat="49.9889" lon="2.26137">
        <ele>96.7</ele>
        <time>2024-07-17T09:51:22Z</time>
      </trkpt>
      <trkpt lat="49.9889" lon="2.26137">
        <ele>96.7</ele>
        <time>2024-07-17T09:51:23Z</time>
      </trkpt>
      <trkpt lat="49.98891" lon="2.26138">
        <ele>96.7</ele>
        <time>2024-07-17T09:51:24Z</time>
      </trkpt>
      <trkpt lat="49.98891" lon="2.26139">
        <ele>96.7</ele>
        <time>2024-07-17T09:51:25Z</time>
      </trkpt>
      <trkpt lat="49.98891" lon="2.26139">
        <ele>96.7</ele>
        <time>2024-07-17T09:51:26Z</time>
      </trkpt>
      <trkpt lat="49.9889" lon="2.2614">
        <ele>96.7</ele>
        <time>2024-07-17T09:51:27Z</time>
      </trkpt>
      <trkpt lat="49.9889" lon="2.26141">
        <ele>96.7</ele>
        <time>2024-07-17T09:51:28Z</time>
      </trkpt>
      <trkpt lat="49.98889" lon="2.26141">
        <ele>96.7</ele>
        <time>2024-07-17T09:51:29Z</time>
      </trkpt>
      <trkpt lat="49.98889" lon="2.2614">
        <ele>96.7</ele>
        <time>2024-07-17T09:51:30Z</time>
      </trkpt>
      <trkpt lat="49.98889" lon="2.26139">
        <ele>96.7</ele>
        <time>2024-07-17T09:51:31Z</time>
      </trkpt>
      <trkpt lat="49.98889" lon="2.26139">
        <ele>96.7</ele>
        <time>2024-07-17T09:51:32Z</time>
      </trkpt>
      <trkpt lat="49.98889" lon="2.2614">
        <ele>96.7</ele>
        <time>2024-07-17T09:51:33Z</time>
      </trkpt>
      <trkpt lat="49.98889" lon="2.26141">
        <ele>96.7</ele>
        <time>2024-07-17T09:51:34Z</time>
      </trkpt>
      <trkpt lat="49.98889" lon="2.26141">
        <ele>96.7</ele>
        <time>2024-07-17T09:51:35Z</time>
      </trkpt>
      <trkpt lat="49.98889" lon="2.26141">
        <ele>96.7</ele>
        <time>2024-07-17T09:51:36Z</time>
      </trkpt>
      <trkpt lat="49.98889" lon="2.26141">
        <ele>96.7</ele>
        <time>2024-07-17T09:51:37Z</time>
      </trkpt>
      <trkpt lat="49.98889" lon="2.26141">
        <ele>96.7</ele>
        <time>2024-07-17T09:51:38Z</time>
      </trkpt>
      <trkpt lat="49.98889" lon="2.26142">
        <ele>96.7</ele>
        <time>2024-07-17T09:51:39Z</time>
      </trkpt>
      <trkpt lat="49.98889" lon="2.26142">
        <ele>96.7</ele>
        <time>2024-07-17T09:51:40Z</time>
      </trkpt>
      <trkpt lat="49.98889" lon="2.26142">
        <ele>96.7</ele>
        <time>2024-07-17T09:51:41Z</time>
      </trkpt>
      <trkpt lat="49.98889" lon="2.26142">
        <ele>96.6</ele>
        <time>2024-07-17T09:51:42Z</time>
      </trkpt>
      <trkpt lat="49.98889" lon="2.26142">
        <ele>96.6</ele>
        <time>2024-07-17T09:51:43Z</time>
      </trkpt>
      <trkpt lat="49.98889" lon="2.26142">
        <ele>96.6</ele>
        <time>2024-07-17T09:51:44Z</time>
      </trkpt>
      <trkpt lat="49.98889" lon="2.26142">
        <ele>96.6</ele>
        <time>2024-07-17T09:51:45Z</time>
      </trkpt>
      <trkpt lat="49.98889" lon="2.26142">
        <ele>96.6</ele>
        <time>2024-07-17T09:51:46Z</time>
      </trkpt>
      <trkpt lat="49.98889" lon="2.26142">
        <ele>96.6</ele>
        <time>2024-07-17T09:51:47Z</time>
      </trkpt>
      <trkpt lat="49.98889" lon="2.26142">
        <ele>96.6</ele>
        <time>2024-07-17T09:51:48Z</time>
      </trkpt>
      <trkpt lat="49.98889" lon="2.26143">
        <ele>96.6</ele>
        <time>2024-07-17T09:51:49Z</time>
      </trkpt>
      <trkpt lat="49.98889" lon="2.26143">
        <ele>96.6</ele>
        <time>2024-07-17T09:51:50Z</time>
      </trkpt>
      <trkpt lat="49.98889" lon="2.26143">
        <ele>96.6</ele>
        <time>2024-07-17T09:51:51Z</time>
      </trkpt>
      <trkpt lat="49.98889" lon="2.26143">
        <ele>96.6</ele>
        <time>2024-07-17T09:51:52Z</time>
      </trkpt>
      <trkpt lat="49.98889" lon="2.26143">
        <ele>96.6</ele>
        <time>2024-07-17T09:51:53Z</time>
      </trkpt>
      <trkpt lat="49.98889" lon="2.26143">
        <ele>96.6</ele>
        <time>2024-07-17T09:51:54Z</time>
      </trkpt>
      <trkpt lat="49.98889" lon="2.26143">
        <ele>96.6</ele>
        <time>2024-07-17T09:51:55Z</time>
      </trkpt>
      <trkpt lat="49.98889" lon="2.26143">
        <ele>96.6</ele>
        <time>2024-07-17T09:51:56Z</time>
      </trkpt>
      <trkpt lat="49.98889" lon="2.26143">
        <ele>96.6</ele>
        <time>2024-07-17T09:51:57Z</time>
      </trkpt>
      <trkpt lat="49.98889" lon="2.26143">
        <ele>96.6</ele>
        <time>2024-07-17T09:51:58Z</time>
      </trkpt>
      <trkpt lat="49.98889" lon="2.26143">
        <ele>96.6</ele>
        <time>2024-07-17T09:51:59Z</time>
      </trkpt>
      <trkpt lat="49.98889" lon="2.26143">
        <ele>96.6</ele>
        <time>2024-07-17T09:52:00Z</time>
      </trkpt>
      <trkpt lat="49.98889" lon="2.26143">
        <ele>96.6</ele>
        <time>2024-07-17T09:52:01Z</time>
      </trkpt>
      <trkpt lat="49.98889" lon="2.26143">
        <ele>96.6</ele>
        <time>2024-07-17T09:52:02Z</time>
      </trkpt>
      <trkpt lat="49.98889" lon="2.26143">
        <ele>96.6</ele>
        <time>2024-07-17T09:52:03Z</time>
      </trkpt>
      <trkpt lat="49.98889" lon="2.26143">
        <ele>96.6</ele>
        <time>2024-07-17T09:52:04Z</time>
      </trkpt>
      <trkpt lat="49.98889" lon="2.26143">
        <ele>96.6</ele>
        <time>2024-07-17T09:52:05Z</time>
      </trkpt>
      <trkpt lat="49.98889" lon="2.26143">
        <ele>96.6</ele>
        <time>2024-07-17T09:52:06Z</time>
      </trkpt>
      <trkpt lat="49.98889" lon="2.26143">
        <ele>96.6</ele>
        <time>2024-07-17T09:52:07Z</time>
      </trkpt>
      <trkpt lat="49.98889" lon="2.26143">
        <ele>96.6</ele>
        <time>2024-07-17T09:52:08Z</time>
      </trkpt>
      <trkpt lat="49.98889" lon="2.26143">
        <ele>96.6</ele>
        <time>2024-07-17T09:52:09Z</time>
      </trkpt>
      <trkpt lat="49.98889" lon="2.26143">
        <ele>96.6</ele>
        <time>2024-07-17T09:52:10Z</time>
      </trkpt>
      <trkpt lat="49.98889" lon="2.26143">
        <ele>96.6</ele>
        <time>2024-07-17T09:52:11Z</time>
      </trkpt>
      <trkpt lat="49.98889" lon="2.26143">
        <ele>96.6</ele>
        <time>2024-07-17T09:52:12Z</time>
      </trkpt>
      <trkpt lat="49.98889" lon="2.26143">
        <ele>96.6</ele>
        <time>2024-07-17T09:52:13Z</time>
      </trkpt>
      <trkpt lat="49.98889" lon="2.26143">
        <ele>96.6</ele>
        <time>2024-07-17T09:52:14Z</time>
      </trkpt>
      <trkpt lat="49.98889" lon="2.26143">
        <ele>96.6</ele>
        <time>2024-07-17T09:52:15Z</time>
      </trkpt>
      <trkpt lat="49.98889" lon="2.26143">
        <ele>96.6</ele>
        <time>2024-07-17T09:52:16Z</time>
      </trkpt>
      <trkpt lat="49.98888" lon="2.26143">
        <ele>96.6</ele>
        <time>2024-07-17T09:52:17Z</time>
      </trkpt>
      <trkpt lat="49.98888" lon="2.26143">
        <ele>96.6</ele>
        <time>2024-07-17T09:52:18Z</time>
      </trkpt>
      <trkpt lat="49.98888" lon="2.26143">
        <ele>96.6</ele>
        <time>2024-07-17T09:52:19Z</time>
      </trkpt>
      <trkpt lat="49.98888" lon="2.26143">
        <ele>96.6</ele>
        <time>2024-07-17T09:52:20Z</time>
      </trkpt>
      <trkpt lat="49.98888" lon="2.26143">
        <ele>96.6</ele>
        <time>2024-07-17T09:52:21Z</time>
      </trkpt>
      <trkpt lat="49.98888" lon="2.26143">
        <ele>96.6</ele>
        <time>2024-07-17T09:52:22Z</time>
      </trkpt>
      <trkpt lat="49.98888" lon="2.26143">
        <ele>96.6</ele>
        <time>2024-07-17T09:52:23Z</time>
      </trkpt>
      <trkpt lat="49.98888" lon="2.26143">
        <ele>96.6</ele>
        <time>2024-07-17T09:52:24Z</time>
      </trkpt>
      <trkpt lat="49.98888" lon="2.26143">
        <ele>96.6</ele>
        <time>2024-07-17T09:52:25Z</time>
      </trkpt>
      <trkpt lat="49.98888" lon="2.26143">
        <ele>96.6</ele>
        <time>2024-07-17T09:52:26Z</time>
      </trkpt>
      <trkpt lat="49.98888" lon="2.26143">
        <ele>96.6</ele>
        <time>2024-07-17T09:52:27Z</time>
      </trkpt>
      <trkpt lat="49.98888" lon="2.26143">
        <ele>96.6</ele>
        <time>2024-07-17T09:52:28Z</time>
      </trkpt>
      <trkpt lat="49.98888" lon="2.26143">
        <ele>96.6</ele>
        <time>2024-07-17T09:52:29Z</time>
      </trkpt>
      <trkpt lat="49.98888" lon="2.26143">
        <ele>96.6</ele>
        <time>2024-07-17T09:52:30Z</time>
      </trkpt>
      <trkpt lat="49.98888" lon="2.26143">
        <ele>96.6</ele>
        <time>2024-07-17T09:52:31Z</time>
      </trkpt>
      <trkpt lat="49.98888" lon="2.26143">
        <ele>96.6</ele>
        <time>2024-07-17T09:52:32Z</time>
      </trkpt>
      <trkpt lat="49.98888" lon="2.26143">
        <ele>96.6</ele>
        <time>2024-07-17T09:52:33Z</time>
      </trkpt>
      <trkpt lat="49.98888" lon="2.26143">
        <ele>96.6</ele>
        <time>2024-07-17T09:52:34Z</time>
      </trkpt>
    </trkseg>
  </trk>
</gpx>